<?xml version='1.0' encoding='UTF-8'?><gpx version="1.1" creator="JPX - https://github.com/jenetics/jpx" xmlns="http://www.topografix.com/GPX/1/1"><trk><trkseg><trkpt lat="43.70546440874683" lon="7.284444778211861"><ele>23.0</ele><time>2026-05-01T13:29:50.996Z</time></trkpt><trkpt lat="43.7053773643017" lon="7.284524963230846"><ele>23.0</ele><time>2026-05-01T13:29:53.996Z</time></trkpt><trkpt lat="43.705352094212195" lon="7.284613381683185"><ele>23.0</ele><time>2026-05-01T13:29:54.997Z</time></trkpt><trkpt lat="43.70533016607769" lon="7.284711447211016"><ele>23.0</ele><time>2026-05-01T13:29:55.997Z</time></trkpt><trkpt lat="43.70530570359252" lon="7.28480474598623"><ele>23.0</ele><time>2026-05-01T13:29:56.997Z</time></trkpt><trkpt lat="43.70528530602656" lon="7.284907591266295"><ele>23.0</ele><time>2026-05-01T13:29:57.997Z</time></trkpt><trkpt lat="43.705255799483346" lon="7.285022386186935"><ele>22.833333333333336</ele><time>2026-05-01T13:29:58.997Z</time></trkpt><trkpt lat="43.70522839217644" lon="7.285130167223181"><ele>22.666666666666668</ele><time>2026-05-01T13:29:59.998Z</time></trkpt><trkpt lat="43.70520970810431" lon="7.285229230343014"><ele>22.5</ele><time>2026-05-01T13:30:00.998Z</time></trkpt><trkpt lat="43.70518871451685" lon="7.285318225772214"><ele>22.333333333333332</ele><time>2026-05-01T13:30:01.998Z</time></trkpt><trkpt lat="43.70514562166898" lon="7.285489543194702"><ele>22.166666666666664</ele><time>2026-05-01T13:30:03.998Z</time></trkpt><trkpt lat="43.70512301630404" lon="7.285578995196796"><ele>22.0</ele><time>2026-05-01T13:30:04.998Z</time></trkpt><trkpt lat="43.705096902169224" lon="7.285672574273916"><ele>22.0</ele><time>2026-05-01T13:30:05.998Z</time></trkpt><trkpt lat="43.70507087158939" lon="7.285756942623501"><ele>22.0</ele><time>2026-05-01T13:30:06.999Z</time></trkpt><trkpt lat="43.705030733143076" lon="7.285877863685276"><ele>22.0</ele><time>2026-05-01T13:30:08.999Z</time></trkpt><trkpt lat="43.704999017901606" lon="7.2859881403641955"><ele>22.0</ele><time>2026-05-01T13:30:10.999Z</time></trkpt><trkpt lat="43.70496057312528" lon="7.286086223465166"><ele>22.0</ele><time>2026-05-01T13:30:12.999Z</time></trkpt><trkpt lat="43.704934746178665" lon="7.286167684018118"><ele>22.0</ele><time>2026-05-01T13:30:15.999Z</time></trkpt><trkpt lat="43.70490812247753" lon="7.286289863516672"><ele>22.0</ele><time>2026-05-01T13:30:33Z</time></trkpt><trkpt lat="43.70487622367652" lon="7.286385492943585"><ele>22.0</ele><time>2026-05-01T13:30:34Z</time></trkpt><trkpt lat="43.704851708369915" lon="7.286491980683497"><ele>22.0</ele><time>2026-05-01T13:30:35Z</time></trkpt><trkpt lat="43.70481794063885" lon="7.286607945935672"><ele>22.0</ele><time>2026-05-01T13:30:36Z</time></trkpt><trkpt lat="43.70478310264767" lon="7.286732573080376"><ele>22.0</ele><time>2026-05-01T13:30:37Z</time></trkpt><trkpt lat="43.704754241249056" lon="7.286850721580757"><ele>22.0</ele><time>2026-05-01T13:30:38Z</time></trkpt><trkpt lat="43.7047283765134" lon="7.286953036040957"><ele>21.833333333333332</ele><time>2026-05-01T13:30:39Z</time></trkpt><trkpt lat="43.70470695396875" lon="7.287045054496597"><ele>21.666666666666664</ele><time>2026-05-01T13:30:40Z</time></trkpt><trkpt lat="43.704672756933206" lon="7.287144492911293"><ele>21.5</ele><time>2026-05-01T13:30:41Z</time></trkpt><trkpt lat="43.70463838100385" lon="7.287257866471325"><ele>21.333333333333332</ele><time>2026-05-01T13:30:42Z</time></trkpt><trkpt lat="43.704602551333515" lon="7.287362694376465"><ele>21.166666666666668</ele><time>2026-05-01T13:30:43Z</time></trkpt><trkpt lat="43.704567104158706" lon="7.287470137156822"><ele>21.0</ele><time>2026-05-01T13:30:44Z</time></trkpt><trkpt lat="43.704516933300056" lon="7.287596470922682"><ele>21.0</ele><time>2026-05-01T13:30:45Z</time></trkpt><trkpt lat="43.704477128340415" lon="7.287736956691836"><ele>21.0</ele><time>2026-05-01T13:30:46Z</time></trkpt><trkpt lat="43.70443985816672" lon="7.287874746568798"><ele>21.0</ele><time>2026-05-01T13:30:47Z</time></trkpt><trkpt lat="43.70440588142831" lon="7.288000046201712"><ele>21.0</ele><time>2026-05-01T13:30:48Z</time></trkpt><trkpt lat="43.704372121190694" lon="7.288098503574293"><ele>21.0</ele><time>2026-05-01T13:30:49Z</time></trkpt><trkpt lat="43.70434511567369" lon="7.288192939174574"><ele>20.666666666666668</ele><time>2026-05-01T13:30:50Z</time></trkpt><trkpt lat="43.70430455121437" lon="7.288344439842489"><ele>20.333333333333332</ele><time>2026-05-01T13:30:52Z</time></trkpt><trkpt lat="43.70427667152526" lon="7.288424485637896"><ele>20.0</ele><time>2026-05-01T13:30:53Z</time></trkpt><trkpt lat="43.704250065827864" lon="7.288508474198098"><ele>19.666666666666664</ele><time>2026-05-01T13:30:54Z</time></trkpt><trkpt lat="43.70422109505586" lon="7.288586454452486"><ele>19.333333333333332</ele><time>2026-05-01T13:30:55Z</time></trkpt><trkpt lat="43.70419610038102" lon="7.2886872107361285"><ele>19.0</ele><time>2026-05-01T13:30:56Z</time></trkpt><trkpt lat="43.70416497181504" lon="7.288798346022956"><ele>19.0</ele><time>2026-05-01T13:30:57Z</time></trkpt><trkpt lat="43.70412153974153" lon="7.288919453199864"><ele>19.0</ele><time>2026-05-01T13:30:58Z</time></trkpt><trkpt lat="43.70407954229642" lon="7.2890544196613485"><ele>19.0</ele><time>2026-05-01T13:30:59Z</time></trkpt><trkpt lat="43.70403777365358" lon="7.289187979464609"><ele>19.0</ele><time>2026-05-01T13:31:00Z</time></trkpt><trkpt lat="43.70399548039266" lon="7.289329693185206"><ele>19.0</ele><time>2026-05-01T13:31:01Z</time></trkpt><trkpt lat="43.70395312696254" lon="7.2894568615639015"><ele>19.4</ele><time>2026-05-01T13:31:02Z</time></trkpt><trkpt lat="43.70391819808044" lon="7.289575732503089"><ele>19.799999999999997</ele><time>2026-05-01T13:31:03Z</time></trkpt><trkpt lat="43.7038857096393" lon="7.289683099997789"><ele>20.200000000000003</ele><time>2026-05-01T13:31:04Z</time></trkpt><trkpt lat="43.70385841381483" lon="7.289774467737669"><ele>20.6</ele><time>2026-05-01T13:31:05Z</time></trkpt><trkpt lat="43.70383875340914" lon="7.289943909953187"><ele>21.0</ele><time>2026-05-01T13:31:07Z</time></trkpt><trkpt lat="43.703941000332584" lon="7.290091729087772"><ele>21.4</ele><time>2026-05-01T13:31:09Z</time></trkpt><trkpt lat="43.70402395827747" lon="7.290145012296909"><ele>21.8</ele><time>2026-05-01T13:31:10Z</time></trkpt><trkpt lat="43.70412036000502" lon="7.2901983902653456"><ele>22.2</ele><time>2026-05-01T13:31:11Z</time></trkpt><trkpt lat="43.70420896159989" lon="7.290262612205457"><ele>22.599999999999998</ele><time>2026-05-01T13:31:12Z</time></trkpt><trkpt lat="43.70428803700008" lon="7.290316641823687"><ele>23.0</ele><time>2026-05-01T13:31:13Z</time></trkpt><trkpt lat="43.70437277257175" lon="7.290380635015267"><ele>22.799999999999997</ele><time>2026-05-01T13:31:14Z</time></trkpt><trkpt lat="43.7044764795473" lon="7.290459171154056"><ele>22.6</ele><time>2026-05-01T13:31:15Z</time></trkpt><trkpt lat="43.70456703762777" lon="7.290530060242137"><ele>22.4</ele><time>2026-05-01T13:31:16Z</time></trkpt><trkpt lat="43.70465840385578" lon="7.290605356791369"><ele>22.200000000000003</ele><time>2026-05-01T13:31:17Z</time></trkpt><trkpt lat="43.704751132998915" lon="7.290663896766613"><ele>22.0</ele><time>2026-05-01T13:31:18Z</time></trkpt><trkpt lat="43.70482555027274" lon="7.290721038951699"><ele>21.333333333333332</ele><time>2026-05-01T13:31:19Z</time></trkpt><trkpt lat="43.70489686474311" lon="7.290771457214199"><ele>20.666666666666664</ele><time>2026-05-01T13:31:20Z</time></trkpt><trkpt lat="43.70496635512062" lon="7.29082611953116"><ele>20.0</ele><time>2026-05-01T13:31:21Z</time></trkpt><trkpt lat="43.705036665036125" lon="7.290882387109751"><ele>19.333333333333332</ele><time>2026-05-01T13:31:22Z</time></trkpt><trkpt lat="43.70510411156496" lon="7.290942514026052"><ele>18.666666666666668</ele><time>2026-05-01T13:31:23Z</time></trkpt><trkpt lat="43.705177295943024" lon="7.291013420413323"><ele>18.0</ele><time>2026-05-01T13:31:24Z</time></trkpt><trkpt lat="43.70526518883228" lon="7.291077013482251"><ele>17.6</ele><time>2026-05-01T13:31:25Z</time></trkpt><trkpt lat="43.70535927892801" lon="7.29115188488427"><ele>17.200000000000003</ele><time>2026-05-01T13:31:26Z</time></trkpt><trkpt lat="43.70545486560959" lon="7.291224380415079"><ele>16.8</ele><time>2026-05-01T13:31:27Z</time></trkpt><trkpt lat="43.70555002659723" lon="7.291282479033648"><ele>16.400000000000002</ele><time>2026-05-01T13:31:28Z</time></trkpt><trkpt lat="43.70564223082835" lon="7.291361171895138"><ele>16.0</ele><time>2026-05-01T13:31:29Z</time></trkpt><trkpt lat="43.70573196117376" lon="7.291426921911944"><ele>16.0</ele><time>2026-05-01T13:31:30Z</time></trkpt><trkpt lat="43.705819942171466" lon="7.291491768383498"><ele>16.0</ele><time>2026-05-01T13:31:31Z</time></trkpt><trkpt lat="43.7059033818317" lon="7.291556876082748"><ele>16.0</ele><time>2026-05-01T13:31:32Z</time></trkpt><trkpt lat="43.70599098220011" lon="7.29162143700341"><ele>16.0</ele><time>2026-05-01T13:31:33Z</time></trkpt><trkpt lat="43.706081641217565" lon="7.291686373966354"><ele>16.0</ele><time>2026-05-01T13:31:34Z</time></trkpt><trkpt lat="43.7061709124965" lon="7.291747885073594"><ele>17.0</ele><time>2026-05-01T13:31:35Z</time></trkpt><trkpt lat="43.70626832993816" lon="7.291814624408842"><ele>18.0</ele><time>2026-05-01T13:31:36Z</time></trkpt><trkpt lat="43.70636801299826" lon="7.291879613370897"><ele>19.0</ele><time>2026-05-01T13:31:37Z</time></trkpt><trkpt lat="43.70646615296874" lon="7.291948663952237"><ele>20.0</ele><time>2026-05-01T13:31:38Z</time></trkpt><trkpt lat="43.70654735479385" lon="7.292012692568664"><ele>21.0</ele><time>2026-05-01T13:31:39Z</time></trkpt><trkpt lat="43.70661300760693" lon="7.292056511957771"><ele>21.0</ele><time>2026-05-01T13:31:40Z</time></trkpt><trkpt lat="43.706683023366764" lon="7.292114660879026"><ele>21.0</ele><time>2026-05-01T13:31:41Z</time></trkpt><trkpt lat="43.70675460727181" lon="7.292170990200082"><ele>21.0</ele><time>2026-05-01T13:31:42Z</time></trkpt><trkpt lat="43.70682924082802" lon="7.292225898739723"><ele>21.0</ele><time>2026-05-01T13:31:43Z</time></trkpt><trkpt lat="43.70691421183139" lon="7.292287994570101"><ele>21.0</ele><time>2026-05-01T13:31:44Z</time></trkpt><trkpt lat="43.707012085192126" lon="7.2923542144112155"><ele>20.8</ele><time>2026-05-01T13:31:45Z</time></trkpt><trkpt lat="43.707114687930435" lon="7.292422447495217"><ele>20.6</ele><time>2026-05-01T13:31:46Z</time></trkpt><trkpt lat="43.707216435812946" lon="7.292485355812422"><ele>20.4</ele><time>2026-05-01T13:31:47Z</time></trkpt><trkpt lat="43.70731595193572" lon="7.292558313450473"><ele>20.2</ele><time>2026-05-01T13:31:48Z</time></trkpt><trkpt lat="43.70741282025082" lon="7.292623577735109"><ele>20.0</ele><time>2026-05-01T13:31:49Z</time></trkpt><trkpt lat="43.707501806306546" lon="7.292686653575284"><ele>20.0</ele><time>2026-05-01T13:31:50Z</time></trkpt><trkpt lat="43.70759682105838" lon="7.29273636184281"><ele>20.0</ele><time>2026-05-01T13:31:51Z</time></trkpt><trkpt lat="43.7076946799112" lon="7.292763473846687"><ele>20.0</ele><time>2026-05-01T13:31:52Z</time></trkpt><trkpt lat="43.707791164971276" lon="7.292791958352497"><ele>20.0</ele><time>2026-05-01T13:31:53Z</time></trkpt><trkpt lat="43.70788288792197" lon="7.292816316296308"><ele>20.0</ele><time>2026-05-01T13:31:54Z</time></trkpt><trkpt lat="43.70796727208021" lon="7.292830590458261"><ele>20.5</ele><time>2026-05-01T13:31:55Z</time></trkpt><trkpt lat="43.7080470385691" lon="7.292830422055957"><ele>21.0</ele><time>2026-05-01T13:31:56Z</time></trkpt><trkpt lat="43.708114682205284" lon="7.292823772515515"><ele>21.5</ele><time>2026-05-01T13:31:57Z</time></trkpt><trkpt lat="43.7081828033696" lon="7.2928419163369025"><ele>22.0</ele><time>2026-05-01T13:31:58Z</time></trkpt><trkpt lat="43.708275842010394" lon="7.29298634441089"><ele>22.5</ele><time>2026-05-01T13:31:59.999Z</time></trkpt><trkpt lat="43.70828383884446" lon="7.2930920023740144"><ele>23.0</ele><time>2026-05-01T13:32:00.999Z</time></trkpt><trkpt lat="43.708278713995384" lon="7.2932061805784585"><ele>23.142857142857142</ele><time>2026-05-01T13:32:01.999Z</time></trkpt><trkpt lat="43.70827790754896" lon="7.293318944524544"><ele>23.285714285714285</ele><time>2026-05-01T13:32:02.999Z</time></trkpt><trkpt lat="43.70828749900832" lon="7.293421089778448"><ele>23.428571428571427</ele><time>2026-05-01T13:32:03.999Z</time></trkpt><trkpt lat="43.70831432780009" lon="7.2935201618429115"><ele>23.57142857142857</ele><time>2026-05-01T13:32:04.999Z</time></trkpt><trkpt lat="43.708359451235076" lon="7.293610689469939"><ele>23.714285714285715</ele><time>2026-05-01T13:32:05.999Z</time></trkpt><trkpt lat="43.70840700353566" lon="7.293684714158386"><ele>23.857142857142854</ele><time>2026-05-01T13:32:06.999Z</time></trkpt><trkpt lat="43.70845939161704" lon="7.293739513612358"><ele>24.0</ele><time>2026-05-01T13:32:07.999Z</time></trkpt><trkpt lat="43.708527856246405" lon="7.293802536607421"><ele>24.2</ele><time>2026-05-01T13:32:08.999Z</time></trkpt><trkpt lat="43.708611841877605" lon="7.293862154938912"><ele>24.4</ele><time>2026-05-01T13:32:09.999Z</time></trkpt><trkpt lat="43.70870591797019" lon="7.293941595429438"><ele>24.6</ele><time>2026-05-01T13:32:10.999Z</time></trkpt><trkpt lat="43.7088065585115" lon="7.294019218085748"><ele>24.8</ele><time>2026-05-01T13:32:11.999Z</time></trkpt><trkpt lat="43.70890880548073" lon="7.2940921076414424"><ele>25.0</ele><time>2026-05-01T13:32:12.999Z</time></trkpt><trkpt lat="43.70900328310712" lon="7.294166255440072"><ele>26.500000000000004</ele><time>2026-05-01T13:32:13.999Z</time></trkpt><trkpt lat="43.70908165080714" lon="7.294227754512264"><ele>28.0</ele><time>2026-05-01T13:32:14.999Z</time></trkpt><trkpt lat="43.70915877764546" lon="7.294279853277861"><ele>29.5</ele><time>2026-05-01T13:32:15.999Z</time></trkpt><trkpt lat="43.70923962492833" lon="7.2943188488770865"><ele>31.0</ele><time>2026-05-01T13:32:16.999Z</time></trkpt><trkpt lat="43.70931316147768" lon="7.294355807960281"><ele>32.5</ele><time>2026-05-01T13:32:17.999Z</time></trkpt><trkpt lat="43.709376713099864" lon="7.29437916007634"><ele>34.0</ele><time>2026-05-01T13:32:18.999Z</time></trkpt><trkpt lat="43.709476391551796" lon="7.294419890489066"><ele>34.0</ele><time>2026-05-01T13:32:20.999Z</time></trkpt><trkpt lat="43.70954017345109" lon="7.294444161794173"><ele>34.0</ele><time>2026-05-01T13:32:21.999Z</time></trkpt><trkpt lat="43.70961237642301" lon="7.294470767119582"><ele>34.0</ele><time>2026-05-01T13:32:22.999Z</time></trkpt><trkpt lat="43.70968498595036" lon="7.294493881733718"><ele>34.0</ele><time>2026-05-01T13:32:23.999Z</time></trkpt><trkpt lat="43.70976215293509" lon="7.294517917642803"><ele>34.0</ele><time>2026-05-01T13:32:24.999Z</time></trkpt><trkpt lat="43.709845542916185" lon="7.294549028616442"><ele>34.0</ele><time>2026-05-01T13:32:25.999Z</time></trkpt><trkpt lat="43.709928288517816" lon="7.294578321835302"><ele>34.0</ele><time>2026-05-01T13:32:26.999Z</time></trkpt><trkpt lat="43.71002238338973" lon="7.294613071086048"><ele>34.0</ele><time>2026-05-01T13:32:27.999Z</time></trkpt><trkpt lat="43.71011316274325" lon="7.294646902452014"><ele>34.0</ele><time>2026-05-01T13:32:28.999Z</time></trkpt><trkpt lat="43.71020518497424" lon="7.294687038771662"><ele>34.0</ele><time>2026-05-01T13:32:29.999Z</time></trkpt><trkpt lat="43.7102915430982" lon="7.294738721563065"><ele>34.0</ele><time>2026-05-01T13:32:30.999Z</time></trkpt><trkpt lat="43.71037015429385" lon="7.2948099382534135"><ele>36.16666666666667</ele><time>2026-05-01T13:32:31.999Z</time></trkpt><trkpt lat="43.710447278909456" lon="7.294879798837579"><ele>38.333333333333336</ele><time>2026-05-01T13:32:32.999Z</time></trkpt><trkpt lat="43.71052700992028" lon="7.294946528722145"><ele>40.5</ele><time>2026-05-01T13:32:33.999Z</time></trkpt><trkpt lat="43.710607676606905" lon="7.2950133976667075"><ele>42.666666666666664</ele><time>2026-05-01T13:32:34.999Z</time></trkpt><trkpt lat="43.71068264809584" lon="7.295076220229376"><ele>44.83333333333333</ele><time>2026-05-01T13:32:35.999Z</time></trkpt><trkpt lat="43.71074672156807" lon="7.2951328520702345"><ele>47.0</ele><time>2026-05-01T13:32:36.999Z</time></trkpt><trkpt lat="43.7108136780412" lon="7.295191622043101"><ele>47.0</ele><time>2026-05-01T13:32:37.999Z</time></trkpt><trkpt lat="43.71088398218481" lon="7.295254726394898"><ele>47.0</ele><time>2026-05-01T13:32:38.999Z</time></trkpt><trkpt lat="43.71095535795672" lon="7.295310114289668"><ele>47.0</ele><time>2026-05-01T13:32:39.999Z</time></trkpt><trkpt lat="43.71103902555632" lon="7.295353104296308"><ele>47.0</ele><time>2026-05-01T13:32:40.999Z</time></trkpt><trkpt lat="43.71113173323238" lon="7.2953919212699905"><ele>47.0</ele><time>2026-05-01T13:32:41.999Z</time></trkpt><trkpt lat="43.71122971880643" lon="7.2954319411003"><ele>45.25</ele><time>2026-05-01T13:32:42.999Z</time></trkpt><trkpt lat="43.71133141480068" lon="7.295478565278037"><ele>43.5</ele><time>2026-05-01T13:32:43.999Z</time></trkpt><trkpt lat="43.71144003213802" lon="7.29552633457686"><ele>41.75</ele><time>2026-05-01T13:32:44.999Z</time></trkpt><trkpt lat="43.711551486607824" lon="7.2955751921894"><ele>40.0</ele><time>2026-05-01T13:32:45.999Z</time></trkpt><trkpt lat="43.71165760602762" lon="7.295625127497481"><ele>45.0</ele><time>2026-05-01T13:32:46.999Z</time></trkpt><trkpt lat="43.711758579002094" lon="7.295671365117255"><ele>50.0</ele><time>2026-05-01T13:32:47.999Z</time></trkpt><trkpt lat="43.71185572909945" lon="7.295723253987953"><ele>55.0</ele><time>2026-05-01T13:32:48.999Z</time></trkpt><trkpt lat="43.71195904049126" lon="7.2957659925978495"><ele>60.0</ele><time>2026-05-01T13:32:49.999Z</time></trkpt><trkpt lat="43.7120613153342" lon="7.295813735121659"><ele>65.0</ele><time>2026-05-01T13:32:50.999Z</time></trkpt><trkpt lat="43.71216961740233" lon="7.29585792522653"><ele>65.0</ele><time>2026-05-01T13:32:51.999Z</time></trkpt><trkpt lat="43.712288488903845" lon="7.295891504944318"><ele>65.0</ele><time>2026-05-01T13:32:52.999Z</time></trkpt><trkpt lat="43.71241530953958" lon="7.29589420513751"><ele>65.0</ele><time>2026-05-01T13:32:53.999Z</time></trkpt><trkpt lat="43.71250535075648" lon="7.295892628223136"><ele>65.0</ele><time>2026-05-01T13:32:54.999Z</time></trkpt><trkpt lat="43.71261631647437" lon="7.295898630610055"><ele>65.0</ele><time>2026-05-01T13:32:55.999Z</time></trkpt><trkpt lat="43.71271660665398" lon="7.295911674123718"><ele>64.4</ele><time>2026-05-01T13:32:56.999Z</time></trkpt><trkpt lat="43.712803655528425" lon="7.295935490601552"><ele>63.8</ele><time>2026-05-01T13:32:57.999Z</time></trkpt><trkpt lat="43.71288280136511" lon="7.295969185122321"><ele>63.2</ele><time>2026-05-01T13:32:58.999Z</time></trkpt><trkpt lat="43.7129941300721" lon="7.296012597019958"><ele>62.6</ele><time>2026-05-01T13:32:59.999Z</time></trkpt><trkpt lat="43.7130889129672" lon="7.29606687640729"><ele>62.0</ele><time>2026-05-01T13:33:00.999Z</time></trkpt><trkpt lat="43.71318333473343" lon="7.296131632458389"><ele>62.0</ele><time>2026-05-01T13:33:01.999Z</time></trkpt><trkpt lat="43.71328340922007" lon="7.296193788058336"><ele>62.0</ele><time>2026-05-01T13:33:02.999Z</time></trkpt><trkpt lat="43.713388464175516" lon="7.296254392970752"><ele>62.0</ele><time>2026-05-01T13:33:03.999Z</time></trkpt><trkpt lat="43.71349749548212" lon="7.296314873920019"><ele>62.0</ele><time>2026-05-01T13:33:04.999Z</time></trkpt><trkpt lat="43.71360631572026" lon="7.296383358840895"><ele>66.0</ele><time>2026-05-01T13:33:05.999Z</time></trkpt><trkpt lat="43.713718461334686" lon="7.296453421015063"><ele>70.0</ele><time>2026-05-01T13:33:06.999Z</time></trkpt><trkpt lat="43.71382905014552" lon="7.2965150926911635"><ele>74.0</ele><time>2026-05-01T13:33:07.999Z</time></trkpt><trkpt lat="43.713940080881294" lon="7.296569574270018"><ele>78.0</ele><time>2026-05-01T13:33:08.999Z</time></trkpt><trkpt lat="43.71404709899221" lon="7.29662773802822"><ele>78.0</ele><time>2026-05-01T13:33:09.999Z</time></trkpt><trkpt lat="43.71415220096842" lon="7.296690728280454"><ele>78.0</ele><time>2026-05-01T13:33:10.999Z</time></trkpt><trkpt lat="43.7142562456274" lon="7.296757212808748"><ele>78.0</ele><time>2026-05-01T13:33:11.999Z</time></trkpt><trkpt lat="43.71436376119346" lon="7.296820074789202"><ele>78.0</ele><time>2026-05-01T13:33:12.999Z</time></trkpt><trkpt lat="43.714469677499565" lon="7.296873901777611"><ele>78.2</ele><time>2026-05-01T13:33:13.999Z</time></trkpt><trkpt lat="43.71458144925023" lon="7.296912121026605"><ele>78.4</ele><time>2026-05-01T13:33:14.999Z</time></trkpt><trkpt lat="43.7146907519952" lon="7.29694322280216"><ele>78.60000000000001</ele><time>2026-05-01T13:33:15.999Z</time></trkpt><trkpt lat="43.714793220320615" lon="7.296971723580179"><ele>78.8</ele><time>2026-05-01T13:33:16.999Z</time></trkpt><trkpt lat="43.714892210846635" lon="7.297000544416293"><ele>79.0</ele><time>2026-05-01T13:33:17.999Z</time></trkpt><trkpt lat="43.71498453555306" lon="7.2970246305033495"><ele>79.0</ele><time>2026-05-01T13:33:18.999Z</time></trkpt><trkpt lat="43.71505273869577" lon="7.29704414785071"><ele>79.0</ele><time>2026-05-01T13:33:19.999Z</time></trkpt><trkpt lat="43.71514062136011" lon="7.29706010917973"><ele>79.0</ele><time>2026-05-01T13:33:21.999Z</time></trkpt><trkpt lat="43.71523683692981" lon="7.2970936073458255"><ele>79.0</ele><time>2026-05-01T13:33:23.999Z</time></trkpt><trkpt lat="43.71530811676733" lon="7.297119773104503"><ele>79.0</ele><time>2026-05-01T13:33:24.999Z</time></trkpt><trkpt lat="43.715417072052325" lon="7.297135176773889"><ele>79.0</ele><time>2026-05-01T13:33:25.999Z</time></trkpt><trkpt lat="43.71553227722435" lon="7.297164835982244"><ele>78.25</ele><time>2026-05-01T13:33:26.999Z</time></trkpt><trkpt lat="43.71566212942501" lon="7.297214812256367"><ele>77.5</ele><time>2026-05-01T13:33:27.999Z</time></trkpt><trkpt lat="43.71578370737009" lon="7.297252422373727"><ele>76.75</ele><time>2026-05-01T13:33:28.999Z</time></trkpt><trkpt lat="43.715906096127924" lon="7.2972777364639665"><ele>76.0</ele><time>2026-05-01T13:33:29.999Z</time></trkpt><trkpt lat="43.71601371816324" lon="7.297302701218572"><ele>81.19999999999999</ele><time>2026-05-01T13:33:30.999Z</time></trkpt><trkpt lat="43.71611405039545" lon="7.297332282845836"><ele>86.39999999999999</ele><time>2026-05-01T13:33:31.999Z</time></trkpt><trkpt lat="43.71621653949073" lon="7.297355529903027"><ele>91.6</ele><time>2026-05-01T13:33:32.999Z</time></trkpt><trkpt lat="43.71632642135745" lon="7.297383768203518"><ele>96.8</ele><time>2026-05-01T13:33:33.999Z</time></trkpt><trkpt lat="43.71644019884742" lon="7.297419372185793"><ele>102.0</ele><time>2026-05-01T13:33:34.999Z</time></trkpt><trkpt lat="43.71655845563827" lon="7.297451057669941"><ele>102.0</ele><time>2026-05-01T13:33:35.999Z</time></trkpt><trkpt lat="43.71667624010477" lon="7.297476694117166"><ele>102.0</ele><time>2026-05-01T13:33:36.999Z</time></trkpt><trkpt lat="43.716796146301014" lon="7.297508743949066"><ele>102.0</ele><time>2026-05-01T13:33:37.999Z</time></trkpt><trkpt lat="43.71690979334261" lon="7.2975437252275395"><ele>102.0</ele><time>2026-05-01T13:33:38.999Z</time></trkpt><trkpt lat="43.71701691692269" lon="7.297574080251776"><ele>101.39999999999999</ele><time>2026-05-01T13:33:39.999Z</time></trkpt><trkpt lat="43.717119566843444" lon="7.29761464118673"><ele>100.8</ele><time>2026-05-01T13:33:40.999Z</time></trkpt><trkpt lat="43.71720773822228" lon="7.297676604679674"><ele>100.2</ele><time>2026-05-01T13:33:41.999Z</time></trkpt><trkpt lat="43.71728758081264" lon="7.297774069463227"><ele>99.6</ele><time>2026-05-01T13:33:42.999Z</time></trkpt><trkpt lat="43.71735628922193" lon="7.297903044738117"><ele>99.0</ele><time>2026-05-01T13:33:43.999Z</time></trkpt><trkpt lat="43.71742723008547" lon="7.298052703254753"><ele>103.4</ele><time>2026-05-01T13:33:44.999Z</time></trkpt><trkpt lat="43.71749852742265" lon="7.298194526055562"><ele>107.80000000000001</ele><time>2026-05-01T13:33:45.999Z</time></trkpt><trkpt lat="43.71757116992742" lon="7.298311903136936"><ele>112.19999999999999</ele><time>2026-05-01T13:33:46.999Z</time></trkpt><trkpt lat="43.71762897769017" lon="7.298410925187884"><ele>116.6</ele><time>2026-05-01T13:33:47.999Z</time></trkpt><trkpt lat="43.7177037912386" lon="7.2984787443501045"><ele>121.0</ele><time>2026-05-01T13:33:48.999Z</time></trkpt><trkpt lat="43.71778899256058" lon="7.298502941232817"><ele>123.6</ele><time>2026-05-01T13:33:49.999Z</time></trkpt><trkpt lat="43.717885560152794" lon="7.298500970460413"><ele>126.19999999999999</ele><time>2026-05-01T13:33:50.999Z</time></trkpt><trkpt lat="43.717974820502164" lon="7.2984398917783455"><ele>128.8</ele><time>2026-05-01T13:33:51.999Z</time></trkpt><trkpt lat="43.7180521484942" lon="7.29833906675935"><ele>131.4</ele><time>2026-05-01T13:33:52.999Z</time></trkpt><trkpt lat="43.71812918314926" lon="7.298228320636042"><ele>134.0</ele><time>2026-05-01T13:33:53.999Z</time></trkpt><trkpt lat="43.71820982108868" lon="7.298125772041768"><ele>128.0</ele><time>2026-05-01T13:33:54.999Z</time></trkpt><trkpt lat="43.718290678788435" lon="7.2980223865269656"><ele>122.0</ele><time>2026-05-01T13:33:55.999Z</time></trkpt><trkpt lat="43.718375630151534" lon="7.29791926107492"><ele>116.0</ele><time>2026-05-01T13:33:56.999Z</time></trkpt><trkpt lat="43.71845931354605" lon="7.2978116293097095"><ele>110.0</ele><time>2026-05-01T13:33:57.999Z</time></trkpt><trkpt lat="43.71854665653214" lon="7.297705195311048"><ele>119.0</ele><time>2026-05-01T13:33:58.999Z</time></trkpt><trkpt lat="43.718638696252064" lon="7.297605086758949"><ele>128.0</ele><time>2026-05-01T13:33:59.999Z</time></trkpt><trkpt lat="43.718732755508704" lon="7.297500393873514"><ele>137.0</ele><time>2026-05-01T13:34:00.999Z</time></trkpt><trkpt lat="43.7188279671666" lon="7.297389854814883"><ele>146.0</ele><time>2026-05-01T13:34:01.999Z</time></trkpt><trkpt lat="43.71892433501484" lon="7.2972801813343375"><ele>140.8</ele><time>2026-05-01T13:34:02.999Z</time></trkpt><trkpt lat="43.719018306048646" lon="7.297172920724099"><ele>135.6</ele><time>2026-05-01T13:34:03.999Z</time></trkpt><trkpt lat="43.71909867118549" lon="7.297081368896409"><ele>130.4</ele><time>2026-05-01T13:34:04.999Z</time></trkpt><trkpt lat="43.7191687793857" lon="7.297003371441384"><ele>125.2</ele><time>2026-05-01T13:34:05.999Z</time></trkpt><trkpt lat="43.71923789227951" lon="7.296916673611067"><ele>120.0</ele><time>2026-05-01T13:34:06.999Z</time></trkpt><trkpt lat="43.71933209551667" lon="7.296818175095236"><ele>118.8</ele><time>2026-05-01T13:34:07.999Z</time></trkpt><trkpt lat="43.719437027534156" lon="7.296706622923878"><ele>117.6</ele><time>2026-05-01T13:34:08.999Z</time></trkpt><trkpt lat="43.71952227669552" lon="7.296601334648583"><ele>116.4</ele><time>2026-05-01T13:34:10Z</time></trkpt><trkpt lat="43.7195951347745" lon="7.296509288146349"><ele>115.2</ele><time>2026-05-01T13:34:10.999Z</time></trkpt><trkpt lat="43.71967377351777" lon="7.296432158937173"><ele>114.0</ele><time>2026-05-01T13:34:11.999Z</time></trkpt><trkpt lat="43.71975891834527" lon="7.296387551263061"><ele>114.0</ele><time>2026-05-01T13:34:12.999Z</time></trkpt><trkpt lat="43.719858793233826" lon="7.296371796313598"><ele>114.0</ele><time>2026-05-01T13:34:13.999Z</time></trkpt><trkpt lat="43.719963965427866" lon="7.296393084435885"><ele>114.0</ele><time>2026-05-01T13:34:14.999Z</time></trkpt><trkpt lat="43.72007135683121" lon="7.2964449723253155"><ele>114.0</ele><time>2026-05-01T13:34:15.999Z</time></trkpt><trkpt lat="43.72017934066502" lon="7.296523973098239"><ele>114.0</ele><time>2026-05-01T13:34:16.999Z</time></trkpt><trkpt lat="43.72028244750257" lon="7.296622191154309"><ele>121.75</ele><time>2026-05-01T13:34:17.999Z</time></trkpt><trkpt lat="43.72038767192548" lon="7.296738152755661"><ele>129.5</ele><time>2026-05-01T13:34:19Z</time></trkpt><trkpt lat="43.720493720246075" lon="7.296845075771707"><ele>137.25</ele><time>2026-05-01T13:34:19.999Z</time></trkpt><trkpt lat="43.72059011131121" lon="7.296931982564219"><ele>145.0</ele><time>2026-05-01T13:34:21Z</time></trkpt><trkpt lat="43.72069277602012" lon="7.296996765379816"><ele>145.0</ele><time>2026-05-01T13:34:21.999Z</time></trkpt><trkpt lat="43.720794702228055" lon="7.2970253598843415"><ele>145.0</ele><time>2026-05-01T13:34:22.999Z</time></trkpt><trkpt lat="43.720895848954534" lon="7.296991097428405"><ele>145.0</ele><time>2026-05-01T13:34:23.999Z</time></trkpt><trkpt lat="43.720987100756865" lon="7.296904594307447"><ele>145.0</ele><time>2026-05-01T13:34:24.999Z</time></trkpt><trkpt lat="43.721065279586476" lon="7.296784601495031"><ele>145.0</ele><time>2026-05-01T13:34:25.999Z</time></trkpt><trkpt lat="43.7211413910291" lon="7.296648018412327"><ele>147.5</ele><time>2026-05-01T13:34:26.999Z</time></trkpt><trkpt lat="43.72122651788625" lon="7.296514961063296"><ele>150.0</ele><time>2026-05-01T13:34:27.999Z</time></trkpt><trkpt lat="43.72131235663755" lon="7.296368704238448"><ele>152.5</ele><time>2026-05-01T13:34:28.999Z</time></trkpt><trkpt lat="43.72139847058627" lon="7.29622897949211"><ele>155.0</ele><time>2026-05-01T13:34:29.999Z</time></trkpt><trkpt lat="43.72148180842379" lon="7.296104624636315"><ele>155.0</ele><time>2026-05-01T13:34:30.999Z</time></trkpt><trkpt lat="43.7215694737402" lon="7.2959764637906135"><ele>155.0</ele><time>2026-05-01T13:34:31.999Z</time></trkpt><trkpt lat="43.72165806569895" lon="7.295848634836018"><ele>155.0</ele><time>2026-05-01T13:34:32.999Z</time></trkpt><trkpt lat="43.72174816897158" lon="7.295731449362366"><ele>155.0</ele><time>2026-05-01T13:34:33.999Z</time></trkpt><trkpt lat="43.72184235793265" lon="7.2956345295644836"><ele>150.75</ele><time>2026-05-01T13:34:34.999Z</time></trkpt><trkpt lat="43.721948913778654" lon="7.295569975040284"><ele>146.5</ele><time>2026-05-01T13:34:35.999Z</time></trkpt><trkpt lat="43.722070049573084" lon="7.29552878945409"><ele>142.25</ele><time>2026-05-01T13:34:36.999Z</time></trkpt><trkpt lat="43.72219713921135" lon="7.2955011295501215"><ele>138.0</ele><time>2026-05-01T13:34:37.999Z</time></trkpt><trkpt lat="43.722313617460905" lon="7.295478249248551"><ele>138.0</ele><time>2026-05-01T13:34:38.999Z</time></trkpt><trkpt lat="43.72243609300407" lon="7.2955022043884155"><ele>138.0</ele><time>2026-05-01T13:34:39.999Z</time></trkpt><trkpt lat="43.72257299003169" lon="7.295505390275694"><ele>138.0</ele><time>2026-05-01T13:34:40.999Z</time></trkpt><trkpt lat="43.722711420355886" lon="7.2955402178093225"><ele>138.0</ele><time>2026-05-01T13:34:41.999Z</time></trkpt><trkpt lat="43.72282894319545" lon="7.295561330704837"><ele>144.2</ele><time>2026-05-01T13:34:42.999Z</time></trkpt><trkpt lat="43.722933206058855" lon="7.295591263661287"><ele>150.4</ele><time>2026-05-01T13:34:43.999Z</time></trkpt><trkpt lat="43.72303173836802" lon="7.29562213945565"><ele>156.6</ele><time>2026-05-01T13:34:44.999Z</time></trkpt><trkpt lat="43.72311961173462" lon="7.295670701142918"><ele>162.79999999999998</ele><time>2026-05-01T13:34:45.999Z</time></trkpt><trkpt lat="43.72318344279551" lon="7.295776710410497"><ele>169.0</ele><time>2026-05-01T13:34:46.999Z</time></trkpt><trkpt lat="43.72326305841773" lon="7.295900728971465"><ele>169.0</ele><time>2026-05-01T13:34:47.999Z</time></trkpt><trkpt lat="43.723350239873426" lon="7.296043469644137"><ele>169.0</ele><time>2026-05-01T13:34:48.999Z</time></trkpt><trkpt lat="43.723436169354265" lon="7.296188494319115"><ele>169.0</ele><time>2026-05-01T13:34:49.999Z</time></trkpt><trkpt lat="43.72351422897442" lon="7.296311900192002"><ele>169.0</ele><time>2026-05-01T13:34:50.999Z</time></trkpt><trkpt lat="43.72361443793317" lon="7.29639458578698"><ele>175.25</ele><time>2026-05-01T13:34:51.999Z</time></trkpt><trkpt lat="43.72372171428884" lon="7.296462977882852"><ele>181.5</ele><time>2026-05-01T13:34:52.999Z</time></trkpt><trkpt lat="43.72384293383805" lon="7.296505152148073"><ele>187.75</ele><time>2026-05-01T13:34:53.999Z</time></trkpt><trkpt lat="43.72397062069248" lon="7.2965280256565945"><ele>194.0</ele><time>2026-05-01T13:34:54.999Z</time></trkpt><trkpt lat="43.72409684544161" lon="7.2965384209871"><ele>194.0</ele><time>2026-05-01T13:34:55.999Z</time></trkpt><trkpt lat="43.72421471732997" lon="7.2965169861291965"><ele>194.0</ele><time>2026-05-01T13:34:56.999Z</time></trkpt><trkpt lat="43.72433453218581" lon="7.296469119763239"><ele>194.0</ele><time>2026-05-01T13:34:57.999Z</time></trkpt><trkpt lat="43.72445498384576" lon="7.296400514436631"><ele>194.0</ele><time>2026-05-01T13:34:58.999Z</time></trkpt><trkpt lat="43.72457244386113" lon="7.296317527109497"><ele>193.0</ele><time>2026-05-01T13:34:59.999Z</time></trkpt><trkpt lat="43.72468831226433" lon="7.2962268250794216"><ele>192.0</ele><time>2026-05-01T13:35:00.999Z</time></trkpt><trkpt lat="43.72479888930111" lon="7.296118417936401"><ele>191.0</ele><time>2026-05-01T13:35:01.999Z</time></trkpt><trkpt lat="43.7249076061596" lon="7.295989584615243"><ele>190.0</ele><time>2026-05-01T13:35:02.999Z</time></trkpt><trkpt lat="43.725022739197165" lon="7.295863491437312"><ele>190.0</ele><time>2026-05-01T13:35:03.999Z</time></trkpt><trkpt lat="43.725132387503706" lon="7.295746033840095"><ele>190.0</ele><time>2026-05-01T13:35:04.999Z</time></trkpt><trkpt lat="43.7252315491305" lon="7.295636775745769"><ele>190.0</ele><time>2026-05-01T13:35:05.999Z</time></trkpt><trkpt lat="43.72532941066486" lon="7.295512738960205"><ele>190.0</ele><time>2026-05-01T13:35:06.999Z</time></trkpt><trkpt lat="43.725441649710106" lon="7.295398105584841"><ele>192.0</ele><time>2026-05-01T13:35:07.999Z</time></trkpt><trkpt lat="43.7255453237249" lon="7.2952799541187945"><ele>194.0</ele><time>2026-05-01T13:35:08.999Z</time></trkpt><trkpt lat="43.725648374618814" lon="7.29516367154511"><ele>196.0</ele><time>2026-05-01T13:35:09.999Z</time></trkpt><trkpt lat="43.72574994264491" lon="7.295050640559701"><ele>198.0</ele><time>2026-05-01T13:35:10.999Z</time></trkpt><trkpt lat="43.72584466551788" lon="7.294923418630265"><ele>198.0</ele><time>2026-05-01T13:35:11.999Z</time></trkpt><trkpt lat="43.725941224976324" lon="7.294846323563336"><ele>198.0</ele><time>2026-05-01T13:35:12.999Z</time></trkpt><trkpt lat="43.72603221220355" lon="7.294773650136224"><ele>198.0</ele><time>2026-05-01T13:35:13.999Z</time></trkpt><trkpt lat="43.72613840142679" lon="7.294723134176351"><ele>198.0</ele><time>2026-05-01T13:35:14.999Z</time></trkpt><trkpt lat="43.726251243113104" lon="7.294719458908539"><ele>198.0</ele><time>2026-05-01T13:35:15.999Z</time></trkpt><trkpt lat="43.726364936384805" lon="7.294753923056547"><ele>199.0</ele><time>2026-05-01T13:35:16.999Z</time></trkpt><trkpt lat="43.72649307729173" lon="7.294803680436537"><ele>200.0</ele><time>2026-05-01T13:35:17.999Z</time></trkpt><trkpt lat="43.72662522292769" lon="7.294852670540064"><ele>201.0</ele><time>2026-05-01T13:35:18.999Z</time></trkpt><trkpt lat="43.72676562012861" lon="7.294906381863639"><ele>202.0</ele><time>2026-05-01T13:35:19.999Z</time></trkpt><trkpt lat="43.726922512594456" lon="7.2949390738398465"><ele>202.0</ele><time>2026-05-01T13:35:20.999Z</time></trkpt><trkpt lat="43.72706929126324" lon="7.294994568155949"><ele>202.0</ele><time>2026-05-01T13:35:21.999Z</time></trkpt><trkpt lat="43.727207669694444" lon="7.29505144803805"><ele>202.0</ele><time>2026-05-01T13:35:22.999Z</time></trkpt><trkpt lat="43.7273406620037" lon="7.295096677694999"><ele>202.0</ele><time>2026-05-01T13:35:23.999Z</time></trkpt><trkpt lat="43.727476632419304" lon="7.295138227903177"><ele>202.0</ele><time>2026-05-01T13:35:24.999Z</time></trkpt><trkpt lat="43.72762422214642" lon="7.295195512896732"><ele>202.0</ele><time>2026-05-01T13:35:25.999Z</time></trkpt><trkpt lat="43.72777919106753" lon="7.295270164142758"><ele>202.0</ele><time>2026-05-01T13:35:26.999Z</time></trkpt><trkpt lat="43.72793143134226" lon="7.295321208354575"><ele>201.66666666666666</ele><time>2026-05-01T13:35:27.999Z</time></trkpt><trkpt lat="43.728089815368314" lon="7.2953733490413555"><ele>201.33333333333331</ele><time>2026-05-01T13:35:28.999Z</time></trkpt><trkpt lat="43.728244668255655" lon="7.295423874307996"><ele>201.0</ele><time>2026-05-01T13:35:29.999Z</time></trkpt><trkpt lat="43.7284007311364" lon="7.295475866571201"><ele>198.0</ele><time>2026-05-01T13:35:30.999Z</time></trkpt><trkpt lat="43.72855999187137" lon="7.295506375029814"><ele>195.0</ele><time>2026-05-01T13:35:31.999Z</time></trkpt><trkpt lat="43.728709737442514" lon="7.295558927888666"><ele>192.0</ele><time>2026-05-01T13:35:32.999Z</time></trkpt><trkpt lat="43.72885944298796" lon="7.295608831659782"><ele>203.0</ele><time>2026-05-01T13:35:33.999Z</time></trkpt><trkpt lat="43.72900870888854" lon="7.295680003487415"><ele>214.0</ele><time>2026-05-01T13:35:34.999Z</time></trkpt><trkpt lat="43.72916610252079" lon="7.2957332192353945"><ele>225.0</ele><time>2026-05-01T13:35:35.999Z</time></trkpt><trkpt lat="43.729322821080274" lon="7.295785118766896"><ele>223.66666666666669</ele><time>2026-05-01T13:35:36.999Z</time></trkpt><trkpt lat="43.72947728792872" lon="7.295818877181262"><ele>222.33333333333334</ele><time>2026-05-01T13:35:37.999Z</time></trkpt><trkpt lat="43.72962093315876" lon="7.295855366568495"><ele>221.0</ele><time>2026-05-01T13:35:38.999Z</time></trkpt><trkpt lat="43.729769180276115" lon="7.295897592950912"><ele>221.0</ele><time>2026-05-01T13:35:39.999Z</time></trkpt><trkpt lat="43.72990989261802" lon="7.295892399690285"><ele>221.0</ele><time>2026-05-01T13:35:40.999Z</time></trkpt><trkpt lat="43.73004736711961" lon="7.29587532149787"><ele>221.0</ele><time>2026-05-01T13:35:41.999Z</time></trkpt><trkpt lat="43.73017200165096" lon="7.295864015447664"><ele>221.0</ele><time>2026-05-01T13:35:42.999Z</time></trkpt><trkpt lat="43.73029075108834" lon="7.295863428754161"><ele>219.20000000000002</ele><time>2026-05-01T13:35:43.999Z</time></trkpt><trkpt lat="43.7303908467819" lon="7.295872275594782"><ele>217.40000000000003</ele><time>2026-05-01T13:35:44.999Z</time></trkpt><trkpt lat="43.7304719064044" lon="7.29590412860725"><ele>215.6</ele><time>2026-05-01T13:35:45.999Z</time></trkpt><trkpt lat="43.73053877176775" lon="7.295953654809793"><ele>213.8</ele><time>2026-05-01T13:35:46.999Z</time></trkpt><trkpt lat="43.73057884311003" lon="7.296104055517464"><ele>212.0</ele><time>2026-05-01T13:35:48Z</time></trkpt><trkpt lat="43.730650856262706" lon="7.296276543588176"><ele>216.25</ele><time>2026-05-01T13:35:48.999Z</time></trkpt><trkpt lat="43.730684789197824" lon="7.296481555338015"><ele>220.5</ele><time>2026-05-01T13:35:49.999Z</time></trkpt><trkpt lat="43.73073202569483" lon="7.296641839480023"><ele>224.75</ele><time>2026-05-01T13:35:50.999Z</time></trkpt><trkpt lat="43.730733756995186" lon="7.296810863702472"><ele>229.0</ele><time>2026-05-01T13:35:51.999Z</time></trkpt><trkpt lat="43.73074971350174" lon="7.296983651367814"><ele>229.0</ele><time>2026-05-01T13:35:52.999Z</time></trkpt><trkpt lat="43.730732777884576" lon="7.297174379074523"><ele>229.0</ele><time>2026-05-01T13:35:53.999Z</time></trkpt><trkpt lat="43.730702312347105" lon="7.297380183217975"><ele>229.0</ele><time>2026-05-01T13:35:54.999Z</time></trkpt><trkpt lat="43.7306733742035" lon="7.297587016787624"><ele>229.0</ele><time>2026-05-01T13:35:56Z</time></trkpt><trkpt lat="43.73065049835095" lon="7.297780842430315"><ele>229.5</ele><time>2026-05-01T13:35:57Z</time></trkpt><trkpt lat="43.730632386560295" lon="7.297980925586627"><ele>230.0</ele><time>2026-05-01T13:35:58Z</time></trkpt><trkpt lat="43.73060834489515" lon="7.298181356435517"><ele>230.5</ele><time>2026-05-01T13:35:59Z</time></trkpt><trkpt lat="43.730578761982116" lon="7.298375804280973"><ele>231.0</ele><time>2026-05-01T13:36:00Z</time></trkpt><trkpt lat="43.73054817241737" lon="7.29856814871858"><ele>231.0</ele><time>2026-05-01T13:36:01Z</time></trkpt><trkpt lat="43.73049960160962" lon="7.2987460605342385"><ele>231.0</ele><time>2026-05-01T13:36:02Z</time></trkpt><trkpt lat="43.73042981123699" lon="7.298910886338316"><ele>231.0</ele><time>2026-05-01T13:36:03Z</time></trkpt><trkpt lat="43.7303289942465" lon="7.2990412119457755"><ele>231.0</ele><time>2026-05-01T13:36:04Z</time></trkpt><trkpt lat="43.730235113433096" lon="7.299184255608345"><ele>235.25</ele><time>2026-05-01T13:36:05Z</time></trkpt><trkpt lat="43.73014761185665" lon="7.299335552305719"><ele>239.5</ele><time>2026-05-01T13:36:06Z</time></trkpt><trkpt lat="43.730053959249" lon="7.2994782306498776"><ele>243.75</ele><time>2026-05-01T13:36:07Z</time></trkpt><trkpt lat="43.729958985341746" lon="7.29962723306828"><ele>248.0</ele><time>2026-05-01T13:36:08Z</time></trkpt><trkpt lat="43.729858018001295" lon="7.299769018263984"><ele>248.0</ele><time>2026-05-01T13:36:09Z</time></trkpt><trkpt lat="43.729762028112546" lon="7.299909368699894"><ele>248.0</ele><time>2026-05-01T13:36:10Z</time></trkpt><trkpt lat="43.729670132852114" lon="7.300049559236771"><ele>248.0</ele><time>2026-05-01T13:36:11Z</time></trkpt><trkpt lat="43.72958915081666" lon="7.300174131129631"><ele>248.0</ele><time>2026-05-01T13:36:12Z</time></trkpt><trkpt lat="43.72951885376783" lon="7.300294998232132"><ele>248.0</ele><time>2026-05-01T13:36:13Z</time></trkpt><trkpt lat="43.72945774994203" lon="7.30041760492765"><ele>248.0</ele><time>2026-05-01T13:36:14Z</time></trkpt><trkpt lat="43.729441375301846" lon="7.30057974101491"><ele>248.0</ele><time>2026-05-01T13:36:15Z</time></trkpt><trkpt lat="43.72946518843699" lon="7.3007487209444815"><ele>248.0</ele><time>2026-05-01T13:36:16Z</time></trkpt><trkpt lat="43.7295417356083" lon="7.300904981522117"><ele>247.0</ele><time>2026-05-01T13:36:17Z</time></trkpt><trkpt lat="43.72959645784486" lon="7.301078628785797"><ele>246.0</ele><time>2026-05-01T13:36:18Z</time></trkpt><trkpt lat="43.72966849001323" lon="7.301239047226937"><ele>245.0</ele><time>2026-05-01T13:36:19Z</time></trkpt><trkpt lat="43.7297199541244" lon="7.3014194191114825"><ele>244.0</ele><time>2026-05-01T13:36:20Z</time></trkpt><trkpt lat="43.729781439008775" lon="7.301596498306404"><ele>247.25</ele><time>2026-05-01T13:36:21Z</time></trkpt><trkpt lat="43.729824647696375" lon="7.301765087668911"><ele>250.5</ele><time>2026-05-01T13:36:22Z</time></trkpt><trkpt lat="43.72983827895395" lon="7.301930332033583"><ele>253.75</ele><time>2026-05-01T13:36:23Z</time></trkpt><trkpt lat="43.729845401880596" lon="7.302102630435148"><ele>257.0</ele><time>2026-05-01T13:36:24Z</time></trkpt><trkpt lat="43.729850824398724" lon="7.302278070449968"><ele>258.0</ele><time>2026-05-01T13:36:25Z</time></trkpt><trkpt lat="43.72986452500793" lon="7.30243186572411"><ele>259.0</ele><time>2026-05-01T13:36:26Z</time></trkpt><trkpt lat="43.72985337069783" lon="7.302556347631792"><ele>260.0</ele><time>2026-05-01T13:36:27Z</time></trkpt><trkpt lat="43.72981099871886" lon="7.3026630867001"><ele>261.0</ele><time>2026-05-01T13:36:28Z</time></trkpt><trkpt lat="43.72973737556165" lon="7.302744751235178"><ele>262.0</ele><time>2026-05-01T13:36:29Z</time></trkpt><trkpt lat="43.729634585444444" lon="7.302749495015456"><ele>262.0</ele><time>2026-05-01T13:36:30Z</time></trkpt><trkpt lat="43.72952118382353" lon="7.302761584407246"><ele>262.0</ele><time>2026-05-01T13:36:31Z</time></trkpt><trkpt lat="43.72938961926239" lon="7.302770288901164"><ele>262.0</ele><time>2026-05-01T13:36:32Z</time></trkpt><trkpt lat="43.72924809997892" lon="7.302755260550806"><ele>262.0</ele><time>2026-05-01T13:36:33Z</time></trkpt><trkpt lat="43.72910044864465" lon="7.302761590909073"><ele>267.0</ele><time>2026-05-01T13:36:34Z</time></trkpt><trkpt lat="43.72895540603447" lon="7.302775148627462"><ele>272.0</ele><time>2026-05-01T13:36:35Z</time></trkpt><trkpt lat="43.72882233595083" lon="7.3027799521387085"><ele>277.0</ele><time>2026-05-01T13:36:36Z</time></trkpt><trkpt lat="43.72868714667505" lon="7.302777095028621"><ele>282.0</ele><time>2026-05-01T13:36:37Z</time></trkpt><trkpt lat="43.72855222540215" lon="7.302783236742697"><ele>284.5</ele><time>2026-05-01T13:36:38Z</time></trkpt><trkpt lat="43.72841241865199" lon="7.302788388462528"><ele>287.0</ele><time>2026-05-01T13:36:39Z</time></trkpt><trkpt lat="43.72827439950984" lon="7.302799289313361"><ele>289.5</ele><time>2026-05-01T13:36:40Z</time></trkpt><trkpt lat="43.72813439977061" lon="7.302834392146894"><ele>292.0</ele><time>2026-05-01T13:36:41Z</time></trkpt><trkpt lat="43.727992479353865" lon="7.302892772990434"><ele>292.0</ele><time>2026-05-01T13:36:42Z</time></trkpt><trkpt lat="43.72784928184593" lon="7.3029657331817175"><ele>292.0</ele><time>2026-05-01T13:36:43Z</time></trkpt><trkpt lat="43.72771904183735" lon="7.303041651619152"><ele>292.0</ele><time>2026-05-01T13:36:44Z</time></trkpt><trkpt lat="43.72758801486767" lon="7.303121999186558"><ele>292.0</ele><time>2026-05-01T13:36:45Z</time></trkpt><trkpt lat="43.727452045430596" lon="7.303177108318131"><ele>287.25</ele><time>2026-05-01T13:36:46Z</time></trkpt><trkpt lat="43.72732044754065" lon="7.303242661556213"><ele>282.5</ele><time>2026-05-01T13:36:47Z</time></trkpt><trkpt lat="43.72719083183643" lon="7.30330518325146"><ele>277.75</ele><time>2026-05-01T13:36:48Z</time></trkpt><trkpt lat="43.727069382533124" lon="7.303359752965147"><ele>273.0</ele><time>2026-05-01T13:36:49Z</time></trkpt><trkpt lat="43.726946681496" lon="7.303382027859151"><ele>274.25</ele><time>2026-05-01T13:36:50Z</time></trkpt><trkpt lat="43.726818551761426" lon="7.303379452072794"><ele>275.5</ele><time>2026-05-01T13:36:51Z</time></trkpt><trkpt lat="43.726677319839006" lon="7.303381584978729"><ele>276.75</ele><time>2026-05-01T13:36:52Z</time></trkpt><trkpt lat="43.72654533954667" lon="7.303297030455659"><ele>278.0</ele><time>2026-05-01T13:36:53Z</time></trkpt><trkpt lat="43.726413684522406" lon="7.303222534958483"><ele>278.0</ele><time>2026-05-01T13:36:54Z</time></trkpt><trkpt lat="43.7262815269546" lon="7.303134443315859"><ele>278.0</ele><time>2026-05-01T13:36:55Z</time></trkpt><trkpt lat="43.72614772860827" lon="7.303055518110424"><ele>278.0</ele><time>2026-05-01T13:36:56Z</time></trkpt><trkpt lat="43.7260033853778" lon="7.303032006403393"><ele>278.0</ele><time>2026-05-01T13:36:57Z</time></trkpt><trkpt lat="43.72586211924049" lon="7.303019047308681"><ele>284.5</ele><time>2026-05-01T13:36:58Z</time></trkpt><trkpt lat="43.725722929391225" lon="7.303017675211079"><ele>291.0</ele><time>2026-05-01T13:36:59Z</time></trkpt><trkpt lat="43.72559051412646" lon="7.302997611399259"><ele>297.5</ele><time>2026-05-01T13:37:00Z</time></trkpt><trkpt lat="43.72547434468802" lon="7.302984604776037"><ele>304.0</ele><time>2026-05-01T13:37:01Z</time></trkpt><trkpt lat="43.725365822756345" lon="7.303003207943598"><ele>304.0</ele><time>2026-05-01T13:37:02Z</time></trkpt><trkpt lat="43.72526070459498" lon="7.303071918619337"><ele>304.0</ele><time>2026-05-01T13:37:03Z</time></trkpt><trkpt lat="43.725166553042996" lon="7.30317809718189"><ele>304.0</ele><time>2026-05-01T13:37:04Z</time></trkpt><trkpt lat="43.72508752453512" lon="7.303293515128814"><ele>304.0</ele><time>2026-05-01T13:37:05Z</time></trkpt><trkpt lat="43.724991228596025" lon="7.3033700491956886"><ele>298.25</ele><time>2026-05-01T13:37:06Z</time></trkpt><trkpt lat="43.7248694866671" lon="7.3033579494085625"><ele>292.5</ele><time>2026-05-01T13:37:07Z</time></trkpt><trkpt lat="43.72473951611953" lon="7.3033511188530245"><ele>286.75</ele><time>2026-05-01T13:37:08Z</time></trkpt><trkpt lat="43.72460429928998" lon="7.303358357355233"><ele>281.0</ele><time>2026-05-01T13:37:09Z</time></trkpt><trkpt lat="43.72446608702772" lon="7.303336534061825"><ele>282.75</ele><time>2026-05-01T13:37:10Z</time></trkpt><trkpt lat="43.72433426545373" lon="7.303313719728541"><ele>284.5</ele><time>2026-05-01T13:37:11Z</time></trkpt><trkpt lat="43.72420828964978" lon="7.303301655549106"><ele>286.25</ele><time>2026-05-01T13:37:12Z</time></trkpt><trkpt lat="43.72407852364069" lon="7.303331649891413"><ele>288.0</ele><time>2026-05-01T13:37:13Z</time></trkpt><trkpt lat="43.72394714572215" lon="7.30340471262055"><ele>288.0</ele><time>2026-05-01T13:37:14Z</time></trkpt><trkpt lat="43.72381363977779" lon="7.3034911808328795"><ele>288.0</ele><time>2026-05-01T13:37:15Z</time></trkpt><trkpt lat="43.72367519801039" lon="7.3035600426614256"><ele>288.0</ele><time>2026-05-01T13:37:16Z</time></trkpt><trkpt lat="43.723533219937615" lon="7.303601480305438"><ele>288.0</ele><time>2026-05-01T13:37:17Z</time></trkpt><trkpt lat="43.72339126123361" lon="7.303640655091817"><ele>290.0</ele><time>2026-05-01T13:37:18Z</time></trkpt><trkpt lat="43.72325248842617" lon="7.303686153840679"><ele>292.0</ele><time>2026-05-01T13:37:19Z</time></trkpt><trkpt lat="43.72311925416188" lon="7.303732500835324"><ele>294.0</ele><time>2026-05-01T13:37:20Z</time></trkpt><trkpt lat="43.7230005642263" lon="7.303790330126027"><ele>296.0</ele><time>2026-05-01T13:37:21Z</time></trkpt><trkpt lat="43.72288265828502" lon="7.303828093196474"><ele>296.0</ele><time>2026-05-01T13:37:22Z</time></trkpt><trkpt lat="43.72276129724341" lon="7.303864127917795"><ele>296.0</ele><time>2026-05-01T13:37:23Z</time></trkpt><trkpt lat="43.72263465105295" lon="7.30385588422014"><ele>296.0</ele><time>2026-05-01T13:37:24Z</time></trkpt><trkpt lat="43.72250008047665" lon="7.303832991958734"><ele>296.0</ele><time>2026-05-01T13:37:25Z</time></trkpt><trkpt lat="43.722367949299766" lon="7.303803308068865"><ele>295.25</ele><time>2026-05-01T13:37:26Z</time></trkpt><trkpt lat="43.722238259495434" lon="7.303759316250554"><ele>294.5</ele><time>2026-05-01T13:37:27Z</time></trkpt><trkpt lat="43.7221161828181" lon="7.30368742028861"><ele>293.75</ele><time>2026-05-01T13:37:28Z</time></trkpt><trkpt lat="43.72198867623435" lon="7.3035952627934675"><ele>293.0</ele><time>2026-05-01T13:37:29Z</time></trkpt><trkpt lat="43.721859872421604" lon="7.303500407263384"><ele>293.0</ele><time>2026-05-01T13:37:30Z</time></trkpt><trkpt lat="43.72173302413217" lon="7.303406326835997"><ele>293.0</ele><time>2026-05-01T13:37:31Z</time></trkpt><trkpt lat="43.72160742665922" lon="7.303313221206344"><ele>293.0</ele><time>2026-05-01T13:37:32Z</time></trkpt><trkpt lat="43.72149710392074" lon="7.303230730123168"><ele>293.0</ele><time>2026-05-01T13:37:33Z</time></trkpt><trkpt lat="43.721384514611586" lon="7.303176792023486"><ele>293.0</ele><time>2026-05-01T13:37:34Z</time></trkpt><trkpt lat="43.72129016049358" lon="7.303114640126855"><ele>293.0</ele><time>2026-05-01T13:37:35Z</time></trkpt><trkpt lat="43.72119065527377" lon="7.303054346336527"><ele>293.0</ele><time>2026-05-01T13:37:36Z</time></trkpt><trkpt lat="43.721078419325686" lon="7.303094371648747"><ele>293.0</ele><time>2026-05-01T13:37:37Z</time></trkpt><trkpt lat="43.720979991474614" lon="7.303163020482969"><ele>293.0</ele><time>2026-05-01T13:37:38Z</time></trkpt><trkpt lat="43.72091076889243" lon="7.30328573002331"><ele>293.5</ele><time>2026-05-01T13:37:39Z</time></trkpt><trkpt lat="43.72087826541806" lon="7.303443306331885"><ele>294.0</ele><time>2026-05-01T13:37:40Z</time></trkpt><trkpt lat="43.72088356314519" lon="7.303615359307351"><ele>294.5</ele><time>2026-05-01T13:37:41Z</time></trkpt><trkpt lat="43.720902755962065" lon="7.303784544393858"><ele>295.0</ele><time>2026-05-01T13:37:42Z</time></trkpt><trkpt lat="43.72091082794642" lon="7.3039544522414985"><ele>295.0</ele><time>2026-05-01T13:37:43Z</time></trkpt><trkpt lat="43.72091379173618" lon="7.304111359933949"><ele>295.0</ele><time>2026-05-01T13:37:44Z</time></trkpt><trkpt lat="43.72091755305436" lon="7.304246776381407"><ele>295.0</ele><time>2026-05-01T13:37:45Z</time></trkpt><trkpt lat="43.720921932657134" lon="7.304370841392378"><ele>295.0</ele><time>2026-05-01T13:37:46Z</time></trkpt><trkpt lat="43.72091400822632" lon="7.304497488331542"><ele>295.0</ele><time>2026-05-01T13:37:47Z</time></trkpt><trkpt lat="43.720878163142615" lon="7.304613323590303"><ele>295.0</ele><time>2026-05-01T13:37:48Z</time></trkpt><trkpt lat="43.720797237619564" lon="7.304701064714448"><ele>295.0</ele><time>2026-05-01T13:37:49Z</time></trkpt><trkpt lat="43.72071095865699" lon="7.3047891694433496"><ele>295.0</ele><time>2026-05-01T13:37:50Z</time></trkpt><trkpt lat="43.72061791959085" lon="7.304902640175684"><ele>295.0</ele><time>2026-05-01T13:37:51Z</time></trkpt><trkpt lat="43.720501022728" lon="7.305009757699783"><ele>293.75</ele><time>2026-05-01T13:37:52Z</time></trkpt><trkpt lat="43.72036925899356" lon="7.305121909944397"><ele>292.5</ele><time>2026-05-01T13:37:53Z</time></trkpt><trkpt lat="43.7202440405375" lon="7.305221299169703"><ele>291.25</ele><time>2026-05-01T13:37:54Z</time></trkpt><trkpt lat="43.720130340461495" lon="7.30532043328594"><ele>290.0</ele><time>2026-05-01T13:37:55Z</time></trkpt><trkpt lat="43.72002081486063" lon="7.305414035275379"><ele>291.0</ele><time>2026-05-01T13:37:56Z</time></trkpt><trkpt lat="43.71991282344508" lon="7.3055398406545775"><ele>292.0</ele><time>2026-05-01T13:37:57Z</time></trkpt><trkpt lat="43.71981063332857" lon="7.305688312281395"><ele>293.0</ele><time>2026-05-01T13:37:58Z</time></trkpt><trkpt lat="43.71971205208188" lon="7.3058493632597346"><ele>294.0</ele><time>2026-05-01T13:37:59Z</time></trkpt><trkpt lat="43.7196171229014" lon="7.305999110739828"><ele>294.0</ele><time>2026-05-01T13:38:00Z</time></trkpt><trkpt lat="43.71951916234203" lon="7.306141578693291"><ele>294.0</ele><time>2026-05-01T13:38:01Z</time></trkpt><trkpt lat="43.7194228946132" lon="7.306282713784874"><ele>294.0</ele><time>2026-05-01T13:38:02Z</time></trkpt><trkpt lat="43.719325004619954" lon="7.306424686416333"><ele>294.0</ele><time>2026-05-01T13:38:03Z</time></trkpt><trkpt lat="43.71922824050055" lon="7.306561049965324"><ele>297.5</ele><time>2026-05-01T13:38:04Z</time></trkpt><trkpt lat="43.719143676593156" lon="7.306690315401475"><ele>301.0</ele><time>2026-05-01T13:38:05Z</time></trkpt><trkpt lat="43.71906637670761" lon="7.306830847032591"><ele>304.5</ele><time>2026-05-01T13:38:06Z</time></trkpt><trkpt lat="43.719005458432115" lon="7.306984807134726"><ele>308.0</ele><time>2026-05-01T13:38:07Z</time></trkpt><trkpt lat="43.718964935350115" lon="7.307157010578597"><ele>307.75</ele><time>2026-05-01T13:38:08Z</time></trkpt><trkpt lat="43.718950615114906" lon="7.307335524169425"><ele>307.5</ele><time>2026-05-01T13:38:09Z</time></trkpt><trkpt lat="43.71895972576189" lon="7.307517378736384"><ele>307.25</ele><time>2026-05-01T13:38:10Z</time></trkpt><trkpt lat="43.71899421033257" lon="7.30769116090333"><ele>307.0</ele><time>2026-05-01T13:38:11Z</time></trkpt><trkpt lat="43.719056195331554" lon="7.307858362847021"><ele>307.0</ele><time>2026-05-01T13:38:12Z</time></trkpt><trkpt lat="43.719134925622804" lon="7.308008611111142"><ele>307.0</ele><time>2026-05-01T13:38:13Z</time></trkpt><trkpt lat="43.71920936463638" lon="7.308144676420421"><ele>307.0</ele><time>2026-05-01T13:38:14Z</time></trkpt><trkpt lat="43.71927052856822" lon="7.308274977535955"><ele>307.0</ele><time>2026-05-01T13:38:15Z</time></trkpt><trkpt lat="43.71931887687523" lon="7.3084145048486935"><ele>309.25</ele><time>2026-05-01T13:38:16Z</time></trkpt><trkpt lat="43.719328623375795" lon="7.308579529535494"><ele>311.5</ele><time>2026-05-01T13:38:17Z</time></trkpt><trkpt lat="43.71933320279049" lon="7.308744972465689"><ele>313.75</ele><time>2026-05-01T13:38:18Z</time></trkpt><trkpt lat="43.71926568240912" lon="7.308898420273243"><ele>316.0</ele><time>2026-05-01T13:38:19Z</time></trkpt><trkpt lat="43.71919274098062" lon="7.309056737310087"><ele>316.25</ele><time>2026-05-01T13:38:20Z</time></trkpt><trkpt lat="43.719123635063085" lon="7.309235108012558"><ele>316.5</ele><time>2026-05-01T13:38:21Z</time></trkpt><trkpt lat="43.71904161121144" lon="7.30940808861924"><ele>316.75</ele><time>2026-05-01T13:38:22Z</time></trkpt><trkpt lat="43.7189659790426" lon="7.309584817312656"><ele>317.0</ele><time>2026-05-01T13:38:23Z</time></trkpt><trkpt lat="43.718901774327925" lon="7.309742404906359"><ele>315.25</ele><time>2026-05-01T13:38:24Z</time></trkpt><trkpt lat="43.71882879226414" lon="7.309865119956702"><ele>313.5</ele><time>2026-05-01T13:38:25Z</time></trkpt><trkpt lat="43.71876957146825" lon="7.309992366349793"><ele>311.75</ele><time>2026-05-01T13:38:26Z</time></trkpt><trkpt lat="43.71866471702005" lon="7.310067370415439"><ele>310.0</ele><time>2026-05-01T13:38:27Z</time></trkpt><trkpt lat="43.71854076436092" lon="7.310121207498213"><ele>314.0</ele><time>2026-05-01T13:38:28Z</time></trkpt><trkpt lat="43.71840891127785" lon="7.310166434160576"><ele>318.0</ele><time>2026-05-01T13:38:29Z</time></trkpt><trkpt lat="43.71826840236364" lon="7.310222376557156"><ele>322.0</ele><time>2026-05-01T13:38:30Z</time></trkpt><trkpt lat="43.71812482317316" lon="7.310275508300538"><ele>326.0</ele><time>2026-05-01T13:38:31Z</time></trkpt><trkpt lat="43.71797862478243" lon="7.310327324815793"><ele>326.0</ele><time>2026-05-01T13:38:32Z</time></trkpt><trkpt lat="43.717833013059874" lon="7.31037986554472"><ele>326.0</ele><time>2026-05-01T13:38:33Z</time></trkpt><trkpt lat="43.717684088360464" lon="7.310434205229534"><ele>326.0</ele><time>2026-05-01T13:38:34Z</time></trkpt><trkpt lat="43.7175495364067" lon="7.310482624543712"><ele>326.0</ele><time>2026-05-01T13:38:35Z</time></trkpt><trkpt lat="43.71742947373945" lon="7.310525496153895"><ele>325.5</ele><time>2026-05-01T13:38:36Z</time></trkpt><trkpt lat="43.71731792291558" lon="7.310581112242854"><ele>325.0</ele><time>2026-05-01T13:38:37Z</time></trkpt><trkpt lat="43.71720274283302" lon="7.310621224430881"><ele>324.5</ele><time>2026-05-01T13:38:38Z</time></trkpt><trkpt lat="43.71709973685202" lon="7.31070511941331"><ele>324.0</ele><time>2026-05-01T13:38:39Z</time></trkpt><trkpt lat="43.71701490478388" lon="7.3108398166186035"><ele>324.0</ele><time>2026-05-01T13:38:40Z</time></trkpt><trkpt lat="43.71696975011381" lon="7.311009734501217"><ele>324.0</ele><time>2026-05-01T13:38:41Z</time></trkpt><trkpt lat="43.71696801266272" lon="7.311192716732614"><ele>324.0</ele><time>2026-05-01T13:38:42Z</time></trkpt><trkpt lat="43.716999141950446" lon="7.311378798915637"><ele>324.0</ele><time>2026-05-01T13:38:43Z</time></trkpt><trkpt lat="43.71700884100445" lon="7.311559856287476"><ele>323.25</ele><time>2026-05-01T13:38:44Z</time></trkpt><trkpt lat="43.716982083830096" lon="7.311721767473117"><ele>322.5</ele><time>2026-05-01T13:38:45Z</time></trkpt><trkpt lat="43.71694632949464" lon="7.311905166337932"><ele>321.75</ele><time>2026-05-01T13:38:46Z</time></trkpt><trkpt lat="43.71690316919827" lon="7.31207525191031"><ele>321.0</ele><time>2026-05-01T13:38:47Z</time></trkpt><trkpt lat="43.71688053154906" lon="7.312234732229234"><ele>325.0</ele><time>2026-05-01T13:38:48Z</time></trkpt><trkpt lat="43.716848560114656" lon="7.312376748589773"><ele>329.0</ele><time>2026-05-01T13:38:49Z</time></trkpt><trkpt lat="43.7167972423762" lon="7.3125152919600955"><ele>333.0</ele><time>2026-05-01T13:38:50Z</time></trkpt><trkpt lat="43.716769689377" lon="7.312681962626853"><ele>337.0</ele><time>2026-05-01T13:38:51Z</time></trkpt><trkpt lat="43.71673227301866" lon="7.3128492217725585"><ele>337.0</ele><time>2026-05-01T13:38:52Z</time></trkpt><trkpt lat="43.716708691356004" lon="7.313027519499714"><ele>337.0</ele><time>2026-05-01T13:38:53Z</time></trkpt><trkpt lat="43.716693693863" lon="7.313215165951383"><ele>337.0</ele><time>2026-05-01T13:38:54Z</time></trkpt><trkpt lat="43.716689369604346" lon="7.313409208420032"><ele>337.0</ele><time>2026-05-01T13:38:55Z</time></trkpt><trkpt lat="43.7167020645588" lon="7.31360473649135"><ele>337.0</ele><time>2026-05-01T13:38:56Z</time></trkpt><trkpt lat="43.71673141553421" lon="7.313810233423138"><ele>337.0</ele><time>2026-05-01T13:38:57Z</time></trkpt><trkpt lat="43.716758798918974" lon="7.314030809952961"><ele>337.0</ele><time>2026-05-01T13:38:58Z</time></trkpt><trkpt lat="43.71678639619593" lon="7.314269619204773"><ele>337.0</ele><time>2026-05-01T13:38:59Z</time></trkpt><trkpt lat="43.71679648198529" lon="7.314512450156341"><ele>337.0</ele><time>2026-05-01T13:39:00Z</time></trkpt><trkpt lat="43.71683509490836" lon="7.314733487033361"><ele>337.0</ele><time>2026-05-01T13:39:01Z</time></trkpt><trkpt lat="43.71685420316844" lon="7.314944359089462"><ele>336.0</ele><time>2026-05-01T13:39:02Z</time></trkpt><trkpt lat="43.71687634414499" lon="7.3151599130938365"><ele>335.0</ele><time>2026-05-01T13:39:03Z</time></trkpt><trkpt lat="43.71688188010311" lon="7.315371268875723"><ele>334.0</ele><time>2026-05-01T13:39:04Z</time></trkpt><trkpt lat="43.716916370825615" lon="7.315577322189659"><ele>350.0</ele><time>2026-05-01T13:39:05Z</time></trkpt><trkpt lat="43.716932967709866" lon="7.3157870051319325"><ele>366.0</ele><time>2026-05-01T13:39:06Z</time></trkpt><trkpt lat="43.71695158623435" lon="7.316002812176105"><ele>382.0</ele><time>2026-05-01T13:39:07Z</time></trkpt><trkpt lat="43.71696925870435" lon="7.316215703063115"><ele>384.3333333333333</ele><time>2026-05-01T13:39:08Z</time></trkpt><trkpt lat="43.716981871511905" lon="7.316425142577781"><ele>386.66666666666663</ele><time>2026-05-01T13:39:09Z</time></trkpt><trkpt lat="43.71697076873314" lon="7.316632592939765"><ele>389.0</ele><time>2026-05-01T13:39:10Z</time></trkpt><trkpt lat="43.71695831667452" lon="7.316842138693272"><ele>389.0</ele><time>2026-05-01T13:39:11Z</time></trkpt><trkpt lat="43.7169375281868" lon="7.317047149595268"><ele>389.0</ele><time>2026-05-01T13:39:12Z</time></trkpt><trkpt lat="43.71691876299642" lon="7.31725682108388"><ele>389.0</ele><time>2026-05-01T13:39:13Z</time></trkpt><trkpt lat="43.71689969276126" lon="7.317474871035508"><ele>379.3333333333333</ele><time>2026-05-01T13:39:14Z</time></trkpt><trkpt lat="43.71688223622703" lon="7.317683567285608"><ele>369.66666666666663</ele><time>2026-05-01T13:39:15Z</time></trkpt><trkpt lat="43.71687492092926" lon="7.317912445025383"><ele>360.0</ele><time>2026-05-01T13:39:16Z</time></trkpt><trkpt lat="43.716852369181645" lon="7.318127708012721"><ele>360.0</ele><time>2026-05-01T13:39:17Z</time></trkpt><trkpt lat="43.716831222587984" lon="7.318342622763935"><ele>360.0</ele><time>2026-05-01T13:39:18Z</time></trkpt><trkpt lat="43.71682175897898" lon="7.318559672978633"><ele>360.0</ele><time>2026-05-01T13:39:19Z</time></trkpt><trkpt lat="43.71680417516976" lon="7.31877655683551"><ele>362.6666666666667</ele><time>2026-05-01T13:39:20Z</time></trkpt><trkpt lat="43.71679297583164" lon="7.318993344785207"><ele>365.33333333333337</ele><time>2026-05-01T13:39:21Z</time></trkpt><trkpt lat="43.71679343919399" lon="7.31920927220111"><ele>368.0</ele><time>2026-05-01T13:39:22Z</time></trkpt><trkpt lat="43.71680798115088" lon="7.3194304504825"><ele>368.0</ele><time>2026-05-01T13:39:23Z</time></trkpt><trkpt lat="43.716819335805276" lon="7.3196469877333765"><ele>368.0</ele><time>2026-05-01T13:39:24Z</time></trkpt><trkpt lat="43.71678900374941" lon="7.3198674415051475"><ele>368.0</ele><time>2026-05-01T13:39:25Z</time></trkpt><trkpt lat="43.716768972501086" lon="7.3200876948698825"><ele>369.33333333333337</ele><time>2026-05-01T13:39:26Z</time></trkpt><trkpt lat="43.716748559099486" lon="7.32030483527971"><ele>370.6666666666667</ele><time>2026-05-01T13:39:27Z</time></trkpt><trkpt lat="43.71672600146586" lon="7.320509179067196"><ele>372.0</ele><time>2026-05-01T13:39:28Z</time></trkpt><trkpt lat="43.71669460992056" lon="7.320700704076212"><ele>374.5</ele><time>2026-05-01T13:39:29Z</time></trkpt><trkpt lat="43.716644810366866" lon="7.320874260844023"><ele>377.0</ele><time>2026-05-01T13:39:30Z</time></trkpt><trkpt lat="43.716593291530614" lon="7.321022796167827"><ele>379.5</ele><time>2026-05-01T13:39:31Z</time></trkpt><trkpt lat="43.71655698895567" lon="7.32117507882536"><ele>382.0</ele><time>2026-05-01T13:39:32Z</time></trkpt><trkpt lat="43.71653023006556" lon="7.321339517505842"><ele>384.25</ele><time>2026-05-01T13:39:33Z</time></trkpt><trkpt lat="43.71654188423048" lon="7.32152407675253"><ele>386.5</ele><time>2026-05-01T13:39:34Z</time></trkpt><trkpt lat="43.71657869256555" lon="7.321704104370112"><ele>388.75</ele><time>2026-05-01T13:39:35Z</time></trkpt><trkpt lat="43.71662097674257" lon="7.3218884014935925"><ele>391.0</ele><time>2026-05-01T13:39:36Z</time></trkpt><trkpt lat="43.716657966245805" lon="7.322071755367914"><ele>391.0</ele><time>2026-05-01T13:39:37Z</time></trkpt><trkpt lat="43.71668729009409" lon="7.3222308267598395"><ele>391.0</ele><time>2026-05-01T13:39:38Z</time></trkpt><trkpt lat="43.716715762295514" lon="7.322380589096681"><ele>391.0</ele><time>2026-05-01T13:39:39Z</time></trkpt><trkpt lat="43.71674294717311" lon="7.322542954299234"><ele>391.0</ele><time>2026-05-01T13:39:40Z</time></trkpt><trkpt lat="43.71676425384231" lon="7.322720444783191"><ele>392.0</ele><time>2026-05-01T13:39:41Z</time></trkpt><trkpt lat="43.716790902267036" lon="7.322890218673071"><ele>393.0</ele><time>2026-05-01T13:39:42Z</time></trkpt><trkpt lat="43.71682772158763" lon="7.323058510663424"><ele>394.0</ele><time>2026-05-01T13:39:43Z</time></trkpt><trkpt lat="43.71684960907073" lon="7.323224256916358"><ele>395.0</ele><time>2026-05-01T13:39:44Z</time></trkpt><trkpt lat="43.7168738440565" lon="7.323392759033124"><ele>402.0</ele><time>2026-05-01T13:39:45Z</time></trkpt><trkpt lat="43.716905998580295" lon="7.323545068990939"><ele>409.0</ele><time>2026-05-01T13:39:46Z</time></trkpt><trkpt lat="43.716935488885014" lon="7.323708013149771"><ele>416.0</ele><time>2026-05-01T13:39:47Z</time></trkpt><trkpt lat="43.71697219078031" lon="7.3238677203504645"><ele>423.0</ele><time>2026-05-01T13:39:48Z</time></trkpt><trkpt lat="43.71701255331715" lon="7.324023596732524"><ele>423.0</ele><time>2026-05-01T13:39:49Z</time></trkpt><trkpt lat="43.717027986807494" lon="7.324195331910136"><ele>423.0</ele><time>2026-05-01T13:39:50Z</time></trkpt><trkpt lat="43.71707560925483" lon="7.324360349206785"><ele>423.0</ele><time>2026-05-01T13:39:51Z</time></trkpt><trkpt lat="43.71710568075608" lon="7.324535967075076"><ele>423.0</ele><time>2026-05-01T13:39:52Z</time></trkpt><trkpt lat="43.71713659629849" lon="7.32470664137358"><ele>421.25</ele><time>2026-05-01T13:39:53Z</time></trkpt><trkpt lat="43.717182267320986" lon="7.324866149504465"><ele>419.5</ele><time>2026-05-01T13:39:54Z</time></trkpt><trkpt lat="43.717247341926644" lon="7.325003406437896"><ele>417.75</ele><time>2026-05-01T13:39:55Z</time></trkpt><trkpt lat="43.71732233805716" lon="7.325142786075685"><ele>416.0</ele><time>2026-05-01T13:39:56Z</time></trkpt><trkpt lat="43.71739358595076" lon="7.325284304111345"><ele>416.0</ele><time>2026-05-01T13:39:57Z</time></trkpt><trkpt lat="43.71746885804994" lon="7.325425566982967"><ele>416.0</ele><time>2026-05-01T13:39:58Z</time></trkpt><trkpt lat="43.71753193287352" lon="7.325567905907096"><ele>416.0</ele><time>2026-05-01T13:39:59Z</time></trkpt><trkpt lat="43.71760259551388" lon="7.325705951666459"><ele>416.0</ele><time>2026-05-01T13:40:00Z</time></trkpt><trkpt lat="43.7176771756178" lon="7.325841637664069"><ele>419.25</ele><time>2026-05-01T13:40:01Z</time></trkpt><trkpt lat="43.71774641156062" lon="7.32597599931731"><ele>422.5</ele><time>2026-05-01T13:40:02Z</time></trkpt><trkpt lat="43.71781042679436" lon="7.326116929116382"><ele>425.75</ele><time>2026-05-01T13:40:03Z</time></trkpt><trkpt lat="43.71787874521471" lon="7.326254377017862"><ele>429.0</ele><time>2026-05-01T13:40:04Z</time></trkpt><trkpt lat="43.71794887505831" lon="7.326385758021968"><ele>426.5</ele><time>2026-05-01T13:40:05Z</time></trkpt><trkpt lat="43.71802154766007" lon="7.326507967570284"><ele>424.0</ele><time>2026-05-01T13:40:06Z</time></trkpt><trkpt lat="43.71810169159874" lon="7.326624867622547"><ele>421.5</ele><time>2026-05-01T13:40:07Z</time></trkpt><trkpt lat="43.71816333093817" lon="7.326753952335599"><ele>419.0</ele><time>2026-05-01T13:40:08Z</time></trkpt><trkpt lat="43.71827451639631" lon="7.326804553366134"><ele>419.0</ele><time>2026-05-01T13:40:09Z</time></trkpt><trkpt lat="43.71838276518428" lon="7.32688126312092"><ele>419.0</ele><time>2026-05-01T13:40:10Z</time></trkpt><trkpt lat="43.71849967816412" lon="7.326948296416957"><ele>419.0</ele><time>2026-05-01T13:40:11Z</time></trkpt><trkpt lat="43.71861855645823" lon="7.32700955775375"><ele>419.0</ele><time>2026-05-01T13:40:12Z</time></trkpt><trkpt lat="43.718729824163916" lon="7.327071420068912"><ele>421.2</ele><time>2026-05-01T13:40:13Z</time></trkpt><trkpt lat="43.71882881701723" lon="7.327137082095776"><ele>423.4</ele><time>2026-05-01T13:40:14Z</time></trkpt><trkpt lat="43.718911046717075" lon="7.3272276788245705"><ele>425.6</ele><time>2026-05-01T13:40:15Z</time></trkpt><trkpt lat="43.71897011036761" lon="7.327351078525739"><ele>427.8</ele><time>2026-05-01T13:40:16Z</time></trkpt><trkpt lat="43.71901627456273" lon="7.327505838899111"><ele>430.0</ele><time>2026-05-01T13:40:17Z</time></trkpt><trkpt lat="43.719060077700476" lon="7.3276635533725"><ele>430.0</ele><time>2026-05-01T13:40:18Z</time></trkpt><trkpt lat="43.7191015768828" lon="7.327835266639749"><ele>430.0</ele><time>2026-05-01T13:40:19Z</time></trkpt><trkpt lat="43.7191327929382" lon="7.32801164832533"><ele>430.0</ele><time>2026-05-01T13:40:20Z</time></trkpt><trkpt lat="43.71916193793261" lon="7.3281814929547675"><ele>430.0</ele><time>2026-05-01T13:40:21Z</time></trkpt><trkpt lat="43.71919972645763" lon="7.328346620211607"><ele>428.5</ele><time>2026-05-01T13:40:22Z</time></trkpt><trkpt lat="43.719258721079235" lon="7.328489040095051"><ele>427.0</ele><time>2026-05-01T13:40:23Z</time></trkpt><trkpt lat="43.71934098144847" lon="7.328612501862523"><ele>425.5</ele><time>2026-05-01T13:40:24Z</time></trkpt><trkpt lat="43.719449276010586" lon="7.3287182113565965"><ele>424.0</ele><time>2026-05-01T13:40:25Z</time></trkpt><trkpt lat="43.71957596818676" lon="7.32879808037468"><ele>426.75</ele><time>2026-05-01T13:40:26Z</time></trkpt><trkpt lat="43.71970686943753" lon="7.328872923461776"><ele>429.5</ele><time>2026-05-01T13:40:27Z</time></trkpt><trkpt lat="43.71981695107751" lon="7.328949982059029"><ele>432.25</ele><time>2026-05-01T13:40:28Z</time></trkpt><trkpt lat="43.71991429031463" lon="7.32902680244029"><ele>435.0</ele><time>2026-05-01T13:40:29Z</time></trkpt><trkpt lat="43.720008134800864" lon="7.329092498501682"><ele>435.0</ele><time>2026-05-01T13:40:30Z</time></trkpt><trkpt lat="43.720091446556026" lon="7.329168560346598"><ele>435.0</ele><time>2026-05-01T13:40:31Z</time></trkpt><trkpt lat="43.72015684767603" lon="7.3292701945432155"><ele>435.0</ele><time>2026-05-01T13:40:32Z</time></trkpt><trkpt lat="43.72016985530962" lon="7.329408374759019"><ele>435.0</ele><time>2026-05-01T13:40:33Z</time></trkpt><trkpt lat="43.720166741935344" lon="7.329541758704155"><ele>435.0</ele><time>2026-05-01T13:40:34Z</time></trkpt><trkpt lat="43.72008651637764" lon="7.329675156658462"><ele>435.5</ele><time>2026-05-01T13:40:35Z</time></trkpt><trkpt lat="43.72002415077699" lon="7.329864756657861"><ele>436.0</ele><time>2026-05-01T13:40:36Z</time></trkpt><trkpt lat="43.719955626785215" lon="7.330033331826346"><ele>436.5</ele><time>2026-05-01T13:40:37Z</time></trkpt><trkpt lat="43.719903631145584" lon="7.330190690454855"><ele>437.0</ele><time>2026-05-01T13:40:38Z</time></trkpt><trkpt lat="43.71985861838821" lon="7.330364254524051"><ele>437.0</ele><time>2026-05-01T13:40:39Z</time></trkpt><trkpt lat="43.71982997836946" lon="7.33054813780296"><ele>437.0</ele><time>2026-05-01T13:40:40Z</time></trkpt><trkpt lat="43.71981725443615" lon="7.330743358941652"><ele>437.0</ele><time>2026-05-01T13:40:41Z</time></trkpt><trkpt lat="43.719807812138406" lon="7.330941024239052"><ele>437.0</ele><time>2026-05-01T13:40:42Z</time></trkpt><trkpt lat="43.719802476370795" lon="7.331112130075439"><ele>439.75</ele><time>2026-05-01T13:40:43Z</time></trkpt><trkpt lat="43.71980688968302" lon="7.331268804410152"><ele>442.5</ele><time>2026-05-01T13:40:44Z</time></trkpt><trkpt lat="43.719831594533574" lon="7.331424307903712"><ele>445.25</ele><time>2026-05-01T13:40:45Z</time></trkpt><trkpt lat="43.71988388438222" lon="7.3315787433981265"><ele>448.0</ele><time>2026-05-01T13:40:46Z</time></trkpt><trkpt lat="43.719959719608916" lon="7.331729303842411"><ele>448.0</ele><time>2026-05-01T13:40:47Z</time></trkpt><trkpt lat="43.7200456313678" lon="7.331882194440082"><ele>448.0</ele><time>2026-05-01T13:40:48Z</time></trkpt><trkpt lat="43.72013633961582" lon="7.332048785759326"><ele>448.0</ele><time>2026-05-01T13:40:49Z</time></trkpt><trkpt lat="43.72022720559886" lon="7.332217794840467"><ele>448.0</ele><time>2026-05-01T13:40:50Z</time></trkpt><trkpt lat="43.720317171322584" lon="7.332370155907571"><ele>454.25</ele><time>2026-05-01T13:40:51Z</time></trkpt><trkpt lat="43.720414158499274" lon="7.332517762852178"><ele>460.5</ele><time>2026-05-01T13:40:52Z</time></trkpt><trkpt lat="43.72052010137204" lon="7.332659736857013"><ele>466.75</ele><time>2026-05-01T13:40:53Z</time></trkpt><trkpt lat="43.72062617115374" lon="7.3327992851882104"><ele>473.0</ele><time>2026-05-01T13:40:54Z</time></trkpt><trkpt lat="43.720728300892574" lon="7.3329330833086805"><ele>468.25</ele><time>2026-05-01T13:40:55Z</time></trkpt><trkpt lat="43.72082536568586" lon="7.333066347547762"><ele>463.5</ele><time>2026-05-01T13:40:56Z</time></trkpt><trkpt lat="43.720907688199674" lon="7.333203728506831"><ele>458.75</ele><time>2026-05-01T13:40:57Z</time></trkpt><trkpt lat="43.720984704996035" lon="7.333354351891074"><ele>454.0</ele><time>2026-05-01T13:40:58Z</time></trkpt><trkpt lat="43.72103914633649" lon="7.333527255640819"><ele>458.0</ele><time>2026-05-01T13:40:59Z</time></trkpt><trkpt lat="43.721100349553076" lon="7.333689967408232"><ele>462.0</ele><time>2026-05-01T13:41:00Z</time></trkpt><trkpt lat="43.72116275568487" lon="7.333839399108785"><ele>466.0</ele><time>2026-05-01T13:41:01Z</time></trkpt><trkpt lat="43.721246718998955" lon="7.333962448808388"><ele>470.0</ele><time>2026-05-01T13:41:02Z</time></trkpt><trkpt lat="43.72131795679213" lon="7.334093908182541"><ele>470.0</ele><time>2026-05-01T13:41:03Z</time></trkpt><trkpt lat="43.721390539818856" lon="7.334229762626525"><ele>470.0</ele><time>2026-05-01T13:41:04Z</time></trkpt><trkpt lat="43.721463984768654" lon="7.334362785148449"><ele>470.0</ele><time>2026-05-01T13:41:05Z</time></trkpt><trkpt lat="43.72153820785697" lon="7.3344811832579735"><ele>470.0</ele><time>2026-05-01T13:41:06Z</time></trkpt><trkpt lat="43.72161756203433" lon="7.334571845916847"><ele>470.0</ele><time>2026-05-01T13:41:07Z</time></trkpt><trkpt lat="43.72171824388868" lon="7.334627680276195"><ele>470.0</ele><time>2026-05-01T13:41:08Z</time></trkpt><trkpt lat="43.721831288195176" lon="7.334633854363774"><ele>470.0</ele><time>2026-05-01T13:41:09Z</time></trkpt><trkpt lat="43.7219520978593" lon="7.334595302596822"><ele>470.0</ele><time>2026-05-01T13:41:10Z</time></trkpt><trkpt lat="43.722068096882204" lon="7.33452102158565"><ele>472.75</ele><time>2026-05-01T13:41:11Z</time></trkpt><trkpt lat="43.7221768275916" lon="7.334419272802475"><ele>475.5</ele><time>2026-05-01T13:41:12Z</time></trkpt><trkpt lat="43.72227539860852" lon="7.334305209650617"><ele>478.25</ele><time>2026-05-01T13:41:13Z</time></trkpt><trkpt lat="43.72235601523641" lon="7.334202639843183"><ele>481.0</ele><time>2026-05-01T13:41:14Z</time></trkpt><trkpt lat="43.722432550790124" lon="7.334137675658855"><ele>481.0</ele><time>2026-05-01T13:41:15Z</time></trkpt><trkpt lat="43.72252488819242" lon="7.334117136516772"><ele>481.0</ele><time>2026-05-01T13:41:16Z</time></trkpt><trkpt lat="43.72261994257197" lon="7.334160049843634"><ele>481.0</ele><time>2026-05-01T13:41:17Z</time></trkpt><trkpt lat="43.722702271181284" lon="7.33426181569745"><ele>481.0</ele><time>2026-05-01T13:41:18Z</time></trkpt><trkpt lat="43.72274178758083" lon="7.334415843781683"><ele>481.0</ele><time>2026-05-01T13:41:19Z</time></trkpt><trkpt lat="43.7228034813049" lon="7.334563121033546"><ele>486.6666666666667</ele><time>2026-05-01T13:41:20Z</time></trkpt><trkpt lat="43.722855020873915" lon="7.334750734198412"><ele>492.33333333333337</ele><time>2026-05-01T13:41:21Z</time></trkpt><trkpt lat="43.722916935470884" lon="7.334952591885441"><ele>498.0</ele><time>2026-05-01T13:41:22Z</time></trkpt><trkpt lat="43.72297461877152" lon="7.335143802290712"><ele>498.0</ele><time>2026-05-01T13:41:23Z</time></trkpt><trkpt lat="43.723034036367096" lon="7.335342305369055"><ele>498.0</ele><time>2026-05-01T13:41:24Z</time></trkpt><trkpt lat="43.72309024659969" lon="7.335537161457124"><ele>498.0</ele><time>2026-05-01T13:41:25Z</time></trkpt><trkpt lat="43.72314106918859" lon="7.335711329476644"><ele>498.0</ele><time>2026-05-01T13:41:26Z</time></trkpt><trkpt lat="43.723187816160404" lon="7.335873173068393"><ele>496.59999999999997</ele><time>2026-05-01T13:41:27Z</time></trkpt><trkpt lat="43.72323039750971" lon="7.336010390395272"><ele>495.19999999999993</ele><time>2026-05-01T13:41:28Z</time></trkpt><trkpt lat="43.72327423049228" lon="7.336115892867117"><ele>493.8</ele><time>2026-05-01T13:41:29Z</time></trkpt><trkpt lat="43.723319919982686" lon="7.336189937670161"><ele>492.4</ele><time>2026-05-01T13:41:30Z</time></trkpt><trkpt lat="43.723439043460246" lon="7.336289287641072"><ele>491.0</ele><time>2026-05-01T13:41:32Z</time></trkpt><trkpt lat="43.72353936002327" lon="7.336361624877458"><ele>493.66666666666663</ele><time>2026-05-01T13:41:33Z</time></trkpt><trkpt lat="43.723659722039734" lon="7.336456133275354"><ele>496.33333333333337</ele><time>2026-05-01T13:41:34Z</time></trkpt><trkpt lat="43.723809741551214" lon="7.336549548947227"><ele>499.0</ele><time>2026-05-01T13:41:35Z</time></trkpt><trkpt lat="43.723930888722116" lon="7.336671557803986"><ele>499.0</ele><time>2026-05-01T13:41:36Z</time></trkpt><trkpt lat="43.72404484634721" lon="7.3367674608617905"><ele>499.0</ele><time>2026-05-01T13:41:37Z</time></trkpt><trkpt lat="43.724162134679375" lon="7.336855073195179"><ele>499.0</ele><time>2026-05-01T13:41:38Z</time></trkpt><trkpt lat="43.724269816307626" lon="7.336943390926825"><ele>499.0</ele><time>2026-05-01T13:41:39Z</time></trkpt><trkpt lat="43.72437103383839" lon="7.337006895445434"><ele>496.75</ele><time>2026-05-01T13:41:40Z</time></trkpt><trkpt lat="43.7244746136696" lon="7.337045046646096"><ele>494.5</ele><time>2026-05-01T13:41:41Z</time></trkpt><trkpt lat="43.72458482911609" lon="7.337035087257064"><ele>492.25</ele><time>2026-05-01T13:41:42Z</time></trkpt><trkpt lat="43.72469719934345" lon="7.336966938652864"><ele>490.0</ele><time>2026-05-01T13:41:43Z</time></trkpt><trkpt lat="43.72479856121699" lon="7.336846404132076"><ele>490.0</ele><time>2026-05-01T13:41:44Z</time></trkpt><trkpt lat="43.724884776802" lon="7.336684931085078"><ele>490.0</ele><time>2026-05-01T13:41:45Z</time></trkpt><trkpt lat="43.72496520004833" lon="7.336509109147914"><ele>490.0</ele><time>2026-05-01T13:41:46Z</time></trkpt><trkpt lat="43.72504860529025" lon="7.336347600822453"><ele>490.0</ele><time>2026-05-01T13:41:47Z</time></trkpt><trkpt lat="43.72512272308545" lon="7.336207662512705"><ele>493.4</ele><time>2026-05-01T13:41:48Z</time></trkpt><trkpt lat="43.72518053622738" lon="7.3360780407105315"><ele>496.8</ele><time>2026-05-01T13:41:49Z</time></trkpt><trkpt lat="43.72522874247562" lon="7.33596269927459"><ele>500.20000000000005</ele><time>2026-05-01T13:41:50Z</time></trkpt><trkpt lat="43.72529672384062" lon="7.335883057860065"><ele>503.6</ele><time>2026-05-01T13:41:51Z</time></trkpt><trkpt lat="43.7253837331676" lon="7.335856729058416"><ele>507.0</ele><time>2026-05-01T13:41:52Z</time></trkpt><trkpt lat="43.72547699827116" lon="7.335885673617245"><ele>508.25</ele><time>2026-05-01T13:41:53Z</time></trkpt><trkpt lat="43.7255570562846" lon="7.335981102373929"><ele>509.5</ele><time>2026-05-01T13:41:54Z</time></trkpt><trkpt lat="43.725600642358756" lon="7.336133968048094"><ele>510.75</ele><time>2026-05-01T13:41:55Z</time></trkpt><trkpt lat="43.72568255110317" lon="7.33628095603761"><ele>512.0</ele><time>2026-05-01T13:41:56Z</time></trkpt><trkpt lat="43.72575787225711" lon="7.3364571002502785"><ele>507.3333333333333</ele><time>2026-05-01T13:41:57Z</time></trkpt><trkpt lat="43.72583208095065" lon="7.336628335189848"><ele>502.66666666666663</ele><time>2026-05-01T13:41:58Z</time></trkpt><trkpt lat="43.72590566627032" lon="7.336811351757298"><ele>498.0</ele><time>2026-05-01T13:41:59Z</time></trkpt><trkpt lat="43.72597442774575" lon="7.3370183334867605"><ele>494.66666666666663</ele><time>2026-05-01T13:42:00Z</time></trkpt><trkpt lat="43.72603032020181" lon="7.337224639125781"><ele>491.3333333333333</ele><time>2026-05-01T13:42:01Z</time></trkpt><trkpt lat="43.726085386124325" lon="7.337430544160175"><ele>488.0</ele><time>2026-05-01T13:42:02Z</time></trkpt><trkpt lat="43.72614085875413" lon="7.33761975355938"><ele>495.0</ele><time>2026-05-01T13:42:03Z</time></trkpt><trkpt lat="43.726192912550864" lon="7.337809124470526"><ele>502.0</ele><time>2026-05-01T13:42:04Z</time></trkpt><trkpt lat="43.72623466938791" lon="7.338007155059302"><ele>509.0</ele><time>2026-05-01T13:42:05Z</time></trkpt><trkpt lat="43.726265317501976" lon="7.3382140384093075"><ele>516.0</ele><time>2026-05-01T13:42:06Z</time></trkpt><trkpt lat="43.72628484015084" lon="7.338412891972406"><ele>516.0</ele><time>2026-05-01T13:42:07Z</time></trkpt><trkpt lat="43.72630108297251" lon="7.338604472648817"><ele>516.0</ele><time>2026-05-01T13:42:08Z</time></trkpt><trkpt lat="43.72631910278218" lon="7.338773290645784"><ele>516.0</ele><time>2026-05-01T13:42:09Z</time></trkpt><trkpt lat="43.72634471979586" lon="7.338938406612795"><ele>516.0</ele><time>2026-05-01T13:42:10Z</time></trkpt><trkpt lat="43.72638418413809" lon="7.339092627638058"><ele>513.0</ele><time>2026-05-01T13:42:11Z</time></trkpt><trkpt lat="43.726454842399384" lon="7.339224051801631"><ele>510.0</ele><time>2026-05-01T13:42:12Z</time></trkpt><trkpt lat="43.726565408402585" lon="7.33931505246138"><ele>507.0</ele><time>2026-05-01T13:42:13Z</time></trkpt><trkpt lat="43.72668852085366" lon="7.339355543064459"><ele>504.0</ele><time>2026-05-01T13:42:14Z</time></trkpt><trkpt lat="43.72680008504964" lon="7.339369346616441"><ele>504.0</ele><time>2026-05-01T13:42:15Z</time></trkpt><trkpt lat="43.72689031166308" lon="7.339404659446117"><ele>504.0</ele><time>2026-05-01T13:42:16Z</time></trkpt><trkpt lat="43.726970268355196" lon="7.339505414686251"><ele>504.0</ele><time>2026-05-01T13:42:17Z</time></trkpt><trkpt lat="43.72701683994529" lon="7.339651568074925"><ele>504.0</ele><time>2026-05-01T13:42:18Z</time></trkpt><trkpt lat="43.727022382475326" lon="7.339809784261708"><ele>504.0</ele><time>2026-05-01T13:42:19Z</time></trkpt><trkpt lat="43.72695132667122" lon="7.339952278475939"><ele>501.0</ele><time>2026-05-01T13:42:20Z</time></trkpt><trkpt lat="43.726896520839475" lon="7.340120827344052"><ele>498.0</ele><time>2026-05-01T13:42:21Z</time></trkpt><trkpt lat="43.72684680670106" lon="7.340319762034565"><ele>495.0</ele><time>2026-05-01T13:42:22Z</time></trkpt><trkpt lat="43.726773324461725" lon="7.340526202695016"><ele>497.33333333333337</ele><time>2026-05-01T13:42:23Z</time></trkpt><trkpt lat="43.72670698051172" lon="7.3407295988832715"><ele>499.6666666666667</ele><time>2026-05-01T13:42:24Z</time></trkpt><trkpt lat="43.72663363712012" lon="7.34093105330744"><ele>502.0</ele><time>2026-05-01T13:42:25Z</time></trkpt><trkpt lat="43.72656429786676" lon="7.341143628049357"><ele>502.0</ele><time>2026-05-01T13:42:26Z</time></trkpt><trkpt lat="43.726493608945965" lon="7.3413511794405535"><ele>502.0</ele><time>2026-05-01T13:42:27Z</time></trkpt><trkpt lat="43.726424304390626" lon="7.34155140742345"><ele>502.0</ele><time>2026-05-01T13:42:28Z</time></trkpt><trkpt lat="43.72635639605425" lon="7.341747141339527"><ele>504.75</ele><time>2026-05-01T13:42:29Z</time></trkpt><trkpt lat="43.726291273085906" lon="7.34194188019234"><ele>507.5</ele><time>2026-05-01T13:42:30Z</time></trkpt><trkpt lat="43.72623314130144" lon="7.342113893978769"><ele>510.25</ele><time>2026-05-01T13:42:31Z</time></trkpt><trkpt lat="43.72617858697365" lon="7.342268176500316"><ele>513.0</ele><time>2026-05-01T13:42:32Z</time></trkpt><trkpt lat="43.72612701472316" lon="7.342408888637229"><ele>513.0</ele><time>2026-05-01T13:42:33Z</time></trkpt><trkpt lat="43.726082963536186" lon="7.34255547775226"><ele>513.0</ele><time>2026-05-01T13:42:34Z</time></trkpt><trkpt lat="43.726063575941126" lon="7.342711090039247"><ele>513.0</ele><time>2026-05-01T13:42:35Z</time></trkpt><trkpt lat="43.72607335061571" lon="7.342882817939389"><ele>513.0</ele><time>2026-05-01T13:42:36Z</time></trkpt><trkpt lat="43.72610863110527" lon="7.343057274803736"><ele>513.0</ele><time>2026-05-01T13:42:37Z</time></trkpt><trkpt lat="43.726146849061536" lon="7.3432291144091595"><ele>513.0</ele><time>2026-05-01T13:42:38Z</time></trkpt><trkpt lat="43.72617277868142" lon="7.343378284653612"><ele>513.0</ele><time>2026-05-01T13:42:39Z</time></trkpt><trkpt lat="43.72620411982053" lon="7.343507899362673"><ele>513.0</ele><time>2026-05-01T13:42:40Z</time></trkpt><trkpt lat="43.7262638629641" lon="7.343614229963706"><ele>513.0</ele><time>2026-05-01T13:42:41Z</time></trkpt><trkpt lat="43.72635035447261" lon="7.343679149429478"><ele>513.0</ele><time>2026-05-01T13:42:42Z</time></trkpt><trkpt lat="43.726460219320515" lon="7.343701154686245"><ele>513.0</ele><time>2026-05-01T13:42:43Z</time></trkpt><trkpt lat="43.7265823095281" lon="7.343690115742251"><ele>513.0</ele><time>2026-05-01T13:42:44Z</time></trkpt><trkpt lat="43.72671472173064" lon="7.34367003018742"><ele>513.0</ele><time>2026-05-01T13:42:45Z</time></trkpt><trkpt lat="43.72685831829809" lon="7.343660235013549"><ele>514.5</ele><time>2026-05-01T13:42:46Z</time></trkpt><trkpt lat="43.7270070245871" lon="7.34366339434075"><ele>516.0</ele><time>2026-05-01T13:42:47Z</time></trkpt><trkpt lat="43.72715632781474" lon="7.3436750538148745"><ele>517.5</ele><time>2026-05-01T13:42:48Z</time></trkpt><trkpt lat="43.727301660101574" lon="7.343685903224836"><ele>519.0</ele><time>2026-05-01T13:42:49Z</time></trkpt><trkpt lat="43.72744071372022" lon="7.343690492548715"><ele>519.0</ele><time>2026-05-01T13:42:50Z</time></trkpt><trkpt lat="43.72758391207567" lon="7.343690492117491"><ele>519.0</ele><time>2026-05-01T13:42:51Z</time></trkpt><trkpt lat="43.72772280777917" lon="7.343682232163283"><ele>519.0</ele><time>2026-05-01T13:42:52Z</time></trkpt><trkpt lat="43.72786253248465" lon="7.343661077910687"><ele>519.0</ele><time>2026-05-01T13:42:53Z</time></trkpt><trkpt lat="43.72800675756732" lon="7.343615856709456"><ele>514.6666666666666</ele><time>2026-05-01T13:42:54Z</time></trkpt><trkpt lat="43.728154176789744" lon="7.343552824316318"><ele>510.3333333333333</ele><time>2026-05-01T13:42:55Z</time></trkpt><trkpt lat="43.72829458521277" lon="7.343474806444937"><ele>506.0</ele><time>2026-05-01T13:42:56Z</time></trkpt><trkpt lat="43.72843041954035" lon="7.343388869503038"><ele>502.0</ele><time>2026-05-01T13:42:57Z</time></trkpt><trkpt lat="43.72856095626886" lon="7.3432998817877655"><ele>498.0</ele><time>2026-05-01T13:42:58Z</time></trkpt><trkpt lat="43.72867845918909" lon="7.343217622015826"><ele>494.0</ele><time>2026-05-01T13:42:59Z</time></trkpt><trkpt lat="43.72878799720806" lon="7.343142756253325"><ele>490.0</ele><time>2026-05-01T13:43:00Z</time></trkpt><trkpt lat="43.72889799902191" lon="7.343071739946281"><ele>493.25</ele><time>2026-05-01T13:43:01Z</time></trkpt><trkpt lat="43.72901949120415" lon="7.343005503796846"><ele>496.5</ele><time>2026-05-01T13:43:02Z</time></trkpt><trkpt lat="43.729154219193994" lon="7.342957633030655"><ele>499.75</ele><time>2026-05-01T13:43:03Z</time></trkpt><trkpt lat="43.72930354800211" lon="7.342933891068468"><ele>503.0</ele><time>2026-05-01T13:43:04Z</time></trkpt><trkpt lat="43.72945883272574" lon="7.34292614578281"><ele>503.0</ele><time>2026-05-01T13:43:05Z</time></trkpt><trkpt lat="43.72960096720324" lon="7.342915298987313"><ele>503.0</ele><time>2026-05-01T13:43:06Z</time></trkpt><trkpt lat="43.729743705126154" lon="7.342887668410716"><ele>503.0</ele><time>2026-05-01T13:43:07Z</time></trkpt><trkpt lat="43.72987794979668" lon="7.3428328671801175"><ele>503.0</ele><time>2026-05-01T13:43:08Z</time></trkpt><trkpt lat="43.73000977901184" lon="7.342754147025262"><ele>503.0</ele><time>2026-05-01T13:43:09Z</time></trkpt><trkpt lat="43.73013363322162" lon="7.3426566680153265"><ele>503.0</ele><time>2026-05-01T13:43:10Z</time></trkpt><trkpt lat="43.730244446130186" lon="7.342549866661234"><ele>503.0</ele><time>2026-05-01T13:43:11Z</time></trkpt><trkpt lat="43.73034539443448" lon="7.342426234730616"><ele>503.0</ele><time>2026-05-01T13:43:12Z</time></trkpt><trkpt lat="43.730428835737804" lon="7.342284873116644"><ele>502.75</ele><time>2026-05-01T13:43:13Z</time></trkpt><trkpt lat="43.73050319724699" lon="7.342133810432823"><ele>502.5</ele><time>2026-05-01T13:43:14Z</time></trkpt><trkpt lat="43.7305666009273" lon="7.341998005072008"><ele>502.25</ele><time>2026-05-01T13:43:15Z</time></trkpt><trkpt lat="43.73062752039016" lon="7.34187802721249"><ele>502.0</ele><time>2026-05-01T13:43:16Z</time></trkpt><trkpt lat="43.73069735338949" lon="7.341780839672065"><ele>502.0</ele><time>2026-05-01T13:43:17Z</time></trkpt><trkpt lat="43.73078017051005" lon="7.341702548083156"><ele>502.00000000000006</ele><time>2026-05-01T13:43:18Z</time></trkpt><trkpt lat="43.730878764990635" lon="7.341650149576703"><ele>502.00000000000006</ele><time>2026-05-01T13:43:19Z</time></trkpt><trkpt lat="43.73098924273688" lon="7.341633649071231"><ele>502.0</ele><time>2026-05-01T13:43:20Z</time></trkpt><trkpt lat="43.731101742440444" lon="7.341658943525834"><ele>502.0</ele><time>2026-05-01T13:43:21Z</time></trkpt><trkpt lat="43.731207863496586" lon="7.341721059531851"><ele>500.5</ele><time>2026-05-01T13:43:22Z</time></trkpt><trkpt lat="43.731302072566024" lon="7.341820035585964"><ele>499.0</ele><time>2026-05-01T13:43:23Z</time></trkpt><trkpt lat="43.73138755911082" lon="7.341943482822226"><ele>497.5</ele><time>2026-05-01T13:43:24Z</time></trkpt><trkpt lat="43.73147230641679" lon="7.342083380519636"><ele>496.0</ele><time>2026-05-01T13:43:25Z</time></trkpt><trkpt lat="43.73156107467801" lon="7.3422225018210865"><ele>496.0</ele><time>2026-05-01T13:43:26Z</time></trkpt><trkpt lat="43.73165139251924" lon="7.3423599349512045"><ele>496.0</ele><time>2026-05-01T13:43:27Z</time></trkpt><trkpt lat="43.73173847858653" lon="7.34249360325423"><ele>496.0</ele><time>2026-05-01T13:43:28Z</time></trkpt><trkpt lat="43.73182480162535" lon="7.342629305646115"><ele>496.0</ele><time>2026-05-01T13:43:29Z</time></trkpt><trkpt lat="43.731911199202216" lon="7.342763443307712"><ele>493.0</ele><time>2026-05-01T13:43:30Z</time></trkpt><trkpt lat="43.731996496249856" lon="7.342900081353311"><ele>490.0</ele><time>2026-05-01T13:43:31Z</time></trkpt><trkpt lat="43.732078389907194" lon="7.343024825238336"><ele>487.0</ele><time>2026-05-01T13:43:32Z</time></trkpt><trkpt lat="43.73215279311739" lon="7.343129364499123"><ele>484.0</ele><time>2026-05-01T13:43:33Z</time></trkpt><trkpt lat="43.73221518470374" lon="7.343241266917983"><ele>484.0</ele><time>2026-05-01T13:43:34Z</time></trkpt><trkpt lat="43.73225299357492" lon="7.34337486143169"><ele>484.0</ele><time>2026-05-01T13:43:35Z</time></trkpt><trkpt lat="43.73226552400144" lon="7.343532482723397"><ele>484.0</ele><time>2026-05-01T13:43:36Z</time></trkpt><trkpt lat="43.73224673112356" lon="7.343701961611831"><ele>484.0</ele><time>2026-05-01T13:43:37Z</time></trkpt><trkpt lat="43.73222805550304" lon="7.34388319609142"><ele>484.25</ele><time>2026-05-01T13:43:38Z</time></trkpt><trkpt lat="43.73219953202902" lon="7.344066268200815"><ele>484.5</ele><time>2026-05-01T13:43:39Z</time></trkpt><trkpt lat="43.73216499896202" lon="7.344246567599709"><ele>484.75</ele><time>2026-05-01T13:43:40Z</time></trkpt><trkpt lat="43.73213731383362" lon="7.34442318610744"><ele>485.0</ele><time>2026-05-01T13:43:41Z</time></trkpt><trkpt lat="43.7321313118691" lon="7.344612077015672"><ele>486.25</ele><time>2026-05-01T13:43:42Z</time></trkpt><trkpt lat="43.732138379078705" lon="7.344807294015439"><ele>487.5</ele><time>2026-05-01T13:43:43Z</time></trkpt><trkpt lat="43.732158741902246" lon="7.344997302606971"><ele>488.75</ele><time>2026-05-01T13:43:44Z</time></trkpt><trkpt lat="43.73218797442468" lon="7.345185627172633"><ele>490.0</ele><time>2026-05-01T13:43:45Z</time></trkpt><trkpt lat="43.732212434739104" lon="7.3453665447457"><ele>490.0</ele><time>2026-05-01T13:43:46Z</time></trkpt><trkpt lat="43.73223846660456" lon="7.345540411798434"><ele>490.0</ele><time>2026-05-01T13:43:47Z</time></trkpt><trkpt lat="43.732270130658115" lon="7.345699895020599"><ele>490.0</ele><time>2026-05-01T13:43:48Z</time></trkpt><trkpt lat="43.73230470868554" lon="7.345846256688964"><ele>490.0</ele><time>2026-05-01T13:43:49Z</time></trkpt><trkpt lat="43.73234089656731" lon="7.345991838799442"><ele>491.8</ele><time>2026-05-01T13:43:50Z</time></trkpt><trkpt lat="43.73237725571873" lon="7.3461188523596945"><ele>493.6</ele><time>2026-05-01T13:43:51Z</time></trkpt><trkpt lat="43.73243147440639" lon="7.3462237424962575"><ele>495.4</ele><time>2026-05-01T13:43:52Z</time></trkpt><trkpt lat="43.73251718966719" lon="7.3462924577643"><ele>497.2</ele><time>2026-05-01T13:43:53Z</time></trkpt><trkpt lat="43.73262534788893" lon="7.346312316462309"><ele>499.0</ele><time>2026-05-01T13:43:54Z</time></trkpt><trkpt lat="43.73273515857331" lon="7.346271833669199"><ele>499.75</ele><time>2026-05-01T13:43:55Z</time></trkpt><trkpt lat="43.732837089645905" lon="7.346190383106907"><ele>500.5</ele><time>2026-05-01T13:43:56Z</time></trkpt><trkpt lat="43.73294323379236" lon="7.34610149736787"><ele>501.25</ele><time>2026-05-01T13:43:57Z</time></trkpt><trkpt lat="43.73305576866937" lon="7.346014744746784"><ele>502.0</ele><time>2026-05-01T13:43:58Z</time></trkpt><trkpt lat="43.733164122915056" lon="7.3459334220938475"><ele>502.0</ele><time>2026-05-01T13:43:59Z</time></trkpt><trkpt lat="43.73325929854031" lon="7.345860384565315"><ele>502.00000000000006</ele><time>2026-05-01T13:44:00Z</time></trkpt><trkpt lat="43.733345707725945" lon="7.345798650049762"><ele>502.00000000000006</ele><time>2026-05-01T13:44:01Z</time></trkpt><trkpt lat="43.7334328312508" lon="7.3457607648915655"><ele>502.0</ele><time>2026-05-01T13:44:02Z</time></trkpt><trkpt lat="43.73352736449843" lon="7.345764522017562"><ele>502.0</ele><time>2026-05-01T13:44:03Z</time></trkpt><trkpt lat="43.733622582965246" lon="7.345758080521074"><ele>501.6</ele><time>2026-05-01T13:44:04Z</time></trkpt><trkpt lat="43.7337123144027" lon="7.345822657735001"><ele>501.20000000000005</ele><time>2026-05-01T13:44:05Z</time></trkpt><trkpt lat="43.73377561605492" lon="7.345943746319541"><ele>500.8</ele><time>2026-05-01T13:44:06Z</time></trkpt><trkpt lat="43.733852974645714" lon="7.346045755846146"><ele>500.4</ele><time>2026-05-01T13:44:07Z</time></trkpt><trkpt lat="43.73388750495665" lon="7.346191810330042"><ele>500.0</ele><time>2026-05-01T13:44:08Z</time></trkpt><trkpt lat="43.73394501339561" lon="7.346321441364856"><ele>502.0</ele><time>2026-05-01T13:44:09Z</time></trkpt><trkpt lat="43.733981108676936" lon="7.346448817053886"><ele>504.0</ele><time>2026-05-01T13:44:10Z</time></trkpt><trkpt lat="43.73401413484103" lon="7.346567288824026"><ele>506.0</ele><time>2026-05-01T13:44:11Z</time></trkpt><trkpt lat="43.73404776056368" lon="7.346676891129013"><ele>508.0</ele><time>2026-05-01T13:44:12Z</time></trkpt><trkpt lat="43.73408383579128" lon="7.346796197006501"><ele>510.0</ele><time>2026-05-01T13:44:13Z</time></trkpt><trkpt lat="43.73412493139976" lon="7.346922204179471"><ele>510.0</ele><time>2026-05-01T13:44:14Z</time></trkpt><trkpt lat="43.734170075915294" lon="7.347045586186778"><ele>510.0</ele><time>2026-05-01T13:44:15Z</time></trkpt><trkpt lat="43.73421163228763" lon="7.347170296699594"><ele>510.0</ele><time>2026-05-01T13:44:16Z</time></trkpt><trkpt lat="43.73425401959527" lon="7.347310371634238"><ele>510.0</ele><time>2026-05-01T13:44:17Z</time></trkpt><trkpt lat="43.73430051601846" lon="7.347454843705542"><ele>510.0</ele><time>2026-05-01T13:44:18Z</time></trkpt><trkpt lat="43.734351046551105" lon="7.347602126581315"><ele>516.0</ele><time>2026-05-01T13:44:19Z</time></trkpt><trkpt lat="43.73439771893498" lon="7.347757746279115"><ele>522.0</ele><time>2026-05-01T13:44:20Z</time></trkpt><trkpt lat="43.7344436035886" lon="7.347914093450437"><ele>528.0</ele><time>2026-05-01T13:44:21Z</time></trkpt><trkpt lat="43.73449249067308" lon="7.348075231679954"><ele>534.0</ele><time>2026-05-01T13:44:22Z</time></trkpt><trkpt lat="43.73454515169133" lon="7.348236058187599"><ele>534.0</ele><time>2026-05-01T13:44:23Z</time></trkpt><trkpt lat="43.73459570263526" lon="7.348399988126714"><ele>534.0</ele><time>2026-05-01T13:44:24Z</time></trkpt><trkpt lat="43.734641884890316" lon="7.3485563670139085"><ele>534.0</ele><time>2026-05-01T13:44:25Z</time></trkpt><trkpt lat="43.73468377555149" lon="7.3487019343537"><ele>534.0</ele><time>2026-05-01T13:44:26Z</time></trkpt><trkpt lat="43.73473346861334" lon="7.348840495632422"><ele>529.25</ele><time>2026-05-01T13:44:27Z</time></trkpt><trkpt lat="43.734796260043936" lon="7.348966094224426"><ele>524.5</ele><time>2026-05-01T13:44:28Z</time></trkpt><trkpt lat="43.73487959633945" lon="7.349074453806604"><ele>519.75</ele><time>2026-05-01T13:44:29Z</time></trkpt><trkpt lat="43.73498582733615" lon="7.349155682456066"><ele>515.0</ele><time>2026-05-01T13:44:30Z</time></trkpt><trkpt lat="43.73510173338658" lon="7.349220651812739"><ele>515.0</ele><time>2026-05-01T13:44:31Z</time></trkpt><trkpt lat="43.735210840143615" lon="7.349312082499355"><ele>515.0</ele><time>2026-05-01T13:44:32Z</time></trkpt><trkpt lat="43.73530393392938" lon="7.349436935510842"><ele>515.0</ele><time>2026-05-01T13:44:33Z</time></trkpt><trkpt lat="43.73538670455838" lon="7.349569250342285"><ele>515.0</ele><time>2026-05-01T13:44:34Z</time></trkpt><trkpt lat="43.735456825545704" lon="7.349699237491013"><ele>516.0</ele><time>2026-05-01T13:44:35Z</time></trkpt><trkpt lat="43.73551506364379" lon="7.349828500522365"><ele>517.0</ele><time>2026-05-01T13:44:36Z</time></trkpt><trkpt lat="43.73557352698104" lon="7.349954371148859"><ele>518.0</ele><time>2026-05-01T13:44:37Z</time></trkpt><trkpt lat="43.73564034607357" lon="7.350076386560956"><ele>519.0</ele><time>2026-05-01T13:44:38Z</time></trkpt><trkpt lat="43.73571412309931" lon="7.3501985475027265"><ele>520.0</ele><time>2026-05-01T13:44:39Z</time></trkpt><trkpt lat="43.73581163545484" lon="7.3502855567706735"><ele>520.0</ele><time>2026-05-01T13:44:40Z</time></trkpt><trkpt lat="43.7359271780581" lon="7.350331845959207"><ele>520.0</ele><time>2026-05-01T13:44:41Z</time></trkpt><trkpt lat="43.73605453844211" lon="7.350348143835199"><ele>520.0</ele><time>2026-05-01T13:44:42Z</time></trkpt><trkpt lat="43.736175155444165" lon="7.350369613433729"><ele>520.0</ele><time>2026-05-01T13:44:43Z</time></trkpt><trkpt lat="43.736285543828906" lon="7.350398847363054"><ele>519.6</ele><time>2026-05-01T13:44:44Z</time></trkpt><trkpt lat="43.73638468698504" lon="7.350418251662612"><ele>519.2</ele><time>2026-05-01T13:44:45Z</time></trkpt><trkpt lat="43.736483163036496" lon="7.350439815637401"><ele>518.8</ele><time>2026-05-01T13:44:46Z</time></trkpt><trkpt lat="43.736578058892995" lon="7.350469724398084"><ele>518.4</ele><time>2026-05-01T13:44:47Z</time></trkpt><trkpt lat="43.73667153009833" lon="7.350494219102075"><ele>518.0</ele><time>2026-05-01T13:44:48Z</time></trkpt><trkpt lat="43.73676035607301" lon="7.350541744365881"><ele>518.0</ele><time>2026-05-01T13:44:49Z</time></trkpt><trkpt lat="43.73683179486987" lon="7.350634930800588"><ele>518.0</ele><time>2026-05-01T13:44:50Z</time></trkpt><trkpt lat="43.736888612300945" lon="7.35073031923709"><ele>518.0</ele><time>2026-05-01T13:44:51Z</time></trkpt><trkpt lat="43.73693988171432" lon="7.350837279439124"><ele>518.0</ele><time>2026-05-01T13:44:52Z</time></trkpt><trkpt lat="43.73692500606288" lon="7.350969234850242"><ele>518.0</ele><time>2026-05-01T13:44:53Z</time></trkpt><trkpt lat="43.736900923265424" lon="7.351094103763494"><ele>518.0</ele><time>2026-05-01T13:44:54Z</time></trkpt><trkpt lat="43.73687707478675" lon="7.351234989530522"><ele>518.0</ele><time>2026-05-01T13:44:55Z</time></trkpt><trkpt lat="43.73686487650991" lon="7.351380834010115"><ele>518.0</ele><time>2026-05-01T13:44:56Z</time></trkpt><trkpt lat="43.73684120072888" lon="7.3515143780277095"><ele>518.0</ele><time>2026-05-01T13:44:57Z</time></trkpt><trkpt lat="43.7368206829645" lon="7.351633229259643"><ele>518.0</ele><time>2026-05-01T13:44:58Z</time></trkpt><trkpt lat="43.73680186882163" lon="7.351736698487116"><ele>517.5</ele><time>2026-05-01T13:44:59Z</time></trkpt><trkpt lat="43.73678364745218" lon="7.351833922636249"><ele>517.0</ele><time>2026-05-01T13:45:00Z</time></trkpt><trkpt lat="43.73676391541886" lon="7.351936265271155"><ele>516.5</ele><time>2026-05-01T13:45:01Z</time></trkpt><trkpt lat="43.73675000758179" lon="7.35203278277302"><ele>516.0</ele><time>2026-05-01T13:45:02Z</time></trkpt><trkpt lat="43.736717217343966" lon="7.352126467088433"><ele>515.5</ele><time>2026-05-01T13:45:03Z</time></trkpt><trkpt lat="43.73669637116795" lon="7.352240412263306"><ele>515.0</ele><time>2026-05-01T13:45:04Z</time></trkpt><trkpt lat="43.736674858912686" lon="7.3523612916635495"><ele>516.75</ele><time>2026-05-01T13:45:05Z</time></trkpt><trkpt lat="43.73665176802359" lon="7.352489131581118"><ele>518.5</ele><time>2026-05-01T13:45:06Z</time></trkpt><trkpt lat="43.73662490839169" lon="7.352638231971199"><ele>520.25</ele><time>2026-05-01T13:45:07Z</time></trkpt><trkpt lat="43.73660505153003" lon="7.352806358723125"><ele>522.0</ele><time>2026-05-01T13:45:08Z</time></trkpt><trkpt lat="43.73656269461187" lon="7.352980673364838"><ele>525.25</ele><time>2026-05-01T13:45:09Z</time></trkpt><trkpt lat="43.736529535515366" lon="7.353173213774158"><ele>528.5</ele><time>2026-05-01T13:45:10Z</time></trkpt><trkpt lat="43.73649371748252" lon="7.35336805306605"><ele>531.75</ele><time>2026-05-01T13:45:11Z</time></trkpt><trkpt lat="43.73645908449397" lon="7.353562349095819"><ele>535.0</ele><time>2026-05-01T13:45:12Z</time></trkpt><trkpt lat="43.736422189667344" lon="7.353762625687927"><ele>536.0</ele><time>2026-05-01T13:45:13Z</time></trkpt><trkpt lat="43.736386145366176" lon="7.3539761776188275"><ele>537.0</ele><time>2026-05-01T13:45:14Z</time></trkpt><trkpt lat="43.73635782135384" lon="7.354186278112457"><ele>538.0</ele><time>2026-05-01T13:45:15Z</time></trkpt><trkpt lat="43.73633162220894" lon="7.35439973477695"><ele>538.0</ele><time>2026-05-01T13:45:16Z</time></trkpt><trkpt lat="43.736316991651286" lon="7.354607713833425"><ele>538.0</ele><time>2026-05-01T13:45:17Z</time></trkpt><trkpt lat="43.73630272132165" lon="7.354809597892435"><ele>538.0</ele><time>2026-05-01T13:45:18Z</time></trkpt><trkpt lat="43.7362957795058" lon="7.354997305025462"><ele>538.0</ele><time>2026-05-01T13:45:19Z</time></trkpt><trkpt lat="43.73628704725747" lon="7.355180210867213"><ele>538.5</ele><time>2026-05-01T13:45:20Z</time></trkpt><trkpt lat="43.736278097809446" lon="7.355364141296909"><ele>539.0</ele><time>2026-05-01T13:45:21Z</time></trkpt><trkpt lat="43.736268778350194" lon="7.35552338447617"><ele>539.5</ele><time>2026-05-01T13:45:22Z</time></trkpt><trkpt lat="43.73626562750598" lon="7.355671940610264"><ele>540.0</ele><time>2026-05-01T13:45:23Z</time></trkpt><trkpt lat="43.73627061065203" lon="7.355817244396584"><ele>540.0</ele><time>2026-05-01T13:45:24Z</time></trkpt><trkpt lat="43.7362946828678" lon="7.3559581279993544"><ele>540.0</ele><time>2026-05-01T13:45:25Z</time></trkpt><trkpt lat="43.73635238255853" lon="7.356076857231322"><ele>540.0</ele><time>2026-05-01T13:45:26Z</time></trkpt><trkpt lat="43.736445198535115" lon="7.356178903105674"><ele>540.0</ele><time>2026-05-01T13:45:27Z</time></trkpt><trkpt lat="43.73655487257825" lon="7.356270533813729"><ele>536.75</ele><time>2026-05-01T13:45:28Z</time></trkpt><trkpt lat="43.73666188040907" lon="7.356384109632695"><ele>533.5</ele><time>2026-05-01T13:45:29Z</time></trkpt><trkpt lat="43.73675231630072" lon="7.356538073619425"><ele>530.25</ele><time>2026-05-01T13:45:30Z</time></trkpt><trkpt lat="43.73683239605074" lon="7.35670597844465"><ele>527.0</ele><time>2026-05-01T13:45:31Z</time></trkpt><trkpt lat="43.736905958603025" lon="7.35689847242935"><ele>533.25</ele><time>2026-05-01T13:45:32Z</time></trkpt><trkpt lat="43.736980159597216" lon="7.3570579561145255"><ele>539.5</ele><time>2026-05-01T13:45:33Z</time></trkpt><trkpt lat="43.73704567447873" lon="7.357201847674805"><ele>545.75</ele><time>2026-05-01T13:45:34Z</time></trkpt><trkpt lat="43.73710116452453" lon="7.357361936541554"><ele>552.0</ele><time>2026-05-01T13:45:35Z</time></trkpt><trkpt lat="43.7371544832737" lon="7.3575129261955095"><ele>552.0</ele><time>2026-05-01T13:45:36Z</time></trkpt><trkpt lat="43.7372057405765" lon="7.3576652235619395"><ele>552.0</ele><time>2026-05-01T13:45:37Z</time></trkpt><trkpt lat="43.73723971120259" lon="7.357822741045181"><ele>552.0</ele><time>2026-05-01T13:45:38Z</time></trkpt><trkpt lat="43.737267298872325" lon="7.357993032899456"><ele>552.0</ele><time>2026-05-01T13:45:39Z</time></trkpt><trkpt lat="43.737286494952585" lon="7.358164154929233"><ele>550.0</ele><time>2026-05-01T13:45:40Z</time></trkpt><trkpt lat="43.73729688254684" lon="7.358336905273984"><ele>548.0</ele><time>2026-05-01T13:45:41Z</time></trkpt><trkpt lat="43.73730540339608" lon="7.358509200981404"><ele>546.0</ele><time>2026-05-01T13:45:42Z</time></trkpt><trkpt lat="43.73730821154352" lon="7.358678011620088"><ele>544.0</ele><time>2026-05-01T13:45:43Z</time></trkpt><trkpt lat="43.73730469998632" lon="7.358845235943009"><ele>544.5</ele><time>2026-05-01T13:45:44Z</time></trkpt><trkpt lat="43.73725845974644" lon="7.359011324375405"><ele>545.0</ele><time>2026-05-01T13:45:45Z</time></trkpt><trkpt lat="43.737213366815624" lon="7.359188498606111"><ele>545.5</ele><time>2026-05-01T13:45:46Z</time></trkpt><trkpt lat="43.73718470460039" lon="7.359360836978469"><ele>546.0</ele><time>2026-05-01T13:45:47Z</time></trkpt><trkpt lat="43.73712048972638" lon="7.359509197213995"><ele>546.0</ele><time>2026-05-01T13:45:48Z</time></trkpt><trkpt lat="43.737076657606394" lon="7.359668673152442"><ele>546.0</ele><time>2026-05-01T13:45:49Z</time></trkpt><trkpt lat="43.73698514804685" lon="7.359786375055238"><ele>546.0</ele><time>2026-05-01T13:45:50Z</time></trkpt><trkpt lat="43.73689641354208" lon="7.359897487850891"><ele>546.0</ele><time>2026-05-01T13:45:51Z</time></trkpt><trkpt lat="43.736800675267354" lon="7.359990597150758"><ele>542.5</ele><time>2026-05-01T13:45:52Z</time></trkpt><trkpt lat="43.736695608571516" lon="7.360073791050925"><ele>539.0</ele><time>2026-05-01T13:45:53Z</time></trkpt><trkpt lat="43.736602412073424" lon="7.36016597913391"><ele>535.5</ele><time>2026-05-01T13:45:54Z</time></trkpt><trkpt lat="43.73648647268075" lon="7.3602231485733505"><ele>532.0</ele><time>2026-05-01T13:45:55Z</time></trkpt><trkpt lat="43.736375489441166" lon="7.360294740089334"><ele>532.0</ele><time>2026-05-01T13:45:56Z</time></trkpt><trkpt lat="43.73628355595315" lon="7.360392575630038"><ele>532.0</ele><time>2026-05-01T13:45:57Z</time></trkpt><trkpt lat="43.736209158814695" lon="7.360522141480848"><ele>532.0</ele><time>2026-05-01T13:45:58Z</time></trkpt><trkpt lat="43.7361537988502" lon="7.360672219111863"><ele>532.0</ele><time>2026-05-01T13:45:59Z</time></trkpt><trkpt lat="43.73612396186314" lon="7.360837646694949"><ele>535.25</ele><time>2026-05-01T13:46:00Z</time></trkpt><trkpt lat="43.736129550595685" lon="7.361018657696787"><ele>538.5</ele><time>2026-05-01T13:46:01Z</time></trkpt><trkpt lat="43.73616224163364" lon="7.361206145579386"><ele>541.75</ele><time>2026-05-01T13:46:02Z</time></trkpt><trkpt lat="43.736196512963375" lon="7.361401270077751"><ele>545.0</ele><time>2026-05-01T13:46:03Z</time></trkpt><trkpt lat="43.7362324267367" lon="7.361605397861675"><ele>546.5</ele><time>2026-05-01T13:46:04Z</time></trkpt><trkpt lat="43.73626592845425" lon="7.3618107720045"><ele>548.0</ele><time>2026-05-01T13:46:05Z</time></trkpt><trkpt lat="43.73629263866723" lon="7.361996140787222"><ele>549.5</ele><time>2026-05-01T13:46:06Z</time></trkpt><trkpt lat="43.73631641112747" lon="7.362173366228383"><ele>551.0</ele><time>2026-05-01T13:46:07Z</time></trkpt><trkpt lat="43.73633326009783" lon="7.362341584262559"><ele>551.0</ele><time>2026-05-01T13:46:08Z</time></trkpt><trkpt lat="43.736341347431384" lon="7.362518722412687"><ele>551.0</ele><time>2026-05-01T13:46:09Z</time></trkpt><trkpt lat="43.73632556446279" lon="7.362707785490634"><ele>551.0</ele><time>2026-05-01T13:46:10Z</time></trkpt><trkpt lat="43.736294262703204" lon="7.362908138010028"><ele>551.0</ele><time>2026-05-01T13:46:11Z</time></trkpt><trkpt lat="43.73625766720412" lon="7.363102979342217"><ele>552.5</ele><time>2026-05-01T13:46:12Z</time></trkpt><trkpt lat="43.73621285530277" lon="7.363289978697267"><ele>554.0</ele><time>2026-05-01T13:46:13Z</time></trkpt><trkpt lat="43.73616103976237" lon="7.363474127610139"><ele>555.5</ele><time>2026-05-01T13:46:14Z</time></trkpt><trkpt lat="43.736104853618606" lon="7.363655327309657"><ele>557.0</ele><time>2026-05-01T13:46:15Z</time></trkpt><trkpt lat="43.73601745759849" lon="7.363815701665559"><ele>550.25</ele><time>2026-05-01T13:46:16Z</time></trkpt><trkpt lat="43.73593137722459" lon="7.363981018081673"><ele>543.5</ele><time>2026-05-01T13:46:17Z</time></trkpt><trkpt lat="43.73585770978358" lon="7.364155868581283"><ele>536.75</ele><time>2026-05-01T13:46:18Z</time></trkpt><trkpt lat="43.735783262368095" lon="7.3643342357525805"><ele>530.0</ele><time>2026-05-01T13:46:19Z</time></trkpt><trkpt lat="43.735721481648476" lon="7.364518711529996"><ele>532.25</ele><time>2026-05-01T13:46:20Z</time></trkpt><trkpt lat="43.735659118729224" lon="7.364699124901399"><ele>534.5</ele><time>2026-05-01T13:46:21Z</time></trkpt><trkpt lat="43.73560071276744" lon="7.364855960776261"><ele>536.75</ele><time>2026-05-01T13:46:22Z</time></trkpt><trkpt lat="43.73555194396256" lon="7.3650112028625285"><ele>539.0</ele><time>2026-05-01T13:46:23Z</time></trkpt><trkpt lat="43.73551372469851" lon="7.365161492009996"><ele>539.0</ele><time>2026-05-01T13:46:24Z</time></trkpt><trkpt lat="43.735494565003215" lon="7.36530723740388"><ele>539.0</ele><time>2026-05-01T13:46:25Z</time></trkpt><trkpt lat="43.73550372988063" lon="7.36545560876941"><ele>539.0</ele><time>2026-05-01T13:46:26Z</time></trkpt><trkpt lat="43.7355476992116" lon="7.36560825821608"><ele>539.0</ele><time>2026-05-01T13:46:27Z</time></trkpt><trkpt lat="43.7356144126779" lon="7.365765078005061"><ele>539.0</ele><time>2026-05-01T13:46:28Z</time></trkpt><trkpt lat="43.73567932914013" lon="7.365931785011067"><ele>539.0</ele><time>2026-05-01T13:46:29Z</time></trkpt><trkpt lat="43.73571848659142" lon="7.366104147851314"><ele>539.0</ele><time>2026-05-01T13:46:30Z</time></trkpt><trkpt lat="43.73574497928543" lon="7.366276857142931"><ele>539.0</ele><time>2026-05-01T13:46:31Z</time></trkpt><trkpt lat="43.73575419811861" lon="7.366449722911685"><ele>538.75</ele><time>2026-05-01T13:46:32Z</time></trkpt><trkpt lat="43.73572835705785" lon="7.366612230046597"><ele>538.5</ele><time>2026-05-01T13:46:33Z</time></trkpt><trkpt lat="43.7356916117943" lon="7.3667726115624035"><ele>538.25</ele><time>2026-05-01T13:46:34Z</time></trkpt><trkpt lat="43.73563930398415" lon="7.366950615510353"><ele>538.0</ele><time>2026-05-01T13:46:35Z</time></trkpt><trkpt lat="43.735589579004966" lon="7.367148022969908"><ele>540.25</ele><time>2026-05-01T13:46:36Z</time></trkpt><trkpt lat="43.7355281584315" lon="7.367320959669865"><ele>542.5</ele><time>2026-05-01T13:46:37Z</time></trkpt><trkpt lat="43.735470793028874" lon="7.367484606908927"><ele>544.75</ele><time>2026-05-01T13:46:38Z</time></trkpt><trkpt lat="43.73540652847124" lon="7.367641685071085"><ele>547.0</ele><time>2026-05-01T13:46:39Z</time></trkpt><trkpt lat="43.73534274900952" lon="7.367789995816744"><ele>547.0</ele><time>2026-05-01T13:46:40Z</time></trkpt><trkpt lat="43.73525078454894" lon="7.367909227028215"><ele>547.0</ele><time>2026-05-01T13:46:41Z</time></trkpt><trkpt lat="43.73515914870822" lon="7.368046449636194"><ele>547.0</ele><time>2026-05-01T13:46:42Z</time></trkpt><trkpt lat="43.73506663550307" lon="7.368187397641651"><ele>547.0</ele><time>2026-05-01T13:46:43Z</time></trkpt><trkpt lat="43.73495161372711" lon="7.368302371111673"><ele>543.0</ele><time>2026-05-01T13:46:44Z</time></trkpt><trkpt lat="43.73483236798924" lon="7.368409071221691"><ele>539.0</ele><time>2026-05-01T13:46:45Z</time></trkpt><trkpt lat="43.73471427514118" lon="7.368492465748197"><ele>535.0</ele><time>2026-05-01T13:46:46Z</time></trkpt><trkpt lat="43.734576665558194" lon="7.368537100345707"><ele>531.0</ele><time>2026-05-01T13:46:47Z</time></trkpt><trkpt lat="43.73444356893442" lon="7.3685997631008515"><ele>527.0</ele><time>2026-05-01T13:46:48Z</time></trkpt><trkpt lat="43.734303432332155" lon="7.368621886522878"><ele>523.0</ele><time>2026-05-01T13:46:49Z</time></trkpt><trkpt lat="43.73415997742644" lon="7.3686312133485306"><ele>519.0</ele><time>2026-05-01T13:46:50Z</time></trkpt><trkpt lat="43.73401745171022" lon="7.368632240254352"><ele>515.0</ele><time>2026-05-01T13:46:51Z</time></trkpt><trkpt lat="43.73388129956492" lon="7.368649228475968"><ele>515.0</ele><time>2026-05-01T13:46:52Z</time></trkpt><trkpt lat="43.73375047963372" lon="7.368667448911605"><ele>515.0</ele><time>2026-05-01T13:46:53Z</time></trkpt><trkpt lat="43.73362538890817" lon="7.368706626812"><ele>515.0</ele><time>2026-05-01T13:46:54Z</time></trkpt><trkpt lat="43.73350867400738" lon="7.368779563087336"><ele>515.0</ele><time>2026-05-01T13:46:55Z</time></trkpt><trkpt lat="43.73340371622873" lon="7.368895477852903"><ele>517.75</ele><time>2026-05-01T13:46:56Z</time></trkpt><trkpt lat="43.733313167216096" lon="7.3690361914199265"><ele>520.5</ele><time>2026-05-01T13:46:57Z</time></trkpt><trkpt lat="43.733241400877475" lon="7.3691944106793"><ele>523.25</ele><time>2026-05-01T13:46:58Z</time></trkpt><trkpt lat="43.73318427292764" lon="7.369362635014212"><ele>526.0</ele><time>2026-05-01T13:46:59Z</time></trkpt><trkpt lat="43.73313804840403" lon="7.369532516414703"><ele>527.5</ele><time>2026-05-01T13:47:00Z</time></trkpt><trkpt lat="43.73310383553553" lon="7.3697085271627625"><ele>529.0</ele><time>2026-05-01T13:47:01Z</time></trkpt><trkpt lat="43.73309266480686" lon="7.369891275210364"><ele>530.5</ele><time>2026-05-01T13:47:02Z</time></trkpt><trkpt lat="43.73309808802759" lon="7.370071687837851"><ele>532.0</ele><time>2026-05-01T13:47:03Z</time></trkpt><trkpt lat="43.73312580004811" lon="7.370252385217645"><ele>532.0</ele><time>2026-05-01T13:47:04Z</time></trkpt><trkpt lat="43.733169675438795" lon="7.370433795806074"><ele>532.0</ele><time>2026-05-01T13:47:05Z</time></trkpt><trkpt lat="43.73321665698797" lon="7.370613887492454"><ele>532.0</ele><time>2026-05-01T13:47:06Z</time></trkpt><trkpt lat="43.73326217277324" lon="7.3708015707246295"><ele>532.0</ele><time>2026-05-01T13:47:07Z</time></trkpt><trkpt lat="43.733313306823035" lon="7.371002268477449"><ele>529.3333333333334</ele><time>2026-05-01T13:47:08Z</time></trkpt><trkpt lat="43.73336451484967" lon="7.3712055207931915"><ele>526.6666666666666</ele><time>2026-05-01T13:47:09Z</time></trkpt><trkpt lat="43.73342789139258" lon="7.371408061841854"><ele>524.0</ele><time>2026-05-01T13:47:10Z</time></trkpt><trkpt lat="43.73348277783768" lon="7.371600970178573"><ele>520.0</ele><time>2026-05-01T13:47:11Z</time></trkpt><trkpt lat="43.73353316761488" lon="7.371793662900315"><ele>516.0</ele><time>2026-05-01T13:47:12Z</time></trkpt><trkpt lat="43.73357536322238" lon="7.371993044767387"><ele>512.0</ele><time>2026-05-01T13:47:13Z</time></trkpt><trkpt lat="43.733606759498635" lon="7.372198706034142"><ele>526.6666666666666</ele><time>2026-05-01T13:47:14Z</time></trkpt><trkpt lat="43.73363280815445" lon="7.372409521841816"><ele>541.3333333333334</ele><time>2026-05-01T13:47:15Z</time></trkpt><trkpt lat="43.73366456250898" lon="7.37261471284206"><ele>556.0</ele><time>2026-05-01T13:47:16Z</time></trkpt><trkpt lat="43.733715749314406" lon="7.3728135342464896"><ele>556.0</ele><time>2026-05-01T13:47:17Z</time></trkpt><trkpt lat="43.733776849578746" lon="7.373007845198887"><ele>556.0</ele><time>2026-05-01T13:47:18Z</time></trkpt><trkpt lat="43.7338367558192" lon="7.373206868989577"><ele>556.0</ele><time>2026-05-01T13:47:19Z</time></trkpt><trkpt lat="43.73389511382783" lon="7.373405441070798"><ele>549.75</ele><time>2026-05-01T13:47:20Z</time></trkpt><trkpt lat="43.733954212889174" lon="7.373588673875357"><ele>543.5</ele><time>2026-05-01T13:47:21Z</time></trkpt><trkpt lat="43.734018404863384" lon="7.3737692025760015"><ele>537.25</ele><time>2026-05-01T13:47:22Z</time></trkpt><trkpt lat="43.73407792656672" lon="7.373951756558756"><ele>531.0</ele><time>2026-05-01T13:47:23Z</time></trkpt><trkpt lat="43.73412881928192" lon="7.374127979556529"><ele>525.75</ele><time>2026-05-01T13:47:24Z</time></trkpt><trkpt lat="43.734177973795276" lon="7.374309203124185"><ele>520.5</ele><time>2026-05-01T13:47:25Z</time></trkpt><trkpt lat="43.734223180836295" lon="7.374490554869041"><ele>515.25</ele><time>2026-05-01T13:47:26Z</time></trkpt><trkpt lat="43.73426270311056" lon="7.374678209781113"><ele>510.0</ele><time>2026-05-01T13:47:27Z</time></trkpt><trkpt lat="43.734291875495536" lon="7.374871527390448"><ele>509.25</ele><time>2026-05-01T13:47:28Z</time></trkpt><trkpt lat="43.73431201456901" lon="7.375068538433573"><ele>508.5</ele><time>2026-05-01T13:47:29Z</time></trkpt><trkpt lat="43.73430484120334" lon="7.375269658715189"><ele>507.75</ele><time>2026-05-01T13:47:30Z</time></trkpt><trkpt lat="43.73430675070874" lon="7.375469347260882"><ele>507.0</ele><time>2026-05-01T13:47:31Z</time></trkpt><trkpt lat="43.7343214889483" lon="7.375670492990136"><ele>506.25</ele><time>2026-05-01T13:47:32Z</time></trkpt><trkpt lat="43.734297403231146" lon="7.375867594251075"><ele>505.5</ele><time>2026-05-01T13:47:33Z</time></trkpt><trkpt lat="43.73428794613851" lon="7.376062878300871"><ele>504.75</ele><time>2026-05-01T13:47:34Z</time></trkpt><trkpt lat="43.73427702431267" lon="7.376248307707835"><ele>504.0</ele><time>2026-05-01T13:47:35Z</time></trkpt><trkpt lat="43.7342671972122" lon="7.376428586740193"><ele>504.0</ele><time>2026-05-01T13:47:36Z</time></trkpt><trkpt lat="43.7342774854241" lon="7.376603516913561"><ele>504.0</ele><time>2026-05-01T13:47:37Z</time></trkpt><trkpt lat="43.73428543644087" lon="7.376769901219862"><ele>504.0</ele><time>2026-05-01T13:47:38Z</time></trkpt><trkpt lat="43.73431938759916" lon="7.3769408410487705"><ele>504.0</ele><time>2026-05-01T13:47:39Z</time></trkpt><trkpt lat="43.734372167514685" lon="7.377115736911016"><ele>520.0</ele><time>2026-05-01T13:47:40Z</time></trkpt><trkpt lat="43.73441132977764" lon="7.377299752394438"><ele>536.0</ele><time>2026-05-01T13:47:41Z</time></trkpt><trkpt lat="43.73445971138173" lon="7.377485063146842"><ele>552.0</ele><time>2026-05-01T13:47:42Z</time></trkpt><trkpt lat="43.73450690946435" lon="7.377669445991314"><ele>568.0</ele><time>2026-05-01T13:47:43Z</time></trkpt><trkpt lat="43.73456673513146" lon="7.377845181175018"><ele>561.5</ele><time>2026-05-01T13:47:44Z</time></trkpt><trkpt lat="43.734595998816125" lon="7.378032740787503"><ele>555.0</ele><time>2026-05-01T13:47:45Z</time></trkpt><trkpt lat="43.7346390295252" lon="7.378212099505903"><ele>548.5</ele><time>2026-05-01T13:47:46Z</time></trkpt><trkpt lat="43.73468319864656" lon="7.378394221077938"><ele>542.0</ele><time>2026-05-01T13:47:47Z</time></trkpt><trkpt lat="43.7347271605201" lon="7.378568225015179"><ele>542.0</ele><time>2026-05-01T13:47:48Z</time></trkpt><trkpt lat="43.73478827724975" lon="7.37873401825189"><ele>542.0</ele><time>2026-05-01T13:47:49Z</time></trkpt><trkpt lat="43.73483887053458" lon="7.378900242532982"><ele>542.0</ele><time>2026-05-01T13:47:50Z</time></trkpt><trkpt lat="43.73490551943535" lon="7.379055697540614"><ele>542.0</ele><time>2026-05-01T13:47:51Z</time></trkpt><trkpt lat="43.734984073143416" lon="7.379202855602049"><ele>542.5</ele><time>2026-05-01T13:47:52Z</time></trkpt><trkpt lat="43.73507149312073" lon="7.379340792213369"><ele>543.0</ele><time>2026-05-01T13:47:53Z</time></trkpt><trkpt lat="43.73516036438813" lon="7.379481795453162"><ele>543.5</ele><time>2026-05-01T13:47:54Z</time></trkpt><trkpt lat="43.73525324902571" lon="7.37961870615093"><ele>544.0</ele><time>2026-05-01T13:47:55Z</time></trkpt><trkpt lat="43.73534228326762" lon="7.379759994347281"><ele>544.0</ele><time>2026-05-01T13:47:56Z</time></trkpt><trkpt lat="43.735427660240035" lon="7.379901432426144"><ele>544.0</ele><time>2026-05-01T13:47:57Z</time></trkpt><trkpt lat="43.73551214407989" lon="7.380045962756323"><ele>544.0</ele><time>2026-05-01T13:47:58Z</time></trkpt><trkpt lat="43.735602823068305" lon="7.380184033452134"><ele>544.0</ele><time>2026-05-01T13:47:59Z</time></trkpt><trkpt lat="43.73567628705168" lon="7.380337691115556"><ele>544.0</ele><time>2026-05-01T13:48:00Z</time></trkpt><trkpt lat="43.73576242638833" lon="7.380471649979286"><ele>544.0</ele><time>2026-05-01T13:48:01Z</time></trkpt><trkpt lat="43.735807274499635" lon="7.380644137821039"><ele>544.0</ele><time>2026-05-01T13:48:02Z</time></trkpt><trkpt lat="43.73585343001732" lon="7.380815007571922"><ele>544.0</ele><time>2026-05-01T13:48:03Z</time></trkpt><trkpt lat="43.7359100186278" lon="7.380989509568005"><ele>536.75</ele><time>2026-05-01T13:48:04Z</time></trkpt><trkpt lat="43.73594166638352" lon="7.381177914442909"><ele>529.5</ele><time>2026-05-01T13:48:05Z</time></trkpt><trkpt lat="43.73595001893766" lon="7.381377681793456"><ele>522.25</ele><time>2026-05-01T13:48:06Z</time></trkpt><trkpt lat="43.735965852350695" lon="7.3815669089036495"><ele>515.0</ele><time>2026-05-01T13:48:07Z</time></trkpt><trkpt lat="43.73599771568249" lon="7.38175039619905"><ele>509.75</ele><time>2026-05-01T13:48:08Z</time></trkpt><trkpt lat="43.736018700102576" lon="7.381939617113912"><ele>504.5</ele><time>2026-05-01T13:48:09Z</time></trkpt><trkpt lat="43.73605016126509" lon="7.382128977137451"><ele>499.25</ele><time>2026-05-01T13:48:10Z</time></trkpt><trkpt lat="43.736087806070806" lon="7.382323234871927"><ele>494.0</ele><time>2026-05-01T13:48:11Z</time></trkpt><trkpt lat="43.736126341282684" lon="7.382515182300665"><ele>499.75</ele><time>2026-05-01T13:48:12Z</time></trkpt><trkpt lat="43.736167166042385" lon="7.382708775266234"><ele>505.5</ele><time>2026-05-01T13:48:13Z</time></trkpt><trkpt lat="43.736206324838065" lon="7.382895549613844"><ele>511.25</ele><time>2026-05-01T13:48:14Z</time></trkpt><trkpt lat="43.73624081728976" lon="7.383074083585231"><ele>517.0</ele><time>2026-05-01T13:48:15Z</time></trkpt><trkpt lat="43.736274387236364" lon="7.383249466433405"><ele>517.0</ele><time>2026-05-01T13:48:16Z</time></trkpt><trkpt lat="43.73632761954746" lon="7.383428845224905"><ele>517.0</ele><time>2026-05-01T13:48:17Z</time></trkpt><trkpt lat="43.736405528143145" lon="7.383604432891504"><ele>517.0</ele><time>2026-05-01T13:48:18.001Z</time></trkpt><trkpt lat="43.73649499634634" lon="7.383772142879546"><ele>517.0</ele><time>2026-05-01T13:48:19.001Z</time></trkpt><trkpt lat="43.736585995757885" lon="7.3839380734186415"><ele>506.33333333333337</ele><time>2026-05-01T13:48:20.001Z</time></trkpt><trkpt lat="43.736679081945375" lon="7.384111435560882"><ele>495.66666666666663</ele><time>2026-05-01T13:48:21.001Z</time></trkpt><trkpt lat="43.7367733707957" lon="7.384282815584486"><ele>485.0</ele><time>2026-05-01T13:48:22.001Z</time></trkpt><trkpt lat="43.73686900169432" lon="7.384446892914513"><ele>489.5</ele><time>2026-05-01T13:48:23.001Z</time></trkpt><trkpt lat="43.736962313589494" lon="7.384599974274983"><ele>494.0</ele><time>2026-05-01T13:48:24.001Z</time></trkpt><trkpt lat="43.737062328458144" lon="7.38474700475325"><ele>498.5</ele><time>2026-05-01T13:48:25.001Z</time></trkpt><trkpt lat="43.73716903203567" lon="7.38489177193306"><ele>503.0</ele><time>2026-05-01T13:48:26Z</time></trkpt><trkpt lat="43.737274154857985" lon="7.385034529281477"><ele>503.0</ele><time>2026-05-01T13:48:27Z</time></trkpt><trkpt lat="43.73737999065454" lon="7.385179812858034"><ele>503.0</ele><time>2026-05-01T13:48:28Z</time></trkpt><trkpt lat="43.73748719096748" lon="7.385322615650444"><ele>503.0</ele><time>2026-05-01T13:48:29Z</time></trkpt><trkpt lat="43.73759239928073" lon="7.385454530638956"><ele>503.0</ele><time>2026-05-01T13:48:30Z</time></trkpt><trkpt lat="43.73769742353355" lon="7.385585027902952"><ele>508.0</ele><time>2026-05-01T13:48:31Z</time></trkpt><trkpt lat="43.73779510826094" lon="7.3857173228724085"><ele>513.0</ele><time>2026-05-01T13:48:32Z</time></trkpt><trkpt lat="43.73788890927091" lon="7.385855490057473"><ele>518.0</ele><time>2026-05-01T13:48:33Z</time></trkpt><trkpt lat="43.737979333574316" lon="7.38599072297121"><ele>523.0</ele><time>2026-05-01T13:48:34Z</time></trkpt><trkpt lat="43.738069679428" lon="7.3861298240904105"><ele>523.0</ele><time>2026-05-01T13:48:35Z</time></trkpt><trkpt lat="43.73814743090677" lon="7.386273845472552"><ele>523.0</ele><time>2026-05-01T13:48:36Z</time></trkpt><trkpt lat="43.73821076754589" lon="7.386425368646473"><ele>523.0</ele><time>2026-05-01T13:48:37Z</time></trkpt><trkpt lat="43.73826192929676" lon="7.386575203588437"><ele>523.0</ele><time>2026-05-01T13:48:38Z</time></trkpt><trkpt lat="43.73829860084442" lon="7.386733698152106"><ele>517.5</ele><time>2026-05-01T13:48:39Z</time></trkpt><trkpt lat="43.73832640711578" lon="7.386906528581923"><ele>512.0</ele><time>2026-05-01T13:48:40Z</time></trkpt><trkpt lat="43.738350531023556" lon="7.387090204985812"><ele>506.5</ele><time>2026-05-01T13:48:41Z</time></trkpt><trkpt lat="43.73837468013613" lon="7.387274718379948"><ele>501.0</ele><time>2026-05-01T13:48:42Z</time></trkpt><trkpt lat="43.73839703561846" lon="7.387459457684353"><ele>496.5</ele><time>2026-05-01T13:48:43Z</time></trkpt><trkpt lat="43.7384224140145" lon="7.387647497145784"><ele>492.0</ele><time>2026-05-01T13:48:44Z</time></trkpt><trkpt lat="43.738444623585345" lon="7.387830676223318"><ele>487.5</ele><time>2026-05-01T13:48:45Z</time></trkpt><trkpt lat="43.738456277239344" lon="7.388010742417906"><ele>483.0</ele><time>2026-05-01T13:48:46Z</time></trkpt><trkpt lat="43.73849749358798" lon="7.388178115096079"><ele>481.25</ele><time>2026-05-01T13:48:47Z</time></trkpt><trkpt lat="43.73852178970452" lon="7.3883506543855235"><ele>479.5</ele><time>2026-05-01T13:48:48Z</time></trkpt><trkpt lat="43.7385469058772" lon="7.388520812369506"><ele>477.75</ele><time>2026-05-01T13:48:49Z</time></trkpt><trkpt lat="43.73857153320603" lon="7.388695178711894"><ele>476.0</ele><time>2026-05-01T13:48:50Z</time></trkpt><trkpt lat="43.73859160348635" lon="7.388861733982421"><ele>483.0</ele><time>2026-05-01T13:48:51Z</time></trkpt><trkpt lat="43.73862103899651" lon="7.389024402148254"><ele>490.0</ele><time>2026-05-01T13:48:52Z</time></trkpt><trkpt lat="43.738666013888604" lon="7.389173830131083"><ele>497.0</ele><time>2026-05-01T13:48:53Z</time></trkpt><trkpt lat="43.73873429388847" lon="7.389302393830753"><ele>504.0</ele><time>2026-05-01T13:48:54Z</time></trkpt><trkpt lat="43.73883277328002" lon="7.389407877839734"><ele>504.0</ele><time>2026-05-01T13:48:55Z</time></trkpt><trkpt lat="43.73894902724365" lon="7.389495744629615"><ele>504.0</ele><time>2026-05-01T13:48:56Z</time></trkpt><trkpt lat="43.73907279977396" lon="7.389582332782659"><ele>504.0</ele><time>2026-05-01T13:48:57Z</time></trkpt><trkpt lat="43.739201193741636" lon="7.389680261740253"><ele>504.0</ele><time>2026-05-01T13:48:58Z</time></trkpt><trkpt lat="43.739324691565606" lon="7.389768052772256"><ele>502.25</ele><time>2026-05-01T13:48:59Z</time></trkpt><trkpt lat="43.73945026308041" lon="7.389859361129886"><ele>500.5</ele><time>2026-05-01T13:49:00Z</time></trkpt><trkpt lat="43.73957810363574" lon="7.389945275631715"><ele>498.75</ele><time>2026-05-01T13:49:01Z</time></trkpt><trkpt lat="43.739707753847085" lon="7.390029876048761"><ele>497.0</ele><time>2026-05-01T13:49:02Z</time></trkpt><trkpt lat="43.73983205133878" lon="7.390114882241081"><ele>497.0</ele><time>2026-05-01T13:49:03Z</time></trkpt><trkpt lat="43.73995868154692" lon="7.390195466941525"><ele>497.0</ele><time>2026-05-01T13:49:04Z</time></trkpt><trkpt lat="43.74009168648179" lon="7.390271893820673"><ele>497.0</ele><time>2026-05-01T13:49:05Z</time></trkpt><trkpt lat="43.7402185583449" lon="7.3903441978018245"><ele>497.0</ele><time>2026-05-01T13:49:06Z</time></trkpt><trkpt lat="43.74034763412341" lon="7.390412031021752"><ele>501.5</ele><time>2026-05-01T13:49:07Z</time></trkpt><trkpt lat="43.74047693179988" lon="7.390478474777156"><ele>506.0</ele><time>2026-05-01T13:49:08Z</time></trkpt><trkpt lat="43.74060333225871" lon="7.390540411161894"><ele>510.5</ele><time>2026-05-01T13:49:09Z</time></trkpt><trkpt lat="43.740722086905066" lon="7.390595398015604"><ele>515.0</ele><time>2026-05-01T13:49:10Z</time></trkpt><trkpt lat="43.7408418115752" lon="7.3906516728869995"><ele>508.75</ele><time>2026-05-01T13:49:11Z</time></trkpt><trkpt lat="43.74096387257722" lon="7.390694710702014"><ele>502.5</ele><time>2026-05-01T13:49:12Z</time></trkpt><trkpt lat="43.74108550564264" lon="7.390737959217291"><ele>496.25</ele><time>2026-05-01T13:49:13Z</time></trkpt><trkpt lat="43.74120257538038" lon="7.390777490593955"><ele>490.0</ele><time>2026-05-01T13:49:14Z</time></trkpt><trkpt lat="43.74132084253396" lon="7.390814236313843"><ele>490.0</ele><time>2026-05-01T13:49:15Z</time></trkpt><trkpt lat="43.741434270736775" lon="7.390850505674888"><ele>490.0</ele><time>2026-05-01T13:49:16Z</time></trkpt><trkpt lat="43.741543937867206" lon="7.390893914593367"><ele>490.0</ele><time>2026-05-01T13:49:17Z</time></trkpt><trkpt lat="43.74164663434082" lon="7.390931700961342"><ele>490.0</ele><time>2026-05-01T13:49:18Z</time></trkpt><trkpt lat="43.741741453565254" lon="7.3909685548122175"><ele>490.0</ele><time>2026-05-01T13:49:19Z</time></trkpt><trkpt lat="43.74183730688939" lon="7.391001017513128"><ele>490.8</ele><time>2026-05-01T13:49:20Z</time></trkpt><trkpt lat="43.741940911162935" lon="7.391039794568386"><ele>491.6</ele><time>2026-05-01T13:49:21Z</time></trkpt><trkpt lat="43.74204149634533" lon="7.391082041942641"><ele>492.4</ele><time>2026-05-01T13:49:22Z</time></trkpt><trkpt lat="43.742143056336815" lon="7.391119643485382"><ele>493.2</ele><time>2026-05-01T13:49:23Z</time></trkpt><trkpt lat="43.74224233040699" lon="7.391157166693546"><ele>494.0</ele><time>2026-05-01T13:49:24Z</time></trkpt><trkpt lat="43.74234685743678" lon="7.391199506238823"><ele>494.0</ele><time>2026-05-01T13:49:25Z</time></trkpt><trkpt lat="43.74244591983229" lon="7.391258511275025"><ele>494.0</ele><time>2026-05-01T13:49:26Z</time></trkpt><trkpt lat="43.74252841708396" lon="7.391356155599467"><ele>494.0</ele><time>2026-05-01T13:49:27Z</time></trkpt><trkpt lat="43.742604447349414" lon="7.391459336578114"><ele>494.0</ele><time>2026-05-01T13:49:28Z</time></trkpt><trkpt lat="43.74267548966024" lon="7.391574800388832"><ele>494.0</ele><time>2026-05-01T13:49:29Z</time></trkpt><trkpt lat="43.742746086196526" lon="7.391697928222612"><ele>488.75</ele><time>2026-05-01T13:49:30Z</time></trkpt><trkpt lat="43.742828799432665" lon="7.391811646630281"><ele>483.5</ele><time>2026-05-01T13:49:31Z</time></trkpt><trkpt lat="43.742895258717816" lon="7.391941638573816"><ele>478.25</ele><time>2026-05-01T13:49:32Z</time></trkpt><trkpt lat="43.74296939429189" lon="7.392070638340375"><ele>473.0</ele><time>2026-05-01T13:49:33Z</time></trkpt><trkpt lat="43.74304020230095" lon="7.3921892823846225"><ele>472.0</ele><time>2026-05-01T13:49:34Z</time></trkpt><trkpt lat="43.74310265566488" lon="7.392305303245138"><ele>470.99999999999994</ele><time>2026-05-01T13:49:35Z</time></trkpt><trkpt lat="43.743160058209796" lon="7.392412829724"><ele>469.99999999999994</ele><time>2026-05-01T13:49:36Z</time></trkpt><trkpt lat="43.7432213238628" lon="7.392519883621302"><ele>469.0</ele><time>2026-05-01T13:49:37Z</time></trkpt><trkpt lat="43.74328642200551" lon="7.392632832233747"><ele>468.0</ele><time>2026-05-01T13:49:38Z</time></trkpt><trkpt lat="43.743350509376015" lon="7.392751911729246"><ele>468.0</ele><time>2026-05-01T13:49:39Z</time></trkpt><trkpt lat="43.74341599515517" lon="7.392871127608543"><ele>467.99999999999994</ele><time>2026-05-01T13:49:40Z</time></trkpt><trkpt lat="43.743484324724626" lon="7.392986827082051"><ele>467.99999999999994</ele><time>2026-05-01T13:49:41Z</time></trkpt><trkpt lat="43.743552649946714" lon="7.393107645585839"><ele>468.0</ele><time>2026-05-01T13:49:42Z</time></trkpt><trkpt lat="43.743620651916295" lon="7.393230159824711"><ele>468.0</ele><time>2026-05-01T13:49:43Z</time></trkpt><trkpt lat="43.743691102355285" lon="7.393344260942773"><ele>465.75</ele><time>2026-05-01T13:49:44Z</time></trkpt><trkpt lat="43.74376504834541" lon="7.393457751120312"><ele>463.5</ele><time>2026-05-01T13:49:45Z</time></trkpt><trkpt lat="43.74384426944195" lon="7.393566399322914"><ele>461.25</ele><time>2026-05-01T13:49:46Z</time></trkpt><trkpt lat="43.743932850502006" lon="7.393669019503181"><ele>459.0</ele><time>2026-05-01T13:49:47Z</time></trkpt><trkpt lat="43.74402672108212" lon="7.393767307410217"><ele>459.6</ele><time>2026-05-01T13:49:48Z</time></trkpt><trkpt lat="43.744116061360295" lon="7.393857427790377"><ele>460.2</ele><time>2026-05-01T13:49:49Z</time></trkpt><trkpt lat="43.74420303992829" lon="7.393948172092922"><ele>460.80000000000007</ele><time>2026-05-01T13:49:50Z</time></trkpt><trkpt lat="43.74428962083993" lon="7.39404212337899"><ele>461.40000000000003</ele><time>2026-05-01T13:49:51Z</time></trkpt><trkpt lat="43.74437234380004" lon="7.394130109606372"><ele>462.0</ele><time>2026-05-01T13:49:52Z</time></trkpt><trkpt lat="43.74444995017091" lon="7.39421098138519"><ele>462.0</ele><time>2026-05-01T13:49:53Z</time></trkpt><trkpt lat="43.744523830143066" lon="7.394279203922308"><ele>462.0</ele><time>2026-05-01T13:49:54Z</time></trkpt><trkpt lat="43.744589342801426" lon="7.394336218857185"><ele>462.0</ele><time>2026-05-01T13:49:55Z</time></trkpt><trkpt lat="43.74465232913056" lon="7.39439713602941"><ele>462.0</ele><time>2026-05-01T13:49:56Z</time></trkpt><trkpt lat="43.744719772908674" lon="7.39447019579903"><ele>462.0</ele><time>2026-05-01T13:49:57Z</time></trkpt><trkpt lat="43.74479327276026" lon="7.394556592123401"><ele>462.0</ele><time>2026-05-01T13:49:58Z</time></trkpt><trkpt lat="43.74486755509902" lon="7.394654425393959"><ele>461.8</ele><time>2026-05-01T13:49:59Z</time></trkpt><trkpt lat="43.74494385116601" lon="7.394757707589021"><ele>461.6</ele><time>2026-05-01T13:50:00Z</time></trkpt><trkpt lat="43.74502858745542" lon="7.39485318850564"><ele>461.40000000000003</ele><time>2026-05-01T13:50:01Z</time></trkpt><trkpt lat="43.74510997364491" lon="7.394954680025694"><ele>461.20000000000005</ele><time>2026-05-01T13:50:02Z</time></trkpt><trkpt lat="43.745181021311446" lon="7.395071843319157"><ele>461.0</ele><time>2026-05-01T13:50:03Z</time></trkpt><trkpt lat="43.74525416705666" lon="7.395191735472262"><ele>466.0</ele><time>2026-05-01T13:50:04Z</time></trkpt><trkpt lat="43.74533105805177" lon="7.395317836869271"><ele>471.0</ele><time>2026-05-01T13:50:05Z</time></trkpt><trkpt lat="43.74539717181396" lon="7.395455649494111"><ele>476.0</ele><time>2026-05-01T13:50:06Z</time></trkpt><trkpt lat="43.74546227050008" lon="7.395610199947977"><ele>481.0</ele><time>2026-05-01T13:50:07Z</time></trkpt><trkpt lat="43.74552148825862" lon="7.395767115208063"><ele>481.0</ele><time>2026-05-01T13:50:08Z</time></trkpt><trkpt lat="43.74556891009385" lon="7.395918542155271"><ele>481.0</ele><time>2026-05-01T13:50:09Z</time></trkpt><trkpt lat="43.74560972144473" lon="7.396073326186212"><ele>481.0</ele><time>2026-05-01T13:50:10Z</time></trkpt><trkpt lat="43.74564335467792" lon="7.396221046626007"><ele>481.0</ele><time>2026-05-01T13:50:11Z</time></trkpt><trkpt lat="43.745670475061516" lon="7.396374616192999"><ele>480.20000000000005</ele><time>2026-05-01T13:50:12Z</time></trkpt><trkpt lat="43.74567346082228" lon="7.39652310469226"><ele>479.40000000000003</ele><time>2026-05-01T13:50:13Z</time></trkpt><trkpt lat="43.745688966066936" lon="7.396664887551154"><ele>478.6</ele><time>2026-05-01T13:50:14Z</time></trkpt><trkpt lat="43.745701428471754" lon="7.3968107989480485"><ele>477.8</ele><time>2026-05-01T13:50:15Z</time></trkpt><trkpt lat="43.7457119192889" lon="7.396953543230489"><ele>477.0</ele><time>2026-05-01T13:50:16Z</time></trkpt><trkpt lat="43.745720074722044" lon="7.397088185950473"><ele>477.1666666666667</ele><time>2026-05-01T13:50:17Z</time></trkpt><trkpt lat="43.745725529208066" lon="7.397216206924558"><ele>477.33333333333337</ele><time>2026-05-01T13:50:18Z</time></trkpt><trkpt lat="43.745745754014436" lon="7.397336689299879"><ele>477.5</ele><time>2026-05-01T13:50:19Z</time></trkpt><trkpt lat="43.74574740776369" lon="7.397451188774086"><ele>477.6666666666667</ele><time>2026-05-01T13:50:20Z</time></trkpt><trkpt lat="43.74574807567569" lon="7.397557851414901"><ele>477.83333333333337</ele><time>2026-05-01T13:50:21Z</time></trkpt><trkpt lat="43.74574497474224" lon="7.397671099418898"><ele>478.0</ele><time>2026-05-01T13:50:22Z</time></trkpt><trkpt lat="43.74573256969436" lon="7.3977867914257045"><ele>478.00000000000006</ele><time>2026-05-01T13:50:23Z</time></trkpt><trkpt lat="43.745682126403935" lon="7.397894023697192"><ele>478.0</ele><time>2026-05-01T13:50:24Z</time></trkpt><trkpt lat="43.745651757013746" lon="7.398005620351427"><ele>478.0</ele><time>2026-05-01T13:50:25Z</time></trkpt><trkpt lat="43.745618129201546" lon="7.398118574466625"><ele>478.0</ele><time>2026-05-01T13:50:26Z</time></trkpt><trkpt lat="43.74557541644096" lon="7.398224087633046"><ele>478.00000000000006</ele><time>2026-05-01T13:50:27Z</time></trkpt><trkpt lat="43.745526598641334" lon="7.398327018155825"><ele>478.0</ele><time>2026-05-01T13:50:28Z</time></trkpt><trkpt lat="43.74547798844092" lon="7.398426978819385"><ele>478.83333333333337</ele><time>2026-05-01T13:50:29Z</time></trkpt><trkpt lat="43.74543182933928" lon="7.398526731127633"><ele>479.6666666666667</ele><time>2026-05-01T13:50:30Z</time></trkpt><trkpt lat="43.74540311303572" lon="7.398632426410069"><ele>480.5</ele><time>2026-05-01T13:50:31Z</time></trkpt><trkpt lat="43.74539051110959" lon="7.398743375409739"><ele>481.33333333333337</ele><time>2026-05-01T13:50:32Z</time></trkpt><trkpt lat="43.7453828090197" lon="7.398849848514785"><ele>482.1666666666667</ele><time>2026-05-01T13:50:33Z</time></trkpt><trkpt lat="43.74537902723785" lon="7.398963418142675"><ele>483.0</ele><time>2026-05-01T13:50:34Z</time></trkpt><trkpt lat="43.74537815067576" lon="7.399071415572961"><ele>483.8333333333333</ele><time>2026-05-01T13:50:35Z</time></trkpt><trkpt lat="43.74538353732323" lon="7.399187634497249"><ele>484.66666666666663</ele><time>2026-05-01T13:50:36Z</time></trkpt><trkpt lat="43.74539111007672" lon="7.399305860601945"><ele>485.5</ele><time>2026-05-01T13:50:37Z</time></trkpt><trkpt lat="43.745397655886975" lon="7.399416093084758"><ele>486.3333333333333</ele><time>2026-05-01T13:50:38Z</time></trkpt><trkpt lat="43.745404058444535" lon="7.399531136608233"><ele>487.16666666666663</ele><time>2026-05-01T13:50:39Z</time></trkpt><trkpt lat="43.74540974662169" lon="7.399631785226399"><ele>488.0</ele><time>2026-05-01T13:50:40Z</time></trkpt><trkpt lat="43.745415173330265" lon="7.399719641520924"><ele>488.0</ele><time>2026-05-01T13:50:41Z</time></trkpt><trkpt lat="43.74542249272375" lon="7.399838139937792"><ele>487.99999999999994</ele><time>2026-05-01T13:50:43Z</time></trkpt><trkpt lat="43.74543044704982" lon="7.3999440183259155"><ele>487.99999999999994</ele><time>2026-05-01T13:50:46Z</time></trkpt><trkpt lat="43.74544068812387" lon="7.400048069213941"><ele>488.0</ele><time>2026-05-01T13:50:48Z</time></trkpt><trkpt lat="43.745478854425265" lon="7.400205294433097"><ele>488.0</ele><time>2026-05-01T13:50:50Z</time></trkpt><trkpt lat="43.745534742562796" lon="7.400345860098361"><ele>488.0</ele><time>2026-05-01T13:50:52Z</time></trkpt><trkpt lat="43.7456040883359" lon="7.400464067219196"><ele>487.99999999999994</ele><time>2026-05-01T13:50:54Z</time></trkpt><trkpt lat="43.74569655233514" lon="7.400541962398462"><ele>487.99999999999994</ele><time>2026-05-01T13:50:56Z</time></trkpt><trkpt lat="43.74577934125034" lon="7.400622871184055"><ele>488.0</ele><time>2026-05-01T13:50:58Z</time></trkpt><trkpt lat="43.74587126460876" lon="7.400681714503905"><ele>488.0</ele><time>2026-05-01T13:51:00Z</time></trkpt><trkpt lat="43.74595176002189" lon="7.400746883951418"><ele>487.4</ele><time>2026-05-01T13:51:02Z</time></trkpt><trkpt lat="43.746066958417444" lon="7.4007784521696625"><ele>486.79999999999995</ele><time>2026-05-01T13:51:04Z</time></trkpt><trkpt lat="43.74612893368798" lon="7.400795421450685"><ele>486.2</ele><time>2026-05-01T13:51:05Z</time></trkpt><trkpt lat="43.746237450141486" lon="7.400826932169493"><ele>485.6</ele><time>2026-05-01T13:51:07Z</time></trkpt><trkpt lat="43.74633335410373" lon="7.400863314303995"><ele>485.0</ele><time>2026-05-01T13:51:09Z</time></trkpt><trkpt lat="43.74640410880344" lon="7.400887460280004"><ele>484.99999999999994</ele><time>2026-05-01T13:51:11Z</time></trkpt><trkpt lat="43.74645970977223" lon="7.400942294791858"><ele>485.0</ele><time>2026-05-01T13:51:13Z</time></trkpt><trkpt lat="43.746536155946934" lon="7.400984255734361"><ele>485.0</ele><time>2026-05-01T13:51:16Z</time></trkpt><trkpt lat="43.74664605025234" lon="7.40098155228784"><ele>485.0</ele><time>2026-05-01T13:51:18Z</time></trkpt><trkpt lat="43.74671130895329" lon="7.401046230296788"><ele>484.99999999999994</ele><time>2026-05-01T13:51:19Z</time></trkpt><trkpt lat="43.746789479344315" lon="7.401086850309758"><ele>485.0</ele><time>2026-05-01T13:51:20Z</time></trkpt><trkpt lat="43.74685977701781" lon="7.4011321813752495"><ele>487.49999999999994</ele><time>2026-05-01T13:51:21Z</time></trkpt><trkpt lat="43.74693775305499" lon="7.401178233137956"><ele>490.0</ele><time>2026-05-01T13:51:22Z</time></trkpt><trkpt lat="43.747018052858344" lon="7.401217224406317"><ele>492.5</ele><time>2026-05-01T13:51:23Z</time></trkpt><trkpt lat="43.74710507011767" lon="7.4012408745299485"><ele>495.0</ele><time>2026-05-01T13:51:24Z</time></trkpt><trkpt lat="43.74719308950597" lon="7.401254246304608"><ele>497.49999999999994</ele><time>2026-05-01T13:51:25Z</time></trkpt><trkpt lat="43.74727225199127" lon="7.401258529991227"><ele>500.0</ele><time>2026-05-01T13:51:26Z</time></trkpt><trkpt lat="43.74734177212867" lon="7.401262579444271"><ele>500.0</ele><time>2026-05-01T13:51:27Z</time></trkpt><trkpt lat="43.7474056357489" lon="7.401302029255233"><ele>500.0</ele><time>2026-05-01T13:51:28Z</time></trkpt><trkpt lat="43.74747161084033" lon="7.401309626343473"><ele>500.0</ele><time>2026-05-01T13:51:29Z</time></trkpt><trkpt lat="43.7475429378256" lon="7.401318547855512"><ele>500.0</ele><time>2026-05-01T13:51:30Z</time></trkpt><trkpt lat="43.74760953598157" lon="7.401305154054803"><ele>500.0</ele><time>2026-05-01T13:51:31Z</time></trkpt><trkpt lat="43.74767805167636" lon="7.4013134825506155"><ele>500.0</ele><time>2026-05-01T13:51:32Z</time></trkpt><trkpt lat="43.74774763271936" lon="7.401325388776324"><ele>500.0</ele><time>2026-05-01T13:51:33Z</time></trkpt><trkpt lat="43.74781745239075" lon="7.4013250074038"><ele>498.99999999999994</ele><time>2026-05-01T13:51:34Z</time></trkpt><trkpt lat="43.747886509539015" lon="7.4013347338798825"><ele>498.0</ele><time>2026-05-01T13:51:35Z</time></trkpt><trkpt lat="43.74796135338346" lon="7.401356065302448"><ele>497.0</ele><time>2026-05-01T13:51:36Z</time></trkpt><trkpt lat="43.74803821031516" lon="7.401398579279578"><ele>496.0</ele><time>2026-05-01T13:51:37Z</time></trkpt><trkpt lat="43.748114471655725" lon="7.401444291665447"><ele>494.99999999999994</ele><time>2026-05-01T13:51:38Z</time></trkpt><trkpt lat="43.748184831920305" lon="7.401518152071189"><ele>494.0</ele><time>2026-05-01T13:51:39Z</time></trkpt><trkpt lat="43.74827800782252" lon="7.401549028626749"><ele>493.99999999999994</ele><time>2026-05-01T13:51:40Z</time></trkpt><trkpt lat="43.74835343360411" lon="7.4015838774631595"><ele>494.0</ele><time>2026-05-01T13:51:41Z</time></trkpt><trkpt lat="43.74842535370411" lon="7.4016036525695155"><ele>494.0</ele><time>2026-05-01T13:51:42Z</time></trkpt><trkpt lat="43.74850195897413" lon="7.401619284783665"><ele>494.0</ele><time>2026-05-01T13:51:43Z</time></trkpt><trkpt lat="43.74857196984231" lon="7.401672797333554"><ele>493.99999999999994</ele><time>2026-05-01T13:51:44Z</time></trkpt><trkpt lat="43.74865096763488" lon="7.401694145770866"><ele>494.0</ele><time>2026-05-01T13:51:45Z</time></trkpt><trkpt lat="43.74872583264893" lon="7.401712517182313"><ele>496.66666666666663</ele><time>2026-05-01T13:51:46Z</time></trkpt><trkpt lat="43.74879872123443" lon="7.401729497715111"><ele>499.3333333333333</ele><time>2026-05-01T13:51:47Z</time></trkpt><trkpt lat="43.74886238105186" lon="7.401743691128331"><ele>502.0</ele><time>2026-05-01T13:51:48Z</time></trkpt><trkpt lat="43.74897283305448" lon="7.401761593656717"><ele>504.66666666666663</ele><time>2026-05-01T13:51:50Z</time></trkpt><trkpt lat="43.74906090917528" lon="7.401791125125636"><ele>507.3333333333333</ele><time>2026-05-01T13:51:52Z</time></trkpt><trkpt lat="43.749134058589945" lon="7.401808741503485"><ele>510.0</ele><time>2026-05-01T13:51:54Z</time></trkpt><trkpt lat="43.74922530027112" lon="7.40182763381296"><ele>510.0</ele><time>2026-05-01T13:51:56Z</time></trkpt><trkpt lat="43.74930349847787" lon="7.401835034249898"><ele>510.0</ele><time>2026-05-01T13:51:58Z</time></trkpt><trkpt lat="43.749397680127785" lon="7.401873409496588"><ele>510.0</ele><time>2026-05-01T13:52:00Z</time></trkpt><trkpt lat="43.74950160045435" lon="7.401900831689653"><ele>510.0</ele><time>2026-05-01T13:52:02Z</time></trkpt><trkpt lat="43.749618099701856" lon="7.40191943978045"><ele>510.0</ele><time>2026-05-01T13:52:04Z</time></trkpt><trkpt lat="43.74973408644549" lon="7.401928717707007"><ele>511.8</ele><time>2026-05-01T13:52:06Z</time></trkpt><trkpt lat="43.74984168541364" lon="7.401913205798029"><ele>513.6</ele><time>2026-05-01T13:52:08Z</time></trkpt><trkpt lat="43.749969002927806" lon="7.40192806700078"><ele>515.4</ele><time>2026-05-01T13:52:10Z</time></trkpt><trkpt lat="43.75003948294501" lon="7.401931617088904"><ele>517.2</ele><time>2026-05-01T13:52:11Z</time></trkpt><trkpt lat="43.75011836814481" lon="7.401931130474786"><ele>519.0</ele><time>2026-05-01T13:52:12Z</time></trkpt><trkpt lat="43.75020156458063" lon="7.401931811397899"><ele>523.3333333333334</ele><time>2026-05-01T13:52:13Z</time></trkpt><trkpt lat="43.7502922777053" lon="7.401935713225276"><ele>527.6666666666666</ele><time>2026-05-01T13:52:14Z</time></trkpt><trkpt lat="43.75037607855551" lon="7.401938334137703"><ele>532.0</ele><time>2026-05-01T13:52:15Z</time></trkpt><trkpt lat="43.750459762193614" lon="7.401945637737266"><ele>536.3333333333333</ele><time>2026-05-01T13:52:16Z</time></trkpt><trkpt lat="43.75054313754076" lon="7.401959177633649"><ele>540.6666666666666</ele><time>2026-05-01T13:52:17Z</time></trkpt><trkpt lat="43.750637370174694" lon="7.401983530441288"><ele>545.0</ele><time>2026-05-01T13:52:18Z</time></trkpt><trkpt lat="43.750726297393" lon="7.402015438232494"><ele>545.0</ele><time>2026-05-01T13:52:19Z</time></trkpt><trkpt lat="43.75081503565514" lon="7.402046000186215"><ele>545.0</ele><time>2026-05-01T13:52:20Z</time></trkpt><trkpt lat="43.750902329778015" lon="7.402065368931756"><ele>545.0</ele><time>2026-05-01T13:52:21Z</time></trkpt><trkpt lat="43.75097936383313" lon="7.402088232322572"><ele>545.0</ele><time>2026-05-01T13:52:22Z</time></trkpt><trkpt lat="43.751052774210535" lon="7.40211100529529"><ele>545.0</ele><time>2026-05-01T13:52:23Z</time></trkpt><trkpt lat="43.75112489816813" lon="7.402137541603308"><ele>545.0</ele><time>2026-05-01T13:52:24Z</time></trkpt><trkpt lat="43.75120239347442" lon="7.402174368039281"><ele>542.3333333333333</ele><time>2026-05-01T13:52:25Z</time></trkpt><trkpt lat="43.7512873250467" lon="7.402213013314406"><ele>539.6666666666666</ele><time>2026-05-01T13:52:26Z</time></trkpt><trkpt lat="43.75136236988218" lon="7.402243838132132"><ele>537.0</ele><time>2026-05-01T13:52:27Z</time></trkpt><trkpt lat="43.751438421835815" lon="7.402277348581174"><ele>534.3333333333334</ele><time>2026-05-01T13:52:28Z</time></trkpt><trkpt lat="43.75151895872851" lon="7.402320366249899"><ele>531.6666666666667</ele><time>2026-05-01T13:52:29Z</time></trkpt><trkpt lat="43.75160245441721" lon="7.402378816788797"><ele>529.0</ele><time>2026-05-01T13:52:30Z</time></trkpt><trkpt lat="43.75168536656366" lon="7.402455058298768"><ele>529.0</ele><time>2026-05-01T13:52:31Z</time></trkpt><trkpt lat="43.75176490692521" lon="7.402544364813685"><ele>529.0</ele><time>2026-05-01T13:52:32Z</time></trkpt><trkpt lat="43.75184182217124" lon="7.402639581670307"><ele>529.0</ele><time>2026-05-01T13:52:33Z</time></trkpt><trkpt lat="43.75191759739529" lon="7.402728489120754"><ele>529.0</ele><time>2026-05-01T13:52:34Z</time></trkpt><trkpt lat="43.75199194405221" lon="7.402816871599978"><ele>529.0</ele><time>2026-05-01T13:52:35Z</time></trkpt><trkpt lat="43.75206441757326" lon="7.402897461381119"><ele>529.2</ele><time>2026-05-01T13:52:36Z</time></trkpt><trkpt lat="43.752133451198624" lon="7.402974514540283"><ele>529.4</ele><time>2026-05-01T13:52:37Z</time></trkpt><trkpt lat="43.75220231380109" lon="7.403052236542611"><ele>529.6</ele><time>2026-05-01T13:52:38Z</time></trkpt><trkpt lat="43.75227177843604" lon="7.403131506422419"><ele>529.8</ele><time>2026-05-01T13:52:39Z</time></trkpt><trkpt lat="43.75234179325217" lon="7.403211021718613"><ele>530.0</ele><time>2026-05-01T13:52:40Z</time></trkpt><trkpt lat="43.752413285674415" lon="7.403293025479866"><ele>530.0</ele><time>2026-05-01T13:52:41Z</time></trkpt><trkpt lat="43.7524776091146" lon="7.403378898739771"><ele>530.0</ele><time>2026-05-01T13:52:42Z</time></trkpt><trkpt lat="43.75253602808853" lon="7.403484032688808"><ele>530.0</ele><time>2026-05-01T13:52:43Z</time></trkpt><trkpt lat="43.75256399072826" lon="7.403608821192655"><ele>530.0</ele><time>2026-05-01T13:52:44Z</time></trkpt><trkpt lat="43.75260223325161" lon="7.403733521569142"><ele>530.0</ele><time>2026-05-01T13:52:45Z</time></trkpt><trkpt lat="43.752633470410395" lon="7.40387028850156"><ele>527.8</ele><time>2026-05-01T13:52:46Z</time></trkpt><trkpt lat="43.75265661832926" lon="7.404010805899015"><ele>525.6</ele><time>2026-05-01T13:52:47Z</time></trkpt><trkpt lat="43.75268071707324" lon="7.404153792985375"><ele>523.4</ele><time>2026-05-01T13:52:48Z</time></trkpt><trkpt lat="43.75269607186826" lon="7.404303617080016"><ele>521.2</ele><time>2026-05-01T13:52:49Z</time></trkpt><trkpt lat="43.75271352905171" lon="7.404454608199873"><ele>519.0</ele><time>2026-05-01T13:52:50Z</time></trkpt><trkpt lat="43.75273114030147" lon="7.4046007656171575"><ele>527.6</ele><time>2026-05-01T13:52:51Z</time></trkpt><trkpt lat="43.75274487202114" lon="7.404742320147122"><ele>536.2</ele><time>2026-05-01T13:52:52Z</time></trkpt><trkpt lat="43.752749482002756" lon="7.404891628381124"><ele>544.8000000000001</ele><time>2026-05-01T13:52:53Z</time></trkpt><trkpt lat="43.752768888691136" lon="7.405034677114251"><ele>553.4</ele><time>2026-05-01T13:52:54Z</time></trkpt><trkpt lat="43.75278840685661" lon="7.405175023706243"><ele>562.0</ele><time>2026-05-01T13:52:55Z</time></trkpt><trkpt lat="43.75282468236437" lon="7.4053149193530485"><ele>562.0</ele><time>2026-05-01T13:52:56Z</time></trkpt><trkpt lat="43.752836165944906" lon="7.40546327098006"><ele>562.0</ele><time>2026-05-01T13:52:57Z</time></trkpt><trkpt lat="43.75284317093384" lon="7.405604208145236"><ele>562.0</ele><time>2026-05-01T13:52:58Z</time></trkpt><trkpt lat="43.75284653509751" lon="7.405743325123107"><ele>562.0</ele><time>2026-05-01T13:52:59Z</time></trkpt><trkpt lat="43.75284953558402" lon="7.405883913253924"><ele>562.0</ele><time>2026-05-01T13:53:00Z</time></trkpt><trkpt lat="43.75285943659948" lon="7.406025278309576"><ele>562.0</ele><time>2026-05-01T13:53:01Z</time></trkpt><trkpt lat="43.752864231200384" lon="7.406168384764955"><ele>562.0</ele><time>2026-05-01T13:53:02Z</time></trkpt><trkpt lat="43.75292137151494" lon="7.406296351029321"><ele>562.0</ele><time>2026-05-01T13:53:03Z</time></trkpt><trkpt lat="43.752972335913974" lon="7.406417955687768"><ele>562.0</ele><time>2026-05-01T13:53:04Z</time></trkpt><trkpt lat="43.753020054594515" lon="7.406544284215296"><ele>562.0</ele><time>2026-05-01T13:53:05Z</time></trkpt><trkpt lat="43.753049376697355" lon="7.406669616413313"><ele>561.8000000000001</ele><time>2026-05-01T13:53:06Z</time></trkpt><trkpt lat="43.75306193972426" lon="7.406789142704069"><ele>561.6</ele><time>2026-05-01T13:53:07Z</time></trkpt><trkpt lat="43.753044752603934" lon="7.4069156234271665"><ele>561.4000000000001</ele><time>2026-05-01T13:53:08Z</time></trkpt><trkpt lat="43.753061767061375" lon="7.407026956986069"><ele>561.2</ele><time>2026-05-01T13:53:09Z</time></trkpt><trkpt lat="43.75303825087441" lon="7.40711993465298"><ele>561.0</ele><time>2026-05-01T13:53:10Z</time></trkpt><trkpt lat="43.753052585645136" lon="7.4072804953899665"><ele>561.0</ele><time>2026-05-01T13:53:12Z</time></trkpt><trkpt lat="43.753105816868846" lon="7.407403151160149"><ele>561.0</ele><time>2026-05-01T13:53:14Z</time></trkpt><trkpt lat="43.75320613400968" lon="7.40737410226942"><ele>561.0</ele><time>2026-05-01T13:53:16Z</time></trkpt><trkpt lat="43.75326840794508" lon="7.407236159032424"><ele>561.0</ele><time>2026-05-01T13:53:18Z</time></trkpt><trkpt lat="43.75328026358741" lon="7.407142931106141"><ele>561.0</ele><time>2026-05-01T13:53:19Z</time></trkpt><trkpt lat="43.75328157144818" lon="7.407033052940605"><ele>561.0</ele><time>2026-05-01T13:53:20Z</time></trkpt><trkpt lat="43.75326919246944" lon="7.406916999048453"><ele>561.0</ele><time>2026-05-01T13:53:21Z</time></trkpt><trkpt lat="43.75325154261609" lon="7.4067945282815355"><ele>561.0</ele><time>2026-05-01T13:53:22Z</time></trkpt><trkpt lat="43.75323805102128" lon="7.406661152910755"><ele>561.0</ele><time>2026-05-01T13:53:23Z</time></trkpt><trkpt lat="43.75321687639369" lon="7.406531100710205"><ele>561.0</ele><time>2026-05-01T13:53:24Z</time></trkpt><trkpt lat="43.75320227520724" lon="7.406417789136358"><ele>561.2</ele><time>2026-05-01T13:53:25Z</time></trkpt><trkpt lat="43.75318727299442" lon="7.40629361764685"><ele>561.4000000000001</ele><time>2026-05-01T13:53:26Z</time></trkpt><trkpt lat="43.75316981644884" lon="7.406164605454339"><ele>561.6</ele><time>2026-05-01T13:53:27Z</time></trkpt><trkpt lat="43.75314911793713" lon="7.406039487509566"><ele>561.8000000000001</ele><time>2026-05-01T13:53:28Z</time></trkpt><trkpt lat="43.75313796740953" lon="7.405909294535023"><ele>562.0</ele><time>2026-05-01T13:53:29Z</time></trkpt><trkpt lat="43.7531351919347" lon="7.405777970293509"><ele>562.0</ele><time>2026-05-01T13:53:30Z</time></trkpt><trkpt lat="43.75315661287403" lon="7.405648981543242"><ele>562.0</ele><time>2026-05-01T13:53:31Z</time></trkpt><trkpt lat="43.75316995119059" lon="7.405521045737879"><ele>562.0</ele><time>2026-05-01T13:53:32Z</time></trkpt><trkpt lat="43.753193270228984" lon="7.405391591777713"><ele>562.0</ele><time>2026-05-01T13:53:33Z</time></trkpt><trkpt lat="43.75321589610806" lon="7.405254445045573"><ele>562.0</ele><time>2026-05-01T13:53:34Z</time></trkpt><trkpt lat="43.75321709796137" lon="7.405129829861233"><ele>562.0</ele><time>2026-05-01T13:53:35Z</time></trkpt><trkpt lat="43.75325801876111" lon="7.404995106585319"><ele>562.0</ele><time>2026-05-01T13:53:36Z</time></trkpt><trkpt lat="43.75327389108409" lon="7.404864027238301"><ele>562.0</ele><time>2026-05-01T13:53:37Z</time></trkpt><trkpt lat="43.75330087833254" lon="7.404732200556365"><ele>562.0</ele><time>2026-05-01T13:53:38Z</time></trkpt><trkpt lat="43.753334462968496" lon="7.404601390907445"><ele>562.0</ele><time>2026-05-01T13:53:39Z</time></trkpt><trkpt lat="43.753377106676" lon="7.4044807684506955"><ele>560.6</ele><time>2026-05-01T13:53:40Z</time></trkpt><trkpt lat="43.75339887179445" lon="7.404350250739291"><ele>559.2</ele><time>2026-05-01T13:53:41Z</time></trkpt><trkpt lat="43.75342655994055" lon="7.40422924504038"><ele>557.8</ele><time>2026-05-01T13:53:42Z</time></trkpt><trkpt lat="43.75345330445986" lon="7.404108895709774"><ele>556.4</ele><time>2026-05-01T13:53:43Z</time></trkpt><trkpt lat="43.75348098769119" lon="7.403997829386951"><ele>555.0</ele><time>2026-05-01T13:53:44Z</time></trkpt><trkpt lat="43.753514896009335" lon="7.403888513250876"><ele>555.1666666666666</ele><time>2026-05-01T13:53:45Z</time></trkpt><trkpt lat="43.75356301399288" lon="7.403792421134192"><ele>555.3333333333334</ele><time>2026-05-01T13:53:46Z</time></trkpt><trkpt lat="43.75362577051064" lon="7.403707403840418"><ele>555.5</ele><time>2026-05-01T13:53:47Z</time></trkpt><trkpt lat="43.75370699658962" lon="7.40365351245664"><ele>555.6666666666667</ele><time>2026-05-01T13:53:48Z</time></trkpt><trkpt lat="43.75378274452529" lon="7.403602885580374"><ele>555.8333333333334</ele><time>2026-05-01T13:53:49Z</time></trkpt><trkpt lat="43.753859574514074" lon="7.403562370662848"><ele>556.0</ele><time>2026-05-01T13:53:50Z</time></trkpt><trkpt lat="43.753938032081706" lon="7.4035289200603644"><ele>556.0</ele><time>2026-05-01T13:53:51Z</time></trkpt><trkpt lat="43.75403514375631" lon="7.403571387524954"><ele>556.0</ele><time>2026-05-01T13:53:52Z</time></trkpt><trkpt lat="43.754150348025696" lon="7.403571424325062"><ele>556.0</ele><time>2026-05-01T13:53:53Z</time></trkpt><trkpt lat="43.75427390383543" lon="7.403586866050587"><ele>556.0</ele><time>2026-05-01T13:53:54Z</time></trkpt><trkpt lat="43.75440151748543" lon="7.403619386129791"><ele>556.0</ele><time>2026-05-01T13:53:55Z</time></trkpt><trkpt lat="43.754545966422924" lon="7.403640911009404"><ele>556.0</ele><time>2026-05-01T13:53:56Z</time></trkpt><trkpt lat="43.75471277159536" lon="7.403668212083717"><ele>556.0</ele><time>2026-05-01T13:53:57Z</time></trkpt><trkpt lat="43.75488745190187" lon="7.403702533211126"><ele>556.0</ele><time>2026-05-01T13:53:58Z</time></trkpt><trkpt lat="43.75506673616891" lon="7.403744494676358"><ele>556.0</ele><time>2026-05-01T13:53:59Z</time></trkpt><trkpt lat="43.75524040994562" lon="7.403759881669095"><ele>556.0</ele><time>2026-05-01T13:54:00Z</time></trkpt><trkpt lat="43.75539548221718" lon="7.403815381342071"><ele>562.0</ele><time>2026-05-01T13:54:01Z</time></trkpt><trkpt lat="43.75555095286201" lon="7.403860194117573"><ele>568.0</ele><time>2026-05-01T13:54:02Z</time></trkpt><trkpt lat="43.75570137378665" lon="7.403917942051569"><ele>574.0</ele><time>2026-05-01T13:54:03Z</time></trkpt><trkpt lat="43.7558541644212" lon="7.403979559684556"><ele>574.0</ele><time>2026-05-01T13:54:04Z</time></trkpt><trkpt lat="43.75600388070926" lon="7.4040395195515885"><ele>574.0</ele><time>2026-05-01T13:54:05Z</time></trkpt><trkpt lat="43.75615155338755" lon="7.4040967690849"><ele>574.0</ele><time>2026-05-01T13:54:06Z</time></trkpt><trkpt lat="43.75630168312307" lon="7.404141731025115"><ele>572.3333333333334</ele><time>2026-05-01T13:54:07Z</time></trkpt><trkpt lat="43.75645088399795" lon="7.404160440842039"><ele>570.6666666666666</ele><time>2026-05-01T13:54:08Z</time></trkpt><trkpt lat="43.756600871088445" lon="7.4041530878702675"><ele>569.0</ele><time>2026-05-01T13:54:09Z</time></trkpt><trkpt lat="43.75675114783114" lon="7.404131590666042"><ele>568.75</ele><time>2026-05-01T13:54:10Z</time></trkpt><trkpt lat="43.756894749034444" lon="7.404148115357002"><ele>568.5</ele><time>2026-05-01T13:54:11Z</time></trkpt><trkpt lat="43.75703100527656" lon="7.404156888621186"><ele>568.25</ele><time>2026-05-01T13:54:12Z</time></trkpt><trkpt lat="43.757173319304016" lon="7.404181364292053"><ele>568.0</ele><time>2026-05-01T13:54:13Z</time></trkpt><trkpt lat="43.75731786476227" lon="7.404223795111421"><ele>568.0</ele><time>2026-05-01T13:54:14Z</time></trkpt><trkpt lat="43.75746681857646" lon="7.404273994659534"><ele>568.0</ele><time>2026-05-01T13:54:15Z</time></trkpt><trkpt lat="43.75761628845003" lon="7.404323345913178"><ele>568.0</ele><time>2026-05-01T13:54:16Z</time></trkpt><trkpt lat="43.75776487202113" lon="7.404371140022719"><ele>564.0</ele><time>2026-05-01T13:54:17Z</time></trkpt><trkpt lat="43.75790488062292" lon="7.404424107442335"><ele>560.0</ele><time>2026-05-01T13:54:18Z</time></trkpt><trkpt lat="43.75804334183516" lon="7.404493292071275"><ele>556.0</ele><time>2026-05-01T13:54:19Z</time></trkpt><trkpt lat="43.7581769641551" lon="7.404580906528666"><ele>552.0</ele><time>2026-05-01T13:54:20Z</time></trkpt><trkpt lat="43.758312154518094" lon="7.404680561874328"><ele>557.3333333333334</ele><time>2026-05-01T13:54:21Z</time></trkpt><trkpt lat="43.75846585004358" lon="7.4047922686991985"><ele>562.6666666666667</ele><time>2026-05-01T13:54:22Z</time></trkpt><trkpt lat="43.75861567851656" lon="7.404904461725337"><ele>568.0</ele><time>2026-05-01T13:54:23Z</time></trkpt><trkpt lat="43.75872094999544" lon="7.404986719291662"><ele>568.0</ele><time>2026-05-01T13:54:24Z</time></trkpt><trkpt lat="43.75884069113163" lon="7.4050846452058146"><ele>568.0</ele><time>2026-05-01T13:54:25Z</time></trkpt><trkpt lat="43.75896522237208" lon="7.4051970433253596"><ele>568.0</ele><time>2026-05-01T13:54:26Z</time></trkpt><trkpt lat="43.759085146774005" lon="7.405312261444591"><ele>568.0</ele><time>2026-05-01T13:54:27Z</time></trkpt><trkpt lat="43.75920201634033" lon="7.405426328530262"><ele>574.0</ele><time>2026-05-01T13:54:28Z</time></trkpt><trkpt lat="43.75931478730773" lon="7.4055372568091"><ele>580.0</ele><time>2026-05-01T13:54:29Z</time></trkpt><trkpt lat="43.75942004426021" lon="7.405639092125271"><ele>586.0</ele><time>2026-05-01T13:54:30Z</time></trkpt><trkpt lat="43.75952193539296" lon="7.405726152498495"><ele>592.0</ele><time>2026-05-01T13:54:31Z</time></trkpt><trkpt lat="43.759625650967045" lon="7.405787285718128"><ele>592.0</ele><time>2026-05-01T13:54:32Z</time></trkpt><trkpt lat="43.75974246530002" lon="7.405781160276093"><ele>592.0</ele><time>2026-05-01T13:54:33Z</time></trkpt><trkpt lat="43.759853396568715" lon="7.405744471384522"><ele>592.0</ele><time>2026-05-01T13:54:34Z</time></trkpt><trkpt lat="43.75996197724994" lon="7.405662910936266"><ele>592.0</ele><time>2026-05-01T13:54:35Z</time></trkpt><trkpt lat="43.7600648575651" lon="7.405553711863652"><ele>591.5</ele><time>2026-05-01T13:54:36Z</time></trkpt><trkpt lat="43.76016893705006" lon="7.405427123548676"><ele>591.0</ele><time>2026-05-01T13:54:37Z</time></trkpt><trkpt lat="43.76027886807657" lon="7.405297194389292"><ele>590.5</ele><time>2026-05-01T13:54:38Z</time></trkpt><trkpt lat="43.760394820774536" lon="7.405165937099978"><ele>590.0</ele><time>2026-05-01T13:54:39Z</time></trkpt><trkpt lat="43.76051410550196" lon="7.405042997721992"><ele>590.0</ele><time>2026-05-01T13:54:40Z</time></trkpt><trkpt lat="43.76062939057538" lon="7.404943473864786"><ele>590.0</ele><time>2026-05-01T13:54:41Z</time></trkpt><trkpt lat="43.760753751120724" lon="7.404853880917291"><ele>590.0</ele><time>2026-05-01T13:54:42Z</time></trkpt><trkpt lat="43.760884128265836" lon="7.404763564777995"><ele>590.0</ele><time>2026-05-01T13:54:43Z</time></trkpt><trkpt lat="43.761012777776784" lon="7.404683231134332"><ele>585.0</ele><time>2026-05-01T13:54:44Z</time></trkpt><trkpt lat="43.76115460947985" lon="7.4046344417864285"><ele>580.0</ele><time>2026-05-01T13:54:45Z</time></trkpt><trkpt lat="43.76128792611443" lon="7.404577332276831"><ele>575.0</ele><time>2026-05-01T13:54:46Z</time></trkpt><trkpt lat="43.76142595656862" lon="7.404546879472309"><ele>570.0</ele><time>2026-05-01T13:54:47Z</time></trkpt><trkpt lat="43.76157100668709" lon="7.40453587039704"><ele>570.0</ele><time>2026-05-01T13:54:48Z</time></trkpt><trkpt lat="43.761715368034906" lon="7.404542599960832"><ele>570.0</ele><time>2026-05-01T13:54:49Z</time></trkpt><trkpt lat="43.761861807290636" lon="7.404564031594864"><ele>570.0</ele><time>2026-05-01T13:54:50Z</time></trkpt><trkpt lat="43.76200263671292" lon="7.404570654818544"><ele>570.0</ele><time>2026-05-01T13:54:51Z</time></trkpt><trkpt lat="43.762125966860474" lon="7.404596336186737"><ele>573.5</ele><time>2026-05-01T13:54:52Z</time></trkpt><trkpt lat="43.762241006817426" lon="7.404613513634176"><ele>577.0</ele><time>2026-05-01T13:54:53Z</time></trkpt><trkpt lat="43.76234760668608" lon="7.404616500419661"><ele>580.5</ele><time>2026-05-01T13:54:54Z</time></trkpt><trkpt lat="43.76245730909656" lon="7.4045812134721825"><ele>584.0</ele><time>2026-05-01T13:54:55Z</time></trkpt><trkpt lat="43.76256152044338" lon="7.404502279687418"><ele>584.0</ele><time>2026-05-01T13:54:56Z</time></trkpt><trkpt lat="43.76264713045613" lon="7.404383254288294"><ele>584.0</ele><time>2026-05-01T13:54:57Z</time></trkpt><trkpt lat="43.76271915933797" lon="7.404241168589753"><ele>584.0</ele><time>2026-05-01T13:54:58Z</time></trkpt><trkpt lat="43.76279915648705" lon="7.404094702670076"><ele>584.0</ele><time>2026-05-01T13:54:59Z</time></trkpt><trkpt lat="43.762882719579764" lon="7.403963641976046"><ele>581.5</ele><time>2026-05-01T13:55:00Z</time></trkpt><trkpt lat="43.76295573749883" lon="7.403834810135528"><ele>579.0</ele><time>2026-05-01T13:55:01Z</time></trkpt><trkpt lat="43.76303688423826" lon="7.403725822075754"><ele>576.5</ele><time>2026-05-01T13:55:02Z</time></trkpt><trkpt lat="43.76313421126476" lon="7.4036429212809"><ele>574.0</ele><time>2026-05-01T13:55:03Z</time></trkpt><trkpt lat="43.76325803322107" lon="7.403617814179311"><ele>574.0</ele><time>2026-05-01T13:55:04Z</time></trkpt><trkpt lat="43.76338526047053" lon="7.403588392867434"><ele>574.0</ele><time>2026-05-01T13:55:05Z</time></trkpt><trkpt lat="43.763522391060704" lon="7.403541077496334"><ele>574.0</ele><time>2026-05-01T13:55:06Z</time></trkpt><trkpt lat="43.763664710541185" lon="7.403504817805163"><ele>574.0</ele><time>2026-05-01T13:55:07Z</time></trkpt><trkpt lat="43.76380898683968" lon="7.40347629387298"><ele>576.5</ele><time>2026-05-01T13:55:08Z</time></trkpt><trkpt lat="43.76394954373918" lon="7.403444467025892"><ele>579.0</ele><time>2026-05-01T13:55:09Z</time></trkpt><trkpt lat="43.76408843489966" lon="7.403418135245669"><ele>581.5</ele><time>2026-05-01T13:55:10Z</time></trkpt><trkpt lat="43.76423663325138" lon="7.403407487534959"><ele>584.0</ele><time>2026-05-01T13:55:11Z</time></trkpt><trkpt lat="43.764389056873306" lon="7.403409351266576"><ele>586.0</ele><time>2026-05-01T13:55:12Z</time></trkpt><trkpt lat="43.764544540584" lon="7.403415907397502"><ele>588.0</ele><time>2026-05-01T13:55:13Z</time></trkpt><trkpt lat="43.764703287162156" lon="7.403455773334247"><ele>590.0</ele><time>2026-05-01T13:55:14Z</time></trkpt><trkpt lat="43.76486570253444" lon="7.403451244684084"><ele>590.0</ele><time>2026-05-01T13:55:15Z</time></trkpt><trkpt lat="43.76501723500967" lon="7.403473856531102"><ele>590.0</ele><time>2026-05-01T13:55:16Z</time></trkpt><trkpt lat="43.765159370665344" lon="7.403485558563569"><ele>590.0</ele><time>2026-05-01T13:55:17Z</time></trkpt><trkpt lat="43.76530769025961" lon="7.4034813284134975"><ele>590.0</ele><time>2026-05-01T13:55:18Z</time></trkpt><trkpt lat="43.7654563518991" lon="7.40344474024657"><ele>592.5</ele><time>2026-05-01T13:55:19Z</time></trkpt><trkpt lat="43.76560236654406" lon="7.4033782943499995"><ele>595.0</ele><time>2026-05-01T13:55:20Z</time></trkpt><trkpt lat="43.76574675717539" lon="7.403307470008157"><ele>597.5</ele><time>2026-05-01T13:55:21Z</time></trkpt><trkpt lat="43.76587057093465" lon="7.403261910497658"><ele>600.0</ele><time>2026-05-01T13:55:22Z</time></trkpt><trkpt lat="43.76601484867007" lon="7.40319598031775"><ele>604.6666666666666</ele><time>2026-05-01T13:55:23Z</time></trkpt><trkpt lat="43.766159648096455" lon="7.403165067989227"><ele>609.3333333333333</ele><time>2026-05-01T13:55:24Z</time></trkpt><trkpt lat="43.766313963280794" lon="7.403158585744737"><ele>614.0</ele><time>2026-05-01T13:55:25Z</time></trkpt><trkpt lat="43.766474556855776" lon="7.4031576124663605"><ele>614.0</ele><time>2026-05-01T13:55:26Z</time></trkpt><trkpt lat="43.766638612460625" lon="7.403151637625204"><ele>614.0</ele><time>2026-05-01T13:55:27Z</time></trkpt><trkpt lat="43.76680594256724" lon="7.403143918721336"><ele>614.0</ele><time>2026-05-01T13:55:28Z</time></trkpt><trkpt lat="43.7669697263623" lon="7.4031360901893954"><ele>615.6666666666666</ele><time>2026-05-01T13:55:29Z</time></trkpt><trkpt lat="43.76712750474325" lon="7.403153430384005"><ele>617.3333333333334</ele><time>2026-05-01T13:55:30Z</time></trkpt><trkpt lat="43.76728288398077" lon="7.403125200800057"><ele>619.0</ele><time>2026-05-01T13:55:31Z</time></trkpt><trkpt lat="43.76743501789636" lon="7.40311886935295"><ele>619.0</ele><time>2026-05-01T13:55:32Z</time></trkpt><trkpt lat="43.76758151847838" lon="7.40311399427479"><ele>619.0</ele><time>2026-05-01T13:55:33Z</time></trkpt><trkpt lat="43.767721048089534" lon="7.4031277484440485"><ele>619.0</ele><time>2026-05-01T13:55:34Z</time></trkpt><trkpt lat="43.76785375874934" lon="7.403122152708158"><ele>619.0</ele><time>2026-05-01T13:55:35Z</time></trkpt><trkpt lat="43.767976534850256" lon="7.403096224693826"><ele>614.0</ele><time>2026-05-01T13:55:36Z</time></trkpt><trkpt lat="43.76809021065552" lon="7.403137346640162"><ele>609.0</ele><time>2026-05-01T13:55:37Z</time></trkpt><trkpt lat="43.76819576903546" lon="7.403186356120519"><ele>604.0</ele><time>2026-05-01T13:55:38Z</time></trkpt><trkpt lat="43.76829031835662" lon="7.403270985230291"><ele>599.0</ele><time>2026-05-01T13:55:39Z</time></trkpt><trkpt lat="43.768386641488966" lon="7.403381787474608"><ele>599.0</ele><time>2026-05-01T13:55:40Z</time></trkpt><trkpt lat="43.768487318588534" lon="7.403505526094039"><ele>599.0</ele><time>2026-05-01T13:55:41Z</time></trkpt><trkpt lat="43.76860255523938" lon="7.403622334515974"><ele>599.0</ele><time>2026-05-01T13:55:42Z</time></trkpt><trkpt lat="43.76871516552751" lon="7.403748341876888"><ele>599.0</ele><time>2026-05-01T13:55:43Z</time></trkpt><trkpt lat="43.76882450639416" lon="7.403876524259934"><ele>601.25</ele><time>2026-05-01T13:55:44Z</time></trkpt><trkpt lat="43.76893785134012" lon="7.4040056019050935"><ele>603.5</ele><time>2026-05-01T13:55:45Z</time></trkpt><trkpt lat="43.769043528611505" lon="7.404129935149502"><ele>605.75</ele><time>2026-05-01T13:55:46Z</time></trkpt><trkpt lat="43.76914402393746" lon="7.4042494620548736"><ele>608.0</ele><time>2026-05-01T13:55:47Z</time></trkpt><trkpt lat="43.76923556779448" lon="7.404355068073758"><ele>608.0</ele><time>2026-05-01T13:55:48Z</time></trkpt><trkpt lat="43.76932238628354" lon="7.4044542635941095"><ele>608.0</ele><time>2026-05-01T13:55:49Z</time></trkpt><trkpt lat="43.7694119473128" lon="7.404541213053006"><ele>608.0</ele><time>2026-05-01T13:55:50Z</time></trkpt><trkpt lat="43.76951170504208" lon="7.404593318073461"><ele>608.0</ele><time>2026-05-01T13:55:51Z</time></trkpt><trkpt lat="43.769616642098356" lon="7.404602102107138"><ele>608.0</ele><time>2026-05-01T13:55:52Z</time></trkpt><trkpt lat="43.769721037170456" lon="7.404577308634823"><ele>610.4</ele><time>2026-05-01T13:55:53Z</time></trkpt><trkpt lat="43.76981121338182" lon="7.404508038524994"><ele>612.8</ele><time>2026-05-01T13:55:54Z</time></trkpt><trkpt lat="43.76989070390137" lon="7.404433498048912"><ele>615.2</ele><time>2026-05-01T13:55:55Z</time></trkpt><trkpt lat="43.76991241513932" lon="7.404273425964321"><ele>617.6</ele><time>2026-05-01T13:55:56Z</time></trkpt><trkpt lat="43.76990814199518" lon="7.404121225670218"><ele>620.0</ele><time>2026-05-01T13:55:57Z</time></trkpt><trkpt lat="43.76987950215088" lon="7.4039635671483515"><ele>622.0</ele><time>2026-05-01T13:55:58Z</time></trkpt><trkpt lat="43.76985215680109" lon="7.403802644127449"><ele>624.0</ele><time>2026-05-01T13:55:59Z</time></trkpt><trkpt lat="43.76983043622649" lon="7.403634863913378"><ele>626.0</ele><time>2026-05-01T13:56:00Z</time></trkpt><trkpt lat="43.76979124469161" lon="7.403469396689161"><ele>628.0</ele><time>2026-05-01T13:56:01Z</time></trkpt><trkpt lat="43.769729464208" lon="7.403314485467514"><ele>628.0</ele><time>2026-05-01T13:56:02Z</time></trkpt><trkpt lat="43.769654220588365" lon="7.403178794647351"><ele>628.0</ele><time>2026-05-01T13:56:03Z</time></trkpt><trkpt lat="43.76959692524747" lon="7.4030331538436025"><ele>628.0</ele><time>2026-05-01T13:56:04Z</time></trkpt><trkpt lat="43.769582264345786" lon="7.402861134214733"><ele>628.0</ele><time>2026-05-01T13:56:05Z</time></trkpt><trkpt lat="43.769536333804446" lon="7.402673448507179"><ele>630.0</ele><time>2026-05-01T13:56:06Z</time></trkpt><trkpt lat="43.76949849951094" lon="7.402479230371342"><ele>632.0</ele><time>2026-05-01T13:56:07Z</time></trkpt><trkpt lat="43.769460227540456" lon="7.402279393927236"><ele>634.0</ele><time>2026-05-01T13:56:08Z</time></trkpt><trkpt lat="43.76942181265334" lon="7.402088880889709"><ele>636.0</ele><time>2026-05-01T13:56:09Z</time></trkpt><trkpt lat="43.76936647471308" lon="7.401911996797167"><ele>625.3333333333334</ele><time>2026-05-01T13:56:10Z</time></trkpt><trkpt lat="43.76928816361061" lon="7.401740379736723"><ele>614.6666666666667</ele><time>2026-05-01T13:56:11Z</time></trkpt><trkpt lat="43.76918975321708" lon="7.4015766211824525"><ele>604.0</ele><time>2026-05-01T13:56:12Z</time></trkpt><trkpt lat="43.76907923475288" lon="7.401426746382995"><ele>608.25</ele><time>2026-05-01T13:56:13Z</time></trkpt><trkpt lat="43.76896136421227" lon="7.401285163649817"><ele>612.5</ele><time>2026-05-01T13:56:14Z</time></trkpt><trkpt lat="43.76884512182512" lon="7.401148479681927"><ele>616.75</ele><time>2026-05-01T13:56:15Z</time></trkpt><trkpt lat="43.76874501019727" lon="7.401026515500162"><ele>621.0</ele><time>2026-05-01T13:56:16Z</time></trkpt><trkpt lat="43.768649963647334" lon="7.400916220224197"><ele>621.0</ele><time>2026-05-01T13:56:17Z</time></trkpt><trkpt lat="43.76856469958752" lon="7.4008071115202725"><ele>621.0</ele><time>2026-05-01T13:56:18Z</time></trkpt><trkpt lat="43.768490058824995" lon="7.40069743268494"><ele>621.0</ele><time>2026-05-01T13:56:19Z</time></trkpt><trkpt lat="43.76843272623084" lon="7.4005933549987555"><ele>621.0</ele><time>2026-05-01T13:56:20Z</time></trkpt><trkpt lat="43.76840257185886" lon="7.400479683742677"><ele>621.0</ele><time>2026-05-01T13:56:21Z</time></trkpt><trkpt lat="43.76840866585503" lon="7.400362251827731"><ele>620.2</ele><time>2026-05-01T13:56:22Z</time></trkpt><trkpt lat="43.768448283864466" lon="7.400250039891346"><ele>619.4000000000001</ele><time>2026-05-01T13:56:23Z</time></trkpt><trkpt lat="43.76852493599205" lon="7.400171348865517"><ele>618.6</ele><time>2026-05-01T13:56:24Z</time></trkpt><trkpt lat="43.76861647780555" lon="7.400096722392688"><ele>617.8000000000001</ele><time>2026-05-01T13:56:25Z</time></trkpt><trkpt lat="43.76872410979805" lon="7.40003028468332"><ele>617.0</ele><time>2026-05-01T13:56:26Z</time></trkpt><trkpt lat="43.76883679378064" lon="7.399943293102938"><ele>617.0</ele><time>2026-05-01T13:56:27Z</time></trkpt><trkpt lat="43.76896431353873" lon="7.399856828319985"><ele>617.0</ele><time>2026-05-01T13:56:28Z</time></trkpt><trkpt lat="43.76909393543728" lon="7.399763742380302"><ele>617.0</ele><time>2026-05-01T13:56:29Z</time></trkpt><trkpt lat="43.76922604399515" lon="7.399698155164868"><ele>617.0</ele><time>2026-05-01T13:56:30Z</time></trkpt><trkpt lat="43.76934803971996" lon="7.399610355289625"><ele>614.75</ele><time>2026-05-01T13:56:31Z</time></trkpt><trkpt lat="43.769470092748215" lon="7.399503717855534"><ele>612.5</ele><time>2026-05-01T13:56:32Z</time></trkpt><trkpt lat="43.76959595208143" lon="7.399427184803324"><ele>610.25</ele><time>2026-05-01T13:56:33Z</time></trkpt><trkpt lat="43.76970853857139" lon="7.399349510124734"><ele>608.0</ele><time>2026-05-01T13:56:34Z</time></trkpt><trkpt lat="43.76983259056466" lon="7.399308868272511"><ele>608.0</ele><time>2026-05-01T13:56:35Z</time></trkpt><trkpt lat="43.76996462304621" lon="7.3992728663380305"><ele>608.0</ele><time>2026-05-01T13:56:36Z</time></trkpt><trkpt lat="43.770093711113205" lon="7.399269282365426"><ele>608.0</ele><time>2026-05-01T13:56:37Z</time></trkpt><trkpt lat="43.77022483257591" lon="7.3992915614190045"><ele>608.0</ele><time>2026-05-01T13:56:38Z</time></trkpt><trkpt lat="43.770352288681096" lon="7.399308951284448"><ele>607.75</ele><time>2026-05-01T13:56:39Z</time></trkpt><trkpt lat="43.770482157703995" lon="7.399310564453898"><ele>607.5</ele><time>2026-05-01T13:56:40Z</time></trkpt><trkpt lat="43.77055272892334" lon="7.39951474593534"><ele>607.25</ele><time>2026-05-01T13:56:41Z</time></trkpt><trkpt lat="43.77064110777347" lon="7.399607580296638"><ele>607.0</ele><time>2026-05-01T13:56:42Z</time></trkpt><trkpt lat="43.77074844914937" lon="7.399647977709854"><ele>607.0</ele><time>2026-05-01T13:56:43Z</time></trkpt><trkpt lat="43.770863838863036" lon="7.399635702793024"><ele>607.0</ele><time>2026-05-01T13:56:44Z</time></trkpt><trkpt lat="43.770976836482966" lon="7.399569646790871"><ele>607.0</ele><time>2026-05-01T13:56:45Z</time></trkpt><trkpt lat="43.771072275083384" lon="7.399460734582428"><ele>607.0</ele><time>2026-05-01T13:56:46Z</time></trkpt><trkpt lat="43.77116188965127" lon="7.399324009555631"><ele>606.5</ele><time>2026-05-01T13:56:47Z</time></trkpt><trkpt lat="43.771273676640476" lon="7.399212219028416"><ele>606.0</ele><time>2026-05-01T13:56:48Z</time></trkpt><trkpt lat="43.77137431473695" lon="7.399072761180278"><ele>605.5</ele><time>2026-05-01T13:56:49Z</time></trkpt><trkpt lat="43.771486463627056" lon="7.3989464342848645"><ele>605.0</ele><time>2026-05-01T13:56:50Z</time></trkpt><trkpt lat="43.7715954433099" lon="7.398819856401426"><ele>605.0</ele><time>2026-05-01T13:56:51Z</time></trkpt><trkpt lat="43.77170151178956" lon="7.3987066712179725"><ele>605.0</ele><time>2026-05-01T13:56:52Z</time></trkpt><trkpt lat="43.7718219183682" lon="7.398638361784632"><ele>605.0</ele><time>2026-05-01T13:56:53Z</time></trkpt><trkpt lat="43.77194650151423" lon="7.398571306177581"><ele>605.0</ele><time>2026-05-01T13:56:54Z</time></trkpt><trkpt lat="43.77207876467741" lon="7.398502824118419"><ele>608.75</ele><time>2026-05-01T13:56:55Z</time></trkpt><trkpt lat="43.77221446087102" lon="7.398426752755661"><ele>612.5</ele><time>2026-05-01T13:56:56Z</time></trkpt><trkpt lat="43.77235284607465" lon="7.398356029241244"><ele>616.25</ele><time>2026-05-01T13:56:57Z</time></trkpt><trkpt lat="43.77249212655473" lon="7.3982968621294"><ele>620.0</ele><time>2026-05-01T13:56:58Z</time></trkpt><trkpt lat="43.7726337384404" lon="7.398241154289918"><ele>622.25</ele><time>2026-05-01T13:56:59Z</time></trkpt><trkpt lat="43.77277498450811" lon="7.398177674971594"><ele>624.5</ele><time>2026-05-01T13:57:00Z</time></trkpt><trkpt lat="43.77292097148877" lon="7.39813577742389"><ele>626.75</ele><time>2026-05-01T13:57:01Z</time></trkpt><trkpt lat="43.773050219556694" lon="7.398035809790312"><ele>629.0</ele><time>2026-05-01T13:57:02Z</time></trkpt><trkpt lat="43.77318323986926" lon="7.397949869493719"><ele>625.25</ele><time>2026-05-01T13:57:03Z</time></trkpt><trkpt lat="43.7733240224812" lon="7.397890640203937"><ele>621.5</ele><time>2026-05-01T13:57:04Z</time></trkpt><trkpt lat="43.77346438366618" lon="7.397840498356842"><ele>617.75</ele><time>2026-05-01T13:57:05Z</time></trkpt><trkpt lat="43.773612835066245" lon="7.397797771972623"><ele>614.0</ele><time>2026-05-01T13:57:06Z</time></trkpt><trkpt lat="43.773763703472355" lon="7.39776610671092"><ele>614.0</ele><time>2026-05-01T13:57:07Z</time></trkpt><trkpt lat="43.773923901361684" lon="7.397745580108241"><ele>614.0</ele><time>2026-05-01T13:57:08Z</time></trkpt><trkpt lat="43.77408579700741" lon="7.397715496363087"><ele>614.0</ele><time>2026-05-01T13:57:09Z</time></trkpt><trkpt lat="43.77424503534428" lon="7.397712934059243"><ele>615.3333333333333</ele><time>2026-05-01T13:57:10Z</time></trkpt><trkpt lat="43.774388579152145" lon="7.397722912473689"><ele>616.6666666666666</ele><time>2026-05-01T13:57:11Z</time></trkpt><trkpt lat="43.77454701493686" lon="7.3976809332007765"><ele>618.0</ele><time>2026-05-01T13:57:12Z</time></trkpt><trkpt lat="43.77469678310991" lon="7.39764017221532"><ele>618.0</ele><time>2026-05-01T13:57:13Z</time></trkpt><trkpt lat="43.77483628238281" lon="7.397603810729628"><ele>618.0</ele><time>2026-05-01T13:57:14Z</time></trkpt><trkpt lat="43.77496583115916" lon="7.397562179952859"><ele>618.0</ele><time>2026-05-01T13:57:15Z</time></trkpt><trkpt lat="43.77508086048966" lon="7.397528270659769"><ele>618.0</ele><time>2026-05-01T13:57:16Z</time></trkpt><trkpt lat="43.775198219368164" lon="7.397514891015646"><ele>618.5</ele><time>2026-05-01T13:57:17Z</time></trkpt><trkpt lat="43.77533112179204" lon="7.397515340673378"><ele>619.0</ele><time>2026-05-01T13:57:18Z</time></trkpt><trkpt lat="43.7754768983786" lon="7.3975212462511015"><ele>619.5</ele><time>2026-05-01T13:57:19Z</time></trkpt><trkpt lat="43.77562662581003" lon="7.39752931182475"><ele>620.0</ele><time>2026-05-01T13:57:20Z</time></trkpt><trkpt lat="43.77578385444466" lon="7.397538406610624"><ele>620.0</ele><time>2026-05-01T13:57:21Z</time></trkpt><trkpt lat="43.775933515511674" lon="7.397553601503669"><ele>620.0</ele><time>2026-05-01T13:57:22Z</time></trkpt><trkpt lat="43.77607123873648" lon="7.397574726124757"><ele>620.0</ele><time>2026-05-01T13:57:23Z</time></trkpt><trkpt lat="43.77620462238193" lon="7.3976161773603195"><ele>620.0</ele><time>2026-05-01T13:57:24Z</time></trkpt><trkpt lat="43.77634648744738" lon="7.3976817299355995"><ele>619.0</ele><time>2026-05-01T13:57:25Z</time></trkpt><trkpt lat="43.77649266048003" lon="7.397753036930976"><ele>618.0</ele><time>2026-05-01T13:57:26Z</time></trkpt><trkpt lat="43.77663358983087" lon="7.39782247544263"><ele>617.0</ele><time>2026-05-01T13:57:27Z</time></trkpt><trkpt lat="43.77677205534383" lon="7.397868774435242"><ele>616.0</ele><time>2026-05-01T13:57:28Z</time></trkpt><trkpt lat="43.77690530373732" lon="7.397923939071178"><ele>615.5</ele><time>2026-05-01T13:57:29Z</time></trkpt><trkpt lat="43.77704175561485" lon="7.397964745431098"><ele>615.0</ele><time>2026-05-01T13:57:30Z</time></trkpt><trkpt lat="43.77718341324627" lon="7.3979903080551725"><ele>614.5</ele><time>2026-05-01T13:57:31Z</time></trkpt><trkpt lat="43.777330678409264" lon="7.397998806409201"><ele>614.0</ele><time>2026-05-01T13:57:32Z</time></trkpt><trkpt lat="43.77747843863262" lon="7.398003533737973"><ele>617.0</ele><time>2026-05-01T13:57:33Z</time></trkpt><trkpt lat="43.77762478884719" lon="7.3980115076102235"><ele>620.0</ele><time>2026-05-01T13:57:34Z</time></trkpt><trkpt lat="43.77777100903819" lon="7.398046517060668"><ele>623.0</ele><time>2026-05-01T13:57:35Z</time></trkpt><trkpt lat="43.777913989356726" lon="7.398058192961968"><ele>626.0</ele><time>2026-05-01T13:57:36Z</time></trkpt><trkpt lat="43.77804812088334" lon="7.398067285121985"><ele>626.0</ele><time>2026-05-01T13:57:37Z</time></trkpt><trkpt lat="43.77816917516818" lon="7.398076737522434"><ele>626.0</ele><time>2026-05-01T13:57:38Z</time></trkpt><trkpt lat="43.77827824366481" lon="7.398091635468016"><ele>626.0</ele><time>2026-05-01T13:57:39Z</time></trkpt><trkpt lat="43.77838104550603" lon="7.3981235808843016"><ele>626.0</ele><time>2026-05-01T13:57:40Z</time></trkpt><trkpt lat="43.778473979265456" lon="7.398184270949401"><ele>626.0</ele><time>2026-05-01T13:57:41Z</time></trkpt><trkpt lat="43.77857378931112" lon="7.398256592799149"><ele>623.5</ele><time>2026-05-01T13:57:42Z</time></trkpt><trkpt lat="43.77865262533469" lon="7.39838515279311"><ele>621.0</ele><time>2026-05-01T13:57:43Z</time></trkpt><trkpt lat="43.77874967562822" lon="7.398511176493065"><ele>618.5</ele><time>2026-05-01T13:57:44Z</time></trkpt><trkpt lat="43.778862265237244" lon="7.398626154812122"><ele>616.0</ele><time>2026-05-01T13:57:45Z</time></trkpt><trkpt lat="43.77896694498173" lon="7.3987622808891595"><ele>618.25</ele><time>2026-05-01T13:57:46Z</time></trkpt><trkpt lat="43.779072911676174" lon="7.398888033955239"><ele>620.5</ele><time>2026-05-01T13:57:47Z</time></trkpt><trkpt lat="43.77918280043996" lon="7.398994245815238"><ele>622.75</ele><time>2026-05-01T13:57:48Z</time></trkpt><trkpt lat="43.77930673711946" lon="7.399075652330247"><ele>625.0</ele><time>2026-05-01T13:57:49Z</time></trkpt><trkpt lat="43.779441340558634" lon="7.39912898208432"><ele>625.0</ele><time>2026-05-01T13:57:50Z</time></trkpt><trkpt lat="43.779577176291184" lon="7.3991507793127935"><ele>625.0</ele><time>2026-05-01T13:57:51Z</time></trkpt><trkpt lat="43.77972026691645" lon="7.399148837860097"><ele>625.0</ele><time>2026-05-01T13:57:52Z</time></trkpt><trkpt lat="43.77986707471591" lon="7.399133934651971"><ele>625.0</ele><time>2026-05-01T13:57:53Z</time></trkpt><trkpt lat="43.780013019731754" lon="7.399116768649029"><ele>625.0</ele><time>2026-05-01T13:57:54Z</time></trkpt><trkpt lat="43.78015804962696" lon="7.39910631611173"><ele>625.0</ele><time>2026-05-01T13:57:55Z</time></trkpt><trkpt lat="43.780314730545875" lon="7.399095052616569"><ele>625.0</ele><time>2026-05-01T13:57:56Z</time></trkpt><trkpt lat="43.78046601666718" lon="7.399083911021696"><ele>625.3333333333334</ele><time>2026-05-01T13:57:57Z</time></trkpt><trkpt lat="43.780621159468154" lon="7.3990685870627475"><ele>625.6666666666666</ele><time>2026-05-01T13:57:58Z</time></trkpt><trkpt lat="43.78077026521492" lon="7.399053275315128"><ele>626.0</ele><time>2026-05-01T13:57:59Z</time></trkpt><trkpt lat="43.78092342800546" lon="7.399041724001985"><ele>627.0</ele><time>2026-05-01T13:58:00Z</time></trkpt><trkpt lat="43.78107692382351" lon="7.399029226446478"><ele>628.0</ele><time>2026-05-01T13:58:01Z</time></trkpt><trkpt lat="43.781224569076066" lon="7.39901359290238"><ele>629.0</ele><time>2026-05-01T13:58:02Z</time></trkpt><trkpt lat="43.78137344824044" lon="7.399000102700062"><ele>629.0</ele><time>2026-05-01T13:58:03Z</time></trkpt><trkpt lat="43.78152301222052" lon="7.398987684456411"><ele>629.0</ele><time>2026-05-01T13:58:04Z</time></trkpt><trkpt lat="43.781673354370454" lon="7.398974328172249"><ele>629.0</ele><time>2026-05-01T13:58:05Z</time></trkpt><trkpt lat="43.78181858341373" lon="7.398959187184525"><ele>629.0</ele><time>2026-05-01T13:58:06Z</time></trkpt><trkpt lat="43.7819472013834" lon="7.39894944236169"><ele>628.5</ele><time>2026-05-01T13:58:07Z</time></trkpt><trkpt lat="43.78207694914416" lon="7.398956482295333"><ele>628.0</ele><time>2026-05-01T13:58:08Z</time></trkpt><trkpt lat="43.782204424375166" lon="7.398957876620578"><ele>627.5</ele><time>2026-05-01T13:58:09Z</time></trkpt><trkpt lat="43.78232359369654" lon="7.398979900220366"><ele>627.0</ele><time>2026-05-01T13:58:10Z</time></trkpt><trkpt lat="43.78244329258651" lon="7.399030200831197"><ele>627.0</ele><time>2026-05-01T13:58:11Z</time></trkpt><trkpt lat="43.78255274287761" lon="7.399102947793983"><ele>627.0</ele><time>2026-05-01T13:58:12Z</time></trkpt><trkpt lat="43.782658442522965" lon="7.399205068824205"><ele>627.0</ele><time>2026-05-01T13:58:13Z</time></trkpt><trkpt lat="43.78275519112404" lon="7.399328148017889"><ele>627.0</ele><time>2026-05-01T13:58:14Z</time></trkpt><trkpt lat="43.78285107576846" lon="7.399470852345058"><ele>625.5</ele><time>2026-05-01T13:58:15Z</time></trkpt><trkpt lat="43.78295771541727" lon="7.399608826495584"><ele>624.0</ele><time>2026-05-01T13:58:16Z</time></trkpt><trkpt lat="43.78305065903354" lon="7.399745851507038"><ele>622.5</ele><time>2026-05-01T13:58:17Z</time></trkpt><trkpt lat="43.78313726266997" lon="7.399863788166854"><ele>621.0</ele><time>2026-05-01T13:58:18Z</time></trkpt><trkpt lat="43.78321882366851" lon="7.399970421442272"><ele>621.0</ele><time>2026-05-01T13:58:19Z</time></trkpt><trkpt lat="43.78327202818734" lon="7.400104264965301"><ele>621.0</ele><time>2026-05-01T13:58:20Z</time></trkpt><trkpt lat="43.78331779620932" lon="7.400253446465279"><ele>621.0</ele><time>2026-05-01T13:58:21Z</time></trkpt><trkpt lat="43.78335706628768" lon="7.400409052226684"><ele>621.0</ele><time>2026-05-01T13:58:22Z</time></trkpt><trkpt lat="43.78336893909668" lon="7.400554275158811"><ele>621.25</ele><time>2026-05-01T13:58:23Z</time></trkpt><trkpt lat="43.7833578540376" lon="7.400699742932485"><ele>621.5</ele><time>2026-05-01T13:58:24Z</time></trkpt><trkpt lat="43.783325589117545" lon="7.400858116096277"><ele>621.75</ele><time>2026-05-01T13:58:25Z</time></trkpt><trkpt lat="43.783295510929655" lon="7.401025974919219"><ele>622.0</ele><time>2026-05-01T13:58:26Z</time></trkpt><trkpt lat="43.78325996779861" lon="7.4011705144423505"><ele>622.0</ele><time>2026-05-01T13:58:27Z</time></trkpt><trkpt lat="43.783202009211415" lon="7.4013007158120985"><ele>622.0</ele><time>2026-05-01T13:58:28Z</time></trkpt><trkpt lat="43.78312402631057" lon="7.401425711266719"><ele>622.0</ele><time>2026-05-01T13:58:29Z</time></trkpt><trkpt lat="43.783031835114514" lon="7.401538398721773"><ele>622.0</ele><time>2026-05-01T13:58:30Z</time></trkpt><trkpt lat="43.78292442864354" lon="7.401642804820115"><ele>619.25</ele><time>2026-05-01T13:58:31Z</time></trkpt><trkpt lat="43.7828130140471" lon="7.40174902955587"><ele>616.5</ele><time>2026-05-01T13:58:32Z</time></trkpt><trkpt lat="43.78270281358205" lon="7.4018508099855325"><ele>613.75</ele><time>2026-05-01T13:58:33Z</time></trkpt><trkpt lat="43.782600235057494" lon="7.4019314227614625"><ele>611.0</ele><time>2026-05-01T13:58:34Z</time></trkpt><trkpt lat="43.78249899185245" lon="7.401996926428198"><ele>617.5</ele><time>2026-05-01T13:58:35Z</time></trkpt><trkpt lat="43.78239917586385" lon="7.402057532579354"><ele>624.0</ele><time>2026-05-01T13:58:36Z</time></trkpt><trkpt lat="43.78228722941529" lon="7.402059324769715"><ele>630.5</ele><time>2026-05-01T13:58:37Z</time></trkpt><trkpt lat="43.78217660384605" lon="7.401983306194703"><ele>637.0</ele><time>2026-05-01T13:58:38Z</time></trkpt><trkpt lat="43.78205428270455" lon="7.401976894926355"><ele>637.0</ele><time>2026-05-01T13:58:39Z</time></trkpt><trkpt lat="43.7819308147609" lon="7.401942457526762"><ele>637.0</ele><time>2026-05-01T13:58:40Z</time></trkpt><trkpt lat="43.78180354983329" lon="7.401930754272568"><ele>637.0</ele><time>2026-05-01T13:58:41Z</time></trkpt><trkpt lat="43.781673904917724" lon="7.401949877068918"><ele>637.0</ele><time>2026-05-01T13:58:42Z</time></trkpt><trkpt lat="43.78154336789683" lon="7.402002261126927"><ele>639.75</ele><time>2026-05-01T13:58:43Z</time></trkpt><trkpt lat="43.78141266210271" lon="7.402072019661097"><ele>642.5</ele><time>2026-05-01T13:58:44Z</time></trkpt><trkpt lat="43.781278645204644" lon="7.402140100688547"><ele>645.25</ele><time>2026-05-01T13:58:45Z</time></trkpt><trkpt lat="43.78115127863705" lon="7.402212122575234"><ele>648.0</ele><time>2026-05-01T13:58:46Z</time></trkpt><trkpt lat="43.78102301040093" lon="7.402250323140861"><ele>644.25</ele><time>2026-05-01T13:58:47Z</time></trkpt><trkpt lat="43.7809008007332" lon="7.402299024865822"><ele>640.5</ele><time>2026-05-01T13:58:48Z</time></trkpt><trkpt lat="43.78077744634121" lon="7.402338164695349"><ele>636.75</ele><time>2026-05-01T13:58:49Z</time></trkpt><trkpt lat="43.78064685222428" lon="7.40237509339606"><ele>633.0</ele><time>2026-05-01T13:58:50Z</time></trkpt><trkpt lat="43.78051768058162" lon="7.402406863868181"><ele>633.0</ele><time>2026-05-01T13:58:51Z</time></trkpt><trkpt lat="43.78039609053512" lon="7.402434947276728"><ele>633.0</ele><time>2026-05-01T13:58:52Z</time></trkpt><trkpt lat="43.78028170077316" lon="7.4024752507573055"><ele>633.0</ele><time>2026-05-01T13:58:53Z</time></trkpt><trkpt lat="43.78017301913965" lon="7.4024669937162315"><ele>633.0</ele><time>2026-05-01T13:58:54Z</time></trkpt><trkpt lat="43.78007764987441" lon="7.402486280700797"><ele>633.0</ele><time>2026-05-01T13:58:55Z</time></trkpt><trkpt lat="43.77998665390693" lon="7.402483829568891"><ele>635.0</ele><time>2026-05-01T13:58:56Z</time></trkpt><trkpt lat="43.779899078541405" lon="7.402512191775738"><ele>637.0</ele><time>2026-05-01T13:58:57Z</time></trkpt><trkpt lat="43.77982011997803" lon="7.402578473146816"><ele>639.0</ele><time>2026-05-01T13:58:58Z</time></trkpt><trkpt lat="43.77976973186094" lon="7.402692030041933"><ele>641.0</ele><time>2026-05-01T13:58:59Z</time></trkpt><trkpt lat="43.77975938440036" lon="7.402830812171274"><ele>643.0</ele><time>2026-05-01T13:59:00Z</time></trkpt><trkpt lat="43.77979149820412" lon="7.402965069002122"><ele>642.4</ele><time>2026-05-01T13:59:01Z</time></trkpt><trkpt lat="43.77985882822839" lon="7.40307036984601"><ele>641.8</ele><time>2026-05-01T13:59:02Z</time></trkpt><trkpt lat="43.77995209253673" lon="7.4031299494355824"><ele>641.2</ele><time>2026-05-01T13:59:03Z</time></trkpt><trkpt lat="43.780065527002506" lon="7.403149189913386"><ele>640.6</ele><time>2026-05-01T13:59:04Z</time></trkpt><trkpt lat="43.78018850538421" lon="7.403165303747562"><ele>640.0</ele><time>2026-05-01T13:59:05Z</time></trkpt><trkpt lat="43.78031925065182" lon="7.4031995534028265"><ele>640.0</ele><time>2026-05-01T13:59:06Z</time></trkpt><trkpt lat="43.78046561374421" lon="7.403250232244139"><ele>640.0</ele><time>2026-05-01T13:59:07Z</time></trkpt><trkpt lat="43.78060933178596" lon="7.403301763237939"><ele>640.0</ele><time>2026-05-01T13:59:08Z</time></trkpt><trkpt lat="43.78074967059706" lon="7.403352694096788"><ele>640.0</ele><time>2026-05-01T13:59:09Z</time></trkpt><trkpt lat="43.780897550087516" lon="7.403400895292924"><ele>636.6666666666667</ele><time>2026-05-01T13:59:10Z</time></trkpt><trkpt lat="43.781049877555944" lon="7.403449516134425"><ele>633.3333333333334</ele><time>2026-05-01T13:59:11Z</time></trkpt><trkpt lat="43.78120040567124" lon="7.403499716485319"><ele>630.0</ele><time>2026-05-01T13:59:12Z</time></trkpt><trkpt lat="43.7813520639796" lon="7.40355293956578"><ele>630.0</ele><time>2026-05-01T13:59:13Z</time></trkpt><trkpt lat="43.78150501301164" lon="7.403610752482615"><ele>630.0</ele><time>2026-05-01T13:59:14Z</time></trkpt><trkpt lat="43.78165281070675" lon="7.403657333701756"><ele>630.0</ele><time>2026-05-01T13:59:15Z</time></trkpt><trkpt lat="43.78180419748211" lon="7.403692912859991"><ele>627.3333333333334</ele><time>2026-05-01T13:59:16Z</time></trkpt><trkpt lat="43.78195838369233" lon="7.40372806173125"><ele>624.6666666666667</ele><time>2026-05-01T13:59:17Z</time></trkpt><trkpt lat="43.78210538832782" lon="7.40376278029846"><ele>622.0</ele><time>2026-05-01T13:59:18Z</time></trkpt><trkpt lat="43.782248016564" lon="7.4037955223887"><ele>622.0</ele><time>2026-05-01T13:59:19Z</time></trkpt><trkpt lat="43.78239300207263" lon="7.403824507361843"><ele>622.0</ele><time>2026-05-01T13:59:20Z</time></trkpt><trkpt lat="43.782538874112305" lon="7.403888062467721"><ele>622.0</ele><time>2026-05-01T13:59:21Z</time></trkpt><trkpt lat="43.782699913639455" lon="7.403877843905236"><ele>628.75</ele><time>2026-05-01T13:59:22Z</time></trkpt><trkpt lat="43.78285845634008" lon="7.403865697678203"><ele>635.5</ele><time>2026-05-01T13:59:23Z</time></trkpt><trkpt lat="43.78301129814208" lon="7.403881762162571"><ele>642.25</ele><time>2026-05-01T13:59:24Z</time></trkpt><trkpt lat="43.783146062879304" lon="7.4038749683486325"><ele>649.0</ele><time>2026-05-01T13:59:25Z</time></trkpt><trkpt lat="43.78326700765195" lon="7.403869279417679"><ele>649.0</ele><time>2026-05-01T13:59:26Z</time></trkpt><trkpt lat="43.783376940947846" lon="7.403875299552265"><ele>649.0</ele><time>2026-05-01T13:59:27Z</time></trkpt><trkpt lat="43.78347250659681" lon="7.403927458274228"><ele>649.0</ele><time>2026-05-01T13:59:28Z</time></trkpt><trkpt lat="43.78357557422776" lon="7.404017193919547"><ele>649.0</ele><time>2026-05-01T13:59:29Z</time></trkpt><trkpt lat="43.78369637464706" lon="7.40413140861815"><ele>647.0</ele><time>2026-05-01T13:59:30Z</time></trkpt><trkpt lat="43.78383538573339" lon="7.404249713045466"><ele>645.0</ele><time>2026-05-01T13:59:31Z</time></trkpt><trkpt lat="43.78395901412585" lon="7.4043674553487"><ele>643.0</ele><time>2026-05-01T13:59:32Z</time></trkpt><trkpt lat="43.784072455648094" lon="7.404466368375931"><ele>641.0</ele><time>2026-05-01T13:59:33Z</time></trkpt><trkpt lat="43.78416403519643" lon="7.404571207899322"><ele>641.0</ele><time>2026-05-01T13:59:34Z</time></trkpt><trkpt lat="43.78425132838159" lon="7.4046439343707995"><ele>641.0</ele><time>2026-05-01T13:59:35Z</time></trkpt><trkpt lat="43.784321198477464" lon="7.404712101716012"><ele>641.0</ele><time>2026-05-01T13:59:36Z</time></trkpt><trkpt lat="43.78438416745622" lon="7.404790578710419"><ele>641.0</ele><time>2026-05-01T13:59:37Z</time></trkpt><trkpt lat="43.7844138510929" lon="7.404892073471831"><ele>641.0</ele><time>2026-05-01T13:59:38Z</time></trkpt><trkpt lat="43.78438921160862" lon="7.405010045286071"><ele>641.0</ele><time>2026-05-01T13:59:39Z</time></trkpt><trkpt lat="43.784304731508016" lon="7.405087116315553"><ele>641.75</ele><time>2026-05-01T13:59:40Z</time></trkpt><trkpt lat="43.78422503282388" lon="7.405173884736983"><ele>642.5</ele><time>2026-05-01T13:59:41Z</time></trkpt><trkpt lat="43.784131715821175" lon="7.405254139466868"><ele>643.25</ele><time>2026-05-01T13:59:42Z</time></trkpt><trkpt lat="43.78406222839394" lon="7.405386683775174"><ele>644.0</ele><time>2026-05-01T13:59:43Z</time></trkpt><trkpt lat="43.78401652091858" lon="7.4055531903131495"><ele>644.0</ele><time>2026-05-01T13:59:44Z</time></trkpt><trkpt lat="43.78398843936443" lon="7.405742654198586"><ele>644.0</ele><time>2026-05-01T13:59:45Z</time></trkpt><trkpt lat="43.783942325967814" lon="7.405927161503206"><ele>644.0</ele><time>2026-05-01T13:59:46Z</time></trkpt><trkpt lat="43.78390603839905" lon="7.406121936803132"><ele>644.0</ele><time>2026-05-01T13:59:47Z</time></trkpt><trkpt lat="43.7838901325415" lon="7.406298143959145"><ele>645.25</ele><time>2026-05-01T13:59:48Z</time></trkpt><trkpt lat="43.78384596653916" lon="7.406448658953043"><ele>646.5</ele><time>2026-05-01T13:59:49Z</time></trkpt><trkpt lat="43.78384110750276" lon="7.406610340260728"><ele>647.75</ele><time>2026-05-01T13:59:50Z</time></trkpt><trkpt lat="43.783842263436135" lon="7.4067627650642205"><ele>649.0</ele><time>2026-05-01T13:59:51Z</time></trkpt><trkpt lat="43.78387368602704" lon="7.406914882875435"><ele>649.0</ele><time>2026-05-01T13:59:52Z</time></trkpt><trkpt lat="43.783938629545624" lon="7.4070524980542505"><ele>649.0</ele><time>2026-05-01T13:59:53Z</time></trkpt><trkpt lat="43.78402434299566" lon="7.407170352843488"><ele>649.0</ele><time>2026-05-01T13:59:54Z</time></trkpt><trkpt lat="43.78411727517099" lon="7.407267566880882"><ele>649.0</ele><time>2026-05-01T13:59:55Z</time></trkpt><trkpt lat="43.78422281465326" lon="7.4073361630545795"><ele>651.5</ele><time>2026-05-01T13:59:56Z</time></trkpt><trkpt lat="43.78433250329447" lon="7.4073870806348525"><ele>654.0</ele><time>2026-05-01T13:59:57Z</time></trkpt><trkpt lat="43.784448728303765" lon="7.407405067271028"><ele>656.5</ele><time>2026-05-01T13:59:58Z</time></trkpt><trkpt lat="43.78456700628857" lon="7.4073948374979235"><ele>659.0</ele><time>2026-05-01T13:59:59Z</time></trkpt><trkpt lat="43.784692255773344" lon="7.407360010206235"><ele>657.0</ele><time>2026-05-01T14:00:00Z</time></trkpt><trkpt lat="43.784822103887" lon="7.407301883327016"><ele>655.0</ele><time>2026-05-01T14:00:01Z</time></trkpt><trkpt lat="43.78495926575694" lon="7.4072269295386155"><ele>653.0</ele><time>2026-05-01T14:00:02Z</time></trkpt><trkpt lat="43.78509320487572" lon="7.407132606687972"><ele>651.0</ele><time>2026-05-01T14:00:03Z</time></trkpt><trkpt lat="43.785219701831366" lon="7.407009063955394"><ele>655.75</ele><time>2026-05-01T14:00:04Z</time></trkpt><trkpt lat="43.785341899351764" lon="7.4068885784134775"><ele>660.5</ele><time>2026-05-01T14:00:05Z</time></trkpt><trkpt lat="43.78545981793951" lon="7.406777743347273"><ele>665.25</ele><time>2026-05-01T14:00:06Z</time></trkpt><trkpt lat="43.785583832280935" lon="7.406666002471669"><ele>670.0</ele><time>2026-05-01T14:00:07Z</time></trkpt><trkpt lat="43.78570954856652" lon="7.4065577878064826"><ele>670.0</ele><time>2026-05-01T14:00:08Z</time></trkpt><trkpt lat="43.78583748621062" lon="7.406452294972651"><ele>670.0</ele><time>2026-05-01T14:00:09Z</time></trkpt><trkpt lat="43.785967415318574" lon="7.406350418372178"><ele>670.0</ele><time>2026-05-01T14:00:10Z</time></trkpt><trkpt lat="43.78609749031825" lon="7.4062448619885215"><ele>670.0</ele><time>2026-05-01T14:00:11Z</time></trkpt><trkpt lat="43.786228288077204" lon="7.406136554795342"><ele>668.25</ele><time>2026-05-01T14:00:12Z</time></trkpt><trkpt lat="43.78635544108119" lon="7.406038635569638"><ele>666.5</ele><time>2026-05-01T14:00:13Z</time></trkpt><trkpt lat="43.78648558971404" lon="7.405950494292128"><ele>664.75</ele><time>2026-05-01T14:00:14Z</time></trkpt><trkpt lat="43.78662348815607" lon="7.405874944215665"><ele>663.0</ele><time>2026-05-01T14:00:15Z</time></trkpt><trkpt lat="43.78675296928728" lon="7.405812607947124"><ele>662.25</ele><time>2026-05-01T14:00:16Z</time></trkpt><trkpt lat="43.7868806079325" lon="7.405751562067236"><ele>661.5</ele><time>2026-05-01T14:00:17Z</time></trkpt><trkpt lat="43.78698015083872" lon="7.405695666623571"><ele>660.75</ele><time>2026-05-01T14:00:18Z</time></trkpt><trkpt lat="43.78708704416577" lon="7.405579349681732"><ele>660.0</ele><time>2026-05-01T14:00:19Z</time></trkpt><trkpt lat="43.78716413122517" lon="7.405425605631533"><ele>660.0</ele><time>2026-05-01T14:00:20Z</time></trkpt><trkpt lat="43.78721915251108" lon="7.40523746682513"><ele>660.0</ele><time>2026-05-01T14:00:21Z</time></trkpt><trkpt lat="43.78726357638597" lon="7.405054153596117"><ele>660.0</ele><time>2026-05-01T14:00:22Z</time></trkpt><trkpt lat="43.787343544916745" lon="7.404910147292377"><ele>660.0</ele><time>2026-05-01T14:00:23Z</time></trkpt><trkpt lat="43.78741869145529" lon="7.404760663971219"><ele>660.5</ele><time>2026-05-01T14:00:24Z</time></trkpt><trkpt lat="43.78752870971684" lon="7.404635226465864"><ele>661.0</ele><time>2026-05-01T14:00:25Z</time></trkpt><trkpt lat="43.78764935854719" lon="7.404538123686748"><ele>661.5</ele><time>2026-05-01T14:00:26Z</time></trkpt><trkpt lat="43.787782729836984" lon="7.4044547745445755"><ele>662.0</ele><time>2026-05-01T14:00:27Z</time></trkpt><trkpt lat="43.787916935191475" lon="7.404380727481472"><ele>662.0</ele><time>2026-05-01T14:00:28Z</time></trkpt><trkpt lat="43.78804979169486" lon="7.404318780322019"><ele>662.0</ele><time>2026-05-01T14:00:29Z</time></trkpt><trkpt lat="43.788183722422204" lon="7.4043013600827035"><ele>662.0</ele><time>2026-05-01T14:00:30Z</time></trkpt><trkpt lat="43.788314383312034" lon="7.404291702838376"><ele>662.0</ele><time>2026-05-01T14:00:31Z</time></trkpt><trkpt lat="43.78844450867433" lon="7.404274558918682"><ele>664.75</ele><time>2026-05-01T14:00:32Z</time></trkpt><trkpt lat="43.788572543106106" lon="7.404255920507544"><ele>667.5</ele><time>2026-05-01T14:00:33Z</time></trkpt><trkpt lat="43.788691231136276" lon="7.404192167648281"><ele>670.25</ele><time>2026-05-01T14:00:34Z</time></trkpt><trkpt lat="43.78879176438343" lon="7.404080843008623"><ele>673.0</ele><time>2026-05-01T14:00:35Z</time></trkpt><trkpt lat="43.78886485464415" lon="7.403924669591644"><ele>671.0</ele><time>2026-05-01T14:00:36Z</time></trkpt><trkpt lat="43.78891679764864" lon="7.40373843810371"><ele>669.0</ele><time>2026-05-01T14:00:37Z</time></trkpt><trkpt lat="43.7889711843306" lon="7.403544098732994"><ele>667.0</ele><time>2026-05-01T14:00:38Z</time></trkpt><trkpt lat="43.789037744882044" lon="7.4033538382438255"><ele>665.0</ele><time>2026-05-01T14:00:39Z</time></trkpt><trkpt lat="43.78910988392698" lon="7.403174997853508"><ele>665.0</ele><time>2026-05-01T14:00:40Z</time></trkpt><trkpt lat="43.789184072068196" lon="7.403012347981707"><ele>665.0</ele><time>2026-05-01T14:00:41Z</time></trkpt><trkpt lat="43.78928012792291" lon="7.402859559119498"><ele>665.0</ele><time>2026-05-01T14:00:42Z</time></trkpt><trkpt lat="43.78939118388345" lon="7.4027093672812105"><ele>665.0</ele><time>2026-05-01T14:00:43Z</time></trkpt><trkpt lat="43.78950120791801" lon="7.402560645878997"><ele>664.0</ele><time>2026-05-01T14:00:44Z</time></trkpt><trkpt lat="43.78961475500582" lon="7.402400531722388"><ele>663.0</ele><time>2026-05-01T14:00:45Z</time></trkpt><trkpt lat="43.78972826520945" lon="7.402236661411533"><ele>662.0</ele><time>2026-05-01T14:00:46Z</time></trkpt><trkpt lat="43.78984000281318" lon="7.402073283891357"><ele>662.0</ele><time>2026-05-01T14:00:47Z</time></trkpt><trkpt lat="43.78994863491896" lon="7.4019090491882995"><ele>662.0</ele><time>2026-05-01T14:00:48Z</time></trkpt><trkpt lat="43.79005966980345" lon="7.401744457483679"><ele>662.0</ele><time>2026-05-01T14:00:49Z</time></trkpt><trkpt lat="43.79016044873346" lon="7.401588106462529"><ele>661.75</ele><time>2026-05-01T14:00:50Z</time></trkpt><trkpt lat="43.79025375491311" lon="7.4014467870091005"><ele>661.5</ele><time>2026-05-01T14:00:51Z</time></trkpt><trkpt lat="43.79036422484342" lon="7.401362227825246"><ele>661.25</ele><time>2026-05-01T14:00:52Z</time></trkpt><trkpt lat="43.79048231369059" lon="7.4013131907011624"><ele>661.0</ele><time>2026-05-01T14:00:53Z</time></trkpt><trkpt lat="43.79061752105836" lon="7.4012716065220525"><ele>661.0</ele><time>2026-05-01T14:00:54Z</time></trkpt><trkpt lat="43.79076480107192" lon="7.401207803425187"><ele>661.0</ele><time>2026-05-01T14:00:55Z</time></trkpt><trkpt lat="43.790917499250746" lon="7.401159593794051"><ele>661.0</ele><time>2026-05-01T14:00:56Z</time></trkpt><trkpt lat="43.79106843483962" lon="7.401109148938804"><ele>663.6666666666667</ele><time>2026-05-01T14:00:57Z</time></trkpt><trkpt lat="43.791221706443686" lon="7.401063523618252"><ele>666.3333333333334</ele><time>2026-05-01T14:00:58Z</time></trkpt><trkpt lat="43.791373230608386" lon="7.401018528922189"><ele>669.0</ele><time>2026-05-01T14:00:59Z</time></trkpt><trkpt lat="43.79151305803688" lon="7.400969995010913"><ele>669.0</ele><time>2026-05-01T14:01:00Z</time></trkpt><trkpt lat="43.79165258854818" lon="7.40092928075797"><ele>669.0</ele><time>2026-05-01T14:01:01Z</time></trkpt><trkpt lat="43.791783912468" lon="7.400869765115117"><ele>669.0</ele><time>2026-05-01T14:01:02Z</time></trkpt><trkpt lat="43.79190446622616" lon="7.400802568202089"><ele>669.0</ele><time>2026-05-01T14:01:03Z</time></trkpt><trkpt lat="43.79201363797761" lon="7.400714544484147"><ele>669.5</ele><time>2026-05-01T14:01:04Z</time></trkpt><trkpt lat="43.79211065872834" lon="7.400610455647778"><ele>670.0</ele><time>2026-05-01T14:01:05Z</time></trkpt><trkpt lat="43.792202504333474" lon="7.400509102464524"><ele>670.5</ele><time>2026-05-01T14:01:06Z</time></trkpt><trkpt lat="43.79229812285988" lon="7.400417917208091"><ele>671.0</ele><time>2026-05-01T14:01:07Z</time></trkpt><trkpt lat="43.792388657317574" lon="7.400330890587535"><ele>671.0</ele><time>2026-05-01T14:01:08Z</time></trkpt><trkpt lat="43.792469073865014" lon="7.400251866130519"><ele>671.0</ele><time>2026-05-01T14:01:09Z</time></trkpt><trkpt lat="43.79254108495781" lon="7.400183988365512"><ele>671.0</ele><time>2026-05-01T14:01:10Z</time></trkpt><trkpt lat="43.79261095746358" lon="7.400128253140784"><ele>671.0</ele><time>2026-05-01T14:01:11Z</time></trkpt><trkpt lat="43.79268527329849" lon="7.40006559229594"><ele>671.0</ele><time>2026-05-01T14:01:12Z</time></trkpt><trkpt lat="43.79275543207405" lon="7.3999828734789554"><ele>671.0</ele><time>2026-05-01T14:01:13Z</time></trkpt><trkpt lat="43.792817773327975" lon="7.399895917402848"><ele>672.4</ele><time>2026-05-01T14:01:14Z</time></trkpt><trkpt lat="43.79288393616748" lon="7.399793790729816"><ele>673.8</ele><time>2026-05-01T14:01:15Z</time></trkpt><trkpt lat="43.79295752587315" lon="7.399700515614203"><ele>675.1999999999999</ele><time>2026-05-01T14:01:16Z</time></trkpt><trkpt lat="43.793037641195816" lon="7.399633583927581"><ele>676.5999999999999</ele><time>2026-05-01T14:01:17Z</time></trkpt><trkpt lat="43.79312628285001" lon="7.399595786642891"><ele>678.0</ele><time>2026-05-01T14:01:18Z</time></trkpt><trkpt lat="43.79321731145905" lon="7.399631905649175"><ele>678.0</ele><time>2026-05-01T14:01:19Z</time></trkpt><trkpt lat="43.79329840037732" lon="7.3996682840076184"><ele>678.0</ele><time>2026-05-01T14:01:20Z</time></trkpt><trkpt lat="43.79336407515027" lon="7.39977147262954"><ele>678.0</ele><time>2026-05-01T14:01:21Z</time></trkpt><trkpt lat="43.79344670895225" lon="7.399889613777073"><ele>678.0</ele><time>2026-05-01T14:01:22Z</time></trkpt><trkpt lat="43.79354540219085" lon="7.400023470300303"><ele>678.0</ele><time>2026-05-01T14:01:23Z</time></trkpt><trkpt lat="43.793646803287274" lon="7.400129361197131"><ele>674.0</ele><time>2026-05-01T14:01:24Z</time></trkpt><trkpt lat="43.793720691336674" lon="7.400256338522992"><ele>670.0</ele><time>2026-05-01T14:01:25Z</time></trkpt><trkpt lat="43.79380298372855" lon="7.4003627171743585"><ele>666.0</ele><time>2026-05-01T14:01:26Z</time></trkpt><trkpt lat="43.79387399031421" lon="7.400453270596602"><ele>662.0</ele><time>2026-05-01T14:01:27Z</time></trkpt><trkpt lat="43.79392397386301" lon="7.400534630096151"><ele>658.0</ele><time>2026-05-01T14:01:28Z</time></trkpt><trkpt lat="43.79394466095328" lon="7.400632231537583"><ele>658.0</ele><time>2026-05-01T14:01:29Z</time></trkpt><trkpt lat="43.79392596547333" lon="7.400740690598363"><ele>658.0</ele><time>2026-05-01T14:01:30Z</time></trkpt><trkpt lat="43.79391335560941" lon="7.400876960472022"><ele>658.0</ele><time>2026-05-01T14:01:31Z</time></trkpt><trkpt lat="43.793897290226305" lon="7.401032841068132"><ele>658.0</ele><time>2026-05-01T14:01:32Z</time></trkpt><trkpt lat="43.79388100814053" lon="7.401200513241343"><ele>658.0</ele><time>2026-05-01T14:01:33Z</time></trkpt><trkpt lat="43.79388383378545" lon="7.401360050572115"><ele>663.75</ele><time>2026-05-01T14:01:34Z</time></trkpt><trkpt lat="43.793938365465166" lon="7.4015112868483675"><ele>669.5</ele><time>2026-05-01T14:01:35Z</time></trkpt><trkpt lat="43.79398643107683" lon="7.401670533694216"><ele>675.25</ele><time>2026-05-01T14:01:36Z</time></trkpt><trkpt lat="43.7940896606623" lon="7.401789891952951"><ele>681.0</ele><time>2026-05-01T14:01:37Z</time></trkpt><trkpt lat="43.79419139496904" lon="7.401900015244066"><ele>681.0</ele><time>2026-05-01T14:01:38Z</time></trkpt><trkpt lat="43.79426801689537" lon="7.402025901885668"><ele>681.0</ele><time>2026-05-01T14:01:39Z</time></trkpt><trkpt lat="43.79433611634399" lon="7.4021549617201"><ele>681.0</ele><time>2026-05-01T14:01:40Z</time></trkpt><trkpt lat="43.79439242235466" lon="7.402289963542203"><ele>681.0</ele><time>2026-05-01T14:01:41Z</time></trkpt><trkpt lat="43.79443345477287" lon="7.402447227950952"><ele>673.0</ele><time>2026-05-01T14:01:42Z</time></trkpt><trkpt lat="43.79447144452091" lon="7.402608457726676"><ele>665.0</ele><time>2026-05-01T14:01:43Z</time></trkpt><trkpt lat="43.79452011684148" lon="7.402751836964598"><ele>657.0</ele><time>2026-05-01T14:01:44Z</time></trkpt><trkpt lat="43.79461132561465" lon="7.40290430316331"><ele>649.0</ele><time>2026-05-01T14:01:45Z</time></trkpt><trkpt lat="43.79471696859078" lon="7.402970629252031"><ele>658.75</ele><time>2026-05-01T14:01:46Z</time></trkpt><trkpt lat="43.794841241277844" lon="7.403057972848921"><ele>668.5</ele><time>2026-05-01T14:01:47Z</time></trkpt><trkpt lat="43.794938606184516" lon="7.403188504463637"><ele>678.25</ele><time>2026-05-01T14:01:48Z</time></trkpt><trkpt lat="43.79504292356131" lon="7.403325913925852"><ele>688.0</ele><time>2026-05-01T14:01:49Z</time></trkpt><trkpt lat="43.79513664428704" lon="7.403456284309941"><ele>687.25</ele><time>2026-05-01T14:01:50Z</time></trkpt><trkpt lat="43.79521071240052" lon="7.403587068131674"><ele>686.5</ele><time>2026-05-01T14:01:51Z</time></trkpt><trkpt lat="43.79527978375498" lon="7.403724905366683"><ele>685.75</ele><time>2026-05-01T14:01:52Z</time></trkpt><trkpt lat="43.79538304125009" lon="7.403832457804482"><ele>685.0</ele><time>2026-05-01T14:01:53Z</time></trkpt><trkpt lat="43.79549847920721" lon="7.403929784090831"><ele>685.0</ele><time>2026-05-01T14:01:54Z</time></trkpt><trkpt lat="43.79562460319734" lon="7.404005428704697"><ele>685.0</ele><time>2026-05-01T14:01:55Z</time></trkpt><trkpt lat="43.79573610207186" lon="7.404072826037963"><ele>685.0</ele><time>2026-05-01T14:01:56Z</time></trkpt><trkpt lat="43.7958431949132" lon="7.404132315096424"><ele>685.0</ele><time>2026-05-01T14:01:57Z</time></trkpt><trkpt lat="43.79595388634591" lon="7.404166690664997"><ele>677.8</ele><time>2026-05-01T14:01:58Z</time></trkpt><trkpt lat="43.79608096136712" lon="7.404158555419029"><ele>670.6</ele><time>2026-05-01T14:01:59Z</time></trkpt><trkpt lat="43.79618411700451" lon="7.404152506822879"><ele>663.4000000000001</ele><time>2026-05-01T14:02:00Z</time></trkpt><trkpt lat="43.79627943353371" lon="7.404196122979118"><ele>656.2</ele><time>2026-05-01T14:02:01Z</time></trkpt><trkpt lat="43.79636198384915" lon="7.404301247707854"><ele>649.0</ele><time>2026-05-01T14:02:02Z</time></trkpt><trkpt lat="43.79644848717651" lon="7.4043920516025254"><ele>649.0</ele><time>2026-05-01T14:02:03Z</time></trkpt><trkpt lat="43.79651450055043" lon="7.404503579587922"><ele>649.0</ele><time>2026-05-01T14:02:04Z</time></trkpt><trkpt lat="43.79655444921227" lon="7.40465771817737"><ele>649.0</ele><time>2026-05-01T14:02:05Z</time></trkpt><trkpt lat="43.796607511915276" lon="7.404809021970445"><ele>649.0</ele><time>2026-05-01T14:02:06Z</time></trkpt><trkpt lat="43.796641958022065" lon="7.404944558797664"><ele>649.0</ele><time>2026-05-01T14:02:07Z</time></trkpt><trkpt lat="43.79670500565249" lon="7.4050490523192245"><ele>652.25</ele><time>2026-05-01T14:02:08Z</time></trkpt><trkpt lat="43.79679966152585" lon="7.405109611462572"><ele>655.5</ele><time>2026-05-01T14:02:09Z</time></trkpt><trkpt lat="43.7969229152538" lon="7.405117069609724"><ele>658.75</ele><time>2026-05-01T14:02:10Z</time></trkpt><trkpt lat="43.79704405809827" lon="7.405126767339262"><ele>662.0</ele><time>2026-05-01T14:02:11Z</time></trkpt><trkpt lat="43.79715085955716" lon="7.405066604466411"><ele>662.0</ele><time>2026-05-01T14:02:12Z</time></trkpt><trkpt lat="43.79724085943876" lon="7.404989797300305"><ele>662.0</ele><time>2026-05-01T14:02:13Z</time></trkpt><trkpt lat="43.79733948465333" lon="7.404946085361967"><ele>662.0</ele><time>2026-05-01T14:02:14Z</time></trkpt><trkpt lat="43.797419516762034" lon="7.404915114549308"><ele>662.0</ele><time>2026-05-01T14:02:15Z</time></trkpt><trkpt lat="43.79748372718228" lon="7.404949128113135"><ele>662.0</ele><time>2026-05-01T14:02:16Z</time></trkpt><trkpt lat="43.79755631813522" lon="7.405053438838316"><ele>661.75</ele><time>2026-05-01T14:02:17Z</time></trkpt><trkpt lat="43.797676308749345" lon="7.405148519451357"><ele>661.5</ele><time>2026-05-01T14:02:18Z</time></trkpt><trkpt lat="43.797788955090795" lon="7.405251918948018"><ele>661.25</ele><time>2026-05-01T14:02:19Z</time></trkpt><trkpt lat="43.79789043686768" lon="7.405333656733337"><ele>661.0</ele><time>2026-05-01T14:02:20Z</time></trkpt><trkpt lat="43.79798464910885" lon="7.405387254060241"><ele>661.0</ele><time>2026-05-01T14:02:21Z</time></trkpt><trkpt lat="43.79808528604657" lon="7.4053601203083"><ele>661.0</ele><time>2026-05-01T14:02:22Z</time></trkpt><trkpt lat="43.798210911309674" lon="7.405281199554828"><ele>661.0</ele><time>2026-05-01T14:02:23Z</time></trkpt><trkpt lat="43.79833785632678" lon="7.405238950042209"><ele>661.0</ele><time>2026-05-01T14:02:24Z</time></trkpt><trkpt lat="43.798413915149126" lon="7.4051240034319274"><ele>661.0</ele><time>2026-05-01T14:02:25Z</time></trkpt><trkpt lat="43.79847970980298" lon="7.405055346976057"><ele>661.0</ele><time>2026-05-01T14:02:26Z</time></trkpt><trkpt lat="43.79854449190044" lon="7.405009714993726"><ele>661.0</ele><time>2026-05-01T14:02:27Z</time></trkpt><trkpt lat="43.79861794721968" lon="7.404968264773227"><ele>661.0</ele><time>2026-05-01T14:02:28Z</time></trkpt><trkpt lat="43.79872599055053" lon="7.405002929128094"><ele>661.0</ele><time>2026-05-01T14:02:29Z</time></trkpt><trkpt lat="43.79880622592858" lon="7.405067936168628"><ele>661.0</ele><time>2026-05-01T14:02:30Z</time></trkpt><trkpt lat="43.79887511207003" lon="7.4051538521700655"><ele>658.5</ele><time>2026-05-01T14:02:31Z</time></trkpt><trkpt lat="43.799045379538946" lon="7.405297637154202"><ele>656.0</ele><time>2026-05-01T14:02:32Z</time></trkpt><trkpt lat="43.79916539010079" lon="7.40532517309706"><ele>653.5</ele><time>2026-05-01T14:02:33Z</time></trkpt><trkpt lat="43.79928384398" lon="7.405357198291675"><ele>651.0</ele><time>2026-05-01T14:02:34Z</time></trkpt><trkpt lat="43.79939627524791" lon="7.405342097866662"><ele>650.1999999999999</ele><time>2026-05-01T14:02:35Z</time></trkpt><trkpt lat="43.79950381943876" lon="7.405278075749562"><ele>649.4</ele><time>2026-05-01T14:02:36Z</time></trkpt><trkpt lat="43.79958325505999" lon="7.405169201665096"><ele>648.6</ele><time>2026-05-01T14:02:37Z</time></trkpt><trkpt lat="43.79964877893189" lon="7.405061954219197"><ele>647.8</ele><time>2026-05-01T14:02:38Z</time></trkpt><trkpt lat="43.79972369241249" lon="7.404991779717832"><ele>647.0</ele><time>2026-05-01T14:02:39Z</time></trkpt><trkpt lat="43.79981830938025" lon="7.404978184280905"><ele>647.0</ele><time>2026-05-01T14:02:40Z</time></trkpt><trkpt lat="43.79991085571045" lon="7.40502208822866"><ele>647.0</ele><time>2026-05-01T14:02:41Z</time></trkpt><trkpt lat="43.79998716421898" lon="7.405132418778577"><ele>647.0</ele><time>2026-05-01T14:02:42Z</time></trkpt><trkpt lat="43.800052173098216" lon="7.405276780195565"><ele>647.0</ele><time>2026-05-01T14:02:43Z</time></trkpt><trkpt lat="43.80012495369909" lon="7.405382928714401"><ele>647.0</ele><time>2026-05-01T14:02:44Z</time></trkpt><trkpt lat="43.80022662507693" lon="7.4054570738750805"><ele>647.25</ele><time>2026-05-01T14:02:45Z</time></trkpt><trkpt lat="43.800301562061094" lon="7.405577586825404"><ele>647.5</ele><time>2026-05-01T14:02:46Z</time></trkpt><trkpt lat="43.800361726000936" lon="7.405740606577228"><ele>647.75</ele><time>2026-05-01T14:02:47Z</time></trkpt><trkpt lat="43.80041709100946" lon="7.405896421798901"><ele>648.0</ele><time>2026-05-01T14:02:48Z</time></trkpt><trkpt lat="43.800503281061204" lon="7.406019320135335"><ele>648.0</ele><time>2026-05-01T14:02:49Z</time></trkpt><trkpt lat="43.80061855997056" lon="7.406106550118701"><ele>648.0</ele><time>2026-05-01T14:02:50Z</time></trkpt><trkpt lat="43.80073307891561" lon="7.406161387612474"><ele>648.0</ele><time>2026-05-01T14:02:51Z</time></trkpt><trkpt lat="43.80084278457299" lon="7.4061778052967435"><ele>648.0</ele><time>2026-05-01T14:02:52Z</time></trkpt><trkpt lat="43.800948825449204" lon="7.406167415282388"><ele>651.2</ele><time>2026-05-01T14:02:53Z</time></trkpt><trkpt lat="43.80103722072862" lon="7.406126215559646"><ele>654.4</ele><time>2026-05-01T14:02:54Z</time></trkpt><trkpt lat="43.80112361080202" lon="7.406046390304818"><ele>657.6</ele><time>2026-05-01T14:02:55Z</time></trkpt><trkpt lat="43.801213902165756" lon="7.405953058394862"><ele>660.8000000000001</ele><time>2026-05-01T14:02:56Z</time></trkpt><trkpt lat="43.80130020544894" lon="7.405869831450555"><ele>664.0</ele><time>2026-05-01T14:02:57Z</time></trkpt><trkpt lat="43.80138006275165" lon="7.405790971195329"><ele>664.0</ele><time>2026-05-01T14:02:58Z</time></trkpt><trkpt lat="43.80146285268998" lon="7.405776132584816"><ele>664.0</ele><time>2026-05-01T14:02:59Z</time></trkpt><trkpt lat="43.80155411648911" lon="7.405818949681131"><ele>664.0</ele><time>2026-05-01T14:03:00Z</time></trkpt><trkpt lat="43.80164241044415" lon="7.405863525422543"><ele>664.0</ele><time>2026-05-01T14:03:01Z</time></trkpt><trkpt lat="43.80179934749633" lon="7.405788444710446"><ele>664.0</ele><time>2026-05-01T14:03:02Z</time></trkpt><trkpt lat="43.80189399040764" lon="7.405835040887226"><ele>669.75</ele><time>2026-05-01T14:03:03Z</time></trkpt><trkpt lat="43.80198914067273" lon="7.405811400470951"><ele>675.5</ele><time>2026-05-01T14:03:04Z</time></trkpt><trkpt lat="43.8021260611345" lon="7.405724159136342"><ele>681.25</ele><time>2026-05-01T14:03:05Z</time></trkpt><trkpt lat="43.80226960166065" lon="7.405662803957229"><ele>687.0</ele><time>2026-05-01T14:03:06Z</time></trkpt><trkpt lat="43.802410696832325" lon="7.405591084220712"><ele>687.0</ele><time>2026-05-01T14:03:07Z</time></trkpt><trkpt lat="43.80253447843845" lon="7.405546074267537"><ele>687.0</ele><time>2026-05-01T14:03:08Z</time></trkpt><trkpt lat="43.80265908405398" lon="7.40550243786989"><ele>687.0</ele><time>2026-05-01T14:03:09Z</time></trkpt><trkpt lat="43.80277282927181" lon="7.40543542543021"><ele>687.0</ele><time>2026-05-01T14:03:10Z</time></trkpt><trkpt lat="43.802868129857735" lon="7.405317686517323"><ele>683.0</ele><time>2026-05-01T14:03:11Z</time></trkpt><trkpt lat="43.80294820439563" lon="7.405206244214007"><ele>679.0</ele><time>2026-05-01T14:03:12Z</time></trkpt><trkpt lat="43.80300816904401" lon="7.405117241136196"><ele>675.0</ele><time>2026-05-01T14:03:13Z</time></trkpt><trkpt lat="43.80304071696059" lon="7.4050273404601565"><ele>671.0</ele><time>2026-05-01T14:03:14Z</time></trkpt><trkpt lat="43.80307505244604" lon="7.4048281491341665"><ele>667.0</ele><time>2026-05-01T14:03:16Z</time></trkpt><trkpt lat="43.80315847308973" lon="7.4047315469138315"><ele>657.8000000000001</ele><time>2026-05-01T14:03:17Z</time></trkpt><trkpt lat="43.80315712160924" lon="7.404516912846292"><ele>648.6</ele><time>2026-05-01T14:03:18Z</time></trkpt><trkpt lat="43.803163897901" lon="7.404393047394902"><ele>639.4000000000001</ele><time>2026-05-01T14:03:19Z</time></trkpt><trkpt lat="43.80322119421439" lon="7.404309562813345"><ele>630.2</ele><time>2026-05-01T14:03:20Z</time></trkpt><trkpt lat="43.80331404250425" lon="7.404247094884195"><ele>621.0</ele><time>2026-05-01T14:03:21Z</time></trkpt><trkpt lat="43.80342000605874" lon="7.404212373533466"><ele>627.25</ele><time>2026-05-01T14:03:22Z</time></trkpt><trkpt lat="43.80352959525351" lon="7.4042001811484335"><ele>633.5</ele><time>2026-05-01T14:03:23Z</time></trkpt><trkpt lat="43.803650073346006" lon="7.404214260109909"><ele>639.75</ele><time>2026-05-01T14:03:24Z</time></trkpt><trkpt lat="43.80377431329317" lon="7.404231847281734"><ele>646.0</ele><time>2026-05-01T14:03:25Z</time></trkpt><trkpt lat="43.803888102787795" lon="7.404230939907001"><ele>646.0</ele><time>2026-05-01T14:03:26Z</time></trkpt><trkpt lat="43.80399376660643" lon="7.404233363802582"><ele>646.0</ele><time>2026-05-01T14:03:27Z</time></trkpt><trkpt lat="43.80408712567835" lon="7.4042565388567265"><ele>646.0</ele><time>2026-05-01T14:03:28Z</time></trkpt><trkpt lat="43.804160716437046" lon="7.404262982962077"><ele>646.0</ele><time>2026-05-01T14:03:29Z</time></trkpt><trkpt lat="43.80423281844799" lon="7.404261728566747"><ele>646.0</ele><time>2026-05-01T14:03:30Z</time></trkpt><trkpt lat="43.80430306989869" lon="7.404330802215417"><ele>646.0</ele><time>2026-05-01T14:03:31Z</time></trkpt><trkpt lat="43.80437525700984" lon="7.4043699462817"><ele>649.1999999999999</ele><time>2026-05-01T14:03:32Z</time></trkpt><trkpt lat="43.80444447112931" lon="7.404386082894706"><ele>652.4</ele><time>2026-05-01T14:03:33Z</time></trkpt><trkpt lat="43.80452239290263" lon="7.404341340665268"><ele>655.6</ele><time>2026-05-01T14:03:34Z</time></trkpt><trkpt lat="43.80458597207928" lon="7.404240143820219"><ele>658.8</ele><time>2026-05-01T14:03:35Z</time></trkpt><trkpt lat="43.80461405764201" lon="7.404108398963615"><ele>662.0</ele><time>2026-05-01T14:03:36Z</time></trkpt><trkpt lat="43.8046279974336" lon="7.40396661720469"><ele>666.2</ele><time>2026-05-01T14:03:37Z</time></trkpt><trkpt lat="43.8046356847993" lon="7.403824573161871"><ele>670.4000000000001</ele><time>2026-05-01T14:03:38Z</time></trkpt><trkpt lat="43.804645271576476" lon="7.403701814817738"><ele>674.5999999999999</ele><time>2026-05-01T14:03:39Z</time></trkpt><trkpt lat="43.804638937977394" lon="7.403580014828175"><ele>678.8</ele><time>2026-05-01T14:03:40Z</time></trkpt><trkpt lat="43.804603946662645" lon="7.403461370059922"><ele>683.0</ele><time>2026-05-01T14:03:41Z</time></trkpt><trkpt lat="43.804549274559406" lon="7.403360943877171"><ele>683.0</ele><time>2026-05-01T14:03:42Z</time></trkpt><trkpt lat="43.80446540361022" lon="7.403288743141612"><ele>683.0</ele><time>2026-05-01T14:03:43Z</time></trkpt><trkpt lat="43.80436208872788" lon="7.403260072608543"><ele>683.0</ele><time>2026-05-01T14:03:44Z</time></trkpt><trkpt lat="43.804258235730366" lon="7.403251966076186"><ele>683.0</ele><time>2026-05-01T14:03:45Z</time></trkpt><trkpt lat="43.80416517675572" lon="7.403236369539848"><ele>683.0</ele><time>2026-05-01T14:03:46Z</time></trkpt><trkpt lat="43.80408667875392" lon="7.403169444231682"><ele>680.8</ele><time>2026-05-01T14:03:47Z</time></trkpt><trkpt lat="43.80401357795811" lon="7.403095848538436"><ele>678.5999999999999</ele><time>2026-05-01T14:03:48Z</time></trkpt><trkpt lat="43.80393950379956" lon="7.403008804222649"><ele>676.4000000000001</ele><time>2026-05-01T14:03:49Z</time></trkpt><trkpt lat="43.80386335861598" lon="7.4029226444019995"><ele>674.2</ele><time>2026-05-01T14:03:50Z</time></trkpt><trkpt lat="43.803831060347655" lon="7.4027995545860765"><ele>672.0</ele><time>2026-05-01T14:03:51Z</time></trkpt><trkpt lat="43.803790332355135" lon="7.402684621276272"><ele>672.0</ele><time>2026-05-01T14:03:52Z</time></trkpt><trkpt lat="43.80374351915856" lon="7.402575243965279"><ele>672.0</ele><time>2026-05-01T14:03:53Z</time></trkpt><trkpt lat="43.80370241138521" lon="7.402458810713783"><ele>672.0</ele><time>2026-05-01T14:03:54Z</time></trkpt><trkpt lat="43.80366065732936" lon="7.402344670864156"><ele>672.0</ele><time>2026-05-01T14:03:55Z</time></trkpt><trkpt lat="43.8036205757665" lon="7.402234930948411"><ele>672.0</ele><time>2026-05-01T14:03:56Z</time></trkpt><trkpt lat="43.80358629617443" lon="7.402121804615806"><ele>673.8</ele><time>2026-05-01T14:03:57Z</time></trkpt><trkpt lat="43.803553477231134" lon="7.402021017644461"><ele>675.6</ele><time>2026-05-01T14:03:58Z</time></trkpt><trkpt lat="43.8035229851933" lon="7.401938770522171"><ele>677.4</ele><time>2026-05-01T14:03:59Z</time></trkpt><trkpt lat="43.80350195003546" lon="7.401773515580068"><ele>679.1999999999999</ele><time>2026-05-01T14:04:01Z</time></trkpt><trkpt lat="43.80352290986502" lon="7.4015790274035576"><ele>681.0</ele><time>2026-05-01T14:04:03Z</time></trkpt><trkpt lat="43.80352087771456" lon="7.401459970283886"><ele>681.0</ele><time>2026-05-01T14:04:04Z</time></trkpt><trkpt lat="43.80353859197645" lon="7.401343285233209"><ele>681.0</ele><time>2026-05-01T14:04:05Z</time></trkpt><trkpt lat="43.80354734396293" lon="7.401230567283087"><ele>681.0</ele><time>2026-05-01T14:04:06Z</time></trkpt><trkpt lat="43.803543839039314" lon="7.401109237460365"><ele>681.0</ele><time>2026-05-01T14:04:07Z</time></trkpt><trkpt lat="43.8035322636104" lon="7.4009848757368015"><ele>681.0</ele><time>2026-05-01T14:04:08Z</time></trkpt><trkpt lat="43.80351450123611" lon="7.400864420795097"><ele>681.0</ele><time>2026-05-01T14:04:09Z</time></trkpt><trkpt lat="43.803489546937136" lon="7.400744902472683"><ele>676.8</ele><time>2026-05-01T14:04:10Z</time></trkpt><trkpt lat="43.803451655964736" lon="7.400631206710294"><ele>672.5999999999999</ele><time>2026-05-01T14:04:11Z</time></trkpt><trkpt lat="43.803405694476766" lon="7.40051528267553"><ele>668.4</ele><time>2026-05-01T14:04:12Z</time></trkpt><trkpt lat="43.803352896933625" lon="7.400405154515251"><ele>664.2</ele><time>2026-05-01T14:04:13Z</time></trkpt><trkpt lat="43.80330139503805" lon="7.400301564859575"><ele>660.0</ele><time>2026-05-01T14:04:14Z</time></trkpt><trkpt lat="43.803251299631924" lon="7.400199240390612"><ele>660.0</ele><time>2026-05-01T14:04:15Z</time></trkpt><trkpt lat="43.80320395375065" lon="7.400092503200893"><ele>660.0</ele><time>2026-05-01T14:04:16Z</time></trkpt><trkpt lat="43.80315878605592" lon="7.399997935893763"><ele>660.0</ele><time>2026-05-01T14:04:17Z</time></trkpt><trkpt lat="43.80310949841942" lon="7.399886290875089"><ele>660.0</ele><time>2026-05-01T14:04:18Z</time></trkpt><trkpt lat="43.80306062768909" lon="7.399771821428089"><ele>660.0</ele><time>2026-05-01T14:04:19Z</time></trkpt><trkpt lat="43.80301349131246" lon="7.399659822745164"><ele>663.0</ele><time>2026-05-01T14:04:20Z</time></trkpt><trkpt lat="43.80296420966694" lon="7.399553026311683"><ele>666.0</ele><time>2026-05-01T14:04:21Z</time></trkpt><trkpt lat="43.80291685833416" lon="7.399453510716845"><ele>669.0</ele><time>2026-05-01T14:04:22Z</time></trkpt><trkpt lat="43.802874965701626" lon="7.399363715986412"><ele>672.0</ele><time>2026-05-01T14:04:23Z</time></trkpt><trkpt lat="43.802835696014284" lon="7.399278847785092"><ele>675.0</ele><time>2026-05-01T14:04:24Z</time></trkpt><trkpt lat="43.8027555964724" lon="7.399153832536605"><ele>678.0</ele><time>2026-05-01T14:04:26Z</time></trkpt><trkpt lat="43.8026842083924" lon="7.399051508979452"><ele>669.6</ele><time>2026-05-01T14:04:28Z</time></trkpt><trkpt lat="43.802648558662014" lon="7.398888551139655"><ele>661.1999999999999</ele><time>2026-05-01T14:04:30Z</time></trkpt><trkpt lat="43.80263714221881" lon="7.398784984214049"><ele>652.8</ele><time>2026-05-01T14:04:31Z</time></trkpt><trkpt lat="43.80263776391041" lon="7.3986874337503945"><ele>644.4</ele><time>2026-05-01T14:04:32Z</time></trkpt><trkpt lat="43.8026373721204" lon="7.398597758946631"><ele>636.0</ele><time>2026-05-01T14:04:33Z</time></trkpt><trkpt lat="43.80265475062853" lon="7.398436434447858"><ele>636.0</ele><time>2026-05-01T14:04:35Z</time></trkpt><trkpt lat="43.80265428679181" lon="7.398324698162303"><ele>636.0</ele><time>2026-05-01T14:04:37Z</time></trkpt><trkpt lat="43.80257564264954" lon="7.398301215794246"><ele>636.0</ele><time>2026-05-01T14:04:39Z</time></trkpt><trkpt lat="43.802520383382216" lon="7.398400733195294"><ele>636.0</ele><time>2026-05-01T14:04:41Z</time></trkpt><trkpt lat="43.802535609469494" lon="7.398571875787272"><ele>636.0</ele><time>2026-05-01T14:04:43Z</time></trkpt><trkpt lat="43.802534654051165" lon="7.3986680600023496"><ele>636.0</ele><time>2026-05-01T14:04:44Z</time></trkpt><trkpt lat="43.80253356350097" lon="7.398759458313958"><ele>635.0</ele><time>2026-05-01T14:04:45Z</time></trkpt><trkpt lat="43.802532782901146" lon="7.398847430927561"><ele>634.0</ele><time>2026-05-01T14:04:46Z</time></trkpt><trkpt lat="43.802552627655125" lon="7.39902498220448"><ele>633.0</ele><time>2026-05-01T14:04:48Z</time></trkpt><trkpt lat="43.80259170333753" lon="7.399124016360112"><ele>632.0</ele><time>2026-05-01T14:04:49Z</time></trkpt><trkpt lat="43.80262694314597" lon="7.399215958545848"><ele>631.0</ele><time>2026-05-01T14:04:50Z</time></trkpt><trkpt lat="43.80265630489016" lon="7.399301365578855"><ele>630.0</ele><time>2026-05-01T14:04:51Z</time></trkpt><trkpt lat="43.8027016168906" lon="7.399440740043972"><ele>630.0</ele><time>2026-05-01T14:04:53Z</time></trkpt><trkpt lat="43.802729149733594" lon="7.399535765111544"><ele>630.0</ele><time>2026-05-01T14:04:55Z</time></trkpt><trkpt lat="43.80265948880154" lon="7.399550611168708"><ele>630.0</ele><time>2026-05-01T14:05:00Z</time></trkpt><trkpt lat="43.802631183737866" lon="7.399470499559137"><ele>630.0</ele><time>2026-05-01T14:05:01Z</time></trkpt><trkpt lat="43.80260872622155" lon="7.399375324433891"><ele>630.0</ele><time>2026-05-01T14:05:02Z</time></trkpt><trkpt lat="43.80258526542686" lon="7.3992870124611185"><ele>630.0</ele><time>2026-05-01T14:05:03Z</time></trkpt><trkpt lat="43.80254927465454" lon="7.399195047422368"><ele>630.0</ele><time>2026-05-01T14:05:04Z</time></trkpt><trkpt lat="43.80252640638186" lon="7.399099215685773"><ele>630.0</ele><time>2026-05-01T14:05:05Z</time></trkpt><trkpt lat="43.80249383717378" lon="7.399013127031002"><ele>630.0</ele><time>2026-05-01T14:05:06Z</time></trkpt><trkpt lat="43.80247104997146" lon="7.398929134725033"><ele>630.0</ele><time>2026-05-01T14:05:07Z</time></trkpt><trkpt lat="43.80245450413749" lon="7.398832305607751"><ele>630.0</ele><time>2026-05-01T14:05:08Z</time></trkpt><trkpt lat="43.80244389336767" lon="7.398714733414176"><ele>630.0</ele><time>2026-05-01T14:05:09Z</time></trkpt><trkpt lat="43.802436839447516" lon="7.398590573580983"><ele>630.0</ele><time>2026-05-01T14:05:10Z</time></trkpt><trkpt lat="43.802438070966865" lon="7.398476563000939"><ele>631.0</ele><time>2026-05-01T14:05:11Z</time></trkpt><trkpt lat="43.80243547201817" lon="7.3983711075871605"><ele>632.0</ele><time>2026-05-01T14:05:12Z</time></trkpt><trkpt lat="43.80243390011729" lon="7.398265302562957"><ele>633.0</ele><time>2026-05-01T14:05:13Z</time></trkpt><trkpt lat="43.80243820771262" lon="7.398168267653291"><ele>634.0</ele><time>2026-05-01T14:05:14Z</time></trkpt><trkpt lat="43.80242659722186" lon="7.398068806453902"><ele>635.0</ele><time>2026-05-01T14:05:15Z</time></trkpt><trkpt lat="43.80241604289568" lon="7.397963288897112"><ele>636.0</ele><time>2026-05-01T14:05:16Z</time></trkpt><trkpt lat="43.80240281799717" lon="7.3978445163834285"><ele>636.0</ele><time>2026-05-01T14:05:17Z</time></trkpt><trkpt lat="43.80237546934705" lon="7.397738804335479"><ele>636.0</ele><time>2026-05-01T14:05:18Z</time></trkpt><trkpt lat="43.80234228729694" lon="7.3976504990610685"><ele>636.0</ele><time>2026-05-01T14:05:19Z</time></trkpt><trkpt lat="43.802280958724" lon="7.3975325891655075"><ele>636.0</ele><time>2026-05-01T14:05:21Z</time></trkpt><trkpt lat="43.80222301260622" lon="7.3974206254689"><ele>636.0</ele><time>2026-05-01T14:05:23Z</time></trkpt><trkpt lat="43.80219052004972" lon="7.397249512503645"><ele>636.2</ele><time>2026-05-01T14:05:25Z</time></trkpt><trkpt lat="43.8021600195856" lon="7.397141173400254"><ele>636.4000000000001</ele><time>2026-05-01T14:05:26Z</time></trkpt><trkpt lat="43.80215224293565" lon="7.397012713839858"><ele>636.6</ele><time>2026-05-01T14:05:27Z</time></trkpt><trkpt lat="43.80214529272769" lon="7.396877158912117"><ele>636.8000000000001</ele><time>2026-05-01T14:05:28Z</time></trkpt><trkpt lat="43.80214291529651" lon="7.396752201582209"><ele>637.0</ele><time>2026-05-01T14:05:29Z</time></trkpt><trkpt lat="43.80214223144335" lon="7.396634544354971"><ele>637.0</ele><time>2026-05-01T14:05:30Z</time></trkpt><trkpt lat="43.80214928287391" lon="7.3965126569120505"><ele>637.0</ele><time>2026-05-01T14:05:31Z</time></trkpt><trkpt lat="43.80217006758601" lon="7.3963867498633675"><ele>637.0</ele><time>2026-05-01T14:05:32Z</time></trkpt><trkpt lat="43.80220483428041" lon="7.396263837808568"><ele>637.0</ele><time>2026-05-01T14:05:33Z</time></trkpt><trkpt lat="43.80223818262431" lon="7.396153877698278"><ele>637.0</ele><time>2026-05-01T14:05:34Z</time></trkpt><trkpt lat="43.80225754554103" lon="7.396042119711664"><ele>637.0</ele><time>2026-05-01T14:05:35Z</time></trkpt><trkpt lat="43.80226260813792" lon="7.395930767500916"><ele>636.0</ele><time>2026-05-01T14:05:36Z</time></trkpt><trkpt lat="43.80224999003403" lon="7.395822307985302"><ele>635.0</ele><time>2026-05-01T14:05:37Z</time></trkpt><trkpt lat="43.80222653017979" lon="7.395715533255145"><ele>634.0</ele><time>2026-05-01T14:05:38Z</time></trkpt><trkpt lat="43.80220433960403" lon="7.395602266286472"><ele>633.0</ele><time>2026-05-01T14:05:39Z</time></trkpt><trkpt lat="43.80219075252648" lon="7.395475834613978"><ele>632.0</ele><time>2026-05-01T14:05:40Z</time></trkpt><trkpt lat="43.80217684837275" lon="7.395356666019718"><ele>631.0</ele><time>2026-05-01T14:05:41Z</time></trkpt><trkpt lat="43.80216402968943" lon="7.3952379408064735"><ele>630.6</ele><time>2026-05-01T14:05:42Z</time></trkpt><trkpt lat="43.802181744774174" lon="7.395118982611329"><ele>630.2</ele><time>2026-05-01T14:05:43Z</time></trkpt><trkpt lat="43.80218765035016" lon="7.394988471148139"><ele>629.8</ele><time>2026-05-01T14:05:44Z</time></trkpt><trkpt lat="43.802182281965216" lon="7.394845881127759"><ele>629.4</ele><time>2026-05-01T14:05:45Z</time></trkpt><trkpt lat="43.80219359239191" lon="7.39472284171477"><ele>629.0</ele><time>2026-05-01T14:05:46Z</time></trkpt><trkpt lat="43.80222243241303" lon="7.394622132079168"><ele>626.8333333333333</ele><time>2026-05-01T14:05:47Z</time></trkpt><trkpt lat="43.8022399331898" lon="7.394525758903295"><ele>624.6666666666666</ele><time>2026-05-01T14:05:48Z</time></trkpt><trkpt lat="43.802267181130894" lon="7.394435999115291"><ele>622.5</ele><time>2026-05-01T14:05:49Z</time></trkpt><trkpt lat="43.80231172812641" lon="7.394369131364349"><ele>620.3333333333334</ele><time>2026-05-01T14:05:50Z</time></trkpt><trkpt lat="43.802374859424695" lon="7.394320861713318"><ele>618.1666666666667</ele><time>2026-05-01T14:05:51Z</time></trkpt><trkpt lat="43.80244654288495" lon="7.394278067410611"><ele>616.0</ele><time>2026-05-01T14:05:52Z</time></trkpt><trkpt lat="43.802537219020046" lon="7.394230062227689"><ele>616.0</ele><time>2026-05-01T14:05:53Z</time></trkpt><trkpt lat="43.80262623349599" lon="7.394167706700181"><ele>616.0</ele><time>2026-05-01T14:05:54Z</time></trkpt><trkpt lat="43.802710397955956" lon="7.394102464085562"><ele>616.0</ele><time>2026-05-01T14:05:55Z</time></trkpt><trkpt lat="43.80282076455402" lon="7.394018001948401"><ele>616.0</ele><time>2026-05-01T14:05:56Z</time></trkpt><trkpt lat="43.80293507920895" lon="7.393934411879649"><ele>614.75</ele><time>2026-05-01T14:05:57Z</time></trkpt><trkpt lat="43.80305353110822" lon="7.393858660764265"><ele>613.5</ele><time>2026-05-01T14:05:58Z</time></trkpt><trkpt lat="43.8031806411234" lon="7.393788049371252"><ele>612.25</ele><time>2026-05-01T14:05:59Z</time></trkpt><trkpt lat="43.80331533662969" lon="7.393713014181683"><ele>611.0</ele><time>2026-05-01T14:06:00Z</time></trkpt><trkpt lat="43.80344270443616" lon="7.3936358045444"><ele>619.25</ele><time>2026-05-01T14:06:01Z</time></trkpt><trkpt lat="43.80356558697943" lon="7.393537715725823"><ele>627.5</ele><time>2026-05-01T14:06:02Z</time></trkpt><trkpt lat="43.803682173344676" lon="7.393425394731669"><ele>635.75</ele><time>2026-05-01T14:06:03Z</time></trkpt><trkpt lat="43.80381589219942" lon="7.393363423973231"><ele>644.0</ele><time>2026-05-01T14:06:04Z</time></trkpt><trkpt lat="43.80394606072368" lon="7.393285636982212"><ele>644.0</ele><time>2026-05-01T14:06:05Z</time></trkpt><trkpt lat="43.80407168377725" lon="7.393202522585804"><ele>644.0</ele><time>2026-05-01T14:06:06Z</time></trkpt><trkpt lat="43.8041898113389" lon="7.393123484569171"><ele>644.0</ele><time>2026-05-01T14:06:07Z</time></trkpt><trkpt lat="43.80430721506512" lon="7.393042835245905"><ele>644.0</ele><time>2026-05-01T14:06:08Z</time></trkpt><trkpt lat="43.80441494250918" lon="7.392941143361268"><ele>644.25</ele><time>2026-05-01T14:06:09Z</time></trkpt><trkpt lat="43.80452544827881" lon="7.392866694414813"><ele>644.5</ele><time>2026-05-01T14:06:10Z</time></trkpt><trkpt lat="43.804628665031686" lon="7.392783327091865"><ele>644.75</ele><time>2026-05-01T14:06:11Z</time></trkpt><trkpt lat="43.804715766049725" lon="7.392687852637599"><ele>645.0</ele><time>2026-05-01T14:06:12Z</time></trkpt><trkpt lat="43.80479221813109" lon="7.392571097503659"><ele>645.0</ele><time>2026-05-01T14:06:13Z</time></trkpt><trkpt lat="43.80485565335053" lon="7.392435832271804"><ele>645.0</ele><time>2026-05-01T14:06:14Z</time></trkpt><trkpt lat="43.80490104674949" lon="7.3923178742624085"><ele>645.0</ele><time>2026-05-01T14:06:15Z</time></trkpt><trkpt lat="43.80493996911779" lon="7.3922147359059815"><ele>645.0</ele><time>2026-05-01T14:06:16Z</time></trkpt><trkpt lat="43.8049823101565" lon="7.392134829031644"><ele>645.0</ele><time>2026-05-01T14:06:17Z</time></trkpt><trkpt lat="43.805049454714485" lon="7.392086717972208"><ele>645.0</ele><time>2026-05-01T14:06:18Z</time></trkpt><trkpt lat="43.80513981504519" lon="7.392021932653578"><ele>645.6666666666666</ele><time>2026-05-01T14:06:20Z</time></trkpt><trkpt lat="43.805235677790286" lon="7.392006399761218"><ele>646.3333333333334</ele><time>2026-05-01T14:06:22Z</time></trkpt><trkpt lat="43.8052924243941" lon="7.392069599859628"><ele>647.0</ele><time>2026-05-01T14:06:23Z</time></trkpt><trkpt lat="43.80535987122998" lon="7.39210141141219"><ele>647.6666666666667</ele><time>2026-05-01T14:06:24Z</time></trkpt><trkpt lat="43.80543701305109" lon="7.3921434303636335"><ele>648.3333333333334</ele><time>2026-05-01T14:06:25Z</time></trkpt><trkpt lat="43.80551582014455" lon="7.392186352575743"><ele>649.0</ele><time>2026-05-01T14:06:26Z</time></trkpt><trkpt lat="43.80558251476794" lon="7.392219537621845"><ele>649.0</ele><time>2026-05-01T14:06:27Z</time></trkpt><trkpt lat="43.805678103649235" lon="7.3922909120981934"><ele>649.0</ele><time>2026-05-01T14:06:29Z</time></trkpt><trkpt lat="43.80572838848742" lon="7.392355806341177"><ele>649.0</ele><time>2026-05-01T14:06:30Z</time></trkpt><trkpt lat="43.80578754094978" lon="7.392435058908692"><ele>649.0</ele><time>2026-05-01T14:06:31Z</time></trkpt><trkpt lat="43.80585280164831" lon="7.392532506398122"><ele>649.0</ele><time>2026-05-01T14:06:32Z</time></trkpt><trkpt lat="43.8059105995737" lon="7.39262992363593"><ele>649.0</ele><time>2026-05-01T14:06:33Z</time></trkpt><trkpt lat="43.80596821059422" lon="7.392717734068988"><ele>645.5</ele><time>2026-05-01T14:06:34Z</time></trkpt><trkpt lat="43.806025258327736" lon="7.392807924756762"><ele>642.0</ele><time>2026-05-01T14:06:35Z</time></trkpt><trkpt lat="43.80607804610322" lon="7.392890912319348"><ele>638.5</ele><time>2026-05-01T14:06:36Z</time></trkpt><trkpt lat="43.80613677868996" lon="7.392969311226645"><ele>635.0</ele><time>2026-05-01T14:06:37Z</time></trkpt><trkpt lat="43.806190801723695" lon="7.393051737732369"><ele>631.5</ele><time>2026-05-01T14:06:38Z</time></trkpt><trkpt lat="43.80623359378471" lon="7.393146557145218"><ele>628.0</ele><time>2026-05-01T14:06:39Z</time></trkpt><trkpt lat="43.806281664473225" lon="7.393230844997351"><ele>628.0</ele><time>2026-05-01T14:06:40Z</time></trkpt><trkpt lat="43.80633546583764" lon="7.393311930029551"><ele>628.0</ele><time>2026-05-01T14:06:41Z</time></trkpt><trkpt lat="43.80636781821027" lon="7.393416763859734"><ele>628.0</ele><time>2026-05-01T14:06:42Z</time></trkpt><trkpt lat="43.80641658108813" lon="7.39349718732424"><ele>628.0</ele><time>2026-05-01T14:06:43Z</time></trkpt><trkpt lat="43.80645730163146" lon="7.393584459567042"><ele>628.0</ele><time>2026-05-01T14:06:44Z</time></trkpt><trkpt lat="43.806501056302196" lon="7.393671102291604"><ele>628.0</ele><time>2026-05-01T14:06:45Z</time></trkpt><trkpt lat="43.806546875809175" lon="7.393756758000494"><ele>630.1666666666667</ele><time>2026-05-01T14:06:46Z</time></trkpt><trkpt lat="43.80658779205287" lon="7.393853016812186"><ele>632.3333333333334</ele><time>2026-05-01T14:06:47Z</time></trkpt><trkpt lat="43.80662587769472" lon="7.393945799312709"><ele>634.5</ele><time>2026-05-01T14:06:48Z</time></trkpt><trkpt lat="43.80665830490834" lon="7.394046866565856"><ele>636.6666666666666</ele><time>2026-05-01T14:06:49Z</time></trkpt><trkpt lat="43.80668777782235" lon="7.394149796510012"><ele>638.8333333333333</ele><time>2026-05-01T14:06:50Z</time></trkpt><trkpt lat="43.80671642744932" lon="7.394263147490826"><ele>641.0</ele><time>2026-05-01T14:06:51Z</time></trkpt><trkpt lat="43.80672851689715" lon="7.394386051718594"><ele>641.0</ele><time>2026-05-01T14:06:52Z</time></trkpt><trkpt lat="43.80675013731756" lon="7.394498804126176"><ele>641.0</ele><time>2026-05-01T14:06:53Z</time></trkpt><trkpt lat="43.80676576748655" lon="7.394607520162217"><ele>641.0</ele><time>2026-05-01T14:06:54Z</time></trkpt><trkpt lat="43.806776586293346" lon="7.394719579769296"><ele>641.0</ele><time>2026-05-01T14:06:55Z</time></trkpt><trkpt lat="43.806777553129365" lon="7.394832258498119"><ele>641.0</ele><time>2026-05-01T14:06:56Z</time></trkpt><trkpt lat="43.80676627278944" lon="7.394952282309658"><ele>641.0</ele><time>2026-05-01T14:06:57Z</time></trkpt><trkpt lat="43.80674850679652" lon="7.395092959162962"><ele>642.0</ele><time>2026-05-01T14:06:58Z</time></trkpt><trkpt lat="43.80675779736922" lon="7.3952288330665725"><ele>643.0</ele><time>2026-05-01T14:06:59Z</time></trkpt><trkpt lat="43.80675199947852" lon="7.3953565588945"><ele>644.0</ele><time>2026-05-01T14:07:00Z</time></trkpt><trkpt lat="43.80673063835499" lon="7.395477653813136"><ele>645.0</ele><time>2026-05-01T14:07:01Z</time></trkpt><trkpt lat="43.806727901972195" lon="7.395590163934683"><ele>646.0</ele><time>2026-05-01T14:07:02Z</time></trkpt><trkpt lat="43.806733146273245" lon="7.39570715987178"><ele>647.0</ele><time>2026-05-01T14:07:03Z</time></trkpt><trkpt lat="43.8067655629182" lon="7.3958255971688205"><ele>638.5</ele><time>2026-05-01T14:07:04Z</time></trkpt><trkpt lat="43.806835711257506" lon="7.395911811268452"><ele>630.0</ele><time>2026-05-01T14:07:05Z</time></trkpt><trkpt lat="43.80686446266104" lon="7.396010623990755"><ele>621.5</ele><time>2026-05-01T14:07:06Z</time></trkpt><trkpt lat="43.80688220386341" lon="7.396108452013616"><ele>613.0</ele><time>2026-05-01T14:07:07Z</time></trkpt><trkpt lat="43.80688535789012" lon="7.396222018855457"><ele>604.5</ele><time>2026-05-01T14:07:08Z</time></trkpt><trkpt lat="43.80688477008023" lon="7.396346713787731"><ele>596.0</ele><time>2026-05-01T14:07:09Z</time></trkpt><trkpt lat="43.80689168246512" lon="7.396480346630488"><ele>596.0</ele><time>2026-05-01T14:07:10Z</time></trkpt><trkpt lat="43.806927482929915" lon="7.396605035169144"><ele>596.0</ele><time>2026-05-01T14:07:11.001Z</time></trkpt><trkpt lat="43.80696599351046" lon="7.3967327065608615"><ele>596.0</ele><time>2026-05-01T14:07:12.001Z</time></trkpt><trkpt lat="43.807000777670474" lon="7.39684820812508"><ele>596.0</ele><time>2026-05-01T14:07:13Z</time></trkpt><trkpt lat="43.80703729844547" lon="7.396968384680333"><ele>596.0</ele><time>2026-05-01T14:07:14Z</time></trkpt><trkpt lat="43.807077902903224" lon="7.397073530920004"><ele>596.0</ele><time>2026-05-01T14:07:15Z</time></trkpt><trkpt lat="43.807137931542144" lon="7.397168730136402"><ele>596.0</ele><time>2026-05-01T14:07:16Z</time></trkpt><trkpt lat="43.807208833738514" lon="7.397254926992074"><ele>596.0</ele><time>2026-05-01T14:07:17Z</time></trkpt><trkpt lat="43.807302559219764" lon="7.3973016401147245"><ele>596.0</ele><time>2026-05-01T14:07:18Z</time></trkpt><trkpt lat="43.8073929890752" lon="7.397362967738762"><ele>596.0</ele><time>2026-05-01T14:07:19Z</time></trkpt><trkpt lat="43.80748274874137" lon="7.397438750099341"><ele>596.0</ele><time>2026-05-01T14:07:20Z</time></trkpt><trkpt lat="43.80757693896166" lon="7.397490119489479"><ele>596.0</ele><time>2026-05-01T14:07:21Z</time></trkpt><trkpt lat="43.80766739932201" lon="7.397533400684089"><ele>596.0</ele><time>2026-05-01T14:07:22Z</time></trkpt><trkpt lat="43.807758129191804" lon="7.397581414187378"><ele>596.0</ele><time>2026-05-01T14:07:23Z</time></trkpt><trkpt lat="43.80784251371156" lon="7.397634943437323"><ele>596.0</ele><time>2026-05-01T14:07:24Z</time></trkpt><trkpt lat="43.80792850379618" lon="7.397697831307759"><ele>596.0</ele><time>2026-05-01T14:07:25Z</time></trkpt><trkpt lat="43.808010579289174" lon="7.3977607248415795"><ele>596.0</ele><time>2026-05-01T14:07:26Z</time></trkpt><trkpt lat="43.80809290606911" lon="7.397826357828843"><ele>596.0</ele><time>2026-05-01T14:07:27Z</time></trkpt><trkpt lat="43.808178071280985" lon="7.3978858374897545"><ele>596.0</ele><time>2026-05-01T14:07:28Z</time></trkpt><trkpt lat="43.80826731556015" lon="7.397932472638602"><ele>596.0</ele><time>2026-05-01T14:07:29Z</time></trkpt><trkpt lat="43.80836001229558" lon="7.397964867593062"><ele>596.0</ele><time>2026-05-01T14:07:30Z</time></trkpt><trkpt lat="43.80844818836825" lon="7.397981571421224"><ele>596.0</ele><time>2026-05-01T14:07:31Z</time></trkpt><trkpt lat="43.80853398551791" lon="7.39800205353222"><ele>596.0</ele><time>2026-05-01T14:07:32Z</time></trkpt><trkpt lat="43.80861730163693" lon="7.398028978217359"><ele>596.0</ele><time>2026-05-01T14:07:33Z</time></trkpt><trkpt lat="43.80869562267082" lon="7.398061481679371"><ele>596.0</ele><time>2026-05-01T14:07:34Z</time></trkpt><trkpt lat="43.808772599075986" lon="7.398094952601464"><ele>596.0</ele><time>2026-05-01T14:07:35Z</time></trkpt><trkpt lat="43.80884848001925" lon="7.398125068193263"><ele>596.1666666666666</ele><time>2026-05-01T14:07:36Z</time></trkpt><trkpt lat="43.808916456795906" lon="7.398156855148276"><ele>596.3333333333333</ele><time>2026-05-01T14:07:37Z</time></trkpt><trkpt lat="43.80898452961658" lon="7.398200681913921"><ele>596.5</ele><time>2026-05-01T14:07:38Z</time></trkpt><trkpt lat="43.80904258817252" lon="7.3982816901128485"><ele>596.6666666666666</ele><time>2026-05-01T14:07:39Z</time></trkpt><trkpt lat="43.8091147456823" lon="7.398363418146665"><ele>596.8333333333334</ele><time>2026-05-01T14:07:40Z</time></trkpt><trkpt lat="43.809172823427" lon="7.398464387802867"><ele>597.0</ele><time>2026-05-01T14:07:41Z</time></trkpt><trkpt lat="43.80923460319644" lon="7.398583532826144"><ele>597.0</ele><time>2026-05-01T14:07:42Z</time></trkpt><trkpt lat="43.80929575595929" lon="7.398698191683449"><ele>597.0</ele><time>2026-05-01T14:07:43Z</time></trkpt><trkpt lat="43.80935186175488" lon="7.398812874934806"><ele>597.0</ele><time>2026-05-01T14:07:44Z</time></trkpt><trkpt lat="43.80940151824447" lon="7.398927615464963"><ele>597.0</ele><time>2026-05-01T14:07:45Z</time></trkpt><trkpt lat="43.80945549962995" lon="7.399042844603903"><ele>597.0</ele><time>2026-05-01T14:07:46Z</time></trkpt><trkpt lat="43.8095128504784" lon="7.399153583868991"><ele>594.6</ele><time>2026-05-01T14:07:47Z</time></trkpt><trkpt lat="43.80956820474042" lon="7.3992577246212905"><ele>592.2</ele><time>2026-05-01T14:07:48Z</time></trkpt><trkpt lat="43.809623323258904" lon="7.39935832955033"><ele>589.8</ele><time>2026-05-01T14:07:49Z</time></trkpt><trkpt lat="43.809673328001466" lon="7.399459640673661"><ele>587.4</ele><time>2026-05-01T14:07:50Z</time></trkpt><trkpt lat="43.80971939845375" lon="7.399571142838642"><ele>585.0</ele><time>2026-05-01T14:07:51Z</time></trkpt><trkpt lat="43.809748123648035" lon="7.399683685173812"><ele>585.0</ele><time>2026-05-01T14:07:52Z</time></trkpt><trkpt lat="43.80977980959449" lon="7.399807661692459"><ele>585.0</ele><time>2026-05-01T14:07:53Z</time></trkpt><trkpt lat="43.80981631808262" lon="7.399945885802132"><ele>585.0</ele><time>2026-05-01T14:07:54Z</time></trkpt><trkpt lat="43.809862684403555" lon="7.400082615350566"><ele>585.0</ele><time>2026-05-01T14:07:55Z</time></trkpt><trkpt lat="43.80991366292281" lon="7.400212548132129"><ele>585.0</ele><time>2026-05-01T14:07:56Z</time></trkpt><trkpt lat="43.80996942569821" lon="7.400338862952884"><ele>585.0</ele><time>2026-05-01T14:07:57Z</time></trkpt><trkpt lat="43.810022389475364" lon="7.400450969835345"><ele>585.0</ele><time>2026-05-01T14:07:58Z</time></trkpt><trkpt lat="43.81007810122195" lon="7.400563398290275"><ele>585.0</ele><time>2026-05-01T14:07:59Z</time></trkpt><trkpt lat="43.81013413853929" lon="7.400666258473975"><ele>585.0</ele><time>2026-05-01T14:08:00Z</time></trkpt><trkpt lat="43.81019401655272" lon="7.400765849512642"><ele>585.0</ele><time>2026-05-01T14:08:01Z</time></trkpt><trkpt lat="43.810255348748996" lon="7.4008601485067915"><ele>582.5</ele><time>2026-05-01T14:08:02Z</time></trkpt><trkpt lat="43.810318057588674" lon="7.40094478369242"><ele>580.0</ele><time>2026-05-01T14:08:03Z</time></trkpt><trkpt lat="43.810380154589886" lon="7.40102020813166"><ele>577.5</ele><time>2026-05-01T14:08:04Z</time></trkpt><trkpt lat="43.8104464053199" lon="7.401097883552464"><ele>575.0</ele><time>2026-05-01T14:08:05Z</time></trkpt><trkpt lat="43.810509453243775" lon="7.401163362223735"><ele>572.5</ele><time>2026-05-01T14:08:06Z</time></trkpt><trkpt lat="43.810602621889224" lon="7.401210792246593"><ele>570.0</ele><time>2026-05-01T14:08:07Z</time></trkpt><trkpt lat="43.810690642676846" lon="7.401239663569928"><ele>570.0</ele><time>2026-05-01T14:08:08Z</time></trkpt><trkpt lat="43.810777432195366" lon="7.401256444825266"><ele>570.0</ele><time>2026-05-01T14:08:09Z</time></trkpt><trkpt lat="43.81084748327659" lon="7.401279230201999"><ele>570.0</ele><time>2026-05-01T14:08:10Z</time></trkpt><trkpt lat="43.810928724366946" lon="7.401316693323357"><ele>570.0</ele><time>2026-05-01T14:08:13Z</time></trkpt><trkpt lat="43.810993211350436" lon="7.401383786215537"><ele>570.0</ele><time>2026-05-01T14:08:15Z</time></trkpt><trkpt lat="43.81097385679559" lon="7.401541413095158"><ele>570.0</ele><time>2026-05-01T14:08:17Z</time></trkpt><trkpt lat="43.8109297931918" lon="7.401630260774121"><ele>571.8333333333334</ele><time>2026-05-01T14:08:18Z</time></trkpt><trkpt lat="43.810894227946626" lon="7.401741808709647"><ele>573.6666666666666</ele><time>2026-05-01T14:08:19Z</time></trkpt><trkpt lat="43.81085699373182" lon="7.4018620094840335"><ele>575.5</ele><time>2026-05-01T14:08:20Z</time></trkpt><trkpt lat="43.810821845029885" lon="7.401978088516585"><ele>577.3333333333333</ele><time>2026-05-01T14:08:21Z</time></trkpt><trkpt lat="43.81079009839116" lon="7.402085901495626"><ele>579.1666666666666</ele><time>2026-05-01T14:08:22Z</time></trkpt><trkpt lat="43.810777029725195" lon="7.402196355665081"><ele>581.0</ele><time>2026-05-01T14:08:23Z</time></trkpt><trkpt lat="43.81074969403491" lon="7.402285572296276"><ele>581.6666666666666</ele><time>2026-05-01T14:08:24Z</time></trkpt><trkpt lat="43.81072518612526" lon="7.402369994295592"><ele>582.3333333333333</ele><time>2026-05-01T14:08:25Z</time></trkpt><trkpt lat="43.81073831116894" lon="7.402466605627017"><ele>583.0</ele><time>2026-05-01T14:08:26Z</time></trkpt><trkpt lat="43.81078636776274" lon="7.402543490874695"><ele>583.6666666666666</ele><time>2026-05-01T14:08:27Z</time></trkpt><trkpt lat="43.810857331943595" lon="7.402598848196843"><ele>584.3333333333334</ele><time>2026-05-01T14:08:28Z</time></trkpt><trkpt lat="43.81094973074107" lon="7.402594880678335"><ele>585.0</ele><time>2026-05-01T14:08:29Z</time></trkpt><trkpt lat="43.81103970189431" lon="7.402600150140548"><ele>582.1666666666666</ele><time>2026-05-01T14:08:30Z</time></trkpt><trkpt lat="43.81112662248737" lon="7.402623617858389"><ele>579.3333333333334</ele><time>2026-05-01T14:08:31Z</time></trkpt><trkpt lat="43.811211987064624" lon="7.40264480807837"><ele>576.5</ele><time>2026-05-01T14:08:32Z</time></trkpt><trkpt lat="43.811291435438825" lon="7.402675910213624"><ele>573.6666666666667</ele><time>2026-05-01T14:08:33Z</time></trkpt><trkpt lat="43.81136989269165" lon="7.402690519814411"><ele>570.8333333333334</ele><time>2026-05-01T14:08:34Z</time></trkpt><trkpt lat="43.81145056326388" lon="7.402604545093749"><ele>568.0</ele><time>2026-05-01T14:08:35Z</time></trkpt><trkpt lat="43.81152421168138" lon="7.402556147244248"><ele>568.0</ele><time>2026-05-01T14:08:36Z</time></trkpt><trkpt lat="43.811603736080066" lon="7.402541349868118"><ele>568.0</ele><time>2026-05-01T14:08:37Z</time></trkpt><trkpt lat="43.81167834550943" lon="7.402511619307693"><ele>568.0</ele><time>2026-05-01T14:08:38Z</time></trkpt><trkpt lat="43.8117446276561" lon="7.4025045228879245"><ele>568.0</ele><time>2026-05-01T14:08:39Z</time></trkpt><trkpt lat="43.8118058908106" lon="7.402525170876648"><ele>568.0</ele><time>2026-05-01T14:08:40Z</time></trkpt><trkpt lat="43.81186263643893" lon="7.402567066973182"><ele>568.0</ele><time>2026-05-01T14:08:41Z</time></trkpt><trkpt lat="43.811925583922076" lon="7.402618777899924"><ele>568.0</ele><time>2026-05-01T14:08:42Z</time></trkpt><trkpt lat="43.8119910592142" lon="7.402679460710162"><ele>566.4285714285714</ele><time>2026-05-01T14:08:43Z</time></trkpt><trkpt lat="43.812051911027666" lon="7.4027411702886905"><ele>564.8571428571428</ele><time>2026-05-01T14:08:44Z</time></trkpt><trkpt lat="43.81210939773741" lon="7.4028081597614985"><ele>563.2857142857142</ele><time>2026-05-01T14:08:45Z</time></trkpt><trkpt lat="43.81215452148407" lon="7.402875656266263"><ele>561.7142857142857</ele><time>2026-05-01T14:08:46Z</time></trkpt><trkpt lat="43.812192187790075" lon="7.4029548349923076"><ele>560.1428571428571</ele><time>2026-05-01T14:08:47Z</time></trkpt><trkpt lat="43.81221311629317" lon="7.403051029361993"><ele>558.5714285714286</ele><time>2026-05-01T14:08:48Z</time></trkpt><trkpt lat="43.8122205759992" lon="7.403159718063467"><ele>557.0</ele><time>2026-05-01T14:08:49Z</time></trkpt><trkpt lat="43.81222376592395" lon="7.403281112788272"><ele>557.0</ele><time>2026-05-01T14:08:50Z</time></trkpt><trkpt lat="43.812227810815244" lon="7.40341266786152"><ele>557.0</ele><time>2026-05-01T14:08:51Z</time></trkpt><trkpt lat="43.81225070704706" lon="7.403548349037793"><ele>557.0</ele><time>2026-05-01T14:08:52Z</time></trkpt><trkpt lat="43.81229415407346" lon="7.403660814962264"><ele>557.0</ele><time>2026-05-01T14:08:53Z</time></trkpt><trkpt lat="43.812390007770496" lon="7.403719890074455"><ele>557.0</ele><time>2026-05-01T14:08:54Z</time></trkpt><trkpt lat="43.812475528466166" lon="7.403771297372128"><ele>559.8333333333333</ele><time>2026-05-01T14:08:55Z</time></trkpt><trkpt lat="43.812527519610974" lon="7.403846093279695"><ele>562.6666666666666</ele><time>2026-05-01T14:08:56Z</time></trkpt><trkpt lat="43.81256877568139" lon="7.4039182975395645"><ele>565.5</ele><time>2026-05-01T14:08:57Z</time></trkpt><trkpt lat="43.81259335918036" lon="7.403999871030661"><ele>568.3333333333334</ele><time>2026-05-01T14:08:58Z</time></trkpt><trkpt lat="43.81261233720111" lon="7.404110134931561"><ele>571.1666666666667</ele><time>2026-05-01T14:08:59Z</time></trkpt><trkpt lat="43.8126351368393" lon="7.404236325212801"><ele>574.0</ele><time>2026-05-01T14:09:00Z</time></trkpt><trkpt lat="43.812659675511476" lon="7.404375895318742"><ele>569.0</ele><time>2026-05-01T14:09:01Z</time></trkpt><trkpt lat="43.81268463469423" lon="7.404517067382556"><ele>564.0</ele><time>2026-05-01T14:09:02Z</time></trkpt><trkpt lat="43.81271300487763" lon="7.404657974018318"><ele>559.0</ele><time>2026-05-01T14:09:03Z</time></trkpt><trkpt lat="43.81274329393238" lon="7.404786476706657"><ele>554.0</ele><time>2026-05-01T14:09:04Z</time></trkpt><trkpt lat="43.81277574452776" lon="7.404910694159293"><ele>549.0</ele><time>2026-05-01T14:09:05Z</time></trkpt><trkpt lat="43.81281384962246" lon="7.405030458593545"><ele>549.0</ele><time>2026-05-01T14:09:06Z</time></trkpt><trkpt lat="43.81286111554509" lon="7.405144186179204"><ele>549.0</ele><time>2026-05-01T14:09:07Z</time></trkpt><trkpt lat="43.81291880654029" lon="7.405249070898414"><ele>549.0</ele><time>2026-05-01T14:09:08Z</time></trkpt><trkpt lat="43.81297943757095" lon="7.405338738941581"><ele>549.0</ele><time>2026-05-01T14:09:09Z</time></trkpt><trkpt lat="43.8130185902847" lon="7.405441604417582"><ele>549.0</ele><time>2026-05-01T14:09:10Z</time></trkpt><trkpt lat="43.8130503652693" lon="7.405560361100376"><ele>551.5</ele><time>2026-05-01T14:09:11Z</time></trkpt><trkpt lat="43.81308486935863" lon="7.405679911807017"><ele>554.0</ele><time>2026-05-01T14:09:12Z</time></trkpt><trkpt lat="43.8131255077381" lon="7.405792459827392"><ele>556.5</ele><time>2026-05-01T14:09:13Z</time></trkpt><trkpt lat="43.81315158899005" lon="7.405891708744145"><ele>559.0</ele><time>2026-05-01T14:09:14Z</time></trkpt><trkpt lat="43.81316619204528" lon="7.405991483578788"><ele>561.5</ele><time>2026-05-01T14:09:15Z</time></trkpt><trkpt lat="43.8131677510909" lon="7.4060993781528675"><ele>564.0</ele><time>2026-05-01T14:09:16.001Z</time></trkpt><trkpt lat="43.813153893638166" lon="7.406210549722616"><ele>564.0</ele><time>2026-05-01T14:09:17.001Z</time></trkpt><trkpt lat="43.81313272844941" lon="7.406311370841302"><ele>564.0</ele><time>2026-05-01T14:09:18.001Z</time></trkpt><trkpt lat="43.81311754691026" lon="7.406408480914892"><ele>564.0</ele><time>2026-05-01T14:09:19.001Z</time></trkpt><trkpt lat="43.81313153803044" lon="7.406517364394622"><ele>564.0</ele><time>2026-05-01T14:09:20.001Z</time></trkpt><trkpt lat="43.813190328882534" lon="7.406594294242595"><ele>564.0</ele><time>2026-05-01T14:09:21.001Z</time></trkpt><trkpt lat="43.81324839124786" lon="7.4066305446624545"><ele>564.0</ele><time>2026-05-01T14:09:22.001Z</time></trkpt><trkpt lat="43.81333988311574" lon="7.406698603715882"><ele>566.6</ele><time>2026-05-01T14:09:24.001Z</time></trkpt><trkpt lat="43.8134344065434" lon="7.406750809020707"><ele>569.2</ele><time>2026-05-01T14:09:26.001Z</time></trkpt><trkpt lat="43.8135326351893" lon="7.406694260731803"><ele>571.8000000000001</ele><time>2026-05-01T14:09:28.001Z</time></trkpt><trkpt lat="43.81363914167582" lon="7.406669122261205"><ele>574.4</ele><time>2026-05-01T14:09:30.001Z</time></trkpt><trkpt lat="43.8137043740796" lon="7.4066368582974285"><ele>577.0</ele><time>2026-05-01T14:09:31.001Z</time></trkpt><trkpt lat="43.813774462624636" lon="7.406599236628283"><ele>578.5</ele><time>2026-05-01T14:09:32.001Z</time></trkpt><trkpt lat="43.81384792690858" lon="7.4065656439294"><ele>580.0</ele><time>2026-05-01T14:09:33Z</time></trkpt><trkpt lat="43.81392108184354" lon="7.406526527323259"><ele>581.5</ele><time>2026-05-01T14:09:34Z</time></trkpt><trkpt lat="43.81399806662886" lon="7.406477951447614"><ele>583.0</ele><time>2026-05-01T14:09:35Z</time></trkpt><trkpt lat="43.814069960434125" lon="7.406423697218222"><ele>584.5</ele><time>2026-05-01T14:09:36Z</time></trkpt><trkpt lat="43.81414404179064" lon="7.406379375165034"><ele>586.0</ele><time>2026-05-01T14:09:37Z</time></trkpt><trkpt lat="43.81421057216104" lon="7.406334023130495"><ele>587.5</ele><time>2026-05-01T14:09:38Z</time></trkpt><trkpt lat="43.814283564165095" lon="7.406306171779424"><ele>589.0</ele><time>2026-05-01T14:09:39Z</time></trkpt><trkpt lat="43.81435409849871" lon="7.4062799865897775"><ele>590.5</ele><time>2026-05-01T14:09:40Z</time></trkpt><trkpt lat="43.81441494037144" lon="7.406243454812133"><ele>592.0</ele><time>2026-05-01T14:09:41Z</time></trkpt><trkpt lat="43.814480072237444" lon="7.406190044886936"><ele>593.5</ele><time>2026-05-01T14:09:42Z</time></trkpt><trkpt lat="43.81453296660526" lon="7.406130071425758"><ele>595.0</ele><time>2026-05-01T14:09:43Z</time></trkpt><trkpt lat="43.81460433904893" lon="7.406024610639382"><ele>595.0</ele><time>2026-05-01T14:09:45Z</time></trkpt><trkpt lat="43.81470533286223" lon="7.4059383163218335"><ele>595.0</ele><time>2026-05-01T14:09:47Z</time></trkpt><trkpt lat="43.814766548311546" lon="7.405897746579472"><ele>595.0</ele><time>2026-05-01T14:09:48Z</time></trkpt><trkpt lat="43.814823889377" lon="7.40584139263754"><ele>595.0</ele><time>2026-05-01T14:09:49Z</time></trkpt><trkpt lat="43.814871070204475" lon="7.4057614681764035"><ele>595.0</ele><time>2026-05-01T14:09:50Z</time></trkpt><trkpt lat="43.81487337387708" lon="7.405639946481787"><ele>595.0</ele><time>2026-05-01T14:09:51Z</time></trkpt><trkpt lat="43.81489348324928" lon="7.4055315014649565"><ele>590.5</ele><time>2026-05-01T14:09:52Z</time></trkpt><trkpt lat="43.814936167831036" lon="7.405429180788715"><ele>586.0</ele><time>2026-05-01T14:09:53Z</time></trkpt><trkpt lat="43.814943655052005" lon="7.405303553107868"><ele>581.5</ele><time>2026-05-01T14:09:54Z</time></trkpt><trkpt lat="43.81497057576263" lon="7.405185397281891"><ele>577.0</ele><time>2026-05-01T14:09:55Z</time></trkpt><trkpt lat="43.81498206394632" lon="7.405071507030392"><ele>572.5</ele><time>2026-05-01T14:09:56Z</time></trkpt><trkpt lat="43.8150027257207" lon="7.404979582253982"><ele>568.0</ele><time>2026-05-01T14:09:57Z</time></trkpt><trkpt lat="43.815031431832885" lon="7.404893437378011"><ele>568.0</ele><time>2026-05-01T14:09:58Z</time></trkpt><trkpt lat="43.81504622558399" lon="7.404802029404446"><ele>568.0</ele><time>2026-05-01T14:09:59Z</time></trkpt><trkpt lat="43.81507153446812" lon="7.404711625067013"><ele>568.0</ele><time>2026-05-01T14:10:00Z</time></trkpt><trkpt lat="43.815086955046496" lon="7.404619045347483"><ele>568.0</ele><time>2026-05-01T14:10:01Z</time></trkpt><trkpt lat="43.81513130721134" lon="7.404468314989637"><ele>568.0</ele><time>2026-05-01T14:10:03Z</time></trkpt><trkpt lat="43.8151866690721" lon="7.404327168475541"><ele>568.0</ele><time>2026-05-01T14:10:05Z</time></trkpt><trkpt lat="43.815247468315" lon="7.404291858995932"><ele>565.6666666666667</ele><time>2026-05-01T14:10:06Z</time></trkpt><trkpt lat="43.81531951452317" lon="7.404219688728089"><ele>563.3333333333334</ele><time>2026-05-01T14:10:08Z</time></trkpt><trkpt lat="43.815382068541105" lon="7.404271808412112"><ele>561.0</ele><time>2026-05-01T14:10:10Z</time></trkpt><trkpt lat="43.81540255000361" lon="7.404359538850037"><ele>558.6666666666666</ele><time>2026-05-01T14:10:12Z</time></trkpt><trkpt lat="43.81543921546167" lon="7.404435747044673"><ele>556.3333333333333</ele><time>2026-05-01T14:10:14Z</time></trkpt><trkpt lat="43.81551196108011" lon="7.4045593365482745"><ele>554.0</ele><time>2026-05-01T14:10:16Z</time></trkpt><trkpt lat="43.81556555142189" lon="7.404615429404865"><ele>557.8571428571429</ele><time>2026-05-01T14:10:17Z</time></trkpt><trkpt lat="43.815611333051685" lon="7.404683620346872"><ele>561.7142857142857</ele><time>2026-05-01T14:10:18Z</time></trkpt><trkpt lat="43.815658413359614" lon="7.404742379892214"><ele>565.5714285714286</ele><time>2026-05-01T14:10:19Z</time></trkpt><trkpt lat="43.81571367330871" lon="7.404796708767364"><ele>569.4285714285714</ele><time>2026-05-01T14:10:20Z</time></trkpt><trkpt lat="43.815780128417884" lon="7.4048494573061046"><ele>573.2857142857142</ele><time>2026-05-01T14:10:21Z</time></trkpt><trkpt lat="43.81585496813317" lon="7.404897503778653"><ele>577.1428571428571</ele><time>2026-05-01T14:10:22Z</time></trkpt><trkpt lat="43.81591480059507" lon="7.404978753628807"><ele>581.0</ele><time>2026-05-01T14:10:23Z</time></trkpt><trkpt lat="43.81598191512432" lon="7.4050161685748925"><ele>579.6666666666666</ele><time>2026-05-01T14:10:24Z</time></trkpt><trkpt lat="43.816042166178555" lon="7.405068190518176"><ele>578.3333333333333</ele><time>2026-05-01T14:10:25Z</time></trkpt><trkpt lat="43.816108418164646" lon="7.405125207165312"><ele>577.0</ele><time>2026-05-01T14:10:26Z</time></trkpt><trkpt lat="43.81620390378744" lon="7.4051328870502795"><ele>575.6666666666666</ele><time>2026-05-01T14:10:27Z</time></trkpt><trkpt lat="43.816299653248485" lon="7.405099824759125"><ele>574.3333333333334</ele><time>2026-05-01T14:10:28Z</time></trkpt><trkpt lat="43.8163911698333" lon="7.4050980338900985"><ele>573.0</ele><time>2026-05-01T14:10:29Z</time></trkpt><trkpt lat="43.816475798708964" lon="7.405104811598133"><ele>573.0</ele><time>2026-05-01T14:10:30Z</time></trkpt><trkpt lat="43.81656192243169" lon="7.405124334551257"><ele>573.0</ele><time>2026-05-01T14:10:31Z</time></trkpt><trkpt lat="43.81665060267812" lon="7.40518408267981"><ele>573.0</ele><time>2026-05-01T14:10:32Z</time></trkpt><trkpt lat="43.816739737089975" lon="7.405221095250606"><ele>573.0</ele><time>2026-05-01T14:10:33Z</time></trkpt><trkpt lat="43.8168203489309" lon="7.405247244989167"><ele>573.0</ele><time>2026-05-01T14:10:34Z</time></trkpt><trkpt lat="43.816905167417396" lon="7.405253877749096"><ele>573.0</ele><time>2026-05-01T14:10:35Z</time></trkpt><trkpt lat="43.81698348313381" lon="7.405252716651788"><ele>571.3333333333334</ele><time>2026-05-01T14:10:36Z</time></trkpt><trkpt lat="43.817058892697254" lon="7.405244333104174"><ele>569.6666666666666</ele><time>2026-05-01T14:10:37Z</time></trkpt><trkpt lat="43.8171805298525" lon="7.405257954026325"><ele>568.0</ele><time>2026-05-01T14:10:39Z</time></trkpt><trkpt lat="43.81724627454355" lon="7.405291206407074"><ele>566.3333333333333</ele><time>2026-05-01T14:10:40Z</time></trkpt><trkpt lat="43.81730969563438" lon="7.405362999710714"><ele>564.6666666666666</ele><time>2026-05-01T14:10:41Z</time></trkpt><trkpt lat="43.81737943680687" lon="7.405445241410866"><ele>563.0</ele><time>2026-05-01T14:10:42Z</time></trkpt><trkpt lat="43.8174710663725" lon="7.405517366701218"><ele>565.0</ele><time>2026-05-01T14:10:43Z</time></trkpt><trkpt lat="43.81756624945905" lon="7.405567482529746"><ele>567.0</ele><time>2026-05-01T14:10:44Z</time></trkpt><trkpt lat="43.81765079551146" lon="7.405601949266269"><ele>569.0</ele><time>2026-05-01T14:10:45Z</time></trkpt><trkpt lat="43.81771291748148" lon="7.405664574347887"><ele>571.0</ele><time>2026-05-01T14:10:46Z</time></trkpt><trkpt lat="43.81778543305758" lon="7.405739614198212"><ele>573.0</ele><time>2026-05-01T14:10:47Z</time></trkpt><trkpt lat="43.81786534676838" lon="7.405821891838117"><ele>573.0</ele><time>2026-05-01T14:10:48Z</time></trkpt><trkpt lat="43.817946054953225" lon="7.4058958074159"><ele>573.0</ele><time>2026-05-01T14:10:49Z</time></trkpt><trkpt lat="43.81802621037107" lon="7.405958021367064"><ele>573.0</ele><time>2026-05-01T14:10:50Z</time></trkpt><trkpt lat="43.818096607744785" lon="7.406021501332839"><ele>573.0</ele><time>2026-05-01T14:10:51Z</time></trkpt><trkpt lat="43.81817441949931" lon="7.406089794809211"><ele>573.0</ele><time>2026-05-01T14:10:52Z</time></trkpt><trkpt lat="43.818264639465" lon="7.406141865989876"><ele>573.0</ele><time>2026-05-01T14:10:53Z</time></trkpt><trkpt lat="43.81834508960529" lon="7.406227442525403"><ele>573.0</ele><time>2026-05-01T14:10:54Z</time></trkpt><trkpt lat="43.81843844719764" lon="7.40626278241576"><ele>573.0</ele><time>2026-05-01T14:10:55Z</time></trkpt><trkpt lat="43.81853260052756" lon="7.406290388363644"><ele>573.0</ele><time>2026-05-01T14:10:56Z</time></trkpt><trkpt lat="43.81862904051597" lon="7.4063180153996"><ele>573.0</ele><time>2026-05-01T14:10:57Z</time></trkpt><trkpt lat="43.818718996699225" lon="7.4063433743537885"><ele>577.8</ele><time>2026-05-01T14:10:58Z</time></trkpt><trkpt lat="43.81878976861936" lon="7.406362995086281"><ele>582.5999999999999</ele><time>2026-05-01T14:10:59Z</time></trkpt><trkpt lat="43.81887524856699" lon="7.406410371723523"><ele>587.4000000000001</ele><time>2026-05-01T14:11:01Z</time></trkpt><trkpt lat="43.818954409467345" lon="7.406553286824849"><ele>592.2</ele><time>2026-05-01T14:11:03Z</time></trkpt><trkpt lat="43.81902299543267" lon="7.406625775563803"><ele>597.0</ele><time>2026-05-01T14:11:04Z</time></trkpt><trkpt lat="43.819097752651814" lon="7.406679649613639"><ele>597.0</ele><time>2026-05-01T14:11:05Z</time></trkpt><trkpt lat="43.8191758022035" lon="7.406719700045791"><ele>597.0</ele><time>2026-05-01T14:11:06Z</time></trkpt><trkpt lat="43.81927307540498" lon="7.406716366139576"><ele>597.0</ele><time>2026-05-01T14:11:07Z</time></trkpt><trkpt lat="43.81936563851225" lon="7.406714634129554"><ele>597.0</ele><time>2026-05-01T14:11:08Z</time></trkpt><trkpt lat="43.81944161233068" lon="7.40670465792697"><ele>597.0</ele><time>2026-05-01T14:11:09Z</time></trkpt><trkpt lat="43.81955053968545" lon="7.406678612717455"><ele>589.1666666666666</ele><time>2026-05-01T14:11:11Z</time></trkpt><trkpt lat="43.819626024263734" lon="7.406663184217455"><ele>581.3333333333334</ele><time>2026-05-01T14:11:13Z</time></trkpt><trkpt lat="43.81969779398367" lon="7.40668865310026"><ele>573.5</ele><time>2026-05-01T14:11:15Z</time></trkpt><trkpt lat="43.81976559235634" lon="7.406754909357414"><ele>565.6666666666667</ele><time>2026-05-01T14:11:17Z</time></trkpt><trkpt lat="43.819835529407264" lon="7.406825258322158"><ele>557.8333333333334</ele><time>2026-05-01T14:11:19Z</time></trkpt><trkpt lat="43.81989297597269" lon="7.406919675831201"><ele>550.0</ele><time>2026-05-01T14:11:21Z</time></trkpt><trkpt lat="43.81989766388508" lon="7.407043238606849"><ele>559.0</ele><time>2026-05-01T14:11:23Z</time></trkpt><trkpt lat="43.81989537213942" lon="7.407198552183704"><ele>568.0</ele><time>2026-05-01T14:11:25Z</time></trkpt><trkpt lat="43.81989505117856" lon="7.407356694463452"><ele>577.0</ele><time>2026-05-01T14:11:27Z</time></trkpt><trkpt lat="43.81989505118056" lon="7.40751956907108"><ele>586.0</ele><time>2026-05-01T14:11:29Z</time></trkpt><trkpt lat="43.81988970634994" lon="7.407684584820144"><ele>586.0</ele><time>2026-05-01T14:11:31Z</time></trkpt><trkpt lat="43.819883627886476" lon="7.407783029486398"><ele>586.0</ele><time>2026-05-01T14:11:32Z</time></trkpt><trkpt lat="43.81988267115437" lon="7.407898600578072"><ele>586.0</ele><time>2026-05-01T14:11:33Z</time></trkpt><trkpt lat="43.819896429466446" lon="7.408014125492399"><ele>586.0</ele><time>2026-05-01T14:11:34Z</time></trkpt><trkpt lat="43.819925059690405" lon="7.408132632583643"><ele>586.0</ele><time>2026-05-01T14:11:35Z</time></trkpt><trkpt lat="43.81995076684969" lon="7.408249438753339"><ele>586.0</ele><time>2026-05-01T14:11:36Z</time></trkpt><trkpt lat="43.819984843851756" lon="7.4083517884892816"><ele>590.4</ele><time>2026-05-01T14:11:37Z</time></trkpt><trkpt lat="43.820039273359036" lon="7.408436459407373"><ele>594.8</ele><time>2026-05-01T14:11:38Z</time></trkpt><trkpt lat="43.82009886488661" lon="7.40850588170599"><ele>599.1999999999999</ele><time>2026-05-01T14:11:39Z</time></trkpt><trkpt lat="43.820164242934574" lon="7.408562225771954"><ele>603.6</ele><time>2026-05-01T14:11:40Z</time></trkpt><trkpt lat="43.82026503273885" lon="7.408646468151639"><ele>608.0</ele><time>2026-05-01T14:11:42Z</time></trkpt><trkpt lat="43.82032289789947" lon="7.408783606445494"><ele>604.4285714285714</ele><time>2026-05-01T14:11:44Z</time></trkpt><trkpt lat="43.82035644207023" lon="7.408865661113271"><ele>600.8571428571429</ele><time>2026-05-01T14:11:45Z</time></trkpt><trkpt lat="43.820391567794466" lon="7.408949729412302"><ele>597.2857142857143</ele><time>2026-05-01T14:11:46Z</time></trkpt><trkpt lat="43.82043105214255" lon="7.409029307417031"><ele>593.7142857142858</ele><time>2026-05-01T14:11:47Z</time></trkpt><trkpt lat="43.82047706029406" lon="7.409100922616189"><ele>590.1428571428571</ele><time>2026-05-01T14:11:48Z</time></trkpt><trkpt lat="43.8205312780441" lon="7.409167528281784"><ele>586.5714285714287</ele><time>2026-05-01T14:11:49Z</time></trkpt><trkpt lat="43.82058897429289" lon="7.409208641099296"><ele>583.0</ele><time>2026-05-01T14:11:50Z</time></trkpt><trkpt lat="43.82062270589974" lon="7.409282389313186"><ele>583.0</ele><time>2026-05-01T14:11:51Z</time></trkpt><trkpt lat="43.8206191160505" lon="7.409388169565935"><ele>583.0</ele><time>2026-05-01T14:11:52Z</time></trkpt><trkpt lat="43.82064833862907" lon="7.409483954244909"><ele>583.0</ele><time>2026-05-01T14:11:53Z</time></trkpt><trkpt lat="43.820687480082356" lon="7.409577461369426"><ele>583.0</ele><time>2026-05-01T14:11:54Z</time></trkpt><trkpt lat="43.82073408175915" lon="7.409661595853886"><ele>583.0</ele><time>2026-05-01T14:11:55Z</time></trkpt><trkpt lat="43.820810885749424" lon="7.409787925172429"><ele>583.0</ele><time>2026-05-01T14:11:57Z</time></trkpt><trkpt lat="43.82082185200521" lon="7.409952688010834"><ele>587.0</ele><time>2026-05-01T14:11:59Z</time></trkpt><trkpt lat="43.8208255162267" lon="7.41005329473969"><ele>591.0</ele><time>2026-05-01T14:12:00Z</time></trkpt><trkpt lat="43.82082149442293" lon="7.410219396678801"><ele>595.0</ele><time>2026-05-01T14:12:02Z</time></trkpt><trkpt lat="43.82079787600797" lon="7.4103023944424615"><ele>599.0</ele><time>2026-05-01T14:12:03Z</time></trkpt><trkpt lat="43.82077250242254" lon="7.4103873520063175"><ele>603.0</ele><time>2026-05-01T14:12:04Z</time></trkpt><trkpt lat="43.82072997042669" lon="7.410512844547476"><ele>607.0</ele><time>2026-05-01T14:12:06Z</time></trkpt><trkpt lat="43.82071144056671" lon="7.410650066408343"><ele>607.0</ele><time>2026-05-01T14:12:08Z</time></trkpt><trkpt lat="43.82072074662083" lon="7.41077966538178"><ele>607.0</ele><time>2026-05-01T14:12:10Z</time></trkpt><trkpt lat="43.82070166975433" lon="7.410944882818329"><ele>607.0</ele><time>2026-05-01T14:12:12Z</time></trkpt><trkpt lat="43.820697059107424" lon="7.411093312132028"><ele>607.0</ele><time>2026-05-01T14:12:14Z</time></trkpt><trkpt lat="43.82068044973476" lon="7.411213005995611"><ele>607.0</ele><time>2026-05-01T14:12:16Z</time></trkpt><trkpt lat="43.82060671904783" lon="7.411376364796296"><ele>605.8333333333334</ele><time>2026-05-01T14:12:18Z</time></trkpt><trkpt lat="43.8205642334823" lon="7.411482606625465"><ele>604.6666666666667</ele><time>2026-05-01T14:12:19Z</time></trkpt><trkpt lat="43.82053285355658" lon="7.411594349049352"><ele>603.5</ele><time>2026-05-01T14:12:20Z</time></trkpt><trkpt lat="43.82052219881463" lon="7.411707059972115"><ele>602.3333333333334</ele><time>2026-05-01T14:12:21Z</time></trkpt><trkpt lat="43.820522967383916" lon="7.411830332855596"><ele>601.1666666666666</ele><time>2026-05-01T14:12:22Z</time></trkpt><trkpt lat="43.820536870835376" lon="7.41194723100784"><ele>600.0</ele><time>2026-05-01T14:12:23Z</time></trkpt><trkpt lat="43.82055701350249" lon="7.412045362899444"><ele>599.0</ele><time>2026-05-01T14:12:24Z</time></trkpt><trkpt lat="43.82056855126274" lon="7.41221004746462"><ele>598.0</ele><time>2026-05-01T14:12:26Z</time></trkpt><trkpt lat="43.82055764090634" lon="7.412308556081394"><ele>597.0</ele><time>2026-05-01T14:12:27Z</time></trkpt><trkpt lat="43.820523628268546" lon="7.412403267044569"><ele>596.0</ele><time>2026-05-01T14:12:28Z</time></trkpt><trkpt lat="43.8204761028035" lon="7.412520165051559"><ele>595.0</ele><time>2026-05-01T14:12:28.999Z</time></trkpt><trkpt lat="43.8204244470281" lon="7.41263054150385"><ele>595.0</ele><time>2026-05-01T14:12:29.999Z</time></trkpt><trkpt lat="43.82037779837345" lon="7.41275530142056"><ele>595.0</ele><time>2026-05-01T14:12:30.999Z</time></trkpt><trkpt lat="43.82034639970126" lon="7.412892693133977"><ele>595.0</ele><time>2026-05-01T14:12:31.999Z</time></trkpt><trkpt lat="43.82033054552487" lon="7.4130262612196"><ele>595.0</ele><time>2026-05-01T14:12:32.999Z</time></trkpt><trkpt lat="43.820309494676394" lon="7.41313326865684"><ele>595.0</ele><time>2026-05-01T14:12:33.999Z</time></trkpt><trkpt lat="43.82027547517451" lon="7.413228268160855"><ele>594.0</ele><time>2026-05-01T14:12:34.999Z</time></trkpt><trkpt lat="43.820227754096464" lon="7.413332071362632"><ele>593.0</ele><time>2026-05-01T14:12:35.999Z</time></trkpt><trkpt lat="43.820191615649115" lon="7.41343632883026"><ele>592.0</ele><time>2026-05-01T14:12:36.999Z</time></trkpt><trkpt lat="43.82017004376171" lon="7.41354068261579"><ele>591.0</ele><time>2026-05-01T14:12:37.999Z</time></trkpt><trkpt lat="43.82016936387202" lon="7.413664625570004"><ele>590.0</ele><time>2026-05-01T14:12:38.999Z</time></trkpt><trkpt lat="43.82022115664127" lon="7.413782012518526"><ele>589.0</ele><time>2026-05-01T14:12:39.999Z</time></trkpt><trkpt lat="43.82022453858063" lon="7.41390532598605"><ele>589.0</ele><time>2026-05-01T14:12:40.999Z</time></trkpt><trkpt lat="43.82022512723836" lon="7.4140179795722"><ele>589.0</ele><time>2026-05-01T14:12:41.999Z</time></trkpt><trkpt lat="43.82023175074339" lon="7.414146512183538"><ele>589.0</ele><time>2026-05-01T14:12:42.999Z</time></trkpt><trkpt lat="43.820246199317566" lon="7.414269029667053"><ele>589.0</ele><time>2026-05-01T14:12:43.999Z</time></trkpt><trkpt lat="43.82025147843849" lon="7.414387957749755"><ele>589.0</ele><time>2026-05-01T14:12:44.999Z</time></trkpt><trkpt lat="43.82024984758581" lon="7.414515794420723"><ele>589.0</ele><time>2026-05-01T14:12:45.999Z</time></trkpt><trkpt lat="43.82024111683138" lon="7.414643257434081"><ele>589.4</ele><time>2026-05-01T14:12:46.999Z</time></trkpt><trkpt lat="43.82021723758626" lon="7.41477072826811"><ele>589.8</ele><time>2026-05-01T14:12:47.999Z</time></trkpt><trkpt lat="43.820193327941396" lon="7.4148968976129535"><ele>590.2</ele><time>2026-05-01T14:12:48.999Z</time></trkpt><trkpt lat="43.82017368387522" lon="7.415022184983401"><ele>590.6</ele><time>2026-05-01T14:12:49.999Z</time></trkpt><trkpt lat="43.820169063745645" lon="7.415151542310386"><ele>591.0</ele><time>2026-05-01T14:12:50.999Z</time></trkpt><trkpt lat="43.82017404256198" lon="7.415274390104464"><ele>591.0</ele><time>2026-05-01T14:12:51.999Z</time></trkpt><trkpt lat="43.82020183613429" lon="7.415396077471516"><ele>591.0</ele><time>2026-05-01T14:12:52.999Z</time></trkpt><trkpt lat="43.82020464305423" lon="7.415513704902333"><ele>591.0</ele><time>2026-05-01T14:12:53.999Z</time></trkpt><trkpt lat="43.82023560816638" lon="7.4156182047038035"><ele>591.0</ele><time>2026-05-01T14:12:54.999Z</time></trkpt><trkpt lat="43.820308928632" lon="7.415704210456071"><ele>591.0</ele><time>2026-05-01T14:12:55.999Z</time></trkpt><trkpt lat="43.820377242769666" lon="7.4157764425026365"><ele>591.0</ele><time>2026-05-01T14:12:56.999Z</time></trkpt><trkpt lat="43.82042616670626" lon="7.415858846310307"><ele>594.0</ele><time>2026-05-01T14:12:57.999Z</time></trkpt><trkpt lat="43.82048350459119" lon="7.415921733943992"><ele>597.0</ele><time>2026-05-01T14:12:58.999Z</time></trkpt><trkpt lat="43.820532737014375" lon="7.41600526754749"><ele>600.0</ele><time>2026-05-01T14:12:59.999Z</time></trkpt><trkpt lat="43.82055983945754" lon="7.416129618132883"><ele>603.0</ele><time>2026-05-01T14:13:00.999Z</time></trkpt><trkpt lat="43.820590759323906" lon="7.416267168374698"><ele>606.0</ele><time>2026-05-01T14:13:01.999Z</time></trkpt><trkpt lat="43.82061415610137" lon="7.416409393351748"><ele>608.3333333333334</ele><time>2026-05-01T14:13:02.999Z</time></trkpt><trkpt lat="43.82063148997833" lon="7.416539548276017"><ele>610.6666666666666</ele><time>2026-05-01T14:13:03.999Z</time></trkpt><trkpt lat="43.820638555721395" lon="7.416659387120838"><ele>613.0</ele><time>2026-05-01T14:13:04.999Z</time></trkpt><trkpt lat="43.82063946087525" lon="7.416768537196374"><ele>615.3333333333333</ele><time>2026-05-01T14:13:05.999Z</time></trkpt><trkpt lat="43.8206280261687" lon="7.416879063214586"><ele>617.6666666666666</ele><time>2026-05-01T14:13:06.999Z</time></trkpt><trkpt lat="43.820598989975835" lon="7.416988093776835"><ele>620.0</ele><time>2026-05-01T14:13:07.999Z</time></trkpt><trkpt lat="43.82055247042475" lon="7.417097285823978"><ele>620.1666666666666</ele><time>2026-05-01T14:13:08.999Z</time></trkpt><trkpt lat="43.820509703326024" lon="7.417179697369574"><ele>620.3333333333333</ele><time>2026-05-01T14:13:09.999Z</time></trkpt><trkpt lat="43.82044863620058" lon="7.417255079720184"><ele>620.5</ele><time>2026-05-01T14:13:11.999Z</time></trkpt><trkpt lat="43.820425591250874" lon="7.4173493909315695"><ele>620.6666666666666</ele><time>2026-05-01T14:13:14.999Z</time></trkpt><trkpt lat="43.820408757188886" lon="7.417440528168983"><ele>620.8333333333334</ele><time>2026-05-01T14:13:17.999Z</time></trkpt><trkpt lat="43.820403834442374" lon="7.417545468760258"><ele>621.0</ele><time>2026-05-01T14:13:19.999Z</time></trkpt><trkpt lat="43.82038130675338" lon="7.417679372421225"><ele>621.0</ele><time>2026-05-01T14:13:21.999Z</time></trkpt><trkpt lat="43.820347337632505" lon="7.417862313059965"><ele>621.0</ele><time>2026-05-01T14:13:23.999Z</time></trkpt><trkpt lat="43.82032174252366" lon="7.41798041215329"><ele>621.0</ele><time>2026-05-01T14:13:24.999Z</time></trkpt><trkpt lat="43.820283964081085" lon="7.418098780578777"><ele>621.0</ele><time>2026-05-01T14:13:25.999Z</time></trkpt><trkpt lat="43.82023616207817" lon="7.418219200355276"><ele>621.0</ele><time>2026-05-01T14:13:26.999Z</time></trkpt><trkpt lat="43.82020284255696" lon="7.418326150851836"><ele>619.6</ele><time>2026-05-01T14:13:27.999Z</time></trkpt><trkpt lat="43.82019090443296" lon="7.4184562747892056"><ele>618.2</ele><time>2026-05-01T14:13:28.999Z</time></trkpt><trkpt lat="43.820198152341135" lon="7.418580615658141"><ele>616.8</ele><time>2026-05-01T14:13:29.999Z</time></trkpt><trkpt lat="43.82020331538448" lon="7.418711245565064"><ele>615.4</ele><time>2026-05-01T14:13:30.999Z</time></trkpt><trkpt lat="43.82018919684679" lon="7.41883712571543"><ele>614.0</ele><time>2026-05-01T14:13:31.999Z</time></trkpt><trkpt lat="43.82016008295976" lon="7.418971293563832"><ele>621.6</ele><time>2026-05-01T14:13:32.999Z</time></trkpt><trkpt lat="43.82012728842565" lon="7.419100875169556"><ele>629.2</ele><time>2026-05-01T14:13:33.999Z</time></trkpt><trkpt lat="43.82009309464593" lon="7.419235759295404"><ele>636.8000000000001</ele><time>2026-05-01T14:13:34.999Z</time></trkpt><trkpt lat="43.82006260589832" lon="7.4193550064517"><ele>644.4</ele><time>2026-05-01T14:13:35.999Z</time></trkpt><trkpt lat="43.820044054663995" lon="7.419468041704963"><ele>652.0</ele><time>2026-05-01T14:13:36.999Z</time></trkpt><trkpt lat="43.82003798793673" lon="7.419579574699161"><ele>651.6666666666667</ele><time>2026-05-01T14:13:37.999Z</time></trkpt><trkpt lat="43.82005049117107" lon="7.419681512960458"><ele>651.3333333333334</ele><time>2026-05-01T14:13:38.999Z</time></trkpt><trkpt lat="43.820085535589136" lon="7.419782221688858"><ele>651.0</ele><time>2026-05-01T14:13:39.999Z</time></trkpt><trkpt lat="43.820130581136" lon="7.419865874950909"><ele>650.6666666666666</ele><time>2026-05-01T14:13:40.999Z</time></trkpt><trkpt lat="43.820170638856084" lon="7.41995796079107"><ele>650.3333333333333</ele><time>2026-05-01T14:13:41.999Z</time></trkpt><trkpt lat="43.820178448530896" lon="7.420058648011201"><ele>650.0</ele><time>2026-05-01T14:13:42.999Z</time></trkpt><trkpt lat="43.8201760061148" lon="7.420157550189308"><ele>650.0</ele><time>2026-05-01T14:13:43.999Z</time></trkpt><trkpt lat="43.82015216337561" lon="7.4202540717504135"><ele>650.0</ele><time>2026-05-01T14:13:44.999Z</time></trkpt><trkpt lat="43.82010332625494" lon="7.420344695307315"><ele>650.0</ele><time>2026-05-01T14:13:45.999Z</time></trkpt><trkpt lat="43.82005593180054" lon="7.420427309022837"><ele>650.0</ele><time>2026-05-01T14:13:46.999Z</time></trkpt><trkpt lat="43.82000931327777" lon="7.420541074400626"><ele>650.0</ele><time>2026-05-01T14:13:47.999Z</time></trkpt><trkpt lat="43.81998621428389" lon="7.420659646314029"><ele>650.0</ele><time>2026-05-01T14:13:48.999Z</time></trkpt><trkpt lat="43.81999510347425" lon="7.420782830583489"><ele>650.6</ele><time>2026-05-01T14:13:49.999Z</time></trkpt><trkpt lat="43.82000594093297" lon="7.420900208747808"><ele>651.2</ele><time>2026-05-01T14:13:50.999Z</time></trkpt><trkpt lat="43.82000356678999" lon="7.421020544482378"><ele>651.8</ele><time>2026-05-01T14:13:51.999Z</time></trkpt><trkpt lat="43.819987574710915" lon="7.421155404443289"><ele>652.4</ele><time>2026-05-01T14:13:52.999Z</time></trkpt><trkpt lat="43.819962866555535" lon="7.421291568649202"><ele>653.0</ele><time>2026-05-01T14:13:53.999Z</time></trkpt><trkpt lat="43.81993225096693" lon="7.42143046749029"><ele>653.0</ele><time>2026-05-01T14:13:54.999Z</time></trkpt><trkpt lat="43.81989879496174" lon="7.421568355292148"><ele>653.0</ele><time>2026-05-01T14:13:55.999Z</time></trkpt><trkpt lat="43.819864018083294" lon="7.42170283710923"><ele>653.0</ele><time>2026-05-01T14:13:56.999Z</time></trkpt><trkpt lat="43.819830389174776" lon="7.421840137061153"><ele>653.0</ele><time>2026-05-01T14:13:57.999Z</time></trkpt><trkpt lat="43.81979886030157" lon="7.421966012831293"><ele>653.0</ele><time>2026-05-01T14:13:58.999Z</time></trkpt><trkpt lat="43.819770938556736" lon="7.422086989313425"><ele>651.1666666666666</ele><time>2026-05-01T14:13:59.999Z</time></trkpt><trkpt lat="43.81974460065464" lon="7.422213591470907"><ele>649.3333333333333</ele><time>2026-05-01T14:14:00.999Z</time></trkpt><trkpt lat="43.819719556485225" lon="7.422346771688167"><ele>647.5</ele><time>2026-05-01T14:14:01.999Z</time></trkpt><trkpt lat="43.81970203224495" lon="7.422464954726601"><ele>645.6666666666666</ele><time>2026-05-01T14:14:02.999Z</time></trkpt><trkpt lat="43.81967721957022" lon="7.422561861999171"><ele>643.8333333333334</ele><time>2026-05-01T14:14:03.999Z</time></trkpt><trkpt lat="43.81964106627149" lon="7.422650922007825"><ele>642.0</ele><time>2026-05-01T14:14:04.999Z</time></trkpt><trkpt lat="43.81959065687627" lon="7.422710587124076"><ele>642.0</ele><time>2026-05-01T14:14:05.999Z</time></trkpt><trkpt lat="43.81952384909907" lon="7.422768480188681"><ele>642.0</ele><time>2026-05-01T14:14:06.999Z</time></trkpt><trkpt lat="43.819454968757896" lon="7.422820118297983"><ele>642.0</ele><time>2026-05-01T14:14:07.999Z</time></trkpt><trkpt lat="43.81939770700435" lon="7.42287380724546"><ele>642.0</ele><time>2026-05-01T14:14:08.999Z</time></trkpt><trkpt lat="43.81934116169724" lon="7.4229240107413"><ele>642.0</ele><time>2026-05-01T14:14:09.999Z</time></trkpt><trkpt lat="43.819237455465675" lon="7.423019202468718"><ele>642.0</ele><time>2026-05-01T14:14:11.999Z</time></trkpt><trkpt lat="43.81919547759549" lon="7.4230958739441295"><ele>646.0</ele><time>2026-05-01T14:14:13.999Z</time></trkpt><trkpt lat="43.81918007021073" lon="7.423198108920525"><ele>650.0</ele><time>2026-05-01T14:14:16.999Z</time></trkpt><trkpt lat="43.819131776821855" lon="7.423352974325417"><ele>654.0</ele><time>2026-05-01T14:14:18.999Z</time></trkpt><trkpt lat="43.819077194653595" lon="7.423438651270112"><ele>658.0</ele><time>2026-05-01T14:14:19.999Z</time></trkpt><trkpt lat="43.819014709710515" lon="7.423520503625171"><ele>662.0</ele><time>2026-05-01T14:14:20.999Z</time></trkpt><trkpt lat="43.818954022159055" lon="7.423603463886248"><ele>662.0</ele><time>2026-05-01T14:14:21.999Z</time></trkpt><trkpt lat="43.81890130193526" lon="7.4236974362471875"><ele>662.0</ele><time>2026-05-01T14:14:22.999Z</time></trkpt><trkpt lat="43.818860955771434" lon="7.423803763719016"><ele>662.0</ele><time>2026-05-01T14:14:23.999Z</time></trkpt><trkpt lat="43.81881857927484" lon="7.423928038559229"><ele>662.0</ele><time>2026-05-01T14:14:24.999Z</time></trkpt><trkpt lat="43.81877270064461" lon="7.424052740539526"><ele>662.0</ele><time>2026-05-01T14:14:25.999Z</time></trkpt><trkpt lat="43.81872578042837" lon="7.42416409274765"><ele>659.5</ele><time>2026-05-01T14:14:26.999Z</time></trkpt><trkpt lat="43.81868095143751" lon="7.424269086965632"><ele>657.0</ele><time>2026-05-01T14:14:27.999Z</time></trkpt><trkpt lat="43.818646794845755" lon="7.424374042653713"><ele>654.5</ele><time>2026-05-01T14:14:28.999Z</time></trkpt><trkpt lat="43.81863326473554" lon="7.424481319989242"><ele>652.0</ele><time>2026-05-01T14:14:29.999Z</time></trkpt><trkpt lat="43.81864741517343" lon="7.424588777786658"><ele>649.5</ele><time>2026-05-01T14:14:30.999Z</time></trkpt><trkpt lat="43.81866857367566" lon="7.424702251750582"><ele>647.0</ele><time>2026-05-01T14:14:31.999Z</time></trkpt><trkpt lat="43.81867591082896" lon="7.424821462560669"><ele>646.5</ele><time>2026-05-01T14:14:32.999Z</time></trkpt><trkpt lat="43.818661042428865" lon="7.424935744622381"><ele>646.0</ele><time>2026-05-01T14:14:33.999Z</time></trkpt><trkpt lat="43.818643769735864" lon="7.425049337220028"><ele>645.5</ele><time>2026-05-01T14:14:34.999Z</time></trkpt><trkpt lat="43.81864916954417" lon="7.425171617620998"><ele>645.0</ele><time>2026-05-01T14:14:35.999Z</time></trkpt><trkpt lat="43.81868193882964" lon="7.425291134167482"><ele>644.5</ele><time>2026-05-01T14:14:36.999Z</time></trkpt><trkpt lat="43.81872371819533" lon="7.425389300791449"><ele>644.0</ele><time>2026-05-01T14:14:37.999Z</time></trkpt><trkpt lat="43.818740634264756" lon="7.425494246057696"><ele>645.8333333333333</ele><time>2026-05-01T14:14:38.999Z</time></trkpt><trkpt lat="43.81873360629527" lon="7.425597591260535"><ele>647.6666666666666</ele><time>2026-05-01T14:14:39.999Z</time></trkpt><trkpt lat="43.818732136097466" lon="7.425702948859699"><ele>649.5</ele><time>2026-05-01T14:14:40.999Z</time></trkpt><trkpt lat="43.81875920153981" lon="7.42580447320022"><ele>651.3333333333334</ele><time>2026-05-01T14:14:41.999Z</time></trkpt><trkpt lat="43.81880980091914" lon="7.425886281362782"><ele>653.1666666666667</ele><time>2026-05-01T14:14:42.999Z</time></trkpt><trkpt lat="43.81889163658605" lon="7.425943775027974"><ele>655.0</ele><time>2026-05-01T14:14:43.999Z</time></trkpt><trkpt lat="43.81897740914069" lon="7.425964660838735"><ele>655.0</ele><time>2026-05-01T14:14:44.999Z</time></trkpt><trkpt lat="43.81907878302981" lon="7.425965101781379"><ele>655.0</ele><time>2026-05-01T14:14:45.999Z</time></trkpt><trkpt lat="43.819190370971356" lon="7.425963990168198"><ele>655.0</ele><time>2026-05-01T14:14:46.999Z</time></trkpt><trkpt lat="43.81930308033697" lon="7.425957541498143"><ele>655.0</ele><time>2026-05-01T14:14:47.999Z</time></trkpt><trkpt lat="43.819405472438184" lon="7.425949953881279"><ele>655.0</ele><time>2026-05-01T14:14:48.999Z</time></trkpt><trkpt lat="43.819500680146774" lon="7.425944852048702"><ele>656.5</ele><time>2026-05-01T14:14:49.999Z</time></trkpt><trkpt lat="43.81959517890418" lon="7.425924870872871"><ele>658.0</ele><time>2026-05-01T14:14:50.999Z</time></trkpt><trkpt lat="43.81968383748441" lon="7.425883407570262"><ele>659.5</ele><time>2026-05-01T14:14:51.999Z</time></trkpt><trkpt lat="43.819761121182594" lon="7.425833893483242"><ele>661.0</ele><time>2026-05-01T14:14:52.999Z</time></trkpt><trkpt lat="43.81983597809693" lon="7.425795518187799"><ele>662.5</ele><time>2026-05-01T14:14:53.999Z</time></trkpt><trkpt lat="43.819921285543586" lon="7.425779011742563"><ele>664.0</ele><time>2026-05-01T14:14:54.999Z</time></trkpt><trkpt lat="43.82001314430091" lon="7.425790458986828"><ele>664.0</ele><time>2026-05-01T14:14:55.999Z</time></trkpt><trkpt lat="43.82011238080553" lon="7.425810864785442"><ele>664.0</ele><time>2026-05-01T14:14:56.999Z</time></trkpt><trkpt lat="43.820211191304566" lon="7.425825767678747"><ele>664.0</ele><time>2026-05-01T14:14:57.999Z</time></trkpt><trkpt lat="43.82031300484271" lon="7.42581332041213"><ele>664.0</ele><time>2026-05-01T14:14:58.999Z</time></trkpt><trkpt lat="43.82041218872031" lon="7.425761897124089"><ele>664.0</ele><time>2026-05-01T14:14:59.999Z</time></trkpt><trkpt lat="43.82050569032867" lon="7.425705074212202"><ele>666.0</ele><time>2026-05-01T14:15:00.999Z</time></trkpt><trkpt lat="43.820592176562805" lon="7.425657064687673"><ele>668.0</ele><time>2026-05-01T14:15:01.999Z</time></trkpt><trkpt lat="43.82068146447502" lon="7.425631786887827"><ele>670.0</ele><time>2026-05-01T14:15:02.999Z</time></trkpt><trkpt lat="43.82076407440263" lon="7.425617451935189"><ele>672.0</ele><time>2026-05-01T14:15:03.999Z</time></trkpt><trkpt lat="43.82083329489374" lon="7.425601279452972"><ele>674.0</ele><time>2026-05-01T14:15:04.999Z</time></trkpt><trkpt lat="43.82090006851975" lon="7.425606919921323"><ele>676.0</ele><time>2026-05-01T14:15:05.999Z</time></trkpt><trkpt lat="43.820975351681874" lon="7.4256420236070495"><ele>673.0</ele><time>2026-05-01T14:15:06.999Z</time></trkpt><trkpt lat="43.82105818233212" lon="7.42566563635097"><ele>670.0</ele><time>2026-05-01T14:15:07.999Z</time></trkpt><trkpt lat="43.82114382619494" lon="7.425659275967824"><ele>667.0</ele><time>2026-05-01T14:15:08.999Z</time></trkpt><trkpt lat="43.82121479168816" lon="7.425629238063693"><ele>664.0</ele><time>2026-05-01T14:15:09.999Z</time></trkpt><trkpt lat="43.82128574846495" lon="7.425609991983118"><ele>661.0</ele><time>2026-05-01T14:15:10.999Z</time></trkpt><trkpt lat="43.82135389759934" lon="7.425621684224824"><ele>658.0</ele><time>2026-05-01T14:15:11.999Z</time></trkpt><trkpt lat="43.82145048435791" lon="7.425708515011582"><ele>658.0</ele><time>2026-05-01T14:15:13.999Z</time></trkpt><trkpt lat="43.82147284006386" lon="7.42579561484007"><ele>658.0</ele><time>2026-05-01T14:15:14.999Z</time></trkpt><trkpt lat="43.821489241758606" lon="7.425897919310795"><ele>658.0</ele><time>2026-05-01T14:15:15.999Z</time></trkpt><trkpt lat="43.82151266200746" lon="7.426009028285879"><ele>658.0</ele><time>2026-05-01T14:15:16.999Z</time></trkpt><trkpt lat="43.82152925069407" lon="7.426135112248501"><ele>658.0</ele><time>2026-05-01T14:15:17.999Z</time></trkpt><trkpt lat="43.821515589660905" lon="7.426252343430882"><ele>658.0</ele><time>2026-05-01T14:15:18.999Z</time></trkpt><trkpt lat="43.821494919077736" lon="7.426345597174954"><ele>660.5999999999999</ele><time>2026-05-01T14:15:19.999Z</time></trkpt><trkpt lat="43.82147439068901" lon="7.426470219585566"><ele>663.1999999999999</ele><time>2026-05-01T14:15:20.999Z</time></trkpt><trkpt lat="43.821440560416605" lon="7.426604537646196"><ele>665.8</ele><time>2026-05-01T14:15:21.999Z</time></trkpt><trkpt lat="43.8214005401723" lon="7.426737465585604"><ele>668.4</ele><time>2026-05-01T14:15:22.999Z</time></trkpt><trkpt lat="43.82138572305986" lon="7.42687047930581"><ele>671.0</ele><time>2026-05-01T14:15:23.999Z</time></trkpt><trkpt lat="43.82140038265631" lon="7.427000769652505"><ele>671.0</ele><time>2026-05-01T14:15:24.999Z</time></trkpt><trkpt lat="43.82144052199352" lon="7.427123766196801"><ele>671.0</ele><time>2026-05-01T14:15:25.999Z</time></trkpt><trkpt lat="43.82146793613204" lon="7.427242481544261"><ele>671.0</ele><time>2026-05-01T14:15:26.999Z</time></trkpt><trkpt lat="43.82147344310067" lon="7.427365064964116"><ele>671.0</ele><time>2026-05-01T14:15:27.999Z</time></trkpt><trkpt lat="43.821473500909626" lon="7.42750400408172"><ele>671.0</ele><time>2026-05-01T14:15:28.999Z</time></trkpt><trkpt lat="43.82148795669208" lon="7.427651637448493"><ele>671.6666666666666</ele><time>2026-05-01T14:15:29.999Z</time></trkpt><trkpt lat="43.82151469151924" lon="7.427773691727902"><ele>672.3333333333333</ele><time>2026-05-01T14:15:30.999Z</time></trkpt><trkpt lat="43.82152319728917" lon="7.4278715915367695"><ele>673.0</ele><time>2026-05-01T14:15:31.999Z</time></trkpt><trkpt lat="43.8215103503313" lon="7.427975808504768"><ele>673.6666666666666</ele><time>2026-05-01T14:15:32.999Z</time></trkpt><trkpt lat="43.82147414526595" lon="7.4280932569494"><ele>674.3333333333334</ele><time>2026-05-01T14:15:33.999Z</time></trkpt><trkpt lat="43.82144022199099" lon="7.4282324423447506"><ele>675.0</ele><time>2026-05-01T14:15:34.999Z</time></trkpt><trkpt lat="43.82142556692176" lon="7.428382521274741"><ele>675.0</ele><time>2026-05-01T14:15:35.999Z</time></trkpt><trkpt lat="43.82141304530533" lon="7.42852971174375"><ele>675.0</ele><time>2026-05-01T14:15:36.999Z</time></trkpt><trkpt lat="43.82138889304967" lon="7.428654595269236"><ele>675.0</ele><time>2026-05-01T14:15:37.999Z</time></trkpt><trkpt lat="43.82136939820861" lon="7.428766329141533"><ele>675.0</ele><time>2026-05-01T14:15:38.999Z</time></trkpt><trkpt lat="43.821371796304035" lon="7.428880580559262"><ele>675.0</ele><time>2026-05-01T14:15:39.999Z</time></trkpt><trkpt lat="43.82140232097945" lon="7.428990804858201"><ele>675.1666666666666</ele><time>2026-05-01T14:15:40.999Z</time></trkpt><trkpt lat="43.82145483949723" lon="7.429092703815038"><ele>675.3333333333334</ele><time>2026-05-01T14:15:41.999Z</time></trkpt><trkpt lat="43.82151699440028" lon="7.429166908289957"><ele>675.5</ele><time>2026-05-01T14:15:42.999Z</time></trkpt><trkpt lat="43.821568487087596" lon="7.429226877334381"><ele>675.6666666666667</ele><time>2026-05-01T14:15:43.999Z</time></trkpt><trkpt lat="43.82159654694484" lon="7.429385318718244"><ele>675.8333333333334</ele><time>2026-05-01T14:15:45.999Z</time></trkpt><trkpt lat="43.821567338546316" lon="7.429478367080998"><ele>676.0</ele><time>2026-05-01T14:15:46.999Z</time></trkpt><trkpt lat="43.821525280266975" lon="7.429579875428457"><ele>674.8</ele><time>2026-05-01T14:15:47.999Z</time></trkpt><trkpt lat="43.82147087465148" lon="7.429697996857848"><ele>673.5999999999999</ele><time>2026-05-01T14:15:48.999Z</time></trkpt><trkpt lat="43.82141294438444" lon="7.429822029996081"><ele>672.4</ele><time>2026-05-01T14:15:49.999Z</time></trkpt><trkpt lat="43.821350690476166" lon="7.429956267376629"><ele>671.2</ele><time>2026-05-01T14:15:50.999Z</time></trkpt><trkpt lat="43.821289858269466" lon="7.430080178763306"><ele>670.0</ele><time>2026-05-01T14:15:51.999Z</time></trkpt><trkpt lat="43.82122096816835" lon="7.430207073257691"><ele>670.0</ele><time>2026-05-01T14:15:52.999Z</time></trkpt><trkpt lat="43.821148403284944" lon="7.430336672012324"><ele>670.0</ele><time>2026-05-01T14:15:53.999Z</time></trkpt><trkpt lat="43.821072575310914" lon="7.430473180797989"><ele>670.0</ele><time>2026-05-01T14:15:54.999Z</time></trkpt><trkpt lat="43.82100254438629" lon="7.430598150393179"><ele>670.0</ele><time>2026-05-01T14:15:55.999Z</time></trkpt><trkpt lat="43.820934043191784" lon="7.4307108437915055"><ele>675.4</ele><time>2026-05-01T14:15:56.999Z</time></trkpt><trkpt lat="43.820853924796566" lon="7.430814505209883"><ele>680.8</ele><time>2026-05-01T14:15:57.999Z</time></trkpt><trkpt lat="43.82076941070818" lon="7.430909826936822"><ele>686.2</ele><time>2026-05-01T14:15:58.999Z</time></trkpt><trkpt lat="43.82068345675601" lon="7.430994877518168"><ele>691.6</ele><time>2026-05-01T14:15:59.999Z</time></trkpt><trkpt lat="43.820594693824745" lon="7.4310764714867155"><ele>697.0</ele><time>2026-05-01T14:16:00.999Z</time></trkpt><trkpt lat="43.82050831506252" lon="7.431145225285414"><ele>697.0</ele><time>2026-05-01T14:16:01.999Z</time></trkpt><trkpt lat="43.82042512424949" lon="7.431221013611429"><ele>697.0</ele><time>2026-05-01T14:16:02.999Z</time></trkpt><trkpt lat="43.82035381865569" lon="7.431299252196071"><ele>697.0</ele><time>2026-05-01T14:16:03.999Z</time></trkpt><trkpt lat="43.8202650303716" lon="7.431364602385867"><ele>697.0</ele><time>2026-05-01T14:16:04.999Z</time></trkpt><trkpt lat="43.820159803552684" lon="7.431396148992989"><ele>697.0</ele><time>2026-05-01T14:16:05.999Z</time></trkpt><trkpt lat="43.8200629956932" lon="7.431427522116306"><ele>698.6</ele><time>2026-05-01T14:16:06.999Z</time></trkpt><trkpt lat="43.81997487348554" lon="7.431503885961698"><ele>700.2</ele><time>2026-05-01T14:16:07.999Z</time></trkpt><trkpt lat="43.819889039859916" lon="7.431597357275068"><ele>701.8</ele><time>2026-05-01T14:16:08.999Z</time></trkpt><trkpt lat="43.819818693365086" lon="7.431686109650457"><ele>703.4</ele><time>2026-05-01T14:16:09.999Z</time></trkpt><trkpt lat="43.81975628677035" lon="7.431760405143529"><ele>705.0</ele><time>2026-05-01T14:16:10.999Z</time></trkpt><trkpt lat="43.819707090017694" lon="7.431841161859267"><ele>705.0</ele><time>2026-05-01T14:16:11.999Z</time></trkpt><trkpt lat="43.819682437074455" lon="7.431937255645407"><ele>705.0</ele><time>2026-05-01T14:16:12.999Z</time></trkpt><trkpt lat="43.81969391329676" lon="7.432060576004021"><ele>705.0</ele><time>2026-05-01T14:16:13.999Z</time></trkpt><trkpt lat="43.81970773591972" lon="7.432193540532033"><ele>705.0</ele><time>2026-05-01T14:16:14.999Z</time></trkpt><trkpt lat="43.819723227058255" lon="7.4323379950890684"><ele>705.0</ele><time>2026-05-01T14:16:15.999Z</time></trkpt><trkpt lat="43.81973559275574" lon="7.4324805363583595"><ele>704.2</ele><time>2026-05-01T14:16:16.999Z</time></trkpt><trkpt lat="43.81976744878143" lon="7.4326088903462795"><ele>703.4</ele><time>2026-05-01T14:16:17.999Z</time></trkpt><trkpt lat="43.81982228871827" lon="7.432726180751437"><ele>702.5999999999999</ele><time>2026-05-01T14:16:18.999Z</time></trkpt><trkpt lat="43.81988651228893" lon="7.432810965853976"><ele>701.8</ele><time>2026-05-01T14:16:19.999Z</time></trkpt><trkpt lat="43.81994578257456" lon="7.432881930963273"><ele>701.0</ele><time>2026-05-01T14:16:20.999Z</time></trkpt><trkpt lat="43.81997396631915" lon="7.433050937151477"><ele>701.0</ele><time>2026-05-01T14:16:22.999Z</time></trkpt><trkpt lat="43.81994673822687" lon="7.433133524256226"><ele>701.0</ele><time>2026-05-01T14:16:23.999Z</time></trkpt><trkpt lat="43.81991227784678" lon="7.433228437625457"><ele>701.0</ele><time>2026-05-01T14:16:24.999Z</time></trkpt><trkpt lat="43.819854482650776" lon="7.433322900670969"><ele>701.0</ele><time>2026-05-01T14:16:25.999Z</time></trkpt><trkpt lat="43.81978385182193" lon="7.433423215161675"><ele>701.0</ele><time>2026-05-01T14:16:26.999Z</time></trkpt><trkpt lat="43.81971155218722" lon="7.433533512215055"><ele>701.0</ele><time>2026-05-01T14:16:27.999Z</time></trkpt><trkpt lat="43.81963157243267" lon="7.433644390749647"><ele>701.0</ele><time>2026-05-01T14:16:28.999Z</time></trkpt><trkpt lat="43.81955677523156" lon="7.4337564097356585"><ele>701.0</ele><time>2026-05-01T14:16:29.999Z</time></trkpt><trkpt lat="43.819479809884456" lon="7.433873157903044"><ele>701.0</ele><time>2026-05-01T14:16:30.999Z</time></trkpt><trkpt lat="43.819390275204974" lon="7.433982838406417"><ele>701.0</ele><time>2026-05-01T14:16:31.999Z</time></trkpt><trkpt lat="43.8192948260748" lon="7.434077709289837"><ele>706.0</ele><time>2026-05-01T14:16:32.999Z</time></trkpt><trkpt lat="43.819198904690175" lon="7.434183478928084"><ele>711.0</ele><time>2026-05-01T14:16:33.999Z</time></trkpt><trkpt lat="43.81911724724104" lon="7.434293280552906"><ele>716.0</ele><time>2026-05-01T14:16:34.999Z</time></trkpt><trkpt lat="43.81903798169774" lon="7.434398550493457"><ele>721.0</ele><time>2026-05-01T14:16:35.999Z</time></trkpt><trkpt lat="43.818961969931074" lon="7.434507867724218"><ele>721.0</ele><time>2026-05-01T14:16:36.999Z</time></trkpt><trkpt lat="43.818891009404396" lon="7.434612571562135"><ele>721.0</ele><time>2026-05-01T14:16:37.999Z</time></trkpt><trkpt lat="43.81882609514988" lon="7.434701620059187"><ele>721.0</ele><time>2026-05-01T14:16:38.999Z</time></trkpt><trkpt lat="43.818765579552284" lon="7.434782613641661"><ele>721.0</ele><time>2026-05-01T14:16:39.999Z</time></trkpt><trkpt lat="43.818705511785865" lon="7.434849777415842"><ele>721.0</ele><time>2026-05-01T14:16:40.999Z</time></trkpt><trkpt lat="43.818634583491175" lon="7.4348981104835445"><ele>721.0</ele><time>2026-05-01T14:16:41.999Z</time></trkpt><trkpt lat="43.81854595521352" lon="7.434932066474153"><ele>721.0</ele><time>2026-05-01T14:16:42.999Z</time></trkpt><trkpt lat="43.818444981224786" lon="7.434963240597307"><ele>721.0</ele><time>2026-05-01T14:16:43.999Z</time></trkpt><trkpt lat="43.81835162027955" lon="7.434976338641127"><ele>721.0</ele><time>2026-05-01T14:16:44.999Z</time></trkpt><trkpt lat="43.818270900819385" lon="7.434999395340621"><ele>721.0</ele><time>2026-05-01T14:16:45.999Z</time></trkpt><trkpt lat="43.81820524766383" lon="7.435052550031134"><ele>721.0</ele><time>2026-05-01T14:16:46.999Z</time></trkpt><trkpt lat="43.818149689813886" lon="7.435115605559494"><ele>721.0</ele><time>2026-05-01T14:16:47.999Z</time></trkpt><trkpt lat="43.81810120704508" lon="7.4351825389027475"><ele>721.0</ele><time>2026-05-01T14:16:48.999Z</time></trkpt><trkpt lat="43.818058116268304" lon="7.43526187523085"><ele>721.0</ele><time>2026-05-01T14:16:49.999Z</time></trkpt><trkpt lat="43.81801494034721" lon="7.435345315037796"><ele>721.0</ele><time>2026-05-01T14:16:50.999Z</time></trkpt><trkpt lat="43.81796553669817" lon="7.435484958419697"><ele>721.0</ele><time>2026-05-01T14:16:52.999Z</time></trkpt><trkpt lat="43.817843193959824" lon="7.435503005949435"><ele>721.0</ele><time>2026-05-01T14:16:54.999Z</time></trkpt><trkpt lat="43.81775964623116" lon="7.435474295848216"><ele>721.0</ele><time>2026-05-01T14:16:55.999Z</time></trkpt><trkpt lat="43.81765624964599" lon="7.435457404930948"><ele>721.0</ele><time>2026-05-01T14:16:56.999Z</time></trkpt><trkpt lat="43.817550171837716" lon="7.435486327629553"><ele>721.0</ele><time>2026-05-01T14:16:57.999Z</time></trkpt><trkpt lat="43.817471114477584" lon="7.435542233141665"><ele>721.0</ele><time>2026-05-01T14:16:58.999Z</time></trkpt><trkpt lat="43.817408403626295" lon="7.435561423216679"><ele>721.0</ele><time>2026-05-01T14:16:59.999Z</time></trkpt><trkpt lat="43.81733565986616" lon="7.435550670936931"><ele>721.0</ele><time>2026-05-01T14:17:00.999Z</time></trkpt><trkpt lat="43.817241790356164" lon="7.435506187780148"><ele>724.5999999999999</ele><time>2026-05-01T14:17:01.999Z</time></trkpt><trkpt lat="43.81713134427741" lon="7.435459988880903"><ele>728.2</ele><time>2026-05-01T14:17:02.999Z</time></trkpt><trkpt lat="43.81702227565251" lon="7.43542893964158"><ele>731.8</ele><time>2026-05-01T14:17:03.999Z</time></trkpt><trkpt lat="43.81693006970396" lon="7.435405466696917"><ele>735.4000000000001</ele><time>2026-05-01T14:17:04.999Z</time></trkpt><trkpt lat="43.816854447692634" lon="7.43538575394952"><ele>739.0</ele><time>2026-05-01T14:17:05.999Z</time></trkpt><trkpt lat="43.81674482178854" lon="7.435459702479402"><ele>736.6666666666667</ele><time>2026-05-01T14:17:07.999Z</time></trkpt><trkpt lat="43.8167013442947" lon="7.435543743166551"><ele>734.3333333333334</ele><time>2026-05-01T14:17:08.999Z</time></trkpt><trkpt lat="43.81666573921264" lon="7.435626036049006"><ele>732.0</ele><time>2026-05-01T14:17:09.999Z</time></trkpt><trkpt lat="43.81663811323602" lon="7.435714860660073"><ele>729.6666666666666</ele><time>2026-05-01T14:17:11.999Z</time></trkpt><trkpt lat="43.816624992410155" lon="7.435807735130895"><ele>727.3333333333333</ele><time>2026-05-01T14:17:13.999Z</time></trkpt><trkpt lat="43.8166559541981" lon="7.43596280254314"><ele>725.0</ele><time>2026-05-01T14:17:15.999Z</time></trkpt><trkpt lat="43.816685198463595" lon="7.436074083597371"><ele>725.0</ele><time>2026-05-01T14:17:16.999Z</time></trkpt><trkpt lat="43.81671516037719" lon="7.436220107641867"><ele>725.0</ele><time>2026-05-01T14:17:17.999Z</time></trkpt><trkpt lat="43.81673850818904" lon="7.436350109050894"><ele>725.0</ele><time>2026-05-01T14:17:18.999Z</time></trkpt><trkpt lat="43.816761295128" lon="7.436486167928683"><ele>725.0</ele><time>2026-05-01T14:17:19.999Z</time></trkpt><trkpt lat="43.81678934557512" lon="7.436628219769014"><ele>725.0</ele><time>2026-05-01T14:17:20.999Z</time></trkpt><trkpt lat="43.81681264362387" lon="7.436775958094288"><ele>723.0</ele><time>2026-05-01T14:17:21.999Z</time></trkpt><trkpt lat="43.81682652490335" lon="7.436917149718247"><ele>721.0</ele><time>2026-05-01T14:17:22.999Z</time></trkpt><trkpt lat="43.81683916998686" lon="7.437048738404937"><ele>719.0</ele><time>2026-05-01T14:17:23.999Z</time></trkpt><trkpt lat="43.81685538201293" lon="7.437168926105151"><ele>717.0</ele><time>2026-05-01T14:17:24.999Z</time></trkpt><trkpt lat="43.816870908953895" lon="7.437275372196353"><ele>715.0</ele><time>2026-05-01T14:17:25.999Z</time></trkpt><trkpt lat="43.81687148568707" lon="7.437370674150771"><ele>713.0</ele><time>2026-05-01T14:17:26.999Z</time></trkpt><trkpt lat="43.81681239344249" lon="7.437501004567547"><ele>713.0</ele><time>2026-05-01T14:17:28.999Z</time></trkpt><trkpt lat="43.816705364052915" lon="7.437558018125549"><ele>713.0</ele><time>2026-05-01T14:17:30.999Z</time></trkpt><trkpt lat="43.81663340973301" lon="7.437556633741408"><ele>713.0</ele><time>2026-05-01T14:17:31.999Z</time></trkpt><trkpt lat="43.81654556017212" lon="7.437542431354681"><ele>713.0</ele><time>2026-05-01T14:17:32.999Z</time></trkpt><trkpt lat="43.81643968418529" lon="7.4375429578994"><ele>713.0</ele><time>2026-05-01T14:17:33.999Z</time></trkpt><trkpt lat="43.816326491638016" lon="7.437561913738924"><ele>713.0</ele><time>2026-05-01T14:17:34.999Z</time></trkpt><trkpt lat="43.81620538379828" lon="7.43758326978683"><ele>713.0</ele><time>2026-05-01T14:17:35.999Z</time></trkpt><trkpt lat="43.81609182530504" lon="7.437607189481788"><ele>713.0</ele><time>2026-05-01T14:17:36.999Z</time></trkpt><trkpt lat="43.81599222289354" lon="7.437643925503939"><ele>713.0</ele><time>2026-05-01T14:17:37.999Z</time></trkpt><trkpt lat="43.81589362067891" lon="7.437693299759725"><ele>713.0</ele><time>2026-05-01T14:17:39Z</time></trkpt><trkpt lat="43.815791868636595" lon="7.437742524555958"><ele>711.8333333333333</ele><time>2026-05-01T14:17:40Z</time></trkpt><trkpt lat="43.81568607045211" lon="7.437787097888122"><ele>710.6666666666666</ele><time>2026-05-01T14:17:41Z</time></trkpt><trkpt lat="43.81559030915848" lon="7.437838680309639"><ele>709.5</ele><time>2026-05-01T14:17:42Z</time></trkpt><trkpt lat="43.81552067936865" lon="7.437899577075667"><ele>708.3333333333334</ele><time>2026-05-01T14:17:42.999Z</time></trkpt><trkpt lat="43.81546386949654" lon="7.437966163661975"><ele>707.1666666666667</ele><time>2026-05-01T14:17:43.999Z</time></trkpt><trkpt lat="43.81541562199445" lon="7.438041040834846"><ele>706.0</ele><time>2026-05-01T14:17:45Z</time></trkpt><trkpt lat="43.815378933639" lon="7.438136973989775"><ele>706.0</ele><time>2026-05-01T14:17:46Z</time></trkpt><trkpt lat="43.81534946285191" lon="7.438245799053665"><ele>706.0</ele><time>2026-05-01T14:17:47Z</time></trkpt><trkpt lat="43.815339632236146" lon="7.438373865326984"><ele>706.0</ele><time>2026-05-01T14:17:48Z</time></trkpt><trkpt lat="43.81535219733144" lon="7.4385124248559285"><ele>706.0</ele><time>2026-05-01T14:17:49Z</time></trkpt><trkpt lat="43.81538838549579" lon="7.438637802867767"><ele>706.0</ele><time>2026-05-01T14:17:50Z</time></trkpt><trkpt lat="43.815430180358156" lon="7.438756358061495"><ele>705.6666666666667</ele><time>2026-05-01T14:17:51Z</time></trkpt><trkpt lat="43.81548853976463" lon="7.438868493657036"><ele>705.3333333333334</ele><time>2026-05-01T14:17:52Z</time></trkpt><trkpt lat="43.8155309181276" lon="7.438981415246759"><ele>705.0</ele><time>2026-05-01T14:17:53Z</time></trkpt><trkpt lat="43.81556815134742" lon="7.4390927022099165"><ele>704.6666666666666</ele><time>2026-05-01T14:17:54Z</time></trkpt><trkpt lat="43.81559698441992" lon="7.439192134158527"><ele>704.3333333333333</ele><time>2026-05-01T14:17:55Z</time></trkpt><trkpt lat="43.81561111909501" lon="7.439299218032405"><ele>704.0</ele><time>2026-05-01T14:17:56Z</time></trkpt><trkpt lat="43.81560441194778" lon="7.439406666223435"><ele>704.0</ele><time>2026-05-01T14:17:57Z</time></trkpt><trkpt lat="43.815587756075956" lon="7.439502932962651"><ele>704.0</ele><time>2026-05-01T14:17:58Z</time></trkpt><trkpt lat="43.815547589131675" lon="7.439606649392027"><ele>704.0</ele><time>2026-05-01T14:17:59Z</time></trkpt><trkpt lat="43.815495944580874" lon="7.439715039177189"><ele>704.0</ele><time>2026-05-01T14:18:00Z</time></trkpt><trkpt lat="43.81544486064911" lon="7.439831399565662"><ele>704.0</ele><time>2026-05-01T14:18:01Z</time></trkpt><trkpt lat="43.815387994142256" lon="7.439957483482515"><ele>702.0</ele><time>2026-05-01T14:18:02Z</time></trkpt><trkpt lat="43.81532182555608" lon="7.440083440201238"><ele>700.0</ele><time>2026-05-01T14:18:03Z</time></trkpt><trkpt lat="43.81524416046135" lon="7.440210716234516"><ele>698.0</ele><time>2026-05-01T14:18:04Z</time></trkpt><trkpt lat="43.81515557595084" lon="7.440332547763943"><ele>696.0</ele><time>2026-05-01T14:18:05Z</time></trkpt><trkpt lat="43.815068861708795" lon="7.440445109303545"><ele>699.5</ele><time>2026-05-01T14:18:06Z</time></trkpt><trkpt lat="43.814991644030925" lon="7.4405304214744525"><ele>703.0</ele><time>2026-05-01T14:18:07Z</time></trkpt><trkpt lat="43.814922114044464" lon="7.440615231371578"><ele>706.5</ele><time>2026-05-01T14:18:08Z</time></trkpt><trkpt lat="43.814866946848554" lon="7.44070605341623"><ele>710.0</ele><time>2026-05-01T14:18:09Z</time></trkpt><trkpt lat="43.814801827578215" lon="7.440791961970929"><ele>713.5</ele><time>2026-05-01T14:18:10Z</time></trkpt><trkpt lat="43.81474096522415" lon="7.44086040387332"><ele>717.0</ele><time>2026-05-01T14:18:11Z</time></trkpt><trkpt lat="43.8146830115079" lon="7.440919767886817"><ele>717.0</ele><time>2026-05-01T14:18:12Z</time></trkpt><trkpt lat="43.814622054506444" lon="7.440958381457224"><ele>717.0</ele><time>2026-05-01T14:18:13Z</time></trkpt><trkpt lat="43.814525323316914" lon="7.4409663438652585"><ele>717.0</ele><time>2026-05-01T14:18:15Z</time></trkpt><trkpt lat="43.814463169605666" lon="7.440944191556595"><ele>717.0</ele><time>2026-05-01T14:18:15.999Z</time></trkpt><trkpt lat="43.81438678393249" lon="7.440910894645726"><ele>717.0</ele><time>2026-05-01T14:18:16.999Z</time></trkpt><trkpt lat="43.814298524635106" lon="7.440887445225804"><ele>717.0</ele><time>2026-05-01T14:18:17.999Z</time></trkpt><trkpt lat="43.814188398048756" lon="7.440885049062705"><ele>722.4000000000001</ele><time>2026-05-01T14:18:18.999Z</time></trkpt><trkpt lat="43.814080911756626" lon="7.44089185796391"><ele>727.8000000000001</ele><time>2026-05-01T14:18:19.999Z</time></trkpt><trkpt lat="43.81397129213495" lon="7.44088528407814"><ele>733.2</ele><time>2026-05-01T14:18:20.999Z</time></trkpt><trkpt lat="43.813872232632654" lon="7.440872581381101"><ele>738.6</ele><time>2026-05-01T14:18:21.999Z</time></trkpt><trkpt lat="43.8137870561985" lon="7.440863843088971"><ele>744.0</ele><time>2026-05-01T14:18:22.999Z</time></trkpt><trkpt lat="43.81372005331317" lon="7.4408701558243875"><ele>744.0</ele><time>2026-05-01T14:18:23.999Z</time></trkpt><trkpt lat="43.813629699043325" lon="7.440982527452682"><ele>744.0</ele><time>2026-05-01T14:18:25.999Z</time></trkpt><trkpt lat="43.8136704438776" lon="7.441163869250778"><ele>744.0</ele><time>2026-05-01T14:18:27.999Z</time></trkpt><trkpt lat="43.81372677500838" lon="7.441251590073762"><ele>744.0</ele><time>2026-05-01T14:18:28.999Z</time></trkpt><trkpt lat="43.813779038115094" lon="7.441354152323026"><ele>744.0</ele><time>2026-05-01T14:18:29.999Z</time></trkpt><trkpt lat="43.81381877393587" lon="7.441470448277583"><ele>741.8333333333334</ele><time>2026-05-01T14:18:30.999Z</time></trkpt><trkpt lat="43.81386038847167" lon="7.4415946741822685"><ele>739.6666666666666</ele><time>2026-05-01T14:18:31.999Z</time></trkpt><trkpt lat="43.81390239265182" lon="7.441702416752653"><ele>737.5</ele><time>2026-05-01T14:18:32.999Z</time></trkpt><trkpt lat="43.813957410503214" lon="7.441788109405465"><ele>735.3333333333333</ele><time>2026-05-01T14:18:33.999Z</time></trkpt><trkpt lat="43.814013695434404" lon="7.441856377951405"><ele>733.1666666666666</ele><time>2026-05-01T14:18:34.999Z</time></trkpt><trkpt lat="43.814063267592154" lon="7.441911032303497"><ele>731.0</ele><time>2026-05-01T14:18:35.999Z</time></trkpt><trkpt lat="43.81408960053906" lon="7.442062650699715"><ele>732.5999999999999</ele><time>2026-05-01T14:18:37.999Z</time></trkpt><trkpt lat="43.81407474373443" lon="7.4421676788345845"><ele>734.2</ele><time>2026-05-01T14:18:38.999Z</time></trkpt><trkpt lat="43.81405886726493" lon="7.442285535844709"><ele>735.8</ele><time>2026-05-01T14:18:39.999Z</time></trkpt><trkpt lat="43.81405275380996" lon="7.442415864621746"><ele>737.4000000000001</ele><time>2026-05-01T14:18:40.999Z</time></trkpt><trkpt lat="43.8140870315025" lon="7.442534913449548"><ele>739.0</ele><time>2026-05-01T14:18:41.999Z</time></trkpt><trkpt lat="43.81415375373679" lon="7.442645660246123"><ele>739.0</ele><time>2026-05-01T14:18:42.999Z</time></trkpt><trkpt lat="43.81423157964229" lon="7.442744441648917"><ele>739.0</ele><time>2026-05-01T14:18:43.999Z</time></trkpt><trkpt lat="43.814301495664296" lon="7.4428498726901795"><ele>739.0</ele><time>2026-05-01T14:18:44.999Z</time></trkpt><trkpt lat="43.81435222679716" lon="7.442956296291002"><ele>739.0</ele><time>2026-05-01T14:18:45.999Z</time></trkpt><trkpt lat="43.8144086533856" lon="7.443055327844191"><ele>739.0</ele><time>2026-05-01T14:18:46.999Z</time></trkpt><trkpt lat="43.814469799102326" lon="7.443135619803061"><ele>734.3333333333334</ele><time>2026-05-01T14:18:47.999Z</time></trkpt><trkpt lat="43.81452361965342" lon="7.443218275715166"><ele>729.6666666666667</ele><time>2026-05-01T14:18:48.999Z</time></trkpt><trkpt lat="43.81454685917212" lon="7.443310063418595"><ele>725.0</ele><time>2026-05-01T14:18:49.999Z</time></trkpt><trkpt lat="43.81454884009745" lon="7.44342355329839"><ele>720.3333333333334</ele><time>2026-05-01T14:18:50.999Z</time></trkpt><trkpt lat="43.8145396169196" lon="7.443534490108345"><ele>715.6666666666666</ele><time>2026-05-01T14:18:51.999Z</time></trkpt><trkpt lat="43.81451633504004" lon="7.443656949372808"><ele>711.0</ele><time>2026-05-01T14:18:52.999Z</time></trkpt><trkpt lat="43.81448347457697" lon="7.443784348394156"><ele>712.1999999999999</ele><time>2026-05-01T14:18:53.999Z</time></trkpt><trkpt lat="43.81445723802585" lon="7.443916303677629"><ele>713.4</ele><time>2026-05-01T14:18:54.999Z</time></trkpt><trkpt lat="43.81441330188944" lon="7.444034369579888"><ele>714.6</ele><time>2026-05-01T14:18:55.999Z</time></trkpt><trkpt lat="43.81436115636099" lon="7.444144902384085"><ele>715.8</ele><time>2026-05-01T14:18:56.999Z</time></trkpt><trkpt lat="43.81430590570986" lon="7.444248296396396"><ele>717.0</ele><time>2026-05-01T14:18:57.999Z</time></trkpt><trkpt lat="43.81426404433841" lon="7.4443472246709605"><ele>721.3333333333334</ele><time>2026-05-01T14:18:58.999Z</time></trkpt><trkpt lat="43.81423879222849" lon="7.444447175687336"><ele>725.6666666666666</ele><time>2026-05-01T14:18:59.999Z</time></trkpt><trkpt lat="43.814243069251475" lon="7.444556970776892"><ele>730.0</ele><time>2026-05-01T14:19:00.999Z</time></trkpt><trkpt lat="43.81427329512207" lon="7.444650809055799"><ele>734.3333333333333</ele><time>2026-05-01T14:19:01.999Z</time></trkpt><trkpt lat="43.81428071848298" lon="7.444769818564874"><ele>738.6666666666666</ele><time>2026-05-01T14:19:02.999Z</time></trkpt><trkpt lat="43.81426821330691" lon="7.444884363491807"><ele>743.0</ele><time>2026-05-01T14:19:03.999Z</time></trkpt><trkpt lat="43.81424418936999" lon="7.44500128743089"><ele>743.0</ele><time>2026-05-01T14:19:04.999Z</time></trkpt><trkpt lat="43.81421262100132" lon="7.445106752378733"><ele>743.0</ele><time>2026-05-01T14:19:05.999Z</time></trkpt><trkpt lat="43.81417613536291" lon="7.445208367510062"><ele>743.0</ele><time>2026-05-01T14:19:06.999Z</time></trkpt><trkpt lat="43.814154711225456" lon="7.445304089461803"><ele>743.0</ele><time>2026-05-01T14:19:07.999Z</time></trkpt><trkpt lat="43.81414487022534" lon="7.4454174620492575"><ele>743.0</ele><time>2026-05-01T14:19:08.999Z</time></trkpt><trkpt lat="43.81413212175468" lon="7.4455261753666"><ele>743.0</ele><time>2026-05-01T14:19:09.999Z</time></trkpt><trkpt lat="43.81410905764694" lon="7.445625125622465"><ele>742.4</ele><time>2026-05-01T14:19:10.999Z</time></trkpt><trkpt lat="43.81405816484691" lon="7.445780225822991"><ele>741.8</ele><time>2026-05-01T14:19:12.999Z</time></trkpt><trkpt lat="43.81403695191507" lon="7.445910415633993"><ele>741.2</ele><time>2026-05-01T14:19:14.999Z</time></trkpt><trkpt lat="43.81401365883624" lon="7.446019553205715"><ele>740.6</ele><time>2026-05-01T14:19:16.999Z</time></trkpt><trkpt lat="43.81399282476127" lon="7.446102757964357"><ele>740.0</ele><time>2026-05-01T14:19:20.999Z</time></trkpt><trkpt lat="43.81401649772408" lon="7.446216294645691"><ele>740.0</ele><time>2026-05-01T14:22:01Z</time></trkpt><trkpt lat="43.81406737643939" lon="7.4462755236919635"><ele>740.0</ele><time>2026-05-01T14:22:03Z</time></trkpt><trkpt lat="43.81414813353227" lon="7.446293745415894"><ele>740.0</ele><time>2026-05-01T14:22:06Z</time></trkpt><trkpt lat="43.81424335201427" lon="7.446279413829087"><ele>740.0</ele><time>2026-05-01T14:22:08Z</time></trkpt><trkpt lat="43.81430459525691" lon="7.446256513809973"><ele>740.0</ele><time>2026-05-01T14:22:09Z</time></trkpt><trkpt lat="43.814354425476715" lon="7.446199381983407"><ele>740.0</ele><time>2026-05-01T14:22:10Z</time></trkpt><trkpt lat="43.81444782655713" lon="7.4460664762150275"><ele>741.8333333333333</ele><time>2026-05-01T14:22:12Z</time></trkpt><trkpt lat="43.81449835642743" lon="7.44598265123006"><ele>743.6666666666666</ele><time>2026-05-01T14:22:13Z</time></trkpt><trkpt lat="43.814553106652646" lon="7.445890617768408"><ele>745.5</ele><time>2026-05-01T14:22:14Z</time></trkpt><trkpt lat="43.81461196552213" lon="7.445806552121179"><ele>747.3333333333334</ele><time>2026-05-01T14:22:15Z</time></trkpt><trkpt lat="43.814667017212436" lon="7.445732286750235"><ele>749.1666666666667</ele><time>2026-05-01T14:22:16Z</time></trkpt><trkpt lat="43.814722061416546" lon="7.445642550192113"><ele>751.0</ele><time>2026-05-01T14:22:17Z</time></trkpt><trkpt lat="43.81479346934015" lon="7.445546253680106"><ele>752.4</ele><time>2026-05-01T14:22:18Z</time></trkpt><trkpt lat="43.814871955714" lon="7.445443698614957"><ele>753.8</ele><time>2026-05-01T14:22:19Z</time></trkpt><trkpt lat="43.814954558557694" lon="7.445350285204487"><ele>755.1999999999999</ele><time>2026-05-01T14:22:20Z</time></trkpt><trkpt lat="43.8150373713871" lon="7.44526816227849"><ele>756.5999999999999</ele><time>2026-05-01T14:22:21Z</time></trkpt><trkpt lat="43.81513230186626" lon="7.445191624198086"><ele>758.0</ele><time>2026-05-01T14:22:22Z</time></trkpt><trkpt lat="43.815227637749835" lon="7.445121323346786"><ele>758.0</ele><time>2026-05-01T14:22:23Z</time></trkpt><trkpt lat="43.81532164639601" lon="7.445048869851647"><ele>758.0</ele><time>2026-05-01T14:22:24Z</time></trkpt><trkpt lat="43.81540915129403" lon="7.444984067377483"><ele>758.0</ele><time>2026-05-01T14:22:25Z</time></trkpt><trkpt lat="43.81548865523624" lon="7.4449209591661045"><ele>758.0</ele><time>2026-05-01T14:22:26Z</time></trkpt><trkpt lat="43.8155682581079" lon="7.444853129433257"><ele>758.0</ele><time>2026-05-01T14:22:27Z</time></trkpt><trkpt lat="43.81564217133512" lon="7.444791961440818"><ele>758.0</ele><time>2026-05-01T14:22:28Z</time></trkpt><trkpt lat="43.81571938717782" lon="7.444728889840633"><ele>758.0</ele><time>2026-05-01T14:22:29Z</time></trkpt><trkpt lat="43.81579340505916" lon="7.444668026856218"><ele>758.0</ele><time>2026-05-01T14:22:30Z</time></trkpt><trkpt lat="43.81586131857796" lon="7.444608487144113"><ele>758.0</ele><time>2026-05-01T14:22:31Z</time></trkpt><trkpt lat="43.815934586184625" lon="7.444555055478277"><ele>758.0</ele><time>2026-05-01T14:22:32Z</time></trkpt><trkpt lat="43.81600750029128" lon="7.4444994450223"><ele>758.0</ele><time>2026-05-01T14:22:33Z</time></trkpt><trkpt lat="43.81607951542966" lon="7.444450600433419"><ele>758.5</ele><time>2026-05-01T14:22:34Z</time></trkpt><trkpt lat="43.81615096861247" lon="7.444401392486363"><ele>759.0</ele><time>2026-05-01T14:22:35Z</time></trkpt><trkpt lat="43.816222728059586" lon="7.44434568021214"><ele>759.5</ele><time>2026-05-01T14:22:36Z</time></trkpt><trkpt lat="43.81629112402736" lon="7.44429575622424"><ele>760.0</ele><time>2026-05-01T14:22:37Z</time></trkpt><trkpt lat="43.81636362819618" lon="7.4442464463605615"><ele>760.5</ele><time>2026-05-01T14:22:38Z</time></trkpt><trkpt lat="43.8164226299517" lon="7.444214183604595"><ele>761.0</ele><time>2026-05-01T14:22:39Z</time></trkpt><trkpt lat="43.816487086678485" lon="7.444175550976189"><ele>761.0</ele><time>2026-05-01T14:22:40Z</time></trkpt><trkpt lat="43.81656683151375" lon="7.444138874838093"><ele>761.0</ele><time>2026-05-01T14:22:41Z</time></trkpt><trkpt lat="43.81664572633409" lon="7.444096848281757"><ele>761.0</ele><time>2026-05-01T14:22:42Z</time></trkpt><trkpt lat="43.81673601535827" lon="7.444059850222129"><ele>761.0</ele><time>2026-05-01T14:22:43Z</time></trkpt><trkpt lat="43.816816383088266" lon="7.444021037728005"><ele>761.0</ele><time>2026-05-01T14:22:44Z</time></trkpt><trkpt lat="43.81688763005189" lon="7.443982322237472"><ele>761.0</ele><time>2026-05-01T14:22:45Z</time></trkpt><trkpt lat="43.81695293919649" lon="7.443948194953066"><ele>762.5999999999999</ele><time>2026-05-01T14:22:46Z</time></trkpt><trkpt lat="43.817031742109336" lon="7.443922199274687"><ele>764.2</ele><time>2026-05-01T14:22:47Z</time></trkpt><trkpt lat="43.81711812077361" lon="7.443908583144816"><ele>765.8</ele><time>2026-05-01T14:22:48Z</time></trkpt><trkpt lat="43.817204721048306" lon="7.443909583069486"><ele>767.4000000000001</ele><time>2026-05-01T14:22:49Z</time></trkpt><trkpt lat="43.81727444537832" lon="7.443921410118157"><ele>769.0</ele><time>2026-05-01T14:22:50Z</time></trkpt><trkpt lat="43.81739730375174" lon="7.443986411361829"><ele>769.0</ele><time>2026-05-01T14:22:52Z</time></trkpt><trkpt lat="43.81747152733805" lon="7.444066948801989"><ele>769.0</ele><time>2026-05-01T14:22:53Z</time></trkpt><trkpt lat="43.81754297143876" lon="7.44416809483771"><ele>769.0</ele><time>2026-05-01T14:22:54Z</time></trkpt><trkpt lat="43.8176132622101" lon="7.444270345121626"><ele>769.0</ele><time>2026-05-01T14:22:55Z</time></trkpt><trkpt lat="43.817684595635626" lon="7.444334389183842"><ele>769.0</ele><time>2026-05-01T14:22:56Z</time></trkpt><trkpt lat="43.81776549850169" lon="7.444378448001758"><ele>770.8333333333333</ele><time>2026-05-01T14:22:57Z</time></trkpt><trkpt lat="43.817845891980085" lon="7.444404825180244"><ele>772.6666666666666</ele><time>2026-05-01T14:22:58Z</time></trkpt><trkpt lat="43.81792061392155" lon="7.444418762440432"><ele>774.5</ele><time>2026-05-01T14:22:59Z</time></trkpt><trkpt lat="43.8180021101942" lon="7.444405475261491"><ele>776.3333333333333</ele><time>2026-05-01T14:23:00Z</time></trkpt><trkpt lat="43.81807585986766" lon="7.444367420545742"><ele>778.1666666666666</ele><time>2026-05-01T14:23:01Z</time></trkpt><trkpt lat="43.81814622910931" lon="7.4442896648824295"><ele>780.0</ele><time>2026-05-01T14:23:01.999Z</time></trkpt><trkpt lat="43.81821635064358" lon="7.444171816241964"><ele>780.0</ele><time>2026-05-01T14:23:02.999Z</time></trkpt><trkpt lat="43.818289709463535" lon="7.444061655882898"><ele>780.0</ele><time>2026-05-01T14:23:03.999Z</time></trkpt><trkpt lat="43.818361460923526" lon="7.443976198794527"><ele>780.0</ele><time>2026-05-01T14:23:04.999Z</time></trkpt><trkpt lat="43.81842853363348" lon="7.4438708295596445"><ele>780.0</ele><time>2026-05-01T14:23:05.999Z</time></trkpt><trkpt lat="43.81848823963176" lon="7.4437386240910905"><ele>780.0</ele><time>2026-05-01T14:23:06.999Z</time></trkpt><trkpt lat="43.81853101663904" lon="7.4435993404400405"><ele>781.0</ele><time>2026-05-01T14:23:07.999Z</time></trkpt><trkpt lat="43.818560174744356" lon="7.443486948889087"><ele>782.0</ele><time>2026-05-01T14:23:08.999Z</time></trkpt><trkpt lat="43.81859591689812" lon="7.44340859414861"><ele>783.0</ele><time>2026-05-01T14:23:09.999Z</time></trkpt><trkpt lat="43.81864659796448" lon="7.443346852200045"><ele>784.0</ele><time>2026-05-01T14:23:10.999Z</time></trkpt><trkpt lat="43.81871086055004" lon="7.443310683302039"><ele>785.0</ele><time>2026-05-01T14:23:11.999Z</time></trkpt><trkpt lat="43.8187807370653" lon="7.443289088941835"><ele>786.0</ele><time>2026-05-01T14:23:12.999Z</time></trkpt><trkpt lat="43.81884914652106" lon="7.443273675617177"><ele>787.0</ele><time>2026-05-01T14:23:13.999Z</time></trkpt><trkpt lat="43.81895646223371" lon="7.443298425641992"><ele>786.9999999999999</ele><time>2026-05-01T14:23:15.999Z</time></trkpt><trkpt lat="43.81900874016954" lon="7.443416701391311"><ele>787.0</ele><time>2026-05-01T14:23:17.999Z</time></trkpt><trkpt lat="43.81893913989816" lon="7.443530760008788"><ele>787.0</ele><time>2026-05-01T14:23:19.999Z</time></trkpt><trkpt lat="43.81886946753869" lon="7.443543518525869"><ele>787.0</ele><time>2026-05-01T14:23:20.999Z</time></trkpt><trkpt lat="43.818792163835724" lon="7.443566686329279"><ele>786.9999999999999</ele><time>2026-05-01T14:23:21.999Z</time></trkpt><trkpt lat="43.81873040068743" lon="7.443635265019318"><ele>787.0</ele><time>2026-05-01T14:23:22.999Z</time></trkpt><trkpt lat="43.81868995166725" lon="7.443742987823855"><ele>792.4000000000001</ele><time>2026-05-01T14:23:23.999Z</time></trkpt><trkpt lat="43.81865689651406" lon="7.4438768062710094"><ele>797.8000000000001</ele><time>2026-05-01T14:23:24.999Z</time></trkpt><trkpt lat="43.818623208236524" lon="7.44402180724673"><ele>803.2</ele><time>2026-05-01T14:23:25.999Z</time></trkpt><trkpt lat="43.81858675636219" lon="7.444164568889129"><ele>808.6</ele><time>2026-05-01T14:23:26.999Z</time></trkpt><trkpt lat="43.818545548900964" lon="7.444299954709474"><ele>814.0</ele><time>2026-05-01T14:23:27.999Z</time></trkpt><trkpt lat="43.81850279672721" lon="7.444436187459262"><ele>812.4000000000001</ele><time>2026-05-01T14:23:28.999Z</time></trkpt><trkpt lat="43.818461163316" lon="7.444585734570706"><ele>810.8</ele><time>2026-05-01T14:23:29.999Z</time></trkpt><trkpt lat="43.8184261426482" lon="7.4447367935605255"><ele>809.2</ele><time>2026-05-01T14:23:30.999Z</time></trkpt><trkpt lat="43.818399529026856" lon="7.444874641532795"><ele>807.5999999999999</ele><time>2026-05-01T14:23:31.999Z</time></trkpt><trkpt lat="43.818383886458776" lon="7.444986400185672"><ele>806.0</ele><time>2026-05-01T14:23:32.999Z</time></trkpt><trkpt lat="43.81836187968924" lon="7.445088100912832"><ele>806.0</ele><time>2026-05-01T14:23:33.999Z</time></trkpt><trkpt lat="43.81831795788209" lon="7.445180056251976"><ele>806.0</ele><time>2026-05-01T14:23:34.999Z</time></trkpt><trkpt lat="43.81824715665938" lon="7.445250536672342"><ele>806.0</ele><time>2026-05-01T14:23:35.999Z</time></trkpt><trkpt lat="43.818161426587096" lon="7.445310183583775"><ele>806.0</ele><time>2026-05-01T14:23:36.999Z</time></trkpt><trkpt lat="43.818068393926175" lon="7.445355559625419"><ele>806.0</ele><time>2026-05-01T14:23:37.999Z</time></trkpt><trkpt lat="43.81798026784418" lon="7.445374634350834"><ele>806.0000000000001</ele><time>2026-05-01T14:23:38.999Z</time></trkpt><trkpt lat="43.81789677058322" lon="7.44536773258992"><ele>806.0</ele><time>2026-05-01T14:23:39.999Z</time></trkpt><trkpt lat="43.81782044677647" lon="7.445323895499283"><ele>806.0</ele><time>2026-05-01T14:23:40.999Z</time></trkpt><trkpt lat="43.817749201679575" lon="7.4452513299158785"><ele>806.0</ele><time>2026-05-01T14:23:41.999Z</time></trkpt><trkpt lat="43.81768334642412" lon="7.445156126327257"><ele>806.0000000000001</ele><time>2026-05-01T14:23:42.999Z</time></trkpt><trkpt lat="43.817612938714745" lon="7.445100395314952"><ele>806.0</ele><time>2026-05-01T14:23:43.999Z</time></trkpt><trkpt lat="43.817517409394895" lon="7.445084219364183"><ele>805.0000000000001</ele><time>2026-05-01T14:23:44.999Z</time></trkpt><trkpt lat="43.817415190172085" lon="7.445074922319135"><ele>804.0</ele><time>2026-05-01T14:23:45.999Z</time></trkpt><trkpt lat="43.81733707667668" lon="7.445071196238771"><ele>803.0</ele><time>2026-05-01T14:23:46.999Z</time></trkpt><trkpt lat="43.81724356937874" lon="7.445113005061574"><ele>802.0</ele><time>2026-05-01T14:23:48.999Z</time></trkpt><trkpt lat="43.81721737564733" lon="7.445209815499789"><ele>801.0000000000001</ele><time>2026-05-01T14:23:50.999Z</time></trkpt><trkpt lat="43.81727829734233" lon="7.445300479384247"><ele>800.0</ele><time>2026-05-01T14:23:52.999Z</time></trkpt><trkpt lat="43.817355432957264" lon="7.445320566621351"><ele>800.0000000000001</ele><time>2026-05-01T14:23:53.999Z</time></trkpt><trkpt lat="43.817440209209224" lon="7.445328043826419"><ele>800.0</ele><time>2026-05-01T14:23:54.999Z</time></trkpt><trkpt lat="43.81750915202958" lon="7.445363746571394"><ele>800.0</ele><time>2026-05-01T14:23:55.999Z</time></trkpt><trkpt lat="43.81756798254659" lon="7.445442193191424"><ele>800.0</ele><time>2026-05-01T14:23:57Z</time></trkpt><trkpt lat="43.8176169831417" lon="7.445553703774042"><ele>800.0000000000001</ele><time>2026-05-01T14:23:58Z</time></trkpt><trkpt lat="43.81767494530045" lon="7.445643699908412"><ele>800.0</ele><time>2026-05-01T14:23:59Z</time></trkpt><trkpt lat="43.817751525452124" lon="7.445696526056017"><ele>806.8</ele><time>2026-05-01T14:24:00Z</time></trkpt><trkpt lat="43.817835964144166" lon="7.445706290079818"><ele>813.6</ele><time>2026-05-01T14:24:01Z</time></trkpt><trkpt lat="43.81793349428055" lon="7.445688309568582"><ele>820.4000000000001</ele><time>2026-05-01T14:24:02Z</time></trkpt><trkpt lat="43.8180504613263" lon="7.445675460821499"><ele>827.2</ele><time>2026-05-01T14:24:03Z</time></trkpt><trkpt lat="43.818169538489954" lon="7.445678384366704"><ele>834.0</ele><time>2026-05-01T14:24:04Z</time></trkpt><trkpt lat="43.81826759319714" lon="7.445676817758957"><ele>834.0</ele><time>2026-05-01T14:24:05Z</time></trkpt><trkpt lat="43.818353763622696" lon="7.445651947510235"><ele>834.0</ele><time>2026-05-01T14:24:06Z</time></trkpt><trkpt lat="43.81843124571965" lon="7.4456205058862315"><ele>834.0</ele><time>2026-05-01T14:24:07Z</time></trkpt><trkpt lat="43.818506836524946" lon="7.4455876193692765"><ele>834.0</ele><time>2026-05-01T14:24:08Z</time></trkpt><trkpt lat="43.81858545281372" lon="7.445534294599129"><ele>834.0</ele><time>2026-05-01T14:24:09Z</time></trkpt><trkpt lat="43.81865642277771" lon="7.44545050200499"><ele>834.0</ele><time>2026-05-01T14:24:10Z</time></trkpt><trkpt lat="43.81873296619141" lon="7.445343032937656"><ele>834.6</ele><time>2026-05-01T14:24:11Z</time></trkpt><trkpt lat="43.81881281675267" lon="7.4452296880507225"><ele>835.2</ele><time>2026-05-01T14:24:12Z</time></trkpt><trkpt lat="43.818877724039" lon="7.445126848734395"><ele>835.8000000000001</ele><time>2026-05-01T14:24:13Z</time></trkpt><trkpt lat="43.81893175540694" lon="7.445028970651151"><ele>836.4000000000001</ele><time>2026-05-01T14:24:14Z</time></trkpt><trkpt lat="43.818980732132495" lon="7.4449242097923065"><ele>837.0</ele><time>2026-05-01T14:24:15Z</time></trkpt><trkpt lat="43.81903152035514" lon="7.44481619439188"><ele>837.0</ele><time>2026-05-01T14:24:16Z</time></trkpt><trkpt lat="43.819075100399026" lon="7.444725264070475"><ele>837.0</ele><time>2026-05-01T14:24:17Z</time></trkpt><trkpt lat="43.81913714890347" lon="7.444610196824904"><ele>837.0</ele><time>2026-05-01T14:24:19Z</time></trkpt><trkpt lat="43.819226526648514" lon="7.4445975947554395"><ele>837.0</ele><time>2026-05-01T14:24:21Z</time></trkpt><trkpt lat="43.81924915527211" lon="7.444736312009419"><ele>837.0</ele><time>2026-05-01T14:24:23Z</time></trkpt><trkpt lat="43.819206796272255" lon="7.444811544455545"><ele>837.0</ele><time>2026-05-01T14:24:24Z</time></trkpt><trkpt lat="43.81914190425714" lon="7.444898128023546"><ele>837.0</ele><time>2026-05-01T14:24:25Z</time></trkpt><trkpt lat="43.81906972242483" lon="7.445008956369649"><ele>837.0</ele><time>2026-05-01T14:24:26Z</time></trkpt><trkpt lat="43.81901646891734" lon="7.4451174390129955"><ele>837.0</ele><time>2026-05-01T14:24:27Z</time></trkpt><trkpt lat="43.81896721514131" lon="7.445216522521245"><ele>837.0</ele><time>2026-05-01T14:24:28Z</time></trkpt><trkpt lat="43.81891080905375" lon="7.445302915060758"><ele>837.0</ele><time>2026-05-01T14:24:29Z</time></trkpt><trkpt lat="43.81884717818577" lon="7.445386750271676"><ele>837.0</ele><time>2026-05-01T14:24:30Z</time></trkpt><trkpt lat="43.818788935810396" lon="7.4454707125505495"><ele>837.0</ele><time>2026-05-01T14:24:31Z</time></trkpt><trkpt lat="43.81875132282452" lon="7.445599268608942"><ele>837.0</ele><time>2026-05-01T14:24:33Z</time></trkpt><trkpt lat="43.81882612426219" lon="7.4456616168709076"><ele>837.0</ele><time>2026-05-01T14:24:35Z</time></trkpt><trkpt lat="43.8189053039251" lon="7.445559591152279"><ele>837.0</ele><time>2026-05-01T14:24:37Z</time></trkpt><trkpt lat="43.818942951251486" lon="7.445480046929354"><ele>837.0</ele><time>2026-05-01T14:24:38Z</time></trkpt><trkpt lat="43.8189917083134" lon="7.445387269007524"><ele>837.0</ele><time>2026-05-01T14:24:39Z</time></trkpt><trkpt lat="43.81905649186296" lon="7.44528507612941"><ele>837.0</ele><time>2026-05-01T14:24:40Z</time></trkpt><trkpt lat="43.81912124265117" lon="7.445188702072254"><ele>837.0</ele><time>2026-05-01T14:24:41Z</time></trkpt><trkpt lat="43.81917633086603" lon="7.44510505812398"><ele>837.0</ele><time>2026-05-01T14:24:42Z</time></trkpt><trkpt lat="43.81925666049937" lon="7.444951297139714"><ele>837.0</ele><time>2026-05-01T14:24:44Z</time></trkpt><trkpt lat="43.81931314350904" lon="7.444876216686843"><ele>842.3333333333334</ele><time>2026-05-01T14:24:45Z</time></trkpt><trkpt lat="43.819379512768194" lon="7.444820552007308"><ele>847.6666666666667</ele><time>2026-05-01T14:24:46Z</time></trkpt><trkpt lat="43.81944852475709" lon="7.444767742379797"><ele>853.0</ele><time>2026-05-01T14:24:47Z</time></trkpt><trkpt lat="43.8195252535772" lon="7.444729548203143"><ele>858.3333333333334</ele><time>2026-05-01T14:24:48Z</time></trkpt><trkpt lat="43.81960476904631" lon="7.444709798427943"><ele>863.6666666666667</ele><time>2026-05-01T14:24:48.999Z</time></trkpt><trkpt lat="43.81969108581125" lon="7.444699548553541"><ele>869.0</ele><time>2026-05-01T14:24:49.999Z</time></trkpt><trkpt lat="43.81977973462853" lon="7.444685960367696"><ele>869.0</ele><time>2026-05-01T14:24:50.999Z</time></trkpt><trkpt lat="43.81987915849763" lon="7.444680921785382"><ele>869.0000000000001</ele><time>2026-05-01T14:24:51.999Z</time></trkpt><trkpt lat="43.819978837818205" lon="7.444690327966062"><ele>869.0000000000001</ele><time>2026-05-01T14:24:52.999Z</time></trkpt><trkpt lat="43.82007726857857" lon="7.444708249786004"><ele>869.0</ele><time>2026-05-01T14:24:53.999Z</time></trkpt><trkpt lat="43.82016379721848" lon="7.444719586740731"><ele>869.0</ele><time>2026-05-01T14:24:54.999Z</time></trkpt><trkpt lat="43.8202407449753" lon="7.444715953415319"><ele>870.1666666666667</ele><time>2026-05-01T14:24:55.999Z</time></trkpt><trkpt lat="43.820317425262864" lon="7.444687600762965"><ele>871.3333333333334</ele><time>2026-05-01T14:24:56.999Z</time></trkpt><trkpt lat="43.82038999306139" lon="7.444641086130607"><ele>872.5</ele><time>2026-05-01T14:24:57.999Z</time></trkpt><trkpt lat="43.82043691828837" lon="7.444572300811725"><ele>873.6666666666667</ele><time>2026-05-01T14:24:58.999Z</time></trkpt><trkpt lat="43.82047754692812" lon="7.444475280623724"><ele>874.8333333333334</ele><time>2026-05-01T14:24:59.999Z</time></trkpt><trkpt lat="43.820501143064504" lon="7.444387547025445"><ele>876.0</ele><time>2026-05-01T14:25:00.999Z</time></trkpt><trkpt lat="43.82052570337041" lon="7.444287659813993"><ele>876.0</ele><time>2026-05-01T14:25:01.999Z</time></trkpt><trkpt lat="43.82054987647928" lon="7.44418456965872"><ele>876.0</ele><time>2026-05-01T14:25:02.999Z</time></trkpt><trkpt lat="43.820581644711694" lon="7.444079805439031"><ele>876.0</ele><time>2026-05-01T14:25:03.999Z</time></trkpt><trkpt lat="43.82061444867716" lon="7.443976535037406"><ele>876.0</ele><time>2026-05-01T14:25:04.999Z</time></trkpt><trkpt lat="43.82065124249184" lon="7.443880050567404"><ele>876.0</ele><time>2026-05-01T14:25:05.999Z</time></trkpt><trkpt lat="43.82069992038447" lon="7.44378651991347"><ele>876.0</ele><time>2026-05-01T14:25:06.999Z</time></trkpt><trkpt lat="43.820761339306216" lon="7.443701649778354"><ele>875.8</ele><time>2026-05-01T14:25:07.999Z</time></trkpt><trkpt lat="43.82082893099598" lon="7.443626131749678"><ele>875.5999999999999</ele><time>2026-05-01T14:25:08.999Z</time></trkpt><trkpt lat="43.820907911886074" lon="7.443551132331157"><ele>875.4</ele><time>2026-05-01T14:25:09.999Z</time></trkpt><trkpt lat="43.82099595437011" lon="7.4435085006446355"><ele>875.2</ele><time>2026-05-01T14:25:10.999Z</time></trkpt><trkpt lat="43.821077682922756" lon="7.443453518063415"><ele>875.0</ele><time>2026-05-01T14:25:11.999Z</time></trkpt><trkpt lat="43.821158590991274" lon="7.4434075845505"><ele>875.0000000000001</ele><time>2026-05-01T14:25:12.999Z</time></trkpt><trkpt lat="43.82123479768199" lon="7.443346456345591"><ele>875.0</ele><time>2026-05-01T14:25:13.999Z</time></trkpt><trkpt lat="43.821321711702595" lon="7.443308502405522"><ele>875.0</ele><time>2026-05-01T14:25:14.999Z</time></trkpt><trkpt lat="43.82141155299025" lon="7.443294876347499"><ele>875.0</ele><time>2026-05-01T14:25:15.999Z</time></trkpt><trkpt lat="43.821493267568094" lon="7.443278333437871"><ele>875.0000000000001</ele><time>2026-05-01T14:25:16.999Z</time></trkpt><trkpt lat="43.82157809237608" lon="7.443281667788176"><ele>875.0</ele><time>2026-05-01T14:25:17.999Z</time></trkpt><trkpt lat="43.82166599829549" lon="7.443313509185783"><ele>875.0000000000001</ele><time>2026-05-01T14:25:18.999Z</time></trkpt><trkpt lat="43.82174435396021" lon="7.443359810455288"><ele>875.0</ele><time>2026-05-01T14:25:19.999Z</time></trkpt><trkpt lat="43.82181396028645" lon="7.4434061056241925"><ele>875.0</ele><time>2026-05-01T14:25:20.999Z</time></trkpt><trkpt lat="43.82188630076611" lon="7.443410587611362"><ele>875.0</ele><time>2026-05-01T14:25:21.999Z</time></trkpt><trkpt lat="43.82196746726488" lon="7.443367446663885"><ele>875.0000000000001</ele><time>2026-05-01T14:25:22.999Z</time></trkpt><trkpt lat="43.82202264758786" lon="7.44323599497126"><ele>875.0</ele><time>2026-05-01T14:25:23.999Z</time></trkpt><trkpt lat="43.82208937958402" lon="7.443106320030567"><ele>875.4</ele><time>2026-05-01T14:25:24.999Z</time></trkpt><trkpt lat="43.822163735033456" lon="7.443027257904794"><ele>875.8</ele><time>2026-05-01T14:25:25.999Z</time></trkpt><trkpt lat="43.82224244723452" lon="7.442969294487114"><ele>876.2</ele><time>2026-05-01T14:25:26.999Z</time></trkpt><trkpt lat="43.82233285485043" lon="7.442882357070703"><ele>876.6</ele><time>2026-05-01T14:25:27.999Z</time></trkpt><trkpt lat="43.822413576432076" lon="7.442762347470975"><ele>877.0</ele><time>2026-05-01T14:25:28.999Z</time></trkpt><trkpt lat="43.82249221909123" lon="7.442670705246359"><ele>877.0</ele><time>2026-05-01T14:25:29.999Z</time></trkpt><trkpt lat="43.82255464671203" lon="7.442564094531107"><ele>877.0</ele><time>2026-05-01T14:25:30.999Z</time></trkpt><trkpt lat="43.82261420302249" lon="7.442459515336567"><ele>877.0</ele><time>2026-05-01T14:25:31.999Z</time></trkpt><trkpt lat="43.82268142217011" lon="7.44238077270667"><ele>877.0</ele><time>2026-05-01T14:25:32.999Z</time></trkpt><trkpt lat="43.82271735037437" lon="7.4422962941411015"><ele>877.0</ele><time>2026-05-01T14:25:33.999Z</time></trkpt><trkpt lat="43.82281307402956" lon="7.442232748761634"><ele>883.6</ele><time>2026-05-01T14:25:35.999Z</time></trkpt><trkpt lat="43.822900430487195" lon="7.442381898711412"><ele>890.2</ele><time>2026-05-01T14:25:38.999Z</time></trkpt><trkpt lat="43.822867444287404" lon="7.442457843209613"><ele>896.8</ele><time>2026-05-01T14:25:39.999Z</time></trkpt><trkpt lat="43.82278204233156" lon="7.442486460514624"><ele>903.4</ele><time>2026-05-01T14:25:40.999Z</time></trkpt><trkpt lat="43.82272535847795" lon="7.442586583237292"><ele>910.0</ele><time>2026-05-01T14:25:41.999Z</time></trkpt><trkpt lat="43.82266338696331" lon="7.442708060442652"><ele>906.6</ele><time>2026-05-01T14:25:42.999Z</time></trkpt><trkpt lat="43.82261339088747" lon="7.442864601006222"><ele>903.2</ele><time>2026-05-01T14:25:43.999Z</time></trkpt><trkpt lat="43.82255788749876" lon="7.4430123245354665"><ele>899.8</ele><time>2026-05-01T14:25:44.999Z</time></trkpt><trkpt lat="43.822518299938565" lon="7.443131204827651"><ele>896.4</ele><time>2026-05-01T14:25:45.999Z</time></trkpt><trkpt lat="43.82250719404925" lon="7.443255177038231"><ele>893.0</ele><time>2026-05-01T14:25:46.999Z</time></trkpt><trkpt lat="43.82251233997227" lon="7.443409016621428"><ele>893.0</ele><time>2026-05-01T14:25:47.999Z</time></trkpt><trkpt lat="43.822515864193065" lon="7.443547690012598"><ele>893.0</ele><time>2026-05-01T14:25:48.999Z</time></trkpt><trkpt lat="43.82252608602721" lon="7.443660743684595"><ele>893.0</ele><time>2026-05-01T14:25:49.999Z</time></trkpt><trkpt lat="43.82254674626927" lon="7.443746018730895"><ele>893.0</ele><time>2026-05-01T14:25:50.999Z</time></trkpt><trkpt lat="43.82264375968677" lon="7.443829255354565"><ele>893.0</ele><time>2026-05-01T14:25:52.999Z</time></trkpt><trkpt lat="43.822749367650026" lon="7.443753267430325"><ele>897.2</ele><time>2026-05-01T14:25:54.999Z</time></trkpt><trkpt lat="43.82277032163026" lon="7.443642702830185"><ele>901.4</ele><time>2026-05-01T14:25:55.999Z</time></trkpt><trkpt lat="43.82277316018106" lon="7.443504672130936"><ele>905.6000000000001</ele><time>2026-05-01T14:25:56.999Z</time></trkpt><trkpt lat="43.822793620200656" lon="7.443355217994685"><ele>909.8000000000001</ele><time>2026-05-01T14:25:57.999Z</time></trkpt><trkpt lat="43.822841571139286" lon="7.443212551392693"><ele>914.0</ele><time>2026-05-01T14:25:58.999Z</time></trkpt><trkpt lat="43.82289205980443" lon="7.44308646846926"><ele>914.0000000000001</ele><time>2026-05-01T14:25:59.999Z</time></trkpt><trkpt lat="43.822941369009065" lon="7.442979932314917"><ele>914.0</ele><time>2026-05-01T14:26:00.999Z</time></trkpt><trkpt lat="43.82299113274277" lon="7.442878527870414"><ele>914.0</ele><time>2026-05-01T14:26:01.999Z</time></trkpt><trkpt lat="43.823046464375864" lon="7.442785660733234"><ele>914.0</ele><time>2026-05-01T14:26:03Z</time></trkpt><trkpt lat="43.82309693337198" lon="7.442696655106237"><ele>914.0000000000001</ele><time>2026-05-01T14:26:04Z</time></trkpt><trkpt lat="43.82316304039483" lon="7.442679630931786"><ele>914.0</ele><time>2026-05-01T14:26:05Z</time></trkpt><trkpt lat="43.82326651720551" lon="7.442677019462963"><ele>914.0</ele><time>2026-05-01T14:26:07Z</time></trkpt><trkpt lat="43.82330388164864" lon="7.442836921115246"><ele>914.0000000000001</ele><time>2026-05-01T14:26:09Z</time></trkpt><trkpt lat="43.82328275911235" lon="7.442921521843764"><ele>914.0000000000001</ele><time>2026-05-01T14:26:10Z</time></trkpt><trkpt lat="43.82325195098125" lon="7.443030644478671"><ele>914.0</ele><time>2026-05-01T14:26:11Z</time></trkpt><trkpt lat="43.82321741906174" lon="7.443180433760945"><ele>914.0</ele><time>2026-05-01T14:26:12Z</time></trkpt><trkpt lat="43.82319078556355" lon="7.443363353843636"><ele>914.0</ele><time>2026-05-01T14:26:13Z</time></trkpt><trkpt lat="43.82319269048979" lon="7.443550571565677"><ele>914.0</ele><time>2026-05-01T14:26:14Z</time></trkpt><trkpt lat="43.82317811859795" lon="7.443728345811851"><ele>914.0</ele><time>2026-05-01T14:26:15Z</time></trkpt><trkpt lat="43.8231576052677" lon="7.443904984367385"><ele>914.0</ele><time>2026-05-01T14:26:16Z</time></trkpt><trkpt lat="43.823132638978365" lon="7.444045106543379"><ele>916.4000000000001</ele><time>2026-05-01T14:26:17Z</time></trkpt><trkpt lat="43.823078539038775" lon="7.444151497156287"><ele>918.8000000000001</ele><time>2026-05-01T14:26:18Z</time></trkpt><trkpt lat="43.823030697484285" lon="7.444272466658059"><ele>921.1999999999999</ele><time>2026-05-01T14:26:19Z</time></trkpt><trkpt lat="43.822970373792195" lon="7.444414187478437"><ele>923.5999999999999</ele><time>2026-05-01T14:26:20Z</time></trkpt><trkpt lat="43.82289628430017" lon="7.444571538342556"><ele>926.0</ele><time>2026-05-01T14:26:21Z</time></trkpt><trkpt lat="43.822809201466136" lon="7.444739439715706"><ele>925.25</ele><time>2026-05-01T14:26:22Z</time></trkpt><trkpt lat="43.822730752217545" lon="7.444915896159861"><ele>924.5</ele><time>2026-05-01T14:26:23Z</time></trkpt><trkpt lat="43.822641806468376" lon="7.445039445372089"><ele>923.75</ele><time>2026-05-01T14:26:24Z</time></trkpt><trkpt lat="43.822565231234016" lon="7.445152594421973"><ele>923.0</ele><time>2026-05-01T14:26:25Z</time></trkpt><trkpt lat="43.82247786041757" lon="7.445276678257605"><ele>923.0</ele><time>2026-05-01T14:26:26Z</time></trkpt><trkpt lat="43.822382184179986" lon="7.44540355949134"><ele>923.0</ele><time>2026-05-01T14:26:27Z</time></trkpt><trkpt lat="43.82229005615093" lon="7.44554251481488"><ele>923.0</ele><time>2026-05-01T14:26:28Z</time></trkpt><trkpt lat="43.82220298071463" lon="7.445700792913573"><ele>923.0</ele><time>2026-05-01T14:26:29Z</time></trkpt><trkpt lat="43.822121951075886" lon="7.445874521328329"><ele>930.3333333333334</ele><time>2026-05-01T14:26:30Z</time></trkpt><trkpt lat="43.82202360659271" lon="7.446045671498225"><ele>937.6666666666667</ele><time>2026-05-01T14:26:31Z</time></trkpt><trkpt lat="43.82194698077907" lon="7.446226759792901"><ele>945.0</ele><time>2026-05-01T14:26:32Z</time></trkpt><trkpt lat="43.82186194213311" lon="7.446391361963762"><ele>944.25</ele><time>2026-05-01T14:26:33Z</time></trkpt><trkpt lat="43.821778532341995" lon="7.446556764246675"><ele>943.5</ele><time>2026-05-01T14:26:34Z</time></trkpt><trkpt lat="43.82168639837811" lon="7.446680217928403"><ele>942.75</ele><time>2026-05-01T14:26:35Z</time></trkpt><trkpt lat="43.8216110037254" lon="7.44679413360749"><ele>942.0</ele><time>2026-05-01T14:26:36Z</time></trkpt><trkpt lat="43.821542152305796" lon="7.4468985646568955"><ele>942.0</ele><time>2026-05-01T14:26:37Z</time></trkpt><trkpt lat="43.821477315848256" lon="7.446999274522257"><ele>942.0</ele><time>2026-05-01T14:26:38Z</time></trkpt><trkpt lat="43.82140915291478" lon="7.447107600852299"><ele>942.0</ele><time>2026-05-01T14:26:39Z</time></trkpt><trkpt lat="43.8213504272537" lon="7.4472080742511295"><ele>942.0</ele><time>2026-05-01T14:26:40Z</time></trkpt><trkpt lat="43.8213017382173" lon="7.447294620612244"><ele>942.0</ele><time>2026-05-01T14:26:41Z</time></trkpt><trkpt lat="43.82128942107997" lon="7.44738708796086"><ele>942.0</ele><time>2026-05-01T14:26:42Z</time></trkpt><trkpt lat="43.82122968000789" lon="7.447475566017526"><ele>944.1666666666666</ele><time>2026-05-01T14:26:44Z</time></trkpt><trkpt lat="43.82118109401706" lon="7.447565885701408"><ele>946.3333333333333</ele><time>2026-05-01T14:26:46Z</time></trkpt><trkpt lat="43.82119200718976" lon="7.4476659680875255"><ele>948.5</ele><time>2026-05-01T14:26:48Z</time></trkpt><trkpt lat="43.82125446363368" lon="7.447726109858454"><ele>950.6666666666666</ele><time>2026-05-01T14:26:50Z</time></trkpt><trkpt lat="43.82133595372755" lon="7.447701548003626"><ele>952.8333333333333</ele><time>2026-05-01T14:26:52Z</time></trkpt><trkpt lat="43.821416884906576" lon="7.4475918327391115"><ele>955.0</ele><time>2026-05-01T14:26:54Z</time></trkpt><trkpt lat="43.82147485622742" lon="7.447552114792415"><ele>954.9999999999999</ele><time>2026-05-01T14:26:55Z</time></trkpt><trkpt lat="43.82152620662372" lon="7.44748300811788"><ele>955.0</ele><time>2026-05-01T14:26:56Z</time></trkpt><trkpt lat="43.82156756575441" lon="7.447404515697725"><ele>955.0</ele><time>2026-05-01T14:26:57Z</time></trkpt><trkpt lat="43.82162778737231" lon="7.44732370188147"><ele>955.0</ele><time>2026-05-01T14:26:58Z</time></trkpt><trkpt lat="43.82169367629767" lon="7.447235689235726"><ele>954.9999999999999</ele><time>2026-05-01T14:26:59Z</time></trkpt><trkpt lat="43.821764013349195" lon="7.447144841541244"><ele>955.0</ele><time>2026-05-01T14:26:59.999Z</time></trkpt><trkpt lat="43.82183808080927" lon="7.4470476496771205"><ele>958.0</ele><time>2026-05-01T14:27:00.999Z</time></trkpt><trkpt lat="43.82191988574606" lon="7.446937218243323"><ele>961.0</ele><time>2026-05-01T14:27:01.999Z</time></trkpt><trkpt lat="43.82200769190781" lon="7.446819390631199"><ele>964.0</ele><time>2026-05-01T14:27:02.999Z</time></trkpt><trkpt lat="43.82209678589329" lon="7.446703564955502"><ele>967.0</ele><time>2026-05-01T14:27:03.999Z</time></trkpt><trkpt lat="43.82219416643265" lon="7.446594972403061"><ele>967.0</ele><time>2026-05-01T14:27:04.999Z</time></trkpt><trkpt lat="43.82230192615792" lon="7.44649385222128"><ele>967.0</ele><time>2026-05-01T14:27:05.999Z</time></trkpt><trkpt lat="43.822403093947266" lon="7.446387722194671"><ele>967.0</ele><time>2026-05-01T14:27:06.999Z</time></trkpt><trkpt lat="43.82250492254073" lon="7.44628143426945"><ele>967.0</ele><time>2026-05-01T14:27:07.999Z</time></trkpt><trkpt lat="43.82261012793442" lon="7.446179026036257"><ele>968.5</ele><time>2026-05-01T14:27:08.999Z</time></trkpt><trkpt lat="43.82271361943442" lon="7.446117640405926"><ele>970.0</ele><time>2026-05-01T14:27:09.999Z</time></trkpt><trkpt lat="43.82280355349698" lon="7.446044527514921"><ele>971.5</ele><time>2026-05-01T14:27:10.999Z</time></trkpt><trkpt lat="43.822901271710464" lon="7.445972001823434"><ele>973.0</ele><time>2026-05-01T14:27:11.999Z</time></trkpt><trkpt lat="43.82301743099736" lon="7.445901710683476"><ele>973.0</ele><time>2026-05-01T14:27:12.999Z</time></trkpt><trkpt lat="43.82315073031285" lon="7.445830556672455"><ele>973.0</ele><time>2026-05-01T14:27:13.999Z</time></trkpt><trkpt lat="43.82329024349614" lon="7.445757895315647"><ele>973.0</ele><time>2026-05-01T14:27:14.999Z</time></trkpt><trkpt lat="43.823426640668124" lon="7.445683957925924"><ele>973.0</ele><time>2026-05-01T14:27:15.999Z</time></trkpt><trkpt lat="43.823549993339654" lon="7.44561403170072"><ele>973.5</ele><time>2026-05-01T14:27:16.999Z</time></trkpt><trkpt lat="43.82366935857929" lon="7.44553929978094"><ele>974.0</ele><time>2026-05-01T14:27:17.999Z</time></trkpt><trkpt lat="43.82379039142923" lon="7.445456715102539"><ele>974.5</ele><time>2026-05-01T14:27:18.999Z</time></trkpt><trkpt lat="43.82390816518274" lon="7.44535499360971"><ele>975.0</ele><time>2026-05-01T14:27:19.999Z</time></trkpt><trkpt lat="43.824026821613806" lon="7.4452741834828124"><ele>975.0</ele><time>2026-05-01T14:27:20.999Z</time></trkpt><trkpt lat="43.82412854041306" lon="7.445188203901142"><ele>975.0</ele><time>2026-05-01T14:27:21.999Z</time></trkpt><trkpt lat="43.824228606543585" lon="7.445103491508689"><ele>975.0</ele><time>2026-05-01T14:27:22.999Z</time></trkpt><trkpt lat="43.824324576507486" lon="7.445004240486335"><ele>975.0</ele><time>2026-05-01T14:27:23.999Z</time></trkpt><trkpt lat="43.82440749340831" lon="7.444894599659194"><ele>979.0</ele><time>2026-05-01T14:27:24.999Z</time></trkpt><trkpt lat="43.824510058237614" lon="7.444799739297149"><ele>983.0</ele><time>2026-05-01T14:27:25.999Z</time></trkpt><trkpt lat="43.824598234316724" lon="7.444662324858103"><ele>987.0</ele><time>2026-05-01T14:27:26.999Z</time></trkpt><trkpt lat="43.824686428055365" lon="7.44454001821306"><ele>991.0</ele><time>2026-05-01T14:27:27.999Z</time></trkpt><trkpt lat="43.82477425084018" lon="7.444437133862316"><ele>991.0</ele><time>2026-05-01T14:27:28.999Z</time></trkpt><trkpt lat="43.82484272119988" lon="7.444320929091943"><ele>990.9999999999999</ele><time>2026-05-01T14:27:29.999Z</time></trkpt><trkpt lat="43.82491258951682" lon="7.444198902199623"><ele>990.9999999999999</ele><time>2026-05-01T14:27:30.999Z</time></trkpt><trkpt lat="43.82497743348185" lon="7.444076804990361"><ele>991.0</ele><time>2026-05-01T14:27:31.999Z</time></trkpt><trkpt lat="43.82504945021913" lon="7.443967988599569"><ele>991.0</ele><time>2026-05-01T14:27:32.999Z</time></trkpt><trkpt lat="43.82514485988677" lon="7.443879324950916"><ele>992.75</ele><time>2026-05-01T14:27:33.999Z</time></trkpt><trkpt lat="43.82523696433852" lon="7.4437730405046745"><ele>994.5</ele><time>2026-05-01T14:27:34.999Z</time></trkpt><trkpt lat="43.825332516979174" lon="7.443674060854529"><ele>996.25</ele><time>2026-05-01T14:27:35.999Z</time></trkpt><trkpt lat="43.82543522868762" lon="7.443587313040626"><ele>998.0</ele><time>2026-05-01T14:27:36.999Z</time></trkpt><trkpt lat="43.82554658797009" lon="7.443498260999893"><ele>998.0</ele><time>2026-05-01T14:27:37.999Z</time></trkpt><trkpt lat="43.825653081480674" lon="7.443415067908595"><ele>998.0</ele><time>2026-05-01T14:27:38.999Z</time></trkpt><trkpt lat="43.82574614378214" lon="7.4433494050759395"><ele>998.0</ele><time>2026-05-01T14:27:39.999Z</time></trkpt><trkpt lat="43.8258405855321" lon="7.443287053695144"><ele>998.0</ele><time>2026-05-01T14:27:40.999Z</time></trkpt><trkpt lat="43.82593534777621" lon="7.443226466113802"><ele>998.0</ele><time>2026-05-01T14:27:41.999Z</time></trkpt><trkpt lat="43.82603083797352" lon="7.44316584306476"><ele>997.0</ele><time>2026-05-01T14:27:42.999Z</time></trkpt><trkpt lat="43.82612647289402" lon="7.443106864361733"><ele>996.0</ele><time>2026-05-01T14:27:43.999Z</time></trkpt><trkpt lat="43.82621421496704" lon="7.443028854975706"><ele>995.0</ele><time>2026-05-01T14:27:44.999Z</time></trkpt><trkpt lat="43.826316670903566" lon="7.442992886421972"><ele>994.0</ele><time>2026-05-01T14:27:45.999Z</time></trkpt><trkpt lat="43.826412697622956" lon="7.44293582789965"><ele>993.0</ele><time>2026-05-01T14:27:46.999Z</time></trkpt><trkpt lat="43.82650645256963" lon="7.4428773910499055"><ele>993.0</ele><time>2026-05-01T14:27:47.999Z</time></trkpt><trkpt lat="43.826597216428205" lon="7.4428216704996935"><ele>993.0</ele><time>2026-05-01T14:27:48.999Z</time></trkpt><trkpt lat="43.82668029289195" lon="7.442770477421966"><ele>993.0</ele><time>2026-05-01T14:27:49.999Z</time></trkpt><trkpt lat="43.826764717257234" lon="7.442718572351715"><ele>993.0</ele><time>2026-05-01T14:27:50.999Z</time></trkpt><trkpt lat="43.826846753283135" lon="7.442668429055487"><ele>993.0</ele><time>2026-05-01T14:27:51.999Z</time></trkpt><trkpt lat="43.82691517229376" lon="7.442602479848403"><ele>998.0</ele><time>2026-05-01T14:27:52.999Z</time></trkpt><trkpt lat="43.826985275147216" lon="7.44256505011945"><ele>1003.0</ele><time>2026-05-01T14:27:53.999Z</time></trkpt><trkpt lat="43.827059371578464" lon="7.44252224827669"><ele>1008.0</ele><time>2026-05-01T14:27:54.999Z</time></trkpt><trkpt lat="43.82713897267283" lon="7.442483062078989"><ele>1013.0</ele><time>2026-05-01T14:27:55.999Z</time></trkpt><trkpt lat="43.82722269767927" lon="7.4424411036601485"><ele>1018.0</ele><time>2026-05-01T14:27:56.999Z</time></trkpt><trkpt lat="43.82731590959534" lon="7.442397344619812"><ele>1023.0</ele><time>2026-05-01T14:27:57.999Z</time></trkpt><trkpt lat="43.827407812111176" lon="7.442351328119997"><ele>1023.0</ele><time>2026-05-01T14:27:58.999Z</time></trkpt><trkpt lat="43.82750399284903" lon="7.442303193745609"><ele>1023.0</ele><time>2026-05-01T14:27:59.999Z</time></trkpt><trkpt lat="43.82760749874758" lon="7.442276936674689"><ele>1023.0</ele><time>2026-05-01T14:28:00.999Z</time></trkpt><trkpt lat="43.827704074859334" lon="7.442226364823678"><ele>1023.0</ele><time>2026-05-01T14:28:01.999Z</time></trkpt><trkpt lat="43.82779655268941" lon="7.4421731543664675"><ele>1023.0</ele><time>2026-05-01T14:28:02.999Z</time></trkpt><trkpt lat="43.8278765425839" lon="7.442102329386183"><ele>1022.0</ele><time>2026-05-01T14:28:03.999Z</time></trkpt><trkpt lat="43.82796347230714" lon="7.442065199417594"><ele>1021.0</ele><time>2026-05-01T14:28:04.999Z</time></trkpt><trkpt lat="43.82804141825732" lon="7.442045965120314"><ele>1020.0</ele><time>2026-05-01T14:28:05.999Z</time></trkpt><trkpt lat="43.828115114947046" lon="7.4420170602570375"><ele>1019.0</ele><time>2026-05-01T14:28:06.999Z</time></trkpt><trkpt lat="43.82817950304978" lon="7.441994064271955"><ele>1018.0</ele><time>2026-05-01T14:28:07.999Z</time></trkpt><trkpt lat="43.82824354812803" lon="7.441973034548419"><ele>1017.0</ele><time>2026-05-01T14:28:09Z</time></trkpt><trkpt lat="43.82835308240967" lon="7.441924993304414"><ele>1017.0</ele><time>2026-05-01T14:28:11Z</time></trkpt><trkpt lat="43.82846988547149" lon="7.441910361243802"><ele>1017.0</ele><time>2026-05-01T14:28:13Z</time></trkpt><trkpt lat="43.82856295538745" lon="7.441904872170055"><ele>1017.0</ele><time>2026-05-01T14:28:15Z</time></trkpt><trkpt lat="43.82866245161789" lon="7.441911704811947"><ele>1017.0</ele><time>2026-05-01T14:28:17Z</time></trkpt><trkpt lat="43.8287826718906" lon="7.4419065015939445"><ele>1017.0</ele><time>2026-05-01T14:28:19Z</time></trkpt><trkpt lat="43.8288718559752" lon="7.441906780170686"><ele>1018.0</ele><time>2026-05-01T14:28:20Z</time></trkpt><trkpt lat="43.82897137725055" lon="7.441890446877583"><ele>1019.0</ele><time>2026-05-01T14:28:21Z</time></trkpt><trkpt lat="43.82906807727987" lon="7.441858388332064"><ele>1020.0</ele><time>2026-05-01T14:28:22Z</time></trkpt><trkpt lat="43.82915364062801" lon="7.441814272574497"><ele>1021.0</ele><time>2026-05-01T14:28:23Z</time></trkpt><trkpt lat="43.82923322209255" lon="7.441765588191139"><ele>1022.0</ele><time>2026-05-01T14:28:24Z</time></trkpt><trkpt lat="43.82930544955062" lon="7.4417215887087504"><ele>1023.0000000000001</ele><time>2026-05-01T14:28:25Z</time></trkpt><trkpt lat="43.82938125060986" lon="7.441717542099261"><ele>1024.0</ele><time>2026-05-01T14:28:26Z</time></trkpt><trkpt lat="43.82945228503415" lon="7.441689153691088"><ele>1025.0</ele><time>2026-05-01T14:28:27Z</time></trkpt><trkpt lat="43.82952077032949" lon="7.441663407162345"><ele>1026.0</ele><time>2026-05-01T14:28:28Z</time></trkpt><trkpt lat="43.82960333141266" lon="7.441636552727125"><ele>1027.0</ele><time>2026-05-01T14:28:29Z</time></trkpt><trkpt lat="43.829688757316056" lon="7.44161528688656"><ele>1028.0</ele><time>2026-05-01T14:28:30Z</time></trkpt><trkpt lat="43.82977437423299" lon="7.441596263018601"><ele>1028.0</ele><time>2026-05-01T14:28:31Z</time></trkpt><trkpt lat="43.82985454722908" lon="7.441556722292634"><ele>1028.0</ele><time>2026-05-01T14:28:32Z</time></trkpt><trkpt lat="43.8299335710289" lon="7.441525008085612"><ele>1028.0</ele><time>2026-05-01T14:28:33Z</time></trkpt><trkpt lat="43.83000843513213" lon="7.441477676490184"><ele>1028.0</ele><time>2026-05-01T14:28:34Z</time></trkpt><trkpt lat="43.83008984330457" lon="7.441435513886868"><ele>1028.0</ele><time>2026-05-01T14:28:35Z</time></trkpt><trkpt lat="43.83017668538683" lon="7.441405222780495"><ele>1028.0</ele><time>2026-05-01T14:28:36Z</time></trkpt><trkpt lat="43.830272795575176" lon="7.441382274971829"><ele>1028.2</ele><time>2026-05-01T14:28:37Z</time></trkpt><trkpt lat="43.83037241714586" lon="7.4413965964685005"><ele>1028.4</ele><time>2026-05-01T14:28:38Z</time></trkpt><trkpt lat="43.83046822129437" lon="7.441401624865289"><ele>1028.6000000000001</ele><time>2026-05-01T14:28:39Z</time></trkpt><trkpt lat="43.830577056526316" lon="7.4413803593616485"><ele>1028.8</ele><time>2026-05-01T14:28:40Z</time></trkpt><trkpt lat="43.83068268162818" lon="7.441382133504743"><ele>1029.0</ele><time>2026-05-01T14:28:41Z</time></trkpt><trkpt lat="43.83078331391205" lon="7.4413751181613685"><ele>1029.0</ele><time>2026-05-01T14:28:42Z</time></trkpt><trkpt lat="43.830880413195224" lon="7.441374429184704"><ele>1029.0</ele><time>2026-05-01T14:28:43Z</time></trkpt><trkpt lat="43.83097740696922" lon="7.441366089045643"><ele>1029.0</ele><time>2026-05-01T14:28:44Z</time></trkpt><trkpt lat="43.83107242255201" lon="7.441337205099769"><ele>1029.0</ele><time>2026-05-01T14:28:45Z</time></trkpt><trkpt lat="43.8311642698459" lon="7.441316439241422"><ele>1029.0</ele><time>2026-05-01T14:28:46Z</time></trkpt><trkpt lat="43.83125602669199" lon="7.4412992553258075"><ele>1026.1666666666667</ele><time>2026-05-01T14:28:47Z</time></trkpt><trkpt lat="43.83134530124177" lon="7.441287831966865"><ele>1023.3333333333333</ele><time>2026-05-01T14:28:48Z</time></trkpt><trkpt lat="43.83143429673401" lon="7.441281582855428"><ele>1020.5</ele><time>2026-05-01T14:28:49Z</time></trkpt><trkpt lat="43.8315203978987" lon="7.441282926227084"><ele>1017.6666666666666</ele><time>2026-05-01T14:28:50Z</time></trkpt><trkpt lat="43.83159940397335" lon="7.441308921398468"><ele>1014.8333333333333</ele><time>2026-05-01T14:28:51Z</time></trkpt><trkpt lat="43.83167323947672" lon="7.441363181064368"><ele>1012.0</ele><time>2026-05-01T14:28:52Z</time></trkpt><trkpt lat="43.831745831840415" lon="7.441440762380427"><ele>1005.8</ele><time>2026-05-01T14:28:53Z</time></trkpt><trkpt lat="43.831818852026345" lon="7.441526972215612"><ele>999.6</ele><time>2026-05-01T14:28:54Z</time></trkpt><trkpt lat="43.83189434425775" lon="7.44161111784632"><ele>993.3999999999999</ele><time>2026-05-01T14:28:55Z</time></trkpt><trkpt lat="43.83195979252645" lon="7.441692666743377"><ele>987.1999999999999</ele><time>2026-05-01T14:28:56Z</time></trkpt><trkpt lat="43.832017278074076" lon="7.441784584665025"><ele>981.0</ele><time>2026-05-01T14:28:57Z</time></trkpt><trkpt lat="43.83205592167915" lon="7.441899480318074"><ele>981.0</ele><time>2026-05-01T14:28:58Z</time></trkpt><trkpt lat="43.83211646308611" lon="7.441996869652641"><ele>981.0</ele><time>2026-05-01T14:28:59Z</time></trkpt><trkpt lat="43.83216437852845" lon="7.442100476321346"><ele>981.0</ele><time>2026-05-01T14:29:00Z</time></trkpt><trkpt lat="43.832211955778114" lon="7.442201681139481"><ele>981.0</ele><time>2026-05-01T14:29:01Z</time></trkpt><trkpt lat="43.83225890879287" lon="7.4422876153666655"><ele>981.0</ele><time>2026-05-01T14:29:02Z</time></trkpt><trkpt lat="43.832310407983705" lon="7.442362670555548"><ele>981.0</ele><time>2026-05-01T14:29:03Z</time></trkpt><trkpt lat="43.83236773597367" lon="7.442403149741185"><ele>986.5</ele><time>2026-05-01T14:29:04Z</time></trkpt><trkpt lat="43.83243719406332" lon="7.44241057588915"><ele>992.0</ele><time>2026-05-01T14:29:05Z</time></trkpt><trkpt lat="43.832517596472066" lon="7.442386534200734"><ele>997.5</ele><time>2026-05-01T14:29:06Z</time></trkpt><trkpt lat="43.83260345551781" lon="7.4423917257322465"><ele>1003.0</ele><time>2026-05-01T14:29:07Z</time></trkpt><trkpt lat="43.832695144754375" lon="7.44236731260606"><ele>1008.5</ele><time>2026-05-01T14:29:08Z</time></trkpt><trkpt lat="43.8327680105494" lon="7.442315104741326"><ele>1014.0</ele><time>2026-05-01T14:29:09Z</time></trkpt><trkpt lat="43.83284419656945" lon="7.442264557319378"><ele>1014.0</ele><time>2026-05-01T14:29:10Z</time></trkpt><trkpt lat="43.832918800000854" lon="7.442200942135862"><ele>1014.0</ele><time>2026-05-01T14:29:11Z</time></trkpt><trkpt lat="43.832992815060074" lon="7.44214048645755"><ele>1014.0</ele><time>2026-05-01T14:29:12Z</time></trkpt><trkpt lat="43.83307067133508" lon="7.442088136539491"><ele>1014.0</ele><time>2026-05-01T14:29:13Z</time></trkpt><trkpt lat="43.833146607104744" lon="7.442038329515626"><ele>1014.0</ele><time>2026-05-01T14:29:14Z</time></trkpt><trkpt lat="43.83321690325339" lon="7.441967745776153"><ele>1014.0</ele><time>2026-05-01T14:29:15Z</time></trkpt><trkpt lat="43.83327661716106" lon="7.441871073106954"><ele>1008.5</ele><time>2026-05-01T14:29:16Z</time></trkpt><trkpt lat="43.83331787797294" lon="7.441771824064421"><ele>1003.0</ele><time>2026-05-01T14:29:17Z</time></trkpt><trkpt lat="43.83336561383088" lon="7.441692122796962"><ele>997.5</ele><time>2026-05-01T14:29:18Z</time></trkpt><trkpt lat="43.833418814891864" lon="7.441624387864124"><ele>992.0</ele><time>2026-05-01T14:29:19Z</time></trkpt><trkpt lat="43.83347224729181" lon="7.441542864609607"><ele>986.5</ele><time>2026-05-01T14:29:20Z</time></trkpt><trkpt lat="43.833545361154535" lon="7.441504217987038"><ele>981.0</ele><time>2026-05-01T14:29:21Z</time></trkpt><trkpt lat="43.833618300566016" lon="7.44147510237059"><ele>979.0</ele><time>2026-05-01T14:29:21.999Z</time></trkpt><trkpt lat="43.83369441795144" lon="7.44148674130492"><ele>977.0</ele><time>2026-05-01T14:29:22.999Z</time></trkpt><trkpt lat="43.83375971141738" lon="7.441469070916378"><ele>975.0</ele><time>2026-05-01T14:29:23.999Z</time></trkpt><trkpt lat="43.83382655230746" lon="7.441501488647453"><ele>973.0</ele><time>2026-05-01T14:29:24.999Z</time></trkpt><trkpt lat="43.833881713416375" lon="7.441587241904549"><ele>971.0</ele><time>2026-05-01T14:29:25.999Z</time></trkpt><trkpt lat="43.833955597635246" lon="7.441653417356079"><ele>969.0</ele><time>2026-05-01T14:29:26.999Z</time></trkpt><trkpt lat="43.834019173464334" lon="7.441738265910292"><ele>969.0</ele><time>2026-05-01T14:29:27.999Z</time></trkpt><trkpt lat="43.83409412056804" lon="7.441814938594381"><ele>969.0</ele><time>2026-05-01T14:29:28.999Z</time></trkpt><trkpt lat="43.834166868314206" lon="7.441915852866746"><ele>969.0</ele><time>2026-05-01T14:29:29.999Z</time></trkpt><trkpt lat="43.83425119512261" lon="7.442006622979106"><ele>969.0</ele><time>2026-05-01T14:29:30.999Z</time></trkpt><trkpt lat="43.83439658526045" lon="7.44217874939484"><ele>968.3333333333334</ele><time>2026-05-01T14:29:32.999Z</time></trkpt><trkpt lat="43.83446700486364" lon="7.442241184689573"><ele>967.6666666666667</ele><time>2026-05-01T14:29:33.999Z</time></trkpt><trkpt lat="43.834556563413095" lon="7.44227148057699"><ele>967.0</ele><time>2026-05-01T14:29:34.999Z</time></trkpt><trkpt lat="43.83463106860441" lon="7.442324008196579"><ele>966.3333333333334</ele><time>2026-05-01T14:29:35.999Z</time></trkpt><trkpt lat="43.8347021644641" lon="7.442397002250732"><ele>965.6666666666667</ele><time>2026-05-01T14:29:36.999Z</time></trkpt><trkpt lat="43.83477338009542" lon="7.442488064775105"><ele>965.0</ele><time>2026-05-01T14:29:37.999Z</time></trkpt><trkpt lat="43.83485465144141" lon="7.442541500137519"><ele>965.0000000000001</ele><time>2026-05-01T14:29:38.999Z</time></trkpt><trkpt lat="43.834922942441686" lon="7.442601649392899"><ele>965.0</ele><time>2026-05-01T14:29:39.999Z</time></trkpt><trkpt lat="43.83497836516981" lon="7.442666510211293"><ele>965.0</ele><time>2026-05-01T14:29:40.999Z</time></trkpt><trkpt lat="43.83498897983517" lon="7.442770741705323"><ele>965.0</ele><time>2026-05-01T14:29:41.999Z</time></trkpt><trkpt lat="43.83501049400365" lon="7.4428795139364965"><ele>965.0000000000001</ele><time>2026-05-01T14:29:42.999Z</time></trkpt><trkpt lat="43.83501906923186" lon="7.443021164038891"><ele>965.0</ele><time>2026-05-01T14:29:43.999Z</time></trkpt><trkpt lat="43.83503546066533" lon="7.4431666775793035"><ele>964.2</ele><time>2026-05-01T14:29:44.999Z</time></trkpt><trkpt lat="43.835052291720295" lon="7.4433094036755"><ele>963.4</ele><time>2026-05-01T14:29:45.999Z</time></trkpt><trkpt lat="43.835069515857704" lon="7.443453373877065"><ele>962.5999999999999</ele><time>2026-05-01T14:29:46.999Z</time></trkpt><trkpt lat="43.83509020488133" lon="7.443594743037861"><ele>961.8</ele><time>2026-05-01T14:29:47.999Z</time></trkpt><trkpt lat="43.835135201787566" lon="7.443734211256116"><ele>961.0</ele><time>2026-05-01T14:29:48.999Z</time></trkpt><trkpt lat="43.83516968549138" lon="7.443865544295821"><ele>960.9999999999999</ele><time>2026-05-01T14:29:49.999Z</time></trkpt><trkpt lat="43.83519858451315" lon="7.443988359191239"><ele>961.0</ele><time>2026-05-01T14:29:50.999Z</time></trkpt><trkpt lat="43.83522341148455" lon="7.44410721667373"><ele>961.0</ele><time>2026-05-01T14:29:51.999Z</time></trkpt><trkpt lat="43.83524496159885" lon="7.444223066423903"><ele>961.0</ele><time>2026-05-01T14:29:52.999Z</time></trkpt><trkpt lat="43.83524286024512" lon="7.444344048694448"><ele>960.9999999999999</ele><time>2026-05-01T14:29:53.999Z</time></trkpt><trkpt lat="43.83526142777633" lon="7.444449366553454"><ele>961.0</ele><time>2026-05-01T14:29:54.999Z</time></trkpt><trkpt lat="43.8353004181531" lon="7.444530225016431"><ele>961.0</ele><time>2026-05-01T14:29:55.999Z</time></trkpt><trkpt lat="43.835391128172034" lon="7.444643408467172"><ele>960.9999999999999</ele><time>2026-05-01T14:29:57.999Z</time></trkpt><trkpt lat="43.83550128697634" lon="7.444673645261408"><ele>960.9999999999999</ele><time>2026-05-01T14:29:59.999Z</time></trkpt><trkpt lat="43.83560173018995" lon="7.444661858877053"><ele>961.0</ele><time>2026-05-01T14:30:01.999Z</time></trkpt><trkpt lat="43.83564263844395" lon="7.444590678056613"><ele>961.0</ele><time>2026-05-01T14:30:02.999Z</time></trkpt><trkpt lat="43.83568821394058" lon="7.4445194207509715"><ele>960.9999999999999</ele><time>2026-05-01T14:30:03.999Z</time></trkpt><trkpt lat="43.835740742650884" lon="7.444433292328353"><ele>961.0</ele><time>2026-05-01T14:30:04.999Z</time></trkpt><trkpt lat="43.835795967604334" lon="7.44434124974203"><ele>961.0</ele><time>2026-05-01T14:30:05.999Z</time></trkpt><trkpt lat="43.83586164942355" lon="7.4442414095787655"><ele>961.0</ele><time>2026-05-01T14:30:06.999Z</time></trkpt><trkpt lat="43.835927316962994" lon="7.44414817466667"><ele>960.9999999999999</ele><time>2026-05-01T14:30:07.999Z</time></trkpt><trkpt lat="43.835979723897985" lon="7.444059448908206"><ele>961.0</ele><time>2026-05-01T14:30:08.999Z</time></trkpt><trkpt lat="43.83603325092606" lon="7.443972168727599"><ele>961.0</ele><time>2026-05-01T14:30:09.999Z</time></trkpt><trkpt lat="43.836098242642294" lon="7.443885561854336"><ele>960.9999999999999</ele><time>2026-05-01T14:30:10.999Z</time></trkpt><trkpt lat="43.83618959506375" lon="7.4438313799591365"><ele>960.9999999999999</ele><time>2026-05-01T14:30:11.999Z</time></trkpt><trkpt lat="43.836281494254195" lon="7.4437517054004125"><ele>961.0</ele><time>2026-05-01T14:30:12.999Z</time></trkpt><trkpt lat="43.83635349545307" lon="7.443665612455878"><ele>961.0</ele><time>2026-05-01T14:30:13.999Z</time></trkpt><trkpt lat="43.836431626629135" lon="7.443583535959507"><ele>960.8</ele><time>2026-05-01T14:30:15Z</time></trkpt><trkpt lat="43.83650477842524" lon="7.443488435452288"><ele>960.5999999999999</ele><time>2026-05-01T14:30:16Z</time></trkpt><trkpt lat="43.836567091923676" lon="7.443385598937313"><ele>960.4</ele><time>2026-05-01T14:30:17Z</time></trkpt><trkpt lat="43.83664332129261" lon="7.443298775512696"><ele>960.2</ele><time>2026-05-01T14:30:18Z</time></trkpt><trkpt lat="43.83672045827497" lon="7.443196376453044"><ele>960.0</ele><time>2026-05-01T14:30:19Z</time></trkpt><trkpt lat="43.836786627783454" lon="7.443084409870736"><ele>960.0</ele><time>2026-05-01T14:30:20Z</time></trkpt><trkpt lat="43.83686751297077" lon="7.442987898722262"><ele>960.0</ele><time>2026-05-01T14:30:21Z</time></trkpt><trkpt lat="43.836945241863404" lon="7.442892554245741"><ele>960.0</ele><time>2026-05-01T14:30:22Z</time></trkpt><trkpt lat="43.837006608439864" lon="7.442792109025784"><ele>960.0</ele><time>2026-05-01T14:30:23Z</time></trkpt><trkpt lat="43.837047020349715" lon="7.442678297684026"><ele>960.0</ele><time>2026-05-01T14:30:24Z</time></trkpt><trkpt lat="43.837064957125996" lon="7.442543259488435"><ele>960.0</ele><time>2026-05-01T14:30:25Z</time></trkpt><trkpt lat="43.837071093947024" lon="7.442408124758285"><ele>960.0</ele><time>2026-05-01T14:30:26Z</time></trkpt><trkpt lat="43.837083219832365" lon="7.442281205537992"><ele>960.0</ele><time>2026-05-01T14:30:27Z</time></trkpt><trkpt lat="43.83713498933693" lon="7.4421652007395975"><ele>960.0</ele><time>2026-05-01T14:30:28Z</time></trkpt><trkpt lat="43.8371892656339" lon="7.442047884374479"><ele>960.0</ele><time>2026-05-01T14:30:29Z</time></trkpt><trkpt lat="43.83722249696797" lon="7.4419224371348065"><ele>959.6</ele><time>2026-05-01T14:30:30Z</time></trkpt><trkpt lat="43.83725348085144" lon="7.441797309217208"><ele>959.2</ele><time>2026-05-01T14:30:31Z</time></trkpt><trkpt lat="43.83726477252047" lon="7.441653549653077"><ele>958.8</ele><time>2026-05-01T14:30:32Z</time></trkpt><trkpt lat="43.83726567225298" lon="7.441493762034864"><ele>958.4</ele><time>2026-05-01T14:30:33Z</time></trkpt><trkpt lat="43.83726663333722" lon="7.441344210951167"><ele>958.0</ele><time>2026-05-01T14:30:34Z</time></trkpt><trkpt lat="43.837264288290854" lon="7.4412132175382615"><ele>957.9999999999999</ele><time>2026-05-01T14:30:35Z</time></trkpt><trkpt lat="43.837262755139925" lon="7.441094160784147"><ele>958.0</ele><time>2026-05-01T14:30:36Z</time></trkpt><trkpt lat="43.83726648125573" lon="7.440977163757387"><ele>958.0</ele><time>2026-05-01T14:30:37Z</time></trkpt><trkpt lat="43.83726985260111" lon="7.440863698030302"><ele>958.0</ele><time>2026-05-01T14:30:38Z</time></trkpt><trkpt lat="43.83730054958674" lon="7.440758834522246"><ele>957.9999999999999</ele><time>2026-05-01T14:30:39Z</time></trkpt><trkpt lat="43.83733284876516" lon="7.440652095112776"><ele>958.0</ele><time>2026-05-01T14:30:40Z</time></trkpt><trkpt lat="43.83736555128269" lon="7.44055344163125"><ele>958.0</ele><time>2026-05-01T14:30:41Z</time></trkpt><trkpt lat="43.837389013700964" lon="7.4404372010481215"><ele>958.0</ele><time>2026-05-01T14:30:42Z</time></trkpt><trkpt lat="43.83741425310273" lon="7.4403223561143985"><ele>958.0</ele><time>2026-05-01T14:30:43Z</time></trkpt><trkpt lat="43.837414253163644" lon="7.440187962605258"><ele>958.0</ele><time>2026-05-01T14:30:44Z</time></trkpt><trkpt lat="43.83740766143155" lon="7.440055024468135"><ele>958.0</ele><time>2026-05-01T14:30:45Z</time></trkpt><trkpt lat="43.83740032162128" lon="7.439935163468805"><ele>958.0</ele><time>2026-05-01T14:30:46Z</time></trkpt><trkpt lat="43.837393962771706" lon="7.439831340108575"><ele>958.0</ele><time>2026-05-01T14:30:47Z</time></trkpt><trkpt lat="43.83738946276829" lon="7.439731013639779"><ele>958.0</ele><time>2026-05-01T14:30:48Z</time></trkpt><trkpt lat="43.837388788999185" lon="7.439624791949196"><ele>958.0</ele><time>2026-05-01T14:30:49Z</time></trkpt><trkpt lat="43.837399596831354" lon="7.439523246383479"><ele>958.0</ele><time>2026-05-01T14:30:50Z</time></trkpt><trkpt lat="43.83742499355714" lon="7.4394276586894055"><ele>958.0</ele><time>2026-05-01T14:30:51Z</time></trkpt><trkpt lat="43.837455805555415" lon="7.439331604746476"><ele>958.0</ele><time>2026-05-01T14:30:52Z</time></trkpt><trkpt lat="43.837491934337855" lon="7.439237448418973"><ele>957.9999999999999</ele><time>2026-05-01T14:30:53Z</time></trkpt><trkpt lat="43.83754515332467" lon="7.439163072796887"><ele>958.0</ele><time>2026-05-01T14:30:54Z</time></trkpt><trkpt lat="43.83759922712496" lon="7.439090264580996"><ele>958.0</ele><time>2026-05-01T14:30:55Z</time></trkpt><trkpt lat="43.83766008150707" lon="7.439017960561697"><ele>958.0</ele><time>2026-05-01T14:30:56Z</time></trkpt><trkpt lat="43.83772000256783" lon="7.438936408541437"><ele>957.9999999999999</ele><time>2026-05-01T14:30:57Z</time></trkpt><trkpt lat="43.83777882675598" lon="7.438842831817334"><ele>958.0</ele><time>2026-05-01T14:30:58Z</time></trkpt><trkpt lat="43.83783871777801" lon="7.4387351615825885"><ele>958.2</ele><time>2026-05-01T14:30:59Z</time></trkpt><trkpt lat="43.8379101494877" lon="7.438628901581467"><ele>958.4</ele><time>2026-05-01T14:31:00Z</time></trkpt><trkpt lat="43.83799704190136" lon="7.438548195432397"><ele>958.6000000000001</ele><time>2026-05-01T14:31:01Z</time></trkpt><trkpt lat="43.838069072993925" lon="7.438453969722982"><ele>958.8000000000001</ele><time>2026-05-01T14:31:02Z</time></trkpt><trkpt lat="43.83814087784557" lon="7.438356737153115"><ele>959.0</ele><time>2026-05-01T14:31:03Z</time></trkpt><trkpt lat="43.83821280876474" lon="7.438255521047092"><ele>959.0</ele><time>2026-05-01T14:31:04Z</time></trkpt><trkpt lat="43.83827169225099" lon="7.43814198919309"><ele>959.0000000000001</ele><time>2026-05-01T14:31:05Z</time></trkpt><trkpt lat="43.8383508219814" lon="7.438070618259934"><ele>959.0000000000001</ele><time>2026-05-01T14:31:06Z</time></trkpt><trkpt lat="43.83842698981614" lon="7.437998282113002"><ele>959.0</ele><time>2026-05-01T14:31:07Z</time></trkpt><trkpt lat="43.838508280491304" lon="7.437934878611909"><ele>959.0</ele><time>2026-05-01T14:31:08Z</time></trkpt><trkpt lat="43.838599435591576" lon="7.437871954286364"><ele>957.4000000000001</ele><time>2026-05-01T14:31:09Z</time></trkpt><trkpt lat="43.83869546648201" lon="7.437813729759548"><ele>955.8000000000001</ele><time>2026-05-01T14:31:10Z</time></trkpt><trkpt lat="43.83879943714903" lon="7.437756833319594"><ele>954.1999999999999</ele><time>2026-05-01T14:31:11Z</time></trkpt><trkpt lat="43.838907199127526" lon="7.437693947093427"><ele>952.5999999999999</ele><time>2026-05-01T14:31:12Z</time></trkpt><trkpt lat="43.83901233916067" lon="7.437629227513959"><ele>951.0</ele><time>2026-05-01T14:31:13Z</time></trkpt><trkpt lat="43.8391065636976" lon="7.437543957094228"><ele>951.0</ele><time>2026-05-01T14:31:14Z</time></trkpt><trkpt lat="43.8392136549959" lon="7.437497750981004"><ele>950.9999999999999</ele><time>2026-05-01T14:31:15Z</time></trkpt><trkpt lat="43.83930980273707" lon="7.437419425592174"><ele>950.9999999999999</ele><time>2026-05-01T14:31:16Z</time></trkpt><trkpt lat="43.839400008173854" lon="7.437338050221502"><ele>951.0</ele><time>2026-05-01T14:31:17Z</time></trkpt><trkpt lat="43.83948159254202" lon="7.437263607169963"><ele>951.0</ele><time>2026-05-01T14:31:18Z</time></trkpt><trkpt lat="43.83955342805338" lon="7.437194858519884"><ele>950.5</ele><time>2026-05-01T14:31:19Z</time></trkpt><trkpt lat="43.839622027468884" lon="7.437131303961829"><ele>950.0</ele><time>2026-05-01T14:31:20Z</time></trkpt><trkpt lat="43.8396824982041" lon="7.437082281824399"><ele>949.5</ele><time>2026-05-01T14:31:21Z</time></trkpt><trkpt lat="43.83974644876263" lon="7.43704553604716"><ele>949.0</ele><time>2026-05-01T14:31:22Z</time></trkpt><trkpt lat="43.83982745718261" lon="7.437012011984457"><ele>948.5</ele><time>2026-05-01T14:31:23Z</time></trkpt><trkpt lat="43.83992392505439" lon="7.43697504086595"><ele>948.0</ele><time>2026-05-01T14:31:24Z</time></trkpt><trkpt lat="43.84002722194342" lon="7.436939442053901"><ele>948.0</ele><time>2026-05-01T14:31:25Z</time></trkpt><trkpt lat="43.84012603542156" lon="7.436909876751538"><ele>948.0</ele><time>2026-05-01T14:31:26Z</time></trkpt><trkpt lat="43.84021628470092" lon="7.436885659861817"><ele>948.0</ele><time>2026-05-01T14:31:27Z</time></trkpt><trkpt lat="43.8402943652953" lon="7.436835143934991"><ele>948.0</ele><time>2026-05-01T14:31:28Z</time></trkpt><trkpt lat="43.84036254450702" lon="7.436813290491195"><ele>948.0</ele><time>2026-05-01T14:31:29Z</time></trkpt><trkpt lat="43.840424194307374" lon="7.436792351011207"><ele>948.0</ele><time>2026-05-01T14:31:30Z</time></trkpt><trkpt lat="43.840495680152436" lon="7.436696690558986"><ele>948.5</ele><time>2026-05-01T14:31:32Z</time></trkpt><trkpt lat="43.84051056654155" lon="7.436598786946684"><ele>949.0</ele><time>2026-05-01T14:31:34Z</time></trkpt><trkpt lat="43.84049583324155" lon="7.436443467650675"><ele>949.5</ele><time>2026-05-01T14:31:36Z</time></trkpt><trkpt lat="43.8404886492508" lon="7.436330690645631"><ele>950.0</ele><time>2026-05-01T14:31:37Z</time></trkpt><trkpt lat="43.840462029265446" lon="7.4362099502526"><ele>950.5</ele><time>2026-05-01T14:31:38Z</time></trkpt><trkpt lat="43.840456304655696" lon="7.436084591620044"><ele>951.0</ele><time>2026-05-01T14:31:39Z</time></trkpt><trkpt lat="43.840449702319454" lon="7.435965150948522"><ele>951.0</ele><time>2026-05-01T14:31:40Z</time></trkpt><trkpt lat="43.840446854091624" lon="7.4358521976826"><ele>951.0</ele><time>2026-05-01T14:31:41Z</time></trkpt><trkpt lat="43.8404464256138" lon="7.43574221146584"><ele>951.0</ele><time>2026-05-01T14:31:42Z</time></trkpt><trkpt lat="43.840447061354816" lon="7.435631928409083"><ele>951.0</ele><time>2026-05-01T14:31:43Z</time></trkpt><trkpt lat="43.84044469925803" lon="7.435527641318799"><ele>951.0</ele><time>2026-05-01T14:31:44Z</time></trkpt><trkpt lat="43.840432894765506" lon="7.435423923297612"><ele>951.0</ele><time>2026-05-01T14:31:45Z</time></trkpt><trkpt lat="43.84040209948204" lon="7.435311348816097"><ele>949.8333333333334</ele><time>2026-05-01T14:31:46Z</time></trkpt><trkpt lat="43.84035621524719" lon="7.435226546332263"><ele>948.6666666666667</ele><time>2026-05-01T14:31:47Z</time></trkpt><trkpt lat="43.840293506141116" lon="7.4351376993458365"><ele>947.5</ele><time>2026-05-01T14:31:48Z</time></trkpt><trkpt lat="43.840220630510615" lon="7.435052739604656"><ele>946.3333333333334</ele><time>2026-05-01T14:31:49Z</time></trkpt><trkpt lat="43.84015238412745" lon="7.434977550456983"><ele>945.1666666666667</ele><time>2026-05-01T14:31:50Z</time></trkpt><trkpt lat="43.84009661654148" lon="7.434894373733"><ele>944.0</ele><time>2026-05-01T14:31:51Z</time></trkpt><trkpt lat="43.840057928626145" lon="7.434805245593524"><ele>944.0000000000001</ele><time>2026-05-01T14:31:52Z</time></trkpt><trkpt lat="43.840028789121405" lon="7.434715106802264"><ele>944.0</ele><time>2026-05-01T14:31:53Z</time></trkpt><trkpt lat="43.840019092465255" lon="7.434622846396161"><ele>944.0</ele><time>2026-05-01T14:31:54Z</time></trkpt><trkpt lat="43.84004417539411" lon="7.4345089517835525"><ele>944.0</ele><time>2026-05-01T14:31:55Z</time></trkpt><trkpt lat="43.840042169921944" lon="7.4343821343316945"><ele>944.0000000000001</ele><time>2026-05-01T14:31:56Z</time></trkpt><trkpt lat="43.84005786232233" lon="7.434246128339728"><ele>944.0</ele><time>2026-05-01T14:31:57Z</time></trkpt><trkpt lat="43.84008739113759" lon="7.434106513253151"><ele>945.0</ele><time>2026-05-01T14:31:58Z</time></trkpt><trkpt lat="43.840090878807885" lon="7.433957615350757"><ele>946.0000000000001</ele><time>2026-05-01T14:31:59Z</time></trkpt><trkpt lat="43.84011188036478" lon="7.433812699797537"><ele>947.0000000000001</ele><time>2026-05-01T14:32:00Z</time></trkpt><trkpt lat="43.84012560988956" lon="7.433670656557052"><ele>948.0</ele><time>2026-05-01T14:32:01Z</time></trkpt><trkpt lat="43.840132281919395" lon="7.433530629183652"><ele>949.0</ele><time>2026-05-01T14:32:02Z</time></trkpt><trkpt lat="43.84013599107978" lon="7.433387124278534"><ele>949.6</ele><time>2026-05-01T14:32:03Z</time></trkpt><trkpt lat="43.84013210854691" lon="7.4332474740382946"><ele>950.2</ele><time>2026-05-01T14:32:04Z</time></trkpt><trkpt lat="43.840133982951286" lon="7.4331198032499985"><ele>950.8000000000001</ele><time>2026-05-01T14:32:05Z</time></trkpt><trkpt lat="43.840135789423115" lon="7.432989708761423"><ele>951.4000000000001</ele><time>2026-05-01T14:32:06Z</time></trkpt><trkpt lat="43.84013510532571" lon="7.432853421461326"><ele>952.0</ele><time>2026-05-01T14:32:07Z</time></trkpt><trkpt lat="43.84013871599378" lon="7.432732605562106"><ele>956.1666666666666</ele><time>2026-05-01T14:32:08Z</time></trkpt><trkpt lat="43.84014173501791" lon="7.432618210320189"><ele>960.3333333333333</ele><time>2026-05-01T14:32:09Z</time></trkpt><trkpt lat="43.84014007781165" lon="7.432494229458086"><ele>964.5</ele><time>2026-05-01T14:32:10Z</time></trkpt><trkpt lat="43.8401452874465" lon="7.432366527744233"><ele>968.6666666666667</ele><time>2026-05-01T14:32:11Z</time></trkpt><trkpt lat="43.840170396146405" lon="7.43224546084788"><ele>972.8333333333334</ele><time>2026-05-01T14:32:12Z</time></trkpt><trkpt lat="43.84018678669186" lon="7.432128055913755"><ele>977.0</ele><time>2026-05-01T14:32:13Z</time></trkpt><trkpt lat="43.84021765702295" lon="7.432003872838264"><ele>978.0</ele><time>2026-05-01T14:32:14Z</time></trkpt><trkpt lat="43.840260692971654" lon="7.43187819723717"><ele>979.0</ele><time>2026-05-01T14:32:15Z</time></trkpt><trkpt lat="43.84031637200722" lon="7.431757295954532"><ele>980.0</ele><time>2026-05-01T14:32:16Z</time></trkpt><trkpt lat="43.8403419721725" lon="7.4316372839051335"><ele>981.0</ele><time>2026-05-01T14:32:17Z</time></trkpt><trkpt lat="43.84036578594091" lon="7.4315286236573135"><ele>982.0</ele><time>2026-05-01T14:32:18Z</time></trkpt><trkpt lat="43.84036547413619" lon="7.43141765921781"><ele>983.2</ele><time>2026-05-01T14:32:19Z</time></trkpt><trkpt lat="43.84035190816383" lon="7.431290809567692"><ele>984.4000000000001</ele><time>2026-05-01T14:32:20Z</time></trkpt><trkpt lat="43.84033018740303" lon="7.431149533563798"><ele>985.5999999999999</ele><time>2026-05-01T14:32:21Z</time></trkpt><trkpt lat="43.840305909075695" lon="7.431007855327266"><ele>986.8</ele><time>2026-05-01T14:32:22Z</time></trkpt><trkpt lat="43.840281836605236" lon="7.4308591872846055"><ele>988.0</ele><time>2026-05-01T14:32:23Z</time></trkpt><trkpt lat="43.840251499184895" lon="7.430714049852642"><ele>988.0</ele><time>2026-05-01T14:32:24Z</time></trkpt><trkpt lat="43.84022694465671" lon="7.430571104574631"><ele>988.0</ele><time>2026-05-01T14:32:25Z</time></trkpt><trkpt lat="43.84020773423889" lon="7.430419349119038"><ele>988.0</ele><time>2026-05-01T14:32:26Z</time></trkpt><trkpt lat="43.840190502661905" lon="7.430278655711145"><ele>988.0</ele><time>2026-05-01T14:32:27Z</time></trkpt><trkpt lat="43.84016997578813" lon="7.430132152850406"><ele>988.0</ele><time>2026-05-01T14:32:28Z</time></trkpt><trkpt lat="43.84015032465724" lon="7.429986298078378"><ele>986.75</ele><time>2026-05-01T14:32:29Z</time></trkpt><trkpt lat="43.84012255161559" lon="7.429833071924804"><ele>985.5</ele><time>2026-05-01T14:32:30Z</time></trkpt><trkpt lat="43.840087619453236" lon="7.429679949855354"><ele>984.25</ele><time>2026-05-01T14:32:31Z</time></trkpt><trkpt lat="43.840045876408674" lon="7.429527942880807"><ele>983.0</ele><time>2026-05-01T14:32:32Z</time></trkpt><trkpt lat="43.84000307781779" lon="7.429372924542564"><ele>983.0</ele><time>2026-05-01T14:32:33Z</time></trkpt><trkpt lat="43.83995844259502" lon="7.429216745409483"><ele>983.0</ele><time>2026-05-01T14:32:34Z</time></trkpt><trkpt lat="43.83990960323675" lon="7.42906156778916"><ele>983.0</ele><time>2026-05-01T14:32:35Z</time></trkpt><trkpt lat="43.83986236695282" lon="7.428910776862901"><ele>983.0</ele><time>2026-05-01T14:32:36Z</time></trkpt><trkpt lat="43.83982346340245" lon="7.42878959050274"><ele>985.5000000000001</ele><time>2026-05-01T14:32:37Z</time></trkpt><trkpt lat="43.839792028723956" lon="7.428682039753182"><ele>988.0</ele><time>2026-05-01T14:32:38Z</time></trkpt><trkpt lat="43.83976382215327" lon="7.428579628561716"><ele>990.5</ele><time>2026-05-01T14:32:39Z</time></trkpt><trkpt lat="43.839732057060836" lon="7.428479923976328"><ele>993.0</ele><time>2026-05-01T14:32:40Z</time></trkpt><trkpt lat="43.839696793603046" lon="7.42837747536563"><ele>995.5000000000001</ele><time>2026-05-01T14:32:41Z</time></trkpt><trkpt lat="43.83964322466221" lon="7.428281286827997"><ele>998.0</ele><time>2026-05-01T14:32:42Z</time></trkpt><trkpt lat="43.8395853172567" lon="7.428200133081222"><ele>998.0000000000001</ele><time>2026-05-01T14:32:43Z</time></trkpt><trkpt lat="43.839529618077414" lon="7.4281353333902365"><ele>998.0</ele><time>2026-05-01T14:32:44Z</time></trkpt><trkpt lat="43.83944880873693" lon="7.428049247548129"><ele>998.0</ele><time>2026-05-01T14:32:46Z</time></trkpt><trkpt lat="43.83942374806954" lon="7.4279601552464465"><ele>998.0</ele><time>2026-05-01T14:32:48Z</time></trkpt><trkpt lat="43.839481225347065" lon="7.427898988933777"><ele>998.0000000000001</ele><time>2026-05-01T14:32:50Z</time></trkpt><trkpt lat="43.83953696589003" lon="7.427987641864289"><ele>998.0</ele><time>2026-05-01T14:32:52Z</time></trkpt><trkpt lat="43.83961296090519" lon="7.428094305582073"><ele>998.0</ele><time>2026-05-01T14:32:54Z</time></trkpt><trkpt lat="43.83968371576267" lon="7.428158744442061"><ele>998.0</ele><time>2026-05-01T14:32:55Z</time></trkpt><trkpt lat="43.83976302059761" lon="7.428229051942482"><ele>998.0</ele><time>2026-05-01T14:32:56Z</time></trkpt><trkpt lat="43.839852400059726" lon="7.428309188400007"><ele>998.0</ele><time>2026-05-01T14:32:57Z</time></trkpt><trkpt lat="43.839943338690134" lon="7.428391995953762"><ele>998.0</ele><time>2026-05-01T14:32:58Z</time></trkpt><trkpt lat="43.84002115319366" lon="7.428464886379271"><ele>998.0</ele><time>2026-05-01T14:32:59Z</time></trkpt><trkpt lat="43.84010831178691" lon="7.42853855873231"><ele>998.0</ele><time>2026-05-01T14:33:00Z</time></trkpt><trkpt lat="43.8401959354098" lon="7.428619890476997"><ele>998.0</ele><time>2026-05-01T14:33:01Z</time></trkpt><trkpt lat="43.84027525096432" lon="7.428714397603236"><ele>998.0</ele><time>2026-05-01T14:33:02Z</time></trkpt><trkpt lat="43.84035320612628" lon="7.428806831918903"><ele>998.0</ele><time>2026-05-01T14:33:03Z</time></trkpt><trkpt lat="43.84043103629776" lon="7.428889583370522"><ele>999.3333333333334</ele><time>2026-05-01T14:33:04Z</time></trkpt><trkpt lat="43.84051973695076" lon="7.428953843521898"><ele>1000.6666666666667</ele><time>2026-05-01T14:33:05Z</time></trkpt><trkpt lat="43.84060712185432" lon="7.429008248253881"><ele>1002.0</ele><time>2026-05-01T14:33:06Z</time></trkpt><trkpt lat="43.840684413851704" lon="7.4290557811977465"><ele>1003.3333333333333</ele><time>2026-05-01T14:33:07Z</time></trkpt><trkpt lat="43.84076071644511" lon="7.429102705681683"><ele>1004.6666666666666</ele><time>2026-05-01T14:33:08Z</time></trkpt><trkpt lat="43.84083084987046" lon="7.429149568035924"><ele>1006.0</ele><time>2026-05-01T14:33:09Z</time></trkpt><trkpt lat="43.84088584590714" lon="7.4292178551061365"><ele>1005.9999999999999</ele><time>2026-05-01T14:33:10Z</time></trkpt><trkpt lat="43.84097350659387" lon="7.429312700285587"><ele>1006.0</ele><time>2026-05-01T14:33:12Z</time></trkpt><trkpt lat="43.84102193098638" lon="7.429394187785764"><ele>1006.0</ele><time>2026-05-01T14:33:14Z</time></trkpt><trkpt lat="43.84108420426707" lon="7.429365813117636"><ele>1006.0</ele><time>2026-05-01T14:33:15Z</time></trkpt><trkpt lat="43.84110186960049" lon="7.429271930043393"><ele>1005.9999999999999</ele><time>2026-05-01T14:33:16Z</time></trkpt><trkpt lat="43.84104764512238" lon="7.4291963084758414"><ele>1006.0</ele><time>2026-05-01T14:33:17Z</time></trkpt><trkpt lat="43.840942035483195" lon="7.4290654362269635"><ele>1006.0</ele><time>2026-05-01T14:33:19Z</time></trkpt><trkpt lat="43.84088468292163" lon="7.428953560076436"><ele>1005.9999999999999</ele><time>2026-05-01T14:33:20Z</time></trkpt><trkpt lat="43.84082002519994" lon="7.428825768899721"><ele>1005.9999999999999</ele><time>2026-05-01T14:33:21Z</time></trkpt><trkpt lat="43.84075977739122" lon="7.428706454303958"><ele>1006.0</ele><time>2026-05-01T14:33:22Z</time></trkpt><trkpt lat="43.84069563196005" lon="7.428580658240438"><ele>1006.0</ele><time>2026-05-01T14:33:23Z</time></trkpt><trkpt lat="43.84062958549125" lon="7.428444012349099"><ele>1010.0</ele><time>2026-05-01T14:33:24Z</time></trkpt><trkpt lat="43.8405672054263" lon="7.428311007538013"><ele>1013.9999999999999</ele><time>2026-05-01T14:33:25Z</time></trkpt><trkpt lat="43.840512375466716" lon="7.4281934334167286"><ele>1017.9999999999999</ele><time>2026-05-01T14:33:26Z</time></trkpt><trkpt lat="43.840461458569266" lon="7.428079030945146"><ele>1022.0</ele><time>2026-05-01T14:33:27Z</time></trkpt><trkpt lat="43.84041547870149" lon="7.427960341991464"><ele>1026.0</ele><time>2026-05-01T14:33:28Z</time></trkpt><trkpt lat="43.840376743344486" lon="7.4278323377219575"><ele>1030.3999999999999</ele><time>2026-05-01T14:33:29Z</time></trkpt><trkpt lat="43.84034234018754" lon="7.42770095013004"><ele>1034.8</ele><time>2026-05-01T14:33:30Z</time></trkpt><trkpt lat="43.84030402439352" lon="7.427574083584956"><ele>1039.1999999999998</ele><time>2026-05-01T14:33:31Z</time></trkpt><trkpt lat="43.84026515390224" lon="7.427444487076248"><ele>1043.6</ele><time>2026-05-01T14:33:32Z</time></trkpt><trkpt lat="43.84022820079173" lon="7.4273151998406615"><ele>1048.0</ele><time>2026-05-01T14:33:33Z</time></trkpt><trkpt lat="43.84018414994412" lon="7.427188975381448"><ele>1045.0</ele><time>2026-05-01T14:33:34Z</time></trkpt><trkpt lat="43.84012417626319" lon="7.427068988624048"><ele>1042.0</ele><time>2026-05-01T14:33:35Z</time></trkpt><trkpt lat="43.8400638681985" lon="7.426946241450546"><ele>1039.0</ele><time>2026-05-01T14:33:36Z</time></trkpt><trkpt lat="43.84000061412435" lon="7.426825642928697"><ele>1036.0</ele><time>2026-05-01T14:33:37Z</time></trkpt><trkpt lat="43.83993562979547" lon="7.4267018204092565"><ele>1033.0</ele><time>2026-05-01T14:33:38Z</time></trkpt><trkpt lat="43.83987487667177" lon="7.426578265357398"><ele>1033.0</ele><time>2026-05-01T14:33:39Z</time></trkpt><trkpt lat="43.83980917765352" lon="7.42645790550826"><ele>1033.0</ele><time>2026-05-01T14:33:40Z</time></trkpt><trkpt lat="43.839738092910906" lon="7.426339493082435"><ele>1033.0</ele><time>2026-05-01T14:33:41Z</time></trkpt><trkpt lat="43.83966360242385" lon="7.426220115258854"><ele>1033.0</ele><time>2026-05-01T14:33:42Z</time></trkpt><trkpt lat="43.83959053381278" lon="7.426101933418021"><ele>1033.0</ele><time>2026-05-01T14:33:43Z</time></trkpt><trkpt lat="43.839509480619164" lon="7.425989315579719"><ele>1035.0</ele><time>2026-05-01T14:33:44Z</time></trkpt><trkpt lat="43.83943605693442" lon="7.425891666926328"><ele>1037.0</ele><time>2026-05-01T14:33:45Z</time></trkpt><trkpt lat="43.83937093205666" lon="7.425807037868991"><ele>1039.0</ele><time>2026-05-01T14:33:46Z</time></trkpt><trkpt lat="43.83930753832218" lon="7.425738044407004"><ele>1041.0</ele><time>2026-05-01T14:33:47Z</time></trkpt><trkpt lat="43.83924767105329" lon="7.425693713192104"><ele>1043.0</ele><time>2026-05-01T14:33:48Z</time></trkpt><trkpt lat="43.839148011765346" lon="7.425678205778455"><ele>1045.0</ele><time>2026-05-01T14:33:50Z</time></trkpt><trkpt lat="43.83907468031064" lon="7.425765987819134"><ele>1045.0</ele><time>2026-05-01T14:33:52Z</time></trkpt><trkpt lat="43.83902259476778" lon="7.425914617664364"><ele>1045.0</ele><time>2026-05-01T14:33:54Z</time></trkpt><trkpt lat="43.838996548355304" lon="7.42602749252921"><ele>1045.0</ele><time>2026-05-01T14:33:55Z</time></trkpt><trkpt lat="43.838961591784525" lon="7.426167123095659"><ele>1045.0</ele><time>2026-05-01T14:33:56Z</time></trkpt><trkpt lat="43.83892715254183" lon="7.426301314598809"><ele>1045.0</ele><time>2026-05-01T14:33:57Z</time></trkpt><trkpt lat="43.83890748730736" lon="7.426428695613633"><ele>1042.1666666666665</ele><time>2026-05-01T14:33:58Z</time></trkpt><trkpt lat="43.8388993893236" lon="7.426551859392311"><ele>1039.3333333333333</ele><time>2026-05-01T14:33:59Z</time></trkpt><trkpt lat="43.83888417874234" lon="7.426676659271439"><ele>1036.5</ele><time>2026-05-01T14:34:00Z</time></trkpt><trkpt lat="43.83885417824411" lon="7.426779566146691"><ele>1033.6666666666667</ele><time>2026-05-01T14:34:01Z</time></trkpt><trkpt lat="43.83882037869688" lon="7.426874115064145"><ele>1030.8333333333335</ele><time>2026-05-01T14:34:02Z</time></trkpt><trkpt lat="43.83877843983051" lon="7.4269724865953455"><ele>1028.0</ele><time>2026-05-01T14:34:03Z</time></trkpt><trkpt lat="43.838734801356075" lon="7.427063453315904"><ele>1027.5</ele><time>2026-05-01T14:34:04Z</time></trkpt><trkpt lat="43.8386546687957" lon="7.427184889127157"><ele>1027.0</ele><time>2026-05-01T14:34:06Z</time></trkpt><trkpt lat="43.838543941130865" lon="7.427230661464187"><ele>1026.5</ele><time>2026-05-01T14:34:08Z</time></trkpt><trkpt lat="43.838440070579175" lon="7.427185755984996"><ele>1026.0</ele><time>2026-05-01T14:34:10Z</time></trkpt><trkpt lat="43.83833951304687" lon="7.4270661681349015"><ele>1030.1666666666667</ele><time>2026-05-01T14:34:12Z</time></trkpt><trkpt lat="43.838293299880654" lon="7.426988876194299"><ele>1034.3333333333333</ele><time>2026-05-01T14:34:13Z</time></trkpt><trkpt lat="43.83824980078257" lon="7.426912980365818"><ele>1038.5</ele><time>2026-05-01T14:34:14Z</time></trkpt><trkpt lat="43.83820266208122" lon="7.4268300761023305"><ele>1042.6666666666665</ele><time>2026-05-01T14:34:15Z</time></trkpt><trkpt lat="43.838140032441764" lon="7.426735394477269"><ele>1046.8333333333333</ele><time>2026-05-01T14:34:16Z</time></trkpt><trkpt lat="43.83806405810328" lon="7.426648444266624"><ele>1051.0</ele><time>2026-05-01T14:34:17Z</time></trkpt><trkpt lat="43.83798132595527" lon="7.426572256862262"><ele>1051.0</ele><time>2026-05-01T14:34:18Z</time></trkpt><trkpt lat="43.83789856247314" lon="7.42652234653959"><ele>1051.0</ele><time>2026-05-01T14:34:19Z</time></trkpt><trkpt lat="43.837815936646855" lon="7.426482111748812"><ele>1051.0</ele><time>2026-05-01T14:34:20Z</time></trkpt><trkpt lat="43.8377224608383" lon="7.426473931943193"><ele>1051.0</ele><time>2026-05-01T14:34:21Z</time></trkpt><trkpt lat="43.83761200226743" lon="7.426479737773682"><ele>1051.0</ele><time>2026-05-01T14:34:21.999Z</time></trkpt><trkpt lat="43.83750218226344" lon="7.4264726303510065"><ele>1048.3999999999999</ele><time>2026-05-01T14:34:22.999Z</time></trkpt><trkpt lat="43.83740341924179" lon="7.426440387674238"><ele>1045.8</ele><time>2026-05-01T14:34:23.999Z</time></trkpt><trkpt lat="43.8373067748842" lon="7.426398854938201"><ele>1043.1999999999998</ele><time>2026-05-01T14:34:24.999Z</time></trkpt><trkpt lat="43.83720321388717" lon="7.426347859986089"><ele>1040.6</ele><time>2026-05-01T14:34:25.999Z</time></trkpt><trkpt lat="43.83709171052942" lon="7.4263151614622345"><ele>1038.0</ele><time>2026-05-01T14:34:27Z</time></trkpt><trkpt lat="43.83697927793773" lon="7.426292703162406"><ele>1037.0</ele><time>2026-05-01T14:34:28Z</time></trkpt><trkpt lat="43.83687396284804" lon="7.426281532399786"><ele>1036.0</ele><time>2026-05-01T14:34:29Z</time></trkpt><trkpt lat="43.83678039616768" lon="7.426290063915694"><ele>1035.0</ele><time>2026-05-01T14:34:30Z</time></trkpt><trkpt lat="43.83668503210221" lon="7.42629900456006"><ele>1034.0</ele><time>2026-05-01T14:34:31Z</time></trkpt><trkpt lat="43.83659809456119" lon="7.426308082811261"><ele>1033.0</ele><time>2026-05-01T14:34:32Z</time></trkpt><trkpt lat="43.83651707726071" lon="7.426319792360109"><ele>1033.0</ele><time>2026-05-01T14:34:33Z</time></trkpt><trkpt lat="43.83644479787759" lon="7.4263141795751535"><ele>1033.0</ele><time>2026-05-01T14:34:34Z</time></trkpt><trkpt lat="43.836378635192624" lon="7.426282838322968"><ele>1033.0</ele><time>2026-05-01T14:34:35Z</time></trkpt><trkpt lat="43.83629214051976" lon="7.426172658297486"><ele>1033.0</ele><time>2026-05-01T14:34:37Z</time></trkpt><trkpt lat="43.836250901721925" lon="7.425982863532786"><ele>1033.0</ele><time>2026-05-01T14:34:39Z</time></trkpt><trkpt lat="43.836250981666645" lon="7.42587417486981"><ele>1035.6666666666665</ele><time>2026-05-01T14:34:40Z</time></trkpt><trkpt lat="43.836258564020646" lon="7.425750159667364"><ele>1038.3333333333333</ele><time>2026-05-01T14:34:41Z</time></trkpt><trkpt lat="43.83626974604657" lon="7.425633165301347"><ele>1041.0</ele><time>2026-05-01T14:34:42Z</time></trkpt><trkpt lat="43.83627817284844" lon="7.4255173321948025"><ele>1043.6666666666667</ele><time>2026-05-01T14:34:43Z</time></trkpt><trkpt lat="43.83628877095613" lon="7.42540746991804"><ele>1046.3333333333335</ele><time>2026-05-01T14:34:44Z</time></trkpt><trkpt lat="43.83629358144482" lon="7.425304859650994"><ele>1049.0</ele><time>2026-05-01T14:34:45Z</time></trkpt><trkpt lat="43.83630495665053" lon="7.425196464445378"><ele>1049.0</ele><time>2026-05-01T14:34:46Z</time></trkpt><trkpt lat="43.836324944147314" lon="7.425101919274531"><ele>1049.0</ele><time>2026-05-01T14:34:47Z</time></trkpt><trkpt lat="43.8363579240328" lon="7.425025407589605"><ele>1049.0</ele><time>2026-05-01T14:34:48Z</time></trkpt><trkpt lat="43.83639419174278" lon="7.424954051370268"><ele>1049.0</ele><time>2026-05-01T14:34:49Z</time></trkpt><trkpt lat="43.83648072219832" lon="7.424852137701891"><ele>1049.0</ele><time>2026-05-01T14:34:51Z</time></trkpt><trkpt lat="43.83655916410381" lon="7.424810939615984"><ele>1049.0</ele><time>2026-05-01T14:34:52Z</time></trkpt><trkpt lat="43.83665804272467" lon="7.42477712528311"><ele>1049.0</ele><time>2026-05-01T14:34:53Z</time></trkpt><trkpt lat="43.83678348229691" lon="7.4247361989218215"><ele>1049.0</ele><time>2026-05-01T14:34:54Z</time></trkpt><trkpt lat="43.8368935648811" lon="7.424691949237574"><ele>1049.0</ele><time>2026-05-01T14:34:55Z</time></trkpt><trkpt lat="43.836983143972326" lon="7.424640257548999"><ele>1049.0</ele><time>2026-05-01T14:34:56Z</time></trkpt><trkpt lat="43.8370683872666" lon="7.42460941277698"><ele>1049.0</ele><time>2026-05-01T14:34:57Z</time></trkpt><trkpt lat="43.8371527578834" lon="7.424575123873799"><ele>1049.2</ele><time>2026-05-01T14:34:58Z</time></trkpt><trkpt lat="43.837237685451704" lon="7.42452867510831"><ele>1049.4</ele><time>2026-05-01T14:34:59Z</time></trkpt><trkpt lat="43.837306768550775" lon="7.42447129555009"><ele>1049.6</ele><time>2026-05-01T14:35:00Z</time></trkpt><trkpt lat="43.83736182257247" lon="7.424408020064699"><ele>1049.8</ele><time>2026-05-01T14:35:01Z</time></trkpt><trkpt lat="43.8374085352513" lon="7.424337839762392"><ele>1050.0</ele><time>2026-05-01T14:35:02Z</time></trkpt><trkpt lat="43.837468847105804" lon="7.424160148922245"><ele>1050.0</ele><time>2026-05-01T14:35:04Z</time></trkpt><trkpt lat="43.83747542656975" lon="7.424044381169354"><ele>1050.0</ele><time>2026-05-01T14:35:05Z</time></trkpt><trkpt lat="43.837476695692494" lon="7.423920862377362"><ele>1050.0</ele><time>2026-05-01T14:35:06Z</time></trkpt><trkpt lat="43.83747332492385" lon="7.423782960698568"><ele>1050.0</ele><time>2026-05-01T14:35:07Z</time></trkpt><trkpt lat="43.83747315019793" lon="7.4236419072712305"><ele>1050.0</ele><time>2026-05-01T14:35:08Z</time></trkpt><trkpt lat="43.83746259341331" lon="7.423508682082328"><ele>1050.5</ele><time>2026-05-01T14:35:09Z</time></trkpt><trkpt lat="43.83743930637473" lon="7.423381066577354"><ele>1051.0</ele><time>2026-05-01T14:35:10Z</time></trkpt><trkpt lat="43.83741431471524" lon="7.423247613163021"><ele>1051.5</ele><time>2026-05-01T14:35:11Z</time></trkpt><trkpt lat="43.83740295265755" lon="7.4231304574919665"><ele>1052.0</ele><time>2026-05-01T14:35:12Z</time></trkpt><trkpt lat="43.83738832234553" lon="7.4230204790821865"><ele>1052.5</ele><time>2026-05-01T14:35:13Z</time></trkpt><trkpt lat="43.83736479663632" lon="7.422909104177163"><ele>1053.0</ele><time>2026-05-01T14:35:14Z</time></trkpt><trkpt lat="43.83733872868537" lon="7.422785727705602"><ele>1053.0</ele><time>2026-05-01T14:35:15Z</time></trkpt><trkpt lat="43.83731423508448" lon="7.422671367158934"><ele>1053.0</ele><time>2026-05-01T14:35:16Z</time></trkpt><trkpt lat="43.8372967234382" lon="7.422566093539257"><ele>1053.0</ele><time>2026-05-01T14:35:17Z</time></trkpt><trkpt lat="43.837284366042105" lon="7.422452637318768"><ele>1053.0</ele><time>2026-05-01T14:35:18Z</time></trkpt><trkpt lat="43.83728272352358" lon="7.422348329737068"><ele>1053.0</ele><time>2026-05-01T14:35:19Z</time></trkpt><trkpt lat="43.8372902527387" lon="7.4222513025146615"><ele>1053.0</ele><time>2026-05-01T14:35:20Z</time></trkpt><trkpt lat="43.837300033342004" lon="7.422144373133594"><ele>1052.5</ele><time>2026-05-01T14:35:21Z</time></trkpt><trkpt lat="43.83731336055589" lon="7.422050594629257"><ele>1052.0</ele><time>2026-05-01T14:35:22Z</time></trkpt><trkpt lat="43.837342864182986" lon="7.421954519091027"><ele>1051.5</ele><time>2026-05-01T14:35:23Z</time></trkpt><trkpt lat="43.83738976095074" lon="7.421865466496501"><ele>1051.0</ele><time>2026-05-01T14:35:24Z</time></trkpt><trkpt lat="43.837446922256355" lon="7.421775837979211"><ele>1050.5</ele><time>2026-05-01T14:35:25Z</time></trkpt><trkpt lat="43.83750540208119" lon="7.421686249238347"><ele>1050.0</ele><time>2026-05-01T14:35:26Z</time></trkpt><trkpt lat="43.83755642721871" lon="7.421578408627972"><ele>1050.0</ele><time>2026-05-01T14:35:27Z</time></trkpt><trkpt lat="43.83759968228395" lon="7.421446075037989"><ele>1050.0</ele><time>2026-05-01T14:35:28Z</time></trkpt><trkpt lat="43.837660113984946" lon="7.421295682883018"><ele>1050.0</ele><time>2026-05-01T14:35:29Z</time></trkpt><trkpt lat="43.8377025771617" lon="7.421170910151659"><ele>1050.0</ele><time>2026-05-01T14:35:30Z</time></trkpt><trkpt lat="43.83774290476874" lon="7.4210257347408675"><ele>1050.0</ele><time>2026-05-01T14:35:31Z</time></trkpt><trkpt lat="43.837783807143694" lon="7.420892931201714"><ele>1054.6666666666667</ele><time>2026-05-01T14:35:32Z</time></trkpt><trkpt lat="43.837822078864356" lon="7.420785376799861"><ele>1059.3333333333333</ele><time>2026-05-01T14:35:33Z</time></trkpt><trkpt lat="43.837865276662626" lon="7.420668696751581"><ele>1064.0</ele><time>2026-05-01T14:35:34Z</time></trkpt><trkpt lat="43.83790436223483" lon="7.420548764758409"><ele>1068.6666666666665</ele><time>2026-05-01T14:35:35Z</time></trkpt><trkpt lat="43.837933017350004" lon="7.420433885737115"><ele>1073.3333333333333</ele><time>2026-05-01T14:35:36Z</time></trkpt><trkpt lat="43.83794738581592" lon="7.420319506070767"><ele>1078.0</ele><time>2026-05-01T14:35:37Z</time></trkpt><trkpt lat="43.83794823086786" lon="7.42019759114439"><ele>1078.0</ele><time>2026-05-01T14:35:38Z</time></trkpt><trkpt lat="43.83794373573678" lon="7.420069327733032"><ele>1078.0</ele><time>2026-05-01T14:35:39Z</time></trkpt><trkpt lat="43.83792815316614" lon="7.419934368305107"><ele>1078.0</ele><time>2026-05-01T14:35:40Z</time></trkpt><trkpt lat="43.837906345290776" lon="7.419816253201795"><ele>1078.0</ele><time>2026-05-01T14:35:41Z</time></trkpt><trkpt lat="43.837887239673925" lon="7.419699094686035"><ele>1078.0</ele><time>2026-05-01T14:35:42Z</time></trkpt><trkpt lat="43.83787304434418" lon="7.41957518384534"><ele>1077.6666666666665</ele><time>2026-05-01T14:35:43Z</time></trkpt><trkpt lat="43.8378577505555" lon="7.419458899247283"><ele>1077.3333333333333</ele><time>2026-05-01T14:35:44Z</time></trkpt><trkpt lat="43.83784883811345" lon="7.41935535028396"><ele>1077.0</ele><time>2026-05-01T14:35:45Z</time></trkpt><trkpt lat="43.837847658496905" lon="7.419248745154746"><ele>1076.6666666666667</ele><time>2026-05-01T14:35:46Z</time></trkpt><trkpt lat="43.83785982092001" lon="7.41912947014201"><ele>1076.3333333333335</ele><time>2026-05-01T14:35:47Z</time></trkpt><trkpt lat="43.83788421378446" lon="7.419009867114697"><ele>1076.0</ele><time>2026-05-01T14:35:48Z</time></trkpt><trkpt lat="43.83791274509001" lon="7.418897766832044"><ele>1074.3333333333335</ele><time>2026-05-01T14:35:49Z</time></trkpt><trkpt lat="43.83794463002015" lon="7.418783938779294"><ele>1072.6666666666667</ele><time>2026-05-01T14:35:50Z</time></trkpt><trkpt lat="43.837975003885205" lon="7.418679800821618"><ele>1071.0</ele><time>2026-05-01T14:35:51Z</time></trkpt><trkpt lat="43.83799583636679" lon="7.418586236663001"><ele>1069.3333333333333</ele><time>2026-05-01T14:35:52Z</time></trkpt><trkpt lat="43.838021291569305" lon="7.418484244396676"><ele>1067.6666666666665</ele><time>2026-05-01T14:35:53Z</time></trkpt><trkpt lat="43.838056147150255" lon="7.418386358617484"><ele>1066.0</ele><time>2026-05-01T14:35:54Z</time></trkpt><trkpt lat="43.838104537393335" lon="7.418280761040886"><ele>1066.0</ele><time>2026-05-01T14:35:55Z</time></trkpt><trkpt lat="43.83816303239125" lon="7.418173806107476"><ele>1066.0</ele><time>2026-05-01T14:35:56Z</time></trkpt><trkpt lat="43.838221913587084" lon="7.418060934026976"><ele>1066.0</ele><time>2026-05-01T14:35:57Z</time></trkpt><trkpt lat="43.83828165278005" lon="7.417944475716823"><ele>1066.0</ele><time>2026-05-01T14:35:58Z</time></trkpt><trkpt lat="43.83833690921467" lon="7.417832418956609"><ele>1066.0</ele><time>2026-05-01T14:35:59Z</time></trkpt><trkpt lat="43.83838647086543" lon="7.417724631739545"><ele>1062.3999999999999</ele><time>2026-05-01T14:36:00Z</time></trkpt><trkpt lat="43.83841490194242" lon="7.417602793487666"><ele>1058.8</ele><time>2026-05-01T14:36:01Z</time></trkpt><trkpt lat="43.83846909219415" lon="7.417490729631892"><ele>1055.1999999999998</ele><time>2026-05-01T14:36:02Z</time></trkpt><trkpt lat="43.8385138380993" lon="7.417363376292748"><ele>1051.6</ele><time>2026-05-01T14:36:03Z</time></trkpt><trkpt lat="43.83854210407109" lon="7.417219593653876"><ele>1048.0</ele><time>2026-05-01T14:36:04Z</time></trkpt><trkpt lat="43.838561272595584" lon="7.417070173998667"><ele>1057.6</ele><time>2026-05-01T14:36:05Z</time></trkpt><trkpt lat="43.838576863705335" lon="7.416932744451043"><ele>1067.1999999999998</ele><time>2026-05-01T14:36:06Z</time></trkpt><trkpt lat="43.83860206687741" lon="7.416802090545528"><ele>1076.8</ele><time>2026-05-01T14:36:07Z</time></trkpt><trkpt lat="43.83862452359079" lon="7.416668800904592"><ele>1086.3999999999999</ele><time>2026-05-01T14:36:08Z</time></trkpt><trkpt lat="43.83865480201857" lon="7.416557640830656"><ele>1096.0</ele><time>2026-05-01T14:36:09Z</time></trkpt><trkpt lat="43.838664057931965" lon="7.4164357284013604"><ele>1096.0</ele><time>2026-05-01T14:36:10Z</time></trkpt><trkpt lat="43.8386794371639" lon="7.416329951251349"><ele>1096.0</ele><time>2026-05-01T14:36:11Z</time></trkpt><trkpt lat="43.838708117655095" lon="7.416206375145479"><ele>1096.0</ele><time>2026-05-01T14:36:12Z</time></trkpt><trkpt lat="43.83873741585545" lon="7.416089805039952"><ele>1096.0</ele><time>2026-05-01T14:36:13Z</time></trkpt><trkpt lat="43.8387712958743" lon="7.415965638011248"><ele>1096.0</ele><time>2026-05-01T14:36:14Z</time></trkpt><trkpt lat="43.83880109665172" lon="7.415859929799335"><ele>1096.0</ele><time>2026-05-01T14:36:15Z</time></trkpt><trkpt lat="43.83883233045798" lon="7.41575873454224"><ele>1093.8333333333333</ele><time>2026-05-01T14:36:16Z</time></trkpt><trkpt lat="43.83886769808163" lon="7.415655319640756"><ele>1091.6666666666665</ele><time>2026-05-01T14:36:17Z</time></trkpt><trkpt lat="43.83889240683481" lon="7.4155488671149845"><ele>1089.5</ele><time>2026-05-01T14:36:18Z</time></trkpt><trkpt lat="43.8389025692723" lon="7.415444812751652"><ele>1087.3333333333333</ele><time>2026-05-01T14:36:19Z</time></trkpt><trkpt lat="43.838918264286264" lon="7.415352907184267"><ele>1085.1666666666667</ele><time>2026-05-01T14:36:20Z</time></trkpt><trkpt lat="43.838968628176154" lon="7.415271962738661"><ele>1083.0</ele><time>2026-05-01T14:36:21Z</time></trkpt><trkpt lat="43.839026303842026" lon="7.415159974415816"><ele>1079.4</ele><time>2026-05-01T14:36:22Z</time></trkpt><trkpt lat="43.839085786294504" lon="7.41502934498541"><ele>1075.8</ele><time>2026-05-01T14:36:23Z</time></trkpt><trkpt lat="43.839132087267515" lon="7.414925626326341"><ele>1072.2</ele><time>2026-05-01T14:36:24Z</time></trkpt><trkpt lat="43.839177709981115" lon="7.41481746352943"><ele>1068.6</ele><time>2026-05-01T14:36:24.999Z</time></trkpt><trkpt lat="43.839215784939206" lon="7.414705158273011"><ele>1065.0</ele><time>2026-05-01T14:36:25.999Z</time></trkpt><trkpt lat="43.839259706903654" lon="7.414579755347184"><ele>1062.3333333333333</ele><time>2026-05-01T14:36:26.999Z</time></trkpt><trkpt lat="43.83929361483512" lon="7.414463543285659"><ele>1059.6666666666667</ele><time>2026-05-01T14:36:27.999Z</time></trkpt><trkpt lat="43.83932843288795" lon="7.4143335990708525"><ele>1057.0</ele><time>2026-05-01T14:36:28.999Z</time></trkpt><trkpt lat="43.83935314449449" lon="7.414215251215232"><ele>1054.3333333333335</ele><time>2026-05-01T14:36:29.999Z</time></trkpt><trkpt lat="43.8393742003902" lon="7.414105262170199"><ele>1051.6666666666667</ele><time>2026-05-01T14:36:30.999Z</time></trkpt><trkpt lat="43.83939003194948" lon="7.414006557815606"><ele>1049.0</ele><time>2026-05-01T14:36:31.999Z</time></trkpt><trkpt lat="43.83940660539044" lon="7.413908416702873"><ele>1053.2</ele><time>2026-05-01T14:36:33Z</time></trkpt><trkpt lat="43.83943734970935" lon="7.413827148586823"><ele>1057.4</ele><time>2026-05-01T14:36:34Z</time></trkpt><trkpt lat="43.83948041485156" lon="7.413696392113011"><ele>1061.6</ele><time>2026-05-01T14:36:36Z</time></trkpt><trkpt lat="43.839569434778284" lon="7.413539054425479"><ele>1065.8</ele><time>2026-05-01T14:36:38Z</time></trkpt><trkpt lat="43.83963302880814" lon="7.413488125683465"><ele>1070.0</ele><time>2026-05-01T14:36:39Z</time></trkpt><trkpt lat="43.83970823935314" lon="7.413422300658356"><ele>1070.0</ele><time>2026-05-01T14:36:40Z</time></trkpt><trkpt lat="43.839773409076706" lon="7.413371503035918"><ele>1070.0</ele><time>2026-05-01T14:36:41Z</time></trkpt><trkpt lat="43.839822134375595" lon="7.413314902638157"><ele>1070.0</ele><time>2026-05-01T14:36:42Z</time></trkpt><trkpt lat="43.84001462766956" lon="7.4132851774412964"><ele>1070.0</ele><time>2026-05-01T14:36:44Z</time></trkpt><trkpt lat="43.84010491380539" lon="7.413234965541324"><ele>1070.0</ele><time>2026-05-01T14:36:45Z</time></trkpt><trkpt lat="43.840202004456884" lon="7.413182176374361"><ele>1070.4</ele><time>2026-05-01T14:36:46Z</time></trkpt><trkpt lat="43.840291885095944" lon="7.413108268546992"><ele>1070.8</ele><time>2026-05-01T14:36:47Z</time></trkpt><trkpt lat="43.840384340871026" lon="7.413056395634892"><ele>1071.2</ele><time>2026-05-01T14:36:48Z</time></trkpt><trkpt lat="43.84046916245088" lon="7.413000695169473"><ele>1071.6</ele><time>2026-05-01T14:36:49Z</time></trkpt><trkpt lat="43.840545065225186" lon="7.412926934132609"><ele>1072.0</ele><time>2026-05-01T14:36:50Z</time></trkpt><trkpt lat="43.84061513108295" lon="7.412840951899337"><ele>1072.0</ele><time>2026-05-01T14:36:51Z</time></trkpt><trkpt lat="43.84068194746094" lon="7.412751156049355"><ele>1072.0</ele><time>2026-05-01T14:36:52Z</time></trkpt><trkpt lat="43.84073742179421" lon="7.412646170183851"><ele>1072.0</ele><time>2026-05-01T14:36:53Z</time></trkpt><trkpt lat="43.840814271571425" lon="7.4125438918189275"><ele>1072.0</ele><time>2026-05-01T14:36:54Z</time></trkpt><trkpt lat="43.840897232762075" lon="7.412435969514433"><ele>1072.0</ele><time>2026-05-01T14:36:55Z</time></trkpt><trkpt lat="43.84097990984421" lon="7.412376443995702"><ele>1072.1666666666665</ele><time>2026-05-01T14:36:56Z</time></trkpt><trkpt lat="43.841051305606946" lon="7.412309507019683"><ele>1072.3333333333333</ele><time>2026-05-01T14:36:57Z</time></trkpt><trkpt lat="43.84111650310181" lon="7.412232423184851"><ele>1072.5</ele><time>2026-05-01T14:36:58Z</time></trkpt><trkpt lat="43.84120398372634" lon="7.4121871745196"><ele>1072.6666666666667</ele><time>2026-05-01T14:36:59Z</time></trkpt><trkpt lat="43.84127335087611" lon="7.412103212031842"><ele>1072.8333333333335</ele><time>2026-05-01T14:37:00Z</time></trkpt><trkpt lat="43.841341163804856" lon="7.412027169069497"><ele>1073.0</ele><time>2026-05-01T14:37:01Z</time></trkpt><trkpt lat="43.84140084623329" lon="7.411934288947138"><ele>1073.0</ele><time>2026-05-01T14:37:02Z</time></trkpt><trkpt lat="43.841474047757764" lon="7.411878391920986"><ele>1073.0</ele><time>2026-05-01T14:37:03Z</time></trkpt><trkpt lat="43.84154378986816" lon="7.411838485069997"><ele>1073.0</ele><time>2026-05-01T14:37:04Z</time></trkpt><trkpt lat="43.84162847350999" lon="7.411797184738007"><ele>1073.0</ele><time>2026-05-01T14:37:05Z</time></trkpt><trkpt lat="43.84171045347026" lon="7.411763187980666"><ele>1073.0</ele><time>2026-05-01T14:37:06Z</time></trkpt><trkpt lat="43.84180896395576" lon="7.411730708849884"><ele>1073.0</ele><time>2026-05-01T14:37:07Z</time></trkpt><trkpt lat="43.841909916181514" lon="7.411700984949246"><ele>1074.5</ele><time>2026-05-01T14:37:08Z</time></trkpt><trkpt lat="43.841993463799014" lon="7.411665299795969"><ele>1076.0</ele><time>2026-05-01T14:37:09Z</time></trkpt><trkpt lat="43.842078038357876" lon="7.411637476285203"><ele>1077.5</ele><time>2026-05-01T14:37:10Z</time></trkpt><trkpt lat="43.84216659500964" lon="7.411629429369089"><ele>1079.0</ele><time>2026-05-01T14:37:11Z</time></trkpt><trkpt lat="43.84225676012713" lon="7.411596887968599"><ele>1080.5</ele><time>2026-05-01T14:37:12Z</time></trkpt><trkpt lat="43.842345968581355" lon="7.411584269413433"><ele>1082.0</ele><time>2026-05-01T14:37:13Z</time></trkpt><trkpt lat="43.842436223991555" lon="7.4115790307605485"><ele>1082.0</ele><time>2026-05-01T14:37:14Z</time></trkpt><trkpt lat="43.84253491902842" lon="7.411570597494084"><ele>1082.0</ele><time>2026-05-01T14:37:15Z</time></trkpt><trkpt lat="43.84262726175227" lon="7.4115638383745"><ele>1082.0</ele><time>2026-05-01T14:37:16Z</time></trkpt><trkpt lat="43.84271714565073" lon="7.411556840400527"><ele>1082.0</ele><time>2026-05-01T14:37:17Z</time></trkpt><trkpt lat="43.8428179904879" lon="7.411558970500663"><ele>1082.0</ele><time>2026-05-01T14:37:18Z</time></trkpt><trkpt lat="43.842929155334346" lon="7.41159253702849"><ele>1082.4</ele><time>2026-05-01T14:37:19Z</time></trkpt><trkpt lat="43.84303818189482" lon="7.411596299987002"><ele>1082.8000000000002</ele><time>2026-05-01T14:37:20Z</time></trkpt><trkpt lat="43.843137428106054" lon="7.411576603827932"><ele>1083.2</ele><time>2026-05-01T14:37:21Z</time></trkpt><trkpt lat="43.843228503818594" lon="7.411583196393492"><ele>1083.6000000000001</ele><time>2026-05-01T14:37:22Z</time></trkpt><trkpt lat="43.84332746830426" lon="7.411557612819835"><ele>1084.0</ele><time>2026-05-01T14:37:23Z</time></trkpt><trkpt lat="43.84343261251753" lon="7.411538214439519"><ele>1084.2</ele><time>2026-05-01T14:37:24Z</time></trkpt><trkpt lat="43.843536846885236" lon="7.4114980227917275"><ele>1084.4</ele><time>2026-05-01T14:37:25Z</time></trkpt><trkpt lat="43.8436273414296" lon="7.411494065985856"><ele>1084.6</ele><time>2026-05-01T14:37:26Z</time></trkpt><trkpt lat="43.84370763837155" lon="7.411491700186951"><ele>1084.8</ele><time>2026-05-01T14:37:27Z</time></trkpt><trkpt lat="43.84379411033254" lon="7.411502903522812"><ele>1085.0</ele><time>2026-05-01T14:37:28Z</time></trkpt><trkpt lat="43.84388520350685" lon="7.411514622881197"><ele>1085.0</ele><time>2026-05-01T14:37:29Z</time></trkpt><trkpt lat="43.843983139700825" lon="7.411525394114196"><ele>1085.0</ele><time>2026-05-01T14:37:30Z</time></trkpt><trkpt lat="43.8440931638756" lon="7.411532090510649"><ele>1085.0</ele><time>2026-05-01T14:37:31Z</time></trkpt><trkpt lat="43.84419883327003" lon="7.411533299986962"><ele>1085.0</ele><time>2026-05-01T14:37:32Z</time></trkpt><trkpt lat="43.844298170828736" lon="7.411506785190763"><ele>1085.0</ele><time>2026-05-01T14:37:33Z</time></trkpt><trkpt lat="43.844401251436075" lon="7.4115004019066655"><ele>1085.3333333333335</ele><time>2026-05-01T14:37:34Z</time></trkpt><trkpt lat="43.844502825976164" lon="7.411491830967552"><ele>1085.6666666666667</ele><time>2026-05-01T14:37:35Z</time></trkpt><trkpt lat="43.844584588176595" lon="7.411467613681181"><ele>1086.0</ele><time>2026-05-01T14:37:36Z</time></trkpt><trkpt lat="43.84466613752379" lon="7.411465636468068"><ele>1086.3333333333333</ele><time>2026-05-01T14:37:37Z</time></trkpt><trkpt lat="43.84474373321128" lon="7.411436257056048"><ele>1086.6666666666665</ele><time>2026-05-01T14:37:38Z</time></trkpt><trkpt lat="43.844805683691916" lon="7.411387664263494"><ele>1087.0</ele><time>2026-05-01T14:37:39Z</time></trkpt><trkpt lat="43.84487062004523" lon="7.411351897106705"><ele>1086.6</ele><time>2026-05-01T14:37:40Z</time></trkpt><trkpt lat="43.844975204670845" lon="7.41128066742068"><ele>1086.2</ele><time>2026-05-01T14:37:42Z</time></trkpt><trkpt lat="43.84503843221057" lon="7.411164302852325"><ele>1085.8</ele><time>2026-05-01T14:37:44Z</time></trkpt><trkpt lat="43.845114441317804" lon="7.411105260063448"><ele>1085.4</ele><time>2026-05-01T14:37:46Z</time></trkpt><trkpt lat="43.8451663768525" lon="7.411054448267871"><ele>1085.0</ele><time>2026-05-01T14:37:48Z</time></trkpt><trkpt lat="43.84525207220654" lon="7.41100790790401"><ele>1083.6</ele><time>2026-05-01T14:37:50Z</time></trkpt><trkpt lat="43.845344541321865" lon="7.410969439530794"><ele>1082.2</ele><time>2026-05-01T14:37:52Z</time></trkpt><trkpt lat="43.8454461200582" lon="7.410919455839531"><ele>1080.8</ele><time>2026-05-01T14:37:54Z</time></trkpt><trkpt lat="43.84556346287095" lon="7.410852147854473"><ele>1079.4</ele><time>2026-05-01T14:37:56Z</time></trkpt><trkpt lat="43.84563353381844" lon="7.410805173110396"><ele>1078.0</ele><time>2026-05-01T14:37:57Z</time></trkpt><trkpt lat="43.84570635355208" lon="7.41075401871564"><ele>1078.0</ele><time>2026-05-01T14:37:58Z</time></trkpt><trkpt lat="43.84577227808385" lon="7.410707588116386"><ele>1078.0</ele><time>2026-05-01T14:37:59Z</time></trkpt><trkpt lat="43.8458375176329" lon="7.410661639951936"><ele>1078.0</ele><time>2026-05-01T14:38:00Z</time></trkpt><trkpt lat="43.8459137369773" lon="7.410607958709317"><ele>1078.0</ele><time>2026-05-01T14:38:01Z</time></trkpt><trkpt lat="43.8459849586375" lon="7.410557797356489"><ele>1078.0</ele><time>2026-05-01T14:38:02Z</time></trkpt><trkpt lat="43.84604429696554" lon="7.410517944489881"><ele>1078.0</ele><time>2026-05-01T14:38:03Z</time></trkpt><trkpt lat="43.846106448982795" lon="7.410480080713367"><ele>1078.0</ele><time>2026-05-01T14:38:04Z</time></trkpt><trkpt lat="43.846174654314396" lon="7.410444018164023"><ele>1080.857142857143</ele><time>2026-05-01T14:38:05Z</time></trkpt><trkpt lat="43.84624144909525" lon="7.410413112755732"><ele>1083.7142857142858</ele><time>2026-05-01T14:38:06Z</time></trkpt><trkpt lat="43.84630762994265" lon="7.410383946511853"><ele>1086.5714285714284</ele><time>2026-05-01T14:38:07Z</time></trkpt><trkpt lat="43.846379947204" lon="7.410352832716006"><ele>1089.4285714285716</ele><time>2026-05-01T14:38:08Z</time></trkpt><trkpt lat="43.84644576484022" lon="7.410327111268611"><ele>1092.2857142857142</ele><time>2026-05-01T14:38:09Z</time></trkpt><trkpt lat="43.84651373355422" lon="7.410304198731097"><ele>1095.142857142857</ele><time>2026-05-01T14:38:10Z</time></trkpt><trkpt lat="43.846590973442055" lon="7.410289088898247"><ele>1098.0</ele><time>2026-05-01T14:38:11Z</time></trkpt><trkpt lat="43.846672029176496" lon="7.410281309549165"><ele>1098.0</ele><time>2026-05-01T14:38:12Z</time></trkpt><trkpt lat="43.846752681855286" lon="7.410283196855966"><ele>1098.0</ele><time>2026-05-01T14:38:13Z</time></trkpt><trkpt lat="43.84683353814499" lon="7.410286610451696"><ele>1098.0</ele><time>2026-05-01T14:38:14Z</time></trkpt><trkpt lat="43.846921628678" lon="7.410289188429169"><ele>1098.0</ele><time>2026-05-01T14:38:15Z</time></trkpt><trkpt lat="43.846999720974594" lon="7.410291285165063"><ele>1098.0</ele><time>2026-05-01T14:38:16Z</time></trkpt><trkpt lat="43.847081980033934" lon="7.410293493779109"><ele>1098.0</ele><time>2026-05-01T14:38:17Z</time></trkpt><trkpt lat="43.84716832196498" lon="7.410295812017121"><ele>1096.5</ele><time>2026-05-01T14:38:18Z</time></trkpt><trkpt lat="43.84724343580036" lon="7.410295908439356"><ele>1095.0</ele><time>2026-05-01T14:38:19Z</time></trkpt><trkpt lat="43.84732402110914" lon="7.410293011979865"><ele>1093.5</ele><time>2026-05-01T14:38:19.999Z</time></trkpt><trkpt lat="43.84741703728855" lon="7.410286135208354"><ele>1092.0</ele><time>2026-05-01T14:38:20.999Z</time></trkpt><trkpt lat="43.847499586258884" lon="7.410259002152272"><ele>1090.5</ele><time>2026-05-01T14:38:21.999Z</time></trkpt><trkpt lat="43.847596971311916" lon="7.41024691982992"><ele>1089.0</ele><time>2026-05-01T14:38:22.999Z</time></trkpt><trkpt lat="43.84768570540097" lon="7.41022874312557"><ele>1087.0</ele><time>2026-05-01T14:38:23.999Z</time></trkpt><trkpt lat="43.84777149103734" lon="7.410234228581468"><ele>1085.0</ele><time>2026-05-01T14:38:24.999Z</time></trkpt><trkpt lat="43.84784224738189" lon="7.410218368621182"><ele>1083.0</ele><time>2026-05-01T14:38:25.999Z</time></trkpt><trkpt lat="43.84792446180458" lon="7.410200111025758"><ele>1081.0</ele><time>2026-05-01T14:38:26.999Z</time></trkpt><trkpt lat="43.84801645288378" lon="7.410182409573584"><ele>1079.0</ele><time>2026-05-01T14:38:27.999Z</time></trkpt><trkpt lat="43.84811287381224" lon="7.410166797279441"><ele>1077.0</ele><time>2026-05-01T14:38:28.999Z</time></trkpt><trkpt lat="43.84819998705582" lon="7.410154573786676"><ele>1077.0</ele><time>2026-05-01T14:38:29.999Z</time></trkpt><trkpt lat="43.84828533891994" lon="7.410144124612233"><ele>1077.0</ele><time>2026-05-01T14:38:30.999Z</time></trkpt><trkpt lat="43.848375406629756" lon="7.410135001270182"><ele>1077.0</ele><time>2026-05-01T14:38:31.999Z</time></trkpt><trkpt lat="43.848454793986214" lon="7.4101073040476155"><ele>1077.0</ele><time>2026-05-01T14:38:32.999Z</time></trkpt><trkpt lat="43.84854203030835" lon="7.410106463607688"><ele>1077.0</ele><time>2026-05-01T14:38:33.999Z</time></trkpt><trkpt lat="43.84862451809212" lon="7.410099687389371"><ele>1077.0</ele><time>2026-05-01T14:38:34.999Z</time></trkpt><trkpt lat="43.84871129203026" lon="7.410103364795245"><ele>1076.1666666666667</ele><time>2026-05-01T14:38:35.999Z</time></trkpt><trkpt lat="43.84879614133836" lon="7.410101805793271"><ele>1075.3333333333333</ele><time>2026-05-01T14:38:36.999Z</time></trkpt><trkpt lat="43.848878612629925" lon="7.410108595211704"><ele>1074.5</ele><time>2026-05-01T14:38:37.999Z</time></trkpt><trkpt lat="43.848964750820834" lon="7.410109751165176"><ele>1073.6666666666665</ele><time>2026-05-01T14:38:39Z</time></trkpt><trkpt lat="43.84905273197465" lon="7.410119001176103"><ele>1072.8333333333333</ele><time>2026-05-01T14:38:40Z</time></trkpt><trkpt lat="43.84914206188813" lon="7.410132073181006"><ele>1072.0</ele><time>2026-05-01T14:38:41Z</time></trkpt><trkpt lat="43.8492256870693" lon="7.410140283201149"><ele>1071.5</ele><time>2026-05-01T14:38:42Z</time></trkpt><trkpt lat="43.84930911137178" lon="7.410146051646782"><ele>1071.0</ele><time>2026-05-01T14:38:43Z</time></trkpt><trkpt lat="43.849392289949165" lon="7.410180184905109"><ele>1070.5</ele><time>2026-05-01T14:38:44Z</time></trkpt><trkpt lat="43.84946683032026" lon="7.4101992987720005"><ele>1070.0</ele><time>2026-05-01T14:38:45Z</time></trkpt><trkpt lat="43.849544237578726" lon="7.410203968543841"><ele>1069.5</ele><time>2026-05-01T14:38:46Z</time></trkpt><trkpt lat="43.84961321602577" lon="7.4102398594310905"><ele>1069.0</ele><time>2026-05-01T14:38:47Z</time></trkpt><trkpt lat="43.84967902787186" lon="7.410274441520726"><ele>1069.0</ele><time>2026-05-01T14:38:48Z</time></trkpt><trkpt lat="43.84973737707812" lon="7.410313733851289"><ele>1069.0</ele><time>2026-05-01T14:38:49Z</time></trkpt><trkpt lat="43.849841258126816" lon="7.410397207673663"><ele>1069.0</ele><time>2026-05-01T14:38:51Z</time></trkpt><trkpt lat="43.84994713441883" lon="7.410385692063501"><ele>1069.0</ele><time>2026-05-01T14:38:53Z</time></trkpt><trkpt lat="43.85005126960333" lon="7.410275320830826"><ele>1069.0</ele><time>2026-05-01T14:38:55Z</time></trkpt><trkpt lat="43.85012128047001" lon="7.41021356973902"><ele>1065.5</ele><time>2026-05-01T14:38:56Z</time></trkpt><trkpt lat="43.850199958695974" lon="7.410121704075422"><ele>1062.0</ele><time>2026-05-01T14:38:57Z</time></trkpt><trkpt lat="43.85026297410659" lon="7.410045386504418"><ele>1058.5</ele><time>2026-05-01T14:38:58Z</time></trkpt><trkpt lat="43.850320638426496" lon="7.4099706516205055"><ele>1055.0</ele><time>2026-05-01T14:38:59Z</time></trkpt><trkpt lat="43.850375401985254" lon="7.409895652439381"><ele>1051.5</ele><time>2026-05-01T14:39:00Z</time></trkpt><trkpt lat="43.85042440937174" lon="7.409839686970655"><ele>1048.0</ele><time>2026-05-01T14:39:01Z</time></trkpt><trkpt lat="43.850477530897294" lon="7.409787842110725"><ele>1048.0</ele><time>2026-05-01T14:39:02Z</time></trkpt><trkpt lat="43.850606834674814" lon="7.409748189967687"><ele>1048.0</ele><time>2026-05-01T14:39:04Z</time></trkpt><trkpt lat="43.85068738563889" lon="7.409761940834689"><ele>1048.0</ele><time>2026-05-01T14:39:05Z</time></trkpt><trkpt lat="43.85078659873061" lon="7.409782071974533"><ele>1048.0</ele><time>2026-05-01T14:39:06Z</time></trkpt><trkpt lat="43.8508757450842" lon="7.409825207095682"><ele>1048.0</ele><time>2026-05-01T14:39:07Z</time></trkpt><trkpt lat="43.85095894928942" lon="7.409859988194075"><ele>1047.3333333333333</ele><time>2026-05-01T14:39:08Z</time></trkpt><trkpt lat="43.85103496835627" lon="7.409899351228094"><ele>1046.6666666666665</ele><time>2026-05-01T14:39:09Z</time></trkpt><trkpt lat="43.851122390617924" lon="7.409941524854378"><ele>1046.0</ele><time>2026-05-01T14:39:10Z</time></trkpt><trkpt lat="43.85120924008135" lon="7.409983421604427"><ele>1045.3333333333333</ele><time>2026-05-01T14:39:11Z</time></trkpt><trkpt lat="43.851286567016245" lon="7.410027219354818"><ele>1044.6666666666667</ele><time>2026-05-01T14:39:12Z</time></trkpt><trkpt lat="43.85136451989182" lon="7.410070554187122"><ele>1044.0</ele><time>2026-05-01T14:39:13Z</time></trkpt><trkpt lat="43.85142651938283" lon="7.410109340233465"><ele>1044.0</ele><time>2026-05-01T14:39:14Z</time></trkpt><trkpt lat="43.851534054058114" lon="7.410177856047079"><ele>1044.0</ele><time>2026-05-01T14:39:16Z</time></trkpt><trkpt lat="43.85159944359422" lon="7.410176773408272"><ele>1044.0</ele><time>2026-05-01T14:39:17Z</time></trkpt><trkpt lat="43.85166327389726" lon="7.410146659083279"><ele>1044.0</ele><time>2026-05-01T14:39:18Z</time></trkpt><trkpt lat="43.85172371248748" lon="7.41008342521875"><ele>1044.0</ele><time>2026-05-01T14:39:19Z</time></trkpt><trkpt lat="43.85177400242341" lon="7.409994601795589"><ele>1044.0</ele><time>2026-05-01T14:39:20Z</time></trkpt><trkpt lat="43.85180889439422" lon="7.4099052117710915"><ele>1043.3333333333333</ele><time>2026-05-01T14:39:21Z</time></trkpt><trkpt lat="43.85183591839746" lon="7.409807511858872"><ele>1042.6666666666667</ele><time>2026-05-01T14:39:22Z</time></trkpt><trkpt lat="43.85187668503225" lon="7.4097291353187"><ele>1042.0</ele><time>2026-05-01T14:39:23Z</time></trkpt><trkpt lat="43.851935122681176" lon="7.4095674635753435"><ele>1041.3333333333335</ele><time>2026-05-01T14:39:25Z</time></trkpt><trkpt lat="43.85198462523341" lon="7.409499633383872"><ele>1040.6666666666667</ele><time>2026-05-01T14:39:26Z</time></trkpt><trkpt lat="43.85204978336801" lon="7.409467057863457"><ele>1040.0</ele><time>2026-05-01T14:39:27Z</time></trkpt><trkpt lat="43.85212794012531" lon="7.409443196048314"><ele>1040.0</ele><time>2026-05-01T14:39:28Z</time></trkpt><trkpt lat="43.85223162246812" lon="7.409411941494021"><ele>1040.0</ele><time>2026-05-01T14:39:29Z</time></trkpt><trkpt lat="43.85233007400162" lon="7.409379455468856"><ele>1040.0</ele><time>2026-05-01T14:39:30Z</time></trkpt><trkpt lat="43.85241437376703" lon="7.409351034316739"><ele>1040.0</ele><time>2026-05-01T14:39:31Z</time></trkpt><trkpt lat="43.85250009105152" lon="7.409324829540341"><ele>1040.0</ele><time>2026-05-01T14:39:32Z</time></trkpt><trkpt lat="43.85258524003239" lon="7.40928979471376"><ele>1038.0</ele><time>2026-05-01T14:39:33Z</time></trkpt><trkpt lat="43.85267602703441" lon="7.409264567650585"><ele>1036.0</ele><time>2026-05-01T14:39:34Z</time></trkpt><trkpt lat="43.85274969415831" lon="7.409240645922086"><ele>1034.0</ele><time>2026-05-01T14:39:35Z</time></trkpt><trkpt lat="43.85282143570658" lon="7.409210506551276"><ele>1032.0</ele><time>2026-05-01T14:39:36Z</time></trkpt><trkpt lat="43.85289454292138" lon="7.409166032640122"><ele>1030.0</ele><time>2026-05-01T14:39:37Z</time></trkpt><trkpt lat="43.852982635674636" lon="7.409110625709012"><ele>1028.0</ele><time>2026-05-01T14:39:38Z</time></trkpt><trkpt lat="43.85306040175865" lon="7.409046998578506"><ele>1028.0</ele><time>2026-05-01T14:39:39Z</time></trkpt><trkpt lat="43.85313834704347" lon="7.408982365164523"><ele>1028.0</ele><time>2026-05-01T14:39:40Z</time></trkpt><trkpt lat="43.85322167964175" lon="7.408914387473302"><ele>1028.0</ele><time>2026-05-01T14:39:41Z</time></trkpt><trkpt lat="43.85330736870906" lon="7.4088305901655245"><ele>1028.0</ele><time>2026-05-01T14:39:42Z</time></trkpt><trkpt lat="43.85338294453286" lon="7.408756149980277"><ele>1028.0</ele><time>2026-05-01T14:39:43Z</time></trkpt><trkpt lat="43.85344956049296" lon="7.408684822654299"><ele>1027.1666666666667</ele><time>2026-05-01T14:39:44Z</time></trkpt><trkpt lat="43.85350695850764" lon="7.408614071894122"><ele>1026.3333333333335</ele><time>2026-05-01T14:39:45Z</time></trkpt><trkpt lat="43.85355397144478" lon="7.408542951670857"><ele>1025.5</ele><time>2026-05-01T14:39:46Z</time></trkpt><trkpt lat="43.853593661527775" lon="7.4084625389113725"><ele>1024.6666666666667</ele><time>2026-05-01T14:39:47Z</time></trkpt><trkpt lat="43.85363970783586" lon="7.408399487574086"><ele>1023.8333333333334</ele><time>2026-05-01T14:39:48Z</time></trkpt><trkpt lat="43.8537297650656" lon="7.408322521765382"><ele>1023.0</ele><time>2026-05-01T14:39:50Z</time></trkpt><trkpt lat="43.853820211524216" lon="7.4082950006582955"><ele>1023.0</ele><time>2026-05-01T14:39:52Z</time></trkpt><trkpt lat="43.85393029087929" lon="7.408267244294222"><ele>1023.0</ele><time>2026-05-01T14:39:54Z</time></trkpt><trkpt lat="43.854023568410526" lon="7.4082317131379085"><ele>1023.0</ele><time>2026-05-01T14:39:56Z</time></trkpt><trkpt lat="43.85411081365651" lon="7.408165277800165"><ele>1023.0</ele><time>2026-05-01T14:39:58Z</time></trkpt><trkpt lat="43.85417868590507" lon="7.408101574648434"><ele>1023.0</ele><time>2026-05-01T14:40:00Z</time></trkpt><trkpt lat="43.85423861234415" lon="7.408023191824138"><ele>1021.8333333333334</ele><time>2026-05-01T14:40:02Z</time></trkpt><trkpt lat="43.85430268966047" lon="7.4079701909323665"><ele>1020.6666666666667</ele><time>2026-05-01T14:40:04Z</time></trkpt><trkpt lat="43.85437281148783" lon="7.4078944849131"><ele>1019.5</ele><time>2026-05-01T14:40:08Z</time></trkpt><trkpt lat="43.85443075403761" lon="7.407843250815926"><ele>1018.3333333333334</ele><time>2026-05-01T14:40:10Z</time></trkpt><trkpt lat="43.85450601887642" lon="7.407807851484505"><ele>1017.1666666666667</ele><time>2026-05-01T14:40:12Z</time></trkpt><trkpt lat="43.8546108928045" lon="7.407788044620715"><ele>1016.0</ele><time>2026-05-01T14:40:14Z</time></trkpt><trkpt lat="43.854687219283285" lon="7.40777622096103"><ele>1016.0</ele><time>2026-05-01T14:40:15Z</time></trkpt><trkpt lat="43.854778071165484" lon="7.407763288054483"><ele>1015.9999999999999</ele><time>2026-05-01T14:40:16Z</time></trkpt><trkpt lat="43.85486870399471" lon="7.407751358725051"><ele>1015.9999999999999</ele><time>2026-05-01T14:40:17Z</time></trkpt><trkpt lat="43.85496746446568" lon="7.4077211668070095"><ele>1016.0</ele><time>2026-05-01T14:40:18Z</time></trkpt><trkpt lat="43.85507532448752" lon="7.4077132960810825"><ele>1016.0</ele><time>2026-05-01T14:40:19Z</time></trkpt><trkpt lat="43.85519257087919" lon="7.407693520713152"><ele>1017.5999999999999</ele><time>2026-05-01T14:40:20Z</time></trkpt><trkpt lat="43.85528911591114" lon="7.407675848853572"><ele>1019.1999999999999</ele><time>2026-05-01T14:40:21Z</time></trkpt><trkpt lat="43.855390480536336" lon="7.407681505670696"><ele>1020.8000000000001</ele><time>2026-05-01T14:40:22Z</time></trkpt><trkpt lat="43.855499300781304" lon="7.407644148324524"><ele>1022.4000000000001</ele><time>2026-05-01T14:40:23Z</time></trkpt><trkpt lat="43.8556134243189" lon="7.407628204021665"><ele>1024.0</ele><time>2026-05-01T14:40:24Z</time></trkpt><trkpt lat="43.855708200537826" lon="7.407614396964036"><ele>1023.9999999999999</ele><time>2026-05-01T14:40:25Z</time></trkpt><trkpt lat="43.8557934174685" lon="7.4076247802010755"><ele>1024.0</ele><time>2026-05-01T14:40:26Z</time></trkpt><trkpt lat="43.85587065185029" lon="7.4075991213860215"><ele>1024.0</ele><time>2026-05-01T14:40:27Z</time></trkpt><trkpt lat="43.85596117688686" lon="7.407605610559336"><ele>1024.0</ele><time>2026-05-01T14:40:28Z</time></trkpt><trkpt lat="43.85603432059142" lon="7.407661535187677"><ele>1023.9999999999999</ele><time>2026-05-01T14:40:29Z</time></trkpt><trkpt lat="43.856098242005935" lon="7.407699088783745"><ele>1024.0</ele><time>2026-05-01T14:40:30Z</time></trkpt><trkpt lat="43.856163253870264" lon="7.4077459122933575"><ele>1022.4999999999999</ele><time>2026-05-01T14:40:31Z</time></trkpt><trkpt lat="43.856237260012385" lon="7.407814455944477"><ele>1021.0</ele><time>2026-05-01T14:40:32Z</time></trkpt><trkpt lat="43.85630343061641" lon="7.407886555476414"><ele>1019.5</ele><time>2026-05-01T14:40:33Z</time></trkpt><trkpt lat="43.85636365393383" lon="7.407956592407622"><ele>1018.0</ele><time>2026-05-01T14:40:34Z</time></trkpt><trkpt lat="43.85641244547042" lon="7.408024594499193"><ele>1016.4999999999999</ele><time>2026-05-01T14:40:35Z</time></trkpt><trkpt lat="43.856477751345835" lon="7.408085930547864"><ele>1015.0</ele><time>2026-05-01T14:40:36Z</time></trkpt><trkpt lat="43.856533515646966" lon="7.408200805642242"><ele>1018.1666666666666</ele><time>2026-05-01T14:40:37Z</time></trkpt><trkpt lat="43.856588233428276" lon="7.4083067599174255"><ele>1021.3333333333333</ele><time>2026-05-01T14:40:37.999Z</time></trkpt><trkpt lat="43.85665120661007" lon="7.408385618515241"><ele>1024.5</ele><time>2026-05-01T14:40:38.999Z</time></trkpt><trkpt lat="43.856703066567526" lon="7.40846112931315"><ele>1027.6666666666667</ele><time>2026-05-01T14:40:39.999Z</time></trkpt><trkpt lat="43.85677666825499" lon="7.408525645012106"><ele>1030.8333333333335</ele><time>2026-05-01T14:40:40.999Z</time></trkpt><trkpt lat="43.85684412231348" lon="7.4085703159856"><ele>1034.0</ele><time>2026-05-01T14:40:41.999Z</time></trkpt><trkpt lat="43.85691154953623" lon="7.408611460397362"><ele>1034.0</ele><time>2026-05-01T14:40:42.999Z</time></trkpt><trkpt lat="43.856986246236225" lon="7.408664018821806"><ele>1034.0</ele><time>2026-05-01T14:40:43.999Z</time></trkpt><trkpt lat="43.85706731224063" lon="7.408716312378801"><ele>1034.0</ele><time>2026-05-01T14:40:45Z</time></trkpt><trkpt lat="43.85713253816086" lon="7.408751113558112"><ele>1034.0</ele><time>2026-05-01T14:40:46Z</time></trkpt><trkpt lat="43.8571937327588" lon="7.4087988323392855"><ele>1034.0</ele><time>2026-05-01T14:40:47Z</time></trkpt><trkpt lat="43.85730882662302" lon="7.4088076972317936"><ele>1034.0</ele><time>2026-05-01T14:40:49Z</time></trkpt><trkpt lat="43.857422996439645" lon="7.408825688293357"><ele>1034.0</ele><time>2026-05-01T14:40:51Z</time></trkpt><trkpt lat="43.85754020991465" lon="7.408785795764897"><ele>1034.0</ele><time>2026-05-01T14:40:53Z</time></trkpt><trkpt lat="43.85760530338987" lon="7.408755705174333"><ele>1034.0</ele><time>2026-05-01T14:40:54Z</time></trkpt><trkpt lat="43.85770769700947" lon="7.408686377831252"><ele>1034.0</ele><time>2026-05-01T14:40:56Z</time></trkpt><trkpt lat="43.857763401296936" lon="7.408640681944484"><ele>1034.0</ele><time>2026-05-01T14:40:57Z</time></trkpt><trkpt lat="43.85784746104261" lon="7.408569802613647"><ele>1037.6666666666667</ele><time>2026-05-01T14:40:58Z</time></trkpt><trkpt lat="43.85789888622264" lon="7.4085032567216835"><ele>1041.3333333333335</ele><time>2026-05-01T14:40:59Z</time></trkpt><trkpt lat="43.85793901314706" lon="7.408408955441204"><ele>1045.0</ele><time>2026-05-01T14:41:00Z</time></trkpt><trkpt lat="43.85797885685094" lon="7.408297398795732"><ele>1048.6666666666667</ele><time>2026-05-01T14:41:01Z</time></trkpt><trkpt lat="43.858008997713206" lon="7.408201380193157"><ele>1052.3333333333333</ele><time>2026-05-01T14:41:02Z</time></trkpt><trkpt lat="43.858036336613374" lon="7.40810891902703"><ele>1056.0</ele><time>2026-05-01T14:41:03Z</time></trkpt><trkpt lat="43.85807743087615" lon="7.408027660645951"><ele>1054.6</ele><time>2026-05-01T14:41:04Z</time></trkpt><trkpt lat="43.85812028886136" lon="7.407961400952619"><ele>1053.1999999999998</ele><time>2026-05-01T14:41:05Z</time></trkpt><trkpt lat="43.858202677185844" lon="7.407876435319461"><ele>1051.8000000000002</ele><time>2026-05-01T14:41:07Z</time></trkpt><trkpt lat="43.858294561503406" lon="7.40778529061056"><ele>1050.4</ele><time>2026-05-01T14:41:09Z</time></trkpt><trkpt lat="43.858399286440864" lon="7.4077871431313485"><ele>1049.0</ele><time>2026-05-01T14:41:11Z</time></trkpt><trkpt lat="43.858524818791636" lon="7.407798474615302"><ele>1049.0</ele><time>2026-05-01T14:41:13Z</time></trkpt><trkpt lat="43.858602407031825" lon="7.407786517865025"><ele>1049.0</ele><time>2026-05-01T14:41:14Z</time></trkpt><trkpt lat="43.858680707721675" lon="7.407796534507278"><ele>1049.0</ele><time>2026-05-01T14:41:15Z</time></trkpt><trkpt lat="43.858774236474474" lon="7.407830191142373"><ele>1049.0</ele><time>2026-05-01T14:41:16Z</time></trkpt><trkpt lat="43.85885126927633" lon="7.407844573812899"><ele>1049.0</ele><time>2026-05-01T14:41:17Z</time></trkpt><trkpt lat="43.85895752401836" lon="7.407845647823989"><ele>1049.0</ele><time>2026-05-01T14:41:18Z</time></trkpt><trkpt lat="43.85906496639155" lon="7.407877933167995"><ele>1049.0</ele><time>2026-05-01T14:41:19Z</time></trkpt><trkpt lat="43.85914545195624" lon="7.40789333523346"><ele>1049.0</ele><time>2026-05-01T14:41:20Z</time></trkpt><trkpt lat="43.85921000309445" lon="7.4079060752383805"><ele>1049.0</ele><time>2026-05-01T14:41:21Z</time></trkpt><trkpt lat="43.859331235220246" lon="7.407943920043879"><ele>1049.0</ele><time>2026-05-01T14:41:23Z</time></trkpt><trkpt lat="43.85939025060286" lon="7.407980839944306"><ele>1049.0</ele><time>2026-05-01T14:41:24Z</time></trkpt><trkpt lat="43.8594826973067" lon="7.408088868876135"><ele>1066.0</ele><time>2026-05-01T14:41:26Z</time></trkpt><trkpt lat="43.85959538382275" lon="7.408162978049462"><ele>1066.0</ele><time>2026-05-01T14:41:28Z</time></trkpt><trkpt lat="43.85965861846814" lon="7.408248764830727"><ele>1066.0</ele><time>2026-05-01T14:41:30Z</time></trkpt><trkpt lat="43.85973052269352" lon="7.408303117086942"><ele>1066.0</ele><time>2026-05-01T14:41:32Z</time></trkpt></trkseg><trkseg><trkpt lat="43.86489306108227" lon="7.404770104710182"><ele>1072.6</ele><time>2026-05-01T14:49:47.999Z</time></trkpt><trkpt lat="43.86492913154535" lon="7.404653341324873"><ele>1073.2</ele><time>2026-05-01T14:49:51Z</time></trkpt><trkpt lat="43.86495518840883" lon="7.40450737247641"><ele>1073.8</ele><time>2026-05-01T14:49:53Z</time></trkpt><trkpt lat="43.86497456314094" lon="7.404374703508343"><ele>1074.4</ele><time>2026-05-01T14:49:55Z</time></trkpt><trkpt lat="43.864962663779046" lon="7.404233915361039"><ele>1075.0</ele><time>2026-05-01T14:49:57Z</time></trkpt><trkpt lat="43.8649278022823" lon="7.404160215652838"><ele>1075.0</ele><time>2026-05-01T14:49:58Z</time></trkpt><trkpt lat="43.86485432035207" lon="7.4040280381127905"><ele>1075.0</ele><time>2026-05-01T14:50:00Z</time></trkpt><trkpt lat="43.8647938501082" lon="7.404002679893825"><ele>1075.0</ele><time>2026-05-01T14:50:01Z</time></trkpt><trkpt lat="43.86470443332182" lon="7.403915954160436"><ele>1075.0</ele><time>2026-05-01T14:50:03Z</time></trkpt><trkpt lat="43.864653362812206" lon="7.403860070813635"><ele>1075.0</ele><time>2026-05-01T14:50:04Z</time></trkpt><trkpt lat="43.86457225715663" lon="7.4037456905790515"><ele>1078.0</ele><time>2026-05-01T14:50:06Z</time></trkpt><trkpt lat="43.86450613200897" lon="7.403606188236707"><ele>1081.0</ele><time>2026-05-01T14:50:08Z</time></trkpt><trkpt lat="43.864446729630714" lon="7.403467156372025"><ele>1084.0</ele><time>2026-05-01T14:50:10Z</time></trkpt><trkpt lat="43.86441804120666" lon="7.4033845481599885"><ele>1087.0</ele><time>2026-05-01T14:50:11Z</time></trkpt><trkpt lat="43.86438875218952" lon="7.403294405394376"><ele>1090.0</ele><time>2026-05-01T14:50:12Z</time></trkpt><trkpt lat="43.8643606789748" lon="7.403200412326985"><ele>1093.0</ele><time>2026-05-01T14:50:13Z</time></trkpt><trkpt lat="43.864342105471074" lon="7.403103293122295"><ele>1093.0</ele><time>2026-05-01T14:50:14Z</time></trkpt><trkpt lat="43.86433185655115" lon="7.403008499320008"><ele>1093.0</ele><time>2026-05-01T14:50:15Z</time></trkpt><trkpt lat="43.86433118236095" lon="7.402915428365298"><ele>1093.0</ele><time>2026-05-01T14:50:16Z</time></trkpt><trkpt lat="43.864343147432784" lon="7.402813916249073"><ele>1093.0</ele><time>2026-05-01T14:50:17Z</time></trkpt><trkpt lat="43.86433588887995" lon="7.402716031347189"><ele>1093.0</ele><time>2026-05-01T14:50:18Z</time></trkpt><trkpt lat="43.86430948058031" lon="7.402565480674068"><ele>1093.0</ele><time>2026-05-01T14:50:20Z</time></trkpt><trkpt lat="43.864305974472344" lon="7.402463468699174"><ele>1089.4</ele><time>2026-05-01T14:50:22Z</time></trkpt><trkpt lat="43.86435497471064" lon="7.4023585171667285"><ele>1085.8</ele><time>2026-05-01T14:50:24Z</time></trkpt><trkpt lat="43.8644653615221" lon="7.402312653478489"><ele>1082.2</ele><time>2026-05-01T14:50:26Z</time></trkpt><trkpt lat="43.86453528643271" lon="7.40229228919513"><ele>1078.6</ele><time>2026-05-01T14:50:27Z</time></trkpt><trkpt lat="43.86461398641221" lon="7.402234051060358"><ele>1075.0</ele><time>2026-05-01T14:50:28Z</time></trkpt><trkpt lat="43.864708732612684" lon="7.402162754336968"><ele>1072.2</ele><time>2026-05-01T14:50:29Z</time></trkpt><trkpt lat="43.86480012324126" lon="7.402097544163514"><ele>1069.4</ele><time>2026-05-01T14:50:30Z</time></trkpt><trkpt lat="43.86488995510582" lon="7.402028002552204"><ele>1066.6</ele><time>2026-05-01T14:50:31Z</time></trkpt><trkpt lat="43.86497296239474" lon="7.401965260450118"><ele>1063.8</ele><time>2026-05-01T14:50:32Z</time></trkpt><trkpt lat="43.86506818190383" lon="7.401898988908102"><ele>1061.0</ele><time>2026-05-01T14:50:33Z</time></trkpt><trkpt lat="43.86516200549594" lon="7.401840988589881"><ele>1061.0</ele><time>2026-05-01T14:50:34Z</time></trkpt><trkpt lat="43.86525186820751" lon="7.401794786026011"><ele>1061.0</ele><time>2026-05-01T14:50:35Z</time></trkpt><trkpt lat="43.86534564939154" lon="7.401758942166189"><ele>1061.0</ele><time>2026-05-01T14:50:36Z</time></trkpt><trkpt lat="43.865433526199304" lon="7.4017211716876"><ele>1061.0</ele><time>2026-05-01T14:50:37Z</time></trkpt><trkpt lat="43.86552963663488" lon="7.401677439593987"><ele>1061.0</ele><time>2026-05-01T14:50:38Z</time></trkpt><trkpt lat="43.865628805586965" lon="7.401634549612893"><ele>1061.0</ele><time>2026-05-01T14:50:39Z</time></trkpt><trkpt lat="43.865724510163226" lon="7.401588864724145"><ele>1061.0</ele><time>2026-05-01T14:50:40Z</time></trkpt><trkpt lat="43.86582039871339" lon="7.401540957776737"><ele>1061.0</ele><time>2026-05-01T14:50:41Z</time></trkpt><trkpt lat="43.86591197631858" lon="7.4014813816031415"><ele>1061.0</ele><time>2026-05-01T14:50:42Z</time></trkpt><trkpt lat="43.866001664452085" lon="7.401420514002143"><ele>1061.0</ele><time>2026-05-01T14:50:43Z</time></trkpt><trkpt lat="43.86609022190498" lon="7.401367022054937"><ele>1056.3999999999999</ele><time>2026-05-01T14:50:44Z</time></trkpt><trkpt lat="43.8661756893302" lon="7.401310693715643"><ele>1051.8</ele><time>2026-05-01T14:50:45Z</time></trkpt><trkpt lat="43.86626694078846" lon="7.401281398187836"><ele>1047.1999999999998</ele><time>2026-05-01T14:50:46Z</time></trkpt><trkpt lat="43.866351558870385" lon="7.401235750006538"><ele>1042.6</ele><time>2026-05-01T14:50:47Z</time></trkpt><trkpt lat="43.866434017843325" lon="7.4011912665645"><ele>1038.0</ele><time>2026-05-01T14:50:48Z</time></trkpt><trkpt lat="43.86651082398401" lon="7.4011498324987866"><ele>1038.0</ele><time>2026-05-01T14:50:49Z</time></trkpt><trkpt lat="43.86659098302131" lon="7.401085817339554"><ele>1038.0</ele><time>2026-05-01T14:50:50Z</time></trkpt><trkpt lat="43.86667689823925" lon="7.401044007414425"><ele>1038.0</ele><time>2026-05-01T14:50:51Z</time></trkpt><trkpt lat="43.86676449985298" lon="7.401005375955259"><ele>1038.0</ele><time>2026-05-01T14:50:52Z</time></trkpt><trkpt lat="43.866861118596226" lon="7.400965954968626"><ele>1038.0</ele><time>2026-05-01T14:50:53Z</time></trkpt><trkpt lat="43.866947963467396" lon="7.400919706084991"><ele>1039.8</ele><time>2026-05-01T14:50:54Z</time></trkpt><trkpt lat="43.86702956811325" lon="7.400870184519653"><ele>1041.6</ele><time>2026-05-01T14:50:55Z</time></trkpt><trkpt lat="43.86711662192261" lon="7.400827049077703"><ele>1043.4</ele><time>2026-05-01T14:50:56Z</time></trkpt><trkpt lat="43.86720630939278" lon="7.4007823853947565"><ele>1045.2</ele><time>2026-05-01T14:50:57Z</time></trkpt><trkpt lat="43.867296046486324" lon="7.400758171727333"><ele>1047.0</ele><time>2026-05-01T14:50:58Z</time></trkpt><trkpt lat="43.86737936043515" lon="7.400721922676011"><ele>1047.0</ele><time>2026-05-01T14:50:59Z</time></trkpt><trkpt lat="43.86746160962486" lon="7.400693072215019"><ele>1047.0</ele><time>2026-05-01T14:51:00Z</time></trkpt><trkpt lat="43.86754355648013" lon="7.400663648737307"><ele>1047.0</ele><time>2026-05-01T14:51:01Z</time></trkpt><trkpt lat="43.867623003975204" lon="7.4006332092741856"><ele>1047.0</ele><time>2026-05-01T14:51:02Z</time></trkpt><trkpt lat="43.86771531697514" lon="7.400578820035543"><ele>1047.0</ele><time>2026-05-01T14:51:03Z</time></trkpt><trkpt lat="43.86782559229967" lon="7.400537515309533"><ele>1041.6</ele><time>2026-05-01T14:51:04Z</time></trkpt><trkpt lat="43.86793072462421" lon="7.400483934406293"><ele>1036.2</ele><time>2026-05-01T14:51:05Z</time></trkpt><trkpt lat="43.86803200581479" lon="7.400438291255172"><ele>1030.8</ele><time>2026-05-01T14:51:06Z</time></trkpt><trkpt lat="43.86812805132981" lon="7.400393092178892"><ele>1025.4</ele><time>2026-05-01T14:51:07Z</time></trkpt><trkpt lat="43.86823144101076" lon="7.400370666211427"><ele>1020.0</ele><time>2026-05-01T14:51:08Z</time></trkpt><trkpt lat="43.86833028699229" lon="7.400332854616013"><ele>1020.0</ele><time>2026-05-01T14:51:09Z</time></trkpt><trkpt lat="43.868426233984756" lon="7.400276951126247"><ele>1020.0</ele><time>2026-05-01T14:51:10Z</time></trkpt><trkpt lat="43.86853843230014" lon="7.400262333542225"><ele>1020.0</ele><time>2026-05-01T14:51:11Z</time></trkpt><trkpt lat="43.86864142315957" lon="7.400205704440121"><ele>1020.0</ele><time>2026-05-01T14:51:12Z</time></trkpt><trkpt lat="43.86874400008916" lon="7.400176086191009"><ele>1020.0</ele><time>2026-05-01T14:51:13Z</time></trkpt><trkpt lat="43.86884466571417" lon="7.400144169926096"><ele>1020.2</ele><time>2026-05-01T14:51:14Z</time></trkpt><trkpt lat="43.868941128549274" lon="7.400132045532669"><ele>1020.4</ele><time>2026-05-01T14:51:15Z</time></trkpt><trkpt lat="43.86904544792318" lon="7.400096941122028"><ele>1020.5999999999999</ele><time>2026-05-01T14:51:16Z</time></trkpt><trkpt lat="43.86915340845872" lon="7.400060611446985"><ele>1020.8</ele><time>2026-05-01T14:51:17Z</time></trkpt><trkpt lat="43.86925630027752" lon="7.400025987558183"><ele>1021.0</ele><time>2026-05-01T14:51:18Z</time></trkpt><trkpt lat="43.869356762015016" lon="7.399976011829915"><ele>1022.4</ele><time>2026-05-01T14:51:19Z</time></trkpt><trkpt lat="43.86945863086453" lon="7.399958381150086"><ele>1023.8</ele><time>2026-05-01T14:51:20Z</time></trkpt><trkpt lat="43.86955394413031" lon="7.399909333925158"><ele>1025.1999999999998</ele><time>2026-05-01T14:51:21Z</time></trkpt><trkpt lat="43.86964844061804" lon="7.399882775920058"><ele>1026.6</ele><time>2026-05-01T14:51:22Z</time></trkpt><trkpt lat="43.86974499715686" lon="7.399856498128917"><ele>1028.0</ele><time>2026-05-01T14:51:23Z</time></trkpt><trkpt lat="43.86983647486918" lon="7.399826631310363"><ele>1028.0</ele><time>2026-05-01T14:51:24Z</time></trkpt><trkpt lat="43.86993560925193" lon="7.399806124378751"><ele>1028.0</ele><time>2026-05-01T14:51:25Z</time></trkpt><trkpt lat="43.87003802629189" lon="7.3997947225174405"><ele>1028.0</ele><time>2026-05-01T14:51:26Z</time></trkpt><trkpt lat="43.87012287385459" lon="7.399776980980001"><ele>1028.0</ele><time>2026-05-01T14:51:27Z</time></trkpt><trkpt lat="43.870223314473236" lon="7.399760573482016"><ele>1028.0</ele><time>2026-05-01T14:51:28Z</time></trkpt><trkpt lat="43.87032871070341" lon="7.399719450031247"><ele>1028.0</ele><time>2026-05-01T14:51:29Z</time></trkpt><trkpt lat="43.87042976474146" lon="7.399713772621994"><ele>1028.0</ele><time>2026-05-01T14:51:30Z</time></trkpt><trkpt lat="43.870523561875544" lon="7.399664171719903"><ele>1028.0</ele><time>2026-05-01T14:51:31Z</time></trkpt><trkpt lat="43.870622780131676" lon="7.399621290756462"><ele>1028.0</ele><time>2026-05-01T14:51:32Z</time></trkpt><trkpt lat="43.87071692523408" lon="7.399583094658337"><ele>1028.0</ele><time>2026-05-01T14:51:33Z</time></trkpt><trkpt lat="43.87081797044331" lon="7.399556012484863"><ele>1023.0</ele><time>2026-05-01T14:51:34Z</time></trkpt><trkpt lat="43.870916042442225" lon="7.399512447135767"><ele>1018.0</ele><time>2026-05-01T14:51:35Z</time></trkpt><trkpt lat="43.87100337732361" lon="7.399453953371938"><ele>1013.0</ele><time>2026-05-01T14:51:36Z</time></trkpt><trkpt lat="43.871096120370055" lon="7.39943368248216"><ele>1008.0</ele><time>2026-05-01T14:51:36.999Z</time></trkpt><trkpt lat="43.87119806214409" lon="7.399389580470919"><ele>1003.0</ele><time>2026-05-01T14:51:37.999Z</time></trkpt><trkpt lat="43.87129679714884" lon="7.399331148125092"><ele>1003.0</ele><time>2026-05-01T14:51:38.999Z</time></trkpt><trkpt lat="43.87138942267629" lon="7.3992857716218685"><ele>1003.0</ele><time>2026-05-01T14:51:39.999Z</time></trkpt><trkpt lat="43.871487389046884" lon="7.399270219679677"><ele>1003.0</ele><time>2026-05-01T14:51:40.999Z</time></trkpt><trkpt lat="43.87157655200224" lon="7.399235997156939"><ele>1003.0</ele><time>2026-05-01T14:51:41.999Z</time></trkpt><trkpt lat="43.87166453658492" lon="7.399180897503566"><ele>1003.0</ele><time>2026-05-01T14:51:42.999Z</time></trkpt><trkpt lat="43.87175421714654" lon="7.39915206437743"><ele>1002.9999999999999</ele><time>2026-05-01T14:51:43.999Z</time></trkpt><trkpt lat="43.87184044144569" lon="7.399121276530255"><ele>1003.0</ele><time>2026-05-01T14:51:44.999Z</time></trkpt><trkpt lat="43.87191867604775" lon="7.399092982244312"><ele>1003.0</ele><time>2026-05-01T14:51:45.999Z</time></trkpt><trkpt lat="43.872002640218305" lon="7.399064616263989"><ele>1003.0</ele><time>2026-05-01T14:51:46.999Z</time></trkpt><trkpt lat="43.872078276915786" lon="7.399037170774576"><ele>1002.9999999999999</ele><time>2026-05-01T14:51:47.999Z</time></trkpt><trkpt lat="43.87214392020395" lon="7.3990143954352146"><ele>1003.0</ele><time>2026-05-01T14:51:48.999Z</time></trkpt><trkpt lat="43.872244028160225" lon="7.399000439983985"><ele>1002.9999999999999</ele><time>2026-05-01T14:51:50.999Z</time></trkpt><trkpt lat="43.87231844402212" lon="7.399031189233364"><ele>1003.0</ele><time>2026-05-01T14:51:52.999Z</time></trkpt><trkpt lat="43.872370628364656" lon="7.399083834784623"><ele>1003.0</ele><time>2026-05-01T14:51:55Z</time></trkpt><trkpt lat="43.872425200456014" lon="7.399163348540991"><ele>1003.0</ele><time>2026-05-01T14:51:57Z</time></trkpt><trkpt lat="43.87249380388462" lon="7.399208954716567"><ele>1002.9999999999999</ele><time>2026-05-01T14:52:00Z</time></trkpt><trkpt lat="43.872566365770375" lon="7.399234687013905"><ele>1003.0</ele><time>2026-05-01T14:52:11Z</time></trkpt><trkpt lat="43.87265253993844" lon="7.399068770750879"><ele>1003.0</ele><time>2026-05-01T14:52:14Z</time></trkpt><trkpt lat="43.87267089882665" lon="7.398948907949432"><ele>1003.0</ele><time>2026-05-01T14:52:16Z</time></trkpt><trkpt lat="43.87272883448515" lon="7.398815296764852"><ele>1003.0</ele><time>2026-05-01T14:52:18Z</time></trkpt><trkpt lat="43.87278094165985" lon="7.3987507104076675"><ele>1003.0</ele><time>2026-05-01T14:52:19Z</time></trkpt><trkpt lat="43.87285118339012" lon="7.398673937996541"><ele>1003.0</ele><time>2026-05-01T14:52:20Z</time></trkpt><trkpt lat="43.87293070546625" lon="7.398570650025483"><ele>1003.0</ele><time>2026-05-01T14:52:21Z</time></trkpt><trkpt lat="43.873010960552044" lon="7.398438305679431"><ele>1003.0</ele><time>2026-05-01T14:52:22Z</time></trkpt><trkpt lat="43.87308974602647" lon="7.398302439732926"><ele>1003.0</ele><time>2026-05-01T14:52:23Z</time></trkpt><trkpt lat="43.873166986566964" lon="7.398168467959486"><ele>1003.0</ele><time>2026-05-01T14:52:24Z</time></trkpt><trkpt lat="43.87323516487986" lon="7.3980344938295755"><ele>1003.4</ele><time>2026-05-01T14:52:25Z</time></trkpt><trkpt lat="43.87329857629209" lon="7.397903545801982"><ele>1003.8</ele><time>2026-05-01T14:52:26Z</time></trkpt><trkpt lat="43.87336167182259" lon="7.397781706834763"><ele>1004.2</ele><time>2026-05-01T14:52:27Z</time></trkpt><trkpt lat="43.87342140310503" lon="7.397678932041881"><ele>1004.6</ele><time>2026-05-01T14:52:28Z</time></trkpt><trkpt lat="43.8734909835623" lon="7.397582530917542"><ele>1005.0</ele><time>2026-05-01T14:52:29Z</time></trkpt><trkpt lat="43.8735670430301" lon="7.397512795613367"><ele>1005.0</ele><time>2026-05-01T14:52:30Z</time></trkpt><trkpt lat="43.87364777636826" lon="7.397457955237508"><ele>1005.0</ele><time>2026-05-01T14:52:31Z</time></trkpt><trkpt lat="43.87372392493252" lon="7.3974174719802415"><ele>1005.0</ele><time>2026-05-01T14:52:32Z</time></trkpt><trkpt lat="43.8737949838803" lon="7.397372893779166"><ele>1005.0</ele><time>2026-05-01T14:52:33Z</time></trkpt><trkpt lat="43.87386191516276" lon="7.397315157016955"><ele>1005.0</ele><time>2026-05-01T14:52:34Z</time></trkpt><trkpt lat="43.87391703820734" lon="7.397249913289513"><ele>1005.0</ele><time>2026-05-01T14:52:35Z</time></trkpt><trkpt lat="43.87396726522517" lon="7.397165976868357"><ele>1002.6</ele><time>2026-05-01T14:52:36Z</time></trkpt><trkpt lat="43.87401512534993" lon="7.397060229930285"><ele>1000.2</ele><time>2026-05-01T14:52:37Z</time></trkpt><trkpt lat="43.87405303927062" lon="7.396936814779187"><ele>997.8</ele><time>2026-05-01T14:52:38Z</time></trkpt><trkpt lat="43.87407279746829" lon="7.396797590929005"><ele>995.4</ele><time>2026-05-01T14:52:39Z</time></trkpt><trkpt lat="43.874074234443086" lon="7.396649922765545"><ele>993.0</ele><time>2026-05-01T14:52:40Z</time></trkpt><trkpt lat="43.87406357229562" lon="7.396494240628324"><ele>993.0</ele><time>2026-05-01T14:52:41Z</time></trkpt><trkpt lat="43.87405994944594" lon="7.396352294581358"><ele>993.0</ele><time>2026-05-01T14:52:42Z</time></trkpt><trkpt lat="43.87406926653191" lon="7.396217478859718"><ele>993.0</ele><time>2026-05-01T14:52:43Z</time></trkpt><trkpt lat="43.874093605309966" lon="7.396089143250898"><ele>993.0</ele><time>2026-05-01T14:52:44Z</time></trkpt><trkpt lat="43.87413007323922" lon="7.395948834231281"><ele>993.0</ele><time>2026-05-01T14:52:45Z</time></trkpt><trkpt lat="43.87416778831818" lon="7.395809368483793"><ele>992.3333333333334</ele><time>2026-05-01T14:52:46Z</time></trkpt><trkpt lat="43.87420297948458" lon="7.395682255830941"><ele>991.6666666666667</ele><time>2026-05-01T14:52:47Z</time></trkpt><trkpt lat="43.874231196384955" lon="7.395564923904855"><ele>991.0</ele><time>2026-05-01T14:52:48Z</time></trkpt><trkpt lat="43.87425019565599" lon="7.395449065712062"><ele>990.3333333333334</ele><time>2026-05-01T14:52:49Z</time></trkpt><trkpt lat="43.87425323997425" lon="7.39533296355371"><ele>989.6666666666667</ele><time>2026-05-01T14:52:50Z</time></trkpt><trkpt lat="43.8742319803777" lon="7.3952130244595695"><ele>989.0</ele><time>2026-05-01T14:52:51Z</time></trkpt><trkpt lat="43.87419098081074" lon="7.395093981843491"><ele>989.0</ele><time>2026-05-01T14:52:52Z</time></trkpt><trkpt lat="43.87411823437255" lon="7.394996964655062"><ele>989.0</ele><time>2026-05-01T14:52:53Z</time></trkpt><trkpt lat="43.874031366050396" lon="7.394895747939924"><ele>989.0</ele><time>2026-05-01T14:52:54Z</time></trkpt><trkpt lat="43.87393974305737" lon="7.394784443977573"><ele>989.0</ele><time>2026-05-01T14:52:55Z</time></trkpt><trkpt lat="43.873852484988895" lon="7.394662855498298"><ele>988.0</ele><time>2026-05-01T14:52:56Z</time></trkpt><trkpt lat="43.87376857565131" lon="7.394555631862375"><ele>987.0000000000001</ele><time>2026-05-01T14:52:57Z</time></trkpt><trkpt lat="43.87368230639057" lon="7.394451761572476"><ele>986.0000000000001</ele><time>2026-05-01T14:52:58Z</time></trkpt><trkpt lat="43.87359717292006" lon="7.39436266300337"><ele>985.0</ele><time>2026-05-01T14:52:59Z</time></trkpt><trkpt lat="43.8735014504209" lon="7.394302967152528"><ele>984.0</ele><time>2026-05-01T14:53:00Z</time></trkpt><trkpt lat="43.87339838732686" lon="7.394269366734216"><ele>984.0</ele><time>2026-05-01T14:53:01Z</time></trkpt><trkpt lat="43.87329164129653" lon="7.3942471065057696"><ele>984.0000000000001</ele><time>2026-05-01T14:53:02Z</time></trkpt><trkpt lat="43.87319075584182" lon="7.394214866406772"><ele>984.0000000000001</ele><time>2026-05-01T14:53:03Z</time></trkpt><trkpt lat="43.87308485835085" lon="7.394159113750543"><ele>984.0</ele><time>2026-05-01T14:53:04Z</time></trkpt><trkpt lat="43.87298597589545" lon="7.39409090332731"><ele>984.0</ele><time>2026-05-01T14:53:05Z</time></trkpt><trkpt lat="43.87290467791133" lon="7.394001878738793"><ele>984.0</ele><time>2026-05-01T14:53:06Z</time></trkpt><trkpt lat="43.87283009360457" lon="7.393936295545225"><ele>984.0000000000001</ele><time>2026-05-01T14:53:07Z</time></trkpt><trkpt lat="43.87273641786431" lon="7.393914617395255"><ele>984.0000000000001</ele><time>2026-05-01T14:53:08Z</time></trkpt><trkpt lat="43.872636447014926" lon="7.39392394807501"><ele>984.0</ele><time>2026-05-01T14:53:09Z</time></trkpt><trkpt lat="43.87254484846641" lon="7.393941974952749"><ele>984.0</ele><time>2026-05-01T14:53:10Z</time></trkpt><trkpt lat="43.872462488511594" lon="7.393950121461794"><ele>983.0</ele><time>2026-05-01T14:53:11Z</time></trkpt><trkpt lat="43.8723843196305" lon="7.393915960472576"><ele>982.0000000000001</ele><time>2026-05-01T14:53:12Z</time></trkpt><trkpt lat="43.872321187240516" lon="7.3938335971060996"><ele>981.0000000000001</ele><time>2026-05-01T14:53:13Z</time></trkpt><trkpt lat="43.87227142879744" lon="7.393709352744136"><ele>980.0</ele><time>2026-05-01T14:53:14Z</time></trkpt><trkpt lat="43.87224130367291" lon="7.393558168945533"><ele>979.0</ele><time>2026-05-01T14:53:15Z</time></trkpt><trkpt lat="43.872219602725984" lon="7.393381557181188"><ele>979.0</ele><time>2026-05-01T14:53:16Z</time></trkpt><trkpt lat="43.8721947673531" lon="7.39320996869382"><ele>979.0000000000001</ele><time>2026-05-01T14:53:17Z</time></trkpt><trkpt lat="43.8721732904891" lon="7.393055456707306"><ele>979.0000000000001</ele><time>2026-05-01T14:53:18Z</time></trkpt><trkpt lat="43.87215791103865" lon="7.392907623090146"><ele>979.0</ele><time>2026-05-01T14:53:19Z</time></trkpt><trkpt lat="43.87213809562666" lon="7.392774411209569"><ele>979.0</ele><time>2026-05-01T14:53:20Z</time></trkpt><trkpt lat="43.87209508760222" lon="7.3926565794497705"><ele>979.8000000000001</ele><time>2026-05-01T14:53:21Z</time></trkpt><trkpt lat="43.87202878385596" lon="7.392559152901287"><ele>980.6000000000001</ele><time>2026-05-01T14:53:22Z</time></trkpt><trkpt lat="43.871941303256776" lon="7.392479769197831"><ele>981.4</ele><time>2026-05-01T14:53:23Z</time></trkpt><trkpt lat="43.871832164458375" lon="7.392430035534326"><ele>982.2</ele><time>2026-05-01T14:53:24Z</time></trkpt><trkpt lat="43.87172770880257" lon="7.3923978090017854"><ele>983.0</ele><time>2026-05-01T14:53:25Z</time></trkpt><trkpt lat="43.871626735861625" lon="7.392367190451987"><ele>982.2</ele><time>2026-05-01T14:53:26Z</time></trkpt><trkpt lat="43.871531298126534" lon="7.392329861653437"><ele>981.4</ele><time>2026-05-01T14:53:27Z</time></trkpt><trkpt lat="43.87143990475876" lon="7.392279199340101"><ele>980.6000000000001</ele><time>2026-05-01T14:53:28Z</time></trkpt><trkpt lat="43.87135182126744" lon="7.392218750957281"><ele>979.8000000000001</ele><time>2026-05-01T14:53:29Z</time></trkpt><trkpt lat="43.871271926369346" lon="7.3921523345453855"><ele>979.0</ele><time>2026-05-01T14:53:30Z</time></trkpt><trkpt lat="43.87119644278168" lon="7.392070443039228"><ele>979.0</ele><time>2026-05-01T14:53:31Z</time></trkpt><trkpt lat="43.87112568821439" lon="7.391983759063707"><ele>979.0000000000001</ele><time>2026-05-01T14:53:32Z</time></trkpt><trkpt lat="43.87105968460996" lon="7.391893967553629"><ele>979.0000000000001</ele><time>2026-05-01T14:53:33Z</time></trkpt><trkpt lat="43.87099198476373" lon="7.391811365475709"><ele>979.0</ele><time>2026-05-01T14:53:34Z</time></trkpt><trkpt lat="43.87092273180217" lon="7.391729299231409"><ele>979.0</ele><time>2026-05-01T14:53:35Z</time></trkpt><trkpt lat="43.870853587702186" lon="7.391646775234188"><ele>977.6</ele><time>2026-05-01T14:53:36Z</time></trkpt><trkpt lat="43.87078394373945" lon="7.391574553545999"><ele>976.2</ele><time>2026-05-01T14:53:37Z</time></trkpt><trkpt lat="43.87071140645432" lon="7.391508703947308"><ele>974.8000000000001</ele><time>2026-05-01T14:53:38Z</time></trkpt><trkpt lat="43.87063161427932" lon="7.391449083602731"><ele>973.4000000000001</ele><time>2026-05-01T14:53:39Z</time></trkpt><trkpt lat="43.870542746206986" lon="7.3913838147946915"><ele>972.0</ele><time>2026-05-01T14:53:40Z</time></trkpt><trkpt lat="43.87044723239397" lon="7.391314038180678"><ele>972.0</ele><time>2026-05-01T14:53:41Z</time></trkpt><trkpt lat="43.87035588221963" lon="7.39123721453468"><ele>972.0</ele><time>2026-05-01T14:53:42Z</time></trkpt><trkpt lat="43.870258608851145" lon="7.3911483785653465"><ele>972.0</ele><time>2026-05-01T14:53:43Z</time></trkpt><trkpt lat="43.87015500050054" lon="7.39104985121507"><ele>972.0</ele><time>2026-05-01T14:53:44Z</time></trkpt><trkpt lat="43.87005425477262" lon="7.390946602376711"><ele>967.25</ele><time>2026-05-01T14:53:45Z</time></trkpt><trkpt lat="43.86995686163368" lon="7.390850908827949"><ele>962.5</ele><time>2026-05-01T14:53:46Z</time></trkpt><trkpt lat="43.86985695261492" lon="7.39077298481676"><ele>957.75</ele><time>2026-05-01T14:53:47Z</time></trkpt><trkpt lat="43.86974474107907" lon="7.390733109325078"><ele>953.0</ele><time>2026-05-01T14:53:48Z</time></trkpt><trkpt lat="43.869626459374075" lon="7.3907215494815155"><ele>953.0</ele><time>2026-05-01T14:53:49Z</time></trkpt><trkpt lat="43.869501651834106" lon="7.390736334426096"><ele>953.0</ele><time>2026-05-01T14:53:50Z</time></trkpt><trkpt lat="43.86938256004593" lon="7.390752360342785"><ele>953.0</ele><time>2026-05-01T14:53:51Z</time></trkpt><trkpt lat="43.869268478978576" lon="7.390743272535817"><ele>953.0</ele><time>2026-05-01T14:53:52Z</time></trkpt><trkpt lat="43.86915303126351" lon="7.390713358986253"><ele>952.75</ele><time>2026-05-01T14:53:53Z</time></trkpt><trkpt lat="43.86903497073479" lon="7.390662914290337"><ele>952.5</ele><time>2026-05-01T14:53:54Z</time></trkpt><trkpt lat="43.868915082583705" lon="7.390584984430888"><ele>952.25</ele><time>2026-05-01T14:53:55Z</time></trkpt><trkpt lat="43.86880214113157" lon="7.39048981975469"><ele>952.0</ele><time>2026-05-01T14:53:56Z</time></trkpt><trkpt lat="43.868689108919234" lon="7.390400698031231"><ele>952.0</ele><time>2026-05-01T14:53:57Z</time></trkpt><trkpt lat="43.86857975298239" lon="7.390319218057417"><ele>952.0</ele><time>2026-05-01T14:53:58Z</time></trkpt><trkpt lat="43.868469657127086" lon="7.390243023122798"><ele>952.0</ele><time>2026-05-01T14:53:59Z</time></trkpt><trkpt lat="43.86835392761965" lon="7.390169774344312"><ele>952.0</ele><time>2026-05-01T14:54:00Z</time></trkpt><trkpt lat="43.868235525252686" lon="7.39009493763059"><ele>947.75</ele><time>2026-05-01T14:54:01Z</time></trkpt><trkpt lat="43.8681235872649" lon="7.390027742454767"><ele>943.5</ele><time>2026-05-01T14:54:02Z</time></trkpt><trkpt lat="43.86801435263592" lon="7.3899664133063565"><ele>939.25</ele><time>2026-05-01T14:54:03Z</time></trkpt><trkpt lat="43.86789737599339" lon="7.389904693710743"><ele>935.0</ele><time>2026-05-01T14:54:04Z</time></trkpt><trkpt lat="43.86778129061102" lon="7.389846115907496"><ele>935.0</ele><time>2026-05-01T14:54:05Z</time></trkpt><trkpt lat="43.867670550652875" lon="7.389787972306133"><ele>935.0</ele><time>2026-05-01T14:54:06Z</time></trkpt><trkpt lat="43.867563950613075" lon="7.389726640711012"><ele>935.0</ele><time>2026-05-01T14:54:07Z</time></trkpt><trkpt lat="43.86746550281836" lon="7.3896659718866315"><ele>935.0</ele><time>2026-05-01T14:54:08Z</time></trkpt><trkpt lat="43.867379525895494" lon="7.389608704721413"><ele>935.0</ele><time>2026-05-01T14:54:09Z</time></trkpt><trkpt lat="43.86730311945646" lon="7.389556941293555"><ele>933.6666666666667</ele><time>2026-05-01T14:54:10Z</time></trkpt><trkpt lat="43.8672374047395" lon="7.389503813178438"><ele>932.3333333333334</ele><time>2026-05-01T14:54:11Z</time></trkpt><trkpt lat="43.86718049324404" lon="7.389441207073473"><ele>931.0</ele><time>2026-05-01T14:54:12Z</time></trkpt><trkpt lat="43.86714182957069" lon="7.389356922325949"><ele>929.6666666666667</ele><time>2026-05-01T14:54:13Z</time></trkpt><trkpt lat="43.867133425968326" lon="7.389257614503337"><ele>928.3333333333334</ele><time>2026-05-01T14:54:14Z</time></trkpt><trkpt lat="43.86714491136438" lon="7.389145550673975"><ele>927.0</ele><time>2026-05-01T14:54:15Z</time></trkpt><trkpt lat="43.86717892620069" lon="7.389038496191579"><ele>927.0</ele><time>2026-05-01T14:54:16Z</time></trkpt><trkpt lat="43.867221854637634" lon="7.388934965461864"><ele>927.0</ele><time>2026-05-01T14:54:17Z</time></trkpt><trkpt lat="43.86727230508067" lon="7.388836824961114"><ele>927.0</ele><time>2026-05-01T14:54:18Z</time></trkpt><trkpt lat="43.867331704390445" lon="7.38873645327997"><ele>927.0</ele><time>2026-05-01T14:54:19Z</time></trkpt><trkpt lat="43.86739726184126" lon="7.388645503826484"><ele>927.0</ele><time>2026-05-01T14:54:20Z</time></trkpt><trkpt lat="43.86746799519254" lon="7.388566038067973"><ele>923.4000000000001</ele><time>2026-05-01T14:54:21Z</time></trkpt><trkpt lat="43.867526993786214" lon="7.388480078819283"><ele>919.8000000000001</ele><time>2026-05-01T14:54:22Z</time></trkpt><trkpt lat="43.867583680181426" lon="7.3883879551719644"><ele>916.2</ele><time>2026-05-01T14:54:23Z</time></trkpt><trkpt lat="43.86764400456966" lon="7.388286416304463"><ele>912.6</ele><time>2026-05-01T14:54:24Z</time></trkpt><trkpt lat="43.86771860850804" lon="7.388182278071225"><ele>909.0</ele><time>2026-05-01T14:54:25Z</time></trkpt><trkpt lat="43.867792953219876" lon="7.388076745683687"><ele>911.6666666666666</ele><time>2026-05-01T14:54:26Z</time></trkpt><trkpt lat="43.867866742243855" lon="7.38799464233586"><ele>914.3333333333333</ele><time>2026-05-01T14:54:27Z</time></trkpt><trkpt lat="43.867936053726226" lon="7.387907645927579"><ele>917.0</ele><time>2026-05-01T14:54:28Z</time></trkpt><trkpt lat="43.86799907822829" lon="7.3878247905620436"><ele>919.6666666666666</ele><time>2026-05-01T14:54:29Z</time></trkpt><trkpt lat="43.868036535479874" lon="7.3877450986603295"><ele>922.3333333333333</ele><time>2026-05-01T14:54:30Z</time></trkpt><trkpt lat="43.8681122321263" lon="7.387654780693482"><ele>925.0</ele><time>2026-05-01T14:54:32Z</time></trkpt><trkpt lat="43.86817880519231" lon="7.387519279991135"><ele>924.9999999999999</ele><time>2026-05-01T14:54:34Z</time></trkpt><trkpt lat="43.86819838072297" lon="7.387381216460867"><ele>925.0</ele><time>2026-05-01T14:54:36Z</time></trkpt><trkpt lat="43.86823243673816" lon="7.387302653636475"><ele>925.0</ele><time>2026-05-01T14:54:37Z</time></trkpt><trkpt lat="43.86826625777333" lon="7.387215831425776"><ele>925.0</ele><time>2026-05-01T14:54:38Z</time></trkpt><trkpt lat="43.86830670502387" lon="7.387129120877718"><ele>924.9999999999999</ele><time>2026-05-01T14:54:40Z</time></trkpt><trkpt lat="43.868330547143294" lon="7.387042375661702"><ele>925.0</ele><time>2026-05-01T14:54:41Z</time></trkpt><trkpt lat="43.86839504451767" lon="7.386914123351716"><ele>928.8</ele><time>2026-05-01T14:54:43Z</time></trkpt><trkpt lat="43.86845843701942" lon="7.3867623499325745"><ele>932.6</ele><time>2026-05-01T14:54:45Z</time></trkpt><trkpt lat="43.86848927442264" lon="7.386660743761545"><ele>936.4000000000001</ele><time>2026-05-01T14:54:46Z</time></trkpt><trkpt lat="43.86851541006332" lon="7.386551594647175"><ele>940.2</ele><time>2026-05-01T14:54:47Z</time></trkpt><trkpt lat="43.868534865989886" lon="7.3864370514214"><ele>944.0</ele><time>2026-05-01T14:54:48Z</time></trkpt><trkpt lat="43.868548173364196" lon="7.386325253700129"><ele>944.0</ele><time>2026-05-01T14:54:49Z</time></trkpt><trkpt lat="43.86855772900001" lon="7.386208274116835"><ele>944.0000000000001</ele><time>2026-05-01T14:54:50Z</time></trkpt><trkpt lat="43.8685623297978" lon="7.386081206800635"><ele>944.0000000000001</ele><time>2026-05-01T14:54:51Z</time></trkpt><trkpt lat="43.86856184321823" lon="7.3859500827057225"><ele>944.0</ele><time>2026-05-01T14:54:52Z</time></trkpt><trkpt lat="43.86854755074394" lon="7.385819328239486"><ele>944.0</ele><time>2026-05-01T14:54:53Z</time></trkpt><trkpt lat="43.868509496217264" lon="7.3856941040381665"><ele>944.0</ele><time>2026-05-01T14:54:54Z</time></trkpt><trkpt lat="43.86845515838827" lon="7.3855822705908665"><ele>944.0000000000001</ele><time>2026-05-01T14:54:55Z</time></trkpt><trkpt lat="43.86839878918005" lon="7.385462509015442"><ele>944.0000000000001</ele><time>2026-05-01T14:54:56Z</time></trkpt><trkpt lat="43.86834566019608" lon="7.385336533001535"><ele>944.0</ele><time>2026-05-01T14:54:57Z</time></trkpt><trkpt lat="43.868298939953384" lon="7.385206182586859"><ele>944.0</ele><time>2026-05-01T14:54:58Z</time></trkpt><trkpt lat="43.86825684543493" lon="7.385077408274797"><ele>934.6</ele><time>2026-05-01T14:54:59Z</time></trkpt><trkpt lat="43.86822195180598" lon="7.3849521100784425"><ele>925.2</ele><time>2026-05-01T14:55:00Z</time></trkpt><trkpt lat="43.86819785177093" lon="7.384841247354263"><ele>915.8000000000001</ele><time>2026-05-01T14:55:01Z</time></trkpt><trkpt lat="43.86819988102206" lon="7.384726550601988"><ele>906.4000000000001</ele><time>2026-05-01T14:55:02Z</time></trkpt><trkpt lat="43.86823316445563" lon="7.384612691105088"><ele>897.0</ele><time>2026-05-01T14:55:03Z</time></trkpt><trkpt lat="43.86832217789816" lon="7.3845346613792096"><ele>899.25</ele><time>2026-05-01T14:55:04Z</time></trkpt><trkpt lat="43.868422140275264" lon="7.384445434999312"><ele>901.5</ele><time>2026-05-01T14:55:05Z</time></trkpt><trkpt lat="43.868510700184714" lon="7.384313502125313"><ele>903.75</ele><time>2026-05-01T14:55:06Z</time></trkpt><trkpt lat="43.868607499087794" lon="7.384190673481102"><ele>906.0</ele><time>2026-05-01T14:55:07Z</time></trkpt><trkpt lat="43.868690730687035" lon="7.3840674806304"><ele>906.0</ele><time>2026-05-01T14:55:08Z</time></trkpt><trkpt lat="43.86878205268298" lon="7.383965488950056"><ele>906.0</ele><time>2026-05-01T14:55:09Z</time></trkpt><trkpt lat="43.868888638602336" lon="7.3838759720025795"><ele>906.0</ele><time>2026-05-01T14:55:10Z</time></trkpt><trkpt lat="43.86899700189016" lon="7.383786846112501"><ele>906.0</ele><time>2026-05-01T14:55:11Z</time></trkpt><trkpt lat="43.869090907199784" lon="7.383701070395625"><ele>907.1999999999999</ele><time>2026-05-01T14:55:12Z</time></trkpt><trkpt lat="43.86918084807568" lon="7.383623479627014"><ele>908.3999999999999</ele><time>2026-05-01T14:55:13Z</time></trkpt><trkpt lat="43.86926102695874" lon="7.383549165915183"><ele>909.6</ele><time>2026-05-01T14:55:14Z</time></trkpt><trkpt lat="43.869329725086125" lon="7.383464543907063"><ele>910.8</ele><time>2026-05-01T14:55:15Z</time></trkpt><trkpt lat="43.869383196418866" lon="7.383379544118372"><ele>912.0</ele><time>2026-05-01T14:55:16Z</time></trkpt><trkpt lat="43.86942910591929" lon="7.383293995923991"><ele>912.0</ele><time>2026-05-01T14:55:17Z</time></trkpt><trkpt lat="43.8694679960976" lon="7.383221847856213"><ele>912.0</ele><time>2026-05-01T14:55:18Z</time></trkpt><trkpt lat="43.86950169564309" lon="7.383099111727402"><ele>912.0</ele><time>2026-05-01T14:55:20Z</time></trkpt><trkpt lat="43.869517782953764" lon="7.382952479198041"><ele>912.0</ele><time>2026-05-01T14:57:58Z</time></trkpt><trkpt lat="43.86944951248303" lon="7.382828352506932"><ele>912.0</ele><time>2026-05-01T14:58:00Z</time></trkpt><trkpt lat="43.86941048260823" lon="7.382757915782674"><ele>912.0</ele><time>2026-05-01T14:58:01Z</time></trkpt><trkpt lat="43.86936557699779" lon="7.382680419293853"><ele>913.8</ele><time>2026-05-01T14:58:02Z</time></trkpt><trkpt lat="43.869308202648476" lon="7.382591198661565"><ele>915.6</ele><time>2026-05-01T14:58:03Z</time></trkpt><trkpt lat="43.86924649375756" lon="7.382486880464289"><ele>917.3999999999999</ele><time>2026-05-01T14:58:04Z</time></trkpt><trkpt lat="43.86917876090123" lon="7.382372034331414"><ele>919.1999999999999</ele><time>2026-05-01T14:58:05Z</time></trkpt><trkpt lat="43.86911381736009" lon="7.382256220831566"><ele>921.0</ele><time>2026-05-01T14:58:06Z</time></trkpt><trkpt lat="43.8690500141097" lon="7.382146035297845"><ele>915.0</ele><time>2026-05-01T14:58:07Z</time></trkpt><trkpt lat="43.86898328886219" lon="7.38203758227987"><ele>908.9999999999999</ele><time>2026-05-01T14:58:08Z</time></trkpt><trkpt lat="43.868908559937395" lon="7.381928829846013"><ele>902.9999999999999</ele><time>2026-05-01T14:58:09Z</time></trkpt><trkpt lat="43.868828497877075" lon="7.381820634733151"><ele>897.0</ele><time>2026-05-01T14:58:10Z</time></trkpt><trkpt lat="43.86874279859831" lon="7.381718761107794"><ele>891.0</ele><time>2026-05-01T14:58:11Z</time></trkpt><trkpt lat="43.86865541665807" lon="7.381615409467564"><ele>891.0</ele><time>2026-05-01T14:58:12Z</time></trkpt><trkpt lat="43.86856068639555" lon="7.3815181883558365"><ele>891.0</ele><time>2026-05-01T14:58:13Z</time></trkpt><trkpt lat="43.86845473363041" lon="7.381433942135397"><ele>891.0</ele><time>2026-05-01T14:58:14Z</time></trkpt><trkpt lat="43.868339652889944" lon="7.381355565388467"><ele>891.0</ele><time>2026-05-01T14:58:15Z</time></trkpt><trkpt lat="43.868225137413354" lon="7.381278429224108"><ele>888.0</ele><time>2026-05-01T14:58:16Z</time></trkpt><trkpt lat="43.868114338305865" lon="7.381184773639288"><ele>885.0</ele><time>2026-05-01T14:58:17Z</time></trkpt><trkpt lat="43.86800884184191" lon="7.381072404570863"><ele>882.0</ele><time>2026-05-01T14:58:18Z</time></trkpt><trkpt lat="43.86790076275289" lon="7.380955787570033"><ele>879.0</ele><time>2026-05-01T14:58:19Z</time></trkpt><trkpt lat="43.86778870943615" lon="7.3808452113824"><ele>879.0</ele><time>2026-05-01T14:58:20Z</time></trkpt><trkpt lat="43.86767521327946" lon="7.380752462917586"><ele>879.0</ele><time>2026-05-01T14:58:21Z</time></trkpt><trkpt lat="43.867556014223176" lon="7.3806776651228585"><ele>879.0</ele><time>2026-05-01T14:58:22Z</time></trkpt><trkpt lat="43.867434258628194" lon="7.38061872414008"><ele>879.0</ele><time>2026-05-01T14:58:23Z</time></trkpt><trkpt lat="43.86731239533983" lon="7.380559992828221"><ele>877.5</ele><time>2026-05-01T14:58:24Z</time></trkpt><trkpt lat="43.86719458899081" lon="7.380490808466172"><ele>876.0</ele><time>2026-05-01T14:58:25Z</time></trkpt><trkpt lat="43.867084736130856" lon="7.380411082781596"><ele>874.5</ele><time>2026-05-01T14:58:26Z</time></trkpt><trkpt lat="43.86697415554313" lon="7.380323735879018"><ele>873.0</ele><time>2026-05-01T14:58:27Z</time></trkpt><trkpt lat="43.866869288638355" lon="7.380239197790777"><ele>868.0</ele><time>2026-05-01T14:58:28Z</time></trkpt><trkpt lat="43.866763884506696" lon="7.380164333198047"><ele>863.0</ele><time>2026-05-01T14:58:29Z</time></trkpt><trkpt lat="43.866665048918314" lon="7.380096041266407"><ele>858.0</ele><time>2026-05-01T14:58:30Z</time></trkpt><trkpt lat="43.866566002406124" lon="7.380036570616546"><ele>853.0</ele><time>2026-05-01T14:58:31Z</time></trkpt><trkpt lat="43.86646871697191" lon="7.379977933949068"><ele>848.0</ele><time>2026-05-01T14:58:32Z</time></trkpt><trkpt lat="43.866377180509986" lon="7.379923066450766"><ele>848.0000000000001</ele><time>2026-05-01T14:58:33Z</time></trkpt><trkpt lat="43.86629857966187" lon="7.379871140959029"><ele>848.0</ele><time>2026-05-01T14:58:34Z</time></trkpt><trkpt lat="43.86623397246172" lon="7.379816358457691"><ele>848.0</ele><time>2026-05-01T14:58:35Z</time></trkpt><trkpt lat="43.86617915977193" lon="7.379763848401378"><ele>848.0</ele><time>2026-05-01T14:58:36Z</time></trkpt><trkpt lat="43.86609082738364" lon="7.379701171876824"><ele>848.0000000000001</ele><time>2026-05-01T14:58:38Z</time></trkpt><trkpt lat="43.86602118577059" lon="7.379779422531495"><ele>848.0</ele><time>2026-05-01T14:58:40Z</time></trkpt><trkpt lat="43.86606314802935" lon="7.379921110312436"><ele>848.0</ele><time>2026-05-01T14:58:42Z</time></trkpt><trkpt lat="43.86612523658122" lon="7.379984195781894"><ele>848.0</ele><time>2026-05-01T14:58:43Z</time></trkpt><trkpt lat="43.86620853086389" lon="7.380051694766742"><ele>848.0</ele><time>2026-05-01T14:58:44Z</time></trkpt><trkpt lat="43.866289949624644" lon="7.380160422800476"><ele>848.0</ele><time>2026-05-01T14:58:45Z</time></trkpt><trkpt lat="43.866385277224786" lon="7.380264738828676"><ele>848.0</ele><time>2026-05-01T14:58:46Z</time></trkpt><trkpt lat="43.866482377435105" lon="7.380344558371726"><ele>848.0000000000001</ele><time>2026-05-01T14:58:47Z</time></trkpt><trkpt lat="43.866560424726316" lon="7.380432884732952"><ele>848.0</ele><time>2026-05-01T14:58:48Z</time></trkpt><trkpt lat="43.86663800216236" lon="7.3805152556211775"><ele>848.0</ele><time>2026-05-01T14:58:49Z</time></trkpt><trkpt lat="43.86669775245656" lon="7.380604084800073"><ele>848.0</ele><time>2026-05-01T14:58:50Z</time></trkpt><trkpt lat="43.86676034513178" lon="7.380668273503523"><ele>848.0000000000001</ele><time>2026-05-01T14:58:51Z</time></trkpt><trkpt lat="43.86681889095035" lon="7.380722895297616"><ele>848.0</ele><time>2026-05-01T14:58:52Z</time></trkpt><trkpt lat="43.866904096253755" lon="7.380803684270782"><ele>848.0000000000001</ele><time>2026-05-01T14:58:54Z</time></trkpt><trkpt lat="43.86690502934016" lon="7.380912601384192"><ele>848.0</ele><time>2026-05-01T14:58:57Z</time></trkpt><trkpt lat="43.86680358079159" lon="7.380861768345021"><ele>848.0</ele><time>2026-05-01T14:58:59Z</time></trkpt><trkpt lat="43.866749771418725" lon="7.380797031100363"><ele>848.0</ele><time>2026-05-01T14:59:00Z</time></trkpt><trkpt lat="43.86667031574282" lon="7.380727761722211"><ele>848.0000000000001</ele><time>2026-05-01T14:59:01Z</time></trkpt><trkpt lat="43.86658858429828" lon="7.3806669533207225"><ele>848.0</ele><time>2026-05-01T14:59:02Z</time></trkpt><trkpt lat="43.86650077239816" lon="7.380601658699971"><ele>848.0000000000001</ele><time>2026-05-01T14:59:03Z</time></trkpt><trkpt lat="43.86642012511557" lon="7.380536024538865"><ele>848.0</ele><time>2026-05-01T14:59:04Z</time></trkpt><trkpt lat="43.866343077096204" lon="7.380474025430279"><ele>848.0</ele><time>2026-05-01T14:59:05Z</time></trkpt><trkpt lat="43.866270609489156" lon="7.380417496709513"><ele>848.0</ele><time>2026-05-01T14:59:06Z</time></trkpt><trkpt lat="43.86620056475573" lon="7.380360604101884"><ele>848.0000000000001</ele><time>2026-05-01T14:59:07Z</time></trkpt><trkpt lat="43.86613779578464" lon="7.380298202876399"><ele>848.0</ele><time>2026-05-01T14:59:08Z</time></trkpt><trkpt lat="43.86608308446809" lon="7.380229325856502"><ele>848.0000000000001</ele><time>2026-05-01T14:59:09Z</time></trkpt><trkpt lat="43.866032521527515" lon="7.38016784170307"><ele>848.0</ele><time>2026-05-01T14:59:10Z</time></trkpt><trkpt lat="43.865941204390026" lon="7.380111610355494"><ele>848.0</ele><time>2026-05-01T14:59:12Z</time></trkpt><trkpt lat="43.86586990031481" lon="7.380146390813222"><ele>848.0</ele><time>2026-05-01T14:59:14Z</time></trkpt><trkpt lat="43.86589222911462" lon="7.3802868761316835"><ele>848.0000000000001</ele><time>2026-05-01T14:59:15Z</time></trkpt><trkpt lat="43.86595196286925" lon="7.380354687485228"><ele>848.0</ele><time>2026-05-01T14:59:16Z</time></trkpt><trkpt lat="43.86602273203105" lon="7.380404436845954"><ele>848.0</ele><time>2026-05-01T14:59:17Z</time></trkpt><trkpt lat="43.86610145246416" lon="7.380472600578471"><ele>848.0</ele><time>2026-05-01T14:59:18Z</time></trkpt><trkpt lat="43.86617522813033" lon="7.380575445245047"><ele>848.0</ele><time>2026-05-01T14:59:19Z</time></trkpt><trkpt lat="43.866261655076634" lon="7.380642754798125"><ele>848.0</ele><time>2026-05-01T14:59:20Z</time></trkpt><trkpt lat="43.86634057855309" lon="7.380730375141462"><ele>848.0</ele><time>2026-05-01T14:59:21Z</time></trkpt><trkpt lat="43.86642070511141" lon="7.380810697216998"><ele>843.8333333333334</ele><time>2026-05-01T14:59:22Z</time></trkpt><trkpt lat="43.86649344194489" lon="7.380885973783148"><ele>839.6666666666667</ele><time>2026-05-01T14:59:23Z</time></trkpt><trkpt lat="43.86655667697354" lon="7.380971357914303"><ele>835.5</ele><time>2026-05-01T14:59:24Z</time></trkpt><trkpt lat="43.86662406090585" lon="7.381031530629408"><ele>831.3333333333333</ele><time>2026-05-01T14:59:25Z</time></trkpt><trkpt lat="43.86668357243032" lon="7.381075744154751"><ele>827.1666666666666</ele><time>2026-05-01T14:59:26Z</time></trkpt><trkpt lat="43.86675102128413" lon="7.381128455054226"><ele>823.0</ele><time>2026-05-01T14:59:28Z</time></trkpt><trkpt lat="43.86668176625423" lon="7.381097293927975"><ele>823.0</ele><time>2026-05-01T14:59:32Z</time></trkpt><trkpt lat="43.86659321613668" lon="7.381128225861097"><ele>823.0</ele><time>2026-05-01T14:59:33Z</time></trkpt><trkpt lat="43.8665292693395" lon="7.381060808616317"><ele>823.0</ele><time>2026-05-01T14:59:34Z</time></trkpt><trkpt lat="43.86645000916977" lon="7.3809955736699076"><ele>823.0</ele><time>2026-05-01T14:59:35Z</time></trkpt><trkpt lat="43.86636667917766" lon="7.380923724342806"><ele>823.0</ele><time>2026-05-01T14:59:36Z</time></trkpt><trkpt lat="43.866287042788954" lon="7.3808590239914045"><ele>822.9999999999999</ele><time>2026-05-01T14:59:37Z</time></trkpt><trkpt lat="43.866205290081744" lon="7.380786743120455"><ele>823.0</ele><time>2026-05-01T14:59:38Z</time></trkpt><trkpt lat="43.86612949456071" lon="7.3807188698253725"><ele>823.0</ele><time>2026-05-01T14:59:39Z</time></trkpt><trkpt lat="43.86606181843073" lon="7.380660012436559"><ele>823.0</ele><time>2026-05-01T14:59:40Z</time></trkpt><trkpt lat="43.86600246722009" lon="7.380603814945467"><ele>822.9999999999999</ele><time>2026-05-01T14:59:41Z</time></trkpt><trkpt lat="43.86591678133559" lon="7.380546592533457"><ele>823.0</ele><time>2026-05-01T14:59:43Z</time></trkpt><trkpt lat="43.86586003281295" lon="7.380587248788863"><ele>823.0</ele><time>2026-05-01T14:59:45Z</time></trkpt><trkpt lat="43.86586992726941" lon="7.3807430253793775"><ele>823.0</ele><time>2026-05-01T14:59:46Z</time></trkpt><trkpt lat="43.865946597217565" lon="7.380823848159641"><ele>823.0</ele><time>2026-05-01T14:59:47Z</time></trkpt><trkpt lat="43.866022138773346" lon="7.380907569130195"><ele>823.0</ele><time>2026-05-01T14:59:48Z</time></trkpt><trkpt lat="43.86610769767316" lon="7.381000933034652"><ele>823.0</ele><time>2026-05-01T14:59:49Z</time></trkpt><trkpt lat="43.86619050794788" lon="7.381099720683228"><ele>822.9999999999999</ele><time>2026-05-01T14:59:50Z</time></trkpt><trkpt lat="43.866247707196315" lon="7.381192861908104"><ele>823.0</ele><time>2026-05-01T14:59:51Z</time></trkpt><trkpt lat="43.86629422488565" lon="7.3812520337004255"><ele>823.0</ele><time>2026-05-01T14:59:52Z</time></trkpt><trkpt lat="43.86637748293579" lon="7.381352648464873"><ele>823.0</ele><time>2026-05-01T14:59:54Z</time></trkpt><trkpt lat="43.86641087112707" lon="7.38142904793971"><ele>822.9999999999999</ele><time>2026-05-01T14:59:56Z</time></trkpt><trkpt lat="43.86629285686925" lon="7.381431185184759"><ele>823.0</ele><time>2026-05-01T14:59:59Z</time></trkpt><trkpt lat="43.86623558576624" lon="7.381332320326313"><ele>823.0</ele><time>2026-05-01T15:00:00Z</time></trkpt><trkpt lat="43.86617178482184" lon="7.381230385798512"><ele>823.0</ele><time>2026-05-01T15:00:01Z</time></trkpt><trkpt lat="43.86609253512309" lon="7.3811272109360315"><ele>823.0</ele><time>2026-05-01T15:00:02Z</time></trkpt><trkpt lat="43.866021095524005" lon="7.381040745174604"><ele>823.0</ele><time>2026-05-01T15:00:03Z</time></trkpt><trkpt lat="43.86595343413977" lon="7.380951475413433"><ele>823.0</ele><time>2026-05-01T15:00:04Z</time></trkpt><trkpt lat="43.86589783649519" lon="7.3808680486816245"><ele>816.4</ele><time>2026-05-01T15:00:05Z</time></trkpt><trkpt lat="43.865849928195146" lon="7.380798317637485"><ele>809.8</ele><time>2026-05-01T15:00:06Z</time></trkpt><trkpt lat="43.86575893057742" lon="7.380722724997963"><ele>803.2</ele><time>2026-05-01T15:00:08Z</time></trkpt><trkpt lat="43.865721518131956" lon="7.380913307104768"><ele>796.6</ele><time>2026-05-01T15:00:11Z</time></trkpt><trkpt lat="43.86578787715915" lon="7.380976696053346"><ele>790.0</ele><time>2026-05-01T15:00:12Z</time></trkpt><trkpt lat="43.8658436799711" lon="7.381040768335116"><ele>789.9999999999999</ele><time>2026-05-01T15:00:13Z</time></trkpt><trkpt lat="43.86589362697335" lon="7.3810977103660385"><ele>790.0</ele><time>2026-05-01T15:00:14Z</time></trkpt><trkpt lat="43.865956977427984" lon="7.3811740557896375"><ele>790.0</ele><time>2026-05-01T15:00:16Z</time></trkpt><trkpt lat="43.86591408101686" lon="7.381248938020849"><ele>790.0</ele><time>2026-05-01T15:00:19Z</time></trkpt><trkpt lat="43.86581460765546" lon="7.381124940466184"><ele>789.9999999999999</ele><time>2026-05-01T15:00:21Z</time></trkpt><trkpt lat="43.86575762726873" lon="7.381032691160358"><ele>790.0</ele><time>2026-05-01T15:00:22Z</time></trkpt><trkpt lat="43.86569024778321" lon="7.380937881864824"><ele>790.0</ele><time>2026-05-01T15:00:23Z</time></trkpt><trkpt lat="43.86563629065592" lon="7.380844950485588"><ele>790.0</ele><time>2026-05-01T15:00:24Z</time></trkpt><trkpt lat="43.865603289222776" lon="7.38074377330457"><ele>790.0</ele><time>2026-05-01T15:00:25Z</time></trkpt><trkpt lat="43.86558972849088" lon="7.380616945623233"><ele>790.0</ele><time>2026-05-01T15:00:26Z</time></trkpt><trkpt lat="43.865592277958456" lon="7.380471987230624"><ele>790.0</ele><time>2026-05-01T15:00:27Z</time></trkpt><trkpt lat="43.86558471550395" lon="7.380328913642348"><ele>794.8</ele><time>2026-05-01T15:00:28Z</time></trkpt><trkpt lat="43.86555932145133" lon="7.380210158276023"><ele>799.6</ele><time>2026-05-01T15:00:29Z</time></trkpt><trkpt lat="43.86552307177559" lon="7.38007385209221"><ele>804.4000000000001</ele><time>2026-05-01T15:00:30Z</time></trkpt><trkpt lat="43.86548136558614" lon="7.3799441764086335"><ele>809.2</ele><time>2026-05-01T15:00:31Z</time></trkpt><trkpt lat="43.865434540747685" lon="7.3798193392870655"><ele>814.0</ele><time>2026-05-01T15:00:32Z</time></trkpt><trkpt lat="43.865385723514834" lon="7.379685112239043"><ele>820.0</ele><time>2026-05-01T15:00:33Z</time></trkpt><trkpt lat="43.86531804276642" lon="7.379546977977552"><ele>826.0</ele><time>2026-05-01T15:00:34Z</time></trkpt><trkpt lat="43.86524963998869" lon="7.37941379426751"><ele>832.0</ele><time>2026-05-01T15:00:35Z</time></trkpt><trkpt lat="43.8651792862624" lon="7.379291943337127"><ele>838.0</ele><time>2026-05-01T15:00:36Z</time></trkpt><trkpt lat="43.86509601953493" lon="7.379183536027265"><ele>828.8</ele><time>2026-05-01T15:00:37Z</time></trkpt><trkpt lat="43.86501272841158" lon="7.3790859536455"><ele>819.5999999999999</ele><time>2026-05-01T15:00:38Z</time></trkpt><trkpt lat="43.86492747659603" lon="7.3789949318125885"><ele>810.4000000000001</ele><time>2026-05-01T15:00:39Z</time></trkpt><trkpt lat="43.8648475894942" lon="7.378907182383876"><ele>801.2</ele><time>2026-05-01T15:00:40Z</time></trkpt><trkpt lat="43.86477165814083" lon="7.378808455905454"><ele>792.0</ele><time>2026-05-01T15:00:41Z</time></trkpt><trkpt lat="43.86471000254928" lon="7.378693279123648"><ele>792.0</ele><time>2026-05-01T15:00:42Z</time></trkpt><trkpt lat="43.864664849650694" lon="7.3785627162157486"><ele>792.0</ele><time>2026-05-01T15:00:43Z</time></trkpt><trkpt lat="43.86464015730276" lon="7.37841096215803"><ele>792.0</ele><time>2026-05-01T15:00:44Z</time></trkpt><trkpt lat="43.86462972872573" lon="7.378247560438368"><ele>792.0</ele><time>2026-05-01T15:00:45Z</time></trkpt><trkpt lat="43.864622834927445" lon="7.378102046845379"><ele>792.0</ele><time>2026-05-01T15:00:46Z</time></trkpt><trkpt lat="43.864593198639525" lon="7.377971273679214"><ele>790.2</ele><time>2026-05-01T15:00:47Z</time></trkpt><trkpt lat="43.864561998778306" lon="7.37784519910631"><ele>788.4000000000001</ele><time>2026-05-01T15:00:48Z</time></trkpt><trkpt lat="43.8645430167882" lon="7.377721180565735"><ele>786.5999999999999</ele><time>2026-05-01T15:00:49Z</time></trkpt><trkpt lat="43.86455198501133" lon="7.377598041073462"><ele>784.8</ele><time>2026-05-01T15:00:50Z</time></trkpt><trkpt lat="43.8646013282938" lon="7.377483745167419"><ele>783.0</ele><time>2026-05-01T15:00:51Z</time></trkpt><trkpt lat="43.86466881449204" lon="7.377390244085213"><ele>783.0</ele><time>2026-05-01T15:00:52Z</time></trkpt><trkpt lat="43.86473145073195" lon="7.377312206531648"><ele>783.0</ele><time>2026-05-01T15:00:53Z</time></trkpt><trkpt lat="43.86477973778334" lon="7.377250383236612"><ele>783.0</ele><time>2026-05-01T15:00:54Z</time></trkpt><trkpt lat="43.86481096039795" lon="7.3771290369485465"><ele>783.0</ele><time>2026-05-01T15:00:56Z</time></trkpt><trkpt lat="43.86475129497269" lon="7.377061524031548"><ele>783.0</ele><time>2026-05-01T15:00:58Z</time></trkpt><trkpt lat="43.86465093659388" lon="7.3771018550878145"><ele>783.0</ele><time>2026-05-01T15:00:59Z</time></trkpt><trkpt lat="43.864597221761905" lon="7.37721119322297"><ele>783.0</ele><time>2026-05-01T15:01:00Z</time></trkpt><trkpt lat="43.86452926411529" lon="7.377301245038238"><ele>783.0</ele><time>2026-05-01T15:01:01Z</time></trkpt><trkpt lat="43.86445692125088" lon="7.377396967062365"><ele>783.0</ele><time>2026-05-01T15:01:02Z</time></trkpt><trkpt lat="43.86438374736363" lon="7.3774879279383185"><ele>783.0</ele><time>2026-05-01T15:01:03Z</time></trkpt><trkpt lat="43.86431948441884" lon="7.377573892160659"><ele>783.0</ele><time>2026-05-01T15:01:04Z</time></trkpt><trkpt lat="43.864271849362524" lon="7.377671674259793"><ele>784.8</ele><time>2026-05-01T15:01:05Z</time></trkpt><trkpt lat="43.86424036121307" lon="7.377780513757912"><ele>786.5999999999999</ele><time>2026-05-01T15:01:06Z</time></trkpt><trkpt lat="43.86424574240081" lon="7.377903682246624"><ele>788.4000000000001</ele><time>2026-05-01T15:01:07Z</time></trkpt><trkpt lat="43.864275967275866" lon="7.378034344738646"><ele>790.2</ele><time>2026-05-01T15:01:08Z</time></trkpt><trkpt lat="43.864333490888534" lon="7.378166413707714"><ele>792.0</ele><time>2026-05-01T15:01:09Z</time></trkpt><trkpt lat="43.86438024136957" lon="7.3783062643798205"><ele>792.0</ele><time>2026-05-01T15:01:10Z</time></trkpt><trkpt lat="43.86441099687418" lon="7.378448644118547"><ele>792.0</ele><time>2026-05-01T15:01:11Z</time></trkpt><trkpt lat="43.86443564261164" lon="7.378600880998529"><ele>792.0</ele><time>2026-05-01T15:01:12Z</time></trkpt><trkpt lat="43.86445618947473" lon="7.378749618441359"><ele>792.0</ele><time>2026-05-01T15:01:13Z</time></trkpt><trkpt lat="43.8644801725949" lon="7.378907630422637"><ele>792.0</ele><time>2026-05-01T15:01:14Z</time></trkpt><trkpt lat="43.864523561176" lon="7.37906160895532"><ele>789.75</ele><time>2026-05-01T15:01:15Z</time></trkpt><trkpt lat="43.86458735389952" lon="7.379211595819828"><ele>787.5</ele><time>2026-05-01T15:01:16Z</time></trkpt><trkpt lat="43.86467101927476" lon="7.3793526398957185"><ele>785.25</ele><time>2026-05-01T15:01:17Z</time></trkpt><trkpt lat="43.86475974426247" lon="7.379477201017054"><ele>783.0</ele><time>2026-05-01T15:01:18Z</time></trkpt><trkpt lat="43.864840838233654" lon="7.379599470896365"><ele>776.0</ele><time>2026-05-01T15:01:19Z</time></trkpt><trkpt lat="43.86487825647156" lon="7.379748530526281"><ele>769.0</ele><time>2026-05-01T15:01:20Z</time></trkpt><trkpt lat="43.86492405174141" lon="7.379898370997893"><ele>762.0</ele><time>2026-05-01T15:01:21Z</time></trkpt><trkpt lat="43.86496526694197" lon="7.380049233022915"><ele>755.0</ele><time>2026-05-01T15:01:22Z</time></trkpt><trkpt lat="43.86499948641906" lon="7.380196656188457"><ele>755.0</ele><time>2026-05-01T15:01:23Z</time></trkpt><trkpt lat="43.865025549850394" lon="7.380353574076879"><ele>755.0</ele><time>2026-05-01T15:01:24Z</time></trkpt><trkpt lat="43.865040511029854" lon="7.38051584451404"><ele>755.0</ele><time>2026-05-01T15:01:25Z</time></trkpt><trkpt lat="43.865049947160315" lon="7.3806729576901295"><ele>755.0</ele><time>2026-05-01T15:01:26Z</time></trkpt><trkpt lat="43.865050651700585" lon="7.38082612995126"><ele>757.4</ele><time>2026-05-01T15:01:27Z</time></trkpt><trkpt lat="43.86503180105357" lon="7.38096982926043"><ele>759.8</ele><time>2026-05-01T15:01:28Z</time></trkpt><trkpt lat="43.86502710966562" lon="7.3811110105199935"><ele>762.2</ele><time>2026-05-01T15:01:29Z</time></trkpt><trkpt lat="43.865060669864164" lon="7.381257767712881"><ele>764.6</ele><time>2026-05-01T15:01:30Z</time></trkpt><trkpt lat="43.86509973928951" lon="7.38137929432246"><ele>767.0</ele><time>2026-05-01T15:01:31Z</time></trkpt><trkpt lat="43.86513419161392" lon="7.381472534881299"><ele>767.0</ele><time>2026-05-01T15:01:32Z</time></trkpt><trkpt lat="43.865176934924435" lon="7.381594361433035"><ele>767.0</ele><time>2026-05-01T15:01:34Z</time></trkpt><trkpt lat="43.86510114777053" lon="7.381530982393722"><ele>767.0</ele><time>2026-05-01T15:01:38Z</time></trkpt><trkpt lat="43.86506958191599" lon="7.381436862063558"><ele>767.0</ele><time>2026-05-01T15:01:39Z</time></trkpt><trkpt lat="43.8650354078663" lon="7.38131871144878"><ele>767.0</ele><time>2026-05-01T15:01:40Z</time></trkpt><trkpt lat="43.864992706623966" lon="7.3811867559014415"><ele>764.6</ele><time>2026-05-01T15:01:41Z</time></trkpt><trkpt lat="43.86496578026377" lon="7.381050275905428"><ele>762.2</ele><time>2026-05-01T15:01:42Z</time></trkpt><trkpt lat="43.86496493486364" lon="7.38089115849423"><ele>759.8</ele><time>2026-05-01T15:01:43Z</time></trkpt><trkpt lat="43.86497051412947" lon="7.380743514962811"><ele>757.4</ele><time>2026-05-01T15:01:44Z</time></trkpt><trkpt lat="43.86494737766232" lon="7.380588628504523"><ele>755.0</ele><time>2026-05-01T15:01:45Z</time></trkpt><trkpt lat="43.8649169170178" lon="7.380421345512336"><ele>755.0</ele><time>2026-05-01T15:01:46Z</time></trkpt><trkpt lat="43.864870475528924" lon="7.380259107201151"><ele>755.0</ele><time>2026-05-01T15:01:47Z</time></trkpt><trkpt lat="43.86481778043959" lon="7.380104144367234"><ele>755.0</ele><time>2026-05-01T15:01:48Z</time></trkpt><trkpt lat="43.86475233998178" lon="7.379960666939784"><ele>755.0</ele><time>2026-05-01T15:01:49Z</time></trkpt><trkpt lat="43.86467396396182" lon="7.379827480082133"><ele>755.0</ele><time>2026-05-01T15:01:50Z</time></trkpt><trkpt lat="43.864583564879304" lon="7.379701360190303"><ele>755.0</ele><time>2026-05-01T15:01:51Z</time></trkpt><trkpt lat="43.86448384801222" lon="7.379580483467781"><ele>755.0</ele><time>2026-05-01T15:01:52Z</time></trkpt><trkpt lat="43.864388353601534" lon="7.379457434373413"><ele>755.0</ele><time>2026-05-01T15:01:53Z</time></trkpt><trkpt lat="43.864298104109" lon="7.379333288450806"><ele>751.25</ele><time>2026-05-01T15:01:54Z</time></trkpt><trkpt lat="43.864213239674044" lon="7.3792088077391425"><ele>747.5</ele><time>2026-05-01T15:01:55Z</time></trkpt><trkpt lat="43.864132413795986" lon="7.3790779597945875"><ele>743.75</ele><time>2026-05-01T15:01:56Z</time></trkpt><trkpt lat="43.86405602355883" lon="7.378947400947611"><ele>740.0</ele><time>2026-05-01T15:01:57Z</time></trkpt><trkpt lat="43.863978676208795" lon="7.378827796583346"><ele>740.0</ele><time>2026-05-01T15:01:58Z</time></trkpt><trkpt lat="43.86388671097712" lon="7.378738588897526"><ele>740.0</ele><time>2026-05-01T15:01:59Z</time></trkpt><trkpt lat="43.86378067809598" lon="7.3786810106646605"><ele>740.0</ele><time>2026-05-01T15:02:00Z</time></trkpt><trkpt lat="43.86367396774513" lon="7.378656896499253"><ele>740.0</ele><time>2026-05-01T15:02:01Z</time></trkpt><trkpt lat="43.86357099822557" lon="7.378626752768946"><ele>740.0</ele><time>2026-05-01T15:02:02Z</time></trkpt><trkpt lat="43.86347959018043" lon="7.3785780946225845"><ele>731.4</ele><time>2026-05-01T15:02:03Z</time></trkpt><trkpt lat="43.863405385091696" lon="7.378496577058957"><ele>722.8</ele><time>2026-05-01T15:02:04Z</time></trkpt><trkpt lat="43.863357533570955" lon="7.378377841992694"><ele>714.2</ele><time>2026-05-01T15:02:05Z</time></trkpt><trkpt lat="43.863371248378144" lon="7.3782338089312205"><ele>705.6</ele><time>2026-05-01T15:02:06Z</time></trkpt><trkpt lat="43.86336827161627" lon="7.378081614248241"><ele>697.0</ele><time>2026-05-01T15:02:07Z</time></trkpt><trkpt lat="43.86339056743949" lon="7.3779359677082725"><ele>697.0</ele><time>2026-05-01T15:02:08Z</time></trkpt><trkpt lat="43.86340751358687" lon="7.377791751394862"><ele>697.0</ele><time>2026-05-01T15:02:09Z</time></trkpt><trkpt lat="43.86342108817512" lon="7.3776525894038425"><ele>697.0</ele><time>2026-05-01T15:02:10Z</time></trkpt><trkpt lat="43.863440653945545" lon="7.377523838913218"><ele>697.0</ele><time>2026-05-01T15:02:11Z</time></trkpt><trkpt lat="43.863465795773635" lon="7.377417972244784"><ele>697.0</ele><time>2026-05-01T15:02:12Z</time></trkpt><trkpt lat="43.86348964567668" lon="7.377327463909795"><ele>697.0</ele><time>2026-05-01T15:02:13Z</time></trkpt><trkpt lat="43.86347852349113" lon="7.377196440423613"><ele>697.0</ele><time>2026-05-01T15:02:15Z</time></trkpt><trkpt lat="43.863375043156815" lon="7.377210606649553"><ele>697.0</ele><time>2026-05-01T15:02:17Z</time></trkpt><trkpt lat="43.863342545715476" lon="7.377287333649452"><ele>697.0</ele><time>2026-05-01T15:02:18Z</time></trkpt><trkpt lat="43.86333193936254" lon="7.377394606766503"><ele>697.0</ele><time>2026-05-01T15:02:19Z</time></trkpt><trkpt lat="43.863305921605516" lon="7.377501176946747"><ele>697.0</ele><time>2026-05-01T15:02:20Z</time></trkpt><trkpt lat="43.86329658222538" lon="7.377593603543025"><ele>697.0</ele><time>2026-05-01T15:02:21Z</time></trkpt><trkpt lat="43.8632849456333" lon="7.377715056620475"><ele>697.0</ele><time>2026-05-01T15:02:23Z</time></trkpt><trkpt lat="43.86320205989849" lon="7.377646103433628"><ele>697.0</ele><time>2026-05-01T15:02:26.001Z</time></trkpt><trkpt lat="43.863212205647926" lon="7.377555270982906"><ele>697.0</ele><time>2026-05-01T15:02:27.001Z</time></trkpt><trkpt lat="43.86324686887019" lon="7.377449247863803"><ele>697.0</ele><time>2026-05-01T15:02:28.001Z</time></trkpt><trkpt lat="43.863280389242526" lon="7.377338652325917"><ele>697.0</ele><time>2026-05-01T15:02:29.001Z</time></trkpt><trkpt lat="43.86332545391127" lon="7.3772113495655445"><ele>700.75</ele><time>2026-05-01T15:02:30.001Z</time></trkpt><trkpt lat="43.86338634743447" lon="7.377085182969524"><ele>704.5</ele><time>2026-05-01T15:02:31.001Z</time></trkpt><trkpt lat="43.86346184530754" lon="7.376961584806705"><ele>708.25</ele><time>2026-05-01T15:02:32.001Z</time></trkpt><trkpt lat="43.86355469559248" lon="7.376850915146613"><ele>712.0</ele><time>2026-05-01T15:02:33.001Z</time></trkpt><trkpt lat="43.86364356626228" lon="7.376737234578416"><ele>712.0</ele><time>2026-05-01T15:02:34.001Z</time></trkpt><trkpt lat="43.86372807497803" lon="7.376618618779986"><ele>712.0</ele><time>2026-05-01T15:02:35.001Z</time></trkpt><trkpt lat="43.86380557529115" lon="7.3765029609972945"><ele>712.0</ele><time>2026-05-01T15:02:36.001Z</time></trkpt><trkpt lat="43.86387170855142" lon="7.376392908042264"><ele>712.0</ele><time>2026-05-01T15:02:37.001Z</time></trkpt><trkpt lat="43.863929847074125" lon="7.3762801233470565"><ele>712.0</ele><time>2026-05-01T15:02:38.001Z</time></trkpt><trkpt lat="43.86397980840196" lon="7.376161951313721"><ele>708.0</ele><time>2026-05-01T15:02:39.001Z</time></trkpt><trkpt lat="43.864025198834035" lon="7.376043995624261"><ele>704.0</ele><time>2026-05-01T15:02:40.001Z</time></trkpt><trkpt lat="43.864079892275576" lon="7.375919055667266"><ele>700.0</ele><time>2026-05-01T15:02:41.001Z</time></trkpt><trkpt lat="43.86413701618416" lon="7.375797848959893"><ele>696.0</ele><time>2026-05-01T15:02:42.001Z</time></trkpt><trkpt lat="43.864187486263226" lon="7.375689127605326"><ele>692.0</ele><time>2026-05-01T15:02:43.001Z</time></trkpt><trkpt lat="43.864231713736295" lon="7.375586813626132"><ele>692.0</ele><time>2026-05-01T15:02:44.001Z</time></trkpt><trkpt lat="43.864267512993806" lon="7.375490800245423"><ele>692.0</ele><time>2026-05-01T15:02:45.001Z</time></trkpt><trkpt lat="43.864275702497444" lon="7.375399180088299"><ele>692.0</ele><time>2026-05-01T15:02:46.001Z</time></trkpt><trkpt lat="43.8642669525638" lon="7.375277088666373"><ele>692.0</ele><time>2026-05-01T15:02:48Z</time></trkpt><trkpt lat="43.86414871816705" lon="7.375322048648009"><ele>692.0</ele><time>2026-05-01T15:02:50Z</time></trkpt><trkpt lat="43.86408815882339" lon="7.375399818977754"><ele>692.0</ele><time>2026-05-01T15:02:51Z</time></trkpt><trkpt lat="43.86405911118445" lon="7.375534250686357"><ele>692.0</ele><time>2026-05-01T15:02:52Z</time></trkpt><trkpt lat="43.86400739530008" lon="7.375660077621191"><ele>692.0</ele><time>2026-05-01T15:02:53Z</time></trkpt><trkpt lat="43.8639434435753" lon="7.375794312956285"><ele>692.0</ele><time>2026-05-01T15:02:54Z</time></trkpt><trkpt lat="43.86384830002787" lon="7.375922814130655"><ele>692.0</ele><time>2026-05-01T15:02:55Z</time></trkpt><trkpt lat="43.8637752166855" lon="7.376076285119957"><ele>692.0</ele><time>2026-05-01T15:02:56Z</time></trkpt><trkpt lat="43.863687960989836" lon="7.376196612094473"><ele>692.0</ele><time>2026-05-01T15:02:57Z</time></trkpt><trkpt lat="43.86358277333503" lon="7.376289429965453"><ele>692.0</ele><time>2026-05-01T15:02:58Z</time></trkpt><trkpt lat="43.86349555433443" lon="7.376404905385292"><ele>692.0</ele><time>2026-05-01T15:02:59Z</time></trkpt><trkpt lat="43.8633980119313" lon="7.3764901190728445"><ele>689.8</ele><time>2026-05-01T15:03:00Z</time></trkpt><trkpt lat="43.86330432876105" lon="7.376576812536837"><ele>687.6</ele><time>2026-05-01T15:03:01Z</time></trkpt><trkpt lat="43.863215984709576" lon="7.37666179041667"><ele>685.4</ele><time>2026-05-01T15:03:02Z</time></trkpt><trkpt lat="43.86313200835933" lon="7.376748369409524"><ele>683.1999999999999</ele><time>2026-05-01T15:03:03Z</time></trkpt><trkpt lat="43.86305997471902" lon="7.376831571396093"><ele>681.0</ele><time>2026-05-01T15:03:04Z</time></trkpt><trkpt lat="43.862981328417284" lon="7.3768896081616155"><ele>681.0</ele><time>2026-05-01T15:03:05Z</time></trkpt><trkpt lat="43.862922135555024" lon="7.3769753073055195"><ele>681.0</ele><time>2026-05-01T15:03:06Z</time></trkpt><trkpt lat="43.86287861365345" lon="7.377053022355014"><ele>681.0</ele><time>2026-05-01T15:03:07Z</time></trkpt><trkpt lat="43.8628186272497" lon="7.377157228430783"><ele>681.0</ele><time>2026-05-01T15:03:09Z</time></trkpt><trkpt lat="43.86273011042479" lon="7.377098824389484"><ele>681.0</ele><time>2026-05-01T15:03:12Z</time></trkpt><trkpt lat="43.862792155247924" lon="7.376987093843912"><ele>681.0</ele><time>2026-05-01T15:03:13Z</time></trkpt><trkpt lat="43.862847074201554" lon="7.376908622935532"><ele>681.0</ele><time>2026-05-01T15:03:14Z</time></trkpt><trkpt lat="43.862921077278685" lon="7.3768103321277625"><ele>681.0</ele><time>2026-05-01T15:03:15Z</time></trkpt><trkpt lat="43.86298249293112" lon="7.376708608362803"><ele>681.0</ele><time>2026-05-01T15:03:16Z</time></trkpt><trkpt lat="43.86305801814792" lon="7.376579355273057"><ele>681.0</ele><time>2026-05-01T15:03:17Z</time></trkpt><trkpt lat="43.86313895475165" lon="7.376440790192846"><ele>683.75</ele><time>2026-05-01T15:03:18Z</time></trkpt><trkpt lat="43.86322679157331" lon="7.376282097777367"><ele>686.5</ele><time>2026-05-01T15:03:19Z</time></trkpt><trkpt lat="43.86331526520883" lon="7.376134164117822"><ele>689.25</ele><time>2026-05-01T15:03:20Z</time></trkpt><trkpt lat="43.86340235127278" lon="7.376000324829081"><ele>692.0</ele><time>2026-05-01T15:03:21Z</time></trkpt><trkpt lat="43.8634889386071" lon="7.375884091452341"><ele>692.0</ele><time>2026-05-01T15:03:22Z</time></trkpt><trkpt lat="43.86357157327822" lon="7.37578301446169"><ele>692.0</ele><time>2026-05-01T15:03:23Z</time></trkpt><trkpt lat="43.8636524336005" lon="7.375694260722992"><ele>692.0</ele><time>2026-05-01T15:03:24Z</time></trkpt><trkpt lat="43.86372885178771" lon="7.375628572181339"><ele>692.0</ele><time>2026-05-01T15:03:25Z</time></trkpt><trkpt lat="43.863795294579724" lon="7.375575761413878"><ele>692.0</ele><time>2026-05-01T15:03:26Z</time></trkpt><trkpt lat="43.863842479566514" lon="7.375448740522891"><ele>692.0</ele><time>2026-05-01T15:03:28Z</time></trkpt><trkpt lat="43.863750257557136" lon="7.375380233612292"><ele>692.0</ele><time>2026-05-01T15:03:30Z</time></trkpt><trkpt lat="43.86360435286593" lon="7.375489490485651"><ele>692.0</ele><time>2026-05-01T15:03:32Z</time></trkpt><trkpt lat="43.86350573926735" lon="7.3755604434069655"><ele>692.0</ele><time>2026-05-01T15:03:33Z</time></trkpt><trkpt lat="43.86339921473797" lon="7.375639938717082"><ele>684.5</ele><time>2026-05-01T15:03:34Z</time></trkpt><trkpt lat="43.86328699553097" lon="7.375728606443107"><ele>677.0</ele><time>2026-05-01T15:03:35Z</time></trkpt><trkpt lat="43.86318234591352" lon="7.375846104467861"><ele>669.5</ele><time>2026-05-01T15:03:36Z</time></trkpt><trkpt lat="43.8630714083753" lon="7.3759621273472025"><ele>662.0</ele><time>2026-05-01T15:03:37Z</time></trkpt><trkpt lat="43.86294994357467" lon="7.376053826026155"><ele>662.0</ele><time>2026-05-01T15:03:38Z</time></trkpt><trkpt lat="43.86282983253107" lon="7.3761364297315986"><ele>662.0</ele><time>2026-05-01T15:03:39Z</time></trkpt><trkpt lat="43.86271206224579" lon="7.376220261298282"><ele>662.0</ele><time>2026-05-01T15:03:40Z</time></trkpt><trkpt lat="43.86259941088194" lon="7.376322114402032"><ele>662.0</ele><time>2026-05-01T15:03:41Z</time></trkpt><trkpt lat="43.86248479619144" lon="7.3763987478904705"><ele>660.25</ele><time>2026-05-01T15:03:42Z</time></trkpt><trkpt lat="43.86237186876035" lon="7.376481270029364"><ele>658.5</ele><time>2026-05-01T15:03:43Z</time></trkpt><trkpt lat="43.86225735729999" lon="7.376556565729202"><ele>656.75</ele><time>2026-05-01T15:03:44Z</time></trkpt><trkpt lat="43.86213963826382" lon="7.376630846754051"><ele>655.0</ele><time>2026-05-01T15:03:45Z</time></trkpt><trkpt lat="43.862024724117035" lon="7.376696733359114"><ele>655.0</ele><time>2026-05-01T15:03:46Z</time></trkpt><trkpt lat="43.86191133010796" lon="7.376754463603297"><ele>655.0</ele><time>2026-05-01T15:03:47Z</time></trkpt><trkpt lat="43.86180659369954" lon="7.376805122856485"><ele>655.0</ele><time>2026-05-01T15:03:48Z</time></trkpt><trkpt lat="43.861710285085245" lon="7.37685186780229"><ele>655.0</ele><time>2026-05-01T15:03:49Z</time></trkpt><trkpt lat="43.861619356446916" lon="7.376887231772664"><ele>655.0</ele><time>2026-05-01T15:03:50Z</time></trkpt><trkpt lat="43.86152921344444" lon="7.376881949819481"><ele>652.8333333333334</ele><time>2026-05-01T15:03:51Z</time></trkpt><trkpt lat="43.86144680849702" lon="7.376867034328292"><ele>650.6666666666667</ele><time>2026-05-01T15:03:52Z</time></trkpt><trkpt lat="43.86136642433241" lon="7.376827098339019"><ele>648.5</ele><time>2026-05-01T15:03:53Z</time></trkpt><trkpt lat="43.86128094128967" lon="7.376791724466909"><ele>646.3333333333334</ele><time>2026-05-01T15:03:54Z</time></trkpt><trkpt lat="43.86120093065562" lon="7.37675386563296"><ele>644.1666666666666</ele><time>2026-05-01T15:03:55Z</time></trkpt><trkpt lat="43.86111972724125" lon="7.376747811958228"><ele>642.0</ele><time>2026-05-01T15:03:56Z</time></trkpt><trkpt lat="43.86103608421437" lon="7.376778282900297"><ele>642.0</ele><time>2026-05-01T15:03:57Z</time></trkpt><trkpt lat="43.86096336711076" lon="7.376852038958626"><ele>642.0</ele><time>2026-05-01T15:03:58Z</time></trkpt><trkpt lat="43.8609117465991" lon="7.3769654800214814"><ele>642.0</ele><time>2026-05-01T15:03:59Z</time></trkpt><trkpt lat="43.86088292809786" lon="7.37709113847014"><ele>642.0</ele><time>2026-05-01T15:04:00Z</time></trkpt><trkpt lat="43.86087119169261" lon="7.377214063804827"><ele>642.0</ele><time>2026-05-01T15:04:01Z</time></trkpt><trkpt lat="43.860885380821685" lon="7.377324589610582"><ele>640.8333333333334</ele><time>2026-05-01T15:04:02Z</time></trkpt><trkpt lat="43.860940854082266" lon="7.377426116273781"><ele>639.6666666666666</ele><time>2026-05-01T15:04:03Z</time></trkpt><trkpt lat="43.86102082158326" lon="7.377494283663831"><ele>638.5</ele><time>2026-05-01T15:04:04Z</time></trkpt><trkpt lat="43.86110551922104" lon="7.377524917975024"><ele>637.3333333333333</ele><time>2026-05-01T15:04:05Z</time></trkpt><trkpt lat="43.86117463649905" lon="7.377540210250179"><ele>636.1666666666666</ele><time>2026-05-01T15:04:06Z</time></trkpt><trkpt lat="43.86124300723945" lon="7.3775956606664845"><ele>635.0</ele><time>2026-05-01T15:04:08Z</time></trkpt><trkpt lat="43.86117833430936" lon="7.37770153024535"><ele>635.0</ele><time>2026-05-01T15:04:10Z</time></trkpt><trkpt lat="43.861108410546215" lon="7.377689666461269"><ele>635.0</ele><time>2026-05-01T15:04:11Z</time></trkpt><trkpt lat="43.86103833600384" lon="7.377707186744363"><ele>635.0</ele><time>2026-05-01T15:04:12Z</time></trkpt><trkpt lat="43.86096674141221" lon="7.377677559693277"><ele>635.0</ele><time>2026-05-01T15:04:13Z</time></trkpt><trkpt lat="43.8608925103987" lon="7.3776325573803945"><ele>635.0</ele><time>2026-05-01T15:04:14Z</time></trkpt><trkpt lat="43.86081422526882" lon="7.377569891188998"><ele>635.0</ele><time>2026-05-01T15:04:15Z</time></trkpt><trkpt lat="43.86075057537072" lon="7.377505245118083"><ele>634.3333333333333</ele><time>2026-05-01T15:04:16Z</time></trkpt><trkpt lat="43.8606986174076" lon="7.377428398915623"><ele>633.6666666666666</ele><time>2026-05-01T15:04:17Z</time></trkpt><trkpt lat="43.86065329047977" lon="7.377341411656632"><ele>633.0</ele><time>2026-05-01T15:04:18Z</time></trkpt><trkpt lat="43.86061650232946" lon="7.377238959418301"><ele>632.3333333333334</ele><time>2026-05-01T15:04:19Z</time></trkpt><trkpt lat="43.860588870225556" lon="7.377129072420332"><ele>631.6666666666667</ele><time>2026-05-01T15:04:20Z</time></trkpt><trkpt lat="43.86055343424971" lon="7.377034701471972"><ele>631.0</ele><time>2026-05-01T15:04:21Z</time></trkpt><trkpt lat="43.860491760748744" lon="7.376967810519378"><ele>631.0</ele><time>2026-05-01T15:04:22Z</time></trkpt><trkpt lat="43.860412157690206" lon="7.376920025900593"><ele>631.0</ele><time>2026-05-01T15:04:23Z</time></trkpt><trkpt lat="43.86033049787159" lon="7.376870506730795"><ele>631.0</ele><time>2026-05-01T15:04:24Z</time></trkpt><trkpt lat="43.86025923064582" lon="7.376806413726165"><ele>631.0</ele><time>2026-05-01T15:04:25Z</time></trkpt><trkpt lat="43.860201605789705" lon="7.376732562537279"><ele>631.0</ele><time>2026-05-01T15:04:26Z</time></trkpt><trkpt lat="43.86014738044816" lon="7.376668826097364"><ele>631.0</ele><time>2026-05-01T15:04:27Z</time></trkpt><trkpt lat="43.860088107272965" lon="7.376614221538047"><ele>629.5</ele><time>2026-05-01T15:04:28Z</time></trkpt><trkpt lat="43.86002344400458" lon="7.3765791460894725"><ele>628.0</ele><time>2026-05-01T15:04:29Z</time></trkpt><trkpt lat="43.859951339802585" lon="7.376546634621151"><ele>626.5</ele><time>2026-05-01T15:04:30Z</time></trkpt><trkpt lat="43.85987092317616" lon="7.376527443506941"><ele>625.0</ele><time>2026-05-01T15:04:31.001Z</time></trkpt><trkpt lat="43.85977081935543" lon="7.376532577699326"><ele>623.5</ele><time>2026-05-01T15:04:32.001Z</time></trkpt><trkpt lat="43.85966561557506" lon="7.376549084326147"><ele>622.0</ele><time>2026-05-01T15:04:33.001Z</time></trkpt><trkpt lat="43.85956156920867" lon="7.376571220353201"><ele>622.0</ele><time>2026-05-01T15:04:34.001Z</time></trkpt><trkpt lat="43.85945603213349" lon="7.376606739986698"><ele>622.0</ele><time>2026-05-01T15:04:35.001Z</time></trkpt><trkpt lat="43.859353835963" lon="7.376651536065271"><ele>622.0</ele><time>2026-05-01T15:04:36.001Z</time></trkpt><trkpt lat="43.85925553687636" lon="7.376702730578562"><ele>622.0</ele><time>2026-05-01T15:04:37.001Z</time></trkpt><trkpt lat="43.85916534109776" lon="7.376765821392117"><ele>622.0</ele><time>2026-05-01T15:04:38.001Z</time></trkpt><trkpt lat="43.859081262113754" lon="7.376840577924658"><ele>623.4</ele><time>2026-05-01T15:04:39.001Z</time></trkpt><trkpt lat="43.858992588332036" lon="7.376915917014547"><ele>624.8000000000001</ele><time>2026-05-01T15:04:40.001Z</time></trkpt><trkpt lat="43.8589040549616" lon="7.376999394378402"><ele>626.2</ele><time>2026-05-01T15:04:41.001Z</time></trkpt><trkpt lat="43.85881757042067" lon="7.3770846892462405"><ele>627.6</ele><time>2026-05-01T15:04:42.001Z</time></trkpt><trkpt lat="43.85873829434605" lon="7.3771741660096986"><ele>629.0</ele><time>2026-05-01T15:04:43.001Z</time></trkpt><trkpt lat="43.85866272840993" lon="7.3772694392418785"><ele>625.4</ele><time>2026-05-01T15:04:44.001Z</time></trkpt><trkpt lat="43.85858384124622" lon="7.377361980972236"><ele>621.8</ele><time>2026-05-01T15:04:45.001Z</time></trkpt><trkpt lat="43.85850036543334" lon="7.377446063052598"><ele>618.2</ele><time>2026-05-01T15:04:46.001Z</time></trkpt><trkpt lat="43.858414333992684" lon="7.377524704120144"><ele>614.6</ele><time>2026-05-01T15:04:47.001Z</time></trkpt><trkpt lat="43.8583206758035" lon="7.377593663973085"><ele>611.0</ele><time>2026-05-01T15:04:48.001Z</time></trkpt><trkpt lat="43.8582167933551" lon="7.377644533770064"><ele>611.0</ele><time>2026-05-01T15:04:49.001Z</time></trkpt><trkpt lat="43.85810367343606" lon="7.377651273439707"><ele>611.0</ele><time>2026-05-01T15:04:50.001Z</time></trkpt><trkpt lat="43.85799188990854" lon="7.377667866911869"><ele>611.0</ele><time>2026-05-01T15:04:51.001Z</time></trkpt><trkpt lat="43.85787664957134" lon="7.377657155429263"><ele>611.0</ele><time>2026-05-01T15:04:52.001Z</time></trkpt><trkpt lat="43.85776457961631" lon="7.377639548038359"><ele>611.0</ele><time>2026-05-01T15:04:53.001Z</time></trkpt><trkpt lat="43.85765844181793" lon="7.377620576034481"><ele>611.0</ele><time>2026-05-01T15:04:54.001Z</time></trkpt><trkpt lat="43.857553725797864" lon="7.377600424086257"><ele>611.0</ele><time>2026-05-01T15:04:55.001Z</time></trkpt><trkpt lat="43.8574496208859" lon="7.3775684639185295"><ele>611.0</ele><time>2026-05-01T15:04:56.001Z</time></trkpt><trkpt lat="43.85735082487534" lon="7.377524741148155"><ele>611.0</ele><time>2026-05-01T15:04:57.001Z</time></trkpt><trkpt lat="43.857251497966836" lon="7.377469324467503"><ele>612.8</ele><time>2026-05-01T15:04:58Z</time></trkpt><trkpt lat="43.85713980576873" lon="7.377414367809621"><ele>614.6</ele><time>2026-05-01T15:04:59Z</time></trkpt><trkpt lat="43.85705068893092" lon="7.37733121927243"><ele>616.4</ele><time>2026-05-01T15:05:00Z</time></trkpt><trkpt lat="43.856953975275374" lon="7.3772688032719875"><ele>618.2</ele><time>2026-05-01T15:05:01Z</time></trkpt><trkpt lat="43.85685497503288" lon="7.377229462222395"><ele>620.0</ele><time>2026-05-01T15:05:02Z</time></trkpt><trkpt lat="43.856756346284726" lon="7.377230035183894"><ele>621.0</ele><time>2026-05-01T15:05:03Z</time></trkpt><trkpt lat="43.85667667953593" lon="7.377173940881239"><ele>622.0</ele><time>2026-05-01T15:05:04Z</time></trkpt><trkpt lat="43.85660351855512" lon="7.377125537320077"><ele>623.0</ele><time>2026-05-01T15:05:05Z</time></trkpt><trkpt lat="43.85653522012793" lon="7.377069524499753"><ele>624.0</ele><time>2026-05-01T15:05:06Z</time></trkpt><trkpt lat="43.856491789085574" lon="7.376954231637026"><ele>625.0</ele><time>2026-05-01T15:05:07Z</time></trkpt><trkpt lat="43.856493316045125" lon="7.376800362295905"><ele>625.0</ele><time>2026-05-01T15:05:08Z</time></trkpt><trkpt lat="43.856447220293916" lon="7.376691869859202"><ele>625.0</ele><time>2026-05-01T15:05:09Z</time></trkpt><trkpt lat="43.85637812740329" lon="7.376599068369788"><ele>625.0</ele><time>2026-05-01T15:05:10Z</time></trkpt><trkpt lat="43.85627553112245" lon="7.376528699055318"><ele>625.0</ele><time>2026-05-01T15:05:11Z</time></trkpt><trkpt lat="43.856173726736635" lon="7.376466621959663"><ele>625.0</ele><time>2026-05-01T15:05:12Z</time></trkpt><trkpt lat="43.85609203491212" lon="7.376386621445677"><ele>625.0</ele><time>2026-05-01T15:05:13Z</time></trkpt><trkpt lat="43.85601596922892" lon="7.376318129191445"><ele>625.0</ele><time>2026-05-01T15:05:14Z</time></trkpt><trkpt lat="43.855946504727555" lon="7.376227070724875"><ele>625.0</ele><time>2026-05-01T15:05:15Z</time></trkpt><trkpt lat="43.85593103246788" lon="7.3760766002844775"><ele>625.0</ele><time>2026-05-01T15:05:16Z</time></trkpt><trkpt lat="43.8558764994576" lon="7.375936418067178"><ele>625.0</ele><time>2026-05-01T15:05:17Z</time></trkpt><trkpt lat="43.85585232259744" lon="7.37580107520315"><ele>607.25</ele><time>2026-05-01T15:05:18Z</time></trkpt><trkpt lat="43.85584668676664" lon="7.375655895197304"><ele>589.5</ele><time>2026-05-01T15:05:19Z</time></trkpt><trkpt lat="43.85589054755565" lon="7.375516037915835"><ele>571.75</ele><time>2026-05-01T15:05:20Z</time></trkpt><trkpt lat="43.85594196467256" lon="7.375372174211542"><ele>554.0</ele><time>2026-05-01T15:05:21Z</time></trkpt><trkpt lat="43.85599217632257" lon="7.3752191114437915"><ele>554.0</ele><time>2026-05-01T15:05:22Z</time></trkpt><trkpt lat="43.85605947255487" lon="7.375101059028025"><ele>554.0</ele><time>2026-05-01T15:05:23Z</time></trkpt><trkpt lat="43.856122657208715" lon="7.374993280595301"><ele>554.0</ele><time>2026-05-01T15:05:24Z</time></trkpt><trkpt lat="43.85617381329876" lon="7.374858295503021"><ele>554.0</ele><time>2026-05-01T15:05:25Z</time></trkpt><trkpt lat="43.856214013834325" lon="7.374714133905723"><ele>554.0</ele><time>2026-05-01T15:05:26Z</time></trkpt><trkpt lat="43.856236861564724" lon="7.37456845248744"><ele>554.0</ele><time>2026-05-01T15:05:27Z</time></trkpt><trkpt lat="43.856244299980865" lon="7.3744261664481"><ele>554.0</ele><time>2026-05-01T15:05:28Z</time></trkpt><trkpt lat="43.856222690655244" lon="7.374275444958348"><ele>554.0</ele><time>2026-05-01T15:05:29Z</time></trkpt><trkpt lat="43.85616911494195" lon="7.374122446331355"><ele>554.0</ele><time>2026-05-01T15:05:30Z</time></trkpt><trkpt lat="43.856095170688185" lon="7.373978586590803"><ele>564.75</ele><time>2026-05-01T15:05:31Z</time></trkpt><trkpt lat="43.85601081326236" lon="7.373848649455997"><ele>575.5</ele><time>2026-05-01T15:05:32Z</time></trkpt><trkpt lat="43.85593823626286" lon="7.373703771450295"><ele>586.25</ele><time>2026-05-01T15:05:33Z</time></trkpt><trkpt lat="43.85588135824971" lon="7.373547627947682"><ele>597.0</ele><time>2026-05-01T15:05:34Z</time></trkpt><trkpt lat="43.85582765088343" lon="7.373397790205667"><ele>597.0</ele><time>2026-05-01T15:05:35Z</time></trkpt><trkpt lat="43.85575589810929" lon="7.373256622439265"><ele>597.0</ele><time>2026-05-01T15:05:36Z</time></trkpt><trkpt lat="43.85567852010448" lon="7.37312571354479"><ele>597.0</ele><time>2026-05-01T15:05:37Z</time></trkpt><trkpt lat="43.8555977230248" lon="7.373007075476567"><ele>597.0</ele><time>2026-05-01T15:05:38Z</time></trkpt><trkpt lat="43.85551824272546" lon="7.372904550674319"><ele>594.8000000000001</ele><time>2026-05-01T15:05:39Z</time></trkpt><trkpt lat="43.8554351096325" lon="7.372814901691484"><ele>592.6</ele><time>2026-05-01T15:05:40Z</time></trkpt><trkpt lat="43.8553641355942" lon="7.37271186865818"><ele>590.4000000000001</ele><time>2026-05-01T15:05:41Z</time></trkpt><trkpt lat="43.85527699258044" lon="7.372620916284718"><ele>588.2</ele><time>2026-05-01T15:05:42Z</time></trkpt><trkpt lat="43.85519258454481" lon="7.37253279794565"><ele>586.0</ele><time>2026-05-01T15:05:43Z</time></trkpt><trkpt lat="43.85510102856411" lon="7.3724371489699125"><ele>586.0</ele><time>2026-05-01T15:05:44Z</time></trkpt><trkpt lat="43.85500097677511" lon="7.372319162112488"><ele>586.0</ele><time>2026-05-01T15:05:45Z</time></trkpt><trkpt lat="43.85489258395544" lon="7.3721999405488905"><ele>586.0</ele><time>2026-05-01T15:05:46Z</time></trkpt><trkpt lat="43.85478735153584" lon="7.372073390545082"><ele>586.0</ele><time>2026-05-01T15:05:47Z</time></trkpt><trkpt lat="43.85467860289352" lon="7.371950088126469"><ele>584.25</ele><time>2026-05-01T15:05:48Z</time></trkpt><trkpt lat="43.85456425795734" lon="7.371839208305113"><ele>582.5</ele><time>2026-05-01T15:05:49Z</time></trkpt><trkpt lat="43.85445128974626" lon="7.371742091860203"><ele>580.75</ele><time>2026-05-01T15:05:50Z</time></trkpt><trkpt lat="43.8543420190257" lon="7.371650507482615"><ele>579.0</ele><time>2026-05-01T15:05:51Z</time></trkpt><trkpt lat="43.8542442231695" lon="7.371539717259304"><ele>579.0</ele><time>2026-05-01T15:05:52Z</time></trkpt><trkpt lat="43.854150930105945" lon="7.371417978318511"><ele>579.0</ele><time>2026-05-01T15:05:53Z</time></trkpt><trkpt lat="43.854058425747105" lon="7.371309228554406"><ele>579.0</ele><time>2026-05-01T15:05:54Z</time></trkpt><trkpt lat="43.85395331348689" lon="7.37120611452908"><ele>579.0</ele><time>2026-05-01T15:05:55Z</time></trkpt><trkpt lat="43.85385414632227" lon="7.371122552724703"><ele>584.4</ele><time>2026-05-01T15:05:56Z</time></trkpt><trkpt lat="43.853758969919966" lon="7.371035094386325"><ele>589.8</ele><time>2026-05-01T15:05:57Z</time></trkpt><trkpt lat="43.8536817578943" lon="7.370937987708713"><ele>595.2</ele><time>2026-05-01T15:05:58Z</time></trkpt><trkpt lat="43.85362370624634" lon="7.3708370587371315"><ele>600.6</ele><time>2026-05-01T15:05:59Z</time></trkpt><trkpt lat="43.853577943575644" lon="7.370735398107276"><ele>606.0</ele><time>2026-05-01T15:06:00Z</time></trkpt><trkpt lat="43.85353611657687" lon="7.370655784505482"><ele>606.0</ele><time>2026-05-01T15:06:01Z</time></trkpt><trkpt lat="43.853450787182126" lon="7.370570101996691"><ele>606.0</ele><time>2026-05-01T15:06:03Z</time></trkpt><trkpt lat="43.85339027618959" lon="7.370673228021857"><ele>606.0</ele><time>2026-05-01T15:06:05Z</time></trkpt><trkpt lat="43.85341699413328" lon="7.370759810032116"><ele>606.0</ele><time>2026-05-01T15:06:06Z</time></trkpt><trkpt lat="43.853472941428066" lon="7.370861909945552"><ele>606.0</ele><time>2026-05-01T15:06:07Z</time></trkpt><trkpt lat="43.853531171528296" lon="7.3709909577945405"><ele>606.0</ele><time>2026-05-01T15:06:08Z</time></trkpt><trkpt lat="43.853603950715154" lon="7.37112721275117"><ele>606.0</ele><time>2026-05-01T15:06:09Z</time></trkpt><trkpt lat="43.85368697437444" lon="7.371236266911093"><ele>606.0</ele><time>2026-05-01T15:06:10Z</time></trkpt><trkpt lat="43.853758272070934" lon="7.3713552359859"><ele>606.0</ele><time>2026-05-01T15:06:11Z</time></trkpt><trkpt lat="43.853834254044145" lon="7.371473464025541"><ele>600.6</ele><time>2026-05-01T15:06:12Z</time></trkpt><trkpt lat="43.853892930399006" lon="7.371600013012465"><ele>595.2</ele><time>2026-05-01T15:06:13Z</time></trkpt><trkpt lat="43.85396455666092" lon="7.371716947396115"><ele>589.8</ele><time>2026-05-01T15:06:14Z</time></trkpt><trkpt lat="43.854034030023485" lon="7.371828159937521"><ele>584.4</ele><time>2026-05-01T15:06:15Z</time></trkpt><trkpt lat="43.854093880786664" lon="7.371923083961283"><ele>579.0</ele><time>2026-05-01T15:06:16Z</time></trkpt><trkpt lat="43.85414724456677" lon="7.372007199001816"><ele>579.0</ele><time>2026-05-01T15:06:17Z</time></trkpt><trkpt lat="43.85419221299948" lon="7.372072802819105"><ele>579.0</ele><time>2026-05-01T15:06:18Z</time></trkpt><trkpt lat="43.854257016956815" lon="7.372170390905215"><ele>579.0</ele><time>2026-05-01T15:06:20Z</time></trkpt><trkpt lat="43.85419541389514" lon="7.372253576800384"><ele>579.0</ele><time>2026-05-01T15:06:23Z</time></trkpt><trkpt lat="43.85414397301923" lon="7.372184735405772"><ele>579.0</ele><time>2026-05-01T15:06:24Z</time></trkpt><trkpt lat="43.85407295998622" lon="7.37211842852829"><ele>579.0</ele><time>2026-05-01T15:06:25Z</time></trkpt><trkpt lat="43.85400474914341" lon="7.372031333126833"><ele>579.0</ele><time>2026-05-01T15:06:26Z</time></trkpt><trkpt lat="43.85391448581649" lon="7.371928583693712"><ele>579.0</ele><time>2026-05-01T15:06:27Z</time></trkpt><trkpt lat="43.85382034144218" lon="7.3718167180926875"><ele>579.0</ele><time>2026-05-01T15:06:28Z</time></trkpt><trkpt lat="43.85372588003632" lon="7.371711079503298"><ele>579.0</ele><time>2026-05-01T15:06:29Z</time></trkpt><trkpt lat="43.85363183996942" lon="7.371600342546202"><ele>579.0</ele><time>2026-05-01T15:06:30Z</time></trkpt><trkpt lat="43.853547458572905" lon="7.371477161066114"><ele>579.0</ele><time>2026-05-01T15:06:31Z</time></trkpt><trkpt lat="43.853475266895536" lon="7.371342329669299"><ele>579.0</ele><time>2026-05-01T15:06:32Z</time></trkpt><trkpt lat="43.85341232531627" lon="7.371211715587388"><ele>579.0</ele><time>2026-05-01T15:06:33Z</time></trkpt><trkpt lat="43.85335002151754" lon="7.371087254034991"><ele>575.6</ele><time>2026-05-01T15:06:34Z</time></trkpt><trkpt lat="43.853286947429126" lon="7.3709733389099625"><ele>572.2</ele><time>2026-05-01T15:06:35Z</time></trkpt><trkpt lat="43.85321400510499" lon="7.370868716096029"><ele>568.8000000000001</ele><time>2026-05-01T15:06:36.001Z</time></trkpt><trkpt lat="43.853134699544" lon="7.370776335525541"><ele>565.4</ele><time>2026-05-01T15:06:37.001Z</time></trkpt><trkpt lat="43.853046488775405" lon="7.370691324816491"><ele>562.0</ele><time>2026-05-01T15:06:38.001Z</time></trkpt><trkpt lat="43.85295124016931" lon="7.3706183023952025"><ele>562.0</ele><time>2026-05-01T15:06:39.001Z</time></trkpt><trkpt lat="43.85284954424022" lon="7.370550694954638"><ele>562.0</ele><time>2026-05-01T15:06:40.001Z</time></trkpt><trkpt lat="43.85274467572101" lon="7.370487900472049"><ele>562.0</ele><time>2026-05-01T15:06:41.001Z</time></trkpt><trkpt lat="43.85264216251902" lon="7.37042172186735"><ele>562.0</ele><time>2026-05-01T15:06:42.001Z</time></trkpt><trkpt lat="43.85254209375311" lon="7.370346353057034"><ele>560.0</ele><time>2026-05-01T15:06:43.001Z</time></trkpt><trkpt lat="43.852436679091" lon="7.370264623533239"><ele>558.0</ele><time>2026-05-01T15:06:44.001Z</time></trkpt><trkpt lat="43.85233307892621" lon="7.37017821407309"><ele>556.0</ele><time>2026-05-01T15:06:45.001Z</time></trkpt><trkpt lat="43.852234960706866" lon="7.370086334208795"><ele>554.0</ele><time>2026-05-01T15:06:46.001Z</time></trkpt><trkpt lat="43.852144375868704" lon="7.369984791699269"><ele>554.0</ele><time>2026-05-01T15:06:47.001Z</time></trkpt><trkpt lat="43.852049279925225" lon="7.369879582757605"><ele>554.0</ele><time>2026-05-01T15:06:48.001Z</time></trkpt><trkpt lat="43.85194868966394" lon="7.369771294032633"><ele>554.0</ele><time>2026-05-01T15:06:49.001Z</time></trkpt><trkpt lat="43.85184814367132" lon="7.369658139338422"><ele>554.0</ele><time>2026-05-01T15:06:50.001Z</time></trkpt><trkpt lat="43.85174552130314" lon="7.369536707474292"><ele>550.5</ele><time>2026-05-01T15:06:51.001Z</time></trkpt><trkpt lat="43.85164547829396" lon="7.369416498170432"><ele>547.0</ele><time>2026-05-01T15:06:52.001Z</time></trkpt><trkpt lat="43.85154096821263" lon="7.369309078527745"><ele>543.5</ele><time>2026-05-01T15:06:53.001Z</time></trkpt><trkpt lat="43.85142785730787" lon="7.369217543248695"><ele>540.0</ele><time>2026-05-01T15:06:54.001Z</time></trkpt><trkpt lat="43.85131586576069" lon="7.369140261171754"><ele>540.0</ele><time>2026-05-01T15:06:55.001Z</time></trkpt><trkpt lat="43.851215313665826" lon="7.369068429164284"><ele>540.0</ele><time>2026-05-01T15:06:56.001Z</time></trkpt><trkpt lat="43.8511210878943" lon="7.3690193661210115"><ele>540.0</ele><time>2026-05-01T15:06:57.001Z</time></trkpt><trkpt lat="43.85103166219695" lon="7.368977465302752"><ele>540.0</ele><time>2026-05-01T15:06:58.001Z</time></trkpt><trkpt lat="43.850948236357645" lon="7.368938166003767"><ele>540.0</ele><time>2026-05-01T15:06:59.001Z</time></trkpt><trkpt lat="43.850874189131" lon="7.368877579295752"><ele>535.8</ele><time>2026-05-01T15:07:00.001Z</time></trkpt><trkpt lat="43.85081330702686" lon="7.368773206521929"><ele>531.6</ele><time>2026-05-01T15:07:01.001Z</time></trkpt><trkpt lat="43.85077328549982" lon="7.368642612279269"><ele>527.4</ele><time>2026-05-01T15:07:02.001Z</time></trkpt><trkpt lat="43.85073917656368" lon="7.3684977836639804"><ele>523.2</ele><time>2026-05-01T15:07:03.001Z</time></trkpt><trkpt lat="43.85070716723718" lon="7.368339055561224"><ele>519.0</ele><time>2026-05-01T15:07:04.001Z</time></trkpt><trkpt lat="43.85067816337104" lon="7.368175968572986"><ele>525.25</ele><time>2026-05-01T15:07:05.001Z</time></trkpt><trkpt lat="43.85063587607945" lon="7.368022688825809"><ele>531.5</ele><time>2026-05-01T15:07:06Z</time></trkpt><trkpt lat="43.85056147147841" lon="7.36787748250785"><ele>537.75</ele><time>2026-05-01T15:07:07Z</time></trkpt><trkpt lat="43.85047279257669" lon="7.3677419820570735"><ele>544.0</ele><time>2026-05-01T15:07:08Z</time></trkpt><trkpt lat="43.850380696536035" lon="7.367628746955767"><ele>544.0</ele><time>2026-05-01T15:07:09Z</time></trkpt><trkpt lat="43.85029069315845" lon="7.36753210710524"><ele>544.0</ele><time>2026-05-01T15:07:10Z</time></trkpt><trkpt lat="43.85019513331151" lon="7.367446928411733"><ele>544.0</ele><time>2026-05-01T15:07:11Z</time></trkpt><trkpt lat="43.85010077808217" lon="7.367363128221279"><ele>544.0</ele><time>2026-05-01T15:07:12Z</time></trkpt><trkpt lat="43.85000935342937" lon="7.367268820002628"><ele>537.6</ele><time>2026-05-01T15:07:13Z</time></trkpt><trkpt lat="43.84992889120827" lon="7.3671639496985595"><ele>531.2</ele><time>2026-05-01T15:07:14Z</time></trkpt><trkpt lat="43.84986195127221" lon="7.36705327337823"><ele>524.8000000000001</ele><time>2026-05-01T15:07:15Z</time></trkpt><trkpt lat="43.849804202616745" lon="7.366930258449974"><ele>518.4</ele><time>2026-05-01T15:07:16Z</time></trkpt><trkpt lat="43.84975604450162" lon="7.366804104367455"><ele>512.0</ele><time>2026-05-01T15:07:17Z</time></trkpt><trkpt lat="43.8497199480786" lon="7.366690101593359"><ele>511.99999999999994</ele><time>2026-05-01T15:07:18Z</time></trkpt><trkpt lat="43.84969322687207" lon="7.366606464179344"><ele>512.0</ele><time>2026-05-01T15:07:19Z</time></trkpt><trkpt lat="43.849640907157976" lon="7.366504065910551"><ele>512.0</ele><time>2026-05-01T15:07:21Z</time></trkpt><trkpt lat="43.84956737182162" lon="7.366549855452557"><ele>512.0</ele><time>2026-05-01T15:07:23Z</time></trkpt><trkpt lat="43.84958050280202" lon="7.366697928749888"><ele>511.99999999999994</ele><time>2026-05-01T15:07:25Z</time></trkpt><trkpt lat="43.84961220219108" lon="7.366777763612047"><ele>512.0</ele><time>2026-05-01T15:07:26Z</time></trkpt><trkpt lat="43.849650436890194" lon="7.366874818534205"><ele>511.99999999999994</ele><time>2026-05-01T15:07:27Z</time></trkpt><trkpt lat="43.84969512924562" lon="7.366998934363131"><ele>512.0</ele><time>2026-05-01T15:07:28Z</time></trkpt><trkpt lat="43.84973952078999" lon="7.367115088646739"><ele>512.0</ele><time>2026-05-01T15:07:29Z</time></trkpt><trkpt lat="43.84978731164594" lon="7.367218950960141"><ele>512.0</ele><time>2026-05-01T15:07:30Z</time></trkpt><trkpt lat="43.84984274044971" lon="7.367314745202698"><ele>511.99999999999994</ele><time>2026-05-01T15:07:31Z</time></trkpt><trkpt lat="43.84988586719565" lon="7.367396576535633"><ele>512.0</ele><time>2026-05-01T15:07:32Z</time></trkpt><trkpt lat="43.849934700367236" lon="7.367461139600601"><ele>508.20000000000005</ele><time>2026-05-01T15:07:33Z</time></trkpt><trkpt lat="43.849992541228616" lon="7.367548022199714"><ele>504.40000000000003</ele><time>2026-05-01T15:07:35Z</time></trkpt><trkpt lat="43.84988445738775" lon="7.367532286817892"><ele>500.59999999999997</ele><time>2026-05-01T15:07:39Z</time></trkpt><trkpt lat="43.849825762601675" lon="7.36746257318076"><ele>496.79999999999995</ele><time>2026-05-01T15:07:40Z</time></trkpt><trkpt lat="43.849765706882444" lon="7.3673649811610264"><ele>493.0</ele><time>2026-05-01T15:07:41Z</time></trkpt><trkpt lat="43.84969522290375" lon="7.367259221737927"><ele>497.75</ele><time>2026-05-01T15:07:42Z</time></trkpt><trkpt lat="43.84962247044889" lon="7.367146975914624"><ele>502.5</ele><time>2026-05-01T15:07:43Z</time></trkpt><trkpt lat="43.849551180642855" lon="7.367017936716691"><ele>507.25</ele><time>2026-05-01T15:07:44Z</time></trkpt><trkpt lat="43.84948393893736" lon="7.366878279951889"><ele>512.0</ele><time>2026-05-01T15:07:45Z</time></trkpt><trkpt lat="43.84942273885936" lon="7.366732507437145"><ele>512.0</ele><time>2026-05-01T15:07:46Z</time></trkpt><trkpt lat="43.849368473933154" lon="7.366589914725945"><ele>512.0</ele><time>2026-05-01T15:07:47Z</time></trkpt><trkpt lat="43.84931963843292" lon="7.366453986597955"><ele>512.0</ele><time>2026-05-01T15:07:48Z</time></trkpt><trkpt lat="43.84927514997304" lon="7.3663274448634315"><ele>512.0</ele><time>2026-05-01T15:07:49Z</time></trkpt><trkpt lat="43.84924643243269" lon="7.366200637254334"><ele>512.0</ele><time>2026-05-01T15:07:50Z</time></trkpt><trkpt lat="43.849234283908885" lon="7.366066645447745"><ele>511.40000000000003</ele><time>2026-05-01T15:07:51Z</time></trkpt><trkpt lat="43.84924470642551" lon="7.3659292771429845"><ele>510.80000000000007</ele><time>2026-05-01T15:07:52Z</time></trkpt><trkpt lat="43.84927765753135" lon="7.3657992483344135"><ele>510.2</ele><time>2026-05-01T15:07:53Z</time></trkpt><trkpt lat="43.849330229825554" lon="7.365681016500355"><ele>509.6</ele><time>2026-05-01T15:07:54Z</time></trkpt><trkpt lat="43.84939735728666" lon="7.365574631773778"><ele>509.0</ele><time>2026-05-01T15:07:55Z</time></trkpt><trkpt lat="43.84946846410087" lon="7.365468589062725"><ele>507.16666666666663</ele><time>2026-05-01T15:07:56Z</time></trkpt><trkpt lat="43.849496135406085" lon="7.365349355169047"><ele>505.3333333333333</ele><time>2026-05-01T15:07:57Z</time></trkpt><trkpt lat="43.8494956098646" lon="7.365237499905453"><ele>503.5</ele><time>2026-05-01T15:07:58Z</time></trkpt><trkpt lat="43.84945048200509" lon="7.365139377995722"><ele>501.66666666666663</ele><time>2026-05-01T15:07:59Z</time></trkpt><trkpt lat="43.849381872003796" lon="7.365071151444089"><ele>499.8333333333333</ele><time>2026-05-01T15:08:00Z</time></trkpt><trkpt lat="43.84928872249681" lon="7.36505830162692"><ele>498.0</ele><time>2026-05-01T15:08:01Z</time></trkpt><trkpt lat="43.84918732828652" lon="7.365075221971576"><ele>492.59999999999997</ele><time>2026-05-01T15:08:02Z</time></trkpt><trkpt lat="43.849078100171596" lon="7.365107990432367"><ele>487.19999999999993</ele><time>2026-05-01T15:08:03Z</time></trkpt><trkpt lat="43.84896720376809" lon="7.365135024243419"><ele>481.8</ele><time>2026-05-01T15:08:04Z</time></trkpt><trkpt lat="43.84885937421987" lon="7.365152739549357"><ele>476.4</ele><time>2026-05-01T15:08:05Z</time></trkpt><trkpt lat="43.84875123796566" lon="7.365171689604226"><ele>471.0</ele><time>2026-05-01T15:08:06Z</time></trkpt><trkpt lat="43.848653966817814" lon="7.365196163384239"><ele>471.0</ele><time>2026-05-01T15:08:07Z</time></trkpt><trkpt lat="43.84856828054576" lon="7.365214230442673"><ele>471.0</ele><time>2026-05-01T15:08:08Z</time></trkpt><trkpt lat="43.848488148057655" lon="7.3652240151842765"><ele>471.0</ele><time>2026-05-01T15:08:09Z</time></trkpt><trkpt lat="43.848405098171206" lon="7.3651996557615655"><ele>471.0</ele><time>2026-05-01T15:08:10Z</time></trkpt><trkpt lat="43.848330719094115" lon="7.3651483676723615"><ele>471.0</ele><time>2026-05-01T15:08:11Z</time></trkpt><trkpt lat="43.84826474194375" lon="7.3650663690338"><ele>471.0</ele><time>2026-05-01T15:08:12Z</time></trkpt><trkpt lat="43.84822558845226" lon="7.364940699964676"><ele>469.4</ele><time>2026-05-01T15:08:13Z</time></trkpt><trkpt lat="43.84817978229409" lon="7.364808576478937"><ele>467.8</ele><time>2026-05-01T15:08:14Z</time></trkpt><trkpt lat="43.848128089431974" lon="7.364687071719001"><ele>466.19999999999993</ele><time>2026-05-01T15:08:15Z</time></trkpt><trkpt lat="43.84809128354704" lon="7.364561853860481"><ele>464.59999999999997</ele><time>2026-05-01T15:08:16Z</time></trkpt><trkpt lat="43.84805574294233" lon="7.364437566895852"><ele>463.0</ele><time>2026-05-01T15:08:17Z</time></trkpt><trkpt lat="43.848031151445774" lon="7.364313084406778"><ele>463.0</ele><time>2026-05-01T15:08:18Z</time></trkpt><trkpt lat="43.848019938013145" lon="7.364183103650928"><ele>462.99999999999994</ele><time>2026-05-01T15:08:19Z</time></trkpt><trkpt lat="43.84801149830575" lon="7.364050400587726"><ele>462.99999999999994</ele><time>2026-05-01T15:08:20Z</time></trkpt><trkpt lat="43.848009876289744" lon="7.3639157940080375"><ele>463.0</ele><time>2026-05-01T15:08:21Z</time></trkpt><trkpt lat="43.84800121225375" lon="7.363795138482381"><ele>463.0</ele><time>2026-05-01T15:08:22Z</time></trkpt><trkpt lat="43.84801594392198" lon="7.363669375602269"><ele>462.1666666666667</ele><time>2026-05-01T15:08:23Z</time></trkpt><trkpt lat="43.84800827511548" lon="7.3635521650835765"><ele>461.33333333333337</ele><time>2026-05-01T15:08:24Z</time></trkpt><trkpt lat="43.848007177316084" lon="7.363446082947826"><ele>460.5</ele><time>2026-05-01T15:08:25Z</time></trkpt><trkpt lat="43.8480158640523" lon="7.363353797309645"><ele>459.66666666666663</ele><time>2026-05-01T15:08:26Z</time></trkpt><trkpt lat="43.84803785484088" lon="7.363266055656687"><ele>458.8333333333333</ele><time>2026-05-01T15:08:27Z</time></trkpt><trkpt lat="43.84809794101412" lon="7.363199198049388"><ele>458.0</ele><time>2026-05-01T15:08:28Z</time></trkpt><trkpt lat="43.84814181654494" lon="7.3631035422599656"><ele>458.2857142857143</ele><time>2026-05-01T15:08:29Z</time></trkpt><trkpt lat="43.84819333566996" lon="7.363029587748453"><ele>458.57142857142856</ele><time>2026-05-01T15:08:30Z</time></trkpt><trkpt lat="43.84824038607496" lon="7.3629541555053795"><ele>458.85714285714283</ele><time>2026-05-01T15:08:31Z</time></trkpt><trkpt lat="43.8482647243964" lon="7.362869399568111"><ele>459.1428571428571</ele><time>2026-05-01T15:08:32Z</time></trkpt><trkpt lat="43.84825955050065" lon="7.362779888074132"><ele>459.42857142857144</ele><time>2026-05-01T15:08:33Z</time></trkpt><trkpt lat="43.84822238126024" lon="7.362706827082734"><ele>459.71428571428567</ele><time>2026-05-01T15:08:34Z</time></trkpt><trkpt lat="43.84815755898011" lon="7.362672191767244"><ele>459.99999999999994</ele><time>2026-05-01T15:08:35Z</time></trkpt><trkpt lat="43.84807594539589" lon="7.362680564755447"><ele>460.00000000000006</ele><time>2026-05-01T15:08:36Z</time></trkpt><trkpt lat="43.84799080740983" lon="7.362692855629135"><ele>460.0</ele><time>2026-05-01T15:08:37Z</time></trkpt><trkpt lat="43.847906880827026" lon="7.362684198019929"><ele>460.0</ele><time>2026-05-01T15:08:38Z</time></trkpt><trkpt lat="43.84783122485111" lon="7.362665811468995"><ele>460.0</ele><time>2026-05-01T15:08:39Z</time></trkpt><trkpt lat="43.84776219044753" lon="7.362619168237331"><ele>460.00000000000006</ele><time>2026-05-01T15:08:40Z</time></trkpt><trkpt lat="43.84768549722141" lon="7.362610295532198"><ele>460.0</ele><time>2026-05-01T15:08:41.001Z</time></trkpt><trkpt lat="43.84761357712162" lon="7.362563137209591"><ele>457.4</ele><time>2026-05-01T15:08:42.001Z</time></trkpt><trkpt lat="43.84754106901737" lon="7.362497441291148"><ele>454.8</ele><time>2026-05-01T15:08:43.001Z</time></trkpt><trkpt lat="43.84747853098262" lon="7.362399049434877"><ele>452.20000000000005</ele><time>2026-05-01T15:08:44.001Z</time></trkpt><trkpt lat="43.847418476155795" lon="7.362280879979504"><ele>449.6</ele><time>2026-05-01T15:08:45.001Z</time></trkpt><trkpt lat="43.847369905772325" lon="7.362163445391214"><ele>447.0</ele><time>2026-05-01T15:08:46.001Z</time></trkpt><trkpt lat="43.84732439491713" lon="7.362048072756141"><ele>447.0</ele><time>2026-05-01T15:08:47.001Z</time></trkpt><trkpt lat="43.847286839542434" lon="7.3619245791025145"><ele>447.00000000000006</ele><time>2026-05-01T15:08:48.001Z</time></trkpt><trkpt lat="43.84726213967673" lon="7.361797472880438"><ele>447.00000000000006</ele><time>2026-05-01T15:08:49.001Z</time></trkpt><trkpt lat="43.847247532914196" lon="7.361667018431974"><ele>447.0</ele><time>2026-05-01T15:08:50.001Z</time></trkpt><trkpt lat="43.847217923097375" lon="7.361549620823038"><ele>447.0</ele><time>2026-05-01T15:08:51.001Z</time></trkpt><trkpt lat="43.84715504759985" lon="7.361458497132921"><ele>447.0</ele><time>2026-05-01T15:08:52.001Z</time></trkpt><trkpt lat="43.847069780464665" lon="7.361393467103055"><ele>447.00000000000006</ele><time>2026-05-01T15:08:53.001Z</time></trkpt><trkpt lat="43.846975640049706" lon="7.3613595160929135"><ele>447.00000000000006</ele><time>2026-05-01T15:08:54.001Z</time></trkpt><trkpt lat="43.846875977301835" lon="7.361346295664354"><ele>447.0</ele><time>2026-05-01T15:08:55.001Z</time></trkpt><trkpt lat="43.84679108200704" lon="7.361316707375572"><ele>447.0</ele><time>2026-05-01T15:08:56.001Z</time></trkpt><trkpt lat="43.846718774433015" lon="7.361242846188628"><ele>448.8</ele><time>2026-05-01T15:08:57.001Z</time></trkpt><trkpt lat="43.84667054167487" lon="7.361128271001446"><ele>450.6</ele><time>2026-05-01T15:08:58.001Z</time></trkpt><trkpt lat="43.846642280581044" lon="7.360993079650087"><ele>452.40000000000003</ele><time>2026-05-01T15:08:59.001Z</time></trkpt><trkpt lat="43.846618234305595" lon="7.360833261298527"><ele>454.20000000000005</ele><time>2026-05-01T15:09:00.001Z</time></trkpt><trkpt lat="43.84658878449356" lon="7.360667766702348"><ele>456.0</ele><time>2026-05-01T15:09:01.001Z</time></trkpt><trkpt lat="43.84654554993907" lon="7.360502729978426"><ele>456.0</ele><time>2026-05-01T15:09:02.001Z</time></trkpt><trkpt lat="43.84649497001269" lon="7.360362160725805"><ele>456.0</ele><time>2026-05-01T15:09:03.001Z</time></trkpt><trkpt lat="43.84643467486656" lon="7.360232056035438"><ele>456.0</ele><time>2026-05-01T15:09:04.001Z</time></trkpt><trkpt lat="43.84635139623073" lon="7.360114792727823"><ele>456.0</ele><time>2026-05-01T15:09:05.001Z</time></trkpt><trkpt lat="43.84624975306567" lon="7.360004002965629"><ele>456.0</ele><time>2026-05-01T15:09:06.001Z</time></trkpt><trkpt lat="43.84614661082381" lon="7.359904294908837"><ele>456.0</ele><time>2026-05-01T15:09:07.001Z</time></trkpt><trkpt lat="43.84603686780217" lon="7.359820400944724"><ele>456.0</ele><time>2026-05-01T15:09:08.001Z</time></trkpt><trkpt lat="43.84592249186592" lon="7.359738763299889"><ele>456.0</ele><time>2026-05-01T15:09:09.001Z</time></trkpt><trkpt lat="43.84579856610851" lon="7.359663180700799"><ele>456.0</ele><time>2026-05-01T15:09:10.001Z</time></trkpt><trkpt lat="43.84567433839193" lon="7.35959685785231"><ele>456.0</ele><time>2026-05-01T15:09:11.001Z</time></trkpt><trkpt lat="43.84555203823573" lon="7.359542617180319"><ele>456.0</ele><time>2026-05-01T15:09:12.001Z</time></trkpt><trkpt lat="43.84543129004221" lon="7.359499349805048"><ele>456.0</ele><time>2026-05-01T15:09:13Z</time></trkpt><trkpt lat="43.84531004344783" lon="7.359462686295407"><ele>456.0</ele><time>2026-05-01T15:09:14Z</time></trkpt><trkpt lat="43.84519315742544" lon="7.359439666204621"><ele>456.0</ele><time>2026-05-01T15:09:15Z</time></trkpt><trkpt lat="43.84507791779453" lon="7.359436433542336"><ele>456.0</ele><time>2026-05-01T15:09:16Z</time></trkpt><trkpt lat="43.84496735168098" lon="7.359447415301939"><ele>456.0</ele><time>2026-05-01T15:09:17Z</time></trkpt><trkpt lat="43.84486417127663" lon="7.359437364221886"><ele>456.0</ele><time>2026-05-01T15:09:18Z</time></trkpt><trkpt lat="43.8447660925882" lon="7.359397079968322"><ele>450.8</ele><time>2026-05-01T15:09:19Z</time></trkpt><trkpt lat="43.84467078567166" lon="7.359348206622286"><ele>445.6</ele><time>2026-05-01T15:09:20Z</time></trkpt><trkpt lat="43.844578896136355" lon="7.3592967877065565"><ele>440.4</ele><time>2026-05-01T15:09:21Z</time></trkpt><trkpt lat="43.84449794869956" lon="7.35922096710945"><ele>435.2</ele><time>2026-05-01T15:09:22Z</time></trkpt><trkpt lat="43.8444378997575" lon="7.3591097108062975"><ele>430.0</ele><time>2026-05-01T15:09:23Z</time></trkpt><trkpt lat="43.84440268277781" lon="7.358964447774914"><ele>426.0</ele><time>2026-05-01T15:09:24Z</time></trkpt><trkpt lat="43.844377903650724" lon="7.358807151446022"><ele>422.0</ele><time>2026-05-01T15:09:25Z</time></trkpt><trkpt lat="43.84435425122958" lon="7.358639193452932"><ele>418.0</ele><time>2026-05-01T15:09:26Z</time></trkpt><trkpt lat="43.84430177152163" lon="7.358490198388924"><ele>414.0</ele><time>2026-05-01T15:09:27Z</time></trkpt><trkpt lat="43.84422356061926" lon="7.3583658437520185"><ele>414.0</ele><time>2026-05-01T15:09:28Z</time></trkpt><trkpt lat="43.844134332691006" lon="7.358268010298883"><ele>414.0</ele><time>2026-05-01T15:09:29Z</time></trkpt><trkpt lat="43.844028862732465" lon="7.358202496342946"><ele>414.0</ele><time>2026-05-01T15:09:30Z</time></trkpt><trkpt lat="43.843908425967655" lon="7.358144104519562"><ele>414.0</ele><time>2026-05-01T15:09:31Z</time></trkpt><trkpt lat="43.84378261976555" lon="7.358082360896238"><ele>414.0</ele><time>2026-05-01T15:09:32Z</time></trkpt><trkpt lat="43.84365521373644" lon="7.358048517523573"><ele>414.0</ele><time>2026-05-01T15:09:33Z</time></trkpt><trkpt lat="43.843531974044716" lon="7.358034143388036"><ele>414.0</ele><time>2026-05-01T15:09:34Z</time></trkpt><trkpt lat="43.84341308922896" lon="7.358043868826633"><ele>414.0</ele><time>2026-05-01T15:09:35Z</time></trkpt><trkpt lat="43.84329600675666" lon="7.358035028400498"><ele>418.0</ele><time>2026-05-01T15:09:36Z</time></trkpt><trkpt lat="43.84318716270495" lon="7.357997313729519"><ele>422.0</ele><time>2026-05-01T15:09:37Z</time></trkpt><trkpt lat="43.84307818645081" lon="7.357946112712932"><ele>426.0</ele><time>2026-05-01T15:09:38Z</time></trkpt><trkpt lat="43.84297349666502" lon="7.357869796996966"><ele>430.0</ele><time>2026-05-01T15:09:39Z</time></trkpt><trkpt lat="43.842883049430505" lon="7.357753541858815"><ele>430.0</ele><time>2026-05-01T15:09:40Z</time></trkpt><trkpt lat="43.84277050632355" lon="7.357658063016726"><ele>430.0</ele><time>2026-05-01T15:09:41Z</time></trkpt><trkpt lat="43.84267289455472" lon="7.35754096128505"><ele>430.0</ele><time>2026-05-01T15:09:42Z</time></trkpt><trkpt lat="43.8425821933947" lon="7.357428724519798"><ele>430.0</ele><time>2026-05-01T15:09:43Z</time></trkpt><trkpt lat="43.842494550544984" lon="7.357319841984873"><ele>430.75</ele><time>2026-05-01T15:09:44Z</time></trkpt><trkpt lat="43.84239522978811" lon="7.357224970069565"><ele>431.5</ele><time>2026-05-01T15:09:45Z</time></trkpt><trkpt lat="43.84228493384511" lon="7.357150769906991"><ele>432.25</ele><time>2026-05-01T15:09:46Z</time></trkpt><trkpt lat="43.842162264544285" lon="7.357105531698292"><ele>433.0</ele><time>2026-05-01T15:09:47Z</time></trkpt><trkpt lat="43.842033798367424" lon="7.357073101581407"><ele>433.0</ele><time>2026-05-01T15:09:48Z</time></trkpt><trkpt lat="43.84191085962793" lon="7.357044358319696"><ele>433.0</ele><time>2026-05-01T15:09:49Z</time></trkpt><trkpt lat="43.8417933732824" lon="7.357006998192668"><ele>433.0</ele><time>2026-05-01T15:09:50Z</time></trkpt><trkpt lat="43.8416794110881" lon="7.356959634208702"><ele>433.0</ele><time>2026-05-01T15:09:51Z</time></trkpt><trkpt lat="43.84157129624586" lon="7.356877310859488"><ele>425.25</ele><time>2026-05-01T15:09:52Z</time></trkpt><trkpt lat="43.84144877930418" lon="7.35681685023531"><ele>417.5</ele><time>2026-05-01T15:09:53Z</time></trkpt><trkpt lat="43.84133285834124" lon="7.356721046305615"><ele>409.75</ele><time>2026-05-01T15:09:54Z</time></trkpt><trkpt lat="43.84121428573367" lon="7.35663048498639"><ele>402.0</ele><time>2026-05-01T15:09:55Z</time></trkpt><trkpt lat="43.84110022917427" lon="7.3565514989173835"><ele>402.0</ele><time>2026-05-01T15:09:56Z</time></trkpt><trkpt lat="43.84098702604774" lon="7.356473247979046"><ele>402.0</ele><time>2026-05-01T15:09:57Z</time></trkpt><trkpt lat="43.84087800371342" lon="7.3563963424558745"><ele>402.0</ele><time>2026-05-01T15:09:58Z</time></trkpt><trkpt lat="43.84077084792408" lon="7.356336577226163"><ele>402.0</ele><time>2026-05-01T15:09:59Z</time></trkpt><trkpt lat="43.840682783342885" lon="7.35624918738791"><ele>400.20000000000005</ele><time>2026-05-01T15:10:00Z</time></trkpt><trkpt lat="43.84058517263325" lon="7.356196264379265"><ele>398.4</ele><time>2026-05-01T15:10:01Z</time></trkpt><trkpt lat="43.84051030973871" lon="7.356094253216193"><ele>396.6</ele><time>2026-05-01T15:10:02Z</time></trkpt><trkpt lat="43.84044818041296" lon="7.3559749601719915"><ele>394.79999999999995</ele><time>2026-05-01T15:10:03Z</time></trkpt><trkpt lat="43.84039082033071" lon="7.355856407749905"><ele>393.0</ele><time>2026-05-01T15:10:04Z</time></trkpt><trkpt lat="43.84031389392091" lon="7.355772188656504"><ele>393.0</ele><time>2026-05-01T15:10:05Z</time></trkpt><trkpt lat="43.84021007263589" lon="7.355732810880295"><ele>393.0</ele><time>2026-05-01T15:10:06Z</time></trkpt><trkpt lat="43.84008727295519" lon="7.3557271776516755"><ele>393.0</ele><time>2026-05-01T15:10:07Z</time></trkpt><trkpt lat="43.83997202014039" lon="7.355725458879875"><ele>393.0</ele><time>2026-05-01T15:10:08Z</time></trkpt><trkpt lat="43.83986999495466" lon="7.3557042902106735"><ele>393.0</ele><time>2026-05-01T15:10:09Z</time></trkpt><trkpt lat="43.83977083993957" lon="7.35568110462443"><ele>393.59999999999997</ele><time>2026-05-01T15:10:10Z</time></trkpt><trkpt lat="43.83967310159688" lon="7.355651245354959"><ele>394.2</ele><time>2026-05-01T15:10:11Z</time></trkpt><trkpt lat="43.83958058457407" lon="7.355591613915914"><ele>394.8</ele><time>2026-05-01T15:10:12Z</time></trkpt><trkpt lat="43.83949318724132" lon="7.355493581530505"><ele>395.4</ele><time>2026-05-01T15:10:13Z</time></trkpt><trkpt lat="43.8394111585522" lon="7.355385579275648"><ele>396.0</ele><time>2026-05-01T15:10:14Z</time></trkpt><trkpt lat="43.83932919344216" lon="7.355301673332864"><ele>392.75</ele><time>2026-05-01T15:10:15Z</time></trkpt><trkpt lat="43.83923609357054" lon="7.355242549944884"><ele>389.5</ele><time>2026-05-01T15:10:16Z</time></trkpt><trkpt lat="43.83912761311557" lon="7.35521278310274"><ele>386.25</ele><time>2026-05-01T15:10:17Z</time></trkpt><trkpt lat="43.83900463602189" lon="7.355224889490487"><ele>383.0</ele><time>2026-05-01T15:10:18Z</time></trkpt><trkpt lat="43.83887409906447" lon="7.355266142005846"><ele>383.0</ele><time>2026-05-01T15:10:19Z</time></trkpt><trkpt lat="43.83874354563055" lon="7.355300092964153"><ele>383.0</ele><time>2026-05-01T15:10:20Z</time></trkpt><trkpt lat="43.838625186176145" lon="7.35533372355961"><ele>383.0</ele><time>2026-05-01T15:10:21Z</time></trkpt><trkpt lat="43.838518447724276" lon="7.355361938953585"><ele>383.0</ele><time>2026-05-01T15:10:22Z</time></trkpt><trkpt lat="43.838415398854146" lon="7.355388506050594"><ele>383.2</ele><time>2026-05-01T15:10:23Z</time></trkpt><trkpt lat="43.83831852232877" lon="7.355408541741377"><ele>383.4</ele><time>2026-05-01T15:10:24Z</time></trkpt><trkpt lat="43.83821563659661" lon="7.355431963362735"><ele>383.59999999999997</ele><time>2026-05-01T15:10:25Z</time></trkpt><trkpt lat="43.838112934732536" lon="7.355456525750883"><ele>383.79999999999995</ele><time>2026-05-01T15:10:26Z</time></trkpt><trkpt lat="43.838008166281504" lon="7.3554765903123895"><ele>384.0</ele><time>2026-05-01T15:10:27Z</time></trkpt><trkpt lat="43.83790657125144" lon="7.355486871947948"><ele>384.0</ele><time>2026-05-01T15:10:28Z</time></trkpt><trkpt lat="43.83780495356075" lon="7.355501539931063"><ele>384.0</ele><time>2026-05-01T15:10:29Z</time></trkpt><trkpt lat="43.83771124822202" lon="7.355515939831795"><ele>384.0</ele><time>2026-05-01T15:10:30Z</time></trkpt><trkpt lat="43.837628745630816" lon="7.355519365448442"><ele>384.0</ele><time>2026-05-01T15:10:31Z</time></trkpt><trkpt lat="43.837543116033395" lon="7.3555107152347885"><ele>384.0</ele><time>2026-05-01T15:10:32Z</time></trkpt><trkpt lat="43.837464898933185" lon="7.355475146111979"><ele>384.0</ele><time>2026-05-01T15:10:33Z</time></trkpt><trkpt lat="43.8374106691395" lon="7.355417631102123"><ele>382.2</ele><time>2026-05-01T15:10:34Z</time></trkpt><trkpt lat="43.837352641736345" lon="7.3553038932888315"><ele>380.4</ele><time>2026-05-01T15:10:36Z</time></trkpt><trkpt lat="43.83730803385629" lon="7.355227257293038"><ele>378.6</ele><time>2026-05-01T15:10:38Z</time></trkpt><trkpt lat="43.83720099545731" lon="7.355089981422092"><ele>376.8</ele><time>2026-05-01T15:10:40Z</time></trkpt><trkpt lat="43.83709476209469" lon="7.355180760873925"><ele>375.0</ele><time>2026-05-01T15:10:41Z</time></trkpt><trkpt lat="43.836996303624765" lon="7.355156812301637"><ele>375.0</ele><time>2026-05-01T15:10:42Z</time></trkpt><trkpt lat="43.83690231242044" lon="7.35512004616088"><ele>375.0</ele><time>2026-05-01T15:10:43Z</time></trkpt><trkpt lat="43.836809472600216" lon="7.3550882088897085"><ele>375.0</ele><time>2026-05-01T15:10:44Z</time></trkpt><trkpt lat="43.83670425675668" lon="7.355057298758545"><ele>375.0</ele><time>2026-05-01T15:10:45Z</time></trkpt><trkpt lat="43.83661896494697" lon="7.355027949677447"><ele>375.0</ele><time>2026-05-01T15:10:46Z</time></trkpt><trkpt lat="43.83652895037561" lon="7.355005811857004"><ele>373.2</ele><time>2026-05-01T15:10:47.001Z</time></trkpt><trkpt lat="43.836447475644455" lon="7.354970711136089"><ele>371.4</ele><time>2026-05-01T15:10:48.001Z</time></trkpt><trkpt lat="43.83637017442427" lon="7.3549221761295405"><ele>369.6</ele><time>2026-05-01T15:10:49.001Z</time></trkpt><trkpt lat="43.83630437197038" lon="7.354850959394368"><ele>367.8</ele><time>2026-05-01T15:10:50.001Z</time></trkpt><trkpt lat="43.836239924198125" lon="7.3547467734829635"><ele>366.0</ele><time>2026-05-01T15:10:51.001Z</time></trkpt><trkpt lat="43.8361772436626" lon="7.354632956639653"><ele>364.75</ele><time>2026-05-01T15:10:52.001Z</time></trkpt><trkpt lat="43.836109206156834" lon="7.354505883835655"><ele>363.5</ele><time>2026-05-01T15:10:53.001Z</time></trkpt><trkpt lat="43.83603821460939" lon="7.3543809677792575"><ele>362.25</ele><time>2026-05-01T15:10:54.001Z</time></trkpt><trkpt lat="43.83596880845045" lon="7.35425096359806"><ele>361.0</ele><time>2026-05-01T15:10:55.001Z</time></trkpt><trkpt lat="43.83590086093871" lon="7.354123906502276"><ele>359.6</ele><time>2026-05-01T15:10:56.001Z</time></trkpt><trkpt lat="43.83583454582945" lon="7.353999285338349"><ele>358.20000000000005</ele><time>2026-05-01T15:10:57.001Z</time></trkpt><trkpt lat="43.83576759381996" lon="7.3538781886218425"><ele>356.79999999999995</ele><time>2026-05-01T15:10:58.001Z</time></trkpt><trkpt lat="43.835706011949505" lon="7.353765770055796"><ele>355.4</ele><time>2026-05-01T15:10:59.001Z</time></trkpt><trkpt lat="43.835648427769115" lon="7.353661111539985"><ele>354.0</ele><time>2026-05-01T15:11:00.001Z</time></trkpt><trkpt lat="43.83559725680781" lon="7.3535658645942235"><ele>354.0</ele><time>2026-05-01T15:11:01.001Z</time></trkpt><trkpt lat="43.83555199502777" lon="7.353481008212759"><ele>354.0</ele><time>2026-05-01T15:11:02.001Z</time></trkpt><trkpt lat="43.83551032136899" lon="7.3534056650837725"><ele>354.0</ele><time>2026-05-01T15:11:03.001Z</time></trkpt><trkpt lat="43.83544412098611" lon="7.353321918986489"><ele>354.0</ele><time>2026-05-01T15:11:05.001Z</time></trkpt><trkpt lat="43.83536967201889" lon="7.353237301621191"><ele>354.0</ele><time>2026-05-01T15:11:09.001Z</time></trkpt><trkpt lat="43.83520711706276" lon="7.353243653333764"><ele>354.0</ele><time>2026-05-01T15:11:11.001Z</time></trkpt><trkpt lat="43.83522676549859" lon="7.353405743163979"><ele>354.0</ele><time>2026-05-01T15:11:12.001Z</time></trkpt><trkpt lat="43.835118442075" lon="7.353504899137415"><ele>354.0</ele><time>2026-05-01T15:11:14.001Z</time></trkpt><trkpt lat="43.835055582391576" lon="7.353577272260282"><ele>354.0</ele><time>2026-05-01T15:11:15Z</time></trkpt><trkpt lat="43.83498880052603" lon="7.353669717969926"><ele>354.0</ele><time>2026-05-01T15:11:16Z</time></trkpt><trkpt lat="43.834932906279555" lon="7.353759279154969"><ele>354.0</ele><time>2026-05-01T15:11:17Z</time></trkpt><trkpt lat="43.834884628731615" lon="7.353848650367327"><ele>354.0</ele><time>2026-05-01T15:11:18Z</time></trkpt><trkpt lat="43.83483852983359" lon="7.353941018323837"><ele>354.0</ele><time>2026-05-01T15:11:19Z</time></trkpt><trkpt lat="43.83479154437061" lon="7.354032809943673"><ele>354.0</ele><time>2026-05-01T15:11:20Z</time></trkpt><trkpt lat="43.83474118207378" lon="7.354117675030657"><ele>354.0</ele><time>2026-05-01T15:11:21Z</time></trkpt><trkpt lat="43.83469105649778" lon="7.3541998999396565"><ele>354.0</ele><time>2026-05-01T15:11:22Z</time></trkpt><trkpt lat="43.83464335198078" lon="7.3542796983691705"><ele>354.0</ele><time>2026-05-01T15:11:23Z</time></trkpt><trkpt lat="43.83459171321828" lon="7.354355579347377"><ele>354.0</ele><time>2026-05-01T15:11:24Z</time></trkpt><trkpt lat="43.834526283257006" lon="7.354428719292311"><ele>354.0</ele><time>2026-05-01T15:11:25Z</time></trkpt><trkpt lat="43.83445583060415" lon="7.354492299787099"><ele>354.0</ele><time>2026-05-01T15:11:26Z</time></trkpt><trkpt lat="43.83437857751202" lon="7.354539116907701"><ele>354.0</ele><time>2026-05-01T15:11:27Z</time></trkpt><trkpt lat="43.83429331560746" lon="7.35458845814491"><ele>354.0</ele><time>2026-05-01T15:11:28Z</time></trkpt><trkpt lat="43.83421781944682" lon="7.354634178136202"><ele>353.8333333333333</ele><time>2026-05-01T15:11:29Z</time></trkpt><trkpt lat="43.83414445008088" lon="7.354691389343933"><ele>353.6666666666667</ele><time>2026-05-01T15:11:30Z</time></trkpt><trkpt lat="43.83407620502805" lon="7.354754250355078"><ele>353.5</ele><time>2026-05-01T15:11:31Z</time></trkpt><trkpt lat="43.83401254354439" lon="7.354819597278982"><ele>353.33333333333337</ele><time>2026-05-01T15:11:32Z</time></trkpt><trkpt lat="43.83395639579888" lon="7.354890925748853"><ele>353.1666666666667</ele><time>2026-05-01T15:11:33Z</time></trkpt><trkpt lat="43.83390427050511" lon="7.3549701989555105"><ele>353.0</ele><time>2026-05-01T15:11:34Z</time></trkpt><trkpt lat="43.83386739581688" lon="7.355062793565402"><ele>353.0</ele><time>2026-05-01T15:11:35Z</time></trkpt><trkpt lat="43.83384223080407" lon="7.355163160322103"><ele>353.0</ele><time>2026-05-01T15:11:36Z</time></trkpt><trkpt lat="43.83381162759948" lon="7.355253092181934"><ele>353.0</ele><time>2026-05-01T15:11:37Z</time></trkpt><trkpt lat="43.83377749608093" lon="7.3553368744658085"><ele>353.0</ele><time>2026-05-01T15:11:38Z</time></trkpt><trkpt lat="43.83375240003726" lon="7.3554265006726265"><ele>353.0</ele><time>2026-05-01T15:11:39Z</time></trkpt><trkpt lat="43.83372427785663" lon="7.355518520281193"><ele>353.0</ele><time>2026-05-01T15:11:40Z</time></trkpt><trkpt lat="43.83376423900318" lon="7.3556248904871815"><ele>353.0</ele><time>2026-05-01T15:11:41Z</time></trkpt><trkpt lat="43.83378732558228" lon="7.3557197187943535"><ele>352.2857142857143</ele><time>2026-05-01T15:11:41.999Z</time></trkpt><trkpt lat="43.83380974380159" lon="7.355803025894403"><ele>351.5714285714286</ele><time>2026-05-01T15:11:42.999Z</time></trkpt><trkpt lat="43.83382975384753" lon="7.35589450642162"><ele>350.8571428571429</ele><time>2026-05-01T15:11:43.999Z</time></trkpt><trkpt lat="43.83385056212735" lon="7.355985157173712"><ele>350.1428571428571</ele><time>2026-05-01T15:11:44.999Z</time></trkpt><trkpt lat="43.83385266469119" lon="7.356096409102378"><ele>349.42857142857144</ele><time>2026-05-01T15:11:45.999Z</time></trkpt><trkpt lat="43.833875075875795" lon="7.356199851132238"><ele>348.7142857142857</ele><time>2026-05-01T15:11:46.999Z</time></trkpt><trkpt lat="43.83391080235627" lon="7.356287784682663"><ele>348.0</ele><time>2026-05-01T15:11:47.999Z</time></trkpt><trkpt lat="43.83392916000325" lon="7.35638519351814"><ele>347.1666666666667</ele><time>2026-05-01T15:11:48.999Z</time></trkpt><trkpt lat="43.833935350109066" lon="7.356479028303239"><ele>346.3333333333333</ele><time>2026-05-01T15:11:49.999Z</time></trkpt><trkpt lat="43.83395602715199" lon="7.356575349793759"><ele>345.5</ele><time>2026-05-01T15:11:50.999Z</time></trkpt><trkpt lat="43.83397506569429" lon="7.356664141626367"><ele>344.66666666666663</ele><time>2026-05-01T15:11:51.999Z</time></trkpt><trkpt lat="43.83399791072878" lon="7.356767572595868"><ele>343.8333333333333</ele><time>2026-05-01T15:11:52.999Z</time></trkpt><trkpt lat="43.83402398371691" lon="7.356880649984507"><ele>343.0</ele><time>2026-05-01T15:11:53.999Z</time></trkpt><trkpt lat="43.83405228155777" lon="7.357002812308509"><ele>343.0</ele><time>2026-05-01T15:11:54.999Z</time></trkpt><trkpt lat="43.83408264117361" lon="7.357134066723702"><ele>343.0</ele><time>2026-05-01T15:11:55.999Z</time></trkpt><trkpt lat="43.834115939875005" lon="7.357278109118144"><ele>343.0</ele><time>2026-05-01T15:11:56.999Z</time></trkpt><trkpt lat="43.8341516871635" lon="7.357434167636211"><ele>343.0</ele><time>2026-05-01T15:11:57.999Z</time></trkpt><trkpt lat="43.83418733972016" lon="7.357591837569186"><ele>343.0</ele><time>2026-05-01T15:11:58.999Z</time></trkpt><trkpt lat="43.83421921262776" lon="7.357735064829441"><ele>343.0</ele><time>2026-05-01T15:11:59.999Z</time></trkpt><trkpt lat="43.834246560351914" lon="7.357865241051758"><ele>343.0</ele><time>2026-05-01T15:12:00.999Z</time></trkpt><trkpt lat="43.83427291824374" lon="7.357991903355445"><ele>343.0</ele><time>2026-05-01T15:12:01.999Z</time></trkpt><trkpt lat="43.834280259276824" lon="7.358125839597565"><ele>343.0</ele><time>2026-05-01T15:12:02.999Z</time></trkpt><trkpt lat="43.83425668060572" lon="7.358252736424366"><ele>343.0</ele><time>2026-05-01T15:12:03.999Z</time></trkpt><trkpt lat="43.83421251203183" lon="7.3583804266841"><ele>343.0</ele><time>2026-05-01T15:12:04.999Z</time></trkpt><trkpt lat="43.83416450850768" lon="7.358527623932026"><ele>343.0</ele><time>2026-05-01T15:12:05.999Z</time></trkpt><trkpt lat="43.83411012742777" lon="7.358686435308812"><ele>343.0</ele><time>2026-05-01T15:12:06.999Z</time></trkpt><trkpt lat="43.834051827836774" lon="7.358857121151476"><ele>343.0</ele><time>2026-05-01T15:12:07.999Z</time></trkpt><trkpt lat="43.83399285614627" lon="7.359032389001127"><ele>346.0</ele><time>2026-05-01T15:12:08.999Z</time></trkpt><trkpt lat="43.83393907611422" lon="7.359191560915169"><ele>349.0</ele><time>2026-05-01T15:12:09.999Z</time></trkpt><trkpt lat="43.83388362045862" lon="7.3593534365656135"><ele>352.0</ele><time>2026-05-01T15:12:10.999Z</time></trkpt><trkpt lat="43.83383839985351" lon="7.359524185661315"><ele>355.0</ele><time>2026-05-01T15:12:11.999Z</time></trkpt><trkpt lat="43.83376172447985" lon="7.3596746058107"><ele>360.5</ele><time>2026-05-01T15:12:12.999Z</time></trkpt><trkpt lat="43.83369695778925" lon="7.359827603145424"><ele>366.0</ele><time>2026-05-01T15:12:13.999Z</time></trkpt><trkpt lat="43.8336426649863" lon="7.3599901166733215"><ele>371.5</ele><time>2026-05-01T15:12:14.999Z</time></trkpt><trkpt lat="43.83357335867345" lon="7.360136773881731"><ele>377.0</ele><time>2026-05-01T15:12:15.999Z</time></trkpt><trkpt lat="43.83351288467042" lon="7.360281826638921"><ele>370.20000000000005</ele><time>2026-05-01T15:12:16.999Z</time></trkpt><trkpt lat="43.8334468348961" lon="7.360417474673118"><ele>363.4</ele><time>2026-05-01T15:12:17.999Z</time></trkpt><trkpt lat="43.833385665810425" lon="7.360540604278347"><ele>356.6</ele><time>2026-05-01T15:12:18.999Z</time></trkpt><trkpt lat="43.833339145388116" lon="7.360670704565193"><ele>349.79999999999995</ele><time>2026-05-01T15:12:19.999Z</time></trkpt><trkpt lat="43.83331806259155" lon="7.360817835268152"><ele>343.0</ele><time>2026-05-01T15:12:20.999Z</time></trkpt><trkpt lat="43.83331989599792" lon="7.360977299030099"><ele>343.0</ele><time>2026-05-01T15:12:21.999Z</time></trkpt><trkpt lat="43.833343456222714" lon="7.361137966197313"><ele>343.0</ele><time>2026-05-01T15:12:22.999Z</time></trkpt><trkpt lat="43.833369144649446" lon="7.3612967981892306"><ele>343.0</ele><time>2026-05-01T15:12:23.999Z</time></trkpt><trkpt lat="43.83335731165509" lon="7.361444680069526"><ele>343.0</ele><time>2026-05-01T15:12:24.999Z</time></trkpt><trkpt lat="43.83333656840566" lon="7.361596475366065"><ele>343.0</ele><time>2026-05-01T15:12:25.999Z</time></trkpt><trkpt lat="43.83329534194533" lon="7.36175836414815"><ele>343.0</ele><time>2026-05-01T15:12:26.999Z</time></trkpt><trkpt lat="43.83324656443907" lon="7.361936957463721"><ele>343.0</ele><time>2026-05-01T15:12:27.999Z</time></trkpt><trkpt lat="43.83321030946055" lon="7.362128983374604"><ele>343.0</ele><time>2026-05-01T15:12:28.999Z</time></trkpt><trkpt lat="43.83314809113825" lon="7.362301002155636"><ele>343.75</ele><time>2026-05-01T15:12:29.999Z</time></trkpt><trkpt lat="43.83312581744935" lon="7.362481570921193"><ele>344.5</ele><time>2026-05-01T15:12:30.999Z</time></trkpt><trkpt lat="43.83307541981519" lon="7.362651005130768"><ele>345.25</ele><time>2026-05-01T15:12:31.999Z</time></trkpt><trkpt lat="43.833016503933386" lon="7.362800834358072"><ele>346.0</ele><time>2026-05-01T15:12:32.999Z</time></trkpt><trkpt lat="43.83294776808045" lon="7.362929265068651"><ele>346.5</ele><time>2026-05-01T15:12:33.999Z</time></trkpt><trkpt lat="43.83288466655177" lon="7.363051771919235"><ele>347.0</ele><time>2026-05-01T15:12:34.999Z</time></trkpt><trkpt lat="43.832855130295826" lon="7.363198738456931"><ele>347.5</ele><time>2026-05-01T15:12:35.999Z</time></trkpt><trkpt lat="43.83281895506262" lon="7.363364363782498"><ele>348.0</ele><time>2026-05-01T15:12:36.999Z</time></trkpt><trkpt lat="43.83281193122753" lon="7.363552120550762"><ele>348.0</ele><time>2026-05-01T15:12:37.999Z</time></trkpt><trkpt lat="43.832786697469956" lon="7.363719341668854"><ele>348.0</ele><time>2026-05-01T15:12:38.999Z</time></trkpt><trkpt lat="43.832768461139196" lon="7.363868948064549"><ele>348.0</ele><time>2026-05-01T15:12:39.999Z</time></trkpt><trkpt lat="43.83275134712848" lon="7.364005320239753"><ele>348.0</ele><time>2026-05-01T15:12:40.999Z</time></trkpt><trkpt lat="43.8326937793968" lon="7.364130325137221"><ele>348.0</ele><time>2026-05-01T15:12:41.999Z</time></trkpt><trkpt lat="43.83262932930586" lon="7.364254750534471"><ele>346.5</ele><time>2026-05-01T15:12:42.999Z</time></trkpt><trkpt lat="43.83255559823291" lon="7.36439204784005"><ele>345.0</ele><time>2026-05-01T15:12:43.999Z</time></trkpt><trkpt lat="43.83247433957027" lon="7.3645345486074385"><ele>343.5</ele><time>2026-05-01T15:12:44.999Z</time></trkpt><trkpt lat="43.83238776855545" lon="7.36468100010922"><ele>342.0</ele><time>2026-05-01T15:12:45.999Z</time></trkpt><trkpt lat="43.83229927889995" lon="7.364833752057041"><ele>342.0</ele><time>2026-05-01T15:12:46.999Z</time></trkpt><trkpt lat="43.832214571451516" lon="7.364988963130552"><ele>342.0</ele><time>2026-05-01T15:12:47.999Z</time></trkpt><trkpt lat="43.83213606049865" lon="7.365133701003819"><ele>342.0</ele><time>2026-05-01T15:12:48.999Z</time></trkpt><trkpt lat="43.832057795575686" lon="7.365274138237904"><ele>342.0</ele><time>2026-05-01T15:12:49.999Z</time></trkpt><trkpt lat="43.83197588921897" lon="7.365399506611846"><ele>342.0</ele><time>2026-05-01T15:12:50.999Z</time></trkpt><trkpt lat="43.83187891622136" lon="7.365504129605377"><ele>342.0</ele><time>2026-05-01T15:12:51.999Z</time></trkpt><trkpt lat="43.83176641168649" lon="7.365600891511969"><ele>342.0</ele><time>2026-05-01T15:12:53Z</time></trkpt><trkpt lat="43.831650616675425" lon="7.365686583105345"><ele>342.0</ele><time>2026-05-01T15:12:54Z</time></trkpt><trkpt lat="43.83153211030072" lon="7.3657652641426345"><ele>341.5</ele><time>2026-05-01T15:12:55Z</time></trkpt><trkpt lat="43.831415371985806" lon="7.36583834619857"><ele>341.0</ele><time>2026-05-01T15:12:56Z</time></trkpt><trkpt lat="43.83130099606562" lon="7.365902833560131"><ele>340.5</ele><time>2026-05-01T15:12:57Z</time></trkpt><trkpt lat="43.831183028946924" lon="7.365944581405499"><ele>340.0</ele><time>2026-05-01T15:12:58Z</time></trkpt><trkpt lat="43.83105380779651" lon="7.365964329826227"><ele>338.5</ele><time>2026-05-01T15:12:59Z</time></trkpt><trkpt lat="43.830917786466976" lon="7.365981267896273"><ele>337.0</ele><time>2026-05-01T15:13:00Z</time></trkpt><trkpt lat="43.83078473787781" lon="7.366023251810835"><ele>335.5</ele><time>2026-05-01T15:13:01Z</time></trkpt><trkpt lat="43.83065414797642" lon="7.366054954130182"><ele>334.0</ele><time>2026-05-01T15:13:02Z</time></trkpt><trkpt lat="43.83052609967184" lon="7.3660851022392935"><ele>334.0</ele><time>2026-05-01T15:13:03Z</time></trkpt><trkpt lat="43.83040753695831" lon="7.366125306005366"><ele>334.0</ele><time>2026-05-01T15:13:04Z</time></trkpt><trkpt lat="43.83029155474874" lon="7.366166435404176"><ele>334.0</ele><time>2026-05-01T15:13:05Z</time></trkpt><trkpt lat="43.830188077257645" lon="7.366220972727885"><ele>334.0</ele><time>2026-05-01T15:13:06Z</time></trkpt><trkpt lat="43.83009552740236" lon="7.366295999108107"><ele>334.6</ele><time>2026-05-01T15:13:07Z</time></trkpt><trkpt lat="43.830016790829546" lon="7.366404690174881"><ele>335.2</ele><time>2026-05-01T15:13:08Z</time></trkpt><trkpt lat="43.82993898772354" lon="7.366526570376974"><ele>335.8</ele><time>2026-05-01T15:13:09Z</time></trkpt><trkpt lat="43.829870258691024" lon="7.366645928961689"><ele>336.40000000000003</ele><time>2026-05-01T15:13:10Z</time></trkpt><trkpt lat="43.82979877562624" lon="7.36674466716778"><ele>337.0</ele><time>2026-05-01T15:13:11Z</time></trkpt><trkpt lat="43.82971502040903" lon="7.366815319781837"><ele>337.0</ele><time>2026-05-01T15:13:12Z</time></trkpt><trkpt lat="43.82960326352856" lon="7.366798545721141"><ele>337.0</ele><time>2026-05-01T15:13:13Z</time></trkpt><trkpt lat="43.82948871274527" lon="7.366825666529632"><ele>337.0</ele><time>2026-05-01T15:13:14Z</time></trkpt><trkpt lat="43.82936588926198" lon="7.366793834191299"><ele>337.0</ele><time>2026-05-01T15:13:15Z</time></trkpt><trkpt lat="43.829235664211076" lon="7.3668177798468175"><ele>335.75</ele><time>2026-05-01T15:13:16Z</time></trkpt><trkpt lat="43.829101238749736" lon="7.366835270247717"><ele>334.5</ele><time>2026-05-01T15:13:17Z</time></trkpt><trkpt lat="43.82896736641876" lon="7.366860550072663"><ele>333.25</ele><time>2026-05-01T15:13:18Z</time></trkpt><trkpt lat="43.828840692516266" lon="7.366880727668529"><ele>332.0</ele><time>2026-05-01T15:13:19Z</time></trkpt><trkpt lat="43.8287181592178" lon="7.366899550642245"><ele>332.0</ele><time>2026-05-01T15:13:19.999Z</time></trkpt><trkpt lat="43.82860282317544" lon="7.3669241796590725"><ele>332.0</ele><time>2026-05-01T15:13:20.999Z</time></trkpt><trkpt lat="43.8284930637381" lon="7.366957196100137"><ele>332.0</ele><time>2026-05-01T15:13:21.999Z</time></trkpt><trkpt lat="43.82839403121006" lon="7.366989860005138"><ele>332.0</ele><time>2026-05-01T15:13:22.999Z</time></trkpt><trkpt lat="43.828303815122084" lon="7.367040047968359"><ele>332.0</ele><time>2026-05-01T15:13:23.999Z</time></trkpt><trkpt lat="43.828217359845056" lon="7.367129378827594"><ele>335.0</ele><time>2026-05-01T15:13:24.999Z</time></trkpt><trkpt lat="43.82813574003512" lon="7.3672399313723895"><ele>338.0</ele><time>2026-05-01T15:13:25.999Z</time></trkpt><trkpt lat="43.8280411618742" lon="7.367335452288617"><ele>341.0</ele><time>2026-05-01T15:13:26.999Z</time></trkpt><trkpt lat="43.82792695855244" lon="7.367401577500772"><ele>344.0</ele><time>2026-05-01T15:13:27.999Z</time></trkpt><trkpt lat="43.827803886276584" lon="7.367465291693515"><ele>344.0</ele><time>2026-05-01T15:13:28.999Z</time></trkpt><trkpt lat="43.827678949937" lon="7.367537717098687"><ele>344.0</ele><time>2026-05-01T15:13:29.999Z</time></trkpt><trkpt lat="43.82755889581946" lon="7.367625822319696"><ele>344.0</ele><time>2026-05-01T15:13:30.999Z</time></trkpt><trkpt lat="43.82744474492585" lon="7.367719840433904"><ele>344.0</ele><time>2026-05-01T15:13:31.999Z</time></trkpt><trkpt lat="43.82731738170585" lon="7.367766997275611"><ele>345.75</ele><time>2026-05-01T15:13:32.999Z</time></trkpt><trkpt lat="43.82719692314419" lon="7.367850646400053"><ele>347.5</ele><time>2026-05-01T15:13:33.999Z</time></trkpt><trkpt lat="43.82707725525421" lon="7.367931791982222"><ele>349.25</ele><time>2026-05-01T15:13:34.999Z</time></trkpt><trkpt lat="43.82696023232163" lon="7.368028119188699"><ele>351.0</ele><time>2026-05-01T15:13:35.999Z</time></trkpt><trkpt lat="43.82685376316507" lon="7.3681192697430955"><ele>347.25</ele><time>2026-05-01T15:13:36.999Z</time></trkpt><trkpt lat="43.82675065181118" lon="7.368207658311287"><ele>343.5</ele><time>2026-05-01T15:13:37.999Z</time></trkpt><trkpt lat="43.82665729850732" lon="7.368319993967264"><ele>339.75</ele><time>2026-05-01T15:13:38.999Z</time></trkpt><trkpt lat="43.826574521619214" lon="7.368444625649068"><ele>336.0</ele><time>2026-05-01T15:13:39.999Z</time></trkpt><trkpt lat="43.82649897911375" lon="7.368575064721784"><ele>336.0</ele><time>2026-05-01T15:13:40.999Z</time></trkpt><trkpt lat="43.82642982943755" lon="7.3687015444375845"><ele>336.0</ele><time>2026-05-01T15:13:41.999Z</time></trkpt><trkpt lat="43.82632909983559" lon="7.368760333721114"><ele>336.0</ele><time>2026-05-01T15:13:42.999Z</time></trkpt><trkpt lat="43.826243211179076" lon="7.36881985206922"><ele>336.0</ele><time>2026-05-01T15:13:43.999Z</time></trkpt><trkpt lat="43.82615529472373" lon="7.368852204394396"><ele>336.0</ele><time>2026-05-01T15:13:44.999Z</time></trkpt><trkpt lat="43.826071527209415" lon="7.368835740086787"><ele>336.0</ele><time>2026-05-01T15:13:45.999Z</time></trkpt><trkpt lat="43.82598301883481" lon="7.368794426054389"><ele>336.0</ele><time>2026-05-01T15:13:46.999Z</time></trkpt><trkpt lat="43.8258894888728" lon="7.368794863419526"><ele>336.0</ele><time>2026-05-01T15:13:47.999Z</time></trkpt><trkpt lat="43.82578893851867" lon="7.368810932858941"><ele>336.0</ele><time>2026-05-01T15:13:48.999Z</time></trkpt><trkpt lat="43.82568137541549" lon="7.368851356652256"><ele>336.0</ele><time>2026-05-01T15:13:49.999Z</time></trkpt><trkpt lat="43.82557956374185" lon="7.368884425268589"><ele>335.4</ele><time>2026-05-01T15:13:50.999Z</time></trkpt><trkpt lat="43.82548156925038" lon="7.368867189360889"><ele>334.8</ele><time>2026-05-01T15:13:51.999Z</time></trkpt><trkpt lat="43.82538716495086" lon="7.368901119213771"><ele>334.2</ele><time>2026-05-01T15:13:52.999Z</time></trkpt><trkpt lat="43.82529651765309" lon="7.368941728870339"><ele>333.59999999999997</ele><time>2026-05-01T15:13:53.999Z</time></trkpt><trkpt lat="43.82520428435314" lon="7.369013370903601"><ele>333.0</ele><time>2026-05-01T15:13:54.999Z</time></trkpt><trkpt lat="43.82511808346315" lon="7.369093136694107"><ele>333.0</ele><time>2026-05-01T15:13:55.999Z</time></trkpt><trkpt lat="43.82502326090568" lon="7.369149109217045"><ele>333.0</ele><time>2026-05-01T15:13:56.999Z</time></trkpt><trkpt lat="43.8249364650258" lon="7.369229529651958"><ele>333.0</ele><time>2026-05-01T15:13:57.999Z</time></trkpt><trkpt lat="43.82485051757833" lon="7.369346027898921"><ele>333.0</ele><time>2026-05-01T15:13:58.999Z</time></trkpt><trkpt lat="43.82480145464242" lon="7.3694823426774825"><ele>333.0</ele><time>2026-05-01T15:13:59.999Z</time></trkpt><trkpt lat="43.82472067442099" lon="7.369574780322115"><ele>333.0</ele><time>2026-05-01T15:14:00.999Z</time></trkpt><trkpt lat="43.82463606659556" lon="7.369650059988671"><ele>333.0</ele><time>2026-05-01T15:14:01.999Z</time></trkpt><trkpt lat="43.82453921901903" lon="7.369707653959224"><ele>333.0</ele><time>2026-05-01T15:14:02.999Z</time></trkpt><trkpt lat="43.82442667410776" lon="7.369757401753951"><ele>333.0</ele><time>2026-05-01T15:14:03.999Z</time></trkpt><trkpt lat="43.824298813080375" lon="7.36979256291601"><ele>333.75</ele><time>2026-05-01T15:14:04.999Z</time></trkpt><trkpt lat="43.82416818594696" lon="7.369831373934788"><ele>334.5</ele><time>2026-05-01T15:14:05.999Z</time></trkpt><trkpt lat="43.824054631875676" lon="7.369885606215293"><ele>335.25</ele><time>2026-05-01T15:14:06.999Z</time></trkpt><trkpt lat="43.823938303757174" lon="7.369905286009913"><ele>336.0</ele><time>2026-05-01T15:14:07.999Z</time></trkpt><trkpt lat="43.82382777918654" lon="7.369889611440006"><ele>336.0</ele><time>2026-05-01T15:14:08.999Z</time></trkpt><trkpt lat="43.823717523347106" lon="7.369898760524331"><ele>336.0</ele><time>2026-05-01T15:14:09.999Z</time></trkpt><trkpt lat="43.82360922537368" lon="7.369973601462261"><ele>336.0</ele><time>2026-05-01T15:14:10.999Z</time></trkpt><trkpt lat="43.823499428731324" lon="7.370043856125758"><ele>336.0</ele><time>2026-05-01T15:14:11.999Z</time></trkpt><trkpt lat="43.82339574823212" lon="7.370120404162082"><ele>333.20000000000005</ele><time>2026-05-01T15:14:12.999Z</time></trkpt><trkpt lat="43.823300817963094" lon="7.370196874873163"><ele>330.40000000000003</ele><time>2026-05-01T15:14:13.999Z</time></trkpt><trkpt lat="43.82321181874774" lon="7.370274952528355"><ele>327.6</ele><time>2026-05-01T15:14:14.999Z</time></trkpt><trkpt lat="43.82312437270332" lon="7.370338342618436"><ele>324.8</ele><time>2026-05-01T15:14:15.999Z</time></trkpt><trkpt lat="43.823028269250344" lon="7.370341499080641"><ele>322.0</ele><time>2026-05-01T15:14:16.999Z</time></trkpt><trkpt lat="43.82293267943482" lon="7.370340589860508"><ele>322.0</ele><time>2026-05-01T15:14:17.999Z</time></trkpt><trkpt lat="43.82284280309957" lon="7.370252096615038"><ele>322.0</ele><time>2026-05-01T15:14:18.999Z</time></trkpt><trkpt lat="43.82273980212376" lon="7.370231064036793"><ele>322.0</ele><time>2026-05-01T15:14:19.999Z</time></trkpt><trkpt lat="43.82263675588736" lon="7.370216565418051"><ele>322.0</ele><time>2026-05-01T15:14:20.999Z</time></trkpt><trkpt lat="43.82252572025791" lon="7.370250106062643"><ele>322.0</ele><time>2026-05-01T15:14:21.999Z</time></trkpt><trkpt lat="43.822412101550775" lon="7.370332102598624"><ele>323.75</ele><time>2026-05-01T15:14:22.999Z</time></trkpt><trkpt lat="43.822307859501805" lon="7.3704239075574804"><ele>325.5</ele><time>2026-05-01T15:14:23.999Z</time></trkpt><trkpt lat="43.82221174699784" lon="7.370509835076735"><ele>327.25</ele><time>2026-05-01T15:14:24.999Z</time></trkpt><trkpt lat="43.822119159554475" lon="7.370607775995905"><ele>329.0</ele><time>2026-05-01T15:14:25.999Z</time></trkpt><trkpt lat="43.8220372817343" lon="7.370708029000673"><ele>329.0</ele><time>2026-05-01T15:14:26.999Z</time></trkpt><trkpt lat="43.821975265391295" lon="7.3707973245045855"><ele>329.0</ele><time>2026-05-01T15:14:27.999Z</time></trkpt><trkpt lat="43.82193008088451" lon="7.370865780036087"><ele>329.0</ele><time>2026-05-01T15:14:28.999Z</time></trkpt><trkpt lat="43.821863801560205" lon="7.37096527888994"><ele>329.0</ele><time>2026-05-01T15:14:30.999Z</time></trkpt><trkpt lat="43.82181927950752" lon="7.371051065502002"><ele>329.0</ele><time>2026-05-01T15:14:33.999Z</time></trkpt><trkpt lat="43.821783071850845" lon="7.371176298737026"><ele>329.0</ele><time>2026-05-01T15:14:39.999Z</time></trkpt><trkpt lat="43.821749657780984" lon="7.371262763166726"><ele>326.6666666666667</ele><time>2026-05-01T15:14:40.999Z</time></trkpt><trkpt lat="43.82169926928103" lon="7.371347803736877"><ele>324.33333333333337</ele><time>2026-05-01T15:14:41.999Z</time></trkpt><trkpt lat="43.82164103415145" lon="7.371439336690363"><ele>322.0</ele><time>2026-05-01T15:14:42.999Z</time></trkpt><trkpt lat="43.821584091090976" lon="7.371529129454137"><ele>319.6666666666667</ele><time>2026-05-01T15:14:43.999Z</time></trkpt><trkpt lat="43.8215373745814" lon="7.371618412769964"><ele>317.3333333333333</ele><time>2026-05-01T15:14:44.999Z</time></trkpt><trkpt lat="43.821498419524936" lon="7.371717779459954"><ele>315.0</ele><time>2026-05-01T15:14:45.999Z</time></trkpt><trkpt lat="43.8214786948433" lon="7.371830694347975"><ele>315.0</ele><time>2026-05-01T15:14:46.999Z</time></trkpt><trkpt lat="43.821494430176024" lon="7.371948627577121"><ele>315.0</ele><time>2026-05-01T15:14:47.999Z</time></trkpt><trkpt lat="43.82154730045348" lon="7.372063981568095"><ele>315.0</ele><time>2026-05-01T15:14:48.999Z</time></trkpt><trkpt lat="43.82162241621804" lon="7.372181542134266"><ele>315.0</ele><time>2026-05-01T15:14:49.999Z</time></trkpt><trkpt lat="43.82169507136717" lon="7.372310847245878"><ele>315.0</ele><time>2026-05-01T15:14:50.999Z</time></trkpt><trkpt lat="43.821752441237315" lon="7.3724524751674405"><ele>314.8</ele><time>2026-05-01T15:14:51.999Z</time></trkpt><trkpt lat="43.821806134612906" lon="7.372588835034932"><ele>314.6</ele><time>2026-05-01T15:14:52.999Z</time></trkpt><trkpt lat="43.82184482106796" lon="7.372725224480545"><ele>314.4</ele><time>2026-05-01T15:14:53.999Z</time></trkpt><trkpt lat="43.82187291356568" lon="7.372874216487989"><ele>314.2</ele><time>2026-05-01T15:14:54.999Z</time></trkpt><trkpt lat="43.82188635574569" lon="7.373037980899914"><ele>314.0</ele><time>2026-05-01T15:14:55.999Z</time></trkpt><trkpt lat="43.82186166177462" lon="7.373199996349353"><ele>312.5</ele><time>2026-05-01T15:14:56.999Z</time></trkpt><trkpt lat="43.821851232983" lon="7.373376173257018"><ele>311.0</ele><time>2026-05-01T15:14:57.999Z</time></trkpt><trkpt lat="43.82181984933416" lon="7.373535836586536"><ele>309.5</ele><time>2026-05-01T15:14:58.999Z</time></trkpt><trkpt lat="43.82180662726688" lon="7.3736994669558245"><ele>308.0</ele><time>2026-05-01T15:14:59.999Z</time></trkpt><trkpt lat="43.82182095582525" lon="7.373877718498592"><ele>315.0</ele><time>2026-05-01T15:15:00.999Z</time></trkpt><trkpt lat="43.821861692500676" lon="7.374065351952838"><ele>322.0</ele><time>2026-05-01T15:15:01.999Z</time></trkpt><trkpt lat="43.82191300447271" lon="7.374231077444262"><ele>329.0</ele><time>2026-05-01T15:15:02.999Z</time></trkpt><trkpt lat="43.82195743527966" lon="7.374382122250203"><ele>336.0</ele><time>2026-05-01T15:15:03.999Z</time></trkpt><trkpt lat="43.822001984560615" lon="7.374532885239316"><ele>336.0</ele><time>2026-05-01T15:15:04.999Z</time></trkpt><trkpt lat="43.822037113157585" lon="7.374686072487426"><ele>336.0</ele><time>2026-05-01T15:15:05.999Z</time></trkpt><trkpt lat="43.82203558306032" lon="7.374845499202551"><ele>336.0</ele><time>2026-05-01T15:15:06.999Z</time></trkpt><trkpt lat="43.82202970734201" lon="7.375010923485836"><ele>336.0</ele><time>2026-05-01T15:15:07.999Z</time></trkpt><trkpt lat="43.8220261149173" lon="7.375187442897373"><ele>336.25</ele><time>2026-05-01T15:15:08.999Z</time></trkpt><trkpt lat="43.82196712124473" lon="7.375353068179478"><ele>336.5</ele><time>2026-05-01T15:15:09.999Z</time></trkpt><trkpt lat="43.82192363145561" lon="7.375509085126949"><ele>336.75</ele><time>2026-05-01T15:15:10.999Z</time></trkpt><trkpt lat="43.82188782050215" lon="7.375652688273005"><ele>337.0</ele><time>2026-05-01T15:15:11.999Z</time></trkpt><trkpt lat="43.82181080328675" lon="7.375756186037437"><ele>331.40000000000003</ele><time>2026-05-01T15:15:12.999Z</time></trkpt><trkpt lat="43.821718738263215" lon="7.375824533108052"><ele>325.8</ele><time>2026-05-01T15:15:13.999Z</time></trkpt><trkpt lat="43.82163010693756" lon="7.375871020492498"><ele>320.2</ele><time>2026-05-01T15:15:14.999Z</time></trkpt><trkpt lat="43.82156569399392" lon="7.375935004701166"><ele>314.6</ele><time>2026-05-01T15:15:15.999Z</time></trkpt><trkpt lat="43.82153502314115" lon="7.376043167451169"><ele>309.0</ele><time>2026-05-01T15:15:16.999Z</time></trkpt><trkpt lat="43.82155533584302" lon="7.376180896213232"><ele>309.0</ele><time>2026-05-01T15:15:17.999Z</time></trkpt><trkpt lat="43.82160564325177" lon="7.376309711387102"><ele>309.0</ele><time>2026-05-01T15:15:18.999Z</time></trkpt><trkpt lat="43.821656648227766" lon="7.376413410667863"><ele>309.0</ele><time>2026-05-01T15:15:19.999Z</time></trkpt><trkpt lat="43.82165593672872" lon="7.3765308927833075"><ele>309.0</ele><time>2026-05-01T15:15:20.999Z</time></trkpt><trkpt lat="43.82158269121201" lon="7.37663395697608"><ele>309.0</ele><time>2026-05-01T15:15:21.999Z</time></trkpt><trkpt lat="43.82152228806216" lon="7.376755623435581"><ele>310.4</ele><time>2026-05-01T15:15:22.999Z</time></trkpt><trkpt lat="43.821450209287704" lon="7.376870442336037"><ele>311.79999999999995</ele><time>2026-05-01T15:15:23.999Z</time></trkpt><trkpt lat="43.82136368636145" lon="7.376955782941611"><ele>313.20000000000005</ele><time>2026-05-01T15:15:24.999Z</time></trkpt><trkpt lat="43.821275229612134" lon="7.377034053476215"><ele>314.6</ele><time>2026-05-01T15:15:25.999Z</time></trkpt><trkpt lat="43.82119530597588" lon="7.377124677923723"><ele>316.0</ele><time>2026-05-01T15:15:26.999Z</time></trkpt><trkpt lat="43.82114572543158" lon="7.377271609014724"><ele>315.2</ele><time>2026-05-01T15:15:27.999Z</time></trkpt><trkpt lat="43.82111996649823" lon="7.377424048135783"><ele>314.40000000000003</ele><time>2026-05-01T15:15:28.999Z</time></trkpt><trkpt lat="43.82106976236459" lon="7.377540436816253"><ele>313.6</ele><time>2026-05-01T15:15:29.999Z</time></trkpt><trkpt lat="43.82100002295728" lon="7.377632211111796"><ele>312.8</ele><time>2026-05-01T15:15:30.999Z</time></trkpt><trkpt lat="43.820905666326894" lon="7.377715306423488"><ele>312.0</ele><time>2026-05-01T15:15:31.999Z</time></trkpt><trkpt lat="43.820782764465896" lon="7.377780183599621"><ele>312.0</ele><time>2026-05-01T15:15:32.999Z</time></trkpt><trkpt lat="43.82064922342684" lon="7.3778533470310474"><ele>312.0</ele><time>2026-05-01T15:15:33.999Z</time></trkpt><trkpt lat="43.82050707185472" lon="7.377936961590847"><ele>312.0</ele><time>2026-05-01T15:15:34.999Z</time></trkpt><trkpt lat="43.820369085925336" lon="7.378031328692659"><ele>310.0</ele><time>2026-05-01T15:15:35.999Z</time></trkpt><trkpt lat="43.82025101425874" lon="7.378141228217607"><ele>308.0</ele><time>2026-05-01T15:15:36.999Z</time></trkpt><trkpt lat="43.8201307691766" lon="7.378237177643"><ele>306.0</ele><time>2026-05-01T15:15:37.999Z</time></trkpt><trkpt lat="43.82001204788412" lon="7.378314184359857"><ele>304.0</ele><time>2026-05-01T15:15:38.999Z</time></trkpt><trkpt lat="43.81990023850866" lon="7.378396197752779"><ele>304.0</ele><time>2026-05-01T15:15:39.999Z</time></trkpt><trkpt lat="43.819795306757435" lon="7.3784669972115"><ele>304.0</ele><time>2026-05-01T15:15:40.999Z</time></trkpt><trkpt lat="43.81969531265264" lon="7.378529899911607"><ele>304.0</ele><time>2026-05-01T15:15:41.999Z</time></trkpt><trkpt lat="43.81959823417549" lon="7.378575856520803"><ele>304.0</ele><time>2026-05-01T15:15:42.999Z</time></trkpt><trkpt lat="43.81949439366639" lon="7.3785057017516555"><ele>304.0</ele><time>2026-05-01T15:15:43.999Z</time></trkpt><trkpt lat="43.81938048639113" lon="7.378449704073135"><ele>302.0</ele><time>2026-05-01T15:15:44.999Z</time></trkpt><trkpt lat="43.8192884042367" lon="7.378350352950955"><ele>300.0</ele><time>2026-05-01T15:15:45.999Z</time></trkpt><trkpt lat="43.819196961881204" lon="7.3782739547491385"><ele>298.0</ele><time>2026-05-01T15:15:46.999Z</time></trkpt><trkpt lat="43.81912088077119" lon="7.3781937618655276"><ele>296.0</ele><time>2026-05-01T15:15:47.999Z</time></trkpt><trkpt lat="43.81902142371575" lon="7.37816984962449"><ele>294.0</ele><time>2026-05-01T15:15:48.999Z</time></trkpt><trkpt lat="43.81890790698228" lon="7.378196153256444"><ele>294.0</ele><time>2026-05-01T15:15:49.999Z</time></trkpt><trkpt lat="43.818804468154646" lon="7.3782660986654"><ele>294.0</ele><time>2026-05-01T15:15:50.999Z</time></trkpt><trkpt lat="43.81871704917229" lon="7.378364979418899"><ele>294.0</ele><time>2026-05-01T15:15:51.999Z</time></trkpt><trkpt lat="43.81866296220817" lon="7.3784930070114685"><ele>294.0</ele><time>2026-05-01T15:15:52.999Z</time></trkpt><trkpt lat="43.81865597740698" lon="7.378651302902562"><ele>294.0</ele><time>2026-05-01T15:15:53.999Z</time></trkpt><trkpt lat="43.818680843462104" lon="7.378817853363341"><ele>298.2</ele><time>2026-05-01T15:15:54.999Z</time></trkpt><trkpt lat="43.818685594207196" lon="7.378964566547755"><ele>302.4</ele><time>2026-05-01T15:15:55.999Z</time></trkpt><trkpt lat="43.81866900943264" lon="7.379097120792655"><ele>306.6</ele><time>2026-05-01T15:15:56.999Z</time></trkpt><trkpt lat="43.81862448954066" lon="7.379234198480625"><ele>310.8</ele><time>2026-05-01T15:15:57.999Z</time></trkpt><trkpt lat="43.818562757476414" lon="7.37936149093805"><ele>315.0</ele><time>2026-05-01T15:15:58.999Z</time></trkpt><trkpt lat="43.81850557004377" lon="7.379479520505455"><ele>314.75</ele><time>2026-05-01T15:15:59.999Z</time></trkpt><trkpt lat="43.81842008542547" lon="7.379560564346817"><ele>314.5</ele><time>2026-05-01T15:16:00.999Z</time></trkpt><trkpt lat="43.81831928625046" lon="7.379639408752014"><ele>314.25</ele><time>2026-05-01T15:16:01.999Z</time></trkpt><trkpt lat="43.81820092659907" lon="7.379701135210834"><ele>314.0</ele><time>2026-05-01T15:16:02.999Z</time></trkpt><trkpt lat="43.818067970894596" lon="7.379739457556264"><ele>314.0</ele><time>2026-05-01T15:16:03.999Z</time></trkpt><trkpt lat="43.81792798066882" lon="7.379783186107748"><ele>314.0</ele><time>2026-05-01T15:16:04.999Z</time></trkpt><trkpt lat="43.81778147614201" lon="7.379801547114103"><ele>314.0</ele><time>2026-05-01T15:16:05.999Z</time></trkpt><trkpt lat="43.817637645246684" lon="7.379820012597224"><ele>314.0</ele><time>2026-05-01T15:16:06.999Z</time></trkpt><trkpt lat="43.81750690954731" lon="7.379852890123446"><ele>311.5</ele><time>2026-05-01T15:16:07.999Z</time></trkpt><trkpt lat="43.81738473150111" lon="7.379895638382708"><ele>309.0</ele><time>2026-05-01T15:16:08.999Z</time></trkpt><trkpt lat="43.817267162819135" lon="7.379936906589906"><ele>306.5</ele><time>2026-05-01T15:16:09.999Z</time></trkpt><trkpt lat="43.817150251905055" lon="7.379950769802191"><ele>304.0</ele><time>2026-05-01T15:16:10.999Z</time></trkpt><trkpt lat="43.8170439890194" lon="7.380014246379547"><ele>304.0</ele><time>2026-05-01T15:16:11.999Z</time></trkpt><trkpt lat="43.81693068881293" lon="7.3800541904913155"><ele>304.0</ele><time>2026-05-01T15:16:12.999Z</time></trkpt><trkpt lat="43.816826033149646" lon="7.38012644982445"><ele>304.0</ele><time>2026-05-01T15:16:13.999Z</time></trkpt><trkpt lat="43.81672543291573" lon="7.380223643547106"><ele>304.0</ele><time>2026-05-01T15:16:14.999Z</time></trkpt><trkpt lat="43.8166152116888" lon="7.380296735339837"><ele>304.0</ele><time>2026-05-01T15:16:15.999Z</time></trkpt><trkpt lat="43.816520427584535" lon="7.380382041921257"><ele>304.0</ele><time>2026-05-01T15:16:16.999Z</time></trkpt><trkpt lat="43.81642492038313" lon="7.380460402856575"><ele>304.0</ele><time>2026-05-01T15:16:17.999Z</time></trkpt><trkpt lat="43.816323835926475" lon="7.38053497820726"><ele>304.0</ele><time>2026-05-01T15:16:18.999Z</time></trkpt><trkpt lat="43.81621543776754" lon="7.38063117321602"><ele>304.0</ele><time>2026-05-01T15:16:19.999Z</time></trkpt><trkpt lat="43.81609142095311" lon="7.3807261237200885"><ele>304.0</ele><time>2026-05-01T15:16:20.999Z</time></trkpt><trkpt lat="43.815982803532656" lon="7.380840919137599"><ele>304.0</ele><time>2026-05-01T15:16:21.999Z</time></trkpt><trkpt lat="43.8158898490094" lon="7.3809523717200785"><ele>304.0</ele><time>2026-05-01T15:16:22.999Z</time></trkpt><trkpt lat="43.81579345801076" lon="7.381044274498254"><ele>300.75</ele><time>2026-05-01T15:16:23.999Z</time></trkpt><trkpt lat="43.81568579820604" lon="7.3811140122395615"><ele>297.5</ele><time>2026-05-01T15:16:24.999Z</time></trkpt><trkpt lat="43.815570234102005" lon="7.3811674406793255"><ele>294.25</ele><time>2026-05-01T15:16:25.999Z</time></trkpt><trkpt lat="43.815443765056536" lon="7.381199806121998"><ele>291.0</ele><time>2026-05-01T15:16:26.999Z</time></trkpt><trkpt lat="43.81531482820034" lon="7.381200535696982"><ele>291.0</ele><time>2026-05-01T15:16:27.999Z</time></trkpt><trkpt lat="43.815195321303676" lon="7.381233845971749"><ele>291.0</ele><time>2026-05-01T15:16:28.999Z</time></trkpt><trkpt lat="43.81508819118866" lon="7.381249796936783"><ele>291.0</ele><time>2026-05-01T15:16:29.999Z</time></trkpt><trkpt lat="43.814985146623314" lon="7.3812417398964385"><ele>291.0</ele><time>2026-05-01T15:16:30.999Z</time></trkpt><trkpt lat="43.81488767223511" lon="7.381202318471563"><ele>291.0</ele><time>2026-05-01T15:16:31.999Z</time></trkpt><trkpt lat="43.81480271989164" lon="7.381085168507379"><ele>289.25</ele><time>2026-05-01T15:16:32.999Z</time></trkpt><trkpt lat="43.81468991096055" lon="7.381018502927625"><ele>287.5</ele><time>2026-05-01T15:16:33.999Z</time></trkpt><trkpt lat="43.81457336087304" lon="7.3809177099761465"><ele>285.75</ele><time>2026-05-01T15:16:34.999Z</time></trkpt><trkpt lat="43.81444779653389" lon="7.3808399447055475"><ele>284.0</ele><time>2026-05-01T15:16:35.999Z</time></trkpt><trkpt lat="43.814329573606784" lon="7.380764188974191"><ele>283.25</ele><time>2026-05-01T15:16:36.999Z</time></trkpt><trkpt lat="43.81420890852908" lon="7.380708583256466"><ele>282.5</ele><time>2026-05-01T15:16:37.999Z</time></trkpt><trkpt lat="43.814084430005586" lon="7.380670443386525"><ele>281.75</ele><time>2026-05-01T15:16:38.999Z</time></trkpt><trkpt lat="43.81396230016347" lon="7.380621308141077"><ele>281.0</ele><time>2026-05-01T15:16:39.999Z</time></trkpt><trkpt lat="43.81384623858304" lon="7.380562707395245"><ele>281.0</ele><time>2026-05-01T15:16:40.999Z</time></trkpt><trkpt lat="43.81372914991528" lon="7.380526564152876"><ele>281.0</ele><time>2026-05-01T15:16:41.999Z</time></trkpt><trkpt lat="43.81360942881528" lon="7.380513087460123"><ele>281.0</ele><time>2026-05-01T15:16:42.999Z</time></trkpt><trkpt lat="43.81348565105117" lon="7.380496612509076"><ele>281.0</ele><time>2026-05-01T15:16:43.999Z</time></trkpt><trkpt lat="43.81337032726307" lon="7.380452469440488"><ele>284.0</ele><time>2026-05-01T15:16:44.999Z</time></trkpt><trkpt lat="43.813256139018854" lon="7.3803807875843335"><ele>287.0</ele><time>2026-05-01T15:16:45.999Z</time></trkpt><trkpt lat="43.813149940774906" lon="7.380299294014655"><ele>290.0</ele><time>2026-05-01T15:16:46.999Z</time></trkpt><trkpt lat="43.81304782632716" lon="7.380205945528943"><ele>293.0</ele><time>2026-05-01T15:16:47.999Z</time></trkpt><trkpt lat="43.81295433658377" lon="7.380111674065841"><ele>293.0</ele><time>2026-05-01T15:16:48.999Z</time></trkpt><trkpt lat="43.812854437390364" lon="7.380042108337128"><ele>293.0</ele><time>2026-05-01T15:16:49.999Z</time></trkpt><trkpt lat="43.812754350065546" lon="7.379983248637181"><ele>293.0</ele><time>2026-05-01T15:16:50.999Z</time></trkpt><trkpt lat="43.812665221213685" lon="7.379899674291713"><ele>293.0</ele><time>2026-05-01T15:16:51.999Z</time></trkpt><trkpt lat="43.81259510349924" lon="7.379799711527471"><ele>293.0</ele><time>2026-05-01T15:16:52.999Z</time></trkpt><trkpt lat="43.8125308123115" lon="7.3797106979817535"><ele>296.8</ele><time>2026-05-01T15:16:53.999Z</time></trkpt><trkpt lat="43.812451268535156" lon="7.37965695650781"><ele>300.6</ele><time>2026-05-01T15:16:54.999Z</time></trkpt><trkpt lat="43.81235518414826" lon="7.379648169640473"><ele>304.4</ele><time>2026-05-01T15:16:55.999Z</time></trkpt><trkpt lat="43.81225489582464" lon="7.379669247358013"><ele>308.2</ele><time>2026-05-01T15:16:56.999Z</time></trkpt><trkpt lat="43.81216004596128" lon="7.379696035484328"><ele>312.0</ele><time>2026-05-01T15:16:57.999Z</time></trkpt><trkpt lat="43.81203181384804" lon="7.379717198731056"><ele>312.0</ele><time>2026-05-01T15:16:58.999Z</time></trkpt><trkpt lat="43.81192232807601" lon="7.379829553648358"><ele>312.0</ele><time>2026-05-01T15:16:59.999Z</time></trkpt><trkpt lat="43.8118076974257" lon="7.379912594512247"><ele>312.0</ele><time>2026-05-01T15:17:00.999Z</time></trkpt><trkpt lat="43.81170343277302" lon="7.380003779908924"><ele>312.0</ele><time>2026-05-01T15:17:01.999Z</time></trkpt><trkpt lat="43.811594557599086" lon="7.380081646834927"><ele>303.25</ele><time>2026-05-01T15:17:02.999Z</time></trkpt><trkpt lat="43.811478821196836" lon="7.380152939963902"><ele>294.5</ele><time>2026-05-01T15:17:03.999Z</time></trkpt><trkpt lat="43.81135979134707" lon="7.380200091220596"><ele>285.75</ele><time>2026-05-01T15:17:04.999Z</time></trkpt><trkpt lat="43.811253615432086" lon="7.380268479271385"><ele>277.0</ele><time>2026-05-01T15:17:05.999Z</time></trkpt><trkpt lat="43.81115151516113" lon="7.380341065231634"><ele>277.0</ele><time>2026-05-01T15:17:06.999Z</time></trkpt><trkpt lat="43.81104947478916" lon="7.380420017315194"><ele>277.0</ele><time>2026-05-01T15:17:07.999Z</time></trkpt><trkpt lat="43.81095045519408" lon="7.3805204777164395"><ele>277.0</ele><time>2026-05-01T15:17:08.999Z</time></trkpt><trkpt lat="43.81085818241079" lon="7.380641610422929"><ele>277.0</ele><time>2026-05-01T15:17:09.999Z</time></trkpt><trkpt lat="43.810771224298094" lon="7.380762322460955"><ele>280.2</ele><time>2026-05-01T15:17:10.999Z</time></trkpt><trkpt lat="43.81067809710038" lon="7.380859433894436"><ele>283.4</ele><time>2026-05-01T15:17:11.999Z</time></trkpt><trkpt lat="43.8106012124244" lon="7.38095193555684"><ele>286.6</ele><time>2026-05-01T15:17:12.999Z</time></trkpt><trkpt lat="43.810527707105955" lon="7.381015526117977"><ele>289.8</ele><time>2026-05-01T15:17:13.999Z</time></trkpt><trkpt lat="43.81044887721203" lon="7.38105539384067"><ele>293.0</ele><time>2026-05-01T15:17:14.999Z</time></trkpt><trkpt lat="43.810377670460056" lon="7.381114075666047"><ele>293.0</ele><time>2026-05-01T15:17:15.999Z</time></trkpt><trkpt lat="43.810307031422894" lon="7.381132871524843"><ele>293.0</ele><time>2026-05-01T15:17:16.999Z</time></trkpt><trkpt lat="43.81024780945608" lon="7.38119178602846"><ele>293.0</ele><time>2026-05-01T15:17:17.999Z</time></trkpt><trkpt lat="43.810163960947186" lon="7.381239119932208"><ele>293.0</ele><time>2026-05-01T15:17:18.999Z</time></trkpt><trkpt lat="43.81006820492301" lon="7.381303986711751"><ele>293.0</ele><time>2026-05-01T15:17:19.999Z</time></trkpt><trkpt lat="43.809961798856705" lon="7.381362075703722"><ele>295.2</ele><time>2026-05-01T15:17:20.999Z</time></trkpt><trkpt lat="43.80984759132606" lon="7.381396679127151"><ele>297.4</ele><time>2026-05-01T15:17:21.999Z</time></trkpt><trkpt lat="43.80973358272603" lon="7.381424861123627"><ele>299.59999999999997</ele><time>2026-05-01T15:17:22.999Z</time></trkpt><trkpt lat="43.80962649250524" lon="7.381435816494915"><ele>301.8</ele><time>2026-05-01T15:17:23.999Z</time></trkpt><trkpt lat="43.809523886410986" lon="7.381422719669902"><ele>304.0</ele><time>2026-05-01T15:17:24.999Z</time></trkpt><trkpt lat="43.809429699248824" lon="7.381377003147146"><ele>293.75</ele><time>2026-05-01T15:17:25.999Z</time></trkpt><trkpt lat="43.80928375579842" lon="7.38130560059305"><ele>283.5</ele><time>2026-05-01T15:17:26.999Z</time></trkpt><trkpt lat="43.8091592295804" lon="7.381284532323789"><ele>273.25</ele><time>2026-05-01T15:17:27.999Z</time></trkpt><trkpt lat="43.8090368130423" lon="7.3812761082811695"><ele>263.0</ele><time>2026-05-01T15:17:28.999Z</time></trkpt><trkpt lat="43.808920469416684" lon="7.381248889085945"><ele>263.0</ele><time>2026-05-01T15:17:29.999Z</time></trkpt><trkpt lat="43.80880668129188" lon="7.381209069706322"><ele>263.0</ele><time>2026-05-01T15:17:30.999Z</time></trkpt><trkpt lat="43.80870196268715" lon="7.381166557955234"><ele>263.0</ele><time>2026-05-01T15:17:31.999Z</time></trkpt><trkpt lat="43.80860368845935" lon="7.381120548090601"><ele>263.0</ele><time>2026-05-01T15:17:32.999Z</time></trkpt><trkpt lat="43.808502453910144" lon="7.381071202574412"><ele>263.0</ele><time>2026-05-01T15:17:33.999Z</time></trkpt><trkpt lat="43.808402202014804" lon="7.381043705596932"><ele>259.2</ele><time>2026-05-01T15:17:34.999Z</time></trkpt><trkpt lat="43.80831926016293" lon="7.380989845751711"><ele>255.4</ele><time>2026-05-01T15:17:35.999Z</time></trkpt><trkpt lat="43.80823761462623" lon="7.380954018061717"><ele>251.59999999999997</ele><time>2026-05-01T15:17:36.999Z</time></trkpt><trkpt lat="43.80815181506577" lon="7.380949461193734"><ele>247.79999999999998</ele><time>2026-05-01T15:17:37.999Z</time></trkpt><trkpt lat="43.8080538894203" lon="7.380987030269687"><ele>244.0</ele><time>2026-05-01T15:17:38.999Z</time></trkpt><trkpt lat="43.80796007856036" lon="7.381082027790645"><ele>244.0</ele><time>2026-05-01T15:17:39.999Z</time></trkpt><trkpt lat="43.8078729737078" lon="7.381201566417669"><ele>243.99999999999997</ele><time>2026-05-01T15:17:40.999Z</time></trkpt><trkpt lat="43.80778506104588" lon="7.381290382018529"><ele>243.99999999999997</ele><time>2026-05-01T15:17:41.999Z</time></trkpt><trkpt lat="43.80771145144049" lon="7.381364436736279"><ele>244.0</ele><time>2026-05-01T15:17:42.999Z</time></trkpt><trkpt lat="43.80762482166081" lon="7.381397692820438"><ele>244.0</ele><time>2026-05-01T15:17:43.999Z</time></trkpt><trkpt lat="43.8075330325368" lon="7.381412747831987"><ele>242.79999999999998</ele><time>2026-05-01T15:17:44.999Z</time></trkpt><trkpt lat="43.80743798661744" lon="7.3814334257077485"><ele>241.59999999999997</ele><time>2026-05-01T15:17:45.999Z</time></trkpt><trkpt lat="43.80734828315766" lon="7.381445331472591"><ele>240.4</ele><time>2026-05-01T15:17:46.999Z</time></trkpt><trkpt lat="43.80726214068588" lon="7.381446679312656"><ele>239.2</ele><time>2026-05-01T15:17:47.999Z</time></trkpt><trkpt lat="43.80716980757843" lon="7.381435128892297"><ele>238.0</ele><time>2026-05-01T15:17:48.999Z</time></trkpt><trkpt lat="43.806996064944485" lon="7.38123016683504"><ele>236.5</ele><time>2026-05-01T15:17:50.999Z</time></trkpt><trkpt lat="43.80688360475008" lon="7.38114642027437"><ele>235.0</ele><time>2026-05-01T15:17:51.999Z</time></trkpt><trkpt lat="43.8067908065345" lon="7.381048577879717"><ele>233.5</ele><time>2026-05-01T15:17:52.999Z</time></trkpt><trkpt lat="43.80669813642002" lon="7.380960084017145"><ele>232.0</ele><time>2026-05-01T15:17:53.999Z</time></trkpt><trkpt lat="43.80659185661878" lon="7.3808899380663515"><ele>232.0</ele><time>2026-05-01T15:17:54.999Z</time></trkpt><trkpt lat="43.80647459056354" lon="7.380848106459424"><ele>232.0</ele><time>2026-05-01T15:17:55.999Z</time></trkpt><trkpt lat="43.806360605390196" lon="7.380815303171671"><ele>232.0</ele><time>2026-05-01T15:17:56.999Z</time></trkpt><trkpt lat="43.80626369138109" lon="7.380756222160432"><ele>232.0</ele><time>2026-05-01T15:17:57.999Z</time></trkpt><trkpt lat="43.80618209266294" lon="7.380659434477904"><ele>232.0</ele><time>2026-05-01T15:17:58.999Z</time></trkpt><trkpt lat="43.806085768897425" lon="7.380606868555298"><ele>232.0</ele><time>2026-05-01T15:17:59.999Z</time></trkpt><trkpt lat="43.80598367682223" lon="7.38056771660946"><ele>232.0</ele><time>2026-05-01T15:18:00.999Z</time></trkpt><trkpt lat="43.80586427543975" lon="7.380577331429805"><ele>232.0</ele><time>2026-05-01T15:18:01.999Z</time></trkpt><trkpt lat="43.80573901380192" lon="7.38062979181995"><ele>232.5</ele><time>2026-05-01T15:18:02.999Z</time></trkpt><trkpt lat="43.805607873666" lon="7.380674433472162"><ele>233.0</ele><time>2026-05-01T15:18:03.999Z</time></trkpt><trkpt lat="43.805465569925836" lon="7.380658365892577"><ele>233.5</ele><time>2026-05-01T15:18:04.999Z</time></trkpt><trkpt lat="43.80531779612482" lon="7.380649425278259"><ele>234.0</ele><time>2026-05-01T15:18:05.999Z</time></trkpt><trkpt lat="43.805165872740076" lon="7.380647375842705"><ele>233.75</ele><time>2026-05-01T15:18:06.999Z</time></trkpt><trkpt lat="43.80503540883877" lon="7.380677088637818"><ele>233.5</ele><time>2026-05-01T15:18:07.999Z</time></trkpt><trkpt lat="43.804903732555914" lon="7.380677812932176"><ele>233.25</ele><time>2026-05-01T15:18:08.999Z</time></trkpt><trkpt lat="43.80477626428428" lon="7.380711483726322"><ele>233.0</ele><time>2026-05-01T15:18:09.999Z</time></trkpt><trkpt lat="43.80465864776655" lon="7.380722316279404"><ele>233.0</ele><time>2026-05-01T15:18:10.999Z</time></trkpt><trkpt lat="43.804543338791504" lon="7.380723941128159"><ele>233.0</ele><time>2026-05-01T15:18:11.999Z</time></trkpt><trkpt lat="43.80443315866981" lon="7.380718492559573"><ele>233.0</ele><time>2026-05-01T15:18:12.999Z</time></trkpt><trkpt lat="43.8043169934514" lon="7.3807212392498664"><ele>233.0</ele><time>2026-05-01T15:18:13.999Z</time></trkpt><trkpt lat="43.80420208175459" lon="7.3807422041745046"><ele>231.5</ele><time>2026-05-01T15:18:14.999Z</time></trkpt><trkpt lat="43.80409776009061" lon="7.380804004527937"><ele>230.0</ele><time>2026-05-01T15:18:15.999Z</time></trkpt><trkpt lat="43.80399642541036" lon="7.380900743995838"><ele>228.5</ele><time>2026-05-01T15:18:16.999Z</time></trkpt><trkpt lat="43.803897527879" lon="7.381024461002939"><ele>227.0</ele><time>2026-05-01T15:18:17.999Z</time></trkpt><trkpt lat="43.803802968707274" lon="7.381148414381206"><ele>227.0</ele><time>2026-05-01T15:18:18.999Z</time></trkpt><trkpt lat="43.80371107014167" lon="7.381285572848521"><ele>227.0</ele><time>2026-05-01T15:18:19.999Z</time></trkpt><trkpt lat="43.803631265327056" lon="7.381444994193047"><ele>227.0</ele><time>2026-05-01T15:18:20.999Z</time></trkpt><trkpt lat="43.80355572188613" lon="7.381610386168308"><ele>227.0</ele><time>2026-05-01T15:18:21.999Z</time></trkpt><trkpt lat="43.80348595528668" lon="7.381768534509881"><ele>228.0</ele><time>2026-05-01T15:18:22.999Z</time></trkpt><trkpt lat="43.80342342588834" lon="7.381921042512548"><ele>229.0</ele><time>2026-05-01T15:18:23.999Z</time></trkpt><trkpt lat="43.80337019727464" lon="7.382076215852501"><ele>230.0</ele><time>2026-05-01T15:18:24.999Z</time></trkpt><trkpt lat="43.80332614609234" lon="7.382236139452694"><ele>231.0</ele><time>2026-05-01T15:18:25.999Z</time></trkpt><trkpt lat="43.80328331336537" lon="7.382381349949575"><ele>231.0</ele><time>2026-05-01T15:18:26.999Z</time></trkpt><trkpt lat="43.803205571729315" lon="7.382489655044941"><ele>231.0</ele><time>2026-05-01T15:18:27.999Z</time></trkpt><trkpt lat="43.80311306227766" lon="7.382566127443858"><ele>231.0</ele><time>2026-05-01T15:18:28.999Z</time></trkpt><trkpt lat="43.80301273237031" lon="7.382661142104719"><ele>231.0</ele><time>2026-05-01T15:18:29.999Z</time></trkpt><trkpt lat="43.802906040450196" lon="7.382770292795947"><ele>231.0</ele><time>2026-05-01T15:18:30.999Z</time></trkpt><trkpt lat="43.8027969846801" lon="7.382874096355327"><ele>231.0</ele><time>2026-05-01T15:18:31.999Z</time></trkpt><trkpt lat="43.80267433803346" lon="7.382947747055824"><ele>231.0</ele><time>2026-05-01T15:18:32.999Z</time></trkpt><trkpt lat="43.80255415641412" lon="7.383023426755025"><ele>231.0</ele><time>2026-05-01T15:18:33.999Z</time></trkpt><trkpt lat="43.80243325649499" lon="7.383085986429962"><ele>232.75</ele><time>2026-05-01T15:18:34.999Z</time></trkpt><trkpt lat="43.80231557219897" lon="7.383134649053434"><ele>234.5</ele><time>2026-05-01T15:18:35.999Z</time></trkpt><trkpt lat="43.802203242493746" lon="7.383190200796923"><ele>236.25</ele><time>2026-05-01T15:18:36.999Z</time></trkpt><trkpt lat="43.80209234987499" lon="7.3832082044380485"><ele>238.0</ele><time>2026-05-01T15:18:37.999Z</time></trkpt><trkpt lat="43.80198990899816" lon="7.38321710544333"><ele>238.0</ele><time>2026-05-01T15:18:38.999Z</time></trkpt><trkpt lat="43.80189014218511" lon="7.383194663190004"><ele>238.0</ele><time>2026-05-01T15:18:39.999Z</time></trkpt><trkpt lat="43.80181020258311" lon="7.383110056539667"><ele>238.0</ele><time>2026-05-01T15:18:40.999Z</time></trkpt><trkpt lat="43.801719135111426" lon="7.383037332890756"><ele>238.0</ele><time>2026-05-01T15:18:41.999Z</time></trkpt><trkpt lat="43.80164161586428" lon="7.382967043434374"><ele>238.0</ele><time>2026-05-01T15:18:42.999Z</time></trkpt><trkpt lat="43.801545896472234" lon="7.3829375718890615"><ele>237.25</ele><time>2026-05-01T15:18:43.999Z</time></trkpt><trkpt lat="43.80143412495682" lon="7.382957542005894"><ele>236.5</ele><time>2026-05-01T15:18:44.999Z</time></trkpt><trkpt lat="43.801316742701445" lon="7.383002389824757"><ele>235.75</ele><time>2026-05-01T15:18:45.999Z</time></trkpt><trkpt lat="43.80119574919406" lon="7.383041119191791"><ele>235.0</ele><time>2026-05-01T15:18:46.999Z</time></trkpt><trkpt lat="43.801073820946854" lon="7.383036972412073"><ele>234.75</ele><time>2026-05-01T15:18:47.999Z</time></trkpt><trkpt lat="43.800943999975516" lon="7.383020936038593"><ele>234.5</ele><time>2026-05-01T15:18:48.999Z</time></trkpt><trkpt lat="43.800812185830154" lon="7.38300575382819"><ele>234.25</ele><time>2026-05-01T15:18:49.999Z</time></trkpt><trkpt lat="43.80067491190056" lon="7.382984386894291"><ele>234.0</ele><time>2026-05-01T15:18:50.999Z</time></trkpt><trkpt lat="43.80054841844414" lon="7.382959756329621"><ele>230.6</ele><time>2026-05-01T15:18:51.999Z</time></trkpt><trkpt lat="43.8004351001145" lon="7.382926239243938"><ele>227.2</ele><time>2026-05-01T15:18:52.999Z</time></trkpt><trkpt lat="43.800331948154344" lon="7.382890160252391"><ele>223.79999999999998</ele><time>2026-05-01T15:18:53.999Z</time></trkpt><trkpt lat="43.80023764298184" lon="7.382859699763383"><ele>220.39999999999998</ele><time>2026-05-01T15:18:54.999Z</time></trkpt><trkpt lat="43.800134276909155" lon="7.38285452176658"><ele>217.0</ele><time>2026-05-01T15:18:55.999Z</time></trkpt><trkpt lat="43.800019081227326" lon="7.382878999575165"><ele>216.5</ele><time>2026-05-01T15:18:56.999Z</time></trkpt><trkpt lat="43.79989554494751" lon="7.382916076396787"><ele>216.0</ele><time>2026-05-01T15:18:57.999Z</time></trkpt><trkpt lat="43.7997730412452" lon="7.3829339675916"><ele>215.5</ele><time>2026-05-01T15:18:58.999Z</time></trkpt><trkpt lat="43.79965492357072" lon="7.382901805375669"><ele>215.0</ele><time>2026-05-01T15:18:59.999Z</time></trkpt><trkpt lat="43.799525034936856" lon="7.382893799728447"><ele>215.0</ele><time>2026-05-01T15:19:00.999Z</time></trkpt><trkpt lat="43.799393124680314" lon="7.382858455491557"><ele>215.0</ele><time>2026-05-01T15:19:01.999Z</time></trkpt><trkpt lat="43.79926766081721" lon="7.382834421552193"><ele>215.0</ele><time>2026-05-01T15:19:02.999Z</time></trkpt><trkpt lat="43.799143832807545" lon="7.382807889916188"><ele>215.0</ele><time>2026-05-01T15:19:03.999Z</time></trkpt><trkpt lat="43.799014926746246" lon="7.38277650119401"><ele>215.25</ele><time>2026-05-01T15:19:04.999Z</time></trkpt><trkpt lat="43.798883801454004" lon="7.382753055885255"><ele>215.5</ele><time>2026-05-01T15:19:05.999Z</time></trkpt><trkpt lat="43.79876553939011" lon="7.382725088982808"><ele>215.75</ele><time>2026-05-01T15:19:06.999Z</time></trkpt><trkpt lat="43.798655995939356" lon="7.38270718029513"><ele>216.0</ele><time>2026-05-01T15:19:07.999Z</time></trkpt><trkpt lat="43.79855861694433" lon="7.382655464097163"><ele>216.5</ele><time>2026-05-01T15:19:08.999Z</time></trkpt><trkpt lat="43.79845294827239" lon="7.3826084085855115"><ele>217.0</ele><time>2026-05-01T15:19:09.999Z</time></trkpt><trkpt lat="43.79834741107191" lon="7.382534754313827"><ele>217.5</ele><time>2026-05-01T15:19:11Z</time></trkpt><trkpt lat="43.798230379410235" lon="7.382457498558612"><ele>218.0</ele><time>2026-05-01T15:19:12Z</time></trkpt><trkpt lat="43.79811098080302" lon="7.382379575038036"><ele>218.0</ele><time>2026-05-01T15:19:13Z</time></trkpt><trkpt lat="43.79799097086919" lon="7.382300851126771"><ele>218.0</ele><time>2026-05-01T15:19:14Z</time></trkpt><trkpt lat="43.79787779982382" lon="7.382226672909373"><ele>218.0</ele><time>2026-05-01T15:19:15Z</time></trkpt><trkpt lat="43.79776820887362" lon="7.382154992040676"><ele>218.0</ele><time>2026-05-01T15:19:16Z</time></trkpt><trkpt lat="43.79765400203514" lon="7.382105076616567"><ele>217.8</ele><time>2026-05-01T15:19:17Z</time></trkpt><trkpt lat="43.79754697344394" lon="7.382038734971354"><ele>217.60000000000002</ele><time>2026-05-01T15:19:18Z</time></trkpt><trkpt lat="43.79744233384222" lon="7.381985754126478"><ele>217.39999999999998</ele><time>2026-05-01T15:19:19Z</time></trkpt><trkpt lat="43.79734739708331" lon="7.381919833441749"><ele>217.2</ele><time>2026-05-01T15:19:20Z</time></trkpt><trkpt lat="43.797253796593345" lon="7.3818751094295765"><ele>217.0</ele><time>2026-05-01T15:19:21Z</time></trkpt><trkpt lat="43.79716725100875" lon="7.381834707849139"><ele>216.99999999999997</ele><time>2026-05-01T15:19:22Z</time></trkpt><trkpt lat="43.797088556146" lon="7.381797248617907"><ele>217.0</ele><time>2026-05-01T15:19:23Z</time></trkpt><trkpt lat="43.79700921415505" lon="7.3817607972822055"><ele>217.0</ele><time>2026-05-01T15:19:24Z</time></trkpt><trkpt lat="43.79691832636566" lon="7.381717679249698"><ele>217.0</ele><time>2026-05-01T15:19:25Z</time></trkpt><trkpt lat="43.79682634915711" lon="7.381676356138414"><ele>216.99999999999997</ele><time>2026-05-01T15:19:26Z</time></trkpt><trkpt lat="43.796746434661095" lon="7.381638629976244"><ele>217.0</ele><time>2026-05-01T15:19:27Z</time></trkpt><trkpt lat="43.79667645067063" lon="7.381595667809101"><ele>217.6</ele><time>2026-05-01T15:19:28Z</time></trkpt><trkpt lat="43.79661416048162" lon="7.381544220293753"><ele>218.2</ele><time>2026-05-01T15:19:29Z</time></trkpt><trkpt lat="43.79658454439236" lon="7.381424498229926"><ele>218.8</ele><time>2026-05-01T15:19:30Z</time></trkpt><trkpt lat="43.79655622571383" lon="7.38130736589945"><ele>219.4</ele><time>2026-05-01T15:19:31Z</time></trkpt><trkpt lat="43.79657188068204" lon="7.381167038257777"><ele>220.0</ele><time>2026-05-01T15:19:32Z</time></trkpt><trkpt lat="43.7966088403528" lon="7.381040906526067"><ele>220.0</ele><time>2026-05-01T15:19:33Z</time></trkpt><trkpt lat="43.796668707258604" lon="7.380935196263913"><ele>220.0</ele><time>2026-05-01T15:19:34Z</time></trkpt><trkpt lat="43.79674895227123" lon="7.38086037417377"><ele>220.0</ele><time>2026-05-01T15:19:35Z</time></trkpt><trkpt lat="43.79684868674348" lon="7.380815803858784"><ele>220.0</ele><time>2026-05-01T15:19:36Z</time></trkpt><trkpt lat="43.79694614687449" lon="7.3807716688827565"><ele>220.0</ele><time>2026-05-01T15:19:37Z</time></trkpt><trkpt lat="43.797028422324125" lon="7.38071014392248"><ele>218.6</ele><time>2026-05-01T15:19:38Z</time></trkpt><trkpt lat="43.79709643216659" lon="7.380612859314689"><ele>217.2</ele><time>2026-05-01T15:19:39Z</time></trkpt><trkpt lat="43.797139220974444" lon="7.380479171906689"><ele>215.8</ele><time>2026-05-01T15:19:40Z</time></trkpt><trkpt lat="43.79716109737799" lon="7.38033204298835"><ele>214.4</ele><time>2026-05-01T15:19:40.999Z</time></trkpt><trkpt lat="43.79716512356915" lon="7.380194792347353"><ele>213.0</ele><time>2026-05-01T15:19:41.999Z</time></trkpt><trkpt lat="43.79715297652331" lon="7.3800573570559385"><ele>212.2</ele><time>2026-05-01T15:19:42.999Z</time></trkpt><trkpt lat="43.79710574752102" lon="7.379939243971302"><ele>211.4</ele><time>2026-05-01T15:19:43.999Z</time></trkpt><trkpt lat="43.79702859965056" lon="7.3798495625371"><ele>210.6</ele><time>2026-05-01T15:19:44.999Z</time></trkpt><trkpt lat="43.79691892458369" lon="7.379799867106684"><ele>209.79999999999998</ele><time>2026-05-01T15:19:45.999Z</time></trkpt><trkpt lat="43.79680579925269" lon="7.379766009729308"><ele>209.0</ele><time>2026-05-01T15:19:46.999Z</time></trkpt><trkpt lat="43.79670186240294" lon="7.379706591303966"><ele>209.6</ele><time>2026-05-01T15:19:47.999Z</time></trkpt><trkpt lat="43.79660921528066" lon="7.379611994777033"><ele>210.2</ele><time>2026-05-01T15:19:48.999Z</time></trkpt><trkpt lat="43.79652528492173" lon="7.379508876503253"><ele>210.79999999999998</ele><time>2026-05-01T15:19:49.999Z</time></trkpt><trkpt lat="43.7964436474803" lon="7.379418810657006"><ele>211.39999999999998</ele><time>2026-05-01T15:19:50.999Z</time></trkpt><trkpt lat="43.79635964826735" lon="7.379324813467761"><ele>212.0</ele><time>2026-05-01T15:19:51.999Z</time></trkpt><trkpt lat="43.79626604529024" lon="7.379236856420545"><ele>212.0</ele><time>2026-05-01T15:19:52.999Z</time></trkpt><trkpt lat="43.79616703097597" lon="7.379160770463521"><ele>212.0</ele><time>2026-05-01T15:19:53.999Z</time></trkpt><trkpt lat="43.79606124322097" lon="7.379096077240759"><ele>212.0</ele><time>2026-05-01T15:19:54.999Z</time></trkpt><trkpt lat="43.7959607344239" lon="7.3790398085720135"><ele>212.0</ele><time>2026-05-01T15:19:55.999Z</time></trkpt><trkpt lat="43.79586763108947" lon="7.378988530193592"><ele>212.0</ele><time>2026-05-01T15:19:56.999Z</time></trkpt><trkpt lat="43.79578446795565" lon="7.378939803064844"><ele>211.33333333333334</ele><time>2026-05-01T15:19:57.999Z</time></trkpt><trkpt lat="43.79571091747469" lon="7.37889371947595"><ele>210.66666666666669</ele><time>2026-05-01T15:19:58.999Z</time></trkpt><trkpt lat="43.79563643994101" lon="7.378851310081562"><ele>210.0</ele><time>2026-05-01T15:19:59.999Z</time></trkpt><trkpt lat="43.795569323009644" lon="7.378816127045529"><ele>209.33333333333331</ele><time>2026-05-01T15:20:00.999Z</time></trkpt><trkpt lat="43.795496831690876" lon="7.378772978210854"><ele>208.66666666666666</ele><time>2026-05-01T15:20:01.999Z</time></trkpt><trkpt lat="43.79541681169369" lon="7.378724664916358"><ele>208.0</ele><time>2026-05-01T15:20:02.999Z</time></trkpt><trkpt lat="43.79533359310787" lon="7.378680554044241"><ele>207.99999999999997</ele><time>2026-05-01T15:20:03.999Z</time></trkpt><trkpt lat="43.79524904639084" lon="7.378629823036134"><ele>208.0</ele><time>2026-05-01T15:20:04.999Z</time></trkpt><trkpt lat="43.79516516346628" lon="7.378588205572454"><ele>208.0</ele><time>2026-05-01T15:20:05.999Z</time></trkpt><trkpt lat="43.7950818149121" lon="7.378541153534932"><ele>208.0</ele><time>2026-05-01T15:20:06.999Z</time></trkpt><trkpt lat="43.79501445777939" lon="7.378464896827508"><ele>207.99999999999997</ele><time>2026-05-01T15:20:07.999Z</time></trkpt><trkpt lat="43.794944056160794" lon="7.378399765696342"><ele>208.0</ele><time>2026-05-01T15:20:08.999Z</time></trkpt><trkpt lat="43.79487362136192" lon="7.378327567956609"><ele>208.49999999999997</ele><time>2026-05-01T15:20:09.999Z</time></trkpt><trkpt lat="43.79479606276646" lon="7.378275421184046"><ele>209.0</ele><time>2026-05-01T15:20:10.999Z</time></trkpt><trkpt lat="43.794723438862796" lon="7.378203881617084"><ele>209.5</ele><time>2026-05-01T15:20:11.999Z</time></trkpt><trkpt lat="43.79465352760965" lon="7.378132598591163"><ele>210.0</ele><time>2026-05-01T15:20:12.999Z</time></trkpt><trkpt lat="43.79459381156957" lon="7.3780378968804"><ele>210.49999999999997</ele><time>2026-05-01T15:20:13.999Z</time></trkpt><trkpt lat="43.79452116076088" lon="7.377955515323679"><ele>211.0</ele><time>2026-05-01T15:20:14.999Z</time></trkpt><trkpt lat="43.79444645041857" lon="7.377871398412207"><ele>210.20000000000002</ele><time>2026-05-01T15:20:15.999Z</time></trkpt><trkpt lat="43.79437126741106" lon="7.37778719313692"><ele>209.4</ele><time>2026-05-01T15:20:16.999Z</time></trkpt><trkpt lat="43.79429607442961" lon="7.3777024491828795"><ele>208.6</ele><time>2026-05-01T15:20:17.999Z</time></trkpt><trkpt lat="43.794227999776915" lon="7.3776256207735855"><ele>207.8</ele><time>2026-05-01T15:20:18.999Z</time></trkpt><trkpt lat="43.794152600310944" lon="7.377539475793027"><ele>207.0</ele><time>2026-05-01T15:20:19.999Z</time></trkpt><trkpt lat="43.79408778368513" lon="7.377465137416635"><ele>207.0</ele><time>2026-05-01T15:20:20.999Z</time></trkpt><trkpt lat="43.79402482669758" lon="7.3773929675864975"><ele>207.0</ele><time>2026-05-01T15:20:21.999Z</time></trkpt><trkpt lat="43.79395584592494" lon="7.377341018597462"><ele>207.0</ele><time>2026-05-01T15:20:22.999Z</time></trkpt><trkpt lat="43.79390574652438" lon="7.37727480131902"><ele>207.0</ele><time>2026-05-01T15:20:23.999Z</time></trkpt><trkpt lat="43.79384163651339" lon="7.377198403412347"><ele>207.0</ele><time>2026-05-01T15:20:24.999Z</time></trkpt><trkpt lat="43.79376961951931" lon="7.3771192319391785"><ele>207.0</ele><time>2026-05-01T15:20:25.999Z</time></trkpt><trkpt lat="43.793689839399946" lon="7.377056199148709"><ele>207.39999999999998</ele><time>2026-05-01T15:20:26.999Z</time></trkpt><trkpt lat="43.79360543967335" lon="7.377015023157144"><ele>207.79999999999998</ele><time>2026-05-01T15:20:27.999Z</time></trkpt><trkpt lat="43.7935199666758" lon="7.377015683921827"><ele>208.2</ele><time>2026-05-01T15:20:28.999Z</time></trkpt><trkpt lat="43.79343141904543" lon="7.37705642981429"><ele>208.6</ele><time>2026-05-01T15:20:29.999Z</time></trkpt><trkpt lat="43.793341041898245" lon="7.377133326493917"><ele>209.0</ele><time>2026-05-01T15:20:30.999Z</time></trkpt><trkpt lat="43.79324485826415" lon="7.377228870584615"><ele>209.0</ele><time>2026-05-01T15:20:31.999Z</time></trkpt><trkpt lat="43.79315135939057" lon="7.377308212586567"><ele>209.0</ele><time>2026-05-01T15:20:32.999Z</time></trkpt><trkpt lat="43.79305789376442" lon="7.37738025551226"><ele>209.0</ele><time>2026-05-01T15:20:33.999Z</time></trkpt><trkpt lat="43.79296577689757" lon="7.377434064093895"><ele>209.0</ele><time>2026-05-01T15:20:34.999Z</time></trkpt><trkpt lat="43.79288121562211" lon="7.37749885364287"><ele>209.0</ele><time>2026-05-01T15:20:35.999Z</time></trkpt><trkpt lat="43.792796044193835" lon="7.377520477451371"><ele>209.0</ele><time>2026-05-01T15:20:36.999Z</time></trkpt><trkpt lat="43.79271390191999" lon="7.37755005347554"><ele>209.0</ele><time>2026-05-01T15:20:37.999Z</time></trkpt><trkpt lat="43.7926282205349" lon="7.377537586389828"><ele>209.0</ele><time>2026-05-01T15:20:38.999Z</time></trkpt><trkpt lat="43.79254017075194" lon="7.377498845229038"><ele>209.0</ele><time>2026-05-01T15:20:39.999Z</time></trkpt><trkpt lat="43.79244707700868" lon="7.377453299713472"><ele>209.0</ele><time>2026-05-01T15:20:40.999Z</time></trkpt><trkpt lat="43.79236223429711" lon="7.377411050067522"><ele>208.66666666666669</ele><time>2026-05-01T15:20:41.999Z</time></trkpt><trkpt lat="43.79227835318941" lon="7.377390540316885"><ele>208.33333333333334</ele><time>2026-05-01T15:20:42.999Z</time></trkpt><trkpt lat="43.792210052039444" lon="7.3773567820256325"><ele>208.0</ele><time>2026-05-01T15:20:43.999Z</time></trkpt><trkpt lat="43.79214261682384" lon="7.377316004810009"><ele>207.66666666666669</ele><time>2026-05-01T15:20:44.999Z</time></trkpt><trkpt lat="43.792050987505256" lon="7.3772653039421225"><ele>207.33333333333334</ele><time>2026-05-01T15:20:45.999Z</time></trkpt><trkpt lat="43.79196427520296" lon="7.377205685918005"><ele>207.0</ele><time>2026-05-01T15:20:46.999Z</time></trkpt><trkpt lat="43.7918809507113" lon="7.3771557246366575"><ele>206.0</ele><time>2026-05-01T15:20:47.999Z</time></trkpt><trkpt lat="43.79178950902848" lon="7.377097306121069"><ele>205.0</ele><time>2026-05-01T15:20:48.999Z</time></trkpt><trkpt lat="43.79172562401309" lon="7.376984304819777"><ele>204.0</ele><time>2026-05-01T15:20:49.999Z</time></trkpt><trkpt lat="43.79167551283356" lon="7.376858331020798"><ele>203.0</ele><time>2026-05-01T15:20:50.999Z</time></trkpt><trkpt lat="43.79163131808141" lon="7.376744473638609"><ele>202.0</ele><time>2026-05-01T15:20:51.999Z</time></trkpt><trkpt lat="43.79156636078986" lon="7.376646804501939"><ele>202.0</ele><time>2026-05-01T15:20:52.999Z</time></trkpt><trkpt lat="43.791473644176236" lon="7.376566344068236"><ele>202.0</ele><time>2026-05-01T15:20:53.999Z</time></trkpt><trkpt lat="43.79136803874818" lon="7.376500068528298"><ele>202.0</ele><time>2026-05-01T15:20:54.999Z</time></trkpt><trkpt lat="43.7912685686911" lon="7.376418203601863"><ele>202.0</ele><time>2026-05-01T15:20:55.999Z</time></trkpt><trkpt lat="43.791174489292565" lon="7.376364688144176"><ele>202.0</ele><time>2026-05-01T15:20:56.999Z</time></trkpt><trkpt lat="43.79108659154643" lon="7.376299272401553"><ele>201.49999999999997</ele><time>2026-05-01T15:20:57.999Z</time></trkpt><trkpt lat="43.79101219333481" lon="7.376227143170084"><ele>201.0</ele><time>2026-05-01T15:20:58.999Z</time></trkpt><trkpt lat="43.790934110152605" lon="7.376172733072707"><ele>200.5</ele><time>2026-05-01T15:20:59.999Z</time></trkpt><trkpt lat="43.79087426888589" lon="7.376108381813997"><ele>200.0</ele><time>2026-05-01T15:21:00.999Z</time></trkpt><trkpt lat="43.79082489566947" lon="7.376035652041841"><ele>199.49999999999997</ele><time>2026-05-01T15:21:01.999Z</time></trkpt><trkpt lat="43.79077267718572" lon="7.375976260830976"><ele>199.0</ele><time>2026-05-01T15:21:02.999Z</time></trkpt><trkpt lat="43.790750732824684" lon="7.375861297300915"><ele>198.39999999999998</ele><time>2026-05-01T15:21:03.999Z</time></trkpt><trkpt lat="43.79077446318993" lon="7.37572758941568"><ele>197.8</ele><time>2026-05-01T15:21:04.999Z</time></trkpt><trkpt lat="43.79076538342698" lon="7.375583844003382"><ele>197.2</ele><time>2026-05-01T15:21:05.999Z</time></trkpt><trkpt lat="43.790778825897746" lon="7.375462074750327"><ele>196.60000000000002</ele><time>2026-05-01T15:21:06.999Z</time></trkpt><trkpt lat="43.79078464761794" lon="7.375344634274086"><ele>196.0</ele><time>2026-05-01T15:21:07.999Z</time></trkpt><trkpt lat="43.790769868436094" lon="7.375231253413089"><ele>195.8</ele><time>2026-05-01T15:21:08.999Z</time></trkpt><trkpt lat="43.790730894177265" lon="7.375121046817293"><ele>195.60000000000002</ele><time>2026-05-01T15:21:09.999Z</time></trkpt><trkpt lat="43.79065946369793" lon="7.375038541331888"><ele>195.4</ele><time>2026-05-01T15:21:10.999Z</time></trkpt><trkpt lat="43.79055728000546" lon="7.374973118159005"><ele>195.2</ele><time>2026-05-01T15:21:11.999Z</time></trkpt><trkpt lat="43.790462331699146" lon="7.374898633466047"><ele>195.0</ele><time>2026-05-01T15:21:12.999Z</time></trkpt><trkpt lat="43.79034711634928" lon="7.374837855051468"><ele>195.0</ele><time>2026-05-01T15:21:13.999Z</time></trkpt><trkpt lat="43.79023781749175" lon="7.374778700874306"><ele>195.0</ele><time>2026-05-01T15:21:14.999Z</time></trkpt><trkpt lat="43.79012050846283" lon="7.374710424768107"><ele>195.0</ele><time>2026-05-01T15:21:15.999Z</time></trkpt><trkpt lat="43.79000326473273" lon="7.374658172638349"><ele>195.0</ele><time>2026-05-01T15:21:17Z</time></trkpt><trkpt lat="43.78989364836635" lon="7.3746143189524"><ele>196.0</ele><time>2026-05-01T15:21:18Z</time></trkpt><trkpt lat="43.78979019569106" lon="7.374569666890924"><ele>197.0</ele><time>2026-05-01T15:21:19Z</time></trkpt><trkpt lat="43.78969260511997" lon="7.3745280295327005"><ele>198.0</ele><time>2026-05-01T15:21:20Z</time></trkpt><trkpt lat="43.78959906530918" lon="7.374489439451509"><ele>199.0</ele><time>2026-05-01T15:21:21Z</time></trkpt><trkpt lat="43.78951296277698" lon="7.374449125346146"><ele>200.0</ele><time>2026-05-01T15:21:22Z</time></trkpt><trkpt lat="43.78943217092632" lon="7.374415392388592"><ele>200.0</ele><time>2026-05-01T15:21:23Z</time></trkpt><trkpt lat="43.78934253643156" lon="7.374380093296002"><ele>200.0</ele><time>2026-05-01T15:21:24Z</time></trkpt><trkpt lat="43.7892430813812" lon="7.3743411052563275"><ele>200.0</ele><time>2026-05-01T15:21:25Z</time></trkpt><trkpt lat="43.78913251622741" lon="7.374304851563736"><ele>200.0</ele><time>2026-05-01T15:21:26Z</time></trkpt><trkpt lat="43.78902243548229" lon="7.374243354221769"><ele>200.0</ele><time>2026-05-01T15:21:27Z</time></trkpt><trkpt lat="43.78891376693293" lon="7.374199550653784"><ele>199.8</ele><time>2026-05-01T15:21:28Z</time></trkpt><trkpt lat="43.788808496221705" lon="7.374157468666636"><ele>199.6</ele><time>2026-05-01T15:21:29Z</time></trkpt><trkpt lat="43.788702275923214" lon="7.3741200873499535"><ele>199.39999999999998</ele><time>2026-05-01T15:21:30Z</time></trkpt><trkpt lat="43.78859484081918" lon="7.374074973692067"><ele>199.2</ele><time>2026-05-01T15:21:31Z</time></trkpt><trkpt lat="43.78848524991457" lon="7.37402724711389"><ele>199.0</ele><time>2026-05-01T15:21:32Z</time></trkpt><trkpt lat="43.788375472341855" lon="7.373980847830887"><ele>199.25</ele><time>2026-05-01T15:21:33Z</time></trkpt><trkpt lat="43.788266514379686" lon="7.3739357427724865"><ele>199.5</ele><time>2026-05-01T15:21:34Z</time></trkpt><trkpt lat="43.78814958273015" lon="7.373911778828652"><ele>199.75</ele><time>2026-05-01T15:21:35Z</time></trkpt><trkpt lat="43.78804128287616" lon="7.373843920213408"><ele>200.0</ele><time>2026-05-01T15:21:36Z</time></trkpt><trkpt lat="43.787930236427314" lon="7.373798807242816"><ele>200.0</ele><time>2026-05-01T15:21:37Z</time></trkpt><trkpt lat="43.78781578083682" lon="7.373752686445336"><ele>200.0</ele><time>2026-05-01T15:21:38Z</time></trkpt><trkpt lat="43.78769942321936" lon="7.3737057992303345"><ele>200.0</ele><time>2026-05-01T15:21:39Z</time></trkpt><trkpt lat="43.78758240511568" lon="7.373658645875002"><ele>200.0</ele><time>2026-05-01T15:21:40Z</time></trkpt><trkpt lat="43.787464937912404" lon="7.373623830567191"><ele>199.2</ele><time>2026-05-01T15:21:41Z</time></trkpt><trkpt lat="43.78735215088317" lon="7.3735810828628425"><ele>198.4</ele><time>2026-05-01T15:21:42Z</time></trkpt><trkpt lat="43.78724410305007" lon="7.37353214645444"><ele>197.60000000000002</ele><time>2026-05-01T15:21:43Z</time></trkpt><trkpt lat="43.78714312591909" lon="7.373487790078054"><ele>196.8</ele><time>2026-05-01T15:21:44Z</time></trkpt><trkpt lat="43.78703667817104" lon="7.373451539704609"><ele>196.0</ele><time>2026-05-01T15:21:45Z</time></trkpt><trkpt lat="43.78692670608488" lon="7.373428397124131"><ele>196.25</ele><time>2026-05-01T15:21:46Z</time></trkpt><trkpt lat="43.78681185530764" lon="7.3734214645548475"><ele>196.5</ele><time>2026-05-01T15:21:47Z</time></trkpt><trkpt lat="43.78669545704814" lon="7.3734252942835425"><ele>196.75</ele><time>2026-05-01T15:21:48Z</time></trkpt><trkpt lat="43.7865784159013" lon="7.373408229563963"><ele>197.0</ele><time>2026-05-01T15:21:49Z</time></trkpt><trkpt lat="43.78646403543357" lon="7.373410687370888"><ele>197.0</ele><time>2026-05-01T15:21:50Z</time></trkpt><trkpt lat="43.786352023784175" lon="7.373439927636255"><ele>197.0</ele><time>2026-05-01T15:21:51Z</time></trkpt><trkpt lat="43.78624300617489" lon="7.373452283466928"><ele>197.0</ele><time>2026-05-01T15:21:52Z</time></trkpt><trkpt lat="43.78613240189453" lon="7.373485845650713"><ele>197.0</ele><time>2026-05-01T15:21:53Z</time></trkpt><trkpt lat="43.786025201883376" lon="7.373543911800312"><ele>198.0</ele><time>2026-05-01T15:21:54Z</time></trkpt><trkpt lat="43.78592538039566" lon="7.373625659375273"><ele>199.0</ele><time>2026-05-01T15:21:55Z</time></trkpt><trkpt lat="43.78582650714543" lon="7.373723134020991"><ele>200.0</ele><time>2026-05-01T15:21:56Z</time></trkpt><trkpt lat="43.785731243027094" lon="7.373806332851035"><ele>201.0</ele><time>2026-05-01T15:21:57Z</time></trkpt><trkpt lat="43.78562536813901" lon="7.3738693861732605"><ele>198.0</ele><time>2026-05-01T15:21:57.999Z</time></trkpt><trkpt lat="43.785503961293905" lon="7.373889000318177"><ele>195.0</ele><time>2026-05-01T15:21:58.999Z</time></trkpt><trkpt lat="43.78538603972887" lon="7.3739290119248"><ele>192.0</ele><time>2026-05-01T15:21:59.999Z</time></trkpt><trkpt lat="43.785265379437426" lon="7.3739398114548145"><ele>189.0</ele><time>2026-05-01T15:22:00.999Z</time></trkpt><trkpt lat="43.78514951503517" lon="7.373934736415069"><ele>189.0</ele><time>2026-05-01T15:22:01.999Z</time></trkpt><trkpt lat="43.7850375919325" lon="7.373903544857044"><ele>189.0</ele><time>2026-05-01T15:22:02.999Z</time></trkpt><trkpt lat="43.78492666237133" lon="7.373831509765456"><ele>189.0</ele><time>2026-05-01T15:22:03.999Z</time></trkpt><trkpt lat="43.78481138569182" lon="7.373786638439581"><ele>189.0</ele><time>2026-05-01T15:22:04.999Z</time></trkpt><trkpt lat="43.78469784291173" lon="7.373718772863468"><ele>190.0</ele><time>2026-05-01T15:22:05.999Z</time></trkpt><trkpt lat="43.78458500428086" lon="7.373663397609837"><ele>191.0</ele><time>2026-05-01T15:22:06.999Z</time></trkpt><trkpt lat="43.784476207261754" lon="7.373590308907654"><ele>192.0</ele><time>2026-05-01T15:22:07.999Z</time></trkpt><trkpt lat="43.78436988759461" lon="7.373531964408576"><ele>193.0</ele><time>2026-05-01T15:22:08.999Z</time></trkpt><trkpt lat="43.784266709184706" lon="7.3734787868789615"><ele>193.0</ele><time>2026-05-01T15:22:09.999Z</time></trkpt><trkpt lat="43.78415733720929" lon="7.373437051943692"><ele>193.0</ele><time>2026-05-01T15:22:10.999Z</time></trkpt><trkpt lat="43.7840508841336" lon="7.373398986573101"><ele>193.0</ele><time>2026-05-01T15:22:11.999Z</time></trkpt><trkpt lat="43.78393915348518" lon="7.37337235336558"><ele>193.0</ele><time>2026-05-01T15:22:12.999Z</time></trkpt><trkpt lat="43.78382795873421" lon="7.3733233509330445"><ele>193.0</ele><time>2026-05-01T15:22:13.999Z</time></trkpt><trkpt lat="43.78370891136284" lon="7.373289173299763"><ele>193.0</ele><time>2026-05-01T15:22:14.999Z</time></trkpt><trkpt lat="43.78359131211027" lon="7.373254042428798"><ele>193.0</ele><time>2026-05-01T15:22:15.999Z</time></trkpt><trkpt lat="43.78348216631463" lon="7.37320563011757"><ele>193.0</ele><time>2026-05-01T15:22:16.999Z</time></trkpt><trkpt lat="43.78337462142341" lon="7.373136050779014"><ele>192.0</ele><time>2026-05-01T15:22:17.999Z</time></trkpt><trkpt lat="43.783272896430994" lon="7.373046421476191"><ele>191.0</ele><time>2026-05-01T15:22:18.999Z</time></trkpt><trkpt lat="43.783178676929595" lon="7.372938168506071"><ele>190.0</ele><time>2026-05-01T15:22:19.999Z</time></trkpt><trkpt lat="43.783090160273936" lon="7.372819599702673"><ele>189.0</ele><time>2026-05-01T15:22:20.999Z</time></trkpt><trkpt lat="43.78299677502789" lon="7.372701954257241"><ele>189.75</ele><time>2026-05-01T15:22:21.999Z</time></trkpt><trkpt lat="43.782888588769936" lon="7.372600609902298"><ele>190.5</ele><time>2026-05-01T15:22:22.999Z</time></trkpt><trkpt lat="43.78276262323149" lon="7.372523237235637"><ele>191.25</ele><time>2026-05-01T15:22:23.999Z</time></trkpt><trkpt lat="43.7826316764118" lon="7.372451904349039"><ele>192.0</ele><time>2026-05-01T15:22:24.999Z</time></trkpt><trkpt lat="43.782510646666914" lon="7.372383438810972"><ele>192.0</ele><time>2026-05-01T15:22:25.999Z</time></trkpt><trkpt lat="43.78239573665758" lon="7.372312456937315"><ele>192.0</ele><time>2026-05-01T15:22:26.999Z</time></trkpt><trkpt lat="43.7822811137845" lon="7.372242217653643"><ele>192.0</ele><time>2026-05-01T15:22:27.999Z</time></trkpt><trkpt lat="43.78216205056174" lon="7.37218171419191"><ele>192.0</ele><time>2026-05-01T15:22:28.999Z</time></trkpt><trkpt lat="43.782041389897145" lon="7.372133105654326"><ele>191.25</ele><time>2026-05-01T15:22:29.999Z</time></trkpt><trkpt lat="43.78191936913932" lon="7.372106391492683"><ele>190.5</ele><time>2026-05-01T15:22:30.999Z</time></trkpt><trkpt lat="43.78179390353601" lon="7.37211080578306"><ele>189.75</ele><time>2026-05-01T15:22:31.999Z</time></trkpt><trkpt lat="43.78166790700957" lon="7.3721486515491685"><ele>189.0</ele><time>2026-05-01T15:22:32.999Z</time></trkpt><trkpt lat="43.7815392172652" lon="7.372212976757749"><ele>189.0</ele><time>2026-05-01T15:22:33.999Z</time></trkpt><trkpt lat="43.78140443317694" lon="7.372260823983098"><ele>189.0</ele><time>2026-05-01T15:22:34.999Z</time></trkpt><trkpt lat="43.78129124570992" lon="7.372343687738244"><ele>189.0</ele><time>2026-05-01T15:22:35.999Z</time></trkpt><trkpt lat="43.78116873087643" lon="7.372391105468921"><ele>189.0</ele><time>2026-05-01T15:22:36.999Z</time></trkpt><trkpt lat="43.781051838831026" lon="7.372450674136429"><ele>190.25</ele><time>2026-05-01T15:22:37.999Z</time></trkpt><trkpt lat="43.78094562897087" lon="7.372510042280326"><ele>191.5</ele><time>2026-05-01T15:22:38.999Z</time></trkpt><trkpt lat="43.780840997889314" lon="7.3725615034750795"><ele>192.75</ele><time>2026-05-01T15:22:39.999Z</time></trkpt><trkpt lat="43.78072049438249" lon="7.372574389109143"><ele>194.0</ele><time>2026-05-01T15:22:40.999Z</time></trkpt><trkpt lat="43.78059604384117" lon="7.372577465659749"><ele>194.0</ele><time>2026-05-01T15:22:41.999Z</time></trkpt><trkpt lat="43.78046854512571" lon="7.372579290951231"><ele>194.0</ele><time>2026-05-01T15:22:42.999Z</time></trkpt><trkpt lat="43.78034773798487" lon="7.372532684047458"><ele>194.0</ele><time>2026-05-01T15:22:43.999Z</time></trkpt><trkpt lat="43.78023006151313" lon="7.372462944467359"><ele>194.0</ele><time>2026-05-01T15:22:44.999Z</time></trkpt><trkpt lat="43.78013033302149" lon="7.372341989326854"><ele>193.5</ele><time>2026-05-01T15:22:45.999Z</time></trkpt><trkpt lat="43.78001391048223" lon="7.372235891521916"><ele>193.0</ele><time>2026-05-01T15:22:46.999Z</time></trkpt><trkpt lat="43.77991051860231" lon="7.37209303496083"><ele>192.5</ele><time>2026-05-01T15:22:47.999Z</time></trkpt><trkpt lat="43.779807933470906" lon="7.371940649474602"><ele>192.0</ele><time>2026-05-01T15:22:48.999Z</time></trkpt><trkpt lat="43.77970791292107" lon="7.371805023493012"><ele>190.5</ele><time>2026-05-01T15:22:49.999Z</time></trkpt><trkpt lat="43.77959927626853" lon="7.371676471120316"><ele>189.0</ele><time>2026-05-01T15:22:50.999Z</time></trkpt><trkpt lat="43.77947343721739" lon="7.371568866793346"><ele>187.5</ele><time>2026-05-01T15:22:51.999Z</time></trkpt><trkpt lat="43.77933616102104" lon="7.371477643472161"><ele>186.0</ele><time>2026-05-01T15:22:52.999Z</time></trkpt><trkpt lat="43.77919021627236" lon="7.371396483753695"><ele>193.33333333333331</ele><time>2026-05-01T15:22:53.999Z</time></trkpt><trkpt lat="43.77904332847361" lon="7.371329677102102"><ele>200.66666666666666</ele><time>2026-05-01T15:22:54.999Z</time></trkpt><trkpt lat="43.778896921127135" lon="7.3712640138147085"><ele>208.0</ele><time>2026-05-01T15:22:55.999Z</time></trkpt><trkpt lat="43.77875989020521" lon="7.371181215191408"><ele>208.0</ele><time>2026-05-01T15:22:56.999Z</time></trkpt><trkpt lat="43.77863612245475" lon="7.371087084584898"><ele>208.0</ele><time>2026-05-01T15:22:57.999Z</time></trkpt><trkpt lat="43.77851766055123" lon="7.370995188946898"><ele>208.0</ele><time>2026-05-01T15:22:58.999Z</time></trkpt><trkpt lat="43.77839080274421" lon="7.3709320503908575"><ele>208.0</ele><time>2026-05-01T15:22:59.999Z</time></trkpt><trkpt lat="43.77824285000663" lon="7.3709107058040155"><ele>207.25</ele><time>2026-05-01T15:23:00.999Z</time></trkpt><trkpt lat="43.77810146185164" lon="7.370912072632418"><ele>206.5</ele><time>2026-05-01T15:23:01.999Z</time></trkpt><trkpt lat="43.77796358026015" lon="7.370928850808535"><ele>205.75</ele><time>2026-05-01T15:23:02.999Z</time></trkpt><trkpt lat="43.777820941369676" lon="7.37097804125325"><ele>205.0</ele><time>2026-05-01T15:23:03.999Z</time></trkpt><trkpt lat="43.77768017281801" lon="7.371062504611893"><ele>205.0</ele><time>2026-05-01T15:23:04.999Z</time></trkpt><trkpt lat="43.7775320993438" lon="7.371132695254026"><ele>205.0</ele><time>2026-05-01T15:23:05.999Z</time></trkpt><trkpt lat="43.77738971103343" lon="7.371204517299382"><ele>205.0</ele><time>2026-05-01T15:23:06.999Z</time></trkpt><trkpt lat="43.77723938223626" lon="7.371254390799291"><ele>205.0</ele><time>2026-05-01T15:23:07.999Z</time></trkpt><trkpt lat="43.77708259855415" lon="7.37132040891673"><ele>205.0</ele><time>2026-05-01T15:23:08.999Z</time></trkpt><trkpt lat="43.77693507381169" lon="7.371365175232731"><ele>205.0</ele><time>2026-05-01T15:23:09.999Z</time></trkpt><trkpt lat="43.77679712515458" lon="7.371404199385828"><ele>200.0</ele><time>2026-05-01T15:23:10.999Z</time></trkpt><trkpt lat="43.77666357575408" lon="7.371422515246443"><ele>195.0</ele><time>2026-05-01T15:23:11.999Z</time></trkpt><trkpt lat="43.77654842469678" lon="7.3714555553631715"><ele>190.0</ele><time>2026-05-01T15:23:12.999Z</time></trkpt><trkpt lat="43.77644196053788" lon="7.371480249996214"><ele>185.0</ele><time>2026-05-01T15:23:13.999Z</time></trkpt><trkpt lat="43.77634148860985" lon="7.371500898761011"><ele>185.0</ele><time>2026-05-01T15:23:14.999Z</time></trkpt><trkpt lat="43.77624016393934" lon="7.371454108157494"><ele>185.0</ele><time>2026-05-01T15:23:15.999Z</time></trkpt><trkpt lat="43.77617033508919" lon="7.371330360323775"><ele>185.0</ele><time>2026-05-01T15:23:16.999Z</time></trkpt><trkpt lat="43.77608820669621" lon="7.371208418556544"><ele>185.0</ele><time>2026-05-01T15:23:17.999Z</time></trkpt><trkpt lat="43.77600941344343" lon="7.371103517893695"><ele>185.5</ele><time>2026-05-01T15:23:18.999Z</time></trkpt><trkpt lat="43.775926338549965" lon="7.371013731074644"><ele>186.0</ele><time>2026-05-01T15:23:19.999Z</time></trkpt><trkpt lat="43.77582477387274" lon="7.370937107565169"><ele>186.5</ele><time>2026-05-01T15:23:20.999Z</time></trkpt><trkpt lat="43.775703532003355" lon="7.37087865562197"><ele>187.0</ele><time>2026-05-01T15:23:22Z</time></trkpt><trkpt lat="43.775570121915436" lon="7.370813918349592"><ele>187.0</ele><time>2026-05-01T15:23:23Z</time></trkpt><trkpt lat="43.775429657564736" lon="7.370750236060416"><ele>187.0</ele><time>2026-05-01T15:23:24Z</time></trkpt><trkpt lat="43.775296630369795" lon="7.370676924849267"><ele>187.0</ele><time>2026-05-01T15:23:25Z</time></trkpt><trkpt lat="43.77516491562876" lon="7.370608505039151"><ele>187.0</ele><time>2026-05-01T15:23:26Z</time></trkpt><trkpt lat="43.77502936356375" lon="7.370561444231759"><ele>186.25</ele><time>2026-05-01T15:23:27Z</time></trkpt><trkpt lat="43.774888228418455" lon="7.370556082789257"><ele>185.5</ele><time>2026-05-01T15:23:28Z</time></trkpt><trkpt lat="43.77475324261276" lon="7.370569592176401"><ele>184.75</ele><time>2026-05-01T15:23:29Z</time></trkpt><trkpt lat="43.774627842443834" lon="7.370602295470034"><ele>184.0</ele><time>2026-05-01T15:23:30Z</time></trkpt><trkpt lat="43.77450764547191" lon="7.370683580348253"><ele>184.0</ele><time>2026-05-01T15:23:31Z</time></trkpt><trkpt lat="43.77440260149807" lon="7.3707970268748575"><ele>184.0</ele><time>2026-05-01T15:23:32Z</time></trkpt><trkpt lat="43.77430930167115" lon="7.3709534997177855"><ele>184.0</ele><time>2026-05-01T15:23:33Z</time></trkpt><trkpt lat="43.77421926051648" lon="7.3711323758859075"><ele>184.0</ele><time>2026-05-01T15:23:34Z</time></trkpt><trkpt lat="43.77412016350732" lon="7.371308272037068"><ele>187.66666666666669</ele><time>2026-05-01T15:23:35Z</time></trkpt><trkpt lat="43.774001430609175" lon="7.3714491157850075"><ele>191.33333333333334</ele><time>2026-05-01T15:23:36Z</time></trkpt><trkpt lat="43.77388404738094" lon="7.371579964286175"><ele>195.0</ele><time>2026-05-01T15:23:37Z</time></trkpt><trkpt lat="43.77378989165201" lon="7.371733674310768"><ele>195.0</ele><time>2026-05-01T15:23:38Z</time></trkpt><trkpt lat="43.77370644421347" lon="7.371888683407662"><ele>195.0</ele><time>2026-05-01T15:23:39Z</time></trkpt><trkpt lat="43.773645793455955" lon="7.372054586378911"><ele>195.0</ele><time>2026-05-01T15:23:40Z</time></trkpt><trkpt lat="43.77355099618994" lon="7.372183816271705"><ele>195.0</ele><time>2026-05-01T15:23:41Z</time></trkpt><trkpt lat="43.773438871054765" lon="7.372286774321643"><ele>188.66666666666666</ele><time>2026-05-01T15:23:42Z</time></trkpt><trkpt lat="43.77331179119798" lon="7.372385205604677"><ele>182.33333333333331</ele><time>2026-05-01T15:23:43Z</time></trkpt><trkpt lat="43.773176677799405" lon="7.372491114230187"><ele>176.0</ele><time>2026-05-01T15:23:44Z</time></trkpt><trkpt lat="43.77305211424178" lon="7.372616994361068"><ele>176.0</ele><time>2026-05-01T15:23:45Z</time></trkpt><trkpt lat="43.772930837514465" lon="7.3726893438578545"><ele>176.0</ele><time>2026-05-01T15:23:46Z</time></trkpt><trkpt lat="43.77283224170215" lon="7.372768806930857"><ele>176.0</ele><time>2026-05-01T15:23:47Z</time></trkpt><trkpt lat="43.77275049943199" lon="7.3728593573560754"><ele>176.0</ele><time>2026-05-01T15:23:48Z</time></trkpt><trkpt lat="43.772659627923815" lon="7.372911811096408"><ele>176.0</ele><time>2026-05-01T15:23:49Z</time></trkpt><trkpt lat="43.77256114106223" lon="7.372946882177613"><ele>173.8</ele><time>2026-05-01T15:23:50Z</time></trkpt><trkpt lat="43.772451095308256" lon="7.372929960155897"><ele>171.60000000000002</ele><time>2026-05-01T15:23:51Z</time></trkpt><trkpt lat="43.77235572714894" lon="7.372955426818667"><ele>169.4</ele><time>2026-05-01T15:23:52Z</time></trkpt><trkpt lat="43.772263111008385" lon="7.372932649203261"><ele>167.2</ele><time>2026-05-01T15:23:53Z</time></trkpt><trkpt lat="43.772178424411955" lon="7.372895016122467"><ele>165.0</ele><time>2026-05-01T15:23:54Z</time></trkpt><trkpt lat="43.77210381153441" lon="7.372842973453716"><ele>165.0</ele><time>2026-05-01T15:23:55Z</time></trkpt><trkpt lat="43.772031664378055" lon="7.372791725883861"><ele>165.0</ele><time>2026-05-01T15:23:56Z</time></trkpt><trkpt lat="43.771962207227205" lon="7.372759749124559"><ele>165.0</ele><time>2026-05-01T15:23:57Z</time></trkpt><trkpt lat="43.77189941301346" lon="7.3727297630742346"><ele>165.0</ele><time>2026-05-01T15:23:58Z</time></trkpt><trkpt lat="43.771840606285515" lon="7.372693916672018"><ele>165.0</ele><time>2026-05-01T15:23:59Z</time></trkpt><trkpt lat="43.7717415780584" lon="7.372615598329513"><ele>165.0</ele><time>2026-05-01T15:24:01Z</time></trkpt><trkpt lat="43.771665088075125" lon="7.3725619132347715"><ele>165.0</ele><time>2026-05-01T15:24:03Z</time></trkpt><trkpt lat="43.77159906490021" lon="7.3725225444396365"><ele>165.0</ele><time>2026-05-01T15:24:05Z</time></trkpt><trkpt lat="43.7715298693467" lon="7.372480546262295"><ele>165.0</ele><time>2026-05-01T15:24:07Z</time></trkpt><trkpt lat="43.77141688350271" lon="7.3724132419651935"><ele>165.0</ele><time>2026-05-01T15:24:09Z</time></trkpt><trkpt lat="43.77133449684817" lon="7.3723694214671385"><ele>165.0</ele><time>2026-05-01T15:24:10Z</time></trkpt><trkpt lat="43.77123939315041" lon="7.372316884815122"><ele>165.0</ele><time>2026-05-01T15:24:11Z</time></trkpt><trkpt lat="43.771145364378" lon="7.372252986767301"><ele>165.0</ele><time>2026-05-01T15:24:12Z</time></trkpt><trkpt lat="43.77104452899662" lon="7.372187695806545"><ele>165.0</ele><time>2026-05-01T15:24:13Z</time></trkpt><trkpt lat="43.770936689806035" lon="7.372116336844668"><ele>165.0</ele><time>2026-05-01T15:24:14Z</time></trkpt><trkpt lat="43.770828532537834" lon="7.372010776285282"><ele>164.75</ele><time>2026-05-01T15:24:15Z</time></trkpt><trkpt lat="43.77070220858143" lon="7.371923846577809"><ele>164.5</ele><time>2026-05-01T15:24:16Z</time></trkpt><trkpt lat="43.77057348270694" lon="7.3718476966870945"><ele>164.25</ele><time>2026-05-01T15:24:17Z</time></trkpt><trkpt lat="43.770454299751385" lon="7.3717781947120375"><ele>164.0</ele><time>2026-05-01T15:24:18Z</time></trkpt><trkpt lat="43.77034122934146" lon="7.3717104641614055"><ele>164.0</ele><time>2026-05-01T15:24:19Z</time></trkpt><trkpt lat="43.770228037350286" lon="7.371657103535952"><ele>164.0</ele><time>2026-05-01T15:24:20Z</time></trkpt><trkpt lat="43.77012762116583" lon="7.371564358519336"><ele>164.0</ele><time>2026-05-01T15:24:21Z</time></trkpt><trkpt lat="43.77004000925994" lon="7.371458939223829"><ele>164.0</ele><time>2026-05-01T15:24:22Z</time></trkpt><trkpt lat="43.76996804369263" lon="7.371330170141921"><ele>164.25</ele><time>2026-05-01T15:24:23Z</time></trkpt><trkpt lat="43.769911903003" lon="7.371175165740426"><ele>164.5</ele><time>2026-05-01T15:24:24Z</time></trkpt><trkpt lat="43.76986908705132" lon="7.3710067462349835"><ele>164.75</ele><time>2026-05-01T15:24:25Z</time></trkpt><trkpt lat="43.76983228372466" lon="7.37084623033855"><ele>165.0</ele><time>2026-05-01T15:24:26Z</time></trkpt><trkpt lat="43.76980320457214" lon="7.370695228112116"><ele>165.0</ele><time>2026-05-01T15:24:27Z</time></trkpt><trkpt lat="43.769776644977846" lon="7.370547254394676"><ele>165.0</ele><time>2026-05-01T15:24:28Z</time></trkpt><trkpt lat="43.76976235295343" lon="7.3704027757246635"><ele>165.0</ele><time>2026-05-01T15:24:29Z</time></trkpt><trkpt lat="43.769770024311" lon="7.370258237086401"><ele>165.0</ele><time>2026-05-01T15:24:30Z</time></trkpt><trkpt lat="43.76979408950833" lon="7.370117000189183"><ele>165.0</ele><time>2026-05-01T15:24:31Z</time></trkpt><trkpt lat="43.76983813233197" lon="7.36997360129083"><ele>164.0</ele><time>2026-05-01T15:24:32Z</time></trkpt><trkpt lat="43.769870576186506" lon="7.3698348004376415"><ele>163.0</ele><time>2026-05-01T15:24:33Z</time></trkpt><trkpt lat="43.769850949060285" lon="7.369678859059587"><ele>162.0</ele><time>2026-05-01T15:24:34Z</time></trkpt><trkpt lat="43.76985667070613" lon="7.369515479579637"><ele>161.0</ele><time>2026-05-01T15:24:35Z</time></trkpt><trkpt lat="43.76982675087907" lon="7.369347875081734"><ele>161.0</ele><time>2026-05-01T15:24:36Z</time></trkpt><trkpt lat="43.769894287679826" lon="7.369145157777501"><ele>161.0</ele><time>2026-05-01T15:24:37Z</time></trkpt><trkpt lat="43.76993223803109" lon="7.368939800636824"><ele>161.0</ele><time>2026-05-01T15:24:38Z</time></trkpt><trkpt lat="43.76996911855044" lon="7.368737649721654"><ele>161.33333333333331</ele><time>2026-05-01T15:24:39Z</time></trkpt><trkpt lat="43.77000496758272" lon="7.368541663848493"><ele>161.66666666666666</ele><time>2026-05-01T15:24:40Z</time></trkpt><trkpt lat="43.770051780490974" lon="7.368339823214247"><ele>162.0</ele><time>2026-05-01T15:24:41Z</time></trkpt><trkpt lat="43.77010793022619" lon="7.368139276339987"><ele>161.0</ele><time>2026-05-01T15:24:42Z</time></trkpt><trkpt lat="43.7701746815738" lon="7.367942217532226"><ele>160.0</ele><time>2026-05-01T15:24:43Z</time></trkpt><trkpt lat="43.77024624353628" lon="7.367745297675518"><ele>159.0</ele><time>2026-05-01T15:24:43.999Z</time></trkpt><trkpt lat="43.770323894810545" lon="7.367545709641131"><ele>158.0</ele><time>2026-05-01T15:24:44.999Z</time></trkpt><trkpt lat="43.77039866023298" lon="7.367350055874736"><ele>157.0</ele><time>2026-05-01T15:24:45.999Z</time></trkpt><trkpt lat="43.77047203045308" lon="7.367147290535186"><ele>156.0</ele><time>2026-05-01T15:24:46.999Z</time></trkpt><trkpt lat="43.77053625918532" lon="7.366948990812094"><ele>156.0</ele><time>2026-05-01T15:24:47.999Z</time></trkpt><trkpt lat="43.77059102668221" lon="7.366744572532315"><ele>156.0</ele><time>2026-05-01T15:24:48.999Z</time></trkpt><trkpt lat="43.770634198032084" lon="7.3665324196605715"><ele>156.0</ele><time>2026-05-01T15:24:49.999Z</time></trkpt><trkpt lat="43.7706568733497" lon="7.366316075156744"><ele>157.0</ele><time>2026-05-01T15:24:50.999Z</time></trkpt><trkpt lat="43.77066244247845" lon="7.366099524478784"><ele>158.0</ele><time>2026-05-01T15:24:51.999Z</time></trkpt><trkpt lat="43.77064332993958" lon="7.365876132679396"><ele>159.0</ele><time>2026-05-01T15:24:52.999Z</time></trkpt><trkpt lat="43.77059458711777" lon="7.3656603157908815"><ele>161.0</ele><time>2026-05-01T15:24:53.999Z</time></trkpt><trkpt lat="43.77052797952003" lon="7.36545786051103"><ele>163.0</ele><time>2026-05-01T15:24:54.999Z</time></trkpt><trkpt lat="43.77043852147517" lon="7.36526949212374"><ele>165.0</ele><time>2026-05-01T15:24:55.999Z</time></trkpt><trkpt lat="43.770348441159584" lon="7.365099746688673"><ele>165.0</ele><time>2026-05-01T15:24:56.999Z</time></trkpt><trkpt lat="43.77025999299846" lon="7.364940875064295"><ele>165.0</ele><time>2026-05-01T15:24:57.999Z</time></trkpt><trkpt lat="43.770173509392755" lon="7.364783476970614"><ele>165.0</ele><time>2026-05-01T15:24:58.999Z</time></trkpt><trkpt lat="43.770085546821434" lon="7.3646267037173265"><ele>165.0</ele><time>2026-05-01T15:24:59.999Z</time></trkpt><trkpt lat="43.76999408310562" lon="7.3644757782146755"><ele>166.25</ele><time>2026-05-01T15:25:00.999Z</time></trkpt><trkpt lat="43.7699048820382" lon="7.364323258067199"><ele>167.5</ele><time>2026-05-01T15:25:01.999Z</time></trkpt><trkpt lat="43.769815199412335" lon="7.3641697193156235"><ele>168.75</ele><time>2026-05-01T15:25:02.999Z</time></trkpt><trkpt lat="43.76972335068585" lon="7.364016140135359"><ele>170.0</ele><time>2026-05-01T15:25:03.999Z</time></trkpt><trkpt lat="43.76963371237172" lon="7.3638596489318715"><ele>170.0</ele><time>2026-05-01T15:25:04.999Z</time></trkpt><trkpt lat="43.769544588307944" lon="7.363700010844623"><ele>170.0</ele><time>2026-05-01T15:25:05.999Z</time></trkpt><trkpt lat="43.7694525722478" lon="7.363544777779533"><ele>170.0</ele><time>2026-05-01T15:25:06.999Z</time></trkpt><trkpt lat="43.769356407868536" lon="7.363385391020353"><ele>170.0</ele><time>2026-05-01T15:25:07.999Z</time></trkpt><trkpt lat="43.76926036341557" lon="7.363223532639753"><ele>163.66666666666666</ele><time>2026-05-01T15:25:08.999Z</time></trkpt><trkpt lat="43.76916545054018" lon="7.363061012242427"><ele>157.33333333333334</ele><time>2026-05-01T15:25:09.999Z</time></trkpt><trkpt lat="43.76906887278841" lon="7.36289879793122"><ele>151.0</ele><time>2026-05-01T15:25:10.999Z</time></trkpt><trkpt lat="43.76897240166928" lon="7.362735274806052"><ele>151.0</ele><time>2026-05-01T15:25:11.999Z</time></trkpt><trkpt lat="43.76887603902001" lon="7.362572078074402"><ele>151.0</ele><time>2026-05-01T15:25:12.999Z</time></trkpt><trkpt lat="43.76878193009372" lon="7.3624079620355705"><ele>151.0</ele><time>2026-05-01T15:25:13.999Z</time></trkpt><trkpt lat="43.76868559326176" lon="7.362239922373262"><ele>150.33333333333334</ele><time>2026-05-01T15:25:14.999Z</time></trkpt><trkpt lat="43.76858857631392" lon="7.362074578173614"><ele>149.66666666666666</ele><time>2026-05-01T15:25:15.999Z</time></trkpt><trkpt lat="43.76849007479693" lon="7.361907850504864"><ele>149.0</ele><time>2026-05-01T15:25:16.999Z</time></trkpt><trkpt lat="43.76839110959729" lon="7.3617373394897525"><ele>149.0</ele><time>2026-05-01T15:25:17.999Z</time></trkpt><trkpt lat="43.76829380053986" lon="7.3615708886373215"><ele>149.0</ele><time>2026-05-01T15:25:18.999Z</time></trkpt><trkpt lat="43.76819584576791" lon="7.36140484430751"><ele>149.0</ele><time>2026-05-01T15:25:19.999Z</time></trkpt><trkpt lat="43.768099191304415" lon="7.361235841360634"><ele>148.66666666666666</ele><time>2026-05-01T15:25:20.999Z</time></trkpt><trkpt lat="43.7680021567656" lon="7.361063867662052"><ele>148.33333333333334</ele><time>2026-05-01T15:25:21.999Z</time></trkpt><trkpt lat="43.76790585799552" lon="7.360896594794804"><ele>148.0</ele><time>2026-05-01T15:25:22.999Z</time></trkpt><trkpt lat="43.767805745506166" lon="7.360724090312579"><ele>148.0</ele><time>2026-05-01T15:25:23.999Z</time></trkpt><trkpt lat="43.767700590255465" lon="7.3605619321757025"><ele>148.0</ele><time>2026-05-01T15:25:24.999Z</time></trkpt><trkpt lat="43.767584511790616" lon="7.360413299562732"><ele>148.0</ele><time>2026-05-01T15:25:25.999Z</time></trkpt><trkpt lat="43.76746371271893" lon="7.360278587052387"><ele>147.0</ele><time>2026-05-01T15:25:26.999Z</time></trkpt><trkpt lat="43.76734039128622" lon="7.360142639987949"><ele>146.0</ele><time>2026-05-01T15:25:28Z</time></trkpt><trkpt lat="43.76721881766812" lon="7.360018482681947"><ele>145.0</ele><time>2026-05-01T15:25:29Z</time></trkpt><trkpt lat="43.76709400444364" lon="7.359891865754563"><ele>145.0</ele><time>2026-05-01T15:25:30Z</time></trkpt><trkpt lat="43.76697733945955" lon="7.359764865839639"><ele>145.0</ele><time>2026-05-01T15:25:31Z</time></trkpt><trkpt lat="43.76685879134476" lon="7.359640747804305"><ele>145.0</ele><time>2026-05-01T15:25:32Z</time></trkpt><trkpt lat="43.766740371606126" lon="7.359514248688702"><ele>145.0</ele><time>2026-05-01T15:25:33Z</time></trkpt><trkpt lat="43.76662023871508" lon="7.359386543336084"><ele>145.0</ele><time>2026-05-01T15:25:34Z</time></trkpt><trkpt lat="43.766508115644" lon="7.359258889243245"><ele>145.0</ele><time>2026-05-01T15:25:35Z</time></trkpt><trkpt lat="43.76640248223295" lon="7.359116717949565"><ele>145.0</ele><time>2026-05-01T15:25:36Z</time></trkpt><trkpt lat="43.766304133287655" lon="7.358955996557669"><ele>145.0</ele><time>2026-05-01T15:25:37Z</time></trkpt><trkpt lat="43.76621315484629" lon="7.358782299299425"><ele>145.0</ele><time>2026-05-01T15:25:38Z</time></trkpt><trkpt lat="43.76613191816779" lon="7.358602691570291"><ele>145.0</ele><time>2026-05-01T15:25:39Z</time></trkpt><trkpt lat="43.766061240753245" lon="7.358409346619256"><ele>145.0</ele><time>2026-05-01T15:25:40Z</time></trkpt><trkpt lat="43.76600925953592" lon="7.358199066598842"><ele>149.66666666666669</ele><time>2026-05-01T15:25:41Z</time></trkpt><trkpt lat="43.76595866523876" lon="7.3579816539439"><ele>154.33333333333334</ele><time>2026-05-01T15:25:42Z</time></trkpt><trkpt lat="43.76590896136064" lon="7.357778309581805"><ele>159.0</ele><time>2026-05-01T15:25:43Z</time></trkpt><trkpt lat="43.765864084932225" lon="7.357598101891553"><ele>159.0</ele><time>2026-05-01T15:25:44Z</time></trkpt><trkpt lat="43.76584319949033" lon="7.35740678974434"><ele>159.0</ele><time>2026-05-01T15:25:45Z</time></trkpt><trkpt lat="43.76583493038305" lon="7.357197498240511"><ele>159.0</ele><time>2026-05-01T15:25:46Z</time></trkpt><trkpt lat="43.765836368649246" lon="7.356982595287834"><ele>159.0</ele><time>2026-05-01T15:25:47Z</time></trkpt><trkpt lat="43.765846573354374" lon="7.356775206098322"><ele>160.0</ele><time>2026-05-01T15:25:48Z</time></trkpt><trkpt lat="43.76587321872733" lon="7.3565618200426"><ele>161.0</ele><time>2026-05-01T15:25:49Z</time></trkpt><trkpt lat="43.765913671023746" lon="7.35635014705222"><ele>162.0</ele><time>2026-05-01T15:25:50Z</time></trkpt><trkpt lat="43.76595639126426" lon="7.356146337204646"><ele>162.75</ele><time>2026-05-01T15:25:51Z</time></trkpt><trkpt lat="43.765991762934526" lon="7.355964573594409"><ele>163.5</ele><time>2026-05-01T15:25:52Z</time></trkpt><trkpt lat="43.7660265468344" lon="7.355792618222276"><ele>164.25</ele><time>2026-05-01T15:25:53Z</time></trkpt><trkpt lat="43.76606681311075" lon="7.355624605238995"><ele>165.0</ele><time>2026-05-01T15:25:54Z</time></trkpt><trkpt lat="43.76612584730897" lon="7.355465658734691"><ele>165.0</ele><time>2026-05-01T15:25:55Z</time></trkpt><trkpt lat="43.766215823308734" lon="7.355323550101993"><ele>165.0</ele><time>2026-05-01T15:25:56Z</time></trkpt><trkpt lat="43.76632844832247" lon="7.3551952854596845"><ele>165.0</ele><time>2026-05-01T15:25:57Z</time></trkpt><trkpt lat="43.76643959286794" lon="7.3550793694225"><ele>165.0</ele><time>2026-05-01T15:25:58Z</time></trkpt><trkpt lat="43.76654390828722" lon="7.3549728909314105"><ele>165.0</ele><time>2026-05-01T15:25:59Z</time></trkpt><trkpt lat="43.766655795836236" lon="7.354910646877694"><ele>165.0</ele><time>2026-05-01T15:26:00Z</time></trkpt><trkpt lat="43.766776345167486" lon="7.354876510012965"><ele>165.0</ele><time>2026-05-01T15:26:01Z</time></trkpt><trkpt lat="43.76690410818607" lon="7.354896614952468"><ele>165.0</ele><time>2026-05-01T15:26:02Z</time></trkpt><trkpt lat="43.767042618052855" lon="7.354929339526274"><ele>163.0</ele><time>2026-05-01T15:26:03Z</time></trkpt><trkpt lat="43.76718797144785" lon="7.354950018973954"><ele>161.0</ele><time>2026-05-01T15:26:04Z</time></trkpt><trkpt lat="43.7673215395293" lon="7.355003188413651"><ele>159.0</ele><time>2026-05-01T15:26:05Z</time></trkpt><trkpt lat="43.76745282903515" lon="7.355044276244209"><ele>157.0</ele><time>2026-05-01T15:26:06Z</time></trkpt><trkpt lat="43.76757293571741" lon="7.355082497440866"><ele>157.0</ele><time>2026-05-01T15:26:07Z</time></trkpt><trkpt lat="43.76768800809134" lon="7.355099116927917"><ele>157.0</ele><time>2026-05-01T15:26:08Z</time></trkpt><trkpt lat="43.767809105407494" lon="7.355076313171615"><ele>157.0</ele><time>2026-05-01T15:26:09Z</time></trkpt><trkpt lat="43.767917597176144" lon="7.355010356819475"><ele>157.0</ele><time>2026-05-01T15:26:10Z</time></trkpt><trkpt lat="43.76802601132267" lon="7.3549207538248975"><ele>156.5</ele><time>2026-05-01T15:26:11Z</time></trkpt><trkpt lat="43.76811830807099" lon="7.354799306606539"><ele>156.0</ele><time>2026-05-01T15:26:12Z</time></trkpt><trkpt lat="43.76819352553864" lon="7.354647498616408"><ele>155.5</ele><time>2026-05-01T15:26:13Z</time></trkpt><trkpt lat="43.76824026471112" lon="7.354464658558899"><ele>155.0</ele><time>2026-05-01T15:26:14Z</time></trkpt><trkpt lat="43.7682757067816" lon="7.354273405684851"><ele>155.0</ele><time>2026-05-01T15:26:15Z</time></trkpt><trkpt lat="43.76829534288349" lon="7.354083255127142"><ele>155.0</ele><time>2026-05-01T15:26:16Z</time></trkpt><trkpt lat="43.76829059201147" lon="7.353888959821029"><ele>155.0</ele><time>2026-05-01T15:26:17Z</time></trkpt><trkpt lat="43.76826496632097" lon="7.3537016271357425"><ele>155.0</ele><time>2026-05-01T15:26:18Z</time></trkpt><trkpt lat="43.76823206991443" lon="7.353517595953094"><ele>153.5</ele><time>2026-05-01T15:26:19Z</time></trkpt><trkpt lat="43.76819966830641" lon="7.353336403017722"><ele>152.0</ele><time>2026-05-01T15:26:20Z</time></trkpt><trkpt lat="43.76816157366695" lon="7.3531584755337684"><ele>150.5</ele><time>2026-05-01T15:26:21Z</time></trkpt><trkpt lat="43.768116743762484" lon="7.352990762918732"><ele>149.0</ele><time>2026-05-01T15:26:22Z</time></trkpt><trkpt lat="43.768063005415875" lon="7.352828001331851"><ele>147.25</ele><time>2026-05-01T15:26:23Z</time></trkpt><trkpt lat="43.76799266987685" lon="7.352682594350016"><ele>145.5</ele><time>2026-05-01T15:26:24Z</time></trkpt><trkpt lat="43.76792353112756" lon="7.352548931476165"><ele>143.75</ele><time>2026-05-01T15:26:25Z</time></trkpt><trkpt lat="43.7678570317097" lon="7.352402616524034"><ele>142.0</ele><time>2026-05-01T15:26:26Z</time></trkpt><trkpt lat="43.767801423142636" lon="7.352261941572029"><ele>142.4</ele><time>2026-05-01T15:26:26.999Z</time></trkpt><trkpt lat="43.76776859022972" lon="7.352134154178629"><ele>142.79999999999998</ele><time>2026-05-01T15:26:27.999Z</time></trkpt><trkpt lat="43.76774007625327" lon="7.35201339800918"><ele>143.2</ele><time>2026-05-01T15:26:28.999Z</time></trkpt><trkpt lat="43.76770886449112" lon="7.351902195463089"><ele>143.6</ele><time>2026-05-01T15:26:29.999Z</time></trkpt><trkpt lat="43.76766493603751" lon="7.351799739413168"><ele>144.0</ele><time>2026-05-01T15:26:30.999Z</time></trkpt><trkpt lat="43.767608584075234" lon="7.35170108048784"><ele>142.6</ele><time>2026-05-01T15:26:31.999Z</time></trkpt><trkpt lat="43.767540709723725" lon="7.351609224777003"><ele>141.2</ele><time>2026-05-01T15:26:32.999Z</time></trkpt><trkpt lat="43.76745475238366" lon="7.351525724352826"><ele>139.79999999999998</ele><time>2026-05-01T15:26:33.999Z</time></trkpt><trkpt lat="43.76736521294445" lon="7.351452254041251"><ele>138.4</ele><time>2026-05-01T15:26:34.999Z</time></trkpt><trkpt lat="43.76728057489167" lon="7.351384973734051"><ele>137.0</ele><time>2026-05-01T15:26:35.999Z</time></trkpt><trkpt lat="43.76720067181953" lon="7.351309133469466"><ele>136.66666666666666</ele><time>2026-05-01T15:26:36.999Z</time></trkpt><trkpt lat="43.767129800207734" lon="7.3512200488668435"><ele>136.33333333333331</ele><time>2026-05-01T15:26:37.999Z</time></trkpt><trkpt lat="43.76707602461852" lon="7.351119428216571"><ele>136.0</ele><time>2026-05-01T15:26:38.999Z</time></trkpt><trkpt lat="43.767039129631065" lon="7.351013542252315"><ele>135.66666666666666</ele><time>2026-05-01T15:26:39.999Z</time></trkpt><trkpt lat="43.767000021647895" lon="7.3509105020755925"><ele>135.33333333333334</ele><time>2026-05-01T15:26:40.999Z</time></trkpt><trkpt lat="43.76695647378834" lon="7.350811489800292"><ele>135.0</ele><time>2026-05-01T15:26:41.999Z</time></trkpt><trkpt lat="43.766908726547776" lon="7.350715103316132"><ele>135.4</ele><time>2026-05-01T15:26:42.999Z</time></trkpt><trkpt lat="43.766850293347076" lon="7.3506367262641845"><ele>135.8</ele><time>2026-05-01T15:26:43.999Z</time></trkpt><trkpt lat="43.76677010680867" lon="7.35058596980509"><ele>136.2</ele><time>2026-05-01T15:26:44.999Z</time></trkpt><trkpt lat="43.76667895243115" lon="7.35057202641734"><ele>136.6</ele><time>2026-05-01T15:26:45.999Z</time></trkpt><trkpt lat="43.766577151291045" lon="7.350575507320961"><ele>137.0</ele><time>2026-05-01T15:26:46.999Z</time></trkpt><trkpt lat="43.766473254083735" lon="7.350576316187938"><ele>137.0</ele><time>2026-05-01T15:26:47.999Z</time></trkpt><trkpt lat="43.766366031753584" lon="7.3505580629923735"><ele>137.0</ele><time>2026-05-01T15:26:48.999Z</time></trkpt><trkpt lat="43.766261091947186" lon="7.3504986953484766"><ele>137.0</ele><time>2026-05-01T15:26:49.999Z</time></trkpt><trkpt lat="43.76614541091124" lon="7.3504685039538415"><ele>137.0</ele><time>2026-05-01T15:26:50.999Z</time></trkpt><trkpt lat="43.766033019474236" lon="7.35041894181273"><ele>138.0</ele><time>2026-05-01T15:26:51.999Z</time></trkpt><trkpt lat="43.76592839307129" lon="7.350354841802789"><ele>139.0</ele><time>2026-05-01T15:26:52.999Z</time></trkpt><trkpt lat="43.765824379430974" lon="7.350309252409546"><ele>140.0</ele><time>2026-05-01T15:26:53.999Z</time></trkpt><trkpt lat="43.76572765502388" lon="7.350258084852229"><ele>141.0</ele><time>2026-05-01T15:26:54.999Z</time></trkpt><trkpt lat="43.76562940642592" lon="7.350213755060395"><ele>142.0</ele><time>2026-05-01T15:26:55.999Z</time></trkpt><trkpt lat="43.765563880031564" lon="7.350098507736451"><ele>142.0</ele><time>2026-05-01T15:26:56.999Z</time></trkpt><trkpt lat="43.76550926077345" lon="7.3499772192857895"><ele>142.0</ele><time>2026-05-01T15:26:57.999Z</time></trkpt><trkpt lat="43.76548123317065" lon="7.349829825490992"><ele>142.0</ele><time>2026-05-01T15:26:58.999Z</time></trkpt><trkpt lat="43.765432255292424" lon="7.349679957527773"><ele>142.0</ele><time>2026-05-01T15:26:59.999Z</time></trkpt><trkpt lat="43.765410412459346" lon="7.349536948677421"><ele>142.0</ele><time>2026-05-01T15:27:00.999Z</time></trkpt><trkpt lat="43.765407124390116" lon="7.349394797779655"><ele>142.5</ele><time>2026-05-01T15:27:01.999Z</time></trkpt><trkpt lat="43.765455312553314" lon="7.349254154547008"><ele>143.0</ele><time>2026-05-01T15:27:02.999Z</time></trkpt><trkpt lat="43.76548680477613" lon="7.349089180418148"><ele>143.5</ele><time>2026-05-01T15:27:03.999Z</time></trkpt><trkpt lat="43.76554396168369" lon="7.348920210757389"><ele>144.0</ele><time>2026-05-01T15:27:04.999Z</time></trkpt><trkpt lat="43.76558974723925" lon="7.348751325324268"><ele>144.0</ele><time>2026-05-01T15:27:05.999Z</time></trkpt><trkpt lat="43.76561127591096" lon="7.34856741671937"><ele>144.0</ele><time>2026-05-01T15:27:06.999Z</time></trkpt><trkpt lat="43.76561259186335" lon="7.348373004727793"><ele>144.0</ele><time>2026-05-01T15:27:07.999Z</time></trkpt><trkpt lat="43.76561373515038" lon="7.348183290771599"><ele>144.0</ele><time>2026-05-01T15:27:08.999Z</time></trkpt><trkpt lat="43.76562361321474" lon="7.348006577273101"><ele>143.0</ele><time>2026-05-01T15:27:09.999Z</time></trkpt><trkpt lat="43.76563275089004" lon="7.347827534828615"><ele>142.0</ele><time>2026-05-01T15:27:10.999Z</time></trkpt><trkpt lat="43.765631068627386" lon="7.347656013307497"><ele>141.0</ele><time>2026-05-01T15:27:11.999Z</time></trkpt><trkpt lat="43.76560616897397" lon="7.347484635745754"><ele>140.0</ele><time>2026-05-01T15:27:12.999Z</time></trkpt><trkpt lat="43.765560535982665" lon="7.347322296980111"><ele>140.8</ele><time>2026-05-01T15:27:13.999Z</time></trkpt><trkpt lat="43.76550255082512" lon="7.347171618268951"><ele>141.6</ele><time>2026-05-01T15:27:14.999Z</time></trkpt><trkpt lat="43.76543354904208" lon="7.347036190399605"><ele>142.4</ele><time>2026-05-01T15:27:15.999Z</time></trkpt><trkpt lat="43.765361390440944" lon="7.346924795771716"><ele>143.2</ele><time>2026-05-01T15:27:16.999Z</time></trkpt><trkpt lat="43.76529741558919" lon="7.346849787346949"><ele>144.0</ele><time>2026-05-01T15:27:17.999Z</time></trkpt><trkpt lat="43.765248777369884" lon="7.346788917685412"><ele>141.83333333333334</ele><time>2026-05-01T15:27:18.999Z</time></trkpt><trkpt lat="43.76515550276912" lon="7.3466792604327615"><ele>139.66666666666666</ele><time>2026-05-01T15:27:20.999Z</time></trkpt><trkpt lat="43.76510294073298" lon="7.346622336883063"><ele>137.5</ele><time>2026-05-01T15:27:21.999Z</time></trkpt><trkpt lat="43.76504625594772" lon="7.346543430296719"><ele>135.33333333333331</ele><time>2026-05-01T15:27:22.999Z</time></trkpt><trkpt lat="43.76500324897956" lon="7.346442991513754"><ele>133.16666666666666</ele><time>2026-05-01T15:27:23.999Z</time></trkpt><trkpt lat="43.764975326523896" lon="7.346322817994215"><ele>131.0</ele><time>2026-05-01T15:27:24.999Z</time></trkpt><trkpt lat="43.76497463540476" lon="7.346189273899268"><ele>131.0</ele><time>2026-05-01T15:27:25.999Z</time></trkpt><trkpt lat="43.76499460771123" lon="7.34604710050693"><ele>131.0</ele><time>2026-05-01T15:27:26.999Z</time></trkpt><trkpt lat="43.76502353437635" lon="7.345893704446673"><ele>131.0</ele><time>2026-05-01T15:27:27.999Z</time></trkpt><trkpt lat="43.76505737875328" lon="7.345743160481895"><ele>131.0</ele><time>2026-05-01T15:27:28.999Z</time></trkpt><trkpt lat="43.765085720708015" lon="7.34560736649658"><ele>131.0</ele><time>2026-05-01T15:27:29.999Z</time></trkpt><trkpt lat="43.765120025194065" lon="7.345472537224688"><ele>131.25</ele><time>2026-05-01T15:27:30.999Z</time></trkpt><trkpt lat="43.765173010698526" lon="7.345348616916813"><ele>131.5</ele><time>2026-05-01T15:27:31.999Z</time></trkpt><trkpt lat="43.76524811263357" lon="7.345241416976608"><ele>131.75</ele><time>2026-05-01T15:27:32.999Z</time></trkpt><trkpt lat="43.765344458259136" lon="7.345146485773096"><ele>132.0</ele><time>2026-05-01T15:27:34Z</time></trkpt><trkpt lat="43.76545498452266" lon="7.345060477161818"><ele>132.0</ele><time>2026-05-01T15:27:35Z</time></trkpt><trkpt lat="43.76556632707677" lon="7.344983713247492"><ele>132.0</ele><time>2026-05-01T15:27:36Z</time></trkpt><trkpt lat="43.76566167404454" lon="7.344891224792471"><ele>132.0</ele><time>2026-05-01T15:27:37Z</time></trkpt><trkpt lat="43.765723579157616" lon="7.344763552367169"><ele>132.0</ele><time>2026-05-01T15:27:38Z</time></trkpt><trkpt lat="43.76574663399195" lon="7.344607531055373"><ele>130.5</ele><time>2026-05-01T15:27:39Z</time></trkpt><trkpt lat="43.7657416952348" lon="7.3444292904172"><ele>129.0</ele><time>2026-05-01T15:27:40Z</time></trkpt><trkpt lat="43.7657292729955" lon="7.344254071249728"><ele>127.5</ele><time>2026-05-01T15:27:41Z</time></trkpt><trkpt lat="43.76572072439855" lon="7.344098816280595"><ele>126.0</ele><time>2026-05-01T15:27:42Z</time></trkpt><trkpt lat="43.76572679520629" lon="7.343951943476737"><ele>125.8</ele><time>2026-05-01T15:27:43Z</time></trkpt><trkpt lat="43.76574956321456" lon="7.343820212398784"><ele>125.6</ele><time>2026-05-01T15:27:44Z</time></trkpt><trkpt lat="43.76578833692991" lon="7.34369564071018"><ele>125.4</ele><time>2026-05-01T15:27:45Z</time></trkpt><trkpt lat="43.76585109226621" lon="7.343599001060959"><ele>125.2</ele><time>2026-05-01T15:27:46Z</time></trkpt><trkpt lat="43.765932317366264" lon="7.343522737804067"><ele>125.0</ele><time>2026-05-01T15:27:47Z</time></trkpt><trkpt lat="43.76603017634757" lon="7.3434745686930105"><ele>128.0</ele><time>2026-05-01T15:27:48Z</time></trkpt><trkpt lat="43.76613710678304" lon="7.343420404396912"><ele>131.0</ele><time>2026-05-01T15:27:49Z</time></trkpt><trkpt lat="43.766243181192365" lon="7.343354403568253"><ele>134.0</ele><time>2026-05-01T15:27:50Z</time></trkpt><trkpt lat="43.76634692550762" lon="7.343284529928306"><ele>137.0</ele><time>2026-05-01T15:27:51Z</time></trkpt><trkpt lat="43.76643571286498" lon="7.343186736879813"><ele>137.0</ele><time>2026-05-01T15:27:52Z</time></trkpt><trkpt lat="43.76651319072793" lon="7.343050193387329"><ele>137.0</ele><time>2026-05-01T15:27:53Z</time></trkpt><trkpt lat="43.76658333855359" lon="7.34290802917661"><ele>137.0</ele><time>2026-05-01T15:27:54Z</time></trkpt><trkpt lat="43.766648753744136" lon="7.342768400145961"><ele>137.0</ele><time>2026-05-01T15:27:55Z</time></trkpt><trkpt lat="43.76669562322021" lon="7.342617135713536"><ele>137.0</ele><time>2026-05-01T15:27:56Z</time></trkpt><trkpt lat="43.76670792857338" lon="7.342451403455827"><ele>137.0</ele><time>2026-05-01T15:27:57Z</time></trkpt><trkpt lat="43.76669586410827" lon="7.342283437614218"><ele>137.0</ele><time>2026-05-01T15:27:58Z</time></trkpt><trkpt lat="43.76665696648398" lon="7.342112102172363"><ele>137.0</ele><time>2026-05-01T15:27:59Z</time></trkpt><trkpt lat="43.76659553896329" lon="7.341945114816044"><ele>137.0</ele><time>2026-05-01T15:28:00Z</time></trkpt><trkpt lat="43.766525373806104" lon="7.341784594721918"><ele>137.0</ele><time>2026-05-01T15:28:01Z</time></trkpt><trkpt lat="43.76646303792054" lon="7.341603347651402"><ele>137.0</ele><time>2026-05-01T15:28:02Z</time></trkpt><trkpt lat="43.766405491763656" lon="7.341418118520001"><ele>137.0</ele><time>2026-05-01T15:28:03Z</time></trkpt><trkpt lat="43.76634203147228" lon="7.3412334934769286"><ele>139.5</ele><time>2026-05-01T15:28:04Z</time></trkpt><trkpt lat="43.76627644552048" lon="7.341038856298566"><ele>142.0</ele><time>2026-05-01T15:28:05Z</time></trkpt><trkpt lat="43.76621995411492" lon="7.340870918303963"><ele>144.5</ele><time>2026-05-01T15:28:06Z</time></trkpt><trkpt lat="43.766168463618655" lon="7.340709599665147"><ele>147.0</ele><time>2026-05-01T15:28:07Z</time></trkpt><trkpt lat="43.76612693626632" lon="7.340555035241034"><ele>148.0</ele><time>2026-05-01T15:28:08Z</time></trkpt><trkpt lat="43.766102423560596" lon="7.340391074506917"><ele>149.0</ele><time>2026-05-01T15:28:09Z</time></trkpt><trkpt lat="43.76610920101735" lon="7.340219741842854"><ele>150.0</ele><time>2026-05-01T15:28:10Z</time></trkpt><trkpt lat="43.766164592835565" lon="7.340063998305706"><ele>151.0</ele><time>2026-05-01T15:28:11Z</time></trkpt><trkpt lat="43.766203197402994" lon="7.3398754965725255"><ele>149.5</ele><time>2026-05-01T15:28:12Z</time></trkpt><trkpt lat="43.76625457871992" lon="7.339693516645072"><ele>148.0</ele><time>2026-05-01T15:28:13Z</time></trkpt><trkpt lat="43.76628604356484" lon="7.3395246565145085"><ele>146.5</ele><time>2026-05-01T15:28:14Z</time></trkpt><trkpt lat="43.76629149821286" lon="7.339353553096944"><ele>145.0</ele><time>2026-05-01T15:28:15Z</time></trkpt><trkpt lat="43.76627486367132" lon="7.339180192785076"><ele>145.0</ele><time>2026-05-01T15:28:16Z</time></trkpt><trkpt lat="43.76624782709577" lon="7.3390050726901475"><ele>145.0</ele><time>2026-05-01T15:28:17Z</time></trkpt><trkpt lat="43.76621696784152" lon="7.338843291185899"><ele>145.0</ele><time>2026-05-01T15:28:18Z</time></trkpt><trkpt lat="43.76616725627988" lon="7.338700198546657"><ele>145.0</ele><time>2026-05-01T15:28:19Z</time></trkpt><trkpt lat="43.76608141269886" lon="7.338574874465574"><ele>139.5</ele><time>2026-05-01T15:28:20Z</time></trkpt><trkpt lat="43.76600050048843" lon="7.33843573174573"><ele>134.0</ele><time>2026-05-01T15:28:21Z</time></trkpt><trkpt lat="43.765913730560484" lon="7.338310064630875"><ele>128.5</ele><time>2026-05-01T15:28:22Z</time></trkpt><trkpt lat="43.76585382820617" lon="7.3381622022762665"><ele>123.0</ele><time>2026-05-01T15:28:23Z</time></trkpt><trkpt lat="43.76580491066945" lon="7.338008657935346"><ele>122.80000000000001</ele><time>2026-05-01T15:28:24Z</time></trkpt><trkpt lat="43.76577247154685" lon="7.337856534255618"><ele>122.60000000000001</ele><time>2026-05-01T15:28:25Z</time></trkpt><trkpt lat="43.76575896073029" lon="7.33771452038407"><ele>122.39999999999999</ele><time>2026-05-01T15:28:26Z</time></trkpt><trkpt lat="43.76576630038431" lon="7.337582786406621"><ele>122.19999999999999</ele><time>2026-05-01T15:28:27Z</time></trkpt><trkpt lat="43.76580717246597" lon="7.337453187069223"><ele>122.0</ele><time>2026-05-01T15:28:28Z</time></trkpt><trkpt lat="43.76587700595184" lon="7.337328277432293"><ele>121.0</ele><time>2026-05-01T15:28:29Z</time></trkpt><trkpt lat="43.7659660389372" lon="7.337200426239331"><ele>120.0</ele><time>2026-05-01T15:28:30Z</time></trkpt><trkpt lat="43.766069601300465" lon="7.337068891735792"><ele>119.0</ele><time>2026-05-01T15:28:31Z</time></trkpt><trkpt lat="43.76616862416297" lon="7.3369296096018894"><ele>118.0</ele><time>2026-05-01T15:28:32Z</time></trkpt><trkpt lat="43.7662678835444" lon="7.336787215976361"><ele>118.25</ele><time>2026-05-01T15:28:33Z</time></trkpt><trkpt lat="43.76637744875084" lon="7.336643847729042"><ele>118.5</ele><time>2026-05-01T15:28:34Z</time></trkpt><trkpt lat="43.76648129338352" lon="7.336514291100746"><ele>118.75</ele><time>2026-05-01T15:28:35Z</time></trkpt><trkpt lat="43.76656739601783" lon="7.336380131870204"><ele>119.0</ele><time>2026-05-01T15:28:36Z</time></trkpt><trkpt lat="43.76663859915017" lon="7.3362331634501965"><ele>119.0</ele><time>2026-05-01T15:28:37Z</time></trkpt><trkpt lat="43.76669430970168" lon="7.3360687297154055"><ele>119.0</ele><time>2026-05-01T15:28:38Z</time></trkpt><trkpt lat="43.7667397756933" lon="7.335898583785961"><ele>119.0</ele><time>2026-05-01T15:28:39Z</time></trkpt><trkpt lat="43.76678595587518" lon="7.335743443832868"><ele>119.0</ele><time>2026-05-01T15:28:40Z</time></trkpt><trkpt lat="43.76684159735406" lon="7.335611425084705"><ele>121.75</ele><time>2026-05-01T15:28:41Z</time></trkpt><trkpt lat="43.766914826753144" lon="7.335498770593639"><ele>124.5</ele><time>2026-05-01T15:28:42Z</time></trkpt><trkpt lat="43.76700820822025" lon="7.335378499302714"><ele>127.25</ele><time>2026-05-01T15:28:43Z</time></trkpt><trkpt lat="43.767107489186074" lon="7.335246116515579"><ele>130.0</ele><time>2026-05-01T15:28:44Z</time></trkpt><trkpt lat="43.76720992628389" lon="7.335098149543948"><ele>130.0</ele><time>2026-05-01T15:28:45Z</time></trkpt><trkpt lat="43.7673171003218" lon="7.3349459053982065"><ele>130.0</ele><time>2026-05-01T15:28:46Z</time></trkpt><trkpt lat="43.76741460452508" lon="7.334801234760512"><ele>130.0</ele><time>2026-05-01T15:28:47Z</time></trkpt><trkpt lat="43.767505458699105" lon="7.334676326234609"><ele>130.0</ele><time>2026-05-01T15:28:48Z</time></trkpt><trkpt lat="43.76759532549949" lon="7.334559585804071"><ele>126.75</ele><time>2026-05-01T15:28:49Z</time></trkpt><trkpt lat="43.76768509788514" lon="7.334430644853352"><ele>123.5</ele><time>2026-05-01T15:28:50Z</time></trkpt><trkpt lat="43.76776970718019" lon="7.334285653670876"><ele>120.25</ele><time>2026-05-01T15:28:51Z</time></trkpt><trkpt lat="43.7678358295398" lon="7.334107054743877"><ele>117.0</ele><time>2026-05-01T15:28:52Z</time></trkpt><trkpt lat="43.76789621704415" lon="7.333917123018329"><ele>120.75</ele><time>2026-05-01T15:28:52.999Z</time></trkpt><trkpt lat="43.76795449413205" lon="7.33374432067491"><ele>124.5</ele><time>2026-05-01T15:28:53.999Z</time></trkpt><trkpt lat="43.76801240586474" lon="7.33357831630424"><ele>128.25</ele><time>2026-05-01T15:28:54.999Z</time></trkpt><trkpt lat="43.76806681125417" lon="7.333405720381963"><ele>132.0</ele><time>2026-05-01T15:28:55.999Z</time></trkpt><trkpt lat="43.768114879457194" lon="7.333226690694811"><ele>130.0</ele><time>2026-05-01T15:28:56.999Z</time></trkpt><trkpt lat="43.76814989521789" lon="7.333046362456294"><ele>128.0</ele><time>2026-05-01T15:28:57.999Z</time></trkpt><trkpt lat="43.768174005255766" lon="7.3328681852878255"><ele>126.0</ele><time>2026-05-01T15:28:58.999Z</time></trkpt><trkpt lat="43.76818021070709" lon="7.332696517290268"><ele>124.0</ele><time>2026-05-01T15:28:59.999Z</time></trkpt><trkpt lat="43.76816424927565" lon="7.332540585668996"><ele>124.00000000000001</ele><time>2026-05-01T15:29:00.999Z</time></trkpt><trkpt lat="43.76814400079796" lon="7.332400889402273"><ele>124.0</ele><time>2026-05-01T15:29:01.999Z</time></trkpt><trkpt lat="43.768132466495395" lon="7.33227287703584"><ele>124.0</ele><time>2026-05-01T15:29:02.999Z</time></trkpt><trkpt lat="43.7681391876837" lon="7.332151969146684"><ele>124.0</ele><time>2026-05-01T15:29:03.999Z</time></trkpt><trkpt lat="43.76816656030465" lon="7.332043191079853"><ele>124.00000000000001</ele><time>2026-05-01T15:29:04.999Z</time></trkpt><trkpt lat="43.7682153611531" lon="7.331952069348074"><ele>124.0</ele><time>2026-05-01T15:29:05.999Z</time></trkpt><trkpt lat="43.768274099698836" lon="7.331875822600461"><ele>122.2</ele><time>2026-05-01T15:29:06.999Z</time></trkpt><trkpt lat="43.76834342441547" lon="7.331820090579625"><ele>120.4</ele><time>2026-05-01T15:29:07.999Z</time></trkpt><trkpt lat="43.76840176431732" lon="7.331762746789542"><ele>118.6</ele><time>2026-05-01T15:29:08.999Z</time></trkpt><trkpt lat="43.7684972212896" lon="7.331656340939689"><ele>116.8</ele><time>2026-05-01T15:29:10.999Z</time></trkpt><trkpt lat="43.76854847480523" lon="7.331512214520861"><ele>115.0</ele><time>2026-05-01T15:29:12.999Z</time></trkpt><trkpt lat="43.76851786667794" lon="7.33142615423765"><ele>115.0</ele><time>2026-05-01T15:29:13.999Z</time></trkpt><trkpt lat="43.76845179909531" lon="7.331370774593815"><ele>115.0</ele><time>2026-05-01T15:29:14.999Z</time></trkpt><trkpt lat="43.768369751602236" lon="7.331349839253103"><ele>115.0</ele><time>2026-05-01T15:29:15.999Z</time></trkpt><trkpt lat="43.768297851630706" lon="7.331411387056316"><ele>115.0</ele><time>2026-05-01T15:29:16.999Z</time></trkpt><trkpt lat="43.76818453405725" lon="7.331328093770292"><ele>115.0</ele><time>2026-05-01T15:29:17.999Z</time></trkpt><trkpt lat="43.76808883731222" lon="7.331294135657593"><ele>114.0</ele><time>2026-05-01T15:29:18.999Z</time></trkpt><trkpt lat="43.76799060851174" lon="7.33124750623991"><ele>113.0</ele><time>2026-05-01T15:29:19.999Z</time></trkpt><trkpt lat="43.767901497297444" lon="7.331155970208179"><ele>112.0</ele><time>2026-05-01T15:29:20.999Z</time></trkpt><trkpt lat="43.76778721125938" lon="7.331082350475905"><ele>111.0</ele><time>2026-05-01T15:29:21.999Z</time></trkpt><trkpt lat="43.76769297782666" lon="7.331004271587131"><ele>110.75</ele><time>2026-05-01T15:29:22.999Z</time></trkpt><trkpt lat="43.7675868516923" lon="7.330919418014531"><ele>110.5</ele><time>2026-05-01T15:29:23.999Z</time></trkpt><trkpt lat="43.76747243343505" lon="7.3308347094691815"><ele>110.25</ele><time>2026-05-01T15:29:24.999Z</time></trkpt><trkpt lat="43.76735913561807" lon="7.330743892466776"><ele>110.0</ele><time>2026-05-01T15:29:25.999Z</time></trkpt><trkpt lat="43.767237434632875" lon="7.3306478989273325"><ele>109.5</ele><time>2026-05-01T15:29:26.999Z</time></trkpt><trkpt lat="43.76711822828144" lon="7.33055299167809"><ele>109.0</ele><time>2026-05-01T15:29:27.999Z</time></trkpt><trkpt lat="43.767009294903595" lon="7.330469802032084"><ele>108.5</ele><time>2026-05-01T15:29:28.999Z</time></trkpt><trkpt lat="43.76690337437748" lon="7.330389410174145"><ele>108.0</ele><time>2026-05-01T15:29:29.999Z</time></trkpt><trkpt lat="43.76679746511082" lon="7.330308377530771"><ele>108.0</ele><time>2026-05-01T15:29:30.999Z</time></trkpt><trkpt lat="43.76668534189226" lon="7.330217063977404"><ele>108.0</ele><time>2026-05-01T15:29:31.999Z</time></trkpt><trkpt lat="43.76656522958524" lon="7.330122118351808"><ele>108.0</ele><time>2026-05-01T15:29:32.999Z</time></trkpt><trkpt lat="43.76644030414817" lon="7.330019876698939"><ele>108.0</ele><time>2026-05-01T15:29:33.999Z</time></trkpt><trkpt lat="43.76631850279966" lon="7.329924050766992"><ele>108.0</ele><time>2026-05-01T15:29:34.999Z</time></trkpt><trkpt lat="43.76620748396755" lon="7.329833556967442"><ele>108.0</ele><time>2026-05-01T15:29:35.999Z</time></trkpt><trkpt lat="43.76610079358378" lon="7.329747282559744"><ele>108.0</ele><time>2026-05-01T15:29:36.999Z</time></trkpt><trkpt lat="43.76599445351629" lon="7.329664666264625"><ele>108.0</ele><time>2026-05-01T15:29:37.999Z</time></trkpt><trkpt lat="43.76589015770781" lon="7.3295808142923855"><ele>107.66666666666667</ele><time>2026-05-01T15:29:38.999Z</time></trkpt><trkpt lat="43.76579947185309" lon="7.3295081962396385"><ele>107.33333333333334</ele><time>2026-05-01T15:29:40Z</time></trkpt><trkpt lat="43.76571711982284" lon="7.329448726160542"><ele>107.0</ele><time>2026-05-01T15:29:41Z</time></trkpt><trkpt lat="43.765645498682076" lon="7.32939457975609"><ele>106.66666666666667</ele><time>2026-05-01T15:29:42Z</time></trkpt><trkpt lat="43.765587793283494" lon="7.3293368764509905"><ele>106.33333333333334</ele><time>2026-05-01T15:29:43Z</time></trkpt><trkpt lat="43.76552784398139" lon="7.3292846635953754"><ele>106.0</ele><time>2026-05-01T15:29:44Z</time></trkpt><trkpt lat="43.76546799195227" lon="7.329232058052759"><ele>106.00000000000001</ele><time>2026-05-01T15:29:45Z</time></trkpt><trkpt lat="43.765409356664456" lon="7.329177091804529"><ele>106.0</ele><time>2026-05-01T15:29:46Z</time></trkpt><trkpt lat="43.76535552771924" lon="7.32911252639289"><ele>106.0</ele><time>2026-05-01T15:29:47Z</time></trkpt><trkpt lat="43.76530441977569" lon="7.329031664491554"><ele>106.0</ele><time>2026-05-01T15:29:48Z</time></trkpt><trkpt lat="43.76526711715924" lon="7.328931098962616"><ele>106.00000000000001</ele><time>2026-05-01T15:29:49Z</time></trkpt><trkpt lat="43.76522384501082" lon="7.328834755251301"><ele>106.0</ele><time>2026-05-01T15:29:50Z</time></trkpt><trkpt lat="43.765164760909215" lon="7.328755201721976"><ele>106.33333333333334</ele><time>2026-05-01T15:29:51Z</time></trkpt><trkpt lat="43.765095164666775" lon="7.32869674909875"><ele>106.66666666666667</ele><time>2026-05-01T15:29:52Z</time></trkpt><trkpt lat="43.765018684627485" lon="7.328636895955481"><ele>107.0</ele><time>2026-05-01T15:29:53Z</time></trkpt><trkpt lat="43.76495228138507" lon="7.328555584901206"><ele>107.33333333333334</ele><time>2026-05-01T15:29:54Z</time></trkpt><trkpt lat="43.76491145850252" lon="7.3284440739847705"><ele>107.66666666666667</ele><time>2026-05-01T15:29:55Z</time></trkpt><trkpt lat="43.764877409190134" lon="7.328323640613097"><ele>108.0</ele><time>2026-05-01T15:29:56Z</time></trkpt><trkpt lat="43.76483615454974" lon="7.328209195053696"><ele>108.0</ele><time>2026-05-01T15:29:57Z</time></trkpt><trkpt lat="43.76479758088886" lon="7.328104406243602"><ele>108.00000000000001</ele><time>2026-05-01T15:29:58Z</time></trkpt><trkpt lat="43.76476276480776" lon="7.327979653057193"><ele>108.00000000000001</ele><time>2026-05-01T15:29:59Z</time></trkpt><trkpt lat="43.76473079599633" lon="7.32785585921895"><ele>108.0</ele><time>2026-05-01T15:30:00Z</time></trkpt><trkpt lat="43.76470137622136" lon="7.327724850707438"><ele>108.0</ele><time>2026-05-01T15:30:01Z</time></trkpt><trkpt lat="43.76467665374502" lon="7.3275874580457945"><ele>107.60000000000001</ele><time>2026-05-01T15:30:02Z</time></trkpt><trkpt lat="43.764655008272534" lon="7.3274530746837945"><ele>107.20000000000002</ele><time>2026-05-01T15:30:03Z</time></trkpt><trkpt lat="43.76463528890192" lon="7.327321036686"><ele>106.8</ele><time>2026-05-01T15:30:04Z</time></trkpt><trkpt lat="43.76461198763663" lon="7.3271753728362645"><ele>106.4</ele><time>2026-05-01T15:30:05Z</time></trkpt><trkpt lat="43.76458626482517" lon="7.327036490784182"><ele>106.0</ele><time>2026-05-01T15:30:06Z</time></trkpt><trkpt lat="43.76456194003632" lon="7.326891455995377"><ele>106.0</ele><time>2026-05-01T15:30:07Z</time></trkpt><trkpt lat="43.76453474778565" lon="7.326742354552182"><ele>106.0</ele><time>2026-05-01T15:30:08Z</time></trkpt><trkpt lat="43.76450854712005" lon="7.3265861597321615"><ele>106.0</ele><time>2026-05-01T15:30:09Z</time></trkpt><trkpt lat="43.764484027654994" lon="7.326429324050414"><ele>106.0</ele><time>2026-05-01T15:30:10Z</time></trkpt><trkpt lat="43.76446787057556" lon="7.326280103400023"><ele>105.8</ele><time>2026-05-01T15:30:11Z</time></trkpt><trkpt lat="43.76446082352173" lon="7.326138371040721"><ele>105.6</ele><time>2026-05-01T15:30:12Z</time></trkpt><trkpt lat="43.764460573496216" lon="7.325985657088649"><ele>105.4</ele><time>2026-05-01T15:30:13Z</time></trkpt><trkpt lat="43.76446379558237" lon="7.325834916019708"><ele>105.2</ele><time>2026-05-01T15:30:14Z</time></trkpt><trkpt lat="43.76447267344383" lon="7.325697544687946"><ele>105.0</ele><time>2026-05-01T15:30:15Z</time></trkpt><trkpt lat="43.764475656677796" lon="7.325568079994767"><ele>104.83333333333333</ele><time>2026-05-01T15:30:16Z</time></trkpt><trkpt lat="43.76447658674351" lon="7.325443057069043"><ele>104.66666666666666</ele><time>2026-05-01T15:30:17Z</time></trkpt><trkpt lat="43.764482154099866" lon="7.325325772019313"><ele>104.5</ele><time>2026-05-01T15:30:18Z</time></trkpt><trkpt lat="43.7644960344859" lon="7.325218177856444"><ele>104.33333333333333</ele><time>2026-05-01T15:30:19Z</time></trkpt><trkpt lat="43.764524165819644" lon="7.325126135791032"><ele>104.16666666666666</ele><time>2026-05-01T15:30:20Z</time></trkpt><trkpt lat="43.76455191676667" lon="7.325029409304696"><ele>104.0</ele><time>2026-05-01T15:30:21Z</time></trkpt><trkpt lat="43.764554127245646" lon="7.324929774160044"><ele>104.0</ele><time>2026-05-01T15:30:22Z</time></trkpt><trkpt lat="43.76453080481952" lon="7.324826687814973"><ele>104.0</ele><time>2026-05-01T15:30:23Z</time></trkpt><trkpt lat="43.76450915148985" lon="7.324717371294947"><ele>104.0</ele><time>2026-05-01T15:30:24Z</time></trkpt><trkpt lat="43.76450498433876" lon="7.3245965360446394"><ele>104.0</ele><time>2026-05-01T15:30:25Z</time></trkpt><trkpt lat="43.764513587537756" lon="7.324461411562678"><ele>104.0</ele><time>2026-05-01T15:30:26Z</time></trkpt><trkpt lat="43.76452178997425" lon="7.324315971688724"><ele>103.80000000000001</ele><time>2026-05-01T15:30:27Z</time></trkpt><trkpt lat="43.764525441827466" lon="7.324172026220313"><ele>103.60000000000001</ele><time>2026-05-01T15:30:28Z</time></trkpt><trkpt lat="43.7645317913112" lon="7.324033831081277"><ele>103.4</ele><time>2026-05-01T15:30:29Z</time></trkpt><trkpt lat="43.76453590316444" lon="7.323894429670656"><ele>103.2</ele><time>2026-05-01T15:30:30Z</time></trkpt><trkpt lat="43.76453720006458" lon="7.3237421688901865"><ele>103.0</ele><time>2026-05-01T15:30:31Z</time></trkpt><trkpt lat="43.76452909793001" lon="7.32358343076264"><ele>103.0</ele><time>2026-05-01T15:30:32Z</time></trkpt><trkpt lat="43.764514563225845" lon="7.323418315720378"><ele>103.0</ele><time>2026-05-01T15:30:33Z</time></trkpt><trkpt lat="43.764485816025726" lon="7.323255514042761"><ele>103.0</ele><time>2026-05-01T15:30:34Z</time></trkpt><trkpt lat="43.76445019876115" lon="7.3230921574083"><ele>103.0</ele><time>2026-05-01T15:30:35Z</time></trkpt><trkpt lat="43.76440828522364" lon="7.322935368228065"><ele>102.80000000000001</ele><time>2026-05-01T15:30:36Z</time></trkpt><trkpt lat="43.764369086312016" lon="7.322779721939195"><ele>102.6</ele><time>2026-05-01T15:30:37Z</time></trkpt><trkpt lat="43.76432283036128" lon="7.322636668983755"><ele>102.4</ele><time>2026-05-01T15:30:38Z</time></trkpt><trkpt lat="43.7642686741903" lon="7.32250763639173"><ele>102.19999999999999</ele><time>2026-05-01T15:30:39Z</time></trkpt><trkpt lat="43.764203546653114" lon="7.322392829575739"><ele>102.0</ele><time>2026-05-01T15:30:40Z</time></trkpt><trkpt lat="43.76411886567123" lon="7.322301552656206"><ele>102.75</ele><time>2026-05-01T15:30:41Z</time></trkpt><trkpt lat="43.764021436651525" lon="7.322227576186441"><ele>103.5</ele><time>2026-05-01T15:30:42Z</time></trkpt><trkpt lat="43.76391414184707" lon="7.322173364036331"><ele>104.25</ele><time>2026-05-01T15:30:43Z</time></trkpt><trkpt lat="43.763802568622864" lon="7.322139077600568"><ele>105.0</ele><time>2026-05-01T15:30:44Z</time></trkpt><trkpt lat="43.76368031172383" lon="7.322116008855487"><ele>105.0</ele><time>2026-05-01T15:30:45Z</time></trkpt><trkpt lat="43.7635757517535" lon="7.32207984562562"><ele>105.0</ele><time>2026-05-01T15:30:46Z</time></trkpt><trkpt lat="43.76346818110352" lon="7.322044426374357"><ele>105.0</ele><time>2026-05-01T15:30:47Z</time></trkpt><trkpt lat="43.76335919427784" lon="7.3220149517819"><ele>105.0</ele><time>2026-05-01T15:30:48Z</time></trkpt><trkpt lat="43.76325258351102" lon="7.321987768208311"><ele>105.0</ele><time>2026-05-01T15:30:49Z</time></trkpt><trkpt lat="43.763149922332296" lon="7.321949625642693"><ele>104.6</ele><time>2026-05-01T15:30:50Z</time></trkpt><trkpt lat="43.7630480933638" lon="7.321911696148706"><ele>104.2</ele><time>2026-05-01T15:30:51Z</time></trkpt><trkpt lat="43.76294919160017" lon="7.3218696446234475"><ele>103.80000000000001</ele><time>2026-05-01T15:30:52Z</time></trkpt><trkpt lat="43.762849286625894" lon="7.321811477710949"><ele>103.4</ele><time>2026-05-01T15:30:53Z</time></trkpt><trkpt lat="43.76275340254202" lon="7.321745640688337"><ele>103.0</ele><time>2026-05-01T15:30:54Z</time></trkpt><trkpt lat="43.76265781675949" lon="7.321676654965738"><ele>103.0</ele><time>2026-05-01T15:30:55Z</time></trkpt><trkpt lat="43.762554469139204" lon="7.321612031532345"><ele>103.0</ele><time>2026-05-01T15:30:56Z</time></trkpt><trkpt lat="43.762457102285836" lon="7.321552292634775"><ele>103.0</ele><time>2026-05-01T15:30:57Z</time></trkpt><trkpt lat="43.76236487459598" lon="7.321488647220465"><ele>103.0</ele><time>2026-05-01T15:30:58Z</time></trkpt><trkpt lat="43.76228009929664" lon="7.321423214527751"><ele>103.0</ele><time>2026-05-01T15:30:59Z</time></trkpt><trkpt lat="43.762200686795175" lon="7.321355524863716"><ele>103.0</ele><time>2026-05-01T15:31:00Z</time></trkpt><trkpt lat="43.76213027133876" lon="7.321288149684418"><ele>103.0</ele><time>2026-05-01T15:31:01Z</time></trkpt><trkpt lat="43.76205810015335" lon="7.321213986005717"><ele>103.0</ele><time>2026-05-01T15:31:02Z</time></trkpt><trkpt lat="43.76198031912182" lon="7.321128149169758"><ele>103.0</ele><time>2026-05-01T15:31:03Z</time></trkpt><trkpt lat="43.76189968110482" lon="7.321039996312281"><ele>103.0</ele><time>2026-05-01T15:31:03.999Z</time></trkpt><trkpt lat="43.76181976593774" lon="7.320959300307658"><ele>103.66666666666667</ele><time>2026-05-01T15:31:04.999Z</time></trkpt><trkpt lat="43.76174686848462" lon="7.320878682339267"><ele>104.33333333333334</ele><time>2026-05-01T15:31:05.999Z</time></trkpt><trkpt lat="43.76167928303816" lon="7.320802681249751"><ele>105.0</ele><time>2026-05-01T15:31:06.999Z</time></trkpt><trkpt lat="43.76161872969458" lon="7.32072747289776"><ele>105.66666666666666</ele><time>2026-05-01T15:31:07.999Z</time></trkpt><trkpt lat="43.761569470725114" lon="7.320651420806718"><ele>106.33333333333333</ele><time>2026-05-01T15:31:08.999Z</time></trkpt><trkpt lat="43.76150299435592" lon="7.320539910266493"><ele>107.0</ele><time>2026-05-01T15:31:10.999Z</time></trkpt><trkpt lat="43.76154140571223" lon="7.320358171793036"><ele>107.49999999999999</ele><time>2026-05-01T15:31:12.999Z</time></trkpt><trkpt lat="43.761605207668765" lon="7.32023698397742"><ele>108.0</ele><time>2026-05-01T15:31:14.999Z</time></trkpt><trkpt lat="43.76166359198429" lon="7.320136275747281"><ele>108.5</ele><time>2026-05-01T15:31:16.999Z</time></trkpt><trkpt lat="43.7617469891242" lon="7.320038208806341"><ele>109.0</ele><time>2026-05-01T15:31:18.999Z</time></trkpt><trkpt lat="43.76180706588332" lon="7.320002538591893"><ele>109.49999999999999</ele><time>2026-05-01T15:31:19.999Z</time></trkpt><trkpt lat="43.761871409804414" lon="7.319977477246232"><ele>110.0</ele><time>2026-05-01T15:31:20.999Z</time></trkpt><trkpt lat="43.7619391817607" lon="7.319946755398405"><ele>109.99999999999999</ele><time>2026-05-01T15:31:21.999Z</time></trkpt><trkpt lat="43.76199775106531" lon="7.3198878550046"><ele>110.0</ele><time>2026-05-01T15:31:22.999Z</time></trkpt><trkpt lat="43.76203797721287" lon="7.319800561129672"><ele>110.0</ele><time>2026-05-01T15:31:23.999Z</time></trkpt><trkpt lat="43.76205570852564" lon="7.319700560066943"><ele>110.0</ele><time>2026-05-01T15:31:24.999Z</time></trkpt><trkpt lat="43.762035124846264" lon="7.319611156787952"><ele>110.0</ele><time>2026-05-01T15:31:25.999Z</time></trkpt><trkpt lat="43.76199323672813" lon="7.319531711749394"><ele>109.99999999999999</ele><time>2026-05-01T15:31:26.999Z</time></trkpt><trkpt lat="43.76193243842177" lon="7.319476045705176"><ele>110.0</ele><time>2026-05-01T15:31:27.999Z</time></trkpt><trkpt lat="43.76185785045639" lon="7.319453652952735"><ele>108.16666666666666</ele><time>2026-05-01T15:31:28.999Z</time></trkpt><trkpt lat="43.76177968813522" lon="7.319458492183366"><ele>106.33333333333333</ele><time>2026-05-01T15:31:29.999Z</time></trkpt><trkpt lat="43.7617087361739" lon="7.3194681823941545"><ele>104.5</ele><time>2026-05-01T15:31:30.999Z</time></trkpt><trkpt lat="43.761637998027965" lon="7.319456015247217"><ele>102.66666666666666</ele><time>2026-05-01T15:31:31.999Z</time></trkpt><trkpt lat="43.761553665965785" lon="7.31941354133436"><ele>100.83333333333333</ele><time>2026-05-01T15:31:32.999Z</time></trkpt><trkpt lat="43.7614694824811" lon="7.319343835535813"><ele>99.0</ele><time>2026-05-01T15:31:33.999Z</time></trkpt><trkpt lat="43.761390455778084" lon="7.319250108150203"><ele>99.0</ele><time>2026-05-01T15:31:34.999Z</time></trkpt><trkpt lat="43.76130651658594" lon="7.319137912483523"><ele>99.0</ele><time>2026-05-01T15:31:35.999Z</time></trkpt><trkpt lat="43.76121550427684" lon="7.319012092041296"><ele>99.0</ele><time>2026-05-01T15:31:36.999Z</time></trkpt><trkpt lat="43.76112023276391" lon="7.318880258968477"><ele>99.0</ele><time>2026-05-01T15:31:37.999Z</time></trkpt><trkpt lat="43.76102696479538" lon="7.318755290769297"><ele>98.75</ele><time>2026-05-01T15:31:38.999Z</time></trkpt><trkpt lat="43.76092400491643" lon="7.318625165821332"><ele>98.5</ele><time>2026-05-01T15:31:39.999Z</time></trkpt><trkpt lat="43.760821545193586" lon="7.318503218878459"><ele>98.25</ele><time>2026-05-01T15:31:40.999Z</time></trkpt><trkpt lat="43.7607190443268" lon="7.318384036645434"><ele>98.0</ele><time>2026-05-01T15:31:41.999Z</time></trkpt><trkpt lat="43.760615859393546" lon="7.318271691372659"><ele>98.0</ele><time>2026-05-01T15:31:42.999Z</time></trkpt><trkpt lat="43.76051724919436" lon="7.318168724725203"><ele>98.0</ele><time>2026-05-01T15:31:43.999Z</time></trkpt><trkpt lat="43.76041801041089" lon="7.318076654435441"><ele>98.0</ele><time>2026-05-01T15:31:44.999Z</time></trkpt><trkpt lat="43.760318612000425" lon="7.317992742940019"><ele>98.0</ele><time>2026-05-01T15:31:46Z</time></trkpt><trkpt lat="43.76021724412584" lon="7.317915866351825"><ele>98.5</ele><time>2026-05-01T15:31:47Z</time></trkpt><trkpt lat="43.76011364365125" lon="7.317842750339287"><ele>99.0</ele><time>2026-05-01T15:31:48Z</time></trkpt><trkpt lat="43.760009153938256" lon="7.317774576345399"><ele>99.5</ele><time>2026-05-01T15:31:49Z</time></trkpt><trkpt lat="43.75989806882683" lon="7.31771157185194"><ele>100.0</ele><time>2026-05-01T15:31:50Z</time></trkpt><trkpt lat="43.75978743922264" lon="7.317643884398608"><ele>100.0</ele><time>2026-05-01T15:31:51Z</time></trkpt><trkpt lat="43.75967147596755" lon="7.317583954171215"><ele>100.0</ele><time>2026-05-01T15:31:52Z</time></trkpt><trkpt lat="43.75955003017552" lon="7.317531882845048"><ele>100.0</ele><time>2026-05-01T15:31:53Z</time></trkpt><trkpt lat="43.75942320684792" lon="7.317488957179948"><ele>100.0</ele><time>2026-05-01T15:31:54Z</time></trkpt><trkpt lat="43.75929354877921" lon="7.3174586210352075"><ele>98.5</ele><time>2026-05-01T15:31:55Z</time></trkpt><trkpt lat="43.75916010973157" lon="7.317440490124012"><ele>97.0</ele><time>2026-05-01T15:31:56Z</time></trkpt><trkpt lat="43.75902082972418" lon="7.317431350423673"><ele>95.5</ele><time>2026-05-01T15:31:57Z</time></trkpt><trkpt lat="43.758876417590876" lon="7.317427165161074"><ele>94.0</ele><time>2026-05-01T15:31:58Z</time></trkpt><trkpt lat="43.75872623156619" lon="7.3174339090479625"><ele>94.0</ele><time>2026-05-01T15:31:59Z</time></trkpt><trkpt lat="43.7585785847558" lon="7.317450827036204"><ele>94.0</ele><time>2026-05-01T15:32:00Z</time></trkpt><trkpt lat="43.758441901820646" lon="7.317480955134619"><ele>94.0</ele><time>2026-05-01T15:32:01Z</time></trkpt><trkpt lat="43.75830304119776" lon="7.317513275799908"><ele>94.0</ele><time>2026-05-01T15:32:02Z</time></trkpt><trkpt lat="43.7581636944494" lon="7.317559326923742"><ele>94.5</ele><time>2026-05-01T15:32:03Z</time></trkpt><trkpt lat="43.758028256733425" lon="7.317613588927867"><ele>95.0</ele><time>2026-05-01T15:32:04Z</time></trkpt><trkpt lat="43.75789663248349" lon="7.31767196607747"><ele>95.5</ele><time>2026-05-01T15:32:05Z</time></trkpt><trkpt lat="43.75776384333584" lon="7.3177316807076505"><ele>96.0</ele><time>2026-05-01T15:32:06Z</time></trkpt><trkpt lat="43.75762930810978" lon="7.317794087040863"><ele>97.75</ele><time>2026-05-01T15:32:07Z</time></trkpt><trkpt lat="43.75749361277979" lon="7.31785765345368"><ele>99.5</ele><time>2026-05-01T15:32:08Z</time></trkpt><trkpt lat="43.757357667188785" lon="7.317920704465024"><ele>101.25</ele><time>2026-05-01T15:32:09Z</time></trkpt><trkpt lat="43.75721932111349" lon="7.317984651596254"><ele>103.0</ele><time>2026-05-01T15:32:10Z</time></trkpt><trkpt lat="43.757076157657714" lon="7.318055442651684"><ele>99.0</ele><time>2026-05-01T15:32:11Z</time></trkpt><trkpt lat="43.75693938811577" lon="7.318123974344068"><ele>95.0</ele><time>2026-05-01T15:32:12Z</time></trkpt><trkpt lat="43.756797400491685" lon="7.318195834079852"><ele>91.0</ele><time>2026-05-01T15:32:13Z</time></trkpt><trkpt lat="43.756646140411156" lon="7.318269327987628"><ele>91.0</ele><time>2026-05-01T15:32:14Z</time></trkpt><trkpt lat="43.75649244555229" lon="7.318342329563471"><ele>91.0</ele><time>2026-05-01T15:32:15Z</time></trkpt><trkpt lat="43.75633792098896" lon="7.318417065377196"><ele>91.0</ele><time>2026-05-01T15:32:16Z</time></trkpt><trkpt lat="43.75618233167229" lon="7.318492740015827"><ele>93.66666666666666</ele><time>2026-05-01T15:32:17Z</time></trkpt><trkpt lat="43.75603524781405" lon="7.318564334201553"><ele>96.33333333333333</ele><time>2026-05-01T15:32:18Z</time></trkpt><trkpt lat="43.75588442473551" lon="7.318631327438814"><ele>99.0</ele><time>2026-05-01T15:32:19Z</time></trkpt><trkpt lat="43.755726666172116" lon="7.3186911016528065"><ele>99.0</ele><time>2026-05-01T15:32:20Z</time></trkpt><trkpt lat="43.755566633565955" lon="7.318745988598719"><ele>99.0</ele><time>2026-05-01T15:32:21Z</time></trkpt><trkpt lat="43.75540435179685" lon="7.318795970769276"><ele>99.0</ele><time>2026-05-01T15:32:22Z</time></trkpt><trkpt lat="43.7552437792824" lon="7.318839569484405"><ele>96.0</ele><time>2026-05-01T15:32:23Z</time></trkpt><trkpt lat="43.755077787858895" lon="7.318879780479973"><ele>93.0</ele><time>2026-05-01T15:32:24Z</time></trkpt><trkpt lat="43.75491274209768" lon="7.318909611142408"><ele>90.0</ele><time>2026-05-01T15:32:25Z</time></trkpt><trkpt lat="43.754743964310315" lon="7.318927179793494"><ele>90.0</ele><time>2026-05-01T15:32:26Z</time></trkpt><trkpt lat="43.7545851740167" lon="7.318920874910369"><ele>90.0</ele><time>2026-05-01T15:32:27Z</time></trkpt><trkpt lat="43.75444115393202" lon="7.318908529331921"><ele>90.0</ele><time>2026-05-01T15:32:28Z</time></trkpt><trkpt lat="43.75429209419114" lon="7.318895823120775"><ele>95.33333333333334</ele><time>2026-05-01T15:32:29Z</time></trkpt><trkpt lat="43.754139229522735" lon="7.318874129019585"><ele>100.66666666666667</ele><time>2026-05-01T15:32:30Z</time></trkpt><trkpt lat="43.753984607728164" lon="7.318845850424463"><ele>106.0</ele><time>2026-05-01T15:32:31Z</time></trkpt><trkpt lat="43.75382925516217" lon="7.318816868820775"><ele>106.0</ele><time>2026-05-01T15:32:32Z</time></trkpt><trkpt lat="43.75367773829612" lon="7.318789108750214"><ele>106.0</ele><time>2026-05-01T15:32:33Z</time></trkpt><trkpt lat="43.75352808902656" lon="7.318757116035108"><ele>106.0</ele><time>2026-05-01T15:32:34Z</time></trkpt><trkpt lat="43.75337111382601" lon="7.3187228373861455"><ele>105.66666666666667</ele><time>2026-05-01T15:32:35Z</time></trkpt><trkpt lat="43.753219165834324" lon="7.318691697969913"><ele>105.33333333333334</ele><time>2026-05-01T15:32:36Z</time></trkpt><trkpt lat="43.7530657644514" lon="7.3186616296985765"><ele>105.0</ele><time>2026-05-01T15:32:37Z</time></trkpt><trkpt lat="43.7529087357687" lon="7.3186344409854325"><ele>105.0</ele><time>2026-05-01T15:32:38Z</time></trkpt><trkpt lat="43.75275599520514" lon="7.318602511148582"><ele>105.0</ele><time>2026-05-01T15:32:39Z</time></trkpt><trkpt lat="43.75260808353173" lon="7.318573369255267"><ele>105.0</ele><time>2026-05-01T15:32:40Z</time></trkpt><trkpt lat="43.75246381097562" lon="7.3185473223432425"><ele>105.0</ele><time>2026-05-01T15:32:41Z</time></trkpt><trkpt lat="43.75231738781021" lon="7.318519910154786"><ele>102.0</ele><time>2026-05-01T15:32:42Z</time></trkpt><trkpt lat="43.75216590979296" lon="7.318487145333457"><ele>99.0</ele><time>2026-05-01T15:32:43Z</time></trkpt><trkpt lat="43.75201255356673" lon="7.318457139817474"><ele>96.0</ele><time>2026-05-01T15:32:44Z</time></trkpt><trkpt lat="43.751856725300364" lon="7.318426558098461"><ele>92.33333333333333</ele><time>2026-05-01T15:32:45Z</time></trkpt><trkpt lat="43.75169874182584" lon="7.318394960539942"><ele>88.66666666666666</ele><time>2026-05-01T15:32:46Z</time></trkpt><trkpt lat="43.751540078545304" lon="7.318363028378473"><ele>85.0</ele><time>2026-05-01T15:32:47Z</time></trkpt><trkpt lat="43.75139028016678" lon="7.318334954705301"><ele>85.0</ele><time>2026-05-01T15:32:48Z</time></trkpt><trkpt lat="43.7512462276396" lon="7.3183081199804905"><ele>85.0</ele><time>2026-05-01T15:32:49Z</time></trkpt><trkpt lat="43.75111073585292" lon="7.318281906231692"><ele>85.0</ele><time>2026-05-01T15:32:50Z</time></trkpt><trkpt lat="43.75097205423007" lon="7.318253140625859"><ele>85.0</ele><time>2026-05-01T15:32:51Z</time></trkpt><trkpt lat="43.75082931936815" lon="7.318227445774358"><ele>84.5</ele><time>2026-05-01T15:32:52Z</time></trkpt><trkpt lat="43.750681992498045" lon="7.318196743357661"><ele>84.0</ele><time>2026-05-01T15:32:53Z</time></trkpt><trkpt lat="43.750537271000255" lon="7.318164914614576"><ele>83.5</ele><time>2026-05-01T15:32:54Z</time></trkpt><trkpt lat="43.75039580959846" lon="7.3181341045911195"><ele>83.0</ele><time>2026-05-01T15:32:55Z</time></trkpt><trkpt lat="43.75025060444134" lon="7.318105821472515"><ele>82.33333333333334</ele><time>2026-05-01T15:32:56Z</time></trkpt><trkpt lat="43.75010099182004" lon="7.318075923364353"><ele>81.66666666666667</ele><time>2026-05-01T15:32:57Z</time></trkpt><trkpt lat="43.749948435178695" lon="7.31804994355382"><ele>81.0</ele><time>2026-05-01T15:32:58Z</time></trkpt><trkpt lat="43.7497930118072" lon="7.3180190995414955"><ele>81.0</ele><time>2026-05-01T15:32:59Z</time></trkpt><trkpt lat="43.749634033838205" lon="7.317985377772377"><ele>81.0</ele><time>2026-05-01T15:33:00Z</time></trkpt><trkpt lat="43.74947895761389" lon="7.317948696364517"><ele>81.0</ele><time>2026-05-01T15:33:01Z</time></trkpt><trkpt lat="43.74933436435414" lon="7.317909478532266"><ele>81.75</ele><time>2026-05-01T15:33:02Z</time></trkpt><trkpt lat="43.74919880249161" lon="7.317865738762399"><ele>82.5</ele><time>2026-05-01T15:33:03Z</time></trkpt><trkpt lat="43.74906056060162" lon="7.31780725131743"><ele>83.25</ele><time>2026-05-01T15:33:04Z</time></trkpt><trkpt lat="43.74892167713744" lon="7.317738046607973"><ele>84.0</ele><time>2026-05-01T15:33:05Z</time></trkpt><trkpt lat="43.74878115653036" lon="7.3176626899597075"><ele>84.0</ele><time>2026-05-01T15:33:06Z</time></trkpt><trkpt lat="43.74864412039693" lon="7.317578245941266"><ele>84.0</ele><time>2026-05-01T15:33:07Z</time></trkpt><trkpt lat="43.748511033132644" lon="7.317488094282332"><ele>84.0</ele><time>2026-05-01T15:33:07.999Z</time></trkpt><trkpt lat="43.74838700379911" lon="7.317390122231546"><ele>84.0</ele><time>2026-05-01T15:33:08.999Z</time></trkpt><trkpt lat="43.748267504298646" lon="7.317284149197932"><ele>86.0</ele><time>2026-05-01T15:33:09.999Z</time></trkpt><trkpt lat="43.748155113775084" lon="7.317172290139561"><ele>88.0</ele><time>2026-05-01T15:33:10.999Z</time></trkpt><trkpt lat="43.74804668060024" lon="7.317058748445443"><ele>90.0</ele><time>2026-05-01T15:33:11.999Z</time></trkpt><trkpt lat="43.747943991366846" lon="7.3169383977489515"><ele>92.0</ele><time>2026-05-01T15:33:12.999Z</time></trkpt><trkpt lat="43.74784693530211" lon="7.316813089146082"><ele>92.0</ele><time>2026-05-01T15:33:13.999Z</time></trkpt><trkpt lat="43.7477569193682" lon="7.316690022812532"><ele>92.0</ele><time>2026-05-01T15:33:14.999Z</time></trkpt><trkpt lat="43.74767088387365" lon="7.31655727320601"><ele>92.0</ele><time>2026-05-01T15:33:15.999Z</time></trkpt><trkpt lat="43.74759332126411" lon="7.316416052135448"><ele>92.0</ele><time>2026-05-01T15:33:16.999Z</time></trkpt><trkpt lat="43.74751921674411" lon="7.316264442220868"><ele>92.25</ele><time>2026-05-01T15:33:17.999Z</time></trkpt><trkpt lat="43.74744265555908" lon="7.316111108649515"><ele>92.5</ele><time>2026-05-01T15:33:18.999Z</time></trkpt><trkpt lat="43.747361041795585" lon="7.315954694652267"><ele>92.75</ele><time>2026-05-01T15:33:19.999Z</time></trkpt><trkpt lat="43.74727766166805" lon="7.315793880336872"><ele>93.0</ele><time>2026-05-01T15:33:20.999Z</time></trkpt><trkpt lat="43.74719555094817" lon="7.315635960796315"><ele>96.75</ele><time>2026-05-01T15:33:21.999Z</time></trkpt><trkpt lat="43.74711757026164" lon="7.315486205954594"><ele>100.5</ele><time>2026-05-01T15:33:22.999Z</time></trkpt><trkpt lat="43.747041293729154" lon="7.315329963683806"><ele>104.25</ele><time>2026-05-01T15:33:23.999Z</time></trkpt><trkpt lat="43.74696316161288" lon="7.315176418052369"><ele>108.0</ele><time>2026-05-01T15:33:24.999Z</time></trkpt><trkpt lat="43.74688819952921" lon="7.315012162376533"><ele>103.0</ele><time>2026-05-01T15:33:25.999Z</time></trkpt><trkpt lat="43.74681223880503" lon="7.314842941715307"><ele>98.0</ele><time>2026-05-01T15:33:26.999Z</time></trkpt><trkpt lat="43.7467375966927" lon="7.314672612765754"><ele>93.0</ele><time>2026-05-01T15:33:27.999Z</time></trkpt><trkpt lat="43.74666763950892" lon="7.314496513476306"><ele>88.0</ele><time>2026-05-01T15:33:28.999Z</time></trkpt><trkpt lat="43.74660118770759" lon="7.3143174273767375"><ele>88.0</ele><time>2026-05-01T15:33:29.999Z</time></trkpt><trkpt lat="43.74654194209777" lon="7.314136875037332"><ele>88.0</ele><time>2026-05-01T15:33:30.999Z</time></trkpt><trkpt lat="43.74647934110989" lon="7.3139544450425"><ele>88.0</ele><time>2026-05-01T15:33:31.999Z</time></trkpt><trkpt lat="43.74641817125917" lon="7.3137687069005235"><ele>88.0</ele><time>2026-05-01T15:33:32.999Z</time></trkpt><trkpt lat="43.746359787976026" lon="7.31358161632965"><ele>92.5</ele><time>2026-05-01T15:33:33.999Z</time></trkpt><trkpt lat="43.74630572624602" lon="7.313395968513812"><ele>97.0</ele><time>2026-05-01T15:33:34.999Z</time></trkpt><trkpt lat="43.746255151416655" lon="7.313206144763844"><ele>101.5</ele><time>2026-05-01T15:33:35.999Z</time></trkpt><trkpt lat="43.74620863558866" lon="7.31301406180687"><ele>106.0</ele><time>2026-05-01T15:33:36.999Z</time></trkpt><trkpt lat="43.746167673522386" lon="7.312825162934731"><ele>109.0</ele><time>2026-05-01T15:33:37.999Z</time></trkpt><trkpt lat="43.74612273325602" lon="7.3126327568976945"><ele>112.0</ele><time>2026-05-01T15:33:38.999Z</time></trkpt><trkpt lat="43.746077048831914" lon="7.3124350843778885"><ele>115.0</ele><time>2026-05-01T15:33:39.999Z</time></trkpt><trkpt lat="43.746025915369444" lon="7.312229472536145"><ele>103.66666666666667</ele><time>2026-05-01T15:33:40.999Z</time></trkpt><trkpt lat="43.74596946818705" lon="7.312023871863681"><ele>92.33333333333334</ele><time>2026-05-01T15:33:41.999Z</time></trkpt><trkpt lat="43.745904133189505" lon="7.311817119520143"><ele>81.0</ele><time>2026-05-01T15:33:42.999Z</time></trkpt><trkpt lat="43.74582758904362" lon="7.31161612529376"><ele>81.0</ele><time>2026-05-01T15:33:43.999Z</time></trkpt><trkpt lat="43.74574324692431" lon="7.311419319090513"><ele>81.0</ele><time>2026-05-01T15:33:44.999Z</time></trkpt><trkpt lat="43.74564435153821" lon="7.311223860515274"><ele>81.0</ele><time>2026-05-01T15:33:45.999Z</time></trkpt><trkpt lat="43.74553908700495" lon="7.31102990953875"><ele>82.66666666666667</ele><time>2026-05-01T15:33:46.999Z</time></trkpt><trkpt lat="43.74542369483175" lon="7.310825484264843"><ele>84.33333333333334</ele><time>2026-05-01T15:33:47.999Z</time></trkpt><trkpt lat="43.74531512108785" lon="7.310623299011245"><ele>86.0</ele><time>2026-05-01T15:33:48.999Z</time></trkpt><trkpt lat="43.7452114459511" lon="7.31043418478933"><ele>86.0</ele><time>2026-05-01T15:33:49.999Z</time></trkpt><trkpt lat="43.74509765979185" lon="7.310254361982808"><ele>86.0</ele><time>2026-05-01T15:33:50.999Z</time></trkpt><trkpt lat="43.744972838798866" lon="7.3100830589019985"><ele>86.0</ele><time>2026-05-01T15:33:52Z</time></trkpt><trkpt lat="43.74483700223324" lon="7.309918260460949"><ele>86.0</ele><time>2026-05-01T15:33:53Z</time></trkpt><trkpt lat="43.744696708167844" lon="7.309770911813617"><ele>86.0</ele><time>2026-05-01T15:33:54Z</time></trkpt><trkpt lat="43.74455184386002" lon="7.309637691900344"><ele>86.0</ele><time>2026-05-01T15:33:55Z</time></trkpt><trkpt lat="43.744405556168545" lon="7.309521593911838"><ele>88.66666666666667</ele><time>2026-05-01T15:33:56Z</time></trkpt><trkpt lat="43.74425462993393" lon="7.309419481606147"><ele>91.33333333333333</ele><time>2026-05-01T15:33:57Z</time></trkpt><trkpt lat="43.74410843429698" lon="7.309335349963581"><ele>94.0</ele><time>2026-05-01T15:33:58Z</time></trkpt><trkpt lat="43.743969938213795" lon="7.309262027272549"><ele>94.0</ele><time>2026-05-01T15:33:59Z</time></trkpt><trkpt lat="43.7438356903136" lon="7.309191426377582"><ele>94.0</ele><time>2026-05-01T15:34:00Z</time></trkpt><trkpt lat="43.7437054953955" lon="7.309129334808785"><ele>94.0</ele><time>2026-05-01T15:34:01Z</time></trkpt><trkpt lat="43.74358268551886" lon="7.309059320860764"><ele>94.0</ele><time>2026-05-01T15:34:02Z</time></trkpt><trkpt lat="43.743465528648" lon="7.3089896352400485"><ele>91.2</ele><time>2026-05-01T15:34:03Z</time></trkpt><trkpt lat="43.74335557339342" lon="7.308921533549871"><ele>88.4</ele><time>2026-05-01T15:34:04Z</time></trkpt><trkpt lat="43.743255995189266" lon="7.308847674751779"><ele>85.6</ele><time>2026-05-01T15:34:05Z</time></trkpt><trkpt lat="43.743165456332584" lon="7.308776020285811"><ele>82.8</ele><time>2026-05-01T15:34:06Z</time></trkpt><trkpt lat="43.74307381856611" lon="7.308702074400966"><ele>80.0</ele><time>2026-05-01T15:34:07Z</time></trkpt><trkpt lat="43.74297674656835" lon="7.308621562960107"><ele>80.0</ele><time>2026-05-01T15:34:08Z</time></trkpt><trkpt lat="43.74287248844715" lon="7.308543227568006"><ele>80.0</ele><time>2026-05-01T15:34:09Z</time></trkpt><trkpt lat="43.74276434103791" lon="7.308478660372613"><ele>80.0</ele><time>2026-05-01T15:34:10Z</time></trkpt><trkpt lat="43.74265303713991" lon="7.308442215980856"><ele>80.0</ele><time>2026-05-01T15:34:11Z</time></trkpt><trkpt lat="43.74253821632574" lon="7.3084403721588505"><ele>79.25</ele><time>2026-05-01T15:34:12Z</time></trkpt><trkpt lat="43.74242253991715" lon="7.30846919335326"><ele>78.5</ele><time>2026-05-01T15:34:13Z</time></trkpt><trkpt lat="43.742313423241974" lon="7.308526076166195"><ele>77.75</ele><time>2026-05-01T15:34:14Z</time></trkpt><trkpt lat="43.742206149933665" lon="7.308594152586884"><ele>77.0</ele><time>2026-05-01T15:34:15Z</time></trkpt><trkpt lat="43.74210745830935" lon="7.308659590927377"><ele>77.0</ele><time>2026-05-01T15:34:16Z</time></trkpt><trkpt lat="43.74202110685078" lon="7.308717449936283"><ele>77.0</ele><time>2026-05-01T15:34:17Z</time></trkpt><trkpt lat="43.74193872194181" lon="7.308769417602247"><ele>77.0</ele><time>2026-05-01T15:34:18Z</time></trkpt><trkpt lat="43.74185940708399" lon="7.308818386158906"><ele>77.0</ele><time>2026-05-01T15:34:19Z</time></trkpt><trkpt lat="43.74177962919669" lon="7.308857472628801"><ele>77.0</ele><time>2026-05-01T15:34:20Z</time></trkpt><trkpt lat="43.74171010207301" lon="7.308889195198629"><ele>77.0</ele><time>2026-05-01T15:34:21Z</time></trkpt><trkpt lat="43.74164356864846" lon="7.308915588341581"><ele>76.16666666666667</ele><time>2026-05-01T15:34:22Z</time></trkpt><trkpt lat="43.74157890558341" lon="7.3089341100086145"><ele>75.33333333333334</ele><time>2026-05-01T15:34:23Z</time></trkpt><trkpt lat="43.74146400117841" lon="7.308947682402009"><ele>74.5</ele><time>2026-05-01T15:34:25Z</time></trkpt><trkpt lat="43.74138163161578" lon="7.30894951425319"><ele>73.66666666666667</ele><time>2026-05-01T15:34:27Z</time></trkpt><trkpt lat="43.74131469737837" lon="7.308922979663864"><ele>72.83333333333333</ele><time>2026-05-01T15:34:29Z</time></trkpt><trkpt lat="43.74124246852916" lon="7.308916021885485"><ele>72.0</ele><time>2026-05-01T15:34:32Z</time></trkpt><trkpt lat="43.74114986238234" lon="7.308912395475053"><ele>71.2</ele><time>2026-05-01T15:34:39Z</time></trkpt><trkpt lat="43.74108605808823" lon="7.308907133613123"><ele>70.4</ele><time>2026-05-01T15:34:40Z</time></trkpt><trkpt lat="43.741022216792" lon="7.309163894609512"><ele>69.6</ele><time>2026-05-01T15:34:42Z</time></trkpt><trkpt lat="43.74101375226911" lon="7.309285970364535"><ele>68.8</ele><time>2026-05-01T15:34:43Z</time></trkpt><trkpt lat="43.74101080163417" lon="7.3094123306857455"><ele>68.0</ele><time>2026-05-01T15:34:44Z</time></trkpt><trkpt lat="43.74100971879299" lon="7.309558266543424"><ele>68.0</ele><time>2026-05-01T15:34:45Z</time></trkpt><trkpt lat="43.741009161751734" lon="7.309701391282105"><ele>68.0</ele><time>2026-05-01T15:34:46Z</time></trkpt><trkpt lat="43.74101319450327" lon="7.30982703491989"><ele>68.0</ele><time>2026-05-01T15:34:47Z</time></trkpt><trkpt lat="43.74101307342621" lon="7.309939208053207"><ele>68.0</ele><time>2026-05-01T15:34:48Z</time></trkpt><trkpt lat="43.74100963762602" lon="7.310038518923424"><ele>68.0</ele><time>2026-05-01T15:34:49Z</time></trkpt><trkpt lat="43.740984227208166" lon="7.310120950222767"><ele>68.0</ele><time>2026-05-01T15:34:50Z</time></trkpt><trkpt lat="43.74095283432549" lon="7.31022889085835"><ele>68.0</ele><time>2026-05-01T15:34:52Z</time></trkpt><trkpt lat="43.7407806069639" lon="7.310246584361387"><ele>68.0</ele><time>2026-05-01T15:34:53Z</time></trkpt><trkpt lat="43.74067059599992" lon="7.310215453181807"><ele>68.0</ele><time>2026-05-01T15:34:54Z</time></trkpt><trkpt lat="43.74054287937249" lon="7.310164063873039"><ele>68.0</ele><time>2026-05-01T15:34:55Z</time></trkpt><trkpt lat="43.74040140636801" lon="7.310112532991672"><ele>68.0</ele><time>2026-05-01T15:34:56Z</time></trkpt><trkpt lat="43.74025609993689" lon="7.310066913364751"><ele>68.0</ele><time>2026-05-01T15:34:57Z</time></trkpt><trkpt lat="43.74008134741725" lon="7.310019676452003"><ele>68.0</ele><time>2026-05-01T15:34:58Z</time></trkpt><trkpt lat="43.739896767149176" lon="7.309962221031839"><ele>67.0</ele><time>2026-05-01T15:34:59Z</time></trkpt><trkpt lat="43.739725832755724" lon="7.3098974807528005"><ele>66.0</ele><time>2026-05-01T15:35:00Z</time></trkpt><trkpt lat="43.73956286615514" lon="7.309827022355476"><ele>65.0</ele><time>2026-05-01T15:35:01Z</time></trkpt><trkpt lat="43.73939398625167" lon="7.309750847549476"><ele>64.66666666666667</ele><time>2026-05-01T15:35:02Z</time></trkpt><trkpt lat="43.73922468834109" lon="7.3096781258611365"><ele>64.33333333333333</ele><time>2026-05-01T15:35:03Z</time></trkpt><trkpt lat="43.73905502001262" lon="7.309599082074422"><ele>64.0</ele><time>2026-05-01T15:35:04Z</time></trkpt><trkpt lat="43.738889026277825" lon="7.309516939292699"><ele>64.0</ele><time>2026-05-01T15:35:05Z</time></trkpt><trkpt lat="43.73872896251291" lon="7.309422902522742"><ele>64.0</ele><time>2026-05-01T15:35:06Z</time></trkpt><trkpt lat="43.73857264030725" lon="7.309327674546217"><ele>64.0</ele><time>2026-05-01T15:35:07Z</time></trkpt><trkpt lat="43.7384161371922" lon="7.309227998693196"><ele>64.0</ele><time>2026-05-01T15:35:08Z</time></trkpt><trkpt lat="43.73825978513932" lon="7.309125009373173"><ele>64.0</ele><time>2026-05-01T15:35:09Z</time></trkpt><trkpt lat="43.73810481562924" lon="7.309017829467887"><ele>64.0</ele><time>2026-05-01T15:35:10Z</time></trkpt><trkpt lat="43.737950284700865" lon="7.308907236002049"><ele>64.33333333333333</ele><time>2026-05-01T15:35:11Z</time></trkpt><trkpt lat="43.7378023442719" lon="7.308792401195882"><ele>64.66666666666667</ele><time>2026-05-01T15:35:12Z</time></trkpt><trkpt lat="43.73765083279441" lon="7.308669149805824"><ele>65.0</ele><time>2026-05-01T15:35:13Z</time></trkpt><trkpt lat="43.737503062611054" lon="7.3085449795757205"><ele>65.0</ele><time>2026-05-01T15:35:14Z</time></trkpt><trkpt lat="43.73735433713029" lon="7.308415707051767"><ele>65.0</ele><time>2026-05-01T15:35:14.999Z</time></trkpt><trkpt lat="43.73720973949159" lon="7.308284222614028"><ele>65.0</ele><time>2026-05-01T15:35:15.999Z</time></trkpt><trkpt lat="43.73706502716239" lon="7.308145891692868"><ele>65.33333333333334</ele><time>2026-05-01T15:35:16.999Z</time></trkpt><trkpt lat="43.73692020814798" lon="7.308004497468076"><ele>65.66666666666667</ele><time>2026-05-01T15:35:17.999Z</time></trkpt><trkpt lat="43.73677562826028" lon="7.307855283388321"><ele>66.0</ele><time>2026-05-01T15:35:18.999Z</time></trkpt><trkpt lat="43.736631719187606" lon="7.307705846715108"><ele>65.33333333333333</ele><time>2026-05-01T15:35:19.999Z</time></trkpt><trkpt lat="43.73649700982449" lon="7.307550111479236"><ele>64.66666666666666</ele><time>2026-05-01T15:35:20.999Z</time></trkpt><trkpt lat="43.73637043360471" lon="7.307391597818134"><ele>64.0</ele><time>2026-05-01T15:35:21.999Z</time></trkpt><trkpt lat="43.73624672334808" lon="7.307225782370999"><ele>64.0</ele><time>2026-05-01T15:35:22.999Z</time></trkpt><trkpt lat="43.73612759299561" lon="7.307055843078334"><ele>64.0</ele><time>2026-05-01T15:35:23.999Z</time></trkpt><trkpt lat="43.73601035743555" lon="7.306879931758679"><ele>64.0</ele><time>2026-05-01T15:35:24.999Z</time></trkpt><trkpt lat="43.73589631105708" lon="7.306694227081309"><ele>63.33333333333333</ele><time>2026-05-01T15:35:25.999Z</time></trkpt><trkpt lat="43.73578487184835" lon="7.306504256166178"><ele>62.66666666666667</ele><time>2026-05-01T15:35:26.999Z</time></trkpt><trkpt lat="43.735675900185896" lon="7.3063059086857365"><ele>62.0</ele><time>2026-05-01T15:35:27.999Z</time></trkpt><trkpt lat="43.73557348623375" lon="7.306105751331068"><ele>61.66666666666667</ele><time>2026-05-01T15:35:28.999Z</time></trkpt><trkpt lat="43.73547405522275" lon="7.305898863618748"><ele>61.33333333333333</ele><time>2026-05-01T15:35:29.999Z</time></trkpt><trkpt lat="43.735384906980684" lon="7.305690502596503"><ele>61.0</ele><time>2026-05-01T15:35:30.999Z</time></trkpt><trkpt lat="43.73529735636096" lon="7.305473207043128"><ele>60.33333333333333</ele><time>2026-05-01T15:35:31.999Z</time></trkpt><trkpt lat="43.73521397426417" lon="7.305254245481407"><ele>59.66666666666667</ele><time>2026-05-01T15:35:32.999Z</time></trkpt><trkpt lat="43.735131161777765" lon="7.305030060667802"><ele>59.0</ele><time>2026-05-01T15:35:33.999Z</time></trkpt><trkpt lat="43.73504986505228" lon="7.304804873698889"><ele>58.333333333333336</ele><time>2026-05-01T15:35:34.999Z</time></trkpt><trkpt lat="43.73497156093028" lon="7.304576780391525"><ele>57.66666666666667</ele><time>2026-05-01T15:35:35.999Z</time></trkpt><trkpt lat="43.7349000365728" lon="7.304345143338402"><ele>57.0</ele><time>2026-05-01T15:35:36.999Z</time></trkpt><trkpt lat="43.734832572788534" lon="7.304111874610766"><ele>57.33333333333333</ele><time>2026-05-01T15:35:37.999Z</time></trkpt><trkpt lat="43.73477344026976" lon="7.303879698416315"><ele>57.666666666666664</ele><time>2026-05-01T15:35:38.999Z</time></trkpt><trkpt lat="43.73471928001443" lon="7.303643987437109"><ele>58.0</ele><time>2026-05-01T15:35:39.999Z</time></trkpt><trkpt lat="43.73467082167572" lon="7.303407540781059"><ele>58.0</ele><time>2026-05-01T15:35:40.999Z</time></trkpt><trkpt lat="43.734621127720644" lon="7.30316796122034"><ele>58.0</ele><time>2026-05-01T15:35:41.999Z</time></trkpt><trkpt lat="43.73457971104685" lon="7.3029288742082485"><ele>58.0</ele><time>2026-05-01T15:35:42.999Z</time></trkpt><trkpt lat="43.73454836346254" lon="7.3026830488566095"><ele>58.0</ele><time>2026-05-01T15:35:43.999Z</time></trkpt><trkpt lat="43.734524574942604" lon="7.302440217906648"><ele>58.0</ele><time>2026-05-01T15:35:44.999Z</time></trkpt><trkpt lat="43.734506028367015" lon="7.302196558135225"><ele>58.0</ele><time>2026-05-01T15:35:45.999Z</time></trkpt><trkpt lat="43.73448208909991" lon="7.3019484766573255"><ele>58.0</ele><time>2026-05-01T15:35:46.999Z</time></trkpt><trkpt lat="43.73445523508861" lon="7.3016944715085"><ele>58.0</ele><time>2026-05-01T15:35:47.999Z</time></trkpt><trkpt lat="43.734420077136114" lon="7.301435830302892"><ele>58.0</ele><time>2026-05-01T15:35:48.999Z</time></trkpt><trkpt lat="43.734376342850275" lon="7.301171634263322"><ele>57.33333333333333</ele><time>2026-05-01T15:35:49.999Z</time></trkpt><trkpt lat="43.73434747703148" lon="7.300925229808073"><ele>56.66666666666667</ele><time>2026-05-01T15:35:50.999Z</time></trkpt><trkpt lat="43.73431517640831" lon="7.3006809235256585"><ele>56.0</ele><time>2026-05-01T15:35:51.999Z</time></trkpt><trkpt lat="43.73428634313462" lon="7.300448487173544"><ele>55.66666666666667</ele><time>2026-05-01T15:35:52.999Z</time></trkpt><trkpt lat="43.734260186696226" lon="7.300215710881123"><ele>55.33333333333333</ele><time>2026-05-01T15:35:53.999Z</time></trkpt><trkpt lat="43.73423452480983" lon="7.29998119501485"><ele>55.0</ele><time>2026-05-01T15:35:54.999Z</time></trkpt><trkpt lat="43.73420682036869" lon="7.299747183625973"><ele>54.33333333333333</ele><time>2026-05-01T15:35:55.999Z</time></trkpt><trkpt lat="43.734177348011286" lon="7.299506471333254"><ele>53.66666666666667</ele><time>2026-05-01T15:35:56.999Z</time></trkpt><trkpt lat="43.73414628043756" lon="7.299267164102697"><ele>53.0</ele><time>2026-05-01T15:35:58Z</time></trkpt><trkpt lat="43.73411537181194" lon="7.299024466748417"><ele>53.66666666666667</ele><time>2026-05-01T15:35:59Z</time></trkpt><trkpt lat="43.73408559265808" lon="7.298777527512229"><ele>54.33333333333333</ele><time>2026-05-01T15:36:00Z</time></trkpt><trkpt lat="43.734054109201075" lon="7.298535893925748"><ele>55.0</ele><time>2026-05-01T15:36:01Z</time></trkpt><trkpt lat="43.73402189543843" lon="7.298283655138907"><ele>53.666666666666664</ele><time>2026-05-01T15:36:02Z</time></trkpt><trkpt lat="43.73399162567248" lon="7.2980400741485925"><ele>52.33333333333333</ele><time>2026-05-01T15:36:03Z</time></trkpt><trkpt lat="43.73396220924446" lon="7.297786830294287"><ele>51.0</ele><time>2026-05-01T15:36:04Z</time></trkpt><trkpt lat="43.7339306909154" lon="7.2975383707014005"><ele>51.0</ele><time>2026-05-01T15:36:05Z</time></trkpt><trkpt lat="43.733897794307424" lon="7.2972888139092476"><ele>51.0</ele><time>2026-05-01T15:36:06Z</time></trkpt><trkpt lat="43.733864609657054" lon="7.297035041385756"><ele>51.0</ele><time>2026-05-01T15:36:07Z</time></trkpt><trkpt lat="43.733833041871854" lon="7.296782766542838"><ele>51.0</ele><time>2026-05-01T15:36:08Z</time></trkpt><trkpt lat="43.733802843144396" lon="7.29653713737948"><ele>51.0</ele><time>2026-05-01T15:36:09Z</time></trkpt><trkpt lat="43.73377247754079" lon="7.296282656204014"><ele>51.0</ele><time>2026-05-01T15:36:10Z</time></trkpt><trkpt lat="43.73373954078124" lon="7.296035335291368"><ele>51.0</ele><time>2026-05-01T15:36:11Z</time></trkpt><trkpt lat="43.73370714481088" lon="7.295783266181323"><ele>51.0</ele><time>2026-05-01T15:36:12Z</time></trkpt><trkpt lat="43.7336753319682" lon="7.2955446236774675"><ele>51.0</ele><time>2026-05-01T15:36:13Z</time></trkpt><trkpt lat="43.733645213676155" lon="7.295303018841574"><ele>51.0</ele><time>2026-05-01T15:36:14Z</time></trkpt><trkpt lat="43.73361678635988" lon="7.295068676281123"><ele>51.0</ele><time>2026-05-01T15:36:15Z</time></trkpt><trkpt lat="43.733587962057875" lon="7.294833942084604"><ele>51.0</ele><time>2026-05-01T15:36:16Z</time></trkpt><trkpt lat="43.73355743717931" lon="7.294597669023818"><ele>51.0</ele><time>2026-05-01T15:36:17Z</time></trkpt><trkpt lat="43.73352826271434" lon="7.294362143135034"><ele>51.0</ele><time>2026-05-01T15:36:18Z</time></trkpt><trkpt lat="43.73349931680029" lon="7.294128417721694"><ele>51.0</ele><time>2026-05-01T15:36:19Z</time></trkpt><trkpt lat="43.733472782838696" lon="7.293893656542166"><ele>51.66666666666667</ele><time>2026-05-01T15:36:20Z</time></trkpt><trkpt lat="43.73344466547105" lon="7.293662422600647"><ele>52.333333333333336</ele><time>2026-05-01T15:36:21Z</time></trkpt><trkpt lat="43.73341503369143" lon="7.293428048794162"><ele>53.0</ele><time>2026-05-01T15:36:22Z</time></trkpt><trkpt lat="43.733385981730734" lon="7.293195850169885"><ele>52.333333333333336</ele><time>2026-05-01T15:36:23Z</time></trkpt><trkpt lat="43.7333572900757" lon="7.29296584574204"><ele>51.66666666666667</ele><time>2026-05-01T15:36:24Z</time></trkpt><trkpt lat="43.733324914244285" lon="7.292737775378396"><ele>51.0</ele><time>2026-05-01T15:36:25Z</time></trkpt><trkpt lat="43.73329242212364" lon="7.2925068618651725"><ele>51.0</ele><time>2026-05-01T15:36:26Z</time></trkpt><trkpt lat="43.73325890829333" lon="7.292275400029026"><ele>51.0</ele><time>2026-05-01T15:36:27Z</time></trkpt><trkpt lat="43.73321562887317" lon="7.292046908959043"><ele>51.0</ele><time>2026-05-01T15:36:28Z</time></trkpt><trkpt lat="43.7331634372452" lon="7.291820016564529"><ele>50.66666666666667</ele><time>2026-05-01T15:36:29Z</time></trkpt><trkpt lat="43.73311038620468" lon="7.2915916043344655"><ele>50.333333333333336</ele><time>2026-05-01T15:36:30Z</time></trkpt><trkpt lat="43.733054557948705" lon="7.29136587389029"><ele>50.0</ele><time>2026-05-01T15:36:31Z</time></trkpt><trkpt lat="43.73300538999385" lon="7.291139907702029"><ele>50.0</ele><time>2026-05-01T15:36:32Z</time></trkpt><trkpt lat="43.732951626204645" lon="7.2909136621236215"><ele>50.0</ele><time>2026-05-01T15:36:33Z</time></trkpt><trkpt lat="43.732887396420956" lon="7.2906849746253934"><ele>50.0</ele><time>2026-05-01T15:36:34Z</time></trkpt><trkpt lat="43.73282248792472" lon="7.290472983379408"><ele>50.0</ele><time>2026-05-01T15:36:35Z</time></trkpt><trkpt lat="43.73275272965411" lon="7.290251477974113"><ele>50.0</ele><time>2026-05-01T15:36:36Z</time></trkpt><trkpt lat="43.73267562391319" lon="7.290032538246998"><ele>50.0</ele><time>2026-05-01T15:36:37Z</time></trkpt><trkpt lat="43.73259868469258" lon="7.289809595253048"><ele>49.0</ele><time>2026-05-01T15:36:38Z</time></trkpt><trkpt lat="43.73252430005678" lon="7.289592288628097"><ele>48.0</ele><time>2026-05-01T15:36:39Z</time></trkpt><trkpt lat="43.73244609734923" lon="7.289369908245371"><ele>47.0</ele><time>2026-05-01T15:36:40Z</time></trkpt><trkpt lat="43.732369636997234" lon="7.289149243486659"><ele>47.0</ele><time>2026-05-01T15:36:41Z</time></trkpt><trkpt lat="43.73229493672497" lon="7.288933460156236"><ele>47.0</ele><time>2026-05-01T15:36:42Z</time></trkpt><trkpt lat="43.732216653865024" lon="7.288719444394254"><ele>47.0</ele><time>2026-05-01T15:36:43Z</time></trkpt><trkpt lat="43.73213806843449" lon="7.28850780448323"><ele>46.666666666666664</ele><time>2026-05-01T15:36:44Z</time></trkpt><trkpt lat="43.73206417540041" lon="7.288297991809198"><ele>46.333333333333336</ele><time>2026-05-01T15:36:45Z</time></trkpt><trkpt lat="43.73199019400958" lon="7.288084053796054"><ele>46.0</ele><time>2026-05-01T15:36:46Z</time></trkpt><trkpt lat="43.73191707037743" lon="7.287872726707056"><ele>45.66666666666667</ele><time>2026-05-01T15:36:47Z</time></trkpt><trkpt lat="43.73184532949136" lon="7.287666326064637"><ele>45.333333333333336</ele><time>2026-05-01T15:36:48Z</time></trkpt><trkpt lat="43.73177726262416" lon="7.287460426871974"><ele>45.0</ele><time>2026-05-01T15:36:49Z</time></trkpt><trkpt lat="43.731710258349715" lon="7.287259504214941"><ele>45.0</ele><time>2026-05-01T15:36:50Z</time></trkpt><trkpt lat="43.731644809770785" lon="7.2870654345908985"><ele>45.0</ele><time>2026-05-01T15:36:51Z</time></trkpt><trkpt lat="43.73157877875757" lon="7.2868757233642345"><ele>45.0</ele><time>2026-05-01T15:36:52Z</time></trkpt><trkpt lat="43.73151337245968" lon="7.2866811841885895"><ele>45.0</ele><time>2026-05-01T15:36:53Z</time></trkpt><trkpt lat="43.731451759192254" lon="7.286494487618118"><ele>45.0</ele><time>2026-05-01T15:36:54Z</time></trkpt><trkpt lat="43.73138804644433" lon="7.286313403024834"><ele>45.0</ele><time>2026-05-01T15:36:55Z</time></trkpt><trkpt lat="43.73131627623279" lon="7.286129901224759"><ele>45.0</ele><time>2026-05-01T15:36:56Z</time></trkpt><trkpt lat="43.73124102024629" lon="7.285937692948839"><ele>44.0</ele><time>2026-05-01T15:36:57Z</time></trkpt><trkpt lat="43.73116037789135" lon="7.285745468878203"><ele>43.0</ele><time>2026-05-01T15:36:58Z</time></trkpt><trkpt lat="43.73108016180979" lon="7.2855563249311714"><ele>42.0</ele><time>2026-05-01T15:36:59Z</time></trkpt><trkpt lat="43.73099979531221" lon="7.285378435150602"><ele>42.0</ele><time>2026-05-01T15:37:00Z</time></trkpt><trkpt lat="43.730924514554864" lon="7.285209670382071"><ele>42.0</ele><time>2026-05-01T15:37:01Z</time></trkpt><trkpt lat="43.730843504871736" lon="7.285033659056035"><ele>42.0</ele><time>2026-05-01T15:37:02Z</time></trkpt><trkpt lat="43.73075948640399" lon="7.2848483661617145"><ele>41.333333333333336</ele><time>2026-05-01T15:37:03Z</time></trkpt><trkpt lat="43.730675613264204" lon="7.2846618875205085"><ele>40.66666666666667</ele><time>2026-05-01T15:37:04Z</time></trkpt><trkpt lat="43.73059023464602" lon="7.284474110530011"><ele>40.0</ele><time>2026-05-01T15:37:05Z</time></trkpt><trkpt lat="43.73050039251846" lon="7.284283755716092"><ele>40.0</ele><time>2026-05-01T15:37:06Z</time></trkpt><trkpt lat="43.73040942480022" lon="7.284107866470026"><ele>40.0</ele><time>2026-05-01T15:37:07Z</time></trkpt><trkpt lat="43.7303128836623" lon="7.283936659257192"><ele>40.0</ele><time>2026-05-01T15:37:08Z</time></trkpt><trkpt lat="43.73019641728183" lon="7.283784525225037"><ele>39.75</ele><time>2026-05-01T15:37:09Z</time></trkpt><trkpt lat="43.73008025422895" lon="7.283653397721584"><ele>39.5</ele><time>2026-05-01T15:37:10Z</time></trkpt><trkpt lat="43.7299643160261" lon="7.283546658252579"><ele>39.25</ele><time>2026-05-01T15:37:11Z</time></trkpt><trkpt lat="43.72985351901296" lon="7.283453222305666"><ele>39.0</ele><time>2026-05-01T15:37:12Z</time></trkpt><trkpt lat="43.72973314878888" lon="7.283368180594775"><ele>39.0</ele><time>2026-05-01T15:37:13Z</time></trkpt><trkpt lat="43.72960402882509" lon="7.2832933835323335"><ele>39.0</ele><time>2026-05-01T15:37:14Z</time></trkpt><trkpt lat="43.72946849759333" lon="7.283232284727331"><ele>39.0</ele><time>2026-05-01T15:37:15Z</time></trkpt><trkpt lat="43.72932824249473" lon="7.283188871974457"><ele>39.0</ele><time>2026-05-01T15:37:16Z</time></trkpt><trkpt lat="43.72918341902662" lon="7.283162550553254"><ele>39.0</ele><time>2026-05-01T15:37:17Z</time></trkpt><trkpt lat="43.729041258789934" lon="7.283152144543947"><ele>39.0</ele><time>2026-05-01T15:37:18Z</time></trkpt><trkpt lat="43.72889428266312" lon="7.283150653832571"><ele>39.0</ele><time>2026-05-01T15:37:19Z</time></trkpt><trkpt lat="43.72874776337036" lon="7.283169211163788"><ele>39.0</ele><time>2026-05-01T15:37:20Z</time></trkpt><trkpt lat="43.728603384895564" lon="7.283204078025466"><ele>39.0</ele><time>2026-05-01T15:37:21Z</time></trkpt><trkpt lat="43.72846543159434" lon="7.283253427099726"><ele>39.0</ele><time>2026-05-01T15:37:22Z</time></trkpt><trkpt lat="43.72832743350479" lon="7.283309947079457"><ele>39.0</ele><time>2026-05-01T15:37:23Z</time></trkpt><trkpt lat="43.72818802446813" lon="7.2833794244893415"><ele>39.0</ele><time>2026-05-01T15:37:24Z</time></trkpt><trkpt lat="43.72804616645575" lon="7.2834619569414185"><ele>39.0</ele><time>2026-05-01T15:37:25Z</time></trkpt><trkpt lat="43.72790067699409" lon="7.283554333949601"><ele>39.0</ele><time>2026-05-01T15:37:26Z</time></trkpt><trkpt lat="43.72775535522066" lon="7.283650976941624"><ele>39.0</ele><time>2026-05-01T15:37:27Z</time></trkpt><trkpt lat="43.727610359709324" lon="7.283752253882323"><ele>38.333333333333336</ele><time>2026-05-01T15:37:28Z</time></trkpt><trkpt lat="43.72746592974421" lon="7.283868872530935"><ele>37.66666666666667</ele><time>2026-05-01T15:37:29Z</time></trkpt><trkpt lat="43.72732713868014" lon="7.283997239158707"><ele>37.0</ele><time>2026-05-01T15:37:30Z</time></trkpt><trkpt lat="43.72718600877905" lon="7.284134323207631"><ele>37.0</ele><time>2026-05-01T15:37:31Z</time></trkpt><trkpt lat="43.727048769129375" lon="7.284281166711007"><ele>37.0</ele><time>2026-05-01T15:37:32Z</time></trkpt><trkpt lat="43.72691879791045" lon="7.284440666832351"><ele>37.0</ele><time>2026-05-01T15:37:33Z</time></trkpt><trkpt lat="43.72680389126544" lon="7.28461553180861"><ele>36.333333333333336</ele><time>2026-05-01T15:37:34Z</time></trkpt><trkpt lat="43.726697457388774" lon="7.284804339899856"><ele>35.666666666666664</ele><time>2026-05-01T15:37:35Z</time></trkpt><trkpt lat="43.72659454568578" lon="7.284998239012479"><ele>35.0</ele><time>2026-05-01T15:37:36Z</time></trkpt><trkpt lat="43.72649348661422" lon="7.285193427186899"><ele>35.0</ele><time>2026-05-01T15:37:37Z</time></trkpt><trkpt lat="43.72639134709245" lon="7.2853864205604975"><ele>35.0</ele><time>2026-05-01T15:37:38Z</time></trkpt><trkpt lat="43.72629044111185" lon="7.285568055224625"><ele>35.0</ele><time>2026-05-01T15:37:39Z</time></trkpt><trkpt lat="43.72619059953389" lon="7.2857570868775134"><ele>35.0</ele><time>2026-05-01T15:37:40Z</time></trkpt><trkpt lat="43.726090837692084" lon="7.285942092619256"><ele>35.0</ele><time>2026-05-01T15:37:41Z</time></trkpt><trkpt lat="43.72599016685773" lon="7.286128280125315"><ele>35.0</ele><time>2026-05-01T15:37:42Z</time></trkpt><trkpt lat="43.72588995036322" lon="7.286316760250452"><ele>35.33333333333333</ele><time>2026-05-01T15:37:43Z</time></trkpt><trkpt lat="43.72579182466411" lon="7.286498725671509"><ele>35.666666666666664</ele><time>2026-05-01T15:37:44Z</time></trkpt><trkpt lat="43.72569837761957" lon="7.286679110216758"><ele>36.0</ele><time>2026-05-01T15:37:45Z</time></trkpt><trkpt lat="43.72560137554024" lon="7.286861044630389"><ele>36.0</ele><time>2026-05-01T15:37:46Z</time></trkpt><trkpt lat="43.725500075769084" lon="7.287030722615619"><ele>36.0</ele><time>2026-05-01T15:37:47Z</time></trkpt><trkpt lat="43.7253929227961" lon="7.2872015558019445"><ele>36.0</ele><time>2026-05-01T15:37:48Z</time></trkpt><trkpt lat="43.725280859282236" lon="7.287359926832548"><ele>36.666666666666664</ele><time>2026-05-01T15:37:49Z</time></trkpt><trkpt lat="43.72516230187646" lon="7.287507630951532"><ele>37.33333333333333</ele><time>2026-05-01T15:37:50Z</time></trkpt><trkpt lat="43.72503593664653" lon="7.28764443508558"><ele>38.0</ele><time>2026-05-01T15:37:51Z</time></trkpt><trkpt lat="43.72490585429233" lon="7.287772524941891"><ele>38.0</ele><time>2026-05-01T15:37:52Z</time></trkpt><trkpt lat="43.72477020739015" lon="7.287888550872002"><ele>38.0</ele><time>2026-05-01T15:37:53Z</time></trkpt><trkpt lat="43.72462808834439" lon="7.287990643701382"><ele>38.0</ele><time>2026-05-01T15:37:54Z</time></trkpt><trkpt lat="43.72448132505113" lon="7.288083506947899"><ele>37.666666666666664</ele><time>2026-05-01T15:37:55Z</time></trkpt><trkpt lat="43.72432702653844" lon="7.288170723826596"><ele>37.333333333333336</ele><time>2026-05-01T15:37:56Z</time></trkpt><trkpt lat="43.7241765109717" lon="7.288240718494889"><ele>37.0</ele><time>2026-05-01T15:37:57Z</time></trkpt><trkpt lat="43.72402155095982" lon="7.28829882422738"><ele>37.0</ele><time>2026-05-01T15:37:58Z</time></trkpt><trkpt lat="43.72385700447541" lon="7.288351228771904"><ele>37.0</ele><time>2026-05-01T15:37:59Z</time></trkpt><trkpt lat="43.72369448221522" lon="7.288391433543949"><ele>37.0</ele><time>2026-05-01T15:38:00Z</time></trkpt><trkpt lat="43.72352938838914" lon="7.288421631319572"><ele>35.66666666666667</ele><time>2026-05-01T15:38:00.999Z</time></trkpt><trkpt lat="43.723359642484034" lon="7.288443469087917"><ele>34.333333333333336</ele><time>2026-05-01T15:38:01.999Z</time></trkpt><trkpt lat="43.72319508967676" lon="7.288449641921715"><ele>33.0</ele><time>2026-05-01T15:38:03Z</time></trkpt><trkpt lat="43.72302209994595" lon="7.2884536785165315"><ele>33.0</ele><time>2026-05-01T15:38:04Z</time></trkpt><trkpt lat="43.72283949741169" lon="7.288450881882208"><ele>33.0</ele><time>2026-05-01T15:38:05Z</time></trkpt><trkpt lat="43.72268754758201" lon="7.2884259731890415"><ele>33.0</ele><time>2026-05-01T15:38:06Z</time></trkpt><trkpt lat="43.722524886425504" lon="7.288392831002377"><ele>32.666666666666664</ele><time>2026-05-01T15:38:07Z</time></trkpt><trkpt lat="43.722371459497275" lon="7.288348217650375"><ele>32.33333333333333</ele><time>2026-05-01T15:38:08Z</time></trkpt><trkpt lat="43.72222478286544" lon="7.28829904106816"><ele>32.0</ele><time>2026-05-01T15:38:09Z</time></trkpt><trkpt lat="43.72208132344772" lon="7.288240957376972"><ele>32.0</ele><time>2026-05-01T15:38:10Z</time></trkpt><trkpt lat="43.72193630203411" lon="7.288176194975508"><ele>32.0</ele><time>2026-05-01T15:38:11Z</time></trkpt><trkpt lat="43.72179193482282" lon="7.288101520645992"><ele>32.0</ele><time>2026-05-01T15:38:12Z</time></trkpt><trkpt lat="43.72165041864253" lon="7.288014303725102"><ele>31.333333333333332</ele><time>2026-05-01T15:38:13Z</time></trkpt><trkpt lat="43.72150790972671" lon="7.2879174069705215"><ele>30.666666666666664</ele><time>2026-05-01T15:38:14Z</time></trkpt><trkpt lat="43.72136748946098" lon="7.287813821883494"><ele>30.0</ele><time>2026-05-01T15:38:15Z</time></trkpt><trkpt lat="43.721230065076895" lon="7.287696450434489"><ele>30.0</ele><time>2026-05-01T15:38:16Z</time></trkpt><trkpt lat="43.72109566199087" lon="7.287574562932604"><ele>30.0</ele><time>2026-05-01T15:38:17Z</time></trkpt><trkpt lat="43.72096037381307" lon="7.287438965647925"><ele>30.0</ele><time>2026-05-01T15:38:18Z</time></trkpt><trkpt lat="43.72083162669472" lon="7.287300376670271"><ele>30.333333333333336</ele><time>2026-05-01T15:38:19Z</time></trkpt><trkpt lat="43.72070711796642" lon="7.287148993060164"><ele>30.666666666666668</ele><time>2026-05-01T15:38:20Z</time></trkpt><trkpt lat="43.72058593173936" lon="7.287001645466112"><ele>31.0</ele><time>2026-05-01T15:38:21Z</time></trkpt><trkpt lat="43.72046612892053" lon="7.2868453263362465"><ele>31.0</ele><time>2026-05-01T15:38:22Z</time></trkpt><trkpt lat="43.72034956091934" lon="7.286691449940979"><ele>31.0</ele><time>2026-05-01T15:38:23Z</time></trkpt><trkpt lat="43.72023763991806" lon="7.286526834617067"><ele>31.0</ele><time>2026-05-01T15:38:24Z</time></trkpt><trkpt lat="43.72012581040557" lon="7.286368071303697"><ele>30.5</ele><time>2026-05-01T15:38:25Z</time></trkpt><trkpt lat="43.72001551019051" lon="7.286203457170866"><ele>30.0</ele><time>2026-05-01T15:38:26Z</time></trkpt><trkpt lat="43.719918224141104" lon="7.28605110684061"><ele>29.5</ele><time>2026-05-01T15:38:27Z</time></trkpt><trkpt lat="43.71982688834499" lon="7.285915016724764"><ele>29.0</ele><time>2026-05-01T15:38:28Z</time></trkpt><trkpt lat="43.71974148243567" lon="7.285788186335689"><ele>29.0</ele><time>2026-05-01T15:38:29Z</time></trkpt><trkpt lat="43.719662763259215" lon="7.28567036083924"><ele>29.0</ele><time>2026-05-01T15:38:30Z</time></trkpt><trkpt lat="43.71958622207497" lon="7.285555105677559"><ele>29.0</ele><time>2026-05-01T15:38:31Z</time></trkpt><trkpt lat="43.719514405825564" lon="7.2854445206246075"><ele>29.0</ele><time>2026-05-01T15:38:32Z</time></trkpt><trkpt lat="43.719447587661605" lon="7.285338089491156"><ele>29.0</ele><time>2026-05-01T15:38:33Z</time></trkpt><trkpt lat="43.71938356206842" lon="7.285239992677838"><ele>28.833333333333332</ele><time>2026-05-01T15:38:34Z</time></trkpt><trkpt lat="43.71932922387121" lon="7.285158418352467"><ele>28.666666666666664</ele><time>2026-05-01T15:38:35Z</time></trkpt><trkpt lat="43.71928125719514" lon="7.28508630142256"><ele>28.5</ele><time>2026-05-01T15:38:36Z</time></trkpt><trkpt lat="43.719210630254615" lon="7.284982994164433"><ele>28.333333333333336</ele><time>2026-05-01T15:38:38Z</time></trkpt><trkpt lat="43.71915960603032" lon="7.284904008405367"><ele>28.166666666666668</ele><time>2026-05-01T15:38:41Z</time></trkpt><trkpt lat="43.719112501428825" lon="7.2848368298034964"><ele>28.0</ele><time>2026-05-01T15:38:47.999Z</time></trkpt><trkpt lat="43.71904693488021" lon="7.284766540447147"><ele>28.000000000000004</ele><time>2026-05-01T15:38:49.999Z</time></trkpt><trkpt lat="43.71894121589055" lon="7.284718760507409"><ele>28.0</ele><time>2026-05-01T15:38:51.999Z</time></trkpt><trkpt lat="43.71886985578062" lon="7.284724927615462"><ele>28.0</ele><time>2026-05-01T15:38:52.999Z</time></trkpt><trkpt lat="43.71880008163371" lon="7.284753029149739"><ele>28.0</ele><time>2026-05-01T15:38:53.999Z</time></trkpt><trkpt lat="43.718721991186214" lon="7.284793763788594"><ele>28.000000000000004</ele><time>2026-05-01T15:38:54.999Z</time></trkpt><trkpt lat="43.718649615503686" lon="7.284833094818966"><ele>28.0</ele><time>2026-05-01T15:38:55.999Z</time></trkpt><trkpt lat="43.71857999891613" lon="7.284862416726072"><ele>28.333333333333336</ele><time>2026-05-01T15:38:56.999Z</time></trkpt><trkpt lat="43.71850393712208" lon="7.284873245493726"><ele>28.666666666666668</ele><time>2026-05-01T15:38:57.999Z</time></trkpt><trkpt lat="43.718420602202535" lon="7.284882634709136"><ele>29.0</ele><time>2026-05-01T15:38:58.999Z</time></trkpt><trkpt lat="43.71833885784954" lon="7.284886536371094"><ele>29.333333333333336</ele><time>2026-05-01T15:38:59.999Z</time></trkpt><trkpt lat="43.71825607454133" lon="7.284875982808583"><ele>29.666666666666668</ele><time>2026-05-01T15:39:00.999Z</time></trkpt><trkpt lat="43.71817508867359" lon="7.284862791878313"><ele>30.0</ele><time>2026-05-01T15:39:01.999Z</time></trkpt><trkpt lat="43.71809871034115" lon="7.28483166039307"><ele>30.0</ele><time>2026-05-01T15:39:02.999Z</time></trkpt><trkpt lat="43.7180308017212" lon="7.284806165001502"><ele>30.0</ele><time>2026-05-01T15:39:03.999Z</time></trkpt><trkpt lat="43.7179373914575" lon="7.284774144424957"><ele>30.0</ele><time>2026-05-01T15:39:05.999Z</time></trkpt><trkpt lat="43.717873873761874" lon="7.284750349456263"><ele>30.0</ele><time>2026-05-01T15:39:07.999Z</time></trkpt><trkpt lat="43.717792135026336" lon="7.284720862354514"><ele>30.0</ele><time>2026-05-01T15:39:09.999Z</time></trkpt><trkpt lat="43.717681688251616" lon="7.284689042949067"><ele>30.0</ele><time>2026-05-01T15:39:11.999Z</time></trkpt><trkpt lat="43.717558687698464" lon="7.284652335551036"><ele>29.666666666666668</ele><time>2026-05-01T15:39:13.999Z</time></trkpt><trkpt lat="43.717489577793785" lon="7.284636107205796"><ele>29.333333333333336</ele><time>2026-05-01T15:39:14.999Z</time></trkpt><trkpt lat="43.717418734615045" lon="7.284615158208504"><ele>29.0</ele><time>2026-05-01T15:39:15.999Z</time></trkpt><trkpt lat="43.717344254125486" lon="7.284594978912017"><ele>28.666666666666668</ele><time>2026-05-01T15:39:16.999Z</time></trkpt><trkpt lat="43.71727277037273" lon="7.284582046578436"><ele>28.333333333333336</ele><time>2026-05-01T15:39:17.999Z</time></trkpt><trkpt lat="43.717203350163956" lon="7.2845673339540475"><ele>28.0</ele><time>2026-05-01T15:39:18.999Z</time></trkpt><trkpt lat="43.71708074950939" lon="7.284545252427548"><ele>28.0</ele><time>2026-05-01T15:39:20.999Z</time></trkpt><trkpt lat="43.71701743877981" lon="7.284534299538734"><ele>28.0</ele><time>2026-05-01T15:39:21.999Z</time></trkpt><trkpt lat="43.71695272935382" lon="7.2845205973903955"><ele>28.0</ele><time>2026-05-01T15:39:22.999Z</time></trkpt><trkpt lat="43.71688408833999" lon="7.284507577057826"><ele>28.0</ele><time>2026-05-01T15:39:23.999Z</time></trkpt><trkpt lat="43.71681857514261" lon="7.284494838450634"><ele>28.0</ele><time>2026-05-01T15:39:24.999Z</time></trkpt><trkpt lat="43.71675287368564" lon="7.284480370690051"><ele>28.0</ele><time>2026-05-01T15:39:25.999Z</time></trkpt><trkpt lat="43.716684214179175" lon="7.2844705554188"><ele>28.0</ele><time>2026-05-01T15:39:26.999Z</time></trkpt><trkpt lat="43.716610770599914" lon="7.28445964972715"><ele>27.799999999999997</ele><time>2026-05-01T15:39:27.999Z</time></trkpt><trkpt lat="43.716543310065326" lon="7.284447332347845"><ele>27.599999999999998</ele><time>2026-05-01T15:39:28.999Z</time></trkpt><trkpt lat="43.716479231857" lon="7.284428617057376"><ele>27.400000000000002</ele><time>2026-05-01T15:39:29.999Z</time></trkpt><trkpt lat="43.71637252857773" lon="7.284417816757409"><ele>27.200000000000003</ele><time>2026-05-01T15:39:31.999Z</time></trkpt><trkpt lat="43.71627046272773" lon="7.284404006472825"><ele>27.0</ele><time>2026-05-01T15:39:33.999Z</time></trkpt><trkpt lat="43.716135257974734" lon="7.284388473635744"><ele>27.0</ele><time>2026-05-01T15:39:35.999Z</time></trkpt><trkpt lat="43.71605619337145" lon="7.2843765900847455"><ele>27.0</ele><time>2026-05-01T15:39:36.999Z</time></trkpt><trkpt lat="43.715978472375795" lon="7.284359928926496"><ele>27.0</ele><time>2026-05-01T15:39:37.999Z</time></trkpt><trkpt lat="43.715902200131964" lon="7.284353587766466"><ele>27.0</ele><time>2026-05-01T15:39:38.999Z</time></trkpt><trkpt lat="43.71582579247291" lon="7.284344527448047"><ele>27.0</ele><time>2026-05-01T15:39:39.999Z</time></trkpt><trkpt lat="43.71574939221661" lon="7.284338313635877"><ele>27.0</ele><time>2026-05-01T15:39:40.999Z</time></trkpt><trkpt lat="43.715670788835766" lon="7.284334961428878"><ele>27.0</ele><time>2026-05-01T15:39:41.999Z</time></trkpt><trkpt lat="43.71559619008798" lon="7.284336145945018"><ele>27.0</ele><time>2026-05-01T15:39:42.999Z</time></trkpt><trkpt lat="43.7155179048868" lon="7.284330364875465"><ele>27.0</ele><time>2026-05-01T15:39:43.999Z</time></trkpt><trkpt lat="43.7154424014871" lon="7.284326269366428"><ele>27.0</ele><time>2026-05-01T15:39:44.999Z</time></trkpt><trkpt lat="43.71537263013487" lon="7.28432369895576"><ele>27.0</ele><time>2026-05-01T15:39:45.999Z</time></trkpt><trkpt lat="43.715299146671256" lon="7.284320633034736"><ele>27.0</ele><time>2026-05-01T15:39:46.999Z</time></trkpt><trkpt lat="43.71522929495274" lon="7.284318134036102"><ele>27.0</ele><time>2026-05-01T15:39:47.999Z</time></trkpt><trkpt lat="43.71516529523144" lon="7.284317360839246"><ele>26.666666666666668</ele><time>2026-05-01T15:39:48.999Z</time></trkpt><trkpt lat="43.715051940941315" lon="7.284309245687422"><ele>26.333333333333336</ele><time>2026-05-01T15:39:50.999Z</time></trkpt><trkpt lat="43.714962937734825" lon="7.284304941322551"><ele>26.0</ele><time>2026-05-01T15:39:52.999Z</time></trkpt><trkpt lat="43.71489400701907" lon="7.284300179181029"><ele>25.666666666666668</ele><time>2026-05-01T15:39:54.999Z</time></trkpt><trkpt lat="43.71481912763666" lon="7.284303998515111"><ele>25.333333333333336</ele><time>2026-05-01T15:40:17Z</time></trkpt><trkpt lat="43.71474257605028" lon="7.284309365577601"><ele>25.0</ele><time>2026-05-01T15:40:19Z</time></trkpt><trkpt lat="43.714652571878794" lon="7.2843050295167675"><ele>25.0</ele><time>2026-05-01T15:40:21Z</time></trkpt><trkpt lat="43.71453963543851" lon="7.2842984928293"><ele>25.0</ele><time>2026-05-01T15:40:23Z</time></trkpt><trkpt lat="43.71443317069798" lon="7.284298077286708"><ele>25.0</ele><time>2026-05-01T15:40:25Z</time></trkpt><trkpt lat="43.71435237123674" lon="7.284282610675341"><ele>25.0</ele><time>2026-05-01T15:40:27Z</time></trkpt><trkpt lat="43.71430728557757" lon="7.284570117937502"><ele>25.333333333333336</ele><time>2026-05-01T15:40:31Z</time></trkpt><trkpt lat="43.714344072650285" lon="7.284645516520341"><ele>25.666666666666668</ele><time>2026-05-01T15:40:32Z</time></trkpt><trkpt lat="43.71438706761511" lon="7.28471840791198"><ele>26.0</ele><time>2026-05-01T15:40:33Z</time></trkpt><trkpt lat="43.71446782118288" lon="7.284865185219882"><ele>26.333333333333336</ele><time>2026-05-01T15:40:35Z</time></trkpt><trkpt lat="43.71450917770555" lon="7.28494968349436"><ele>26.666666666666668</ele><time>2026-05-01T15:40:36Z</time></trkpt><trkpt lat="43.714542996359384" lon="7.285038650924048"><ele>27.0</ele><time>2026-05-01T15:40:37Z</time></trkpt><trkpt lat="43.71456710851568" lon="7.285135307994169"><ele>27.0</ele><time>2026-05-01T15:40:38Z</time></trkpt><trkpt lat="43.71458489549575" lon="7.285224086205142"><ele>27.000000000000004</ele><time>2026-05-01T15:40:39Z</time></trkpt><trkpt lat="43.71460018627759" lon="7.285308846764898"><ele>27.000000000000004</ele><time>2026-05-01T15:40:40Z</time></trkpt><trkpt lat="43.71462880396637" lon="7.28545290604143"><ele>27.0</ele><time>2026-05-01T15:40:42Z</time></trkpt><trkpt lat="43.71466152442287" lon="7.2855971710471366"><ele>27.0</ele><time>2026-05-01T15:40:44Z</time></trkpt><trkpt lat="43.714703938365844" lon="7.285762387773968"><ele>27.333333333333332</ele><time>2026-05-01T15:40:46Z</time></trkpt><trkpt lat="43.71472618186552" lon="7.2858561845612755"><ele>27.666666666666664</ele><time>2026-05-01T15:40:47Z</time></trkpt><trkpt lat="43.714747984443235" lon="7.285955516066522"><ele>28.0</ele><time>2026-05-01T15:40:48Z</time></trkpt><trkpt lat="43.7147682046589" lon="7.286056532064409"><ele>28.333333333333332</ele><time>2026-05-01T15:40:49Z</time></trkpt><trkpt lat="43.71479049862367" lon="7.2861635524587935"><ele>28.666666666666664</ele><time>2026-05-01T15:40:50Z</time></trkpt><trkpt lat="43.71481513035347" lon="7.286278083324859"><ele>29.0</ele><time>2026-05-01T15:40:51Z</time></trkpt><trkpt lat="43.714838050882854" lon="7.286384823710605"><ele>29.333333333333332</ele><time>2026-05-01T15:40:52Z</time></trkpt><trkpt lat="43.71486064435565" lon="7.286494040611973"><ele>29.666666666666664</ele><time>2026-05-01T15:40:53Z</time></trkpt><trkpt lat="43.714885558243715" lon="7.286604364722505"><ele>30.0</ele><time>2026-05-01T15:40:54Z</time></trkpt><trkpt lat="43.7149141907888" lon="7.286715579492114"><ele>30.333333333333336</ele><time>2026-05-01T15:40:55Z</time></trkpt><trkpt lat="43.71494187571402" lon="7.286828929265968"><ele>30.666666666666668</ele><time>2026-05-01T15:40:56Z</time></trkpt><trkpt lat="43.714968673693136" lon="7.286940152353514"><ele>31.0</ele><time>2026-05-01T15:40:57Z</time></trkpt><trkpt lat="43.714994984719795" lon="7.28705377986209"><ele>31.000000000000004</ele><time>2026-05-01T15:40:58Z</time></trkpt><trkpt lat="43.71502336376387" lon="7.287170175540612"><ele>31.0</ele><time>2026-05-01T15:40:59Z</time></trkpt><trkpt lat="43.715055156780814" lon="7.287283707829428"><ele>31.0</ele><time>2026-05-01T15:41:00Z</time></trkpt><trkpt lat="43.715072584937296" lon="7.287404747452472"><ele>31.0</ele><time>2026-05-01T15:41:01Z</time></trkpt><trkpt lat="43.71510407775538" lon="7.287498077434723"><ele>31.000000000000004</ele><time>2026-05-01T15:41:02Z</time></trkpt><trkpt lat="43.715126227532195" lon="7.287594918112923"><ele>31.0</ele><time>2026-05-01T15:41:03Z</time></trkpt><trkpt lat="43.715148462627766" lon="7.2876979780502085"><ele>30.833333333333336</ele><time>2026-05-01T15:41:04Z</time></trkpt><trkpt lat="43.715176581136305" lon="7.287811818245442"><ele>30.666666666666668</ele><time>2026-05-01T15:41:05Z</time></trkpt><trkpt lat="43.715200229306106" lon="7.287916866163532"><ele>30.5</ele><time>2026-05-01T15:41:06Z</time></trkpt><trkpt lat="43.71522161974747" lon="7.288013210225386"><ele>30.333333333333336</ele><time>2026-05-01T15:41:07Z</time></trkpt><trkpt lat="43.71522921897906" lon="7.2881019795197135"><ele>30.166666666666668</ele><time>2026-05-01T15:41:08Z</time></trkpt><trkpt lat="43.715279606062985" lon="7.288274877520265"><ele>30.0</ele><time>2026-05-01T15:41:10Z</time></trkpt><trkpt lat="43.7153014252054" lon="7.288382308379224"><ele>29.833333333333332</ele><time>2026-05-01T15:41:11Z</time></trkpt><trkpt lat="43.715323093675934" lon="7.288493343797343"><ele>29.666666666666664</ele><time>2026-05-01T15:41:12Z</time></trkpt><trkpt lat="43.71534724161855" lon="7.288595964323667"><ele>29.5</ele><time>2026-05-01T15:41:13Z</time></trkpt><trkpt lat="43.71537122363031" lon="7.288690260953966"><ele>29.333333333333332</ele><time>2026-05-01T15:41:14Z</time></trkpt><trkpt lat="43.71538511858365" lon="7.28878169555224"><ele>29.166666666666664</ele><time>2026-05-01T15:41:15Z</time></trkpt><trkpt lat="43.71540375383519" lon="7.288949148737494"><ele>29.0</ele><time>2026-05-01T15:41:17Z</time></trkpt><trkpt lat="43.71542600500719" lon="7.289113023768291"><ele>28.999999999999996</ele><time>2026-05-01T15:41:19Z</time></trkpt><trkpt lat="43.71543624294678" lon="7.289229890086352"><ele>29.0</ele><time>2026-05-01T15:41:21Z</time></trkpt><trkpt lat="43.715402569118396" lon="7.28935040773114"><ele>29.0</ele><time>2026-05-01T15:41:24Z</time></trkpt><trkpt lat="43.715332133027346" lon="7.289374787980898"><ele>29.0</ele><time>2026-05-01T15:41:25Z</time></trkpt><trkpt lat="43.71526683702742" lon="7.289391567700662"><ele>28.999999999999996</ele><time>2026-05-01T15:41:26Z</time></trkpt><trkpt lat="43.71519489957341" lon="7.289394623134256"><ele>29.0</ele><time>2026-05-01T15:41:27Z</time></trkpt><trkpt lat="43.71512419409372" lon="7.289410213521492"><ele>28.999999999999996</ele><time>2026-05-01T15:41:28Z</time></trkpt><trkpt lat="43.715047361666024" lon="7.289364438290822"><ele>29.0</ele><time>2026-05-01T15:41:29Z</time></trkpt><trkpt lat="43.714975425178295" lon="7.289341436308371"><ele>29.0</ele><time>2026-05-01T15:41:30Z</time></trkpt><trkpt lat="43.71490381017615" lon="7.289319967727976"><ele>29.0</ele><time>2026-05-01T15:41:31Z</time></trkpt><trkpt lat="43.714830607928995" lon="7.289301804416661"><ele>28.999999999999996</ele><time>2026-05-01T15:41:32Z</time></trkpt><trkpt lat="43.71475287531065" lon="7.289273993000051"><ele>29.0</ele><time>2026-05-01T15:41:33Z</time></trkpt><trkpt lat="43.71467647761709" lon="7.289249545002738"><ele>28.999999999999996</ele><time>2026-05-01T15:41:34Z</time></trkpt><trkpt lat="43.71459661414494" lon="7.289233827161659"><ele>29.0</ele><time>2026-05-01T15:41:35Z</time></trkpt><trkpt lat="43.71451267977119" lon="7.289210348937556"><ele>29.0</ele><time>2026-05-01T15:41:36Z</time></trkpt><trkpt lat="43.71443095146724" lon="7.289185950042174"><ele>29.0</ele><time>2026-05-01T15:41:37Z</time></trkpt><trkpt lat="43.71434366818209" lon="7.289159975986482"><ele>28.999999999999996</ele><time>2026-05-01T15:41:38Z</time></trkpt><trkpt lat="43.71426163870181" lon="7.2891346397996575"><ele>29.0</ele><time>2026-05-01T15:41:39Z</time></trkpt><trkpt lat="43.71418294824686" lon="7.2891127224295795"><ele>28.799999999999997</ele><time>2026-05-01T15:41:40Z</time></trkpt><trkpt lat="43.714106247089475" lon="7.2890900514969434"><ele>28.599999999999998</ele><time>2026-05-01T15:41:41Z</time></trkpt><trkpt lat="43.71403020423644" lon="7.289066587420991"><ele>28.4</ele><time>2026-05-01T15:41:42Z</time></trkpt><trkpt lat="43.71391807443517" lon="7.289038583383508"><ele>28.2</ele><time>2026-05-01T15:41:44Z</time></trkpt><trkpt lat="43.713795956358126" lon="7.289008244521886"><ele>28.0</ele><time>2026-05-01T15:41:46Z</time></trkpt><trkpt lat="43.713692464434544" lon="7.2889837897551235"><ele>28.0</ele><time>2026-05-01T15:41:48Z</time></trkpt><trkpt lat="43.71359617206689" lon="7.288951545684579"><ele>27.999999999999996</ele><time>2026-05-01T15:41:50Z</time></trkpt><trkpt lat="43.713488299835916" lon="7.288922685449381"><ele>27.999999999999996</ele><time>2026-05-01T15:41:52Z</time></trkpt><trkpt lat="43.71336590219729" lon="7.288895789761013"><ele>28.0</ele><time>2026-05-01T15:41:54Z</time></trkpt><trkpt lat="43.71329978604565" lon="7.2888805110850985"><ele>28.0</ele><time>2026-05-01T15:41:55Z</time></trkpt><trkpt lat="43.71322562051036" lon="7.288861340632471"><ele>27.166666666666668</ele><time>2026-05-01T15:41:56Z</time></trkpt><trkpt lat="43.713155546710865" lon="7.288848912069571"><ele>26.333333333333336</ele><time>2026-05-01T15:41:57Z</time></trkpt><trkpt lat="43.713087397450394" lon="7.288837210113641"><ele>25.5</ele><time>2026-05-01T15:41:58Z</time></trkpt><trkpt lat="43.713020684014836" lon="7.288826125269681"><ele>24.666666666666668</ele><time>2026-05-01T15:41:59Z</time></trkpt><trkpt lat="43.712947976213016" lon="7.288801949893599"><ele>23.833333333333336</ele><time>2026-05-01T15:42:00Z</time></trkpt><trkpt lat="43.71288146858931" lon="7.2887705794250115"><ele>23.0</ele><time>2026-05-01T15:42:01Z</time></trkpt><trkpt lat="43.71276639088397" lon="7.288729816709864"><ele>23.166666666666668</ele><time>2026-05-01T15:42:03Z</time></trkpt><trkpt lat="43.71265049214661" lon="7.288691938533665"><ele>23.333333333333336</ele><time>2026-05-01T15:42:05Z</time></trkpt><trkpt lat="43.71258078704091" lon="7.288670039348972"><ele>23.5</ele><time>2026-05-01T15:42:06Z</time></trkpt><trkpt lat="43.712506393497335" lon="7.288647861337105"><ele>23.666666666666668</ele><time>2026-05-01T15:42:07Z</time></trkpt><trkpt lat="43.71242783814949" lon="7.28862430132738"><ele>23.833333333333332</ele><time>2026-05-01T15:42:08Z</time></trkpt><trkpt lat="43.71234930728083" lon="7.288595799990584"><ele>24.0</ele><time>2026-05-01T15:42:09Z</time></trkpt><trkpt lat="43.7122691940094" lon="7.288562063612818"><ele>24.0</ele><time>2026-05-01T15:42:10Z</time></trkpt><trkpt lat="43.71219510818589" lon="7.28852883788133"><ele>24.0</ele><time>2026-05-01T15:42:11Z</time></trkpt><trkpt lat="43.71211905443889" lon="7.2884939747362525"><ele>24.0</ele><time>2026-05-01T15:42:12Z</time></trkpt><trkpt lat="43.7120436960988" lon="7.288459407521099"><ele>24.0</ele><time>2026-05-01T15:42:13Z</time></trkpt><trkpt lat="43.711971426717014" lon="7.288423670990895"><ele>24.0</ele><time>2026-05-01T15:42:14Z</time></trkpt><trkpt lat="43.71190806510224" lon="7.288390428144836"><ele>24.0</ele><time>2026-05-01T15:42:15Z</time></trkpt><trkpt lat="43.71179939675555" lon="7.288347430365591"><ele>23.833333333333332</ele><time>2026-05-01T15:42:17Z</time></trkpt><trkpt lat="43.71172635983319" lon="7.288321546163045"><ele>23.666666666666668</ele><time>2026-05-01T15:42:19Z</time></trkpt><trkpt lat="43.71163897140105" lon="7.288286873888422"><ele>23.5</ele><time>2026-05-01T15:42:57Z</time></trkpt><trkpt lat="43.7115635672592" lon="7.288255800118934"><ele>23.333333333333336</ele><time>2026-05-01T15:42:59Z</time></trkpt><trkpt lat="43.7114828297517" lon="7.288208871058926"><ele>23.166666666666668</ele><time>2026-05-01T15:43:01Z</time></trkpt><trkpt lat="43.71140268615969" lon="7.288117178316799"><ele>23.0</ele><time>2026-05-01T15:43:03Z</time></trkpt><trkpt lat="43.71129987073134" lon="7.288037012898641"><ele>22.714285714285715</ele><time>2026-05-01T15:43:05Z</time></trkpt><trkpt lat="43.711231293645184" lon="7.288014689510546"><ele>22.428571428571427</ele><time>2026-05-01T15:43:06Z</time></trkpt><trkpt lat="43.71116516575147" lon="7.2880061018649815"><ele>22.142857142857142</ele><time>2026-05-01T15:43:07Z</time></trkpt><trkpt lat="43.71110043041448" lon="7.28799655723892"><ele>21.857142857142858</ele><time>2026-05-01T15:43:08Z</time></trkpt><trkpt lat="43.71102925598864" lon="7.2879878071406425"><ele>21.57142857142857</ele><time>2026-05-01T15:43:09Z</time></trkpt><trkpt lat="43.7109562941061" lon="7.287981241960258"><ele>21.285714285714285</ele><time>2026-05-01T15:43:10Z</time></trkpt><trkpt lat="43.710885734580536" lon="7.287971568640238"><ele>21.0</ele><time>2026-05-01T15:43:11Z</time></trkpt><trkpt lat="43.71081567668192" lon="7.287964982060616"><ele>20.857142857142858</ele><time>2026-05-01T15:43:12Z</time></trkpt><trkpt lat="43.710747651572746" lon="7.287954513153262"><ele>20.714285714285715</ele><time>2026-05-01T15:43:13Z</time></trkpt><trkpt lat="43.7106773240462" lon="7.287946307418128"><ele>20.57142857142857</ele><time>2026-05-01T15:43:14Z</time></trkpt><trkpt lat="43.71061063597199" lon="7.287939067212464"><ele>20.42857142857143</ele><time>2026-05-01T15:43:15Z</time></trkpt><trkpt lat="43.71054309507914" lon="7.287933022554591"><ele>20.285714285714285</ele><time>2026-05-01T15:43:16Z</time></trkpt><trkpt lat="43.71047139512134" lon="7.287927987044591"><ele>20.142857142857142</ele><time>2026-05-01T15:43:17Z</time></trkpt><trkpt lat="43.710390008398086" lon="7.287920523507719"><ele>20.0</ele><time>2026-05-01T15:43:18Z</time></trkpt><trkpt lat="43.710310858725016" lon="7.28790854208239"><ele>20.0</ele><time>2026-05-01T15:43:19Z</time></trkpt><trkpt lat="43.71024318229361" lon="7.287895222794872"><ele>20.0</ele><time>2026-05-01T15:43:20Z</time></trkpt><trkpt lat="43.71017474522983" lon="7.287882817598426"><ele>20.0</ele><time>2026-05-01T15:43:21Z</time></trkpt><trkpt lat="43.710104647267464" lon="7.287861771835808"><ele>20.0</ele><time>2026-05-01T15:43:22Z</time></trkpt><trkpt lat="43.710042599064295" lon="7.2878446442758005"><ele>20.0</ele><time>2026-05-01T15:43:24Z</time></trkpt><trkpt lat="43.709921166387346" lon="7.2878084702427826"><ele>20.0</ele><time>2026-05-01T15:44:11.999Z</time></trkpt><trkpt lat="43.70985053625751" lon="7.2877954089251675"><ele>19.8</ele><time>2026-05-01T15:44:12.999Z</time></trkpt><trkpt lat="43.70977266049779" lon="7.287785403451764"><ele>19.6</ele><time>2026-05-01T15:44:13.999Z</time></trkpt><trkpt lat="43.709684200671575" lon="7.287780467682975"><ele>19.4</ele><time>2026-05-01T15:44:14.999Z</time></trkpt><trkpt lat="43.709580656996756" lon="7.287774699770014"><ele>19.2</ele><time>2026-05-01T15:44:15.999Z</time></trkpt><trkpt lat="43.70948042053833" lon="7.287765617316628"><ele>19.0</ele><time>2026-05-01T15:44:16.999Z</time></trkpt><trkpt lat="43.70939783265178" lon="7.287756597167389"><ele>19.0</ele><time>2026-05-01T15:44:17.999Z</time></trkpt><trkpt lat="43.709318463553494" lon="7.2877464930633105"><ele>19.0</ele><time>2026-05-01T15:44:18.999Z</time></trkpt><trkpt lat="43.7092434458562" lon="7.2877350298192125"><ele>19.0</ele><time>2026-05-01T15:44:19.999Z</time></trkpt><trkpt lat="43.709172023098176" lon="7.287716918753248"><ele>19.0</ele><time>2026-05-01T15:44:21Z</time></trkpt><trkpt lat="43.70908273365503" lon="7.287698726162675"><ele>19.0</ele><time>2026-05-01T15:44:22Z</time></trkpt><trkpt lat="43.708986469302864" lon="7.287681733262719"><ele>19.0</ele><time>2026-05-01T15:44:23Z</time></trkpt><trkpt lat="43.70889154370285" lon="7.287662147891914"><ele>19.0</ele><time>2026-05-01T15:44:24Z</time></trkpt><trkpt lat="43.70881368495949" lon="7.287642076570455"><ele>19.0</ele><time>2026-05-01T15:44:25Z</time></trkpt><trkpt lat="43.70874165358337" lon="7.287625616270448"><ele>19.0</ele><time>2026-05-01T15:44:26Z</time></trkpt><trkpt lat="43.70866487606794" lon="7.2875978689382"><ele>19.0</ele><time>2026-05-01T15:44:27Z</time></trkpt><trkpt lat="43.70859671556166" lon="7.287576893020972"><ele>19.0</ele><time>2026-05-01T15:44:28Z</time></trkpt><trkpt lat="43.708532617784286" lon="7.287561846118905"><ele>19.0</ele><time>2026-05-01T15:44:29Z</time></trkpt><trkpt lat="43.70846823274455" lon="7.287529740541401"><ele>19.0</ele><time>2026-05-01T15:44:30Z</time></trkpt><trkpt lat="43.70840588528013" lon="7.28747435183361"><ele>19.5</ele><time>2026-05-01T15:44:31Z</time></trkpt><trkpt lat="43.70835077998667" lon="7.287402028546312"><ele>20.0</ele><time>2026-05-01T15:44:32Z</time></trkpt><trkpt lat="43.70829206037294" lon="7.28734489863204"><ele>20.5</ele><time>2026-05-01T15:44:33Z</time></trkpt><trkpt lat="43.708230415065856" lon="7.287287264872861"><ele>21.0</ele><time>2026-05-01T15:44:34Z</time></trkpt><trkpt lat="43.70814980936638" lon="7.2872576734851995"><ele>21.5</ele><time>2026-05-01T15:44:35Z</time></trkpt><trkpt lat="43.70808009750876" lon="7.287202639920587"><ele>22.0</ele><time>2026-05-01T15:44:36Z</time></trkpt><trkpt lat="43.70801979179397" lon="7.287126117790316"><ele>22.0</ele><time>2026-05-01T15:44:37Z</time></trkpt><trkpt lat="43.707958752052605" lon="7.287044564608715"><ele>22.0</ele><time>2026-05-01T15:44:38Z</time></trkpt><trkpt lat="43.70789139837322" lon="7.2869649837886135"><ele>22.0</ele><time>2026-05-01T15:44:39Z</time></trkpt><trkpt lat="43.70782250704254" lon="7.286870485423295"><ele>22.0</ele><time>2026-05-01T15:44:40Z</time></trkpt><trkpt lat="43.7077602990238" lon="7.2867784924947845"><ele>22.0</ele><time>2026-05-01T15:44:41Z</time></trkpt><trkpt lat="43.707703423279085" lon="7.28670090886543"><ele>22.0</ele><time>2026-05-01T15:44:42Z</time></trkpt><trkpt lat="43.707653849338186" lon="7.286631314251008"><ele>21.833333333333332</ele><time>2026-05-01T15:44:43Z</time></trkpt><trkpt lat="43.70761012618458" lon="7.28656793752309"><ele>21.666666666666664</ele><time>2026-05-01T15:44:44Z</time></trkpt><trkpt lat="43.7075399646921" lon="7.286466103399677"><ele>21.5</ele><time>2026-05-01T15:44:46Z</time></trkpt><trkpt lat="43.70747880867206" lon="7.28637063816808"><ele>21.333333333333332</ele><time>2026-05-01T15:44:48Z</time></trkpt><trkpt lat="43.70743227098202" lon="7.286307593489588"><ele>21.166666666666668</ele><time>2026-05-01T15:44:51Z</time></trkpt><trkpt lat="43.70737367708011" lon="7.286205616845515"><ele>21.0</ele><time>2026-05-01T15:45:16Z</time></trkpt><trkpt lat="43.707313370272885" lon="7.286106093756263"><ele>21.0</ele><time>2026-05-01T15:45:18Z</time></trkpt><trkpt lat="43.70723834369759" lon="7.285981945428201"><ele>21.0</ele><time>2026-05-01T15:45:20Z</time></trkpt><trkpt lat="43.70713771986142" lon="7.285898576338611"><ele>21.0</ele><time>2026-05-01T15:45:22Z</time></trkpt><trkpt lat="43.70704069616187" lon="7.285810145359253"><ele>21.0</ele><time>2026-05-01T15:45:24Z</time></trkpt><trkpt lat="43.706957946494434" lon="7.285733797480334"><ele>21.0</ele><time>2026-05-01T15:45:26Z</time></trkpt><trkpt lat="43.70688881696364" lon="7.285670016537143"><ele>21.0</ele><time>2026-05-01T15:45:29Z</time></trkpt><trkpt lat="43.70697044808524" lon="7.285466459045187"><ele>21.0</ele><time>2026-05-01T15:45:30Z</time></trkpt><trkpt lat="43.70699512119446" lon="7.28537078876946"><ele>21.0</ele><time>2026-05-01T15:45:31Z</time></trkpt><trkpt lat="43.70702981780913" lon="7.2852742601939005"><ele>21.0</ele><time>2026-05-01T15:45:32Z</time></trkpt><trkpt lat="43.7070662171206" lon="7.2851808948730294"><ele>21.0</ele><time>2026-05-01T15:45:33Z</time></trkpt><trkpt lat="43.70709444257857" lon="7.285094825172594"><ele>21.0</ele><time>2026-05-01T15:45:34Z</time></trkpt><trkpt lat="43.7071150520522" lon="7.285011001787995"><ele>21.0</ele><time>2026-05-01T15:45:35Z</time></trkpt><trkpt lat="43.707155107423546" lon="7.2848666985668205"><ele>21.0</ele><time>2026-05-01T15:45:37Z</time></trkpt><trkpt lat="43.70719594583912" lon="7.284736069884193"><ele>21.0</ele><time>2026-05-01T15:45:39Z</time></trkpt><trkpt lat="43.70723191837378" lon="7.28462670231993"><ele>21.0</ele><time>2026-05-01T15:45:41Z</time></trkpt><trkpt lat="43.70726344824538" lon="7.284528971959501"><ele>21.0</ele><time>2026-05-01T15:45:43Z</time></trkpt><trkpt lat="43.70729294755992" lon="7.284441492390511"><ele>21.0</ele><time>2026-05-01T15:45:45Z</time></trkpt><trkpt lat="43.70729672431333" lon="7.284354486237976"><ele>21.0</ele><time>2026-05-01T15:45:49Z</time></trkpt><trkpt lat="43.7073552057709" lon="7.2842673403454965"><ele>21.0</ele><time>2026-05-01T15:46:51.061Z</time></trkpt><trkpt lat="43.7074002337177" lon="7.284176642013297"><ele>21.0</ele><time>2026-05-01T15:46:52.044Z</time></trkpt></trkseg></trk></gpx>